<?xml version="1.0" encoding="UTF-8" standalone="no" ?>
<gpx xmlns="http://www.topografix.com/GPX/1/1" xmlns:xsi="http://www.w3.org/2001/XMLSchema-instance" xsi:schemaLocation="http://www.topografix.com/GPX/1/1 http://www.topografix.com/GPX/1/1/gpx.xsd" version="1.1" creator="VisuGPX - https://www.visugpx.com">
  <metadata>
    <name>Tour de Cornouaille samedi</name>
  </metadata>
  <trk>
    <name><![CDATA[Tour de Cornouaille]]></name>
    <extensions>
      <line xmlns="http://www.topografix.com/GPX/gpx_style/0/2">
        <color>0000FF</color>
        <width>4</width>
      </line>
    </extensions>
    <trkseg>
      <trkpt lat="47.8797" lon="-3.92868">
        <ele>5</ele>
        <time>2022-12-28T09:16:20.000Z</time>
        <extensions>
          <visugpx:TrkExtension xmlns:visugpx="https://www.visugpx.com/editgpx/">
            <visugpx:node>1</visugpx:node>
            </visugpx:TrkExtension>
        </extensions>
      </trkpt>
      <trkpt lat="47.87993" lon="-3.92821">
        <ele>6</ele>
        <time>2022-12-28T09:16:20.006Z</time>
      </trkpt>
      <trkpt lat="47.88002" lon="-3.928">
        <ele>7</ele>
        <time>2022-12-28T09:16:20.015Z</time>
      </trkpt>
      <trkpt lat="47.88007" lon="-3.92792">
        <ele>8</ele>
        <time>2022-12-28T09:16:20.025Z</time>
      </trkpt>
      <trkpt lat="47.88045" lon="-3.92717">
        <ele>8</ele>
        <time>2022-12-28T09:16:20.045Z</time>
      </trkpt>
      <trkpt lat="47.88053" lon="-3.92708">
        <ele>9</ele>
        <time>2022-12-28T09:16:20.067Z</time>
      </trkpt>
      <trkpt lat="47.88066" lon="-3.92698">
        <ele>10</ele>
        <time>2022-12-28T09:16:20.091Z</time>
      </trkpt>
      <trkpt lat="47.88086" lon="-3.92679">
        <ele>11</ele>
        <time>2022-12-28T09:16:20.119Z</time>
      </trkpt>
      <trkpt lat="47.88094" lon="-3.92669">
        <ele>12</ele>
        <time>2022-12-28T09:16:20.149Z</time>
      </trkpt>
      <trkpt lat="47.88099" lon="-3.92651">
        <ele>14</ele>
        <time>2022-12-28T09:16:20.181Z</time>
      </trkpt>
      <trkpt lat="47.88107" lon="-3.92633">
        <ele>15</ele>
        <time>2022-12-28T09:16:20.215Z</time>
      </trkpt>
      <trkpt lat="47.88109" lon="-3.92624">
        <ele>16</ele>
        <time>2022-12-28T09:16:20.250Z</time>
      </trkpt>
      <trkpt lat="47.88119" lon="-3.92618">
        <ele>17</ele>
        <time>2022-12-28T09:16:20.287Z</time>
      </trkpt>
      <trkpt lat="47.88147" lon="-3.92595">
        <ele>19</ele>
        <time>2022-12-28T09:16:20.329Z</time>
      </trkpt>
      <trkpt lat="47.88182" lon="-3.92569">
        <ele>20</ele>
        <time>2022-12-28T09:16:20.377Z</time>
      </trkpt>
      <trkpt lat="47.88202" lon="-3.92542">
        <ele>22</ele>
        <time>2022-12-28T09:16:20.430Z</time>
      </trkpt>
      <trkpt lat="47.8821" lon="-3.92532">
        <ele>23</ele>
        <time>2022-12-28T09:16:20.484Z</time>
      </trkpt>
      <trkpt lat="47.88233" lon="-3.92515">
        <ele>24</ele>
        <time>2022-12-28T09:16:20.542Z</time>
      </trkpt>
      <trkpt lat="47.88329" lon="-3.92474">
        <ele>26</ele>
        <time>2022-12-28T09:16:20.616Z</time>
      </trkpt>
      <trkpt lat="47.88333" lon="-3.92463">
        <ele>27</ele>
        <time>2022-12-28T09:16:20.692Z</time>
      </trkpt>
      <trkpt lat="47.88354" lon="-3.9252">
        <ele>28</ele>
        <time>2022-12-28T09:16:20.775Z</time>
      </trkpt>
      <trkpt lat="47.88369" lon="-3.92584">
        <ele>29</ele>
        <time>2022-12-28T09:16:20.865Z</time>
      </trkpt>
      <trkpt lat="47.88376" lon="-3.9263">
        <ele>30</ele>
        <time>2022-12-28T09:16:20.960Z</time>
      </trkpt>
      <trkpt lat="47.88376" lon="-3.9263">
        <ele>33</ele>
        <time>2022-12-28T09:16:21.055Z</time>
      </trkpt>
      <trkpt lat="47.88399" lon="-3.92758">
        <ele>34</ele>
        <time>2022-12-28T09:16:21.164Z</time>
      </trkpt>
      <trkpt lat="47.88399" lon="-3.92758">
        <ele>35</ele>
        <time>2022-12-28T09:16:21.273Z</time>
      </trkpt>
      <trkpt lat="47.88439" lon="-3.92976">
        <ele>36</ele>
        <time>2022-12-28T09:16:21.407Z</time>
      </trkpt>
      <trkpt lat="47.88439" lon="-3.92976">
        <ele>37</ele>
        <time>2022-12-28T09:16:21.541Z</time>
      </trkpt>
      <trkpt lat="47.88447" lon="-3.92999">
        <ele>38</ele>
        <time>2022-12-28T09:16:21.677Z</time>
      </trkpt>
      <trkpt lat="47.88476" lon="-3.93083">
        <ele>40</ele>
        <time>2022-12-28T09:16:21.824Z</time>
      </trkpt>
      <trkpt lat="47.88447" lon="-3.92999">
        <ele>38</ele>
        <time>2022-12-28T09:16:21.981Z</time>
      </trkpt>
      <trkpt lat="47.88476" lon="-3.93083">
        <ele>40</ele>
        <time>2022-12-28T09:16:22.148Z</time>
      </trkpt>
      <trkpt lat="47.88498" lon="-3.93135">
        <ele>42</ele>
        <time>2022-12-28T09:16:22.321Z</time>
      </trkpt>
      <trkpt lat="47.88524" lon="-3.93183">
        <ele>43</ele>
        <time>2022-12-28T09:16:22.501Z</time>
      </trkpt>
      <trkpt lat="47.88556" lon="-3.9323">
        <ele>43</ele>
        <time>2022-12-28T09:16:22.688Z</time>
      </trkpt>
      <trkpt lat="47.88601" lon="-3.93286">
        <ele>44</ele>
        <time>2022-12-28T09:16:22.885Z</time>
      </trkpt>
      <trkpt lat="47.88639" lon="-3.93322">
        <ele>45</ele>
        <time>2022-12-28T09:16:23.089Z</time>
      </trkpt>
      <trkpt lat="47.88664" lon="-3.9334">
        <ele>45</ele>
        <time>2022-12-28T09:16:23.297Z</time>
      </trkpt>
      <trkpt lat="47.88664" lon="-3.9334">
        <ele>46</ele>
        <time>2022-12-28T09:16:23.505Z</time>
      </trkpt>
      <trkpt lat="47.88697" lon="-3.93363">
        <ele>47</ele>
        <time>2022-12-28T09:16:23.719Z</time>
      </trkpt>
      <trkpt lat="47.8875" lon="-3.9339">
        <ele>47</ele>
        <time>2022-12-28T09:16:23.942Z</time>
      </trkpt>
      <trkpt lat="47.88775" lon="-3.93399">
        <ele>48</ele>
        <time>2022-12-28T09:16:24.169Z</time>
      </trkpt>
      <trkpt lat="47.88803" lon="-3.93404">
        <ele>48</ele>
        <time>2022-12-28T09:16:24.401Z</time>
      </trkpt>
      <trkpt lat="47.88848" lon="-3.93409">
        <ele>48</ele>
        <time>2022-12-28T09:16:24.640Z</time>
      </trkpt>
      <trkpt lat="47.88929" lon="-3.93413">
        <ele>49</ele>
        <time>2022-12-28T09:16:24.892Z</time>
      </trkpt>
      <trkpt lat="47.88939" lon="-3.93414">
        <ele>49</ele>
        <time>2022-12-28T09:16:25.146Z</time>
      </trkpt>
      <trkpt lat="47.89007" lon="-3.93416">
        <ele>49</ele>
        <time>2022-12-28T09:16:25.410Z</time>
      </trkpt>
      <trkpt lat="47.89105" lon="-3.93417">
        <ele>50</ele>
        <time>2022-12-28T09:16:25.690Z</time>
      </trkpt>
      <trkpt lat="47.89151" lon="-3.93409">
        <ele>50</ele>
        <time>2022-12-28T09:16:25.978Z</time>
      </trkpt>
      <trkpt lat="47.89205" lon="-3.93391">
        <ele>50</ele>
        <time>2022-12-28T09:16:26.275Z</time>
      </trkpt>
      <trkpt lat="47.89251" lon="-3.93369">
        <ele>51</ele>
        <time>2022-12-28T09:16:26.579Z</time>
      </trkpt>
      <trkpt lat="47.89287" lon="-3.93343">
        <ele>51</ele>
        <time>2022-12-28T09:16:26.890Z</time>
      </trkpt>
      <trkpt lat="47.89289" lon="-3.93341">
        <ele>51</ele>
        <time>2022-12-28T09:16:27.201Z</time>
      </trkpt>
      <trkpt lat="47.89289" lon="-3.93341">
        <ele>52</ele>
        <time>2022-12-28T09:16:27.512Z</time>
      </trkpt>
      <trkpt lat="47.89289" lon="-3.93341">
        <ele>52</ele>
        <time>2022-12-28T09:16:27.823Z</time>
      </trkpt>
      <trkpt lat="47.89318" lon="-3.93317">
        <ele>53</ele>
        <time>2022-12-28T09:16:28.139Z</time>
      </trkpt>
      <trkpt lat="47.89343" lon="-3.93291">
        <ele>53</ele>
        <time>2022-12-28T09:16:28.460Z</time>
      </trkpt>
      <trkpt lat="47.89343" lon="-3.93291">
        <ele>53</ele>
        <time>2022-12-28T09:16:28.781Z</time>
      </trkpt>
      <trkpt lat="47.89343" lon="-3.93291">
        <ele>53</ele>
        <time>2022-12-28T09:16:29.102Z</time>
      </trkpt>
      <trkpt lat="47.89343" lon="-3.93291">
        <ele>53</ele>
        <time>2022-12-28T09:16:29.423Z</time>
      </trkpt>
      <trkpt lat="47.89346" lon="-3.93288">
        <ele>54</ele>
        <time>2022-12-28T09:16:29.745Z</time>
      </trkpt>
      <trkpt lat="47.89374" lon="-3.93255">
        <ele>54</ele>
        <time>2022-12-28T09:16:30.072Z</time>
      </trkpt>
      <trkpt lat="47.89409" lon="-3.93208">
        <ele>54</ele>
        <time>2022-12-28T09:16:30.407Z</time>
      </trkpt>
      <trkpt lat="47.89433" lon="-3.93164">
        <ele>55</ele>
        <time>2022-12-28T09:16:30.748Z</time>
      </trkpt>
      <trkpt lat="47.89446" lon="-3.93141">
        <ele>56</ele>
        <time>2022-12-28T09:16:31.092Z</time>
      </trkpt>
      <trkpt lat="47.89433" lon="-3.93164">
        <ele>56</ele>
        <time>2022-12-28T09:16:31.439Z</time>
      </trkpt>
      <trkpt lat="47.89446" lon="-3.93141">
        <ele>56</ele>
        <time>2022-12-28T09:16:31.790Z</time>
      </trkpt>
      <trkpt lat="47.89467" lon="-3.93092">
        <ele>57</ele>
        <time>2022-12-28T09:16:32.147Z</time>
      </trkpt>
      <trkpt lat="47.89492" lon="-3.93023">
        <ele>57</ele>
        <time>2022-12-28T09:16:32.512Z</time>
      </trkpt>
      <trkpt lat="47.89492" lon="-3.93023">
        <ele>57</ele>
        <time>2022-12-28T09:16:32.877Z</time>
      </trkpt>
      <trkpt lat="47.89495" lon="-3.93011">
        <ele>57</ele>
        <time>2022-12-28T09:16:33.244Z</time>
      </trkpt>
      <trkpt lat="47.89521" lon="-3.92889">
        <ele>58</ele>
        <time>2022-12-28T09:16:33.624Z</time>
      </trkpt>
      <trkpt lat="47.89527" lon="-3.92831">
        <ele>58</ele>
        <time>2022-12-28T09:16:34.011Z</time>
      </trkpt>
      <trkpt lat="47.89531" lon="-3.92761">
        <ele>58</ele>
        <time>2022-12-28T09:16:34.405Z</time>
      </trkpt>
      <trkpt lat="47.89529" lon="-3.92734">
        <ele>59</ele>
        <time>2022-12-28T09:16:34.802Z</time>
      </trkpt>
      <trkpt lat="47.8953" lon="-3.92734">
        <ele>59</ele>
        <time>2022-12-28T09:16:35.199Z</time>
      </trkpt>
      <trkpt lat="47.89529" lon="-3.92698">
        <ele>59</ele>
        <time>2022-12-28T09:16:35.600Z</time>
      </trkpt>
      <trkpt lat="47.89524" lon="-3.9263">
        <ele>59</ele>
        <time>2022-12-28T09:16:36.008Z</time>
      </trkpt>
      <trkpt lat="47.89488" lon="-3.92368">
        <ele>59</ele>
        <time>2022-12-28T09:16:36.445Z</time>
      </trkpt>
      <trkpt lat="47.89482" lon="-3.92311">
        <ele>60</ele>
        <time>2022-12-28T09:16:36.889Z</time>
      </trkpt>
      <trkpt lat="47.89479" lon="-3.92238">
        <ele>60</ele>
        <time>2022-12-28T09:16:37.340Z</time>
      </trkpt>
      <trkpt lat="47.89482" lon="-3.92182">
        <ele>60</ele>
        <time>2022-12-28T09:16:37.797Z</time>
      </trkpt>
      <trkpt lat="47.89487" lon="-3.92124">
        <ele>61</ele>
        <time>2022-12-28T09:16:38.261Z</time>
      </trkpt>
      <trkpt lat="47.89497" lon="-3.92059">
        <ele>61</ele>
        <time>2022-12-28T09:16:38.732Z</time>
      </trkpt>
      <trkpt lat="47.89497" lon="-3.92059">
        <ele>61</ele>
        <time>2022-12-28T09:16:39.203Z</time>
      </trkpt>
      <trkpt lat="47.89511" lon="-3.91995">
        <ele>62</ele>
        <time>2022-12-28T09:16:39.681Z</time>
      </trkpt>
      <trkpt lat="47.89532" lon="-3.9193">
        <ele>62</ele>
        <time>2022-12-28T09:16:40.167Z</time>
      </trkpt>
      <trkpt lat="47.89547" lon="-3.91892">
        <ele>62</ele>
        <time>2022-12-28T09:16:40.658Z</time>
      </trkpt>
      <trkpt lat="47.89564" lon="-3.91854">
        <ele>63</ele>
        <time>2022-12-28T09:16:41.154Z</time>
      </trkpt>
      <trkpt lat="47.89592" lon="-3.91802">
        <ele>63</ele>
        <time>2022-12-28T09:16:41.657Z</time>
      </trkpt>
      <trkpt lat="47.89602" lon="-3.91784">
        <ele>64</ele>
        <time>2022-12-28T09:16:42.162Z</time>
      </trkpt>
      <trkpt lat="47.89602" lon="-3.91784">
        <ele>64</ele>
        <time>2022-12-28T09:16:42.667Z</time>
      </trkpt>
      <trkpt lat="47.89622" lon="-3.91752">
        <ele>64</ele>
        <time>2022-12-28T09:16:43.177Z</time>
      </trkpt>
      <trkpt lat="47.89649" lon="-3.9172">
        <ele>65</ele>
        <time>2022-12-28T09:16:43.692Z</time>
      </trkpt>
      <trkpt lat="47.89649" lon="-3.9172">
        <ele>65</ele>
        <time>2022-12-28T09:16:44.208Z</time>
      </trkpt>
      <trkpt lat="47.89713" lon="-3.91654">
        <ele>66</ele>
        <time>2022-12-28T09:16:44.736Z</time>
      </trkpt>
      <trkpt lat="47.89782" lon="-3.91609">
        <ele>66</ele>
        <time>2022-12-28T09:16:45.276Z</time>
      </trkpt>
      <trkpt lat="47.89815" lon="-3.91596">
        <ele>67</ele>
        <time>2022-12-28T09:16:45.822Z</time>
      </trkpt>
      <trkpt lat="47.89845" lon="-3.91583">
        <ele>67</ele>
        <time>2022-12-28T09:16:46.373Z</time>
      </trkpt>
      <trkpt lat="47.90018" lon="-3.91554">
        <ele>68</ele>
        <time>2022-12-28T09:16:46.951Z</time>
      </trkpt>
      <trkpt lat="47.9007" lon="-3.91541">
        <ele>68</ele>
        <time>2022-12-28T09:16:47.538Z</time>
      </trkpt>
      <trkpt lat="47.90083" lon="-3.91535">
        <ele>69</ele>
        <time>2022-12-28T09:16:48.127Z</time>
      </trkpt>
      <trkpt lat="47.90083" lon="-3.91535">
        <ele>69</ele>
        <time>2022-12-28T09:16:48.716Z</time>
      </trkpt>
      <trkpt lat="47.90114" lon="-3.91521">
        <ele>70</ele>
        <time>2022-12-28T09:16:49.310Z</time>
      </trkpt>
      <trkpt lat="47.9015" lon="-3.91498">
        <ele>70</ele>
        <time>2022-12-28T09:16:49.910Z</time>
      </trkpt>
      <trkpt lat="47.90163" lon="-3.91487">
        <ele>71</ele>
        <time>2022-12-28T09:16:50.513Z</time>
      </trkpt>
      <trkpt lat="47.9022" lon="-3.91441">
        <ele>73</ele>
        <time>2022-12-28T09:16:51.126Z</time>
      </trkpt>
      <trkpt lat="47.90163" lon="-3.91487">
        <ele>73</ele>
        <time>2022-12-28T09:16:51.750Z</time>
      </trkpt>
      <trkpt lat="47.9022" lon="-3.91441">
        <ele>73</ele>
        <time>2022-12-28T09:16:52.384Z</time>
      </trkpt>
      <trkpt lat="47.90272" lon="-3.91395">
        <ele>74</ele>
        <time>2022-12-28T09:16:53.028Z</time>
      </trkpt>
      <trkpt lat="47.90363" lon="-3.91317">
        <ele>75</ele>
        <time>2022-12-28T09:16:53.689Z</time>
      </trkpt>
      <trkpt lat="47.90363" lon="-3.91317">
        <ele>75</ele>
        <time>2022-12-28T09:16:54.350Z</time>
      </trkpt>
      <trkpt lat="47.90477" lon="-3.91216">
        <ele>75</ele>
        <time>2022-12-28T09:16:55.032Z</time>
      </trkpt>
      <trkpt lat="47.90477" lon="-3.91216">
        <ele>76</ele>
        <time>2022-12-28T09:16:55.714Z</time>
      </trkpt>
      <trkpt lat="47.90477" lon="-3.91216">
        <ele>76</ele>
        <time>2022-12-28T09:16:56.396Z</time>
      </trkpt>
      <trkpt lat="47.90502" lon="-3.91194">
        <ele>77</ele>
        <time>2022-12-28T09:16:57.082Z</time>
      </trkpt>
      <trkpt lat="47.90604" lon="-3.91104">
        <ele>77</ele>
        <time>2022-12-28T09:16:57.787Z</time>
      </trkpt>
      <trkpt lat="47.90604" lon="-3.91104">
        <ele>77</ele>
        <time>2022-12-28T09:16:58.492Z</time>
      </trkpt>
      <trkpt lat="47.90604" lon="-3.91104">
        <ele>78</ele>
        <time>2022-12-28T09:16:59.197Z</time>
      </trkpt>
      <trkpt lat="47.90604" lon="-3.91104">
        <ele>78</ele>
        <time>2022-12-28T09:16:59.902Z</time>
      </trkpt>
      <trkpt lat="47.90604" lon="-3.91104">
        <ele>78</ele>
        <time>2022-12-28T09:17:00.607Z</time>
      </trkpt>
      <trkpt lat="47.90606" lon="-3.91102">
        <ele>78</ele>
        <time>2022-12-28T09:17:01.313Z</time>
      </trkpt>
      <trkpt lat="47.90606" lon="-3.91102">
        <ele>79</ele>
        <time>2022-12-28T09:17:02.019Z</time>
      </trkpt>
      <trkpt lat="47.90786" lon="-3.90944">
        <ele>79</ele>
        <time>2022-12-28T09:17:02.758Z</time>
      </trkpt>
      <trkpt lat="47.90786" lon="-3.90944">
        <ele>79</ele>
        <time>2022-12-28T09:17:03.497Z</time>
      </trkpt>
      <trkpt lat="47.90817" lon="-3.90917">
        <ele>79</ele>
        <time>2022-12-28T09:17:04.242Z</time>
      </trkpt>
      <trkpt lat="47.90817" lon="-3.90917">
        <ele>80</ele>
        <time>2022-12-28T09:17:04.987Z</time>
      </trkpt>
      <trkpt lat="47.90817" lon="-3.90917">
        <ele>80</ele>
        <time>2022-12-28T09:17:05.732Z</time>
      </trkpt>
      <trkpt lat="47.90844" lon="-3.90893">
        <ele>80</ele>
        <time>2022-12-28T09:17:06.482Z</time>
      </trkpt>
      <trkpt lat="47.90854" lon="-3.90884">
        <ele>80</ele>
        <time>2022-12-28T09:17:07.234Z</time>
      </trkpt>
      <trkpt lat="47.90945" lon="-3.90805">
        <ele>81</ele>
        <time>2022-12-28T09:17:08.003Z</time>
      </trkpt>
      <trkpt lat="47.90844" lon="-3.90893">
        <ele>80</ele>
        <time>2022-12-28T09:17:08.790Z</time>
      </trkpt>
      <trkpt lat="47.90854" lon="-3.90884">
        <ele>81</ele>
        <time>2022-12-28T09:17:09.579Z</time>
      </trkpt>
      <trkpt lat="47.90945" lon="-3.90805">
        <ele>81</ele>
        <time>2022-12-28T09:17:10.385Z</time>
      </trkpt>
      <trkpt lat="47.90854" lon="-3.90884">
        <ele>81</ele>
        <time>2022-12-28T09:17:11.208Z</time>
      </trkpt>
      <trkpt lat="47.90945" lon="-3.90805">
        <ele>81</ele>
        <time>2022-12-28T09:17:12.048Z</time>
      </trkpt>
      <trkpt lat="47.90947" lon="-3.90799">
        <ele>81</ele>
        <time>2022-12-28T09:17:12.889Z</time>
      </trkpt>
      <trkpt lat="47.90949" lon="-3.90794">
        <ele>81</ele>
        <time>2022-12-28T09:17:13.730Z</time>
      </trkpt>
      <trkpt lat="47.9095" lon="-3.90789">
        <ele>81</ele>
        <time>2022-12-28T09:17:14.572Z</time>
      </trkpt>
      <trkpt lat="47.90953" lon="-3.90785">
        <ele>80</ele>
        <time>2022-12-28T09:17:15.414Z</time>
      </trkpt>
      <trkpt lat="47.90965" lon="-3.90787">
        <ele>80</ele>
        <time>2022-12-28T09:17:16.258Z</time>
      </trkpt>
      <trkpt lat="47.91139" lon="-3.90636">
        <ele>80</ele>
        <time>2022-12-28T09:17:17.135Z</time>
      </trkpt>
      <trkpt lat="47.91167" lon="-3.90616">
        <ele>80</ele>
        <time>2022-12-28T09:17:18.017Z</time>
      </trkpt>
      <trkpt lat="47.91167" lon="-3.90616">
        <ele>80</ele>
        <time>2022-12-28T09:17:18.899Z</time>
      </trkpt>
      <trkpt lat="47.91167" lon="-3.90616">
        <ele>80</ele>
        <time>2022-12-28T09:17:19.781Z</time>
      </trkpt>
      <trkpt lat="47.91168" lon="-3.90616">
        <ele>80</ele>
        <time>2022-12-28T09:17:20.663Z</time>
      </trkpt>
      <trkpt lat="47.91217" lon="-3.9059">
        <ele>80</ele>
        <time>2022-12-28T09:17:21.553Z</time>
      </trkpt>
      <trkpt lat="47.91288" lon="-3.90566">
        <ele>80</ele>
        <time>2022-12-28T09:17:22.455Z</time>
      </trkpt>
      <trkpt lat="47.91506" lon="-3.90536">
        <ele>80</ele>
        <time>2022-12-28T09:17:23.392Z</time>
      </trkpt>
      <trkpt lat="47.91531" lon="-3.90532">
        <ele>79</ele>
        <time>2022-12-28T09:17:24.333Z</time>
      </trkpt>
      <trkpt lat="47.91531" lon="-3.90532">
        <ele>79</ele>
        <time>2022-12-28T09:17:25.274Z</time>
      </trkpt>
      <trkpt lat="47.91531" lon="-3.90532">
        <ele>79</ele>
        <time>2022-12-28T09:17:26.215Z</time>
      </trkpt>
      <trkpt lat="47.91531" lon="-3.90532">
        <ele>79</ele>
        <time>2022-12-28T09:17:27.156Z</time>
      </trkpt>
      <trkpt lat="47.91531" lon="-3.90532">
        <ele>79</ele>
        <time>2022-12-28T09:17:28.097Z</time>
      </trkpt>
      <trkpt lat="47.91531" lon="-3.90532">
        <ele>79</ele>
        <time>2022-12-28T09:17:29.038Z</time>
      </trkpt>
      <trkpt lat="47.91534" lon="-3.90531">
        <ele>79</ele>
        <time>2022-12-28T09:17:29.979Z</time>
      </trkpt>
      <trkpt lat="47.91534" lon="-3.90531">
        <ele>79</ele>
        <time>2022-12-28T09:17:30.920Z</time>
      </trkpt>
      <trkpt lat="47.91627" lon="-3.90515">
        <ele>79</ele>
        <time>2022-12-28T09:17:31.876Z</time>
      </trkpt>
      <trkpt lat="47.91627" lon="-3.90515">
        <ele>79</ele>
        <time>2022-12-28T09:17:32.832Z</time>
      </trkpt>
      <trkpt lat="47.91633" lon="-3.90514">
        <ele>79</ele>
        <time>2022-12-28T09:17:33.789Z</time>
      </trkpt>
      <trkpt lat="47.91633" lon="-3.90514">
        <ele>79</ele>
        <time>2022-12-28T09:17:34.746Z</time>
      </trkpt>
      <trkpt lat="47.91712" lon="-3.90493">
        <ele>79</ele>
        <time>2022-12-28T09:17:35.716Z</time>
      </trkpt>
      <trkpt lat="47.91938" lon="-3.90376">
        <ele>79</ele>
        <time>2022-12-28T09:17:36.724Z</time>
      </trkpt>
      <trkpt lat="47.92123" lon="-3.9028">
        <ele>80</ele>
        <time>2022-12-28T09:17:37.764Z</time>
      </trkpt>
      <trkpt lat="47.91938" lon="-3.90376">
        <ele>79</ele>
        <time>2022-12-28T09:17:38.835Z</time>
      </trkpt>
      <trkpt lat="47.92123" lon="-3.9028">
        <ele>80</ele>
        <time>2022-12-28T09:17:39.937Z</time>
      </trkpt>
      <trkpt lat="47.923" lon="-3.90164">
        <ele>80</ele>
        <time>2022-12-28T09:17:41.070Z</time>
      </trkpt>
      <trkpt lat="47.923" lon="-3.90164">
        <ele>81</ele>
        <time>2022-12-28T09:17:42.203Z</time>
      </trkpt>
      <trkpt lat="47.92303" lon="-3.90162">
        <ele>81</ele>
        <time>2022-12-28T09:17:43.337Z</time>
      </trkpt>
      <trkpt lat="47.92513" lon="-3.9002">
        <ele>82</ele>
        <time>2022-12-28T09:17:44.508Z</time>
      </trkpt>
      <trkpt lat="47.92513" lon="-3.9002">
        <ele>82</ele>
        <time>2022-12-28T09:17:45.679Z</time>
      </trkpt>
      <trkpt lat="47.92517" lon="-3.90017">
        <ele>83</ele>
        <time>2022-12-28T09:17:46.851Z</time>
      </trkpt>
      <trkpt lat="47.92583" lon="-3.89975">
        <ele>84</ele>
        <time>2022-12-28T09:17:48.034Z</time>
      </trkpt>
      <trkpt lat="47.92713" lon="-3.89884">
        <ele>84</ele>
        <time>2022-12-28T09:17:49.240Z</time>
      </trkpt>
      <trkpt lat="47.92734" lon="-3.89867">
        <ele>85</ele>
        <time>2022-12-28T09:17:50.450Z</time>
      </trkpt>
      <trkpt lat="47.92809" lon="-3.89803">
        <ele>86</ele>
        <time>2022-12-28T09:17:51.674Z</time>
      </trkpt>
      <trkpt lat="47.92809" lon="-3.89803">
        <ele>86</ele>
        <time>2022-12-28T09:17:52.898Z</time>
      </trkpt>
      <trkpt lat="47.9281" lon="-3.89802">
        <ele>87</ele>
        <time>2022-12-28T09:17:54.122Z</time>
      </trkpt>
      <trkpt lat="47.9281" lon="-3.89802">
        <ele>87</ele>
        <time>2022-12-28T09:17:55.346Z</time>
      </trkpt>
      <trkpt lat="47.9281" lon="-3.89802">
        <ele>88</ele>
        <time>2022-12-28T09:17:56.570Z</time>
      </trkpt>
      <trkpt lat="47.9281" lon="-3.89802">
        <ele>89</ele>
        <time>2022-12-28T09:17:57.794Z</time>
      </trkpt>
      <trkpt lat="47.92812" lon="-3.898">
        <ele>89</ele>
        <time>2022-12-28T09:17:59.018Z</time>
      </trkpt>
      <trkpt lat="47.92812" lon="-3.898">
        <ele>90</ele>
        <time>2022-12-28T09:18:00.242Z</time>
      </trkpt>
      <trkpt lat="47.92828" lon="-3.89787">
        <ele>91</ele>
        <time>2022-12-28T09:18:01.469Z</time>
      </trkpt>
      <trkpt lat="47.92828" lon="-3.89787">
        <ele>92</ele>
        <time>2022-12-28T09:18:02.696Z</time>
      </trkpt>
      <trkpt lat="47.92828" lon="-3.89787">
        <ele>92</ele>
        <time>2022-12-28T09:18:03.923Z</time>
      </trkpt>
      <trkpt lat="47.9285" lon="-3.89768">
        <ele>93</ele>
        <time>2022-12-28T09:18:05.154Z</time>
      </trkpt>
      <trkpt lat="47.92964" lon="-3.89663">
        <ele>94</ele>
        <time>2022-12-28T09:18:06.407Z</time>
      </trkpt>
      <trkpt lat="47.92977" lon="-3.89668">
        <ele>94</ele>
        <time>2022-12-28T09:18:07.662Z</time>
      </trkpt>
      <trkpt lat="47.92997" lon="-3.89648">
        <ele>95</ele>
        <time>2022-12-28T09:18:08.921Z</time>
      </trkpt>
      <trkpt lat="47.93119" lon="-3.89543">
        <ele>95</ele>
        <time>2022-12-28T09:18:10.202Z</time>
      </trkpt>
      <trkpt lat="47.93126" lon="-3.89542">
        <ele>96</ele>
        <time>2022-12-28T09:18:11.484Z</time>
      </trkpt>
      <trkpt lat="47.93133" lon="-3.89543">
        <ele>96</ele>
        <time>2022-12-28T09:18:12.768Z</time>
      </trkpt>
      <trkpt lat="47.93204" lon="-3.89578">
        <ele>96</ele>
        <time>2022-12-28T09:18:14.064Z</time>
      </trkpt>
      <trkpt lat="47.93246" lon="-3.89593">
        <ele>97</ele>
        <time>2022-12-28T09:18:15.367Z</time>
      </trkpt>
      <trkpt lat="47.93272" lon="-3.89597">
        <ele>97</ele>
        <time>2022-12-28T09:18:16.674Z</time>
      </trkpt>
      <trkpt lat="47.93314" lon="-3.89595">
        <ele>98</ele>
        <time>2022-12-28T09:18:17.987Z</time>
      </trkpt>
      <trkpt lat="47.93332" lon="-3.89591">
        <ele>98</ele>
        <time>2022-12-28T09:18:19.303Z</time>
      </trkpt>
      <trkpt lat="47.9334" lon="-3.89587">
        <ele>98</ele>
        <time>2022-12-28T09:18:20.621Z</time>
      </trkpt>
      <trkpt lat="47.9334" lon="-3.89587">
        <ele>98</ele>
        <time>2022-12-28T09:18:21.939Z</time>
      </trkpt>
      <trkpt lat="47.9334" lon="-3.89587">
        <ele>98</ele>
        <time>2022-12-28T09:18:23.257Z</time>
      </trkpt>
      <trkpt lat="47.9334" lon="-3.89587">
        <ele>99</ele>
        <time>2022-12-28T09:18:24.575Z</time>
      </trkpt>
      <trkpt lat="47.9334" lon="-3.89587">
        <ele>99</ele>
        <time>2022-12-28T09:18:25.893Z</time>
      </trkpt>
      <trkpt lat="47.9334" lon="-3.89587">
        <ele>99</ele>
        <time>2022-12-28T09:18:27.211Z</time>
      </trkpt>
      <trkpt lat="47.93343" lon="-3.89586">
        <ele>99</ele>
        <time>2022-12-28T09:18:28.529Z</time>
      </trkpt>
      <trkpt lat="47.93343" lon="-3.89586">
        <ele>99</ele>
        <time>2022-12-28T09:18:29.847Z</time>
      </trkpt>
      <trkpt lat="47.93348" lon="-3.89583">
        <ele>99</ele>
        <time>2022-12-28T09:18:31.166Z</time>
      </trkpt>
      <trkpt lat="47.93376" lon="-3.89563">
        <ele>99</ele>
        <time>2022-12-28T09:18:32.490Z</time>
      </trkpt>
      <trkpt lat="47.93381" lon="-3.8956">
        <ele>99</ele>
        <time>2022-12-28T09:18:33.815Z</time>
      </trkpt>
      <trkpt lat="47.93381" lon="-3.8956">
        <ele>98</ele>
        <time>2022-12-28T09:18:35.140Z</time>
      </trkpt>
      <trkpt lat="47.93403" lon="-3.89548">
        <ele>98</ele>
        <time>2022-12-28T09:18:36.469Z</time>
      </trkpt>
      <trkpt lat="47.93424" lon="-3.89532">
        <ele>98</ele>
        <time>2022-12-28T09:18:37.801Z</time>
      </trkpt>
      <trkpt lat="47.93453" lon="-3.89525">
        <ele>98</ele>
        <time>2022-12-28T09:18:39.138Z</time>
      </trkpt>
      <trkpt lat="47.93486" lon="-3.8953">
        <ele>98</ele>
        <time>2022-12-28T09:18:40.480Z</time>
      </trkpt>
      <trkpt lat="47.93506" lon="-3.89544">
        <ele>97</ele>
        <time>2022-12-28T09:18:41.826Z</time>
      </trkpt>
      <trkpt lat="47.93535" lon="-3.89573">
        <ele>97</ele>
        <time>2022-12-28T09:18:43.178Z</time>
      </trkpt>
      <trkpt lat="47.93568" lon="-3.896">
        <ele>97</ele>
        <time>2022-12-28T09:18:44.536Z</time>
      </trkpt>
      <trkpt lat="47.93568" lon="-3.896">
        <ele>96</ele>
        <time>2022-12-28T09:18:45.894Z</time>
      </trkpt>
      <trkpt lat="47.93568" lon="-3.896">
        <ele>96</ele>
        <time>2022-12-28T09:18:47.252Z</time>
      </trkpt>
      <trkpt lat="47.93587" lon="-3.89616">
        <ele>95</ele>
        <time>2022-12-28T09:18:48.613Z</time>
      </trkpt>
      <trkpt lat="47.9361" lon="-3.89622">
        <ele>95</ele>
        <time>2022-12-28T09:18:49.978Z</time>
      </trkpt>
      <trkpt lat="47.93644" lon="-3.8962">
        <ele>94</ele>
        <time>2022-12-28T09:18:51.348Z</time>
      </trkpt>
      <trkpt lat="47.93692" lon="-3.89597">
        <ele>94</ele>
        <time>2022-12-28T09:18:52.726Z</time>
      </trkpt>
      <trkpt lat="47.93739" lon="-3.89584">
        <ele>94</ele>
        <time>2022-12-28T09:18:54.112Z</time>
      </trkpt>
      <trkpt lat="47.93761" lon="-3.89584">
        <ele>93</ele>
        <time>2022-12-28T09:18:55.501Z</time>
      </trkpt>
      <trkpt lat="47.93761" lon="-3.89584">
        <ele>93</ele>
        <time>2022-12-28T09:18:56.890Z</time>
      </trkpt>
      <trkpt lat="47.93761" lon="-3.89584">
        <ele>92</ele>
        <time>2022-12-28T09:18:58.279Z</time>
      </trkpt>
      <trkpt lat="47.93765" lon="-3.89584">
        <ele>92</ele>
        <time>2022-12-28T09:18:59.669Z</time>
      </trkpt>
      <trkpt lat="47.938" lon="-3.89597">
        <ele>92</ele>
        <time>2022-12-28T09:19:01.065Z</time>
      </trkpt>
      <trkpt lat="47.93819" lon="-3.89609">
        <ele>91</ele>
        <time>2022-12-28T09:19:02.464Z</time>
      </trkpt>
      <trkpt lat="47.93829" lon="-3.89608">
        <ele>91</ele>
        <time>2022-12-28T09:19:03.865Z</time>
      </trkpt>
      <trkpt lat="47.93841" lon="-3.89602">
        <ele>91</ele>
        <time>2022-12-28T09:19:05.268Z</time>
      </trkpt>
      <trkpt lat="47.93875" lon="-3.89574">
        <ele>90</ele>
        <time>2022-12-28T09:19:06.677Z</time>
      </trkpt>
      <trkpt lat="47.93904" lon="-3.89561">
        <ele>90</ele>
        <time>2022-12-28T09:19:08.091Z</time>
      </trkpt>
      <trkpt lat="47.93928" lon="-3.89561">
        <ele>90</ele>
        <time>2022-12-28T09:19:09.509Z</time>
      </trkpt>
      <trkpt lat="47.93972" lon="-3.89579">
        <ele>90</ele>
        <time>2022-12-28T09:19:10.934Z</time>
      </trkpt>
      <trkpt lat="47.94012" lon="-3.89588">
        <ele>90</ele>
        <time>2022-12-28T09:19:12.366Z</time>
      </trkpt>
      <trkpt lat="47.94026" lon="-3.89583">
        <ele>90</ele>
        <time>2022-12-28T09:19:13.800Z</time>
      </trkpt>
      <trkpt lat="47.94055" lon="-3.895">
        <ele>90</ele>
        <time>2022-12-28T09:19:15.244Z</time>
      </trkpt>
      <trkpt lat="47.9407" lon="-3.89468">
        <ele>90</ele>
        <time>2022-12-28T09:19:16.692Z</time>
      </trkpt>
      <trkpt lat="47.9407" lon="-3.89468">
        <ele>90</ele>
        <time>2022-12-28T09:19:18.140Z</time>
      </trkpt>
      <trkpt lat="47.9407" lon="-3.89468">
        <ele>89</ele>
        <time>2022-12-28T09:19:19.588Z</time>
      </trkpt>
      <trkpt lat="47.9407" lon="-3.89468">
        <ele>89</ele>
        <time>2022-12-28T09:19:21.036Z</time>
      </trkpt>
      <trkpt lat="47.9407" lon="-3.89468">
        <ele>89</ele>
        <time>2022-12-28T09:19:22.484Z</time>
      </trkpt>
      <trkpt lat="47.9407" lon="-3.89468">
        <ele>89</ele>
        <time>2022-12-28T09:19:23.932Z</time>
      </trkpt>
      <trkpt lat="47.94071" lon="-3.89465">
        <ele>89</ele>
        <time>2022-12-28T09:19:25.380Z</time>
      </trkpt>
      <trkpt lat="47.94072" lon="-3.89465">
        <ele>89</ele>
        <time>2022-12-28T09:19:26.829Z</time>
      </trkpt>
      <trkpt lat="47.94072" lon="-3.89465">
        <ele>89</ele>
        <time>2022-12-28T09:19:28.278Z</time>
      </trkpt>
      <trkpt lat="47.94085" lon="-3.89454">
        <ele>89</ele>
        <time>2022-12-28T09:19:29.729Z</time>
      </trkpt>
      <trkpt lat="47.94098" lon="-3.89513">
        <ele>89</ele>
        <time>2022-12-28T09:19:31.187Z</time>
      </trkpt>
      <trkpt lat="47.94116" lon="-3.89582">
        <ele>89</ele>
        <time>2022-12-28T09:19:32.653Z</time>
      </trkpt>
      <trkpt lat="47.94124" lon="-3.89613">
        <ele>89</ele>
        <time>2022-12-28T09:19:34.122Z</time>
      </trkpt>
      <trkpt lat="47.94128" lon="-3.89653">
        <ele>89</ele>
        <time>2022-12-28T09:19:35.596Z</time>
      </trkpt>
      <trkpt lat="47.94126" lon="-3.89711">
        <ele>88</ele>
        <time>2022-12-28T09:19:37.076Z</time>
      </trkpt>
      <trkpt lat="47.94126" lon="-3.89712">
        <ele>88</ele>
        <time>2022-12-28T09:19:38.556Z</time>
      </trkpt>
      <trkpt lat="47.94126" lon="-3.89712">
        <ele>88</ele>
        <time>2022-12-28T09:19:40.036Z</time>
      </trkpt>
      <trkpt lat="47.94126" lon="-3.89712">
        <ele>88</ele>
        <time>2022-12-28T09:19:41.516Z</time>
      </trkpt>
      <trkpt lat="47.94126" lon="-3.89712">
        <ele>88</ele>
        <time>2022-12-28T09:19:42.996Z</time>
      </trkpt>
      <trkpt lat="47.94126" lon="-3.89712">
        <ele>88</ele>
        <time>2022-12-28T09:19:44.476Z</time>
      </trkpt>
      <trkpt lat="47.94127" lon="-3.89716">
        <ele>88</ele>
        <time>2022-12-28T09:19:45.956Z</time>
      </trkpt>
      <trkpt lat="47.94127" lon="-3.89716">
        <ele>88</ele>
        <time>2022-12-28T09:19:47.436Z</time>
      </trkpt>
      <trkpt lat="47.94134" lon="-3.89749">
        <ele>88</ele>
        <time>2022-12-28T09:19:48.920Z</time>
      </trkpt>
      <trkpt lat="47.94135" lon="-3.89768">
        <ele>88</ele>
        <time>2022-12-28T09:19:50.406Z</time>
      </trkpt>
      <trkpt lat="47.94131" lon="-3.89807">
        <ele>88</ele>
        <time>2022-12-28T09:19:51.896Z</time>
      </trkpt>
      <trkpt lat="47.94131" lon="-3.89807">
        <ele>88</ele>
        <time>2022-12-28T09:19:53.387Z</time>
      </trkpt>
      <trkpt lat="47.94131" lon="-3.89807">
        <ele>88</ele>
        <time>2022-12-28T09:19:54.878Z</time>
      </trkpt>
      <trkpt lat="47.94126" lon="-3.89853">
        <ele>88</ele>
        <time>2022-12-28T09:19:56.374Z</time>
      </trkpt>
      <trkpt lat="47.94125" lon="-3.89884">
        <ele>88</ele>
        <time>2022-12-28T09:19:57.873Z</time>
      </trkpt>
      <trkpt lat="47.9413" lon="-3.89967">
        <ele>88</ele>
        <time>2022-12-28T09:19:59.381Z</time>
      </trkpt>
      <trkpt lat="47.94145" lon="-3.90106">
        <ele>88</ele>
        <time>2022-12-28T09:20:00.904Z</time>
      </trkpt>
      <trkpt lat="47.94174" lon="-3.904">
        <ele>88</ele>
        <time>2022-12-28T09:20:02.459Z</time>
      </trkpt>
      <trkpt lat="47.94174" lon="-3.904">
        <ele>88</ele>
        <time>2022-12-28T09:20:04.014Z</time>
      </trkpt>
      <trkpt lat="47.9418" lon="-3.90477">
        <ele>88</ele>
        <time>2022-12-28T09:20:05.577Z</time>
      </trkpt>
      <trkpt lat="47.94185" lon="-3.90507">
        <ele>87</ele>
        <time>2022-12-28T09:20:07.144Z</time>
      </trkpt>
      <trkpt lat="47.94198" lon="-3.90639">
        <ele>87</ele>
        <time>2022-12-28T09:20:08.725Z</time>
      </trkpt>
      <trkpt lat="47.94198" lon="-3.90639">
        <ele>87</ele>
        <time>2022-12-28T09:20:10.306Z</time>
      </trkpt>
      <trkpt lat="47.94198" lon="-3.90639">
        <ele>87</ele>
        <time>2022-12-28T09:20:11.887Z</time>
      </trkpt>
      <trkpt lat="47.94198" lon="-3.90639">
        <ele>87</ele>
        <time>2022-12-28T09:20:13.468Z</time>
      </trkpt>
      <trkpt lat="47.94198" lon="-3.90639">
        <ele>87</ele>
        <time>2022-12-28T09:20:15.049Z</time>
      </trkpt>
      <trkpt lat="47.94198" lon="-3.9064">
        <ele>87</ele>
        <time>2022-12-28T09:20:16.630Z</time>
      </trkpt>
      <trkpt lat="47.94198" lon="-3.90644">
        <ele>87</ele>
        <time>2022-12-28T09:20:18.212Z</time>
      </trkpt>
      <trkpt lat="47.94198" lon="-3.90644">
        <ele>87</ele>
        <time>2022-12-28T09:20:19.794Z</time>
      </trkpt>
      <trkpt lat="47.94219" lon="-3.90762">
        <ele>86</ele>
        <time>2022-12-28T09:20:21.389Z</time>
      </trkpt>
      <trkpt lat="47.94261" lon="-3.90938">
        <ele>86</ele>
        <time>2022-12-28T09:20:23.004Z</time>
      </trkpt>
      <trkpt lat="47.94261" lon="-3.90938">
        <ele>86</ele>
        <time>2022-12-28T09:20:24.619Z</time>
      </trkpt>
      <trkpt lat="47.94273" lon="-3.91031">
        <ele>86</ele>
        <time>2022-12-28T09:20:26.244Z</time>
      </trkpt>
      <trkpt lat="47.94289" lon="-3.91194">
        <ele>86</ele>
        <time>2022-12-28T09:20:27.887Z</time>
      </trkpt>
      <trkpt lat="47.94292" lon="-3.91245">
        <ele>86</ele>
        <time>2022-12-28T09:20:29.535Z</time>
      </trkpt>
      <trkpt lat="47.94303" lon="-3.91323">
        <ele>86</ele>
        <time>2022-12-28T09:20:31.192Z</time>
      </trkpt>
      <trkpt lat="47.94312" lon="-3.91364">
        <ele>86</ele>
        <time>2022-12-28T09:20:32.853Z</time>
      </trkpt>
      <trkpt lat="47.94448" lon="-3.91738">
        <ele>86</ele>
        <time>2022-12-28T09:20:34.560Z</time>
      </trkpt>
      <trkpt lat="47.94469" lon="-3.91792">
        <ele>86</ele>
        <time>2022-12-28T09:20:36.274Z</time>
      </trkpt>
      <trkpt lat="47.94493" lon="-3.91843">
        <ele>86</ele>
        <time>2022-12-28T09:20:37.995Z</time>
      </trkpt>
      <trkpt lat="47.9453" lon="-3.91894">
        <ele>86</ele>
        <time>2022-12-28T09:20:39.724Z</time>
      </trkpt>
      <trkpt lat="47.94573" lon="-3.91949">
        <ele>87</ele>
        <time>2022-12-28T09:20:41.462Z</time>
      </trkpt>
      <trkpt lat="47.94587" lon="-3.91976">
        <ele>87</ele>
        <time>2022-12-28T09:20:43.203Z</time>
      </trkpt>
      <trkpt lat="47.94612" lon="-3.92026">
        <ele>87</ele>
        <time>2022-12-28T09:20:44.951Z</time>
      </trkpt>
      <trkpt lat="47.9465" lon="-3.92111">
        <ele>88</ele>
        <time>2022-12-28T09:20:46.710Z</time>
      </trkpt>
      <trkpt lat="47.9465" lon="-3.92112">
        <ele>89</ele>
        <time>2022-12-28T09:20:48.469Z</time>
      </trkpt>
      <trkpt lat="47.9465" lon="-3.92112">
        <ele>89</ele>
        <time>2022-12-28T09:20:50.228Z</time>
      </trkpt>
      <trkpt lat="47.94694" lon="-3.9221">
        <ele>90</ele>
        <time>2022-12-28T09:20:52.000Z</time>
      </trkpt>
      <trkpt lat="47.94734" lon="-3.92268">
        <ele>91</ele>
        <time>2022-12-28T09:20:53.781Z</time>
      </trkpt>
      <trkpt lat="47.94759" lon="-3.92296">
        <ele>91</ele>
        <time>2022-12-28T09:20:55.567Z</time>
      </trkpt>
      <trkpt lat="47.94811" lon="-3.92342">
        <ele>92</ele>
        <time>2022-12-28T09:20:57.363Z</time>
      </trkpt>
      <trkpt lat="47.94823" lon="-3.92348">
        <ele>92</ele>
        <time>2022-12-28T09:20:59.161Z</time>
      </trkpt>
      <trkpt lat="47.94855" lon="-3.92377">
        <ele>93</ele>
        <time>2022-12-28T09:21:00.965Z</time>
      </trkpt>
      <trkpt lat="47.94891" lon="-3.92413">
        <ele>94</ele>
        <time>2022-12-28T09:21:02.775Z</time>
      </trkpt>
      <trkpt lat="47.94891" lon="-3.92413">
        <ele>95</ele>
        <time>2022-12-28T09:21:04.585Z</time>
      </trkpt>
      <trkpt lat="47.94891" lon="-3.92413">
        <ele>95</ele>
        <time>2022-12-28T09:21:06.395Z</time>
      </trkpt>
      <trkpt lat="47.94924" lon="-3.92445">
        <ele>96</ele>
        <time>2022-12-28T09:21:08.212Z</time>
      </trkpt>
      <trkpt lat="47.94946" lon="-3.92464">
        <ele>97</ele>
        <time>2022-12-28T09:21:10.033Z</time>
      </trkpt>
      <trkpt lat="47.94989" lon="-3.92497">
        <ele>97</ele>
        <time>2022-12-28T09:21:11.862Z</time>
      </trkpt>
      <trkpt lat="47.95022" lon="-3.9253">
        <ele>98</ele>
        <time>2022-12-28T09:21:13.697Z</time>
      </trkpt>
      <trkpt lat="47.95038" lon="-3.92555">
        <ele>98</ele>
        <time>2022-12-28T09:21:15.536Z</time>
      </trkpt>
      <trkpt lat="47.95062" lon="-3.92614">
        <ele>99</ele>
        <time>2022-12-28T09:21:17.382Z</time>
      </trkpt>
      <trkpt lat="47.95043" lon="-3.92629">
        <ele>99</ele>
        <time>2022-12-28T09:21:19.232Z</time>
      </trkpt>
      <trkpt lat="47.95042" lon="-3.92629">
        <ele>100</ele>
        <time>2022-12-28T09:21:21.082Z</time>
      </trkpt>
      <trkpt lat="47.95042" lon="-3.92629">
        <ele>100</ele>
        <time>2022-12-28T09:21:22.932Z</time>
      </trkpt>
      <trkpt lat="47.95042" lon="-3.92629">
        <ele>101</ele>
        <time>2022-12-28T09:21:24.782Z</time>
      </trkpt>
      <trkpt lat="47.95042" lon="-3.92629">
        <ele>101</ele>
        <time>2022-12-28T09:21:26.632Z</time>
      </trkpt>
      <trkpt lat="47.95042" lon="-3.92629">
        <ele>102</ele>
        <time>2022-12-28T09:21:28.482Z</time>
      </trkpt>
      <trkpt lat="47.95039" lon="-3.92631">
        <ele>102</ele>
        <time>2022-12-28T09:21:30.332Z</time>
      </trkpt>
      <trkpt lat="47.95039" lon="-3.92631">
        <ele>103</ele>
        <time>2022-12-28T09:21:32.182Z</time>
      </trkpt>
      <trkpt lat="47.95015" lon="-3.92649">
        <ele>103</ele>
        <time>2022-12-28T09:21:34.037Z</time>
      </trkpt>
      <trkpt lat="47.94983" lon="-3.92665">
        <ele>104</ele>
        <time>2022-12-28T09:21:35.897Z</time>
      </trkpt>
      <trkpt lat="47.94868" lon="-3.92657">
        <ele>104</ele>
        <time>2022-12-28T09:21:37.775Z</time>
      </trkpt>
      <trkpt lat="47.9485" lon="-3.92653">
        <ele>104</ele>
        <time>2022-12-28T09:21:39.656Z</time>
      </trkpt>
      <trkpt lat="47.94828" lon="-3.92643">
        <ele>105</ele>
        <time>2022-12-28T09:21:41.541Z</time>
      </trkpt>
      <trkpt lat="47.94808" lon="-3.92665">
        <ele>105</ele>
        <time>2022-12-28T09:21:43.430Z</time>
      </trkpt>
      <trkpt lat="47.94812" lon="-3.9269">
        <ele>105</ele>
        <time>2022-12-28T09:21:45.322Z</time>
      </trkpt>
      <trkpt lat="47.94818" lon="-3.92775">
        <ele>106</ele>
        <time>2022-12-28T09:21:47.223Z</time>
      </trkpt>
      <trkpt lat="47.94818" lon="-3.92775">
        <ele>106</ele>
        <time>2022-12-28T09:21:49.124Z</time>
      </trkpt>
      <trkpt lat="47.94818" lon="-3.92776">
        <ele>106</ele>
        <time>2022-12-28T09:21:51.025Z</time>
      </trkpt>
      <trkpt lat="47.94818" lon="-3.92776">
        <ele>106</ele>
        <time>2022-12-28T09:21:52.926Z</time>
      </trkpt>
      <trkpt lat="47.94818" lon="-3.92776">
        <ele>107</ele>
        <time>2022-12-28T09:21:54.827Z</time>
      </trkpt>
      <trkpt lat="47.94818" lon="-3.92776">
        <ele>107</ele>
        <time>2022-12-28T09:21:56.728Z</time>
      </trkpt>
      <trkpt lat="47.94818" lon="-3.92776">
        <ele>107</ele>
        <time>2022-12-28T09:21:58.629Z</time>
      </trkpt>
      <trkpt lat="47.94819" lon="-3.9278">
        <ele>107</ele>
        <time>2022-12-28T09:22:00.530Z</time>
      </trkpt>
      <trkpt lat="47.94819" lon="-3.9278">
        <ele>107</ele>
        <time>2022-12-28T09:22:02.431Z</time>
      </trkpt>
      <trkpt lat="47.94826" lon="-3.92816">
        <ele>107</ele>
        <time>2022-12-28T09:22:04.337Z</time>
      </trkpt>
      <trkpt lat="47.94829" lon="-3.92823">
        <ele>107</ele>
        <time>2022-12-28T09:22:06.243Z</time>
      </trkpt>
      <trkpt lat="47.94829" lon="-3.92823">
        <ele>107</ele>
        <time>2022-12-28T09:22:08.149Z</time>
      </trkpt>
      <trkpt lat="47.94829" lon="-3.92823">
        <ele>107</ele>
        <time>2022-12-28T09:22:10.055Z</time>
      </trkpt>
      <trkpt lat="47.94852" lon="-3.92887">
        <ele>107</ele>
        <time>2022-12-28T09:22:11.969Z</time>
      </trkpt>
      <trkpt lat="47.94865" lon="-3.92973">
        <ele>107</ele>
        <time>2022-12-28T09:22:13.893Z</time>
      </trkpt>
      <trkpt lat="47.94877" lon="-3.9302">
        <ele>107</ele>
        <time>2022-12-28T09:22:15.822Z</time>
      </trkpt>
      <trkpt lat="47.94883" lon="-3.93054">
        <ele>106</ele>
        <time>2022-12-28T09:22:17.755Z</time>
      </trkpt>
      <trkpt lat="47.94884" lon="-3.9307">
        <ele>106</ele>
        <time>2022-12-28T09:22:19.690Z</time>
      </trkpt>
      <trkpt lat="47.94781" lon="-3.93098">
        <ele>106</ele>
        <time>2022-12-28T09:22:21.641Z</time>
      </trkpt>
      <trkpt lat="47.94734" lon="-3.931">
        <ele>105</ele>
        <time>2022-12-28T09:22:23.600Z</time>
      </trkpt>
      <trkpt lat="47.94751" lon="-3.93344">
        <ele>105</ele>
        <time>2022-12-28T09:22:25.585Z</time>
      </trkpt>
      <trkpt lat="47.94751" lon="-3.93387">
        <ele>105</ele>
        <time>2022-12-28T09:22:27.575Z</time>
      </trkpt>
      <trkpt lat="47.94749" lon="-3.93404">
        <ele>104</ele>
        <time>2022-12-28T09:22:29.567Z</time>
      </trkpt>
      <trkpt lat="47.94736" lon="-3.93433">
        <ele>104</ele>
        <time>2022-12-28T09:22:31.563Z</time>
      </trkpt>
      <trkpt lat="47.9473" lon="-3.93442">
        <ele>103</ele>
        <time>2022-12-28T09:22:33.560Z</time>
      </trkpt>
      <trkpt lat="47.9473" lon="-3.93442">
        <ele>103</ele>
        <time>2022-12-28T09:22:35.557Z</time>
      </trkpt>
      <trkpt lat="47.9473" lon="-3.93442">
        <ele>103</ele>
        <time>2022-12-28T09:22:37.554Z</time>
      </trkpt>
      <trkpt lat="47.9473" lon="-3.93442">
        <ele>102</ele>
        <time>2022-12-28T09:22:39.551Z</time>
      </trkpt>
      <trkpt lat="47.9473" lon="-3.93442">
        <ele>102</ele>
        <time>2022-12-28T09:22:41.548Z</time>
      </trkpt>
      <trkpt lat="47.9473" lon="-3.93442">
        <ele>101</ele>
        <time>2022-12-28T09:22:43.545Z</time>
      </trkpt>
      <trkpt lat="47.94728" lon="-3.93445">
        <ele>101</ele>
        <time>2022-12-28T09:22:45.542Z</time>
      </trkpt>
      <trkpt lat="47.94728" lon="-3.93445">
        <ele>100</ele>
        <time>2022-12-28T09:22:47.539Z</time>
      </trkpt>
      <trkpt lat="47.94648" lon="-3.93566">
        <ele>100</ele>
        <time>2022-12-28T09:22:49.555Z</time>
      </trkpt>
      <trkpt lat="47.94555" lon="-3.93709">
        <ele>99</ele>
        <time>2022-12-28T09:22:51.592Z</time>
      </trkpt>
      <trkpt lat="47.94543" lon="-3.93734">
        <ele>98</ele>
        <time>2022-12-28T09:22:53.632Z</time>
      </trkpt>
      <trkpt lat="47.94531" lon="-3.93773">
        <ele>98</ele>
        <time>2022-12-28T09:22:55.677Z</time>
      </trkpt>
      <trkpt lat="47.94531" lon="-3.93776">
        <ele>97</ele>
        <time>2022-12-28T09:22:57.722Z</time>
      </trkpt>
      <trkpt lat="47.94531" lon="-3.93776">
        <ele>96</ele>
        <time>2022-12-28T09:22:59.767Z</time>
      </trkpt>
      <trkpt lat="47.94531" lon="-3.93776">
        <ele>96</ele>
        <time>2022-12-28T09:23:01.812Z</time>
      </trkpt>
      <trkpt lat="47.94521" lon="-3.9387">
        <ele>96</ele>
        <time>2022-12-28T09:23:03.867Z</time>
      </trkpt>
      <trkpt lat="47.94501" lon="-3.93884">
        <ele>95</ele>
        <time>2022-12-28T09:23:05.926Z</time>
      </trkpt>
      <trkpt lat="47.9438" lon="-3.93916">
        <ele>95</ele>
        <time>2022-12-28T09:23:08.005Z</time>
      </trkpt>
      <trkpt lat="47.94366" lon="-3.93924">
        <ele>94</ele>
        <time>2022-12-28T09:23:10.086Z</time>
      </trkpt>
      <trkpt lat="47.94355" lon="-3.93956">
        <ele>94</ele>
        <time>2022-12-28T09:23:12.171Z</time>
      </trkpt>
      <trkpt lat="47.94332" lon="-3.94111">
        <ele>93</ele>
        <time>2022-12-28T09:23:14.273Z</time>
      </trkpt>
      <trkpt lat="47.94318" lon="-3.94127">
        <ele>93</ele>
        <time>2022-12-28T09:23:16.378Z</time>
      </trkpt>
      <trkpt lat="47.94296" lon="-3.94135">
        <ele>92</ele>
        <time>2022-12-28T09:23:18.486Z</time>
      </trkpt>
      <trkpt lat="47.94245" lon="-3.94145">
        <ele>92</ele>
        <time>2022-12-28T09:23:20.603Z</time>
      </trkpt>
      <trkpt lat="47.94245" lon="-3.94145">
        <ele>92</ele>
        <time>2022-12-28T09:23:22.720Z</time>
      </trkpt>
      <trkpt lat="47.94231" lon="-3.94156">
        <ele>91</ele>
        <time>2022-12-28T09:23:24.839Z</time>
      </trkpt>
      <trkpt lat="47.94222" lon="-3.94165">
        <ele>91</ele>
        <time>2022-12-28T09:23:26.960Z</time>
      </trkpt>
      <trkpt lat="47.94222" lon="-3.94168">
        <ele>91</ele>
        <time>2022-12-28T09:23:29.081Z</time>
      </trkpt>
      <trkpt lat="47.94216" lon="-3.94234">
        <ele>89</ele>
        <time>2022-12-28T09:23:31.209Z</time>
      </trkpt>
      <trkpt lat="47.9422" lon="-3.94191">
        <ele>89</ele>
        <time>2022-12-28T09:23:33.342Z</time>
      </trkpt>
      <trkpt lat="47.9422" lon="-3.94191">
        <ele>89</ele>
        <time>2022-12-28T09:23:35.475Z</time>
      </trkpt>
      <trkpt lat="47.9422" lon="-3.94191">
        <ele>89</ele>
        <time>2022-12-28T09:23:37.608Z</time>
      </trkpt>
      <trkpt lat="47.94222" lon="-3.94168">
        <ele>90</ele>
        <time>2022-12-28T09:23:39.744Z</time>
      </trkpt>
      <trkpt lat="47.94216" lon="-3.94234">
        <ele>89</ele>
        <time>2022-12-28T09:23:41.887Z</time>
      </trkpt>
      <trkpt lat="47.94216" lon="-3.94236">
        <ele>89</ele>
        <time>2022-12-28T09:23:44.030Z</time>
      </trkpt>
      <trkpt lat="47.94216" lon="-3.94236">
        <ele>89</ele>
        <time>2022-12-28T09:23:46.173Z</time>
      </trkpt>
      <trkpt lat="47.94216" lon="-3.94237">
        <ele>89</ele>
        <time>2022-12-28T09:23:48.316Z</time>
      </trkpt>
      <trkpt lat="47.94216" lon="-3.94237">
        <ele>89</ele>
        <time>2022-12-28T09:23:50.459Z</time>
      </trkpt>
      <trkpt lat="47.94216" lon="-3.94237">
        <ele>89</ele>
        <time>2022-12-28T09:23:52.602Z</time>
      </trkpt>
      <trkpt lat="47.94216" lon="-3.94237">
        <ele>89</ele>
        <time>2022-12-28T09:23:54.745Z</time>
      </trkpt>
      <trkpt lat="47.94215" lon="-3.94241">
        <ele>89</ele>
        <time>2022-12-28T09:23:56.889Z</time>
      </trkpt>
      <trkpt lat="47.94215" lon="-3.94241">
        <ele>89</ele>
        <time>2022-12-28T09:23:59.033Z</time>
      </trkpt>
      <trkpt lat="47.94209" lon="-3.94288">
        <ele>89</ele>
        <time>2022-12-28T09:24:01.182Z</time>
      </trkpt>
      <trkpt lat="47.94173" lon="-3.94429">
        <ele>89</ele>
        <time>2022-12-28T09:24:03.347Z</time>
      </trkpt>
      <trkpt lat="47.94129" lon="-3.94618">
        <ele>89</ele>
        <time>2022-12-28T09:24:05.534Z</time>
      </trkpt>
      <trkpt lat="47.94098" lon="-3.947">
        <ele>89</ele>
        <time>2022-12-28T09:24:07.731Z</time>
      </trkpt>
      <trkpt lat="47.94096" lon="-3.9471">
        <ele>89</ele>
        <time>2022-12-28T09:24:09.929Z</time>
      </trkpt>
      <trkpt lat="47.94095" lon="-3.94731">
        <ele>89</ele>
        <time>2022-12-28T09:24:12.129Z</time>
      </trkpt>
      <trkpt lat="47.94081" lon="-3.94772">
        <ele>89</ele>
        <time>2022-12-28T09:24:14.334Z</time>
      </trkpt>
      <trkpt lat="47.94075" lon="-3.94795">
        <ele>89</ele>
        <time>2022-12-28T09:24:16.542Z</time>
      </trkpt>
      <trkpt lat="47.94076" lon="-3.94822">
        <ele>90</ele>
        <time>2022-12-28T09:24:18.753Z</time>
      </trkpt>
      <trkpt lat="47.94087" lon="-3.94848">
        <ele>90</ele>
        <time>2022-12-28T09:24:20.967Z</time>
      </trkpt>
      <trkpt lat="47.9409" lon="-3.94863">
        <ele>90</ele>
        <time>2022-12-28T09:24:23.182Z</time>
      </trkpt>
      <trkpt lat="47.9409" lon="-3.94863">
        <ele>90</ele>
        <time>2022-12-28T09:24:25.398Z</time>
      </trkpt>
      <trkpt lat="47.94109" lon="-3.94967">
        <ele>90</ele>
        <time>2022-12-28T09:24:27.625Z</time>
      </trkpt>
      <trkpt lat="47.94116" lon="-3.95">
        <ele>90</ele>
        <time>2022-12-28T09:24:29.856Z</time>
      </trkpt>
      <trkpt lat="47.94116" lon="-3.95001">
        <ele>90</ele>
        <time>2022-12-28T09:24:32.087Z</time>
      </trkpt>
      <trkpt lat="47.94116" lon="-3.95001">
        <ele>90</ele>
        <time>2022-12-28T09:24:34.318Z</time>
      </trkpt>
      <trkpt lat="47.94116" lon="-3.95001">
        <ele>90</ele>
        <time>2022-12-28T09:24:36.549Z</time>
      </trkpt>
      <trkpt lat="47.94116" lon="-3.95001">
        <ele>90</ele>
        <time>2022-12-28T09:24:38.780Z</time>
      </trkpt>
      <trkpt lat="47.94116" lon="-3.95001">
        <ele>90</ele>
        <time>2022-12-28T09:24:41.011Z</time>
      </trkpt>
      <trkpt lat="47.94117" lon="-3.95005">
        <ele>90</ele>
        <time>2022-12-28T09:24:43.242Z</time>
      </trkpt>
      <trkpt lat="47.94117" lon="-3.95006">
        <ele>90</ele>
        <time>2022-12-28T09:24:45.473Z</time>
      </trkpt>
      <trkpt lat="47.9412" lon="-3.95045">
        <ele>90</ele>
        <time>2022-12-28T09:24:47.709Z</time>
      </trkpt>
      <trkpt lat="47.94131" lon="-3.95079">
        <ele>90</ele>
        <time>2022-12-28T09:24:49.949Z</time>
      </trkpt>
      <trkpt lat="47.94139" lon="-3.95095">
        <ele>89</ele>
        <time>2022-12-28T09:24:52.191Z</time>
      </trkpt>
      <trkpt lat="47.94142" lon="-3.95111">
        <ele>89</ele>
        <time>2022-12-28T09:24:54.435Z</time>
      </trkpt>
      <trkpt lat="47.94138" lon="-3.9516">
        <ele>89</ele>
        <time>2022-12-28T09:24:56.684Z</time>
      </trkpt>
      <trkpt lat="47.94139" lon="-3.95245">
        <ele>89</ele>
        <time>2022-12-28T09:24:58.942Z</time>
      </trkpt>
      <trkpt lat="47.9414" lon="-3.95289">
        <ele>88</ele>
        <time>2022-12-28T09:25:01.205Z</time>
      </trkpt>
      <trkpt lat="47.94145" lon="-3.95319">
        <ele>88</ele>
        <time>2022-12-28T09:25:03.471Z</time>
      </trkpt>
      <trkpt lat="47.94156" lon="-3.95359">
        <ele>88</ele>
        <time>2022-12-28T09:25:05.742Z</time>
      </trkpt>
      <trkpt lat="47.94189" lon="-3.95462">
        <ele>87</ele>
        <time>2022-12-28T09:25:08.025Z</time>
      </trkpt>
      <trkpt lat="47.94193" lon="-3.95476">
        <ele>87</ele>
        <time>2022-12-28T09:25:10.310Z</time>
      </trkpt>
      <trkpt lat="47.94193" lon="-3.95476">
        <ele>86</ele>
        <time>2022-12-28T09:25:12.595Z</time>
      </trkpt>
      <trkpt lat="47.94193" lon="-3.95476">
        <ele>85</ele>
        <time>2022-12-28T09:25:14.880Z</time>
      </trkpt>
      <trkpt lat="47.94209" lon="-3.9553">
        <ele>85</ele>
        <time>2022-12-28T09:25:17.171Z</time>
      </trkpt>
      <trkpt lat="47.94233" lon="-3.95641">
        <ele>84</ele>
        <time>2022-12-28T09:25:19.475Z</time>
      </trkpt>
      <trkpt lat="47.94239" lon="-3.95652">
        <ele>84</ele>
        <time>2022-12-28T09:25:21.780Z</time>
      </trkpt>
      <trkpt lat="47.94263" lon="-3.9568">
        <ele>83</ele>
        <time>2022-12-28T09:25:24.090Z</time>
      </trkpt>
      <trkpt lat="47.94272" lon="-3.95686">
        <ele>83</ele>
        <time>2022-12-28T09:25:26.402Z</time>
      </trkpt>
      <trkpt lat="47.94338" lon="-3.95689">
        <ele>82</ele>
        <time>2022-12-28T09:25:28.724Z</time>
      </trkpt>
      <trkpt lat="47.94346" lon="-3.95697">
        <ele>82</ele>
        <time>2022-12-28T09:25:31.048Z</time>
      </trkpt>
      <trkpt lat="47.94356" lon="-3.95724">
        <ele>81</ele>
        <time>2022-12-28T09:25:33.375Z</time>
      </trkpt>
      <trkpt lat="47.94361" lon="-3.95756">
        <ele>81</ele>
        <time>2022-12-28T09:25:35.706Z</time>
      </trkpt>
      <trkpt lat="47.94361" lon="-3.95784">
        <ele>80</ele>
        <time>2022-12-28T09:25:38.040Z</time>
      </trkpt>
      <trkpt lat="47.9436" lon="-3.95804">
        <ele>80</ele>
        <time>2022-12-28T09:25:40.376Z</time>
      </trkpt>
      <trkpt lat="47.94362" lon="-3.95852">
        <ele>79</ele>
        <time>2022-12-28T09:25:42.717Z</time>
      </trkpt>
      <trkpt lat="47.94366" lon="-3.95872">
        <ele>79</ele>
        <time>2022-12-28T09:25:45.060Z</time>
      </trkpt>
      <trkpt lat="47.94383" lon="-3.9592">
        <ele>79</ele>
        <time>2022-12-28T09:25:47.409Z</time>
      </trkpt>
      <trkpt lat="47.94404" lon="-3.95995">
        <ele>79</ele>
        <time>2022-12-28T09:25:49.767Z</time>
      </trkpt>
      <trkpt lat="47.94426" lon="-3.96057">
        <ele>78</ele>
        <time>2022-12-28T09:25:52.132Z</time>
      </trkpt>
      <trkpt lat="47.94432" lon="-3.96074">
        <ele>78</ele>
        <time>2022-12-28T09:25:54.499Z</time>
      </trkpt>
      <trkpt lat="47.94432" lon="-3.96075">
        <ele>78</ele>
        <time>2022-12-28T09:25:56.866Z</time>
      </trkpt>
      <trkpt lat="47.94432" lon="-3.96075">
        <ele>78</ele>
        <time>2022-12-28T09:25:59.233Z</time>
      </trkpt>
      <trkpt lat="47.94442" lon="-3.96105">
        <ele>78</ele>
        <time>2022-12-28T09:26:01.604Z</time>
      </trkpt>
      <trkpt lat="47.94447" lon="-3.96128">
        <ele>78</ele>
        <time>2022-12-28T09:26:03.978Z</time>
      </trkpt>
      <trkpt lat="47.94462" lon="-3.96207">
        <ele>78</ele>
        <time>2022-12-28T09:26:06.360Z</time>
      </trkpt>
      <trkpt lat="47.94462" lon="-3.96207">
        <ele>78</ele>
        <time>2022-12-28T09:26:08.743Z</time>
      </trkpt>
      <trkpt lat="47.94462" lon="-3.96208">
        <ele>78</ele>
        <time>2022-12-28T09:26:11.126Z</time>
      </trkpt>
      <trkpt lat="47.94462" lon="-3.96208">
        <ele>79</ele>
        <time>2022-12-28T09:26:13.509Z</time>
      </trkpt>
      <trkpt lat="47.94462" lon="-3.96208">
        <ele>79</ele>
        <time>2022-12-28T09:26:15.892Z</time>
      </trkpt>
      <trkpt lat="47.94463" lon="-3.96208">
        <ele>79</ele>
        <time>2022-12-28T09:26:18.275Z</time>
      </trkpt>
      <trkpt lat="47.94463" lon="-3.96212">
        <ele>79</ele>
        <time>2022-12-28T09:26:20.658Z</time>
      </trkpt>
      <trkpt lat="47.94463" lon="-3.96212">
        <ele>80</ele>
        <time>2022-12-28T09:26:23.041Z</time>
      </trkpt>
      <trkpt lat="47.94473" lon="-3.96262">
        <ele>80</ele>
        <time>2022-12-28T09:26:25.430Z</time>
      </trkpt>
      <trkpt lat="47.945" lon="-3.96374">
        <ele>81</ele>
        <time>2022-12-28T09:26:27.831Z</time>
      </trkpt>
      <trkpt lat="47.94507" lon="-3.96408">
        <ele>81</ele>
        <time>2022-12-28T09:26:30.236Z</time>
      </trkpt>
      <trkpt lat="47.94523" lon="-3.96479">
        <ele>82</ele>
        <time>2022-12-28T09:26:32.649Z</time>
      </trkpt>
      <trkpt lat="47.94546" lon="-3.96502">
        <ele>82</ele>
        <time>2022-12-28T09:26:35.067Z</time>
      </trkpt>
      <trkpt lat="47.94546" lon="-3.96502">
        <ele>84</ele>
        <time>2022-12-28T09:26:37.485Z</time>
      </trkpt>
      <trkpt lat="47.94546" lon="-3.96503">
        <ele>84</ele>
        <time>2022-12-28T09:26:39.903Z</time>
      </trkpt>
      <trkpt lat="47.9455" lon="-3.96506">
        <ele>85</ele>
        <time>2022-12-28T09:26:42.322Z</time>
      </trkpt>
      <trkpt lat="47.94562" lon="-3.96527">
        <ele>85</ele>
        <time>2022-12-28T09:26:44.744Z</time>
      </trkpt>
      <trkpt lat="47.94578" lon="-3.96564">
        <ele>86</ele>
        <time>2022-12-28T09:26:47.170Z</time>
      </trkpt>
      <trkpt lat="47.94603" lon="-3.96615">
        <ele>87</ele>
        <time>2022-12-28T09:26:49.603Z</time>
      </trkpt>
      <trkpt lat="47.94606" lon="-3.9661">
        <ele>88</ele>
        <time>2022-12-28T09:26:52.037Z</time>
      </trkpt>
      <trkpt lat="47.94661" lon="-3.96523">
        <ele>88</ele>
        <time>2022-12-28T09:26:54.484Z</time>
      </trkpt>
      <trkpt lat="47.9467" lon="-3.9652">
        <ele>89</ele>
        <time>2022-12-28T09:26:56.932Z</time>
      </trkpt>
      <trkpt lat="47.94706" lon="-3.96468">
        <ele>90</ele>
        <time>2022-12-28T09:26:59.388Z</time>
      </trkpt>
      <trkpt lat="47.94706" lon="-3.96468">
        <ele>92</ele>
        <time>2022-12-28T09:27:01.844Z</time>
      </trkpt>
      <trkpt lat="47.94706" lon="-3.96468">
        <ele>92</ele>
        <time>2022-12-28T09:27:04.300Z</time>
      </trkpt>
      <trkpt lat="47.94747" lon="-3.9641">
        <ele>93</ele>
        <time>2022-12-28T09:27:06.765Z</time>
      </trkpt>
      <trkpt lat="47.94747" lon="-3.9641">
        <ele>94</ele>
        <time>2022-12-28T09:27:09.230Z</time>
      </trkpt>
      <trkpt lat="47.94747" lon="-3.96409">
        <ele>95</ele>
        <time>2022-12-28T09:27:11.695Z</time>
      </trkpt>
      <trkpt lat="47.94747" lon="-3.96409">
        <ele>96</ele>
        <time>2022-12-28T09:27:14.160Z</time>
      </trkpt>
      <trkpt lat="47.94747" lon="-3.96409">
        <ele>96</ele>
        <time>2022-12-28T09:27:16.625Z</time>
      </trkpt>
      <trkpt lat="47.94747" lon="-3.96409">
        <ele>97</ele>
        <time>2022-12-28T09:27:19.090Z</time>
      </trkpt>
      <trkpt lat="47.94749" lon="-3.96406">
        <ele>98</ele>
        <time>2022-12-28T09:27:21.556Z</time>
      </trkpt>
      <trkpt lat="47.94749" lon="-3.96406">
        <ele>99</ele>
        <time>2022-12-28T09:27:24.022Z</time>
      </trkpt>
      <trkpt lat="47.94798" lon="-3.96336">
        <ele>100</ele>
        <time>2022-12-28T09:27:26.499Z</time>
      </trkpt>
      <trkpt lat="47.94826" lon="-3.96293">
        <ele>101</ele>
        <time>2022-12-28T09:27:28.982Z</time>
      </trkpt>
      <trkpt lat="47.94868" lon="-3.96236">
        <ele>101</ele>
        <time>2022-12-28T09:27:31.474Z</time>
      </trkpt>
      <trkpt lat="47.94939" lon="-3.96134">
        <ele>102</ele>
        <time>2022-12-28T09:27:33.982Z</time>
      </trkpt>
      <trkpt lat="47.94939" lon="-3.96134">
        <ele>104</ele>
        <time>2022-12-28T09:27:36.490Z</time>
      </trkpt>
      <trkpt lat="47.94939" lon="-3.96134">
        <ele>104</ele>
        <time>2022-12-28T09:27:38.998Z</time>
      </trkpt>
      <trkpt lat="47.94952" lon="-3.96116">
        <ele>105</ele>
        <time>2022-12-28T09:27:41.509Z</time>
      </trkpt>
      <trkpt lat="47.94966" lon="-3.96102">
        <ele>105</ele>
        <time>2022-12-28T09:27:44.022Z</time>
      </trkpt>
      <trkpt lat="47.94971" lon="-3.96099">
        <ele>106</ele>
        <time>2022-12-28T09:27:46.536Z</time>
      </trkpt>
      <trkpt lat="47.94976" lon="-3.96103">
        <ele>107</ele>
        <time>2022-12-28T09:27:49.051Z</time>
      </trkpt>
      <trkpt lat="47.94978" lon="-3.96105">
        <ele>107</ele>
        <time>2022-12-28T09:27:51.567Z</time>
      </trkpt>
      <trkpt lat="47.94978" lon="-3.96105">
        <ele>108</ele>
        <time>2022-12-28T09:27:54.083Z</time>
      </trkpt>
      <trkpt lat="47.94979" lon="-3.96105">
        <ele>108</ele>
        <time>2022-12-28T09:27:56.599Z</time>
      </trkpt>
      <trkpt lat="47.94979" lon="-3.96105">
        <ele>108</ele>
        <time>2022-12-28T09:27:59.115Z</time>
      </trkpt>
      <trkpt lat="47.94979" lon="-3.96105">
        <ele>109</ele>
        <time>2022-12-28T09:28:01.631Z</time>
      </trkpt>
      <trkpt lat="47.94976" lon="-3.96103">
        <ele>107</ele>
        <time>2022-12-28T09:28:04.147Z</time>
      </trkpt>
      <trkpt lat="47.94979" lon="-3.96105">
        <ele>109</ele>
        <time>2022-12-28T09:28:06.664Z</time>
      </trkpt>
      <trkpt lat="47.94978" lon="-3.96094">
        <ele>110</ele>
        <time>2022-12-28T09:28:09.182Z</time>
      </trkpt>
      <trkpt lat="47.94975" lon="-3.96093">
        <ele>110</ele>
        <time>2022-12-28T09:28:11.700Z</time>
      </trkpt>
      <trkpt lat="47.94971" lon="-3.96087">
        <ele>110</ele>
        <time>2022-12-28T09:28:14.219Z</time>
      </trkpt>
      <trkpt lat="47.94969" lon="-3.96082">
        <ele>110</ele>
        <time>2022-12-28T09:28:16.739Z</time>
      </trkpt>
      <trkpt lat="47.94969" lon="-3.96074">
        <ele>110</ele>
        <time>2022-12-28T09:28:19.260Z</time>
      </trkpt>
      <trkpt lat="47.94971" lon="-3.96067">
        <ele>111</ele>
        <time>2022-12-28T09:28:21.782Z</time>
      </trkpt>
      <trkpt lat="47.94975" lon="-3.96063">
        <ele>111</ele>
        <time>2022-12-28T09:28:24.304Z</time>
      </trkpt>
      <trkpt lat="47.94981" lon="-3.96061">
        <ele>111</ele>
        <time>2022-12-28T09:28:26.827Z</time>
      </trkpt>
      <trkpt lat="47.94984" lon="-3.96063">
        <ele>111</ele>
        <time>2022-12-28T09:28:29.351Z</time>
      </trkpt>
      <trkpt lat="47.95" lon="-3.96052">
        <ele>111</ele>
        <time>2022-12-28T09:28:31.878Z</time>
      </trkpt>
      <trkpt lat="47.95027" lon="-3.96021">
        <ele>111</ele>
        <time>2022-12-28T09:28:34.410Z</time>
      </trkpt>
      <trkpt lat="47.95139" lon="-3.95904">
        <ele>111</ele>
        <time>2022-12-28T09:28:36.964Z</time>
      </trkpt>
      <trkpt lat="47.95139" lon="-3.95904">
        <ele>111</ele>
        <time>2022-12-28T09:28:39.518Z</time>
      </trkpt>
      <trkpt lat="47.9514" lon="-3.95904">
        <ele>111</ele>
        <time>2022-12-28T09:28:42.072Z</time>
      </trkpt>
      <trkpt lat="47.9514" lon="-3.95904">
        <ele>111</ele>
        <time>2022-12-28T09:28:44.626Z</time>
      </trkpt>
      <trkpt lat="47.95142" lon="-3.95901">
        <ele>111</ele>
        <time>2022-12-28T09:28:47.181Z</time>
      </trkpt>
      <trkpt lat="47.95142" lon="-3.95901">
        <ele>110</ele>
        <time>2022-12-28T09:28:49.736Z</time>
      </trkpt>
      <trkpt lat="47.95144" lon="-3.95899">
        <ele>110</ele>
        <time>2022-12-28T09:28:52.291Z</time>
      </trkpt>
      <trkpt lat="47.95144" lon="-3.95899">
        <ele>110</ele>
        <time>2022-12-28T09:28:54.846Z</time>
      </trkpt>
      <trkpt lat="47.95217" lon="-3.95823">
        <ele>110</ele>
        <time>2022-12-28T09:28:57.415Z</time>
      </trkpt>
      <trkpt lat="47.95221" lon="-3.95829">
        <ele>110</ele>
        <time>2022-12-28T09:28:59.985Z</time>
      </trkpt>
      <trkpt lat="47.95235" lon="-3.95887">
        <ele>110</ele>
        <time>2022-12-28T09:29:02.562Z</time>
      </trkpt>
      <trkpt lat="47.95247" lon="-3.95927">
        <ele>109</ele>
        <time>2022-12-28T09:29:05.143Z</time>
      </trkpt>
      <trkpt lat="47.95247" lon="-3.95927">
        <ele>109</ele>
        <time>2022-12-28T09:29:07.724Z</time>
      </trkpt>
      <trkpt lat="47.95248" lon="-3.95927">
        <ele>109</ele>
        <time>2022-12-28T09:29:10.305Z</time>
      </trkpt>
      <trkpt lat="47.95255" lon="-3.95953">
        <ele>108</ele>
        <time>2022-12-28T09:29:12.890Z</time>
      </trkpt>
      <trkpt lat="47.9528" lon="-3.95973">
        <ele>108</ele>
        <time>2022-12-28T09:29:15.479Z</time>
      </trkpt>
      <trkpt lat="47.95293" lon="-3.9599">
        <ele>108</ele>
        <time>2022-12-28T09:29:18.071Z</time>
      </trkpt>
      <trkpt lat="47.95294" lon="-3.96002">
        <ele>108</ele>
        <time>2022-12-28T09:29:20.664Z</time>
      </trkpt>
      <trkpt lat="47.95289" lon="-3.96036">
        <ele>107</ele>
        <time>2022-12-28T09:29:23.261Z</time>
      </trkpt>
      <trkpt lat="47.95289" lon="-3.96088">
        <ele>107</ele>
        <time>2022-12-28T09:29:25.863Z</time>
      </trkpt>
      <trkpt lat="47.95283" lon="-3.96117">
        <ele>107</ele>
        <time>2022-12-28T09:29:28.469Z</time>
      </trkpt>
      <trkpt lat="47.95283" lon="-3.96118">
        <ele>107</ele>
        <time>2022-12-28T09:29:31.075Z</time>
      </trkpt>
      <trkpt lat="47.95283" lon="-3.96118">
        <ele>106</ele>
        <time>2022-12-28T09:29:33.681Z</time>
      </trkpt>
      <trkpt lat="47.95283" lon="-3.96118">
        <ele>106</ele>
        <time>2022-12-28T09:29:36.287Z</time>
      </trkpt>
      <trkpt lat="47.95282" lon="-3.96122">
        <ele>106</ele>
        <time>2022-12-28T09:29:38.893Z</time>
      </trkpt>
      <trkpt lat="47.95282" lon="-3.96122">
        <ele>106</ele>
        <time>2022-12-28T09:29:41.499Z</time>
      </trkpt>
      <trkpt lat="47.95282" lon="-3.96122">
        <ele>105</ele>
        <time>2022-12-28T09:29:44.105Z</time>
      </trkpt>
      <trkpt lat="47.95281" lon="-3.96126">
        <ele>105</ele>
        <time>2022-12-28T09:29:46.712Z</time>
      </trkpt>
      <trkpt lat="47.95281" lon="-3.96126">
        <ele>105</ele>
        <time>2022-12-28T09:29:49.319Z</time>
      </trkpt>
      <trkpt lat="47.95278" lon="-3.96134">
        <ele>105</ele>
        <time>2022-12-28T09:29:51.927Z</time>
      </trkpt>
      <trkpt lat="47.9529" lon="-3.96167">
        <ele>104</ele>
        <time>2022-12-28T09:29:54.539Z</time>
      </trkpt>
      <trkpt lat="47.95318" lon="-3.96219">
        <ele>104</ele>
        <time>2022-12-28T09:29:57.158Z</time>
      </trkpt>
      <trkpt lat="47.95335" lon="-3.96227">
        <ele>104</ele>
        <time>2022-12-28T09:29:59.780Z</time>
      </trkpt>
      <trkpt lat="47.95307" lon="-3.96254">
        <ele>103</ele>
        <time>2022-12-28T09:30:02.407Z</time>
      </trkpt>
      <trkpt lat="47.95301" lon="-3.96264">
        <ele>103</ele>
        <time>2022-12-28T09:30:05.036Z</time>
      </trkpt>
      <trkpt lat="47.95297" lon="-3.96274">
        <ele>103</ele>
        <time>2022-12-28T09:30:07.666Z</time>
      </trkpt>
      <trkpt lat="47.95292" lon="-3.96334">
        <ele>103</ele>
        <time>2022-12-28T09:30:10.302Z</time>
      </trkpt>
      <trkpt lat="47.95288" lon="-3.96355">
        <ele>103</ele>
        <time>2022-12-28T09:30:12.941Z</time>
      </trkpt>
      <trkpt lat="47.95274" lon="-3.96379">
        <ele>102</ele>
        <time>2022-12-28T09:30:15.583Z</time>
      </trkpt>
      <trkpt lat="47.95257" lon="-3.96401">
        <ele>102</ele>
        <time>2022-12-28T09:30:18.229Z</time>
      </trkpt>
      <trkpt lat="47.95247" lon="-3.96408">
        <ele>102</ele>
        <time>2022-12-28T09:30:20.876Z</time>
      </trkpt>
      <trkpt lat="47.95235" lon="-3.96442">
        <ele>102</ele>
        <time>2022-12-28T09:30:23.528Z</time>
      </trkpt>
      <trkpt lat="47.95235" lon="-3.96442">
        <ele>101</ele>
        <time>2022-12-28T09:30:26.180Z</time>
      </trkpt>
      <trkpt lat="47.95235" lon="-3.96442">
        <ele>101</ele>
        <time>2022-12-28T09:30:28.832Z</time>
      </trkpt>
      <trkpt lat="47.95231" lon="-3.96454">
        <ele>101</ele>
        <time>2022-12-28T09:30:31.485Z</time>
      </trkpt>
      <trkpt lat="47.95229" lon="-3.96476">
        <ele>101</ele>
        <time>2022-12-28T09:30:34.140Z</time>
      </trkpt>
      <trkpt lat="47.95232" lon="-3.96491">
        <ele>101</ele>
        <time>2022-12-28T09:30:36.797Z</time>
      </trkpt>
      <trkpt lat="47.95237" lon="-3.96494">
        <ele>100</ele>
        <time>2022-12-28T09:30:39.455Z</time>
      </trkpt>
      <trkpt lat="47.95249" lon="-3.96491">
        <ele>100</ele>
        <time>2022-12-28T09:30:42.115Z</time>
      </trkpt>
      <trkpt lat="47.95246" lon="-3.96511">
        <ele>100</ele>
        <time>2022-12-28T09:30:44.777Z</time>
      </trkpt>
      <trkpt lat="47.95243" lon="-3.96602">
        <ele>100</ele>
        <time>2022-12-28T09:30:47.449Z</time>
      </trkpt>
      <trkpt lat="47.95247" lon="-3.96649">
        <ele>100</ele>
        <time>2022-12-28T09:30:50.126Z</time>
      </trkpt>
      <trkpt lat="47.9525" lon="-3.96668">
        <ele>99</ele>
        <time>2022-12-28T09:30:52.805Z</time>
      </trkpt>
      <trkpt lat="47.9525" lon="-3.96669">
        <ele>99</ele>
        <time>2022-12-28T09:30:55.484Z</time>
      </trkpt>
      <trkpt lat="47.9525" lon="-3.96669">
        <ele>99</ele>
        <time>2022-12-28T09:30:58.163Z</time>
      </trkpt>
      <trkpt lat="47.9525" lon="-3.96669">
        <ele>99</ele>
        <time>2022-12-28T09:31:00.842Z</time>
      </trkpt>
      <trkpt lat="47.95251" lon="-3.96673">
        <ele>99</ele>
        <time>2022-12-28T09:31:03.522Z</time>
      </trkpt>
      <trkpt lat="47.95251" lon="-3.96673">
        <ele>99</ele>
        <time>2022-12-28T09:31:06.202Z</time>
      </trkpt>
      <trkpt lat="47.95251" lon="-3.96674">
        <ele>98</ele>
        <time>2022-12-28T09:31:08.882Z</time>
      </trkpt>
      <trkpt lat="47.95252" lon="-3.96678">
        <ele>98</ele>
        <time>2022-12-28T09:31:11.562Z</time>
      </trkpt>
      <trkpt lat="47.95252" lon="-3.96678">
        <ele>98</ele>
        <time>2022-12-28T09:31:14.242Z</time>
      </trkpt>
      <trkpt lat="47.95255" lon="-3.96692">
        <ele>98</ele>
        <time>2022-12-28T09:31:16.924Z</time>
      </trkpt>
      <trkpt lat="47.95269" lon="-3.96709">
        <ele>98</ele>
        <time>2022-12-28T09:31:19.609Z</time>
      </trkpt>
      <trkpt lat="47.95279" lon="-3.96716">
        <ele>98</ele>
        <time>2022-12-28T09:31:22.296Z</time>
      </trkpt>
      <trkpt lat="47.95295" lon="-3.96717">
        <ele>97</ele>
        <time>2022-12-28T09:31:24.985Z</time>
      </trkpt>
      <trkpt lat="47.95313" lon="-3.96743">
        <ele>97</ele>
        <time>2022-12-28T09:31:27.678Z</time>
      </trkpt>
      <trkpt lat="47.95334" lon="-3.96777">
        <ele>97</ele>
        <time>2022-12-28T09:31:30.376Z</time>
      </trkpt>
      <trkpt lat="47.95381" lon="-3.96873">
        <ele>97</ele>
        <time>2022-12-28T09:31:33.087Z</time>
      </trkpt>
      <trkpt lat="47.95391" lon="-3.96888">
        <ele>97</ele>
        <time>2022-12-28T09:31:35.800Z</time>
      </trkpt>
      <trkpt lat="47.95404" lon="-3.96906">
        <ele>96</ele>
        <time>2022-12-28T09:31:38.516Z</time>
      </trkpt>
      <trkpt lat="47.95409" lon="-3.96919">
        <ele>96</ele>
        <time>2022-12-28T09:31:41.234Z</time>
      </trkpt>
      <trkpt lat="47.95411" lon="-3.96934">
        <ele>96</ele>
        <time>2022-12-28T09:31:43.953Z</time>
      </trkpt>
      <trkpt lat="47.95407" lon="-3.96958">
        <ele>96</ele>
        <time>2022-12-28T09:31:46.675Z</time>
      </trkpt>
      <trkpt lat="47.95399" lon="-3.96978">
        <ele>96</ele>
        <time>2022-12-28T09:31:49.399Z</time>
      </trkpt>
      <trkpt lat="47.95401" lon="-3.96987">
        <ele>96</ele>
        <time>2022-12-28T09:31:52.124Z</time>
      </trkpt>
      <trkpt lat="47.95401" lon="-3.96995">
        <ele>96</ele>
        <time>2022-12-28T09:31:54.850Z</time>
      </trkpt>
      <trkpt lat="47.95391" lon="-3.9701">
        <ele>97</ele>
        <time>2022-12-28T09:31:57.579Z</time>
      </trkpt>
      <trkpt lat="47.95385" lon="-3.97022">
        <ele>97</ele>
        <time>2022-12-28T09:32:00.309Z</time>
      </trkpt>
      <trkpt lat="47.95384" lon="-3.97029">
        <ele>97</ele>
        <time>2022-12-28T09:32:03.040Z</time>
      </trkpt>
      <trkpt lat="47.95384" lon="-3.9703">
        <ele>97</ele>
        <time>2022-12-28T09:32:05.771Z</time>
      </trkpt>
      <trkpt lat="47.95384" lon="-3.9703">
        <ele>97</ele>
        <time>2022-12-28T09:32:08.502Z</time>
      </trkpt>
      <trkpt lat="47.95382" lon="-3.97039">
        <ele>97</ele>
        <time>2022-12-28T09:32:11.234Z</time>
      </trkpt>
      <trkpt lat="47.95382" lon="-3.97039">
        <ele>97</ele>
        <time>2022-12-28T09:32:13.966Z</time>
      </trkpt>
      <trkpt lat="47.95382" lon="-3.97039">
        <ele>97</ele>
        <time>2022-12-28T09:32:16.698Z</time>
      </trkpt>
      <trkpt lat="47.9538" lon="-3.97051">
        <ele>97</ele>
        <time>2022-12-28T09:32:19.431Z</time>
      </trkpt>
      <trkpt lat="47.95379" lon="-3.97068">
        <ele>98</ele>
        <time>2022-12-28T09:32:22.166Z</time>
      </trkpt>
      <trkpt lat="47.95379" lon="-3.97069">
        <ele>98</ele>
        <time>2022-12-28T09:32:24.901Z</time>
      </trkpt>
      <trkpt lat="47.95379" lon="-3.97069">
        <ele>98</ele>
        <time>2022-12-28T09:32:27.636Z</time>
      </trkpt>
      <trkpt lat="47.95379" lon="-3.97079">
        <ele>98</ele>
        <time>2022-12-28T09:32:30.372Z</time>
      </trkpt>
      <trkpt lat="47.95379" lon="-3.9708">
        <ele>98</ele>
        <time>2022-12-28T09:32:33.108Z</time>
      </trkpt>
      <trkpt lat="47.95378" lon="-3.9708">
        <ele>99</ele>
        <time>2022-12-28T09:32:35.845Z</time>
      </trkpt>
      <trkpt lat="47.95378" lon="-3.97081">
        <ele>99</ele>
        <time>2022-12-28T09:32:38.582Z</time>
      </trkpt>
      <trkpt lat="47.95372" lon="-3.97112">
        <ele>99</ele>
        <time>2022-12-28T09:32:41.322Z</time>
      </trkpt>
      <trkpt lat="47.95363" lon="-3.97187">
        <ele>99</ele>
        <time>2022-12-28T09:32:44.070Z</time>
      </trkpt>
      <trkpt lat="47.95362" lon="-3.97196">
        <ele>99</ele>
        <time>2022-12-28T09:32:46.819Z</time>
      </trkpt>
      <trkpt lat="47.95362" lon="-3.97197">
        <ele>99</ele>
        <time>2022-12-28T09:32:49.568Z</time>
      </trkpt>
      <trkpt lat="47.95362" lon="-3.97198">
        <ele>100</ele>
        <time>2022-12-28T09:32:52.317Z</time>
      </trkpt>
      <trkpt lat="47.95362" lon="-3.97198">
        <ele>100</ele>
        <time>2022-12-28T09:32:55.066Z</time>
      </trkpt>
      <trkpt lat="47.95362" lon="-3.97201">
        <ele>100</ele>
        <time>2022-12-28T09:32:57.816Z</time>
      </trkpt>
      <trkpt lat="47.95362" lon="-3.97202">
        <ele>100</ele>
        <time>2022-12-28T09:33:00.566Z</time>
      </trkpt>
      <trkpt lat="47.95362" lon="-3.97202">
        <ele>100</ele>
        <time>2022-12-28T09:33:03.316Z</time>
      </trkpt>
      <trkpt lat="47.95362" lon="-3.97206">
        <ele>101</ele>
        <time>2022-12-28T09:33:06.066Z</time>
      </trkpt>
      <trkpt lat="47.95362" lon="-3.97206">
        <ele>101</ele>
        <time>2022-12-28T09:33:08.816Z</time>
      </trkpt>
      <trkpt lat="47.95364" lon="-3.97218">
        <ele>101</ele>
        <time>2022-12-28T09:33:11.568Z</time>
      </trkpt>
      <trkpt lat="47.95373" lon="-3.9727">
        <ele>101</ele>
        <time>2022-12-28T09:33:14.325Z</time>
      </trkpt>
      <trkpt lat="47.9538" lon="-3.97338">
        <ele>101</ele>
        <time>2022-12-28T09:33:17.090Z</time>
      </trkpt>
      <trkpt lat="47.95383" lon="-3.97353">
        <ele>102</ele>
        <time>2022-12-28T09:33:19.857Z</time>
      </trkpt>
      <trkpt lat="47.95326" lon="-3.97362">
        <ele>102</ele>
        <time>2022-12-28T09:33:22.633Z</time>
      </trkpt>
      <trkpt lat="47.95305" lon="-3.9735">
        <ele>103</ele>
        <time>2022-12-28T09:33:25.412Z</time>
      </trkpt>
      <trkpt lat="47.95281" lon="-3.97347">
        <ele>103</ele>
        <time>2022-12-28T09:33:28.195Z</time>
      </trkpt>
      <trkpt lat="47.95261" lon="-3.97359">
        <ele>103</ele>
        <time>2022-12-28T09:33:30.982Z</time>
      </trkpt>
      <trkpt lat="47.95243" lon="-3.97366">
        <ele>103</ele>
        <time>2022-12-28T09:33:33.772Z</time>
      </trkpt>
      <trkpt lat="47.9522" lon="-3.97352">
        <ele>104</ele>
        <time>2022-12-28T09:33:36.566Z</time>
      </trkpt>
      <trkpt lat="47.95205" lon="-3.97347">
        <ele>104</ele>
        <time>2022-12-28T09:33:39.362Z</time>
      </trkpt>
      <trkpt lat="47.9515" lon="-3.97366">
        <ele>104</ele>
        <time>2022-12-28T09:33:42.167Z</time>
      </trkpt>
      <trkpt lat="47.95105" lon="-3.97366">
        <ele>104</ele>
        <time>2022-12-28T09:33:44.979Z</time>
      </trkpt>
      <trkpt lat="47.95003" lon="-3.97359">
        <ele>104</ele>
        <time>2022-12-28T09:33:47.808Z</time>
      </trkpt>
      <trkpt lat="47.95003" lon="-3.97359">
        <ele>105</ele>
        <time>2022-12-28T09:33:50.637Z</time>
      </trkpt>
      <trkpt lat="47.95002" lon="-3.97359">
        <ele>105</ele>
        <time>2022-12-28T09:33:53.466Z</time>
      </trkpt>
      <trkpt lat="47.95002" lon="-3.97359">
        <ele>105</ele>
        <time>2022-12-28T09:33:56.295Z</time>
      </trkpt>
      <trkpt lat="47.94999" lon="-3.97359">
        <ele>105</ele>
        <time>2022-12-28T09:33:59.124Z</time>
      </trkpt>
      <trkpt lat="47.94999" lon="-3.97359">
        <ele>105</ele>
        <time>2022-12-28T09:34:01.953Z</time>
      </trkpt>
      <trkpt lat="47.94996" lon="-3.97359">
        <ele>105</ele>
        <time>2022-12-28T09:34:04.783Z</time>
      </trkpt>
      <trkpt lat="47.94996" lon="-3.97359">
        <ele>105</ele>
        <time>2022-12-28T09:34:07.613Z</time>
      </trkpt>
      <trkpt lat="47.94996" lon="-3.97359">
        <ele>105</ele>
        <time>2022-12-28T09:34:10.443Z</time>
      </trkpt>
      <trkpt lat="47.94996" lon="-3.97359">
        <ele>105</ele>
        <time>2022-12-28T09:34:13.273Z</time>
      </trkpt>
      <trkpt lat="47.94996" lon="-3.97359">
        <ele>105</ele>
        <time>2022-12-28T09:34:16.103Z</time>
      </trkpt>
      <trkpt lat="47.94993" lon="-3.97359">
        <ele>105</ele>
        <time>2022-12-28T09:34:18.933Z</time>
      </trkpt>
      <trkpt lat="47.94993" lon="-3.97359">
        <ele>105</ele>
        <time>2022-12-28T09:34:21.763Z</time>
      </trkpt>
      <trkpt lat="47.9499" lon="-3.97359">
        <ele>105</ele>
        <time>2022-12-28T09:34:24.594Z</time>
      </trkpt>
      <trkpt lat="47.94991" lon="-3.97379">
        <ele>105</ele>
        <time>2022-12-28T09:34:27.427Z</time>
      </trkpt>
      <trkpt lat="47.94991" lon="-3.97379">
        <ele>105</ele>
        <time>2022-12-28T09:34:30.260Z</time>
      </trkpt>
      <trkpt lat="47.94991" lon="-3.9738">
        <ele>105</ele>
        <time>2022-12-28T09:34:33.093Z</time>
      </trkpt>
      <trkpt lat="47.94991" lon="-3.9738">
        <ele>105</ele>
        <time>2022-12-28T09:34:35.926Z</time>
      </trkpt>
      <trkpt lat="47.94991" lon="-3.97384">
        <ele>105</ele>
        <time>2022-12-28T09:34:38.760Z</time>
      </trkpt>
      <trkpt lat="47.94991" lon="-3.97384">
        <ele>104</ele>
        <time>2022-12-28T09:34:41.594Z</time>
      </trkpt>
      <trkpt lat="47.94991" lon="-3.97389">
        <ele>104</ele>
        <time>2022-12-28T09:34:44.428Z</time>
      </trkpt>
      <trkpt lat="47.9499" lon="-3.97388">
        <ele>104</ele>
        <time>2022-12-28T09:34:47.262Z</time>
      </trkpt>
      <trkpt lat="47.9499" lon="-3.97388">
        <ele>104</ele>
        <time>2022-12-28T09:34:50.096Z</time>
      </trkpt>
      <trkpt lat="47.94989" lon="-3.97388">
        <ele>103</ele>
        <time>2022-12-28T09:34:52.930Z</time>
      </trkpt>
      <trkpt lat="47.94989" lon="-3.97388">
        <ele>103</ele>
        <time>2022-12-28T09:34:55.764Z</time>
      </trkpt>
      <trkpt lat="47.94986" lon="-3.97388">
        <ele>103</ele>
        <time>2022-12-28T09:34:58.599Z</time>
      </trkpt>
      <trkpt lat="47.94986" lon="-3.97388">
        <ele>102</ele>
        <time>2022-12-28T09:35:01.434Z</time>
      </trkpt>
      <trkpt lat="47.94983" lon="-3.97388">
        <ele>102</ele>
        <time>2022-12-28T09:35:04.269Z</time>
      </trkpt>
      <trkpt lat="47.94984" lon="-3.97389">
        <ele>102</ele>
        <time>2022-12-28T09:35:07.105Z</time>
      </trkpt>
      <trkpt lat="47.94984" lon="-3.97389">
        <ele>101</ele>
        <time>2022-12-28T09:35:09.941Z</time>
      </trkpt>
      <trkpt lat="47.94986" lon="-3.97579">
        <ele>100</ele>
        <time>2022-12-28T09:35:12.797Z</time>
      </trkpt>
      <trkpt lat="47.94986" lon="-3.97579">
        <ele>100</ele>
        <time>2022-12-28T09:35:15.653Z</time>
      </trkpt>
      <trkpt lat="47.94993" lon="-3.97712">
        <ele>99</ele>
        <time>2022-12-28T09:35:18.523Z</time>
      </trkpt>
      <trkpt lat="47.94995" lon="-3.97741">
        <ele>99</ele>
        <time>2022-12-28T09:35:21.396Z</time>
      </trkpt>
      <trkpt lat="47.94998" lon="-3.97812">
        <ele>98</ele>
        <time>2022-12-28T09:35:24.277Z</time>
      </trkpt>
      <trkpt lat="47.94999" lon="-3.97875">
        <ele>98</ele>
        <time>2022-12-28T09:35:27.165Z</time>
      </trkpt>
      <trkpt lat="47.94999" lon="-3.97875">
        <ele>97</ele>
        <time>2022-12-28T09:35:30.053Z</time>
      </trkpt>
      <trkpt lat="47.94999" lon="-3.97875">
        <ele>96</ele>
        <time>2022-12-28T09:35:32.941Z</time>
      </trkpt>
      <trkpt lat="47.95004" lon="-3.98135">
        <ele>96</ele>
        <time>2022-12-28T09:35:35.857Z</time>
      </trkpt>
      <trkpt lat="47.95005" lon="-3.98256">
        <ele>95</ele>
        <time>2022-12-28T09:35:38.786Z</time>
      </trkpt>
      <trkpt lat="47.95003" lon="-3.98294">
        <ele>95</ele>
        <time>2022-12-28T09:35:41.719Z</time>
      </trkpt>
      <trkpt lat="47.94972" lon="-3.98436">
        <ele>94</ele>
        <time>2022-12-28T09:35:44.668Z</time>
      </trkpt>
      <trkpt lat="47.94939" lon="-3.98433">
        <ele>94</ele>
        <time>2022-12-28T09:35:47.622Z</time>
      </trkpt>
      <trkpt lat="47.94938" lon="-3.98433">
        <ele>93</ele>
        <time>2022-12-28T09:35:50.577Z</time>
      </trkpt>
      <trkpt lat="47.94938" lon="-3.98433">
        <ele>93</ele>
        <time>2022-12-28T09:35:53.532Z</time>
      </trkpt>
      <trkpt lat="47.94922" lon="-3.98431">
        <ele>92</ele>
        <time>2022-12-28T09:35:56.489Z</time>
      </trkpt>
      <trkpt lat="47.94897" lon="-3.98434">
        <ele>92</ele>
        <time>2022-12-28T09:35:59.450Z</time>
      </trkpt>
      <trkpt lat="47.94819" lon="-3.98477">
        <ele>91</ele>
        <time>2022-12-28T09:36:02.424Z</time>
      </trkpt>
      <trkpt lat="47.94751" lon="-3.98504">
        <ele>91</ele>
        <time>2022-12-28T09:36:05.410Z</time>
      </trkpt>
      <trkpt lat="47.94751" lon="-3.98504">
        <ele>90</ele>
        <time>2022-12-28T09:36:08.396Z</time>
      </trkpt>
      <trkpt lat="47.94751" lon="-3.98504">
        <ele>90</ele>
        <time>2022-12-28T09:36:11.382Z</time>
      </trkpt>
      <trkpt lat="47.94751" lon="-3.98504">
        <ele>89</ele>
        <time>2022-12-28T09:36:14.368Z</time>
      </trkpt>
      <trkpt lat="47.94748" lon="-3.98505">
        <ele>89</ele>
        <time>2022-12-28T09:36:17.354Z</time>
      </trkpt>
      <trkpt lat="47.94748" lon="-3.98505">
        <ele>89</ele>
        <time>2022-12-28T09:36:20.340Z</time>
      </trkpt>
      <trkpt lat="47.94744" lon="-3.98507">
        <ele>88</ele>
        <time>2022-12-28T09:36:23.327Z</time>
      </trkpt>
      <trkpt lat="47.94739" lon="-3.98509">
        <ele>88</ele>
        <time>2022-12-28T09:36:26.315Z</time>
      </trkpt>
      <trkpt lat="47.9473" lon="-3.98513">
        <ele>88</ele>
        <time>2022-12-28T09:36:29.304Z</time>
      </trkpt>
      <trkpt lat="47.94736" lon="-3.9863">
        <ele>87</ele>
        <time>2022-12-28T09:36:32.306Z</time>
      </trkpt>
      <trkpt lat="47.94733" lon="-3.98691">
        <ele>87</ele>
        <time>2022-12-28T09:36:35.314Z</time>
      </trkpt>
      <trkpt lat="47.94728" lon="-3.98774">
        <ele>87</ele>
        <time>2022-12-28T09:36:38.331Z</time>
      </trkpt>
      <trkpt lat="47.94725" lon="-3.98828">
        <ele>86</ele>
        <time>2022-12-28T09:36:41.354Z</time>
      </trkpt>
      <trkpt lat="47.94728" lon="-3.98867">
        <ele>86</ele>
        <time>2022-12-28T09:36:44.381Z</time>
      </trkpt>
      <trkpt lat="47.94732" lon="-3.98884">
        <ele>86</ele>
        <time>2022-12-28T09:36:47.410Z</time>
      </trkpt>
      <trkpt lat="47.94742" lon="-3.98923">
        <ele>85</ele>
        <time>2022-12-28T09:36:50.444Z</time>
      </trkpt>
      <trkpt lat="47.94732" lon="-3.98884">
        <ele>85</ele>
        <time>2022-12-28T09:36:53.482Z</time>
      </trkpt>
      <trkpt lat="47.94742" lon="-3.98923">
        <ele>85</ele>
        <time>2022-12-28T09:36:56.525Z</time>
      </trkpt>
      <trkpt lat="47.94743" lon="-3.99016">
        <ele>84</ele>
        <time>2022-12-28T09:36:59.578Z</time>
      </trkpt>
      <trkpt lat="47.94748" lon="-3.99024">
        <ele>84</ele>
        <time>2022-12-28T09:37:02.632Z</time>
      </trkpt>
      <trkpt lat="47.94787" lon="-3.99056">
        <ele>84</ele>
        <time>2022-12-28T09:37:05.693Z</time>
      </trkpt>
      <trkpt lat="47.94787" lon="-3.99056">
        <ele>84</ele>
        <time>2022-12-28T09:37:08.754Z</time>
      </trkpt>
      <trkpt lat="47.94788" lon="-3.99057">
        <ele>84</ele>
        <time>2022-12-28T09:37:11.815Z</time>
      </trkpt>
      <trkpt lat="47.94788" lon="-3.99057">
        <ele>84</ele>
        <time>2022-12-28T09:37:14.876Z</time>
      </trkpt>
      <trkpt lat="47.9479" lon="-3.99059">
        <ele>84</ele>
        <time>2022-12-28T09:37:17.938Z</time>
      </trkpt>
      <trkpt lat="47.9479" lon="-3.99059">
        <ele>84</ele>
        <time>2022-12-28T09:37:21.000Z</time>
      </trkpt>
      <trkpt lat="47.94792" lon="-3.9906">
        <ele>84</ele>
        <time>2022-12-28T09:37:24.062Z</time>
      </trkpt>
      <trkpt lat="47.94793" lon="-3.99062">
        <ele>84</ele>
        <time>2022-12-28T09:37:27.124Z</time>
      </trkpt>
      <trkpt lat="47.94793" lon="-3.99062">
        <ele>84</ele>
        <time>2022-12-28T09:37:30.186Z</time>
      </trkpt>
      <trkpt lat="47.94803" lon="-3.99076">
        <ele>85</ele>
        <time>2022-12-28T09:37:33.251Z</time>
      </trkpt>
      <trkpt lat="47.94812" lon="-3.99089">
        <ele>85</ele>
        <time>2022-12-28T09:37:36.318Z</time>
      </trkpt>
      <trkpt lat="47.94822" lon="-3.99108">
        <ele>85</ele>
        <time>2022-12-28T09:37:39.387Z</time>
      </trkpt>
      <trkpt lat="47.94822" lon="-3.99108">
        <ele>85</ele>
        <time>2022-12-28T09:37:42.456Z</time>
      </trkpt>
      <trkpt lat="47.94825" lon="-3.99115">
        <ele>85</ele>
        <time>2022-12-28T09:37:45.526Z</time>
      </trkpt>
      <trkpt lat="47.94842" lon="-3.99163">
        <ele>85</ele>
        <time>2022-12-28T09:37:48.602Z</time>
      </trkpt>
      <trkpt lat="47.94851" lon="-3.99193">
        <ele>86</ele>
        <time>2022-12-28T09:37:51.681Z</time>
      </trkpt>
      <trkpt lat="47.94952" lon="-3.99404">
        <ele>86</ele>
        <time>2022-12-28T09:37:54.788Z</time>
      </trkpt>
      <trkpt lat="47.94923" lon="-3.99452">
        <ele>86</ele>
        <time>2022-12-28T09:37:57.902Z</time>
      </trkpt>
      <trkpt lat="47.94911" lon="-3.99478">
        <ele>86</ele>
        <time>2022-12-28T09:38:01.020Z</time>
      </trkpt>
      <trkpt lat="47.94911" lon="-3.99478">
        <ele>86</ele>
        <time>2022-12-28T09:38:04.138Z</time>
      </trkpt>
      <trkpt lat="47.94899" lon="-3.99522">
        <ele>87</ele>
        <time>2022-12-28T09:38:07.261Z</time>
      </trkpt>
      <trkpt lat="47.94871" lon="-3.99671">
        <ele>87</ele>
        <time>2022-12-28T09:38:10.400Z</time>
      </trkpt>
      <trkpt lat="47.94867" lon="-3.99693">
        <ele>87</ele>
        <time>2022-12-28T09:38:13.542Z</time>
      </trkpt>
      <trkpt lat="47.94856" lon="-3.99738">
        <ele>87</ele>
        <time>2022-12-28T09:38:16.689Z</time>
      </trkpt>
      <trkpt lat="47.94846" lon="-3.99772">
        <ele>87</ele>
        <time>2022-12-28T09:38:19.840Z</time>
      </trkpt>
      <trkpt lat="47.94837" lon="-3.99793">
        <ele>87</ele>
        <time>2022-12-28T09:38:22.994Z</time>
      </trkpt>
      <trkpt lat="47.94795" lon="-3.99895">
        <ele>87</ele>
        <time>2022-12-28T09:38:26.160Z</time>
      </trkpt>
      <trkpt lat="47.94794" lon="-3.99898">
        <ele>87</ele>
        <time>2022-12-28T09:38:29.327Z</time>
      </trkpt>
      <trkpt lat="47.94794" lon="-3.99898">
        <ele>87</ele>
        <time>2022-12-28T09:38:32.494Z</time>
      </trkpt>
      <trkpt lat="47.94794" lon="-3.99899">
        <ele>87</ele>
        <time>2022-12-28T09:38:35.661Z</time>
      </trkpt>
      <trkpt lat="47.94793" lon="-3.99899">
        <ele>87</ele>
        <time>2022-12-28T09:38:38.828Z</time>
      </trkpt>
      <trkpt lat="47.94792" lon="-3.99903">
        <ele>87</ele>
        <time>2022-12-28T09:38:41.995Z</time>
      </trkpt>
      <trkpt lat="47.94792" lon="-3.99903">
        <ele>86</ele>
        <time>2022-12-28T09:38:45.162Z</time>
      </trkpt>
      <trkpt lat="47.9479" lon="-3.99908">
        <ele>86</ele>
        <time>2022-12-28T09:38:48.330Z</time>
      </trkpt>
      <trkpt lat="47.9479" lon="-3.99908">
        <ele>86</ele>
        <time>2022-12-28T09:38:51.498Z</time>
      </trkpt>
      <trkpt lat="47.94771" lon="-3.99954">
        <ele>86</ele>
        <time>2022-12-28T09:38:54.672Z</time>
      </trkpt>
      <trkpt lat="47.94756" lon="-3.9999">
        <ele>85</ele>
        <time>2022-12-28T09:38:57.850Z</time>
      </trkpt>
      <trkpt lat="47.94756" lon="-3.9999">
        <ele>84</ele>
        <time>2022-12-28T09:39:01.028Z</time>
      </trkpt>
      <trkpt lat="47.94689" lon="-4.00153">
        <ele>84</ele>
        <time>2022-12-28T09:39:04.227Z</time>
      </trkpt>
      <trkpt lat="47.94656" lon="-4.002">
        <ele>83</ele>
        <time>2022-12-28T09:39:07.433Z</time>
      </trkpt>
      <trkpt lat="47.94621" lon="-4.0024">
        <ele>83</ele>
        <time>2022-12-28T09:39:10.646Z</time>
      </trkpt>
      <trkpt lat="47.94503" lon="-4.00357">
        <ele>82</ele>
        <time>2022-12-28T09:39:13.882Z</time>
      </trkpt>
      <trkpt lat="47.94486" lon="-4.00379">
        <ele>81</ele>
        <time>2022-12-28T09:39:17.122Z</time>
      </trkpt>
      <trkpt lat="47.94458" lon="-4.0042">
        <ele>81</ele>
        <time>2022-12-28T09:39:20.368Z</time>
      </trkpt>
      <trkpt lat="47.94416" lon="-4.00488">
        <ele>80</ele>
        <time>2022-12-28T09:39:23.624Z</time>
      </trkpt>
      <trkpt lat="47.94393" lon="-4.00529">
        <ele>79</ele>
        <time>2022-12-28T09:39:26.886Z</time>
      </trkpt>
      <trkpt lat="47.9438" lon="-4.00556">
        <ele>79</ele>
        <time>2022-12-28T09:39:30.151Z</time>
      </trkpt>
      <trkpt lat="47.94367" lon="-4.00594">
        <ele>78</ele>
        <time>2022-12-28T09:39:33.421Z</time>
      </trkpt>
      <trkpt lat="47.94355" lon="-4.00639">
        <ele>77</ele>
        <time>2022-12-28T09:39:36.696Z</time>
      </trkpt>
      <trkpt lat="47.94354" lon="-4.00649">
        <ele>77</ele>
        <time>2022-12-28T09:39:39.972Z</time>
      </trkpt>
      <trkpt lat="47.94354" lon="-4.0065">
        <ele>76</ele>
        <time>2022-12-28T09:39:43.248Z</time>
      </trkpt>
      <trkpt lat="47.94353" lon="-4.0065">
        <ele>75</ele>
        <time>2022-12-28T09:39:46.524Z</time>
      </trkpt>
      <trkpt lat="47.94353" lon="-4.0065">
        <ele>75</ele>
        <time>2022-12-28T09:39:49.800Z</time>
      </trkpt>
      <trkpt lat="47.94353" lon="-4.00654">
        <ele>74</ele>
        <time>2022-12-28T09:39:53.077Z</time>
      </trkpt>
      <trkpt lat="47.94353" lon="-4.00655">
        <ele>74</ele>
        <time>2022-12-28T09:39:56.354Z</time>
      </trkpt>
      <trkpt lat="47.94352" lon="-4.0066">
        <ele>73</ele>
        <time>2022-12-28T09:39:59.631Z</time>
      </trkpt>
      <trkpt lat="47.94352" lon="-4.0066">
        <ele>73</ele>
        <time>2022-12-28T09:40:02.908Z</time>
      </trkpt>
      <trkpt lat="47.94347" lon="-4.00689">
        <ele>72</ele>
        <time>2022-12-28T09:40:06.189Z</time>
      </trkpt>
      <trkpt lat="47.94345" lon="-4.00715">
        <ele>72</ele>
        <time>2022-12-28T09:40:09.472Z</time>
      </trkpt>
      <trkpt lat="47.94345" lon="-4.00726">
        <ele>71</ele>
        <time>2022-12-28T09:40:12.757Z</time>
      </trkpt>
      <trkpt lat="47.94346" lon="-4.00757">
        <ele>70</ele>
        <time>2022-12-28T09:40:16.045Z</time>
      </trkpt>
      <trkpt lat="47.94346" lon="-4.00757">
        <ele>70</ele>
        <time>2022-12-28T09:40:19.333Z</time>
      </trkpt>
      <trkpt lat="47.94348" lon="-4.0081">
        <ele>69</ele>
        <time>2022-12-28T09:40:22.627Z</time>
      </trkpt>
      <trkpt lat="47.94348" lon="-4.00844">
        <ele>69</ele>
        <time>2022-12-28T09:40:25.924Z</time>
      </trkpt>
      <trkpt lat="47.94346" lon="-4.00868">
        <ele>69</ele>
        <time>2022-12-28T09:40:29.224Z</time>
      </trkpt>
      <trkpt lat="47.9434" lon="-4.00886">
        <ele>68</ele>
        <time>2022-12-28T09:40:32.526Z</time>
      </trkpt>
      <trkpt lat="47.94335" lon="-4.00897">
        <ele>68</ele>
        <time>2022-12-28T09:40:35.829Z</time>
      </trkpt>
      <trkpt lat="47.94313" lon="-4.00929">
        <ele>67</ele>
        <time>2022-12-28T09:40:39.137Z</time>
      </trkpt>
      <trkpt lat="47.9426" lon="-4.00996">
        <ele>67</ele>
        <time>2022-12-28T09:40:42.457Z</time>
      </trkpt>
      <trkpt lat="47.94254" lon="-4.01002">
        <ele>67</ele>
        <time>2022-12-28T09:40:45.778Z</time>
      </trkpt>
      <trkpt lat="47.94232" lon="-4.01027">
        <ele>66</ele>
        <time>2022-12-28T09:40:49.103Z</time>
      </trkpt>
      <trkpt lat="47.94232" lon="-4.01027">
        <ele>66</ele>
        <time>2022-12-28T09:40:52.428Z</time>
      </trkpt>
      <trkpt lat="47.94223" lon="-4.01036">
        <ele>66</ele>
        <time>2022-12-28T09:40:55.755Z</time>
      </trkpt>
      <trkpt lat="47.94223" lon="-4.01036">
        <ele>65</ele>
        <time>2022-12-28T09:40:59.082Z</time>
      </trkpt>
      <trkpt lat="47.9417" lon="-4.01089">
        <ele>65</ele>
        <time>2022-12-28T09:41:02.419Z</time>
      </trkpt>
      <trkpt lat="47.9417" lon="-4.01089">
        <ele>64</ele>
        <time>2022-12-28T09:41:05.756Z</time>
      </trkpt>
      <trkpt lat="47.94155" lon="-4.01105">
        <ele>64</ele>
        <time>2022-12-28T09:41:09.096Z</time>
      </trkpt>
      <trkpt lat="47.94157" lon="-4.0111">
        <ele>64</ele>
        <time>2022-12-28T09:41:12.437Z</time>
      </trkpt>
      <trkpt lat="47.94156" lon="-4.01115">
        <ele>63</ele>
        <time>2022-12-28T09:41:15.778Z</time>
      </trkpt>
      <trkpt lat="47.94154" lon="-4.01117">
        <ele>63</ele>
        <time>2022-12-28T09:41:19.120Z</time>
      </trkpt>
      <trkpt lat="47.94154" lon="-4.01117">
        <ele>63</ele>
        <time>2022-12-28T09:41:22.462Z</time>
      </trkpt>
      <trkpt lat="47.94153" lon="-4.01119">
        <ele>62</ele>
        <time>2022-12-28T09:41:25.804Z</time>
      </trkpt>
      <trkpt lat="47.94149" lon="-4.01118">
        <ele>62</ele>
        <time>2022-12-28T09:41:29.146Z</time>
      </trkpt>
      <trkpt lat="47.94133" lon="-4.01137">
        <ele>61</ele>
        <time>2022-12-28T09:41:32.492Z</time>
      </trkpt>
      <trkpt lat="47.94121" lon="-4.01161">
        <ele>61</ele>
        <time>2022-12-28T09:41:35.841Z</time>
      </trkpt>
      <trkpt lat="47.94107" lon="-4.01194">
        <ele>61</ele>
        <time>2022-12-28T09:41:39.194Z</time>
      </trkpt>
      <trkpt lat="47.94107" lon="-4.01194">
        <ele>60</ele>
        <time>2022-12-28T09:41:42.547Z</time>
      </trkpt>
      <trkpt lat="47.94075" lon="-4.01275">
        <ele>60</ele>
        <time>2022-12-28T09:41:45.910Z</time>
      </trkpt>
      <trkpt lat="47.94061" lon="-4.01312">
        <ele>59</ele>
        <time>2022-12-28T09:41:49.278Z</time>
      </trkpt>
      <trkpt lat="47.94061" lon="-4.01312">
        <ele>58</ele>
        <time>2022-12-28T09:41:52.646Z</time>
      </trkpt>
      <trkpt lat="47.9403" lon="-4.0139">
        <ele>58</ele>
        <time>2022-12-28T09:41:56.024Z</time>
      </trkpt>
      <trkpt lat="47.94015" lon="-4.01427">
        <ele>57</ele>
        <time>2022-12-28T09:41:59.406Z</time>
      </trkpt>
      <trkpt lat="47.94015" lon="-4.01427">
        <ele>56</ele>
        <time>2022-12-28T09:42:02.788Z</time>
      </trkpt>
      <trkpt lat="47.94004" lon="-4.01455">
        <ele>56</ele>
        <time>2022-12-28T09:42:06.174Z</time>
      </trkpt>
      <trkpt lat="47.94004" lon="-4.01456">
        <ele>55</ele>
        <time>2022-12-28T09:42:09.560Z</time>
      </trkpt>
      <trkpt lat="47.94004" lon="-4.01456">
        <ele>55</ele>
        <time>2022-12-28T09:42:12.946Z</time>
      </trkpt>
      <trkpt lat="47.94004" lon="-4.01456">
        <ele>54</ele>
        <time>2022-12-28T09:42:16.332Z</time>
      </trkpt>
      <trkpt lat="47.94003" lon="-4.0146">
        <ele>54</ele>
        <time>2022-12-28T09:42:19.718Z</time>
      </trkpt>
      <trkpt lat="47.94003" lon="-4.0146">
        <ele>53</ele>
        <time>2022-12-28T09:42:23.104Z</time>
      </trkpt>
      <trkpt lat="47.94001" lon="-4.01465">
        <ele>53</ele>
        <time>2022-12-28T09:42:26.491Z</time>
      </trkpt>
      <trkpt lat="47.94001" lon="-4.01465">
        <ele>53</ele>
        <time>2022-12-28T09:42:29.878Z</time>
      </trkpt>
      <trkpt lat="47.93995" lon="-4.0148">
        <ele>52</ele>
        <time>2022-12-28T09:42:33.267Z</time>
      </trkpt>
      <trkpt lat="47.93978" lon="-4.01515">
        <ele>52</ele>
        <time>2022-12-28T09:42:36.661Z</time>
      </trkpt>
      <trkpt lat="47.93966" lon="-4.01533">
        <ele>51</ele>
        <time>2022-12-28T09:42:40.057Z</time>
      </trkpt>
      <trkpt lat="47.93956" lon="-4.01544">
        <ele>51</ele>
        <time>2022-12-28T09:42:43.455Z</time>
      </trkpt>
      <trkpt lat="47.93938" lon="-4.01558">
        <ele>51</ele>
        <time>2022-12-28T09:42:46.856Z</time>
      </trkpt>
      <trkpt lat="47.93929" lon="-4.01562">
        <ele>50</ele>
        <time>2022-12-28T09:42:50.259Z</time>
      </trkpt>
      <trkpt lat="47.93914" lon="-4.01569">
        <ele>50</ele>
        <time>2022-12-28T09:42:53.664Z</time>
      </trkpt>
      <trkpt lat="47.93902" lon="-4.01572">
        <ele>49</ele>
        <time>2022-12-28T09:42:57.071Z</time>
      </trkpt>
      <trkpt lat="47.93902" lon="-4.01572">
        <ele>49</ele>
        <time>2022-12-28T09:43:00.478Z</time>
      </trkpt>
      <trkpt lat="47.9387" lon="-4.01579">
        <ele>49</ele>
        <time>2022-12-28T09:43:03.891Z</time>
      </trkpt>
      <trkpt lat="47.93861" lon="-4.01584">
        <ele>49</ele>
        <time>2022-12-28T09:43:07.305Z</time>
      </trkpt>
      <trkpt lat="47.93853" lon="-4.0159">
        <ele>48</ele>
        <time>2022-12-28T09:43:10.721Z</time>
      </trkpt>
      <trkpt lat="47.93853" lon="-4.01599">
        <ele>48</ele>
        <time>2022-12-28T09:43:14.137Z</time>
      </trkpt>
      <trkpt lat="47.93851" lon="-4.01601">
        <ele>48</ele>
        <time>2022-12-28T09:43:17.554Z</time>
      </trkpt>
      <trkpt lat="47.93848" lon="-4.01601">
        <ele>48</ele>
        <time>2022-12-28T09:43:20.971Z</time>
      </trkpt>
      <trkpt lat="47.93847" lon="-4.01652">
        <ele>47</ele>
        <time>2022-12-28T09:43:24.394Z</time>
      </trkpt>
      <trkpt lat="47.93847" lon="-4.01653">
        <ele>47</ele>
        <time>2022-12-28T09:43:27.817Z</time>
      </trkpt>
      <trkpt lat="47.93847" lon="-4.01654">
        <ele>47</ele>
        <time>2022-12-28T09:43:31.240Z</time>
      </trkpt>
      <trkpt lat="47.93847" lon="-4.01654">
        <ele>47</ele>
        <time>2022-12-28T09:43:34.663Z</time>
      </trkpt>
      <trkpt lat="47.93847" lon="-4.01658">
        <ele>47</ele>
        <time>2022-12-28T09:43:38.087Z</time>
      </trkpt>
      <trkpt lat="47.93847" lon="-4.01658">
        <ele>46</ele>
        <time>2022-12-28T09:43:41.511Z</time>
      </trkpt>
      <trkpt lat="47.93847" lon="-4.01669">
        <ele>46</ele>
        <time>2022-12-28T09:43:44.936Z</time>
      </trkpt>
      <trkpt lat="47.93844" lon="-4.01766">
        <ele>46</ele>
        <time>2022-12-28T09:43:48.371Z</time>
      </trkpt>
      <trkpt lat="47.93844" lon="-4.01766">
        <ele>46</ele>
        <time>2022-12-28T09:43:51.806Z</time>
      </trkpt>
      <trkpt lat="47.9384" lon="-4.01805">
        <ele>45</ele>
        <time>2022-12-28T09:43:55.245Z</time>
      </trkpt>
      <trkpt lat="47.9384" lon="-4.01805">
        <ele>45</ele>
        <time>2022-12-28T09:43:58.684Z</time>
      </trkpt>
      <trkpt lat="47.9384" lon="-4.01806">
        <ele>45</ele>
        <time>2022-12-28T09:44:02.124Z</time>
      </trkpt>
      <trkpt lat="47.9384" lon="-4.01806">
        <ele>45</ele>
        <time>2022-12-28T09:44:05.564Z</time>
      </trkpt>
      <trkpt lat="47.9384" lon="-4.0181">
        <ele>45</ele>
        <time>2022-12-28T09:44:09.004Z</time>
      </trkpt>
      <trkpt lat="47.9384" lon="-4.0181">
        <ele>45</ele>
        <time>2022-12-28T09:44:12.444Z</time>
      </trkpt>
      <trkpt lat="47.93836" lon="-4.01854">
        <ele>45</ele>
        <time>2022-12-28T09:44:15.889Z</time>
      </trkpt>
      <trkpt lat="47.93867" lon="-4.01865">
        <ele>45</ele>
        <time>2022-12-28T09:44:19.339Z</time>
      </trkpt>
      <trkpt lat="47.93868" lon="-4.01878">
        <ele>45</ele>
        <time>2022-12-28T09:44:22.790Z</time>
      </trkpt>
      <trkpt lat="47.93868" lon="-4.01904">
        <ele>45</ele>
        <time>2022-12-28T09:44:26.244Z</time>
      </trkpt>
      <trkpt lat="47.93867" lon="-4.01919">
        <ele>45</ele>
        <time>2022-12-28T09:44:29.700Z</time>
      </trkpt>
      <trkpt lat="47.93869" lon="-4.01931">
        <ele>45</ele>
        <time>2022-12-28T09:44:33.157Z</time>
      </trkpt>
      <trkpt lat="47.93868" lon="-4.01946">
        <ele>45</ele>
        <time>2022-12-28T09:44:36.616Z</time>
      </trkpt>
      <trkpt lat="47.93868" lon="-4.01946">
        <ele>45</ele>
        <time>2022-12-28T09:44:40.075Z</time>
      </trkpt>
      <trkpt lat="47.93868" lon="-4.01946">
        <ele>45</ele>
        <time>2022-12-28T09:44:43.534Z</time>
      </trkpt>
      <trkpt lat="47.93859" lon="-4.01986">
        <ele>45</ele>
        <time>2022-12-28T09:44:46.997Z</time>
      </trkpt>
      <trkpt lat="47.93855" lon="-4.02">
        <ele>45</ele>
        <time>2022-12-28T09:44:50.462Z</time>
      </trkpt>
      <trkpt lat="47.93855" lon="-4.02007">
        <ele>45</ele>
        <time>2022-12-28T09:44:53.928Z</time>
      </trkpt>
      <trkpt lat="47.93855" lon="-4.02007">
        <ele>45</ele>
        <time>2022-12-28T09:44:57.394Z</time>
      </trkpt>
      <trkpt lat="47.93855" lon="-4.02008">
        <ele>45</ele>
        <time>2022-12-28T09:45:00.860Z</time>
      </trkpt>
      <trkpt lat="47.93855" lon="-4.02008">
        <ele>46</ele>
        <time>2022-12-28T09:45:04.326Z</time>
      </trkpt>
      <trkpt lat="47.93854" lon="-4.02013">
        <ele>46</ele>
        <time>2022-12-28T09:45:07.792Z</time>
      </trkpt>
      <trkpt lat="47.93854" lon="-4.02013">
        <ele>46</ele>
        <time>2022-12-28T09:45:11.258Z</time>
      </trkpt>
      <trkpt lat="47.93854" lon="-4.02013">
        <ele>46</ele>
        <time>2022-12-28T09:45:14.724Z</time>
      </trkpt>
      <trkpt lat="47.93853" lon="-4.02019">
        <ele>47</ele>
        <time>2022-12-28T09:45:18.191Z</time>
      </trkpt>
      <trkpt lat="47.93853" lon="-4.02019">
        <ele>47</ele>
        <time>2022-12-28T09:45:21.658Z</time>
      </trkpt>
      <trkpt lat="47.93852" lon="-4.02032">
        <ele>47</ele>
        <time>2022-12-28T09:45:25.126Z</time>
      </trkpt>
      <trkpt lat="47.93832" lon="-4.02031">
        <ele>48</ele>
        <time>2022-12-28T09:45:28.598Z</time>
      </trkpt>
      <trkpt lat="47.93816" lon="-4.02065">
        <ele>48</ele>
        <time>2022-12-28T09:45:32.074Z</time>
      </trkpt>
      <trkpt lat="47.93807" lon="-4.02063">
        <ele>48</ele>
        <time>2022-12-28T09:45:35.551Z</time>
      </trkpt>
      <trkpt lat="47.93798" lon="-4.0207">
        <ele>49</ele>
        <time>2022-12-28T09:45:39.030Z</time>
      </trkpt>
      <trkpt lat="47.93793" lon="-4.0207">
        <ele>49</ele>
        <time>2022-12-28T09:45:42.510Z</time>
      </trkpt>
      <trkpt lat="47.93792" lon="-4.0207">
        <ele>49</ele>
        <time>2022-12-28T09:45:45.990Z</time>
      </trkpt>
      <trkpt lat="47.93792" lon="-4.0207">
        <ele>50</ele>
        <time>2022-12-28T09:45:49.470Z</time>
      </trkpt>
      <trkpt lat="47.93792" lon="-4.0207">
        <ele>50</ele>
        <time>2022-12-28T09:45:52.950Z</time>
      </trkpt>
      <trkpt lat="47.93789" lon="-4.0207">
        <ele>50</ele>
        <time>2022-12-28T09:45:56.431Z</time>
      </trkpt>
      <trkpt lat="47.93789" lon="-4.0207">
        <ele>51</ele>
        <time>2022-12-28T09:45:59.912Z</time>
      </trkpt>
      <trkpt lat="47.93785" lon="-4.0207">
        <ele>51</ele>
        <time>2022-12-28T09:46:03.393Z</time>
      </trkpt>
      <trkpt lat="47.93781" lon="-4.0207">
        <ele>52</ele>
        <time>2022-12-28T09:46:06.875Z</time>
      </trkpt>
      <trkpt lat="47.93779" lon="-4.02077">
        <ele>52</ele>
        <time>2022-12-28T09:46:10.358Z</time>
      </trkpt>
      <trkpt lat="47.93775" lon="-4.02074">
        <ele>52</ele>
        <time>2022-12-28T09:46:13.841Z</time>
      </trkpt>
      <trkpt lat="47.93767" lon="-4.02109">
        <ele>53</ele>
        <time>2022-12-28T09:46:17.328Z</time>
      </trkpt>
      <trkpt lat="47.93766" lon="-4.0215">
        <ele>53</ele>
        <time>2022-12-28T09:46:20.820Z</time>
      </trkpt>
      <trkpt lat="47.93767" lon="-4.02225">
        <ele>53</ele>
        <time>2022-12-28T09:46:24.320Z</time>
      </trkpt>
      <trkpt lat="47.93767" lon="-4.02225">
        <ele>53</ele>
        <time>2022-12-28T09:46:27.820Z</time>
      </trkpt>
      <trkpt lat="47.93766" lon="-4.02274">
        <ele>54</ele>
        <time>2022-12-28T09:46:31.325Z</time>
      </trkpt>
      <trkpt lat="47.93766" lon="-4.02275">
        <ele>54</ele>
        <time>2022-12-28T09:46:34.830Z</time>
      </trkpt>
      <trkpt lat="47.93766" lon="-4.02276">
        <ele>54</ele>
        <time>2022-12-28T09:46:38.335Z</time>
      </trkpt>
      <trkpt lat="47.93766" lon="-4.02276">
        <ele>54</ele>
        <time>2022-12-28T09:46:41.840Z</time>
      </trkpt>
      <trkpt lat="47.93766" lon="-4.0228">
        <ele>55</ele>
        <time>2022-12-28T09:46:45.346Z</time>
      </trkpt>
      <trkpt lat="47.93766" lon="-4.0228">
        <ele>55</ele>
        <time>2022-12-28T09:46:48.852Z</time>
      </trkpt>
      <trkpt lat="47.93766" lon="-4.02286">
        <ele>55</ele>
        <time>2022-12-28T09:46:52.358Z</time>
      </trkpt>
      <trkpt lat="47.93766" lon="-4.02286">
        <ele>55</ele>
        <time>2022-12-28T09:46:55.864Z</time>
      </trkpt>
      <trkpt lat="47.93763" lon="-4.02382">
        <ele>55</ele>
        <time>2022-12-28T09:46:59.381Z</time>
      </trkpt>
      <trkpt lat="47.93752" lon="-4.02435">
        <ele>55</ele>
        <time>2022-12-28T09:47:02.904Z</time>
      </trkpt>
      <trkpt lat="47.93755" lon="-4.02438">
        <ele>55</ele>
        <time>2022-12-28T09:47:06.427Z</time>
      </trkpt>
      <trkpt lat="47.93758" lon="-4.02444">
        <ele>55</ele>
        <time>2022-12-28T09:47:09.951Z</time>
      </trkpt>
      <trkpt lat="47.93757" lon="-4.02448">
        <ele>55</ele>
        <time>2022-12-28T09:47:13.476Z</time>
      </trkpt>
      <trkpt lat="47.93755" lon="-4.0245">
        <ele>55</ele>
        <time>2022-12-28T09:47:17.001Z</time>
      </trkpt>
      <trkpt lat="47.9375" lon="-4.02448">
        <ele>55</ele>
        <time>2022-12-28T09:47:20.527Z</time>
      </trkpt>
      <trkpt lat="47.9375" lon="-4.02455">
        <ele>54</ele>
        <time>2022-12-28T09:47:24.053Z</time>
      </trkpt>
      <trkpt lat="47.93752" lon="-4.02469">
        <ele>54</ele>
        <time>2022-12-28T09:47:27.581Z</time>
      </trkpt>
      <trkpt lat="47.9377" lon="-4.02526">
        <ele>54</ele>
        <time>2022-12-28T09:47:31.116Z</time>
      </trkpt>
      <trkpt lat="47.93777" lon="-4.0255">
        <ele>54</ele>
        <time>2022-12-28T09:47:34.654Z</time>
      </trkpt>
      <trkpt lat="47.93779" lon="-4.02565">
        <ele>53</ele>
        <time>2022-12-28T09:47:38.193Z</time>
      </trkpt>
      <trkpt lat="47.93778" lon="-4.02586">
        <ele>53</ele>
        <time>2022-12-28T09:47:41.734Z</time>
      </trkpt>
      <trkpt lat="47.93776" lon="-4.02602">
        <ele>52</ele>
        <time>2022-12-28T09:47:45.277Z</time>
      </trkpt>
      <trkpt lat="47.93775" lon="-4.02609">
        <ele>52</ele>
        <time>2022-12-28T09:47:48.821Z</time>
      </trkpt>
      <trkpt lat="47.93775" lon="-4.02609">
        <ele>52</ele>
        <time>2022-12-28T09:47:52.365Z</time>
      </trkpt>
      <trkpt lat="47.93766" lon="-4.02668">
        <ele>51</ele>
        <time>2022-12-28T09:47:55.915Z</time>
      </trkpt>
      <trkpt lat="47.93764" lon="-4.0271">
        <ele>51</ele>
        <time>2022-12-28T09:47:59.470Z</time>
      </trkpt>
      <trkpt lat="47.93767" lon="-4.02722">
        <ele>50</ele>
        <time>2022-12-28T09:48:03.026Z</time>
      </trkpt>
      <trkpt lat="47.93767" lon="-4.02723">
        <ele>50</ele>
        <time>2022-12-28T09:48:06.582Z</time>
      </trkpt>
      <trkpt lat="47.93767" lon="-4.02724">
        <ele>49</ele>
        <time>2022-12-28T09:48:10.139Z</time>
      </trkpt>
      <trkpt lat="47.93767" lon="-4.02724">
        <ele>48</ele>
        <time>2022-12-28T09:48:13.696Z</time>
      </trkpt>
      <trkpt lat="47.93768" lon="-4.02728">
        <ele>48</ele>
        <time>2022-12-28T09:48:17.253Z</time>
      </trkpt>
      <trkpt lat="47.93768" lon="-4.02728">
        <ele>47</ele>
        <time>2022-12-28T09:48:20.810Z</time>
      </trkpt>
      <trkpt lat="47.93768" lon="-4.02731">
        <ele>47</ele>
        <time>2022-12-28T09:48:24.367Z</time>
      </trkpt>
      <trkpt lat="47.9377" lon="-4.02734">
        <ele>46</ele>
        <time>2022-12-28T09:48:27.925Z</time>
      </trkpt>
      <trkpt lat="47.9377" lon="-4.02734">
        <ele>46</ele>
        <time>2022-12-28T09:48:31.483Z</time>
      </trkpt>
      <trkpt lat="47.93794" lon="-4.02792">
        <ele>45</ele>
        <time>2022-12-28T09:48:35.048Z</time>
      </trkpt>
      <trkpt lat="47.93797" lon="-4.02799">
        <ele>44</ele>
        <time>2022-12-28T09:48:38.614Z</time>
      </trkpt>
      <trkpt lat="47.93797" lon="-4.02799">
        <ele>44</ele>
        <time>2022-12-28T09:48:42.180Z</time>
      </trkpt>
      <trkpt lat="47.93811" lon="-4.02827">
        <ele>43</ele>
        <time>2022-12-28T09:48:45.750Z</time>
      </trkpt>
      <trkpt lat="47.93821" lon="-4.02837">
        <ele>42</ele>
        <time>2022-12-28T09:48:49.322Z</time>
      </trkpt>
      <trkpt lat="47.93838" lon="-4.02842">
        <ele>42</ele>
        <time>2022-12-28T09:48:52.896Z</time>
      </trkpt>
      <trkpt lat="47.93873" lon="-4.02839">
        <ele>41</ele>
        <time>2022-12-28T09:48:56.476Z</time>
      </trkpt>
      <trkpt lat="47.93883" lon="-4.02845">
        <ele>40</ele>
        <time>2022-12-28T09:49:00.058Z</time>
      </trkpt>
      <trkpt lat="47.93889" lon="-4.02852">
        <ele>40</ele>
        <time>2022-12-28T09:49:03.641Z</time>
      </trkpt>
      <trkpt lat="47.93901" lon="-4.02889">
        <ele>39</ele>
        <time>2022-12-28T09:49:07.228Z</time>
      </trkpt>
      <trkpt lat="47.93922" lon="-4.02962">
        <ele>39</ele>
        <time>2022-12-28T09:49:10.824Z</time>
      </trkpt>
      <trkpt lat="47.93929" lon="-4.02984">
        <ele>38</ele>
        <time>2022-12-28T09:49:14.423Z</time>
      </trkpt>
      <trkpt lat="47.93955" lon="-4.0303">
        <ele>38</ele>
        <time>2022-12-28T09:49:18.028Z</time>
      </trkpt>
      <trkpt lat="47.93955" lon="-4.0303">
        <ele>37</ele>
        <time>2022-12-28T09:49:21.633Z</time>
      </trkpt>
      <trkpt lat="47.93962" lon="-4.03046">
        <ele>37</ele>
        <time>2022-12-28T09:49:25.240Z</time>
      </trkpt>
      <trkpt lat="47.93976" lon="-4.03083">
        <ele>36</ele>
        <time>2022-12-28T09:49:28.852Z</time>
      </trkpt>
      <trkpt lat="47.93976" lon="-4.03083">
        <ele>35</ele>
        <time>2022-12-28T09:49:32.464Z</time>
      </trkpt>
      <trkpt lat="47.94012" lon="-4.03174">
        <ele>35</ele>
        <time>2022-12-28T09:49:36.087Z</time>
      </trkpt>
      <trkpt lat="47.94048" lon="-4.03258">
        <ele>35</ele>
        <time>2022-12-28T09:49:39.721Z</time>
      </trkpt>
      <trkpt lat="47.94059" lon="-4.03291">
        <ele>34</ele>
        <time>2022-12-28T09:49:43.359Z</time>
      </trkpt>
      <trkpt lat="47.94065" lon="-4.03312">
        <ele>34</ele>
        <time>2022-12-28T09:49:46.999Z</time>
      </trkpt>
      <trkpt lat="47.94071" lon="-4.03348">
        <ele>34</ele>
        <time>2022-12-28T09:49:50.643Z</time>
      </trkpt>
      <trkpt lat="47.94072" lon="-4.03366">
        <ele>33</ele>
        <time>2022-12-28T09:49:54.289Z</time>
      </trkpt>
      <trkpt lat="47.94063" lon="-4.03382">
        <ele>33</ele>
        <time>2022-12-28T09:49:57.937Z</time>
      </trkpt>
      <trkpt lat="47.94028" lon="-4.03446">
        <ele>33</ele>
        <time>2022-12-28T09:50:01.594Z</time>
      </trkpt>
      <trkpt lat="47.93992" lon="-4.03503">
        <ele>32</ele>
        <time>2022-12-28T09:50:05.260Z</time>
      </trkpt>
      <trkpt lat="47.93989" lon="-4.03517">
        <ele>32</ele>
        <time>2022-12-28T09:50:08.927Z</time>
      </trkpt>
      <trkpt lat="47.93989" lon="-4.03538">
        <ele>32</ele>
        <time>2022-12-28T09:50:12.596Z</time>
      </trkpt>
      <trkpt lat="47.93991" lon="-4.03609">
        <ele>32</ele>
        <time>2022-12-28T09:50:16.273Z</time>
      </trkpt>
      <trkpt lat="47.93985" lon="-4.03656">
        <ele>32</ele>
        <time>2022-12-28T09:50:19.955Z</time>
      </trkpt>
      <trkpt lat="47.93978" lon="-4.0367">
        <ele>31</ele>
        <time>2022-12-28T09:50:23.639Z</time>
      </trkpt>
      <trkpt lat="47.93966" lon="-4.0368">
        <ele>31</ele>
        <time>2022-12-28T09:50:27.325Z</time>
      </trkpt>
      <trkpt lat="47.93908" lon="-4.03707">
        <ele>31</ele>
        <time>2022-12-28T09:50:31.021Z</time>
      </trkpt>
      <trkpt lat="47.93894" lon="-4.03682">
        <ele>30</ele>
        <time>2022-12-28T09:50:34.721Z</time>
      </trkpt>
      <trkpt lat="47.93876" lon="-4.03664">
        <ele>30</ele>
        <time>2022-12-28T09:50:38.424Z</time>
      </trkpt>
      <trkpt lat="47.93849" lon="-4.03661">
        <ele>30</ele>
        <time>2022-12-28T09:50:42.131Z</time>
      </trkpt>
      <trkpt lat="47.93844" lon="-4.03661">
        <ele>28</ele>
        <time>2022-12-28T09:50:45.839Z</time>
      </trkpt>
      <trkpt lat="47.93849" lon="-4.03661">
        <ele>29</ele>
        <time>2022-12-28T09:50:49.548Z</time>
      </trkpt>
      <trkpt lat="47.93844" lon="-4.03661">
        <ele>28</ele>
        <time>2022-12-28T09:50:53.258Z</time>
      </trkpt>
      <trkpt lat="47.93837" lon="-4.03661">
        <ele>28</ele>
        <time>2022-12-28T09:50:56.969Z</time>
      </trkpt>
      <trkpt lat="47.93836" lon="-4.03661">
        <ele>27</ele>
        <time>2022-12-28T09:51:00.680Z</time>
      </trkpt>
      <trkpt lat="47.93836" lon="-4.03661">
        <ele>27</ele>
        <time>2022-12-28T09:51:04.391Z</time>
      </trkpt>
      <trkpt lat="47.93836" lon="-4.03661">
        <ele>27</ele>
        <time>2022-12-28T09:51:08.102Z</time>
      </trkpt>
      <trkpt lat="47.93833" lon="-4.03661">
        <ele>26</ele>
        <time>2022-12-28T09:51:11.814Z</time>
      </trkpt>
      <trkpt lat="47.93833" lon="-4.03661">
        <ele>26</ele>
        <time>2022-12-28T09:51:15.526Z</time>
      </trkpt>
      <trkpt lat="47.93828" lon="-4.03661">
        <ele>26</ele>
        <time>2022-12-28T09:51:19.238Z</time>
      </trkpt>
      <trkpt lat="47.93787" lon="-4.03661">
        <ele>25</ele>
        <time>2022-12-28T09:51:22.957Z</time>
      </trkpt>
      <trkpt lat="47.93756" lon="-4.03636">
        <ele>25</ele>
        <time>2022-12-28T09:51:26.682Z</time>
      </trkpt>
      <trkpt lat="47.93744" lon="-4.03612">
        <ele>25</ele>
        <time>2022-12-28T09:51:30.410Z</time>
      </trkpt>
      <trkpt lat="47.93728" lon="-4.03593">
        <ele>24</ele>
        <time>2022-12-28T09:51:34.141Z</time>
      </trkpt>
      <trkpt lat="47.93719" lon="-4.03588">
        <ele>24</ele>
        <time>2022-12-28T09:51:37.874Z</time>
      </trkpt>
      <trkpt lat="47.93643" lon="-4.03554">
        <ele>24</ele>
        <time>2022-12-28T09:51:41.619Z</time>
      </trkpt>
      <trkpt lat="47.93641" lon="-4.03553">
        <ele>24</ele>
        <time>2022-12-28T09:51:45.365Z</time>
      </trkpt>
      <trkpt lat="47.93479" lon="-4.03489">
        <ele>23</ele>
        <time>2022-12-28T09:51:49.138Z</time>
      </trkpt>
      <trkpt lat="47.93465" lon="-4.03517">
        <ele>23</ele>
        <time>2022-12-28T09:51:52.914Z</time>
      </trkpt>
      <trkpt lat="47.93459" lon="-4.03518">
        <ele>23</ele>
        <time>2022-12-28T09:51:56.691Z</time>
      </trkpt>
      <trkpt lat="47.9343" lon="-4.03486">
        <ele>22</ele>
        <time>2022-12-28T09:52:00.474Z</time>
      </trkpt>
      <trkpt lat="47.93426" lon="-4.03481">
        <ele>22</ele>
        <time>2022-12-28T09:52:04.258Z</time>
      </trkpt>
      <trkpt lat="47.934" lon="-4.03449">
        <ele>22</ele>
        <time>2022-12-28T09:52:08.047Z</time>
      </trkpt>
      <trkpt lat="47.934" lon="-4.03449">
        <ele>22</ele>
        <time>2022-12-28T09:52:11.836Z</time>
      </trkpt>
      <trkpt lat="47.93393" lon="-4.03441">
        <ele>21</ele>
        <time>2022-12-28T09:52:15.627Z</time>
      </trkpt>
      <trkpt lat="47.93389" lon="-4.03439">
        <ele>21</ele>
        <time>2022-12-28T09:52:19.418Z</time>
      </trkpt>
      <trkpt lat="47.93324" lon="-4.03513">
        <ele>21</ele>
        <time>2022-12-28T09:52:23.222Z</time>
      </trkpt>
      <trkpt lat="47.93305" lon="-4.03517">
        <ele>21</ele>
        <time>2022-12-28T09:52:27.030Z</time>
      </trkpt>
      <trkpt lat="47.93278" lon="-4.03517">
        <ele>20</ele>
        <time>2022-12-28T09:52:30.842Z</time>
      </trkpt>
      <trkpt lat="47.93278" lon="-4.03619">
        <ele>20</ele>
        <time>2022-12-28T09:52:34.665Z</time>
      </trkpt>
      <trkpt lat="47.93276" lon="-4.03635">
        <ele>20</ele>
        <time>2022-12-28T09:52:38.490Z</time>
      </trkpt>
      <trkpt lat="47.93261" lon="-4.03676">
        <ele>20</ele>
        <time>2022-12-28T09:52:42.320Z</time>
      </trkpt>
      <trkpt lat="47.93255" lon="-4.03712">
        <ele>20</ele>
        <time>2022-12-28T09:52:46.154Z</time>
      </trkpt>
      <trkpt lat="47.93242" lon="-4.03764">
        <ele>19</ele>
        <time>2022-12-28T09:52:49.994Z</time>
      </trkpt>
      <trkpt lat="47.93238" lon="-4.03785">
        <ele>19</ele>
        <time>2022-12-28T09:52:53.836Z</time>
      </trkpt>
      <trkpt lat="47.9323" lon="-4.038">
        <ele>19</ele>
        <time>2022-12-28T09:52:57.680Z</time>
      </trkpt>
      <trkpt lat="47.93194" lon="-4.03793">
        <ele>19</ele>
        <time>2022-12-28T09:53:01.530Z</time>
      </trkpt>
      <trkpt lat="47.93161" lon="-4.0378">
        <ele>19</ele>
        <time>2022-12-28T09:53:05.385Z</time>
      </trkpt>
      <trkpt lat="47.93098" lon="-4.0376">
        <ele>18</ele>
        <time>2022-12-28T09:53:09.251Z</time>
      </trkpt>
      <trkpt lat="47.93091" lon="-4.03749">
        <ele>18</ele>
        <time>2022-12-28T09:53:13.118Z</time>
      </trkpt>
      <trkpt lat="47.9309" lon="-4.03732">
        <ele>18</ele>
        <time>2022-12-28T09:53:16.987Z</time>
      </trkpt>
      <trkpt lat="47.93094" lon="-4.03705">
        <ele>18</ele>
        <time>2022-12-28T09:53:20.859Z</time>
      </trkpt>
      <trkpt lat="47.93094" lon="-4.0366">
        <ele>18</ele>
        <time>2022-12-28T09:53:24.736Z</time>
      </trkpt>
      <trkpt lat="47.93097" lon="-4.03611">
        <ele>17</ele>
        <time>2022-12-28T09:53:28.618Z</time>
      </trkpt>
      <trkpt lat="47.93108" lon="-4.03568">
        <ele>17</ele>
        <time>2022-12-28T09:53:32.505Z</time>
      </trkpt>
      <trkpt lat="47.93108" lon="-4.03568">
        <ele>17</ele>
        <time>2022-12-28T09:53:36.392Z</time>
      </trkpt>
      <trkpt lat="47.93108" lon="-4.03567">
        <ele>17</ele>
        <time>2022-12-28T09:53:40.279Z</time>
      </trkpt>
      <trkpt lat="47.93108" lon="-4.03567">
        <ele>17</ele>
        <time>2022-12-28T09:53:44.166Z</time>
      </trkpt>
      <trkpt lat="47.93109" lon="-4.03564">
        <ele>17</ele>
        <time>2022-12-28T09:53:48.054Z</time>
      </trkpt>
      <trkpt lat="47.93109" lon="-4.03563">
        <ele>17</ele>
        <time>2022-12-28T09:53:51.942Z</time>
      </trkpt>
      <trkpt lat="47.93109" lon="-4.03563">
        <ele>17</ele>
        <time>2022-12-28T09:53:55.830Z</time>
      </trkpt>
      <trkpt lat="47.93111" lon="-4.03557">
        <ele>16</ele>
        <time>2022-12-28T09:53:59.718Z</time>
      </trkpt>
      <trkpt lat="47.93111" lon="-4.03557">
        <ele>16</ele>
        <time>2022-12-28T09:54:03.606Z</time>
      </trkpt>
      <trkpt lat="47.9313" lon="-4.03497">
        <ele>16</ele>
        <time>2022-12-28T09:54:07.502Z</time>
      </trkpt>
      <trkpt lat="47.93118" lon="-4.03475">
        <ele>16</ele>
        <time>2022-12-28T09:54:11.401Z</time>
      </trkpt>
      <trkpt lat="47.93117" lon="-4.0347">
        <ele>16</ele>
        <time>2022-12-28T09:54:15.300Z</time>
      </trkpt>
      <trkpt lat="47.93023" lon="-4.035">
        <ele>16</ele>
        <time>2022-12-28T09:54:19.215Z</time>
      </trkpt>
      <trkpt lat="47.93012" lon="-4.03509">
        <ele>16</ele>
        <time>2022-12-28T09:54:23.132Z</time>
      </trkpt>
      <trkpt lat="47.93003" lon="-4.03513">
        <ele>16</ele>
        <time>2022-12-28T09:54:27.050Z</time>
      </trkpt>
      <trkpt lat="47.9295" lon="-4.03521">
        <ele>16</ele>
        <time>2022-12-28T09:54:30.977Z</time>
      </trkpt>
      <trkpt lat="47.92944" lon="-4.03523">
        <ele>16</ele>
        <time>2022-12-28T09:54:34.905Z</time>
      </trkpt>
      <trkpt lat="47.92936" lon="-4.03536">
        <ele>16</ele>
        <time>2022-12-28T09:54:38.835Z</time>
      </trkpt>
      <trkpt lat="47.92929" lon="-4.03538">
        <ele>17</ele>
        <time>2022-12-28T09:54:42.766Z</time>
      </trkpt>
      <trkpt lat="47.92919" lon="-4.03542">
        <ele>17</ele>
        <time>2022-12-28T09:54:46.698Z</time>
      </trkpt>
      <trkpt lat="47.92905" lon="-4.03539">
        <ele>17</ele>
        <time>2022-12-28T09:54:50.633Z</time>
      </trkpt>
      <trkpt lat="47.92897" lon="-4.03546">
        <ele>18</ele>
        <time>2022-12-28T09:54:54.569Z</time>
      </trkpt>
      <trkpt lat="47.92896" lon="-4.03546">
        <ele>18</ele>
        <time>2022-12-28T09:54:58.505Z</time>
      </trkpt>
      <trkpt lat="47.92889" lon="-4.03551">
        <ele>19</ele>
        <time>2022-12-28T09:55:02.442Z</time>
      </trkpt>
      <trkpt lat="47.92883" lon="-4.03551">
        <ele>19</ele>
        <time>2022-12-28T09:55:06.380Z</time>
      </trkpt>
      <trkpt lat="47.92869" lon="-4.03546">
        <ele>19</ele>
        <time>2022-12-28T09:55:10.321Z</time>
      </trkpt>
      <trkpt lat="47.92845" lon="-4.03553">
        <ele>20</ele>
        <time>2022-12-28T09:55:14.266Z</time>
      </trkpt>
      <trkpt lat="47.92841" lon="-4.03554">
        <ele>20</ele>
        <time>2022-12-28T09:55:18.211Z</time>
      </trkpt>
      <trkpt lat="47.92813" lon="-4.03478">
        <ele>21</ele>
        <time>2022-12-28T09:55:22.166Z</time>
      </trkpt>
      <trkpt lat="47.92769" lon="-4.03533">
        <ele>21</ele>
        <time>2022-12-28T09:55:26.130Z</time>
      </trkpt>
      <trkpt lat="47.92742" lon="-4.03563">
        <ele>22</ele>
        <time>2022-12-28T09:55:30.099Z</time>
      </trkpt>
      <trkpt lat="47.92719" lon="-4.03596">
        <ele>23</ele>
        <time>2022-12-28T09:55:34.073Z</time>
      </trkpt>
      <trkpt lat="47.92698" lon="-4.03622">
        <ele>23</ele>
        <time>2022-12-28T09:55:38.052Z</time>
      </trkpt>
      <trkpt lat="47.92677" lon="-4.03636">
        <ele>24</ele>
        <time>2022-12-28T09:55:42.034Z</time>
      </trkpt>
      <trkpt lat="47.92664" lon="-4.03639">
        <ele>25</ele>
        <time>2022-12-28T09:55:46.018Z</time>
      </trkpt>
      <trkpt lat="47.92625" lon="-4.03644">
        <ele>25</ele>
        <time>2022-12-28T09:55:50.009Z</time>
      </trkpt>
      <trkpt lat="47.9256" lon="-4.03649">
        <ele>26</ele>
        <time>2022-12-28T09:55:54.010Z</time>
      </trkpt>
      <trkpt lat="47.92481" lon="-4.03638">
        <ele>27</ele>
        <time>2022-12-28T09:55:58.024Z</time>
      </trkpt>
      <trkpt lat="47.92472" lon="-4.03634">
        <ele>28</ele>
        <time>2022-12-28T09:56:02.039Z</time>
      </trkpt>
      <trkpt lat="47.92467" lon="-4.03617">
        <ele>28</ele>
        <time>2022-12-28T09:56:06.056Z</time>
      </trkpt>
      <trkpt lat="47.92442" lon="-4.03613">
        <ele>29</ele>
        <time>2022-12-28T09:56:10.077Z</time>
      </trkpt>
      <trkpt lat="47.92364" lon="-4.03609">
        <ele>30</ele>
        <time>2022-12-28T09:56:14.111Z</time>
      </trkpt>
      <trkpt lat="47.92364" lon="-4.03609">
        <ele>31</ele>
        <time>2022-12-28T09:56:18.145Z</time>
      </trkpt>
      <trkpt lat="47.92363" lon="-4.03609">
        <ele>31</ele>
        <time>2022-12-28T09:56:22.179Z</time>
      </trkpt>
      <trkpt lat="47.92363" lon="-4.03609">
        <ele>32</ele>
        <time>2022-12-28T09:56:26.213Z</time>
      </trkpt>
      <trkpt lat="47.9236" lon="-4.03608">
        <ele>33</ele>
        <time>2022-12-28T09:56:30.247Z</time>
      </trkpt>
      <trkpt lat="47.9236" lon="-4.03608">
        <ele>33</ele>
        <time>2022-12-28T09:56:34.281Z</time>
      </trkpt>
      <trkpt lat="47.92356" lon="-4.03608">
        <ele>34</ele>
        <time>2022-12-28T09:56:38.316Z</time>
      </trkpt>
      <trkpt lat="47.92356" lon="-4.03608">
        <ele>35</ele>
        <time>2022-12-28T09:56:42.351Z</time>
      </trkpt>
      <trkpt lat="47.92355" lon="-4.03608">
        <ele>35</ele>
        <time>2022-12-28T09:56:46.386Z</time>
      </trkpt>
      <trkpt lat="47.92338" lon="-4.03605">
        <ele>36</ele>
        <time>2022-12-28T09:56:50.424Z</time>
      </trkpt>
      <trkpt lat="47.92225" lon="-4.03539">
        <ele>37</ele>
        <time>2022-12-28T09:56:54.481Z</time>
      </trkpt>
      <trkpt lat="47.92225" lon="-4.03539">
        <ele>37</ele>
        <time>2022-12-28T09:56:58.538Z</time>
      </trkpt>
      <trkpt lat="47.92205" lon="-4.03529">
        <ele>38</ele>
        <time>2022-12-28T09:57:02.599Z</time>
      </trkpt>
      <trkpt lat="47.92187" lon="-4.03526">
        <ele>38</ele>
        <time>2022-12-28T09:57:06.663Z</time>
      </trkpt>
      <trkpt lat="47.92137" lon="-4.03523">
        <ele>38</ele>
        <time>2022-12-28T09:57:10.735Z</time>
      </trkpt>
      <trkpt lat="47.92122" lon="-4.03526">
        <ele>39</ele>
        <time>2022-12-28T09:57:14.809Z</time>
      </trkpt>
      <trkpt lat="47.92072" lon="-4.03543">
        <ele>39</ele>
        <time>2022-12-28T09:57:18.891Z</time>
      </trkpt>
      <trkpt lat="47.92037" lon="-4.0356">
        <ele>39</ele>
        <time>2022-12-28T09:57:22.979Z</time>
      </trkpt>
      <trkpt lat="47.92023" lon="-4.03564">
        <ele>39</ele>
        <time>2022-12-28T09:57:27.070Z</time>
      </trkpt>
      <trkpt lat="47.91998" lon="-4.03605">
        <ele>39</ele>
        <time>2022-12-28T09:57:31.166Z</time>
      </trkpt>
      <trkpt lat="47.91981" lon="-4.03612">
        <ele>40</ele>
        <time>2022-12-28T09:57:35.265Z</time>
      </trkpt>
      <trkpt lat="47.91954" lon="-4.03629">
        <ele>40</ele>
        <time>2022-12-28T09:57:39.369Z</time>
      </trkpt>
      <trkpt lat="47.91894" lon="-4.03668">
        <ele>40</ele>
        <time>2022-12-28T09:57:43.484Z</time>
      </trkpt>
      <trkpt lat="47.91868" lon="-4.03678">
        <ele>40</ele>
        <time>2022-12-28T09:57:47.603Z</time>
      </trkpt>
      <trkpt lat="47.91842" lon="-4.03693">
        <ele>40</ele>
        <time>2022-12-28T09:57:51.726Z</time>
      </trkpt>
      <trkpt lat="47.91842" lon="-4.03693">
        <ele>40</ele>
        <time>2022-12-28T09:57:55.849Z</time>
      </trkpt>
      <trkpt lat="47.9182" lon="-4.03719">
        <ele>40</ele>
        <time>2022-12-28T09:57:59.977Z</time>
      </trkpt>
      <trkpt lat="47.91785" lon="-4.03773">
        <ele>40</ele>
        <time>2022-12-28T09:58:04.113Z</time>
      </trkpt>
      <trkpt lat="47.91725" lon="-4.03818">
        <ele>40</ele>
        <time>2022-12-28T09:58:08.260Z</time>
      </trkpt>
      <trkpt lat="47.91656" lon="-4.03835">
        <ele>39</ele>
        <time>2022-12-28T09:58:12.418Z</time>
      </trkpt>
      <trkpt lat="47.91622" lon="-4.03843">
        <ele>39</ele>
        <time>2022-12-28T09:58:16.581Z</time>
      </trkpt>
      <trkpt lat="47.91622" lon="-4.03843">
        <ele>39</ele>
        <time>2022-12-28T09:58:20.744Z</time>
      </trkpt>
      <trkpt lat="47.91617" lon="-4.03844">
        <ele>38</ele>
        <time>2022-12-28T09:58:24.908Z</time>
      </trkpt>
      <trkpt lat="47.91514" lon="-4.03851">
        <ele>38</ele>
        <time>2022-12-28T09:58:29.089Z</time>
      </trkpt>
      <trkpt lat="47.91495" lon="-4.03854">
        <ele>38</ele>
        <time>2022-12-28T09:58:33.273Z</time>
      </trkpt>
      <trkpt lat="47.91435" lon="-4.0388">
        <ele>38</ele>
        <time>2022-12-28T09:58:37.467Z</time>
      </trkpt>
      <trkpt lat="47.91386" lon="-4.03914">
        <ele>38</ele>
        <time>2022-12-28T09:58:41.669Z</time>
      </trkpt>
      <trkpt lat="47.91354" lon="-4.03943">
        <ele>38</ele>
        <time>2022-12-28T09:58:45.877Z</time>
      </trkpt>
      <trkpt lat="47.91346" lon="-4.03948">
        <ele>37</ele>
        <time>2022-12-28T09:58:50.087Z</time>
      </trkpt>
      <trkpt lat="47.91338" lon="-4.03951">
        <ele>37</ele>
        <time>2022-12-28T09:58:54.298Z</time>
      </trkpt>
      <trkpt lat="47.91316" lon="-4.03995">
        <ele>37</ele>
        <time>2022-12-28T09:58:58.515Z</time>
      </trkpt>
      <trkpt lat="47.91404" lon="-4.04136">
        <ele>37</ele>
        <time>2022-12-28T09:59:02.753Z</time>
      </trkpt>
      <trkpt lat="47.91433" lon="-4.04198">
        <ele>37</ele>
        <time>2022-12-28T09:59:06.999Z</time>
      </trkpt>
      <trkpt lat="47.91433" lon="-4.04198">
        <ele>37</ele>
        <time>2022-12-28T09:59:11.245Z</time>
      </trkpt>
      <trkpt lat="47.91448" lon="-4.04227">
        <ele>37</ele>
        <time>2022-12-28T09:59:15.495Z</time>
      </trkpt>
      <trkpt lat="47.9146" lon="-4.04244">
        <ele>37</ele>
        <time>2022-12-28T09:59:19.747Z</time>
      </trkpt>
      <trkpt lat="47.91502" lon="-4.04294">
        <ele>37</ele>
        <time>2022-12-28T09:59:24.008Z</time>
      </trkpt>
      <trkpt lat="47.91502" lon="-4.04294">
        <ele>37</ele>
        <time>2022-12-28T09:59:28.269Z</time>
      </trkpt>
      <trkpt lat="47.91502" lon="-4.04295">
        <ele>37</ele>
        <time>2022-12-28T09:59:32.530Z</time>
      </trkpt>
      <trkpt lat="47.91502" lon="-4.04295">
        <ele>37</ele>
        <time>2022-12-28T09:59:36.791Z</time>
      </trkpt>
      <trkpt lat="47.91505" lon="-4.04298">
        <ele>37</ele>
        <time>2022-12-28T09:59:41.053Z</time>
      </trkpt>
      <trkpt lat="47.91505" lon="-4.04298">
        <ele>37</ele>
        <time>2022-12-28T09:59:45.315Z</time>
      </trkpt>
      <trkpt lat="47.91508" lon="-4.04302">
        <ele>37</ele>
        <time>2022-12-28T09:59:49.577Z</time>
      </trkpt>
      <trkpt lat="47.91508" lon="-4.04302">
        <ele>38</ele>
        <time>2022-12-28T09:59:53.839Z</time>
      </trkpt>
      <trkpt lat="47.91543" lon="-4.04343">
        <ele>38</ele>
        <time>2022-12-28T09:59:58.109Z</time>
      </trkpt>
      <trkpt lat="47.91464" lon="-4.04458">
        <ele>38</ele>
        <time>2022-12-28T10:00:02.396Z</time>
      </trkpt>
      <trkpt lat="47.91454" lon="-4.04473">
        <ele>38</ele>
        <time>2022-12-28T10:00:06.685Z</time>
      </trkpt>
      <trkpt lat="47.91431" lon="-4.0451">
        <ele>39</ele>
        <time>2022-12-28T10:00:10.980Z</time>
      </trkpt>
      <trkpt lat="47.91431" lon="-4.0451">
        <ele>40</ele>
        <time>2022-12-28T10:00:15.275Z</time>
      </trkpt>
      <trkpt lat="47.91391" lon="-4.04576">
        <ele>40</ele>
        <time>2022-12-28T10:00:19.580Z</time>
      </trkpt>
      <trkpt lat="47.91377" lon="-4.04594">
        <ele>41</ele>
        <time>2022-12-28T10:00:23.887Z</time>
      </trkpt>
      <trkpt lat="47.91377" lon="-4.04594">
        <ele>42</ele>
        <time>2022-12-28T10:00:28.194Z</time>
      </trkpt>
      <trkpt lat="47.91377" lon="-4.04594">
        <ele>41</ele>
        <time>2022-12-28T10:00:32.501Z</time>
      </trkpt>
      <trkpt lat="47.91377" lon="-4.04594">
        <ele>42</ele>
        <time>2022-12-28T10:00:36.808Z</time>
      </trkpt>
      <trkpt lat="47.91367" lon="-4.04607">
        <ele>44</ele>
        <time>2022-12-28T10:00:41.118Z</time>
      </trkpt>
      <trkpt lat="47.91377" lon="-4.04594">
        <ele>42</ele>
        <time>2022-12-28T10:00:45.430Z</time>
      </trkpt>
      <trkpt lat="47.91367" lon="-4.04607">
        <ele>44</ele>
        <time>2022-12-28T10:00:49.744Z</time>
      </trkpt>
      <trkpt lat="47.91328" lon="-4.04622">
        <ele>46</ele>
        <time>2022-12-28T10:00:54.064Z</time>
      </trkpt>
      <trkpt lat="47.91273" lon="-4.04633">
        <ele>47</ele>
        <time>2022-12-28T10:00:58.393Z</time>
      </trkpt>
      <trkpt lat="47.91225" lon="-4.04636">
        <ele>48</ele>
        <time>2022-12-28T10:01:02.730Z</time>
      </trkpt>
      <trkpt lat="47.912" lon="-4.04655">
        <ele>49</ele>
        <time>2022-12-28T10:01:07.071Z</time>
      </trkpt>
      <trkpt lat="47.91186" lon="-4.04691">
        <ele>50</ele>
        <time>2022-12-28T10:01:11.417Z</time>
      </trkpt>
      <trkpt lat="47.91131" lon="-4.04729">
        <ele>51</ele>
        <time>2022-12-28T10:01:15.773Z</time>
      </trkpt>
      <trkpt lat="47.91111" lon="-4.04734">
        <ele>52</ele>
        <time>2022-12-28T10:01:20.132Z</time>
      </trkpt>
      <trkpt lat="47.91095" lon="-4.04726">
        <ele>53</ele>
        <time>2022-12-28T10:01:24.494Z</time>
      </trkpt>
      <trkpt lat="47.91078" lon="-4.04721">
        <ele>54</ele>
        <time>2022-12-28T10:01:28.858Z</time>
      </trkpt>
      <trkpt lat="47.90958" lon="-4.04716">
        <ele>55</ele>
        <time>2022-12-28T10:01:33.242Z</time>
      </trkpt>
      <trkpt lat="47.90938" lon="-4.04715">
        <ele>57</ele>
        <time>2022-12-28T10:01:37.629Z</time>
      </trkpt>
      <trkpt lat="47.90929" lon="-4.04713">
        <ele>58</ele>
        <time>2022-12-28T10:01:42.017Z</time>
      </trkpt>
      <trkpt lat="47.90936" lon="-4.04738">
        <ele>59</ele>
        <time>2022-12-28T10:01:46.408Z</time>
      </trkpt>
      <trkpt lat="47.90936" lon="-4.04738">
        <ele>60</ele>
        <time>2022-12-28T10:01:50.799Z</time>
      </trkpt>
      <trkpt lat="47.9095" lon="-4.04787">
        <ele>61</ele>
        <time>2022-12-28T10:01:55.196Z</time>
      </trkpt>
      <trkpt lat="47.90951" lon="-4.04788">
        <ele>62</ele>
        <time>2022-12-28T10:01:59.593Z</time>
      </trkpt>
      <trkpt lat="47.90951" lon="-4.04788">
        <ele>62</ele>
        <time>2022-12-28T10:02:03.990Z</time>
      </trkpt>
      <trkpt lat="47.90951" lon="-4.04788">
        <ele>63</ele>
        <time>2022-12-28T10:02:08.387Z</time>
      </trkpt>
      <trkpt lat="47.90952" lon="-4.04793">
        <ele>64</ele>
        <time>2022-12-28T10:02:12.785Z</time>
      </trkpt>
      <trkpt lat="47.90952" lon="-4.04793">
        <ele>65</ele>
        <time>2022-12-28T10:02:17.183Z</time>
      </trkpt>
      <trkpt lat="47.90954" lon="-4.04798">
        <ele>65</ele>
        <time>2022-12-28T10:02:21.581Z</time>
      </trkpt>
      <trkpt lat="47.90954" lon="-4.04798">
        <ele>66</ele>
        <time>2022-12-28T10:02:25.979Z</time>
      </trkpt>
      <trkpt lat="47.90956" lon="-4.04808">
        <ele>66</ele>
        <time>2022-12-28T10:02:30.378Z</time>
      </trkpt>
      <trkpt lat="47.90967" lon="-4.04833">
        <ele>67</ele>
        <time>2022-12-28T10:02:34.781Z</time>
      </trkpt>
      <trkpt lat="47.90981" lon="-4.04858">
        <ele>68</ele>
        <time>2022-12-28T10:02:39.187Z</time>
      </trkpt>
      <trkpt lat="47.90986" lon="-4.04867">
        <ele>68</ele>
        <time>2022-12-28T10:02:43.594Z</time>
      </trkpt>
      <trkpt lat="47.90992" lon="-4.04875">
        <ele>69</ele>
        <time>2022-12-28T10:02:48.003Z</time>
      </trkpt>
      <trkpt lat="47.90992" lon="-4.04875">
        <ele>69</ele>
        <time>2022-12-28T10:02:52.412Z</time>
      </trkpt>
      <trkpt lat="47.91045" lon="-4.04948">
        <ele>70</ele>
        <time>2022-12-28T10:02:56.832Z</time>
      </trkpt>
      <trkpt lat="47.91011" lon="-4.05035">
        <ele>70</ele>
        <time>2022-12-28T10:03:01.263Z</time>
      </trkpt>
      <trkpt lat="47.9098" lon="-4.05124">
        <ele>70</ele>
        <time>2022-12-28T10:03:05.705Z</time>
      </trkpt>
      <trkpt lat="47.90973" lon="-4.05142">
        <ele>71</ele>
        <time>2022-12-28T10:03:10.149Z</time>
      </trkpt>
      <trkpt lat="47.90963" lon="-4.05157">
        <ele>71</ele>
        <time>2022-12-28T10:03:14.595Z</time>
      </trkpt>
      <trkpt lat="47.90951" lon="-4.05177">
        <ele>71</ele>
        <time>2022-12-28T10:03:19.044Z</time>
      </trkpt>
      <trkpt lat="47.90921" lon="-4.05199">
        <ele>72</ele>
        <time>2022-12-28T10:03:23.499Z</time>
      </trkpt>
      <trkpt lat="47.90915" lon="-4.05234">
        <ele>72</ele>
        <time>2022-12-28T10:03:27.958Z</time>
      </trkpt>
      <trkpt lat="47.90911" lon="-4.05294">
        <ele>72</ele>
        <time>2022-12-28T10:03:32.423Z</time>
      </trkpt>
      <trkpt lat="47.9091" lon="-4.05373">
        <ele>72</ele>
        <time>2022-12-28T10:03:36.897Z</time>
      </trkpt>
      <trkpt lat="47.90911" lon="-4.05422">
        <ele>72</ele>
        <time>2022-12-28T10:03:41.376Z</time>
      </trkpt>
      <trkpt lat="47.90906" lon="-4.05458">
        <ele>72</ele>
        <time>2022-12-28T10:03:45.859Z</time>
      </trkpt>
      <trkpt lat="47.90905" lon="-4.05462">
        <ele>72</ele>
        <time>2022-12-28T10:03:50.342Z</time>
      </trkpt>
      <trkpt lat="47.90896" lon="-4.05501">
        <ele>72</ele>
        <time>2022-12-28T10:03:54.830Z</time>
      </trkpt>
      <trkpt lat="47.90905" lon="-4.05462">
        <ele>72</ele>
        <time>2022-12-28T10:03:59.322Z</time>
      </trkpt>
      <trkpt lat="47.90896" lon="-4.05501">
        <ele>72</ele>
        <time>2022-12-28T10:04:03.818Z</time>
      </trkpt>
      <trkpt lat="47.90895" lon="-4.05512">
        <ele>72</ele>
        <time>2022-12-28T10:04:08.316Z</time>
      </trkpt>
      <trkpt lat="47.90895" lon="-4.05513">
        <ele>72</ele>
        <time>2022-12-28T10:04:12.814Z</time>
      </trkpt>
      <trkpt lat="47.90895" lon="-4.05514">
        <ele>71</ele>
        <time>2022-12-28T10:04:17.312Z</time>
      </trkpt>
      <trkpt lat="47.90895" lon="-4.05514">
        <ele>71</ele>
        <time>2022-12-28T10:04:21.810Z</time>
      </trkpt>
      <trkpt lat="47.90894" lon="-4.05518">
        <ele>71</ele>
        <time>2022-12-28T10:04:26.308Z</time>
      </trkpt>
      <trkpt lat="47.90894" lon="-4.05518">
        <ele>71</ele>
        <time>2022-12-28T10:04:30.806Z</time>
      </trkpt>
      <trkpt lat="47.90894" lon="-4.05524">
        <ele>70</ele>
        <time>2022-12-28T10:04:35.305Z</time>
      </trkpt>
      <trkpt lat="47.90894" lon="-4.05524">
        <ele>70</ele>
        <time>2022-12-28T10:04:39.804Z</time>
      </trkpt>
      <trkpt lat="47.90893" lon="-4.05528">
        <ele>70</ele>
        <time>2022-12-28T10:04:44.303Z</time>
      </trkpt>
      <trkpt lat="47.90887" lon="-4.0556">
        <ele>69</ele>
        <time>2022-12-28T10:04:48.806Z</time>
      </trkpt>
      <trkpt lat="47.90841" lon="-4.055">
        <ele>69</ele>
        <time>2022-12-28T10:04:53.319Z</time>
      </trkpt>
      <trkpt lat="47.90815" lon="-4.05457">
        <ele>69</ele>
        <time>2022-12-28T10:04:57.838Z</time>
      </trkpt>
      <trkpt lat="47.90808" lon="-4.0544">
        <ele>68</ele>
        <time>2022-12-28T10:05:02.359Z</time>
      </trkpt>
      <trkpt lat="47.90784" lon="-4.05438">
        <ele>68</ele>
        <time>2022-12-28T10:05:06.884Z</time>
      </trkpt>
      <trkpt lat="47.90692" lon="-4.0543">
        <ele>65</ele>
        <time>2022-12-28T10:05:11.424Z</time>
      </trkpt>
      <trkpt lat="47.90784" lon="-4.05438">
        <ele>66</ele>
        <time>2022-12-28T10:05:15.978Z</time>
      </trkpt>
      <trkpt lat="47.90692" lon="-4.0543">
        <ele>65</ele>
        <time>2022-12-28T10:05:20.547Z</time>
      </trkpt>
      <trkpt lat="47.90085" lon="-4.05388">
        <ele>63</ele>
        <time>2022-12-28T10:05:25.213Z</time>
      </trkpt>
      <trkpt lat="47.89992" lon="-4.05382">
        <ele>62</ele>
        <time>2022-12-28T10:05:29.894Z</time>
      </trkpt>
      <trkpt lat="47.89987" lon="-4.05384">
        <ele>61</ele>
        <time>2022-12-28T10:05:34.576Z</time>
      </trkpt>
      <trkpt lat="47.89982" lon="-4.0539">
        <ele>61</ele>
        <time>2022-12-28T10:05:39.259Z</time>
      </trkpt>
      <trkpt lat="47.89981" lon="-4.05392">
        <ele>57</ele>
        <time>2022-12-28T10:05:43.942Z</time>
      </trkpt>
      <trkpt lat="47.89967" lon="-4.05405">
        <ele>56</ele>
        <time>2022-12-28T10:05:48.628Z</time>
      </trkpt>
      <trkpt lat="47.89951" lon="-4.0543">
        <ele>56</ele>
        <time>2022-12-28T10:05:53.318Z</time>
      </trkpt>
      <trkpt lat="47.89943" lon="-4.05446">
        <ele>55</ele>
        <time>2022-12-28T10:05:58.010Z</time>
      </trkpt>
      <trkpt lat="47.8994" lon="-4.05456">
        <ele>54</ele>
        <time>2022-12-28T10:06:02.703Z</time>
      </trkpt>
      <trkpt lat="47.8994" lon="-4.05456">
        <ele>53</ele>
        <time>2022-12-28T10:06:07.396Z</time>
      </trkpt>
      <trkpt lat="47.89939" lon="-4.05459">
        <ele>52</ele>
        <time>2022-12-28T10:06:12.090Z</time>
      </trkpt>
      <trkpt lat="47.89936" lon="-4.05478">
        <ele>52</ele>
        <time>2022-12-28T10:06:16.786Z</time>
      </trkpt>
      <trkpt lat="47.89934" lon="-4.05505">
        <ele>51</ele>
        <time>2022-12-28T10:06:21.485Z</time>
      </trkpt>
      <trkpt lat="47.89934" lon="-4.05548">
        <ele>50</ele>
        <time>2022-12-28T10:06:26.188Z</time>
      </trkpt>
      <trkpt lat="47.89849" lon="-4.05531">
        <ele>49</ele>
        <time>2022-12-28T10:06:30.905Z</time>
      </trkpt>
      <trkpt lat="47.89636" lon="-4.05521">
        <ele>48</ele>
        <time>2022-12-28T10:06:35.656Z</time>
      </trkpt>
      <trkpt lat="47.89564" lon="-4.05509">
        <ele>47</ele>
        <time>2022-12-28T10:06:40.419Z</time>
      </trkpt>
      <trkpt lat="47.89491" lon="-4.0551">
        <ele>46</ele>
        <time>2022-12-28T10:06:45.193Z</time>
      </trkpt>
      <trkpt lat="47.89462" lon="-4.05502">
        <ele>46</ele>
        <time>2022-12-28T10:06:49.972Z</time>
      </trkpt>
      <trkpt lat="47.89388" lon="-4.05496">
        <ele>45</ele>
        <time>2022-12-28T10:06:54.763Z</time>
      </trkpt>
      <trkpt lat="47.89388" lon="-4.05496">
        <ele>44</ele>
        <time>2022-12-28T10:06:59.554Z</time>
      </trkpt>
      <trkpt lat="47.89387" lon="-4.05495">
        <ele>43</ele>
        <time>2022-12-28T10:07:04.345Z</time>
      </trkpt>
      <trkpt lat="47.89387" lon="-4.05495">
        <ele>43</ele>
        <time>2022-12-28T10:07:09.136Z</time>
      </trkpt>
      <trkpt lat="47.89386" lon="-4.05495">
        <ele>42</ele>
        <time>2022-12-28T10:07:13.927Z</time>
      </trkpt>
      <trkpt lat="47.89386" lon="-4.05495">
        <ele>41</ele>
        <time>2022-12-28T10:07:18.718Z</time>
      </trkpt>
      <trkpt lat="47.89381" lon="-4.05495">
        <ele>41</ele>
        <time>2022-12-28T10:07:23.510Z</time>
      </trkpt>
      <trkpt lat="47.89381" lon="-4.05495">
        <ele>40</ele>
        <time>2022-12-28T10:07:28.302Z</time>
      </trkpt>
      <trkpt lat="47.89373" lon="-4.05494">
        <ele>40</ele>
        <time>2022-12-28T10:07:33.095Z</time>
      </trkpt>
      <trkpt lat="47.89339" lon="-4.05489">
        <ele>39</ele>
        <time>2022-12-28T10:07:37.894Z</time>
      </trkpt>
      <trkpt lat="47.89322" lon="-4.05478">
        <ele>38</ele>
        <time>2022-12-28T10:07:42.696Z</time>
      </trkpt>
      <trkpt lat="47.89296" lon="-4.05422">
        <ele>38</ele>
        <time>2022-12-28T10:07:47.505Z</time>
      </trkpt>
      <trkpt lat="47.89256" lon="-4.05328">
        <ele>37</ele>
        <time>2022-12-28T10:07:52.326Z</time>
      </trkpt>
      <trkpt lat="47.89245" lon="-4.05301">
        <ele>37</ele>
        <time>2022-12-28T10:07:57.150Z</time>
      </trkpt>
      <trkpt lat="47.89225" lon="-4.05255">
        <ele>36</ele>
        <time>2022-12-28T10:08:01.980Z</time>
      </trkpt>
      <trkpt lat="47.89221" lon="-4.05239">
        <ele>36</ele>
        <time>2022-12-28T10:08:06.812Z</time>
      </trkpt>
      <trkpt lat="47.89211" lon="-4.05206">
        <ele>36</ele>
        <time>2022-12-28T10:08:11.648Z</time>
      </trkpt>
      <trkpt lat="47.89203" lon="-4.05153">
        <ele>36</ele>
        <time>2022-12-28T10:08:16.490Z</time>
      </trkpt>
      <trkpt lat="47.89202" lon="-4.05119">
        <ele>35</ele>
        <time>2022-12-28T10:08:21.336Z</time>
      </trkpt>
      <trkpt lat="47.89204" lon="-4.051">
        <ele>35</ele>
        <time>2022-12-28T10:08:26.184Z</time>
      </trkpt>
      <trkpt lat="47.89204" lon="-4.051">
        <ele>35</ele>
        <time>2022-12-28T10:08:31.032Z</time>
      </trkpt>
      <trkpt lat="47.89209" lon="-4.05045">
        <ele>35</ele>
        <time>2022-12-28T10:08:35.886Z</time>
      </trkpt>
      <trkpt lat="47.89207" lon="-4.05031">
        <ele>35</ele>
        <time>2022-12-28T10:08:40.741Z</time>
      </trkpt>
      <trkpt lat="47.89198" lon="-4.05025">
        <ele>34</ele>
        <time>2022-12-28T10:08:45.598Z</time>
      </trkpt>
      <trkpt lat="47.89142" lon="-4.05004">
        <ele>34</ele>
        <time>2022-12-28T10:08:50.464Z</time>
      </trkpt>
      <trkpt lat="47.8905" lon="-4.04908">
        <ele>34</ele>
        <time>2022-12-28T10:08:55.348Z</time>
      </trkpt>
      <trkpt lat="47.89041" lon="-4.0491">
        <ele>34</ele>
        <time>2022-12-28T10:09:00.233Z</time>
      </trkpt>
      <trkpt lat="47.89032" lon="-4.04921">
        <ele>34</ele>
        <time>2022-12-28T10:09:05.120Z</time>
      </trkpt>
      <trkpt lat="47.88973" lon="-4.04976">
        <ele>34</ele>
        <time>2022-12-28T10:09:10.018Z</time>
      </trkpt>
      <trkpt lat="47.88939" lon="-4.05">
        <ele>34</ele>
        <time>2022-12-28T10:09:14.922Z</time>
      </trkpt>
      <trkpt lat="47.88931" lon="-4.04993">
        <ele>34</ele>
        <time>2022-12-28T10:09:19.828Z</time>
      </trkpt>
      <trkpt lat="47.88936" lon="-4.04851">
        <ele>34</ele>
        <time>2022-12-28T10:09:24.749Z</time>
      </trkpt>
      <trkpt lat="47.88835" lon="-4.05017">
        <ele>33</ele>
        <time>2022-12-28T10:09:29.694Z</time>
      </trkpt>
      <trkpt lat="47.88835" lon="-4.05017">
        <ele>33</ele>
        <time>2022-12-28T10:09:34.639Z</time>
      </trkpt>
      <trkpt lat="47.88834" lon="-4.05018">
        <ele>33</ele>
        <time>2022-12-28T10:09:39.585Z</time>
      </trkpt>
      <trkpt lat="47.88834" lon="-4.05018">
        <ele>33</ele>
        <time>2022-12-28T10:09:44.531Z</time>
      </trkpt>
      <trkpt lat="47.88833" lon="-4.05019">
        <ele>33</ele>
        <time>2022-12-28T10:09:49.477Z</time>
      </trkpt>
      <trkpt lat="47.88833" lon="-4.05019">
        <ele>33</ele>
        <time>2022-12-28T10:09:54.423Z</time>
      </trkpt>
      <trkpt lat="47.88831" lon="-4.05024">
        <ele>33</ele>
        <time>2022-12-28T10:09:59.369Z</time>
      </trkpt>
      <trkpt lat="47.88784" lon="-4.05101">
        <ele>32</ele>
        <time>2022-12-28T10:10:04.327Z</time>
      </trkpt>
      <trkpt lat="47.88664" lon="-4.05177">
        <ele>32</ele>
        <time>2022-12-28T10:10:09.306Z</time>
      </trkpt>
      <trkpt lat="47.88669" lon="-4.05196">
        <ele>32</ele>
        <time>2022-12-28T10:10:14.287Z</time>
      </trkpt>
      <trkpt lat="47.88674" lon="-4.05223">
        <ele>31</ele>
        <time>2022-12-28T10:10:19.271Z</time>
      </trkpt>
      <trkpt lat="47.88681" lon="-4.05311">
        <ele>31</ele>
        <time>2022-12-28T10:10:24.264Z</time>
      </trkpt>
      <trkpt lat="47.88681" lon="-4.0533">
        <ele>31</ele>
        <time>2022-12-28T10:10:29.259Z</time>
      </trkpt>
      <trkpt lat="47.88672" lon="-4.05425">
        <ele>31</ele>
        <time>2022-12-28T10:10:34.265Z</time>
      </trkpt>
      <trkpt lat="47.88668" lon="-4.05511">
        <ele>30</ele>
        <time>2022-12-28T10:10:39.280Z</time>
      </trkpt>
      <trkpt lat="47.88675" lon="-4.05773">
        <ele>30</ele>
        <time>2022-12-28T10:10:44.323Z</time>
      </trkpt>
      <trkpt lat="47.88683" lon="-4.0579">
        <ele>30</ele>
        <time>2022-12-28T10:10:49.368Z</time>
      </trkpt>
      <trkpt lat="47.88657" lon="-4.05859">
        <ele>29</ele>
        <time>2022-12-28T10:10:54.422Z</time>
      </trkpt>
      <trkpt lat="47.88628" lon="-4.05927">
        <ele>29</ele>
        <time>2022-12-28T10:10:59.485Z</time>
      </trkpt>
      <trkpt lat="47.88595" lon="-4.06033">
        <ele>28</ele>
        <time>2022-12-28T10:11:04.560Z</time>
      </trkpt>
      <trkpt lat="47.8857" lon="-4.0614">
        <ele>28</ele>
        <time>2022-12-28T10:11:09.647Z</time>
      </trkpt>
      <trkpt lat="47.88561" lon="-4.06174">
        <ele>28</ele>
        <time>2022-12-28T10:11:14.738Z</time>
      </trkpt>
      <trkpt lat="47.88547" lon="-4.06217">
        <ele>28</ele>
        <time>2022-12-28T10:11:19.835Z</time>
      </trkpt>
      <trkpt lat="47.88512" lon="-4.06292">
        <ele>27</ele>
        <time>2022-12-28T10:11:24.941Z</time>
      </trkpt>
      <trkpt lat="47.88474" lon="-4.06385">
        <ele>27</ele>
        <time>2022-12-28T10:11:30.059Z</time>
      </trkpt>
      <trkpt lat="47.88472" lon="-4.06415">
        <ele>27</ele>
        <time>2022-12-28T10:11:35.180Z</time>
      </trkpt>
      <trkpt lat="47.88468" lon="-4.06505">
        <ele>26</ele>
        <time>2022-12-28T10:11:40.311Z</time>
      </trkpt>
      <trkpt lat="47.8841" lon="-4.06509">
        <ele>26</ele>
        <time>2022-12-28T10:11:45.451Z</time>
      </trkpt>
      <trkpt lat="47.8839" lon="-4.06512">
        <ele>26</ele>
        <time>2022-12-28T10:11:50.595Z</time>
      </trkpt>
      <trkpt lat="47.88341" lon="-4.06519">
        <ele>25</ele>
        <time>2022-12-28T10:11:55.746Z</time>
      </trkpt>
      <trkpt lat="47.88341" lon="-4.06519">
        <ele>25</ele>
        <time>2022-12-28T10:12:00.898Z</time>
      </trkpt>
      <trkpt lat="47.88311" lon="-4.06523">
        <ele>24</ele>
        <time>2022-12-28T10:12:06.054Z</time>
      </trkpt>
      <trkpt lat="47.88297" lon="-4.06529">
        <ele>24</ele>
        <time>2022-12-28T10:12:11.213Z</time>
      </trkpt>
      <trkpt lat="47.88287" lon="-4.06534">
        <ele>23</ele>
        <time>2022-12-28T10:12:16.373Z</time>
      </trkpt>
      <trkpt lat="47.8824" lon="-4.06575">
        <ele>23</ele>
        <time>2022-12-28T10:12:21.542Z</time>
      </trkpt>
      <trkpt lat="47.88234" lon="-4.0658">
        <ele>23</ele>
        <time>2022-12-28T10:12:26.712Z</time>
      </trkpt>
      <trkpt lat="47.88234" lon="-4.06581">
        <ele>22</ele>
        <time>2022-12-28T10:12:31.882Z</time>
      </trkpt>
      <trkpt lat="47.88166" lon="-4.06645">
        <ele>22</ele>
        <time>2022-12-28T10:12:37.065Z</time>
      </trkpt>
      <trkpt lat="47.88141" lon="-4.06676">
        <ele>22</ele>
        <time>2022-12-28T10:12:42.253Z</time>
      </trkpt>
      <trkpt lat="47.88103" lon="-4.06716">
        <ele>21</ele>
        <time>2022-12-28T10:12:47.449Z</time>
      </trkpt>
      <trkpt lat="47.88062" lon="-4.06765">
        <ele>21</ele>
        <time>2022-12-28T10:12:52.653Z</time>
      </trkpt>
      <trkpt lat="47.87992" lon="-4.06833">
        <ele>21</ele>
        <time>2022-12-28T10:12:57.871Z</time>
      </trkpt>
      <trkpt lat="47.87978" lon="-4.06849">
        <ele>20</ele>
        <time>2022-12-28T10:13:03.091Z</time>
      </trkpt>
      <trkpt lat="47.87931" lon="-4.06913">
        <ele>20</ele>
        <time>2022-12-28T10:13:08.322Z</time>
      </trkpt>
      <trkpt lat="47.87868" lon="-4.06987">
        <ele>19</ele>
        <time>2022-12-28T10:13:13.565Z</time>
      </trkpt>
      <trkpt lat="47.87789" lon="-4.0706">
        <ele>19</ele>
        <time>2022-12-28T10:13:18.823Z</time>
      </trkpt>
      <trkpt lat="47.87767" lon="-4.07078">
        <ele>19</ele>
        <time>2022-12-28T10:13:24.085Z</time>
      </trkpt>
      <trkpt lat="47.87734" lon="-4.07096">
        <ele>18</ele>
        <time>2022-12-28T10:13:29.353Z</time>
      </trkpt>
      <trkpt lat="47.87734" lon="-4.07097">
        <ele>18</ele>
        <time>2022-12-28T10:13:34.621Z</time>
      </trkpt>
      <trkpt lat="47.87733" lon="-4.07097">
        <ele>18</ele>
        <time>2022-12-28T10:13:39.889Z</time>
      </trkpt>
      <trkpt lat="47.87733" lon="-4.07097">
        <ele>17</ele>
        <time>2022-12-28T10:13:45.157Z</time>
      </trkpt>
      <trkpt lat="47.87732" lon="-4.07098">
        <ele>17</ele>
        <time>2022-12-28T10:13:50.425Z</time>
      </trkpt>
      <trkpt lat="47.87732" lon="-4.07098">
        <ele>16</ele>
        <time>2022-12-28T10:13:55.693Z</time>
      </trkpt>
      <trkpt lat="47.87728" lon="-4.071">
        <ele>16</ele>
        <time>2022-12-28T10:14:00.962Z</time>
      </trkpt>
      <trkpt lat="47.87728" lon="-4.071">
        <ele>16</ele>
        <time>2022-12-28T10:14:06.231Z</time>
      </trkpt>
      <trkpt lat="47.87709" lon="-4.07111">
        <ele>15</ele>
        <time>2022-12-28T10:14:11.503Z</time>
      </trkpt>
      <trkpt lat="47.877" lon="-4.07122">
        <ele>15</ele>
        <time>2022-12-28T10:14:16.777Z</time>
      </trkpt>
      <trkpt lat="47.87702" lon="-4.07126">
        <ele>15</ele>
        <time>2022-12-28T10:14:22.052Z</time>
      </trkpt>
      <trkpt lat="47.87702" lon="-4.07137">
        <ele>14</ele>
        <time>2022-12-28T10:14:27.328Z</time>
      </trkpt>
      <trkpt lat="47.87699" lon="-4.07144">
        <ele>14</ele>
        <time>2022-12-28T10:14:32.605Z</time>
      </trkpt>
      <trkpt lat="47.87711" lon="-4.07197">
        <ele>13</ele>
        <time>2022-12-28T10:14:37.888Z</time>
      </trkpt>
      <trkpt lat="47.87711" lon="-4.07197">
        <ele>13</ele>
        <time>2022-12-28T10:14:43.171Z</time>
      </trkpt>
      <trkpt lat="47.87721" lon="-4.07245">
        <ele>13</ele>
        <time>2022-12-28T10:14:48.459Z</time>
      </trkpt>
      <trkpt lat="47.87729" lon="-4.07314">
        <ele>12</ele>
        <time>2022-12-28T10:14:53.755Z</time>
      </trkpt>
      <trkpt lat="47.87732" lon="-4.07386">
        <ele>12</ele>
        <time>2022-12-28T10:14:59.058Z</time>
      </trkpt>
      <trkpt lat="47.87732" lon="-4.07449">
        <ele>12</ele>
        <time>2022-12-28T10:15:04.368Z</time>
      </trkpt>
      <trkpt lat="47.87737" lon="-4.07516">
        <ele>11</ele>
        <time>2022-12-28T10:15:09.685Z</time>
      </trkpt>
      <trkpt lat="47.87742" lon="-4.07584">
        <ele>11</ele>
        <time>2022-12-28T10:15:15.010Z</time>
      </trkpt>
      <trkpt lat="47.87753" lon="-4.07658">
        <ele>11</ele>
        <time>2022-12-28T10:15:20.343Z</time>
      </trkpt>
      <trkpt lat="47.87758" lon="-4.07681">
        <ele>10</ele>
        <time>2022-12-28T10:15:25.679Z</time>
      </trkpt>
      <trkpt lat="47.87785" lon="-4.07784">
        <ele>10</ele>
        <time>2022-12-28T10:15:31.027Z</time>
      </trkpt>
      <trkpt lat="47.87785" lon="-4.07784">
        <ele>10</ele>
        <time>2022-12-28T10:15:36.375Z</time>
      </trkpt>
      <trkpt lat="47.87788" lon="-4.07793">
        <ele>10</ele>
        <time>2022-12-28T10:15:41.724Z</time>
      </trkpt>
      <trkpt lat="47.87788" lon="-4.07793">
        <ele>10</ele>
        <time>2022-12-28T10:15:47.073Z</time>
      </trkpt>
      <trkpt lat="47.87796" lon="-4.07829">
        <ele>10</ele>
        <time>2022-12-28T10:15:52.426Z</time>
      </trkpt>
      <trkpt lat="47.87796" lon="-4.07833">
        <ele>10</ele>
        <time>2022-12-28T10:15:57.779Z</time>
      </trkpt>
      <trkpt lat="47.87802" lon="-4.07883">
        <ele>10</ele>
        <time>2022-12-28T10:16:03.138Z</time>
      </trkpt>
      <trkpt lat="47.87803" lon="-4.07946">
        <ele>10</ele>
        <time>2022-12-28T10:16:08.503Z</time>
      </trkpt>
      <trkpt lat="47.87798" lon="-4.08022">
        <ele>10</ele>
        <time>2022-12-28T10:16:13.877Z</time>
      </trkpt>
      <trkpt lat="47.87784" lon="-4.08139">
        <ele>10</ele>
        <time>2022-12-28T10:16:19.263Z</time>
      </trkpt>
      <trkpt lat="47.87773" lon="-4.08275">
        <ele>10</ele>
        <time>2022-12-28T10:16:24.664Z</time>
      </trkpt>
      <trkpt lat="47.87767" lon="-4.08393">
        <ele>11</ele>
        <time>2022-12-28T10:16:30.078Z</time>
      </trkpt>
      <trkpt lat="47.87767" lon="-4.08449">
        <ele>11</ele>
        <time>2022-12-28T10:16:35.498Z</time>
      </trkpt>
      <trkpt lat="47.87772" lon="-4.08516">
        <ele>11</ele>
        <time>2022-12-28T10:16:40.925Z</time>
      </trkpt>
      <trkpt lat="47.87772" lon="-4.08516">
        <ele>11</ele>
        <time>2022-12-28T10:16:46.352Z</time>
      </trkpt>
      <trkpt lat="47.87776" lon="-4.0855">
        <ele>12</ele>
        <time>2022-12-28T10:16:51.783Z</time>
      </trkpt>
      <trkpt lat="47.8778" lon="-4.086">
        <ele>12</ele>
        <time>2022-12-28T10:16:57.219Z</time>
      </trkpt>
      <trkpt lat="47.8778" lon="-4.08658">
        <ele>12</ele>
        <time>2022-12-28T10:17:02.662Z</time>
      </trkpt>
      <trkpt lat="47.87779" lon="-4.08702">
        <ele>13</ele>
        <time>2022-12-28T10:17:08.109Z</time>
      </trkpt>
      <trkpt lat="47.87775" lon="-4.08732">
        <ele>13</ele>
        <time>2022-12-28T10:17:13.560Z</time>
      </trkpt>
      <trkpt lat="47.87766" lon="-4.08783">
        <ele>13</ele>
        <time>2022-12-28T10:17:19.016Z</time>
      </trkpt>
      <trkpt lat="47.8777" lon="-4.08788">
        <ele>14</ele>
        <time>2022-12-28T10:17:24.473Z</time>
      </trkpt>
      <trkpt lat="47.87771" lon="-4.0879">
        <ele>15</ele>
        <time>2022-12-28T10:17:29.931Z</time>
      </trkpt>
      <trkpt lat="47.87771" lon="-4.08797">
        <ele>15</ele>
        <time>2022-12-28T10:17:35.389Z</time>
      </trkpt>
      <trkpt lat="47.87767" lon="-4.08804">
        <ele>15</ele>
        <time>2022-12-28T10:17:40.848Z</time>
      </trkpt>
      <trkpt lat="47.87761" lon="-4.08805">
        <ele>16</ele>
        <time>2022-12-28T10:17:46.308Z</time>
      </trkpt>
      <trkpt lat="47.87729" lon="-4.08919">
        <ele>16</ele>
        <time>2022-12-28T10:17:51.781Z</time>
      </trkpt>
      <trkpt lat="47.87718" lon="-4.0896">
        <ele>17</ele>
        <time>2022-12-28T10:17:57.259Z</time>
      </trkpt>
      <trkpt lat="47.87718" lon="-4.0896">
        <ele>17</ele>
        <time>2022-12-28T10:18:02.737Z</time>
      </trkpt>
      <trkpt lat="47.87713" lon="-4.09013">
        <ele>17</ele>
        <time>2022-12-28T10:18:08.221Z</time>
      </trkpt>
      <trkpt lat="47.87713" lon="-4.09012">
        <ele>18</ele>
        <time>2022-12-28T10:18:13.705Z</time>
      </trkpt>
      <trkpt lat="47.87709" lon="-4.09046">
        <ele>18</ele>
        <time>2022-12-28T10:18:19.193Z</time>
      </trkpt>
      <trkpt lat="47.87708" lon="-4.09084">
        <ele>19</ele>
        <time>2022-12-28T10:18:24.685Z</time>
      </trkpt>
      <trkpt lat="47.87713" lon="-4.09196">
        <ele>19</ele>
        <time>2022-12-28T10:18:30.189Z</time>
      </trkpt>
      <trkpt lat="47.87714" lon="-4.0925">
        <ele>20</ele>
        <time>2022-12-28T10:18:35.699Z</time>
      </trkpt>
      <trkpt lat="47.87721" lon="-4.09372">
        <ele>20</ele>
        <time>2022-12-28T10:18:41.222Z</time>
      </trkpt>
      <trkpt lat="47.87723" lon="-4.09418">
        <ele>20</ele>
        <time>2022-12-28T10:18:46.750Z</time>
      </trkpt>
      <trkpt lat="47.87723" lon="-4.09418">
        <ele>21</ele>
        <time>2022-12-28T10:18:52.278Z</time>
      </trkpt>
      <trkpt lat="47.87725" lon="-4.09447">
        <ele>21</ele>
        <time>2022-12-28T10:18:57.809Z</time>
      </trkpt>
      <trkpt lat="47.87727" lon="-4.0947">
        <ele>22</ele>
        <time>2022-12-28T10:19:03.342Z</time>
      </trkpt>
      <trkpt lat="47.87733" lon="-4.09473">
        <ele>22</ele>
        <time>2022-12-28T10:19:08.877Z</time>
      </trkpt>
      <trkpt lat="47.87736" lon="-4.09476">
        <ele>22</ele>
        <time>2022-12-28T10:19:14.412Z</time>
      </trkpt>
      <trkpt lat="47.87738" lon="-4.09483">
        <ele>22</ele>
        <time>2022-12-28T10:19:19.948Z</time>
      </trkpt>
      <trkpt lat="47.87736" lon="-4.0949">
        <ele>23</ele>
        <time>2022-12-28T10:19:25.485Z</time>
      </trkpt>
      <trkpt lat="47.87733" lon="-4.09494">
        <ele>23</ele>
        <time>2022-12-28T10:19:31.022Z</time>
      </trkpt>
      <trkpt lat="47.87727" lon="-4.09495">
        <ele>23</ele>
        <time>2022-12-28T10:19:36.560Z</time>
      </trkpt>
      <trkpt lat="47.87727" lon="-4.09573">
        <ele>24</ele>
        <time>2022-12-28T10:19:42.107Z</time>
      </trkpt>
      <trkpt lat="47.87726" lon="-4.09643">
        <ele>24</ele>
        <time>2022-12-28T10:19:47.661Z</time>
      </trkpt>
      <trkpt lat="47.87725" lon="-4.09663">
        <ele>24</ele>
        <time>2022-12-28T10:19:53.217Z</time>
      </trkpt>
      <trkpt lat="47.87721" lon="-4.09827">
        <ele>24</ele>
        <time>2022-12-28T10:19:58.791Z</time>
      </trkpt>
      <trkpt lat="47.8772" lon="-4.09857">
        <ele>24</ele>
        <time>2022-12-28T10:20:04.368Z</time>
      </trkpt>
      <trkpt lat="47.87723" lon="-4.09897">
        <ele>24</ele>
        <time>2022-12-28T10:20:09.950Z</time>
      </trkpt>
      <trkpt lat="47.87723" lon="-4.09898">
        <ele>24</ele>
        <time>2022-12-28T10:20:15.532Z</time>
      </trkpt>
      <trkpt lat="47.87723" lon="-4.09899">
        <ele>24</ele>
        <time>2022-12-28T10:20:21.114Z</time>
      </trkpt>
      <trkpt lat="47.87723" lon="-4.09899">
        <ele>24</ele>
        <time>2022-12-28T10:20:26.696Z</time>
      </trkpt>
      <trkpt lat="47.87723" lon="-4.09901">
        <ele>24</ele>
        <time>2022-12-28T10:20:32.278Z</time>
      </trkpt>
      <trkpt lat="47.87723" lon="-4.09901">
        <ele>24</ele>
        <time>2022-12-28T10:20:37.860Z</time>
      </trkpt>
      <trkpt lat="47.87724" lon="-4.09907">
        <ele>24</ele>
        <time>2022-12-28T10:20:43.443Z</time>
      </trkpt>
      <trkpt lat="47.87726" lon="-4.09933">
        <ele>24</ele>
        <time>2022-12-28T10:20:49.029Z</time>
      </trkpt>
      <trkpt lat="47.87729" lon="-4.0998">
        <ele>24</ele>
        <time>2022-12-28T10:20:54.620Z</time>
      </trkpt>
      <trkpt lat="47.8773" lon="-4.10006">
        <ele>23</ele>
        <time>2022-12-28T10:21:00.213Z</time>
      </trkpt>
      <trkpt lat="47.87733" lon="-4.10035">
        <ele>23</ele>
        <time>2022-12-28T10:21:05.810Z</time>
      </trkpt>
      <trkpt lat="47.87739" lon="-4.10039">
        <ele>23</ele>
        <time>2022-12-28T10:21:11.408Z</time>
      </trkpt>
      <trkpt lat="47.8774" lon="-4.10043">
        <ele>22</ele>
        <time>2022-12-28T10:21:17.006Z</time>
      </trkpt>
      <trkpt lat="47.87746" lon="-4.10057">
        <ele>22</ele>
        <time>2022-12-28T10:21:22.606Z</time>
      </trkpt>
      <trkpt lat="47.87774" lon="-4.10126">
        <ele>22</ele>
        <time>2022-12-28T10:21:28.214Z</time>
      </trkpt>
      <trkpt lat="47.87802" lon="-4.10197">
        <ele>21</ele>
        <time>2022-12-28T10:21:33.831Z</time>
      </trkpt>
      <trkpt lat="47.87802" lon="-4.10197">
        <ele>21</ele>
        <time>2022-12-28T10:21:39.448Z</time>
      </trkpt>
      <trkpt lat="47.87806" lon="-4.10209">
        <ele>21</ele>
        <time>2022-12-28T10:21:45.067Z</time>
      </trkpt>
      <trkpt lat="47.87826" lon="-4.10248">
        <ele>20</ele>
        <time>2022-12-28T10:21:50.691Z</time>
      </trkpt>
      <trkpt lat="47.87834" lon="-4.10268">
        <ele>20</ele>
        <time>2022-12-28T10:21:56.318Z</time>
      </trkpt>
      <trkpt lat="47.87844" lon="-4.10312">
        <ele>19</ele>
        <time>2022-12-28T10:22:01.950Z</time>
      </trkpt>
      <trkpt lat="47.87865" lon="-4.10395">
        <ele>18</ele>
        <time>2022-12-28T10:22:07.591Z</time>
      </trkpt>
      <trkpt lat="47.87868" lon="-4.10406">
        <ele>18</ele>
        <time>2022-12-28T10:22:13.233Z</time>
      </trkpt>
      <trkpt lat="47.87897" lon="-4.10525">
        <ele>17</ele>
        <time>2022-12-28T10:22:18.889Z</time>
      </trkpt>
      <trkpt lat="47.87912" lon="-4.10577">
        <ele>16</ele>
        <time>2022-12-28T10:22:24.551Z</time>
      </trkpt>
      <trkpt lat="47.87936" lon="-4.10616">
        <ele>15</ele>
        <time>2022-12-28T10:22:30.219Z</time>
      </trkpt>
      <trkpt lat="47.87943" lon="-4.10615">
        <ele>15</ele>
        <time>2022-12-28T10:22:35.888Z</time>
      </trkpt>
      <trkpt lat="47.87944" lon="-4.10615">
        <ele>14</ele>
        <time>2022-12-28T10:22:41.557Z</time>
      </trkpt>
      <trkpt lat="47.87944" lon="-4.10615">
        <ele>13</ele>
        <time>2022-12-28T10:22:47.226Z</time>
      </trkpt>
      <trkpt lat="47.87947" lon="-4.10615">
        <ele>13</ele>
        <time>2022-12-28T10:22:52.896Z</time>
      </trkpt>
      <trkpt lat="47.87954" lon="-4.10621">
        <ele>12</ele>
        <time>2022-12-28T10:22:58.567Z</time>
      </trkpt>
      <trkpt lat="47.87964" lon="-4.10616">
        <ele>12</ele>
        <time>2022-12-28T10:23:04.240Z</time>
      </trkpt>
      <trkpt lat="47.87968" lon="-4.10632">
        <ele>11</ele>
        <time>2022-12-28T10:23:09.914Z</time>
      </trkpt>
      <trkpt lat="47.87972" lon="-4.10638">
        <ele>11</ele>
        <time>2022-12-28T10:23:15.589Z</time>
      </trkpt>
      <trkpt lat="47.87978" lon="-4.10638">
        <ele>10</ele>
        <time>2022-12-28T10:23:21.265Z</time>
      </trkpt>
      <trkpt lat="47.87997" lon="-4.10624">
        <ele>9</ele>
        <time>2022-12-28T10:23:26.945Z</time>
      </trkpt>
      <trkpt lat="47.88023" lon="-4.10588">
        <ele>9</ele>
        <time>2022-12-28T10:23:32.630Z</time>
      </trkpt>
      <trkpt lat="47.88044" lon="-4.10574">
        <ele>9</ele>
        <time>2022-12-28T10:23:38.319Z</time>
      </trkpt>
      <trkpt lat="47.88059" lon="-4.10589">
        <ele>8</ele>
        <time>2022-12-28T10:23:44.011Z</time>
      </trkpt>
      <trkpt lat="47.88059" lon="-4.10589">
        <ele>8</ele>
        <time>2022-12-28T10:23:49.703Z</time>
      </trkpt>
      <trkpt lat="47.88066" lon="-4.10592">
        <ele>7</ele>
        <time>2022-12-28T10:23:55.396Z</time>
      </trkpt>
      <trkpt lat="47.88078" lon="-4.10598">
        <ele>7</ele>
        <time>2022-12-28T10:24:01.091Z</time>
      </trkpt>
      <trkpt lat="47.88079" lon="-4.1056">
        <ele>6</ele>
        <time>2022-12-28T10:24:06.790Z</time>
      </trkpt>
      <trkpt lat="47.88083" lon="-4.10552">
        <ele>6</ele>
        <time>2022-12-28T10:24:12.490Z</time>
      </trkpt>
      <trkpt lat="47.88086" lon="-4.10545">
        <ele>6</ele>
        <time>2022-12-28T10:24:18.191Z</time>
      </trkpt>
      <trkpt lat="47.8809" lon="-4.10548">
        <ele>5</ele>
        <time>2022-12-28T10:24:23.893Z</time>
      </trkpt>
      <trkpt lat="47.8809" lon="-4.10548">
        <ele>5</ele>
        <time>2022-12-28T10:24:29.595Z</time>
      </trkpt>
      <trkpt lat="47.88108" lon="-4.10558">
        <ele>5</ele>
        <time>2022-12-28T10:24:35.300Z</time>
      </trkpt>
      <trkpt lat="47.88126" lon="-4.10572">
        <ele>5</ele>
        <time>2022-12-28T10:24:41.008Z</time>
      </trkpt>
      <trkpt lat="47.88151" lon="-4.10601">
        <ele>4</ele>
        <time>2022-12-28T10:24:46.721Z</time>
      </trkpt>
      <trkpt lat="47.88159" lon="-4.10614">
        <ele>4</ele>
        <time>2022-12-28T10:24:52.436Z</time>
      </trkpt>
      <trkpt lat="47.8816" lon="-4.10614">
        <ele>4</ele>
        <time>2022-12-28T10:24:58.151Z</time>
      </trkpt>
      <trkpt lat="47.8816" lon="-4.10615">
        <ele>4</ele>
        <time>2022-12-28T10:25:03.866Z</time>
      </trkpt>
      <trkpt lat="47.8816" lon="-4.10615">
        <ele>3</ele>
        <time>2022-12-28T10:25:09.581Z</time>
      </trkpt>
      <trkpt lat="47.88161" lon="-4.10616">
        <ele>3</ele>
        <time>2022-12-28T10:25:15.296Z</time>
      </trkpt>
      <trkpt lat="47.88161" lon="-4.10616">
        <ele>3</ele>
        <time>2022-12-28T10:25:21.011Z</time>
      </trkpt>
      <trkpt lat="47.88164" lon="-4.10621">
        <ele>3</ele>
        <time>2022-12-28T10:25:26.727Z</time>
      </trkpt>
      <trkpt lat="47.88164" lon="-4.10621">
        <ele>3</ele>
        <time>2022-12-28T10:25:32.443Z</time>
      </trkpt>
      <trkpt lat="47.88178" lon="-4.1064">
        <ele>3</ele>
        <time>2022-12-28T10:25:38.162Z</time>
      </trkpt>
      <trkpt lat="47.88184" lon="-4.10645">
        <ele>2</ele>
        <time>2022-12-28T10:25:43.882Z</time>
      </trkpt>
      <trkpt lat="47.88239" lon="-4.10743">
        <ele>2</ele>
        <time>2022-12-28T10:25:49.616Z</time>
      </trkpt>
      <trkpt lat="47.88263" lon="-4.10773">
        <ele>2</ele>
        <time>2022-12-28T10:25:55.355Z</time>
      </trkpt>
      <trkpt lat="47.88287" lon="-4.10818">
        <ele>2</ele>
        <time>2022-12-28T10:26:01.100Z</time>
      </trkpt>
      <trkpt lat="47.88291" lon="-4.10832">
        <ele>2</ele>
        <time>2022-12-28T10:26:06.847Z</time>
      </trkpt>
      <trkpt lat="47.88296" lon="-4.10857">
        <ele>2</ele>
        <time>2022-12-28T10:26:12.597Z</time>
      </trkpt>
      <trkpt lat="47.883" lon="-4.10866">
        <ele>2</ele>
        <time>2022-12-28T10:26:18.348Z</time>
      </trkpt>
      <trkpt lat="47.88306" lon="-4.10867">
        <ele>2</ele>
        <time>2022-12-28T10:26:24.100Z</time>
      </trkpt>
      <trkpt lat="47.88325" lon="-4.10886">
        <ele>2</ele>
        <time>2022-12-28T10:26:29.855Z</time>
      </trkpt>
      <trkpt lat="47.88349" lon="-4.10931">
        <ele>2</ele>
        <time>2022-12-28T10:26:35.617Z</time>
      </trkpt>
      <trkpt lat="47.8836" lon="-4.10952">
        <ele>3</ele>
        <time>2022-12-28T10:26:41.382Z</time>
      </trkpt>
      <trkpt lat="47.88354" lon="-4.10972">
        <ele>3</ele>
        <time>2022-12-28T10:26:47.149Z</time>
      </trkpt>
      <trkpt lat="47.88354" lon="-4.10972">
        <ele>3</ele>
        <time>2022-12-28T10:26:52.916Z</time>
      </trkpt>
      <trkpt lat="47.88354" lon="-4.10973">
        <ele>3</ele>
        <time>2022-12-28T10:26:58.683Z</time>
      </trkpt>
      <trkpt lat="47.88354" lon="-4.10973">
        <ele>3</ele>
        <time>2022-12-28T10:27:04.450Z</time>
      </trkpt>
      <trkpt lat="47.88354" lon="-4.10973">
        <ele>3</ele>
        <time>2022-12-28T10:27:10.217Z</time>
      </trkpt>
      <trkpt lat="47.88353" lon="-4.10975">
        <ele>3</ele>
        <time>2022-12-28T10:27:15.984Z</time>
      </trkpt>
      <trkpt lat="47.88353" lon="-4.10975">
        <ele>3</ele>
        <time>2022-12-28T10:27:21.751Z</time>
      </trkpt>
      <trkpt lat="47.88351" lon="-4.10981">
        <ele>3</ele>
        <time>2022-12-28T10:27:27.519Z</time>
      </trkpt>
      <trkpt lat="47.88354" lon="-4.10973">
        <ele>3</ele>
        <time>2022-12-28T10:27:33.288Z</time>
      </trkpt>
      <trkpt lat="47.88351" lon="-4.10981">
        <ele>3</ele>
        <time>2022-12-28T10:27:39.058Z</time>
      </trkpt>
      <trkpt lat="47.88339" lon="-4.10999">
        <ele>4</ele>
        <time>2022-12-28T10:27:44.831Z</time>
      </trkpt>
      <trkpt lat="47.88335" lon="-4.11014">
        <ele>4</ele>
        <time>2022-12-28T10:27:50.605Z</time>
      </trkpt>
      <trkpt lat="47.8834" lon="-4.11053">
        <ele>4</ele>
        <time>2022-12-28T10:27:56.384Z</time>
      </trkpt>
      <trkpt lat="47.88346" lon="-4.11071">
        <ele>4</ele>
        <time>2022-12-28T10:28:02.165Z</time>
      </trkpt>
      <trkpt lat="47.88363" lon="-4.11081">
        <ele>4</ele>
        <time>2022-12-28T10:28:07.949Z</time>
      </trkpt>
      <trkpt lat="47.88392" lon="-4.11088">
        <ele>4</ele>
        <time>2022-12-28T10:28:13.737Z</time>
      </trkpt>
      <trkpt lat="47.88392" lon="-4.11088">
        <ele>4</ele>
        <time>2022-12-28T10:28:19.525Z</time>
      </trkpt>
      <trkpt lat="47.88404" lon="-4.11091">
        <ele>4</ele>
        <time>2022-12-28T10:28:25.315Z</time>
      </trkpt>
      <trkpt lat="47.88432" lon="-4.11107">
        <ele>4</ele>
        <time>2022-12-28T10:28:31.110Z</time>
      </trkpt>
      <trkpt lat="47.88444" lon="-4.11119">
        <ele>4</ele>
        <time>2022-12-28T10:28:36.908Z</time>
      </trkpt>
      <trkpt lat="47.88483" lon="-4.11186">
        <ele>5</ele>
        <time>2022-12-28T10:28:42.715Z</time>
      </trkpt>
      <trkpt lat="47.88477" lon="-4.1119">
        <ele>5</ele>
        <time>2022-12-28T10:28:48.523Z</time>
      </trkpt>
      <trkpt lat="47.88472" lon="-4.112">
        <ele>5</ele>
        <time>2022-12-28T10:28:54.333Z</time>
      </trkpt>
      <trkpt lat="47.88471" lon="-4.11201">
        <ele>5</ele>
        <time>2022-12-28T10:29:00.143Z</time>
      </trkpt>
      <trkpt lat="47.88462" lon="-4.11231">
        <ele>5</ele>
        <time>2022-12-28T10:29:05.956Z</time>
      </trkpt>
      <trkpt lat="47.88459" lon="-4.11245">
        <ele>5</ele>
        <time>2022-12-28T10:29:11.771Z</time>
      </trkpt>
      <trkpt lat="47.8846" lon="-4.1127">
        <ele>5</ele>
        <time>2022-12-28T10:29:17.589Z</time>
      </trkpt>
      <trkpt lat="47.88505" lon="-4.1132">
        <ele>5</ele>
        <time>2022-12-28T10:29:23.416Z</time>
      </trkpt>
      <trkpt lat="47.88522" lon="-4.11338">
        <ele>5</ele>
        <time>2022-12-28T10:29:29.246Z</time>
      </trkpt>
      <trkpt lat="47.88533" lon="-4.11346">
        <ele>6</ele>
        <time>2022-12-28T10:29:35.078Z</time>
      </trkpt>
      <trkpt lat="47.88533" lon="-4.11346">
        <ele>6</ele>
        <time>2022-12-28T10:29:40.910Z</time>
      </trkpt>
      <trkpt lat="47.88538" lon="-4.11354">
        <ele>6</ele>
        <time>2022-12-28T10:29:46.743Z</time>
      </trkpt>
      <trkpt lat="47.88538" lon="-4.11364">
        <ele>6</ele>
        <time>2022-12-28T10:29:52.577Z</time>
      </trkpt>
      <trkpt lat="47.88528" lon="-4.11379">
        <ele>6</ele>
        <time>2022-12-28T10:29:58.413Z</time>
      </trkpt>
      <trkpt lat="47.88528" lon="-4.11379">
        <ele>6</ele>
        <time>2022-12-28T10:30:04.249Z</time>
      </trkpt>
      <trkpt lat="47.88525" lon="-4.11383">
        <ele>6</ele>
        <time>2022-12-28T10:30:10.086Z</time>
      </trkpt>
      <trkpt lat="47.88527" lon="-4.11397">
        <ele>6</ele>
        <time>2022-12-28T10:30:15.925Z</time>
      </trkpt>
      <trkpt lat="47.88534" lon="-4.11411">
        <ele>6</ele>
        <time>2022-12-28T10:30:21.765Z</time>
      </trkpt>
      <trkpt lat="47.88535" lon="-4.11422">
        <ele>6</ele>
        <time>2022-12-28T10:30:27.607Z</time>
      </trkpt>
      <trkpt lat="47.88534" lon="-4.11428">
        <ele>6</ele>
        <time>2022-12-28T10:30:33.449Z</time>
      </trkpt>
      <trkpt lat="47.88524" lon="-4.11457">
        <ele>6</ele>
        <time>2022-12-28T10:30:39.295Z</time>
      </trkpt>
      <trkpt lat="47.88526" lon="-4.11499">
        <ele>6</ele>
        <time>2022-12-28T10:30:45.145Z</time>
      </trkpt>
      <trkpt lat="47.88517" lon="-4.11516">
        <ele>6</ele>
        <time>2022-12-28T10:30:50.998Z</time>
      </trkpt>
      <trkpt lat="47.88503" lon="-4.11527">
        <ele>6</ele>
        <time>2022-12-28T10:30:56.853Z</time>
      </trkpt>
      <trkpt lat="47.8849" lon="-4.11534">
        <ele>6</ele>
        <time>2022-12-28T10:31:02.710Z</time>
      </trkpt>
      <trkpt lat="47.88468" lon="-4.11583">
        <ele>7</ele>
        <time>2022-12-28T10:31:08.574Z</time>
      </trkpt>
      <trkpt lat="47.88467" lon="-4.11593">
        <ele>7</ele>
        <time>2022-12-28T10:31:14.439Z</time>
      </trkpt>
      <trkpt lat="47.88472" lon="-4.11618">
        <ele>7</ele>
        <time>2022-12-28T10:31:20.307Z</time>
      </trkpt>
      <trkpt lat="47.88466" lon="-4.11633">
        <ele>7</ele>
        <time>2022-12-28T10:31:26.177Z</time>
      </trkpt>
      <trkpt lat="47.88473" lon="-4.11652">
        <ele>7</ele>
        <time>2022-12-28T10:31:32.049Z</time>
      </trkpt>
      <trkpt lat="47.88475" lon="-4.11664">
        <ele>7</ele>
        <time>2022-12-28T10:31:37.922Z</time>
      </trkpt>
      <trkpt lat="47.88502" lon="-4.11714">
        <ele>8</ele>
        <time>2022-12-28T10:31:43.802Z</time>
      </trkpt>
      <trkpt lat="47.88522" lon="-4.11763">
        <ele>8</ele>
        <time>2022-12-28T10:31:49.688Z</time>
      </trkpt>
      <trkpt lat="47.88522" lon="-4.11764">
        <ele>8</ele>
        <time>2022-12-28T10:31:55.574Z</time>
      </trkpt>
      <trkpt lat="47.88522" lon="-4.11765">
        <ele>8</ele>
        <time>2022-12-28T10:32:01.460Z</time>
      </trkpt>
      <trkpt lat="47.88522" lon="-4.11765">
        <ele>8</ele>
        <time>2022-12-28T10:32:07.346Z</time>
      </trkpt>
      <trkpt lat="47.88523" lon="-4.11766">
        <ele>9</ele>
        <time>2022-12-28T10:32:13.233Z</time>
      </trkpt>
      <trkpt lat="47.88523" lon="-4.11766">
        <ele>9</ele>
        <time>2022-12-28T10:32:19.120Z</time>
      </trkpt>
      <trkpt lat="47.88528" lon="-4.11779">
        <ele>9</ele>
        <time>2022-12-28T10:32:25.008Z</time>
      </trkpt>
      <trkpt lat="47.88528" lon="-4.11779">
        <ele>10</ele>
        <time>2022-12-28T10:32:30.896Z</time>
      </trkpt>
      <trkpt lat="47.88532" lon="-4.11788">
        <ele>10</ele>
        <time>2022-12-28T10:32:36.785Z</time>
      </trkpt>
      <trkpt lat="47.88548" lon="-4.1182">
        <ele>10</ele>
        <time>2022-12-28T10:32:42.679Z</time>
      </trkpt>
      <trkpt lat="47.88548" lon="-4.1182">
        <ele>11</ele>
        <time>2022-12-28T10:32:48.573Z</time>
      </trkpt>
      <trkpt lat="47.88562" lon="-4.1184">
        <ele>12</ele>
        <time>2022-12-28T10:32:54.470Z</time>
      </trkpt>
      <trkpt lat="47.88577" lon="-4.11853">
        <ele>12</ele>
        <time>2022-12-28T10:33:00.370Z</time>
      </trkpt>
      <trkpt lat="47.88584" lon="-4.11871">
        <ele>12</ele>
        <time>2022-12-28T10:33:06.272Z</time>
      </trkpt>
      <trkpt lat="47.88593" lon="-4.11877">
        <ele>13</ele>
        <time>2022-12-28T10:33:12.175Z</time>
      </trkpt>
      <trkpt lat="47.88593" lon="-4.11877">
        <ele>13</ele>
        <time>2022-12-28T10:33:18.078Z</time>
      </trkpt>
      <trkpt lat="47.88629" lon="-4.11867">
        <ele>14</ele>
        <time>2022-12-28T10:33:23.987Z</time>
      </trkpt>
      <trkpt lat="47.88675" lon="-4.11832">
        <ele>14</ele>
        <time>2022-12-28T10:33:29.905Z</time>
      </trkpt>
      <trkpt lat="47.88679" lon="-4.11845">
        <ele>14</ele>
        <time>2022-12-28T10:33:35.824Z</time>
      </trkpt>
      <trkpt lat="47.88684" lon="-4.11853">
        <ele>15</ele>
        <time>2022-12-28T10:33:41.744Z</time>
      </trkpt>
      <trkpt lat="47.88684" lon="-4.11853">
        <ele>15</ele>
        <time>2022-12-28T10:33:47.664Z</time>
      </trkpt>
      <trkpt lat="47.88686" lon="-4.11855">
        <ele>15</ele>
        <time>2022-12-28T10:33:53.585Z</time>
      </trkpt>
      <trkpt lat="47.88694" lon="-4.1184">
        <ele>15</ele>
        <time>2022-12-28T10:33:59.508Z</time>
      </trkpt>
      <trkpt lat="47.887" lon="-4.11835">
        <ele>16</ele>
        <time>2022-12-28T10:34:05.432Z</time>
      </trkpt>
      <trkpt lat="47.88707" lon="-4.11831">
        <ele>16</ele>
        <time>2022-12-28T10:34:11.357Z</time>
      </trkpt>
      <trkpt lat="47.88712" lon="-4.11804">
        <ele>16</ele>
        <time>2022-12-28T10:34:17.285Z</time>
      </trkpt>
      <trkpt lat="47.88716" lon="-4.11756">
        <ele>16</ele>
        <time>2022-12-28T10:34:23.218Z</time>
      </trkpt>
      <trkpt lat="47.88716" lon="-4.11747">
        <ele>16</ele>
        <time>2022-12-28T10:34:29.152Z</time>
      </trkpt>
      <trkpt lat="47.88716" lon="-4.11747">
        <ele>16</ele>
        <time>2022-12-28T10:34:35.086Z</time>
      </trkpt>
      <trkpt lat="47.88716" lon="-4.11745">
        <ele>16</ele>
        <time>2022-12-28T10:34:41.020Z</time>
      </trkpt>
      <trkpt lat="47.88716" lon="-4.11745">
        <ele>16</ele>
        <time>2022-12-28T10:34:46.954Z</time>
      </trkpt>
      <trkpt lat="47.88716" lon="-4.11744">
        <ele>16</ele>
        <time>2022-12-28T10:34:52.889Z</time>
      </trkpt>
      <trkpt lat="47.88716" lon="-4.11744">
        <ele>16</ele>
        <time>2022-12-28T10:34:58.824Z</time>
      </trkpt>
      <trkpt lat="47.88715" lon="-4.11731">
        <ele>16</ele>
        <time>2022-12-28T10:35:04.760Z</time>
      </trkpt>
      <trkpt lat="47.88714" lon="-4.11728">
        <ele>16</ele>
        <time>2022-12-28T10:35:10.696Z</time>
      </trkpt>
      <trkpt lat="47.88714" lon="-4.11728">
        <ele>16</ele>
        <time>2022-12-28T10:35:16.632Z</time>
      </trkpt>
      <trkpt lat="47.88699" lon="-4.11681">
        <ele>16</ele>
        <time>2022-12-28T10:35:22.574Z</time>
      </trkpt>
      <trkpt lat="47.88699" lon="-4.11731">
        <ele>16</ele>
        <time>2022-12-28T10:35:28.521Z</time>
      </trkpt>
      <trkpt lat="47.88695" lon="-4.11785">
        <ele>16</ele>
        <time>2022-12-28T10:35:34.474Z</time>
      </trkpt>
      <trkpt lat="47.88694" lon="-4.11791">
        <ele>15</ele>
        <time>2022-12-28T10:35:40.428Z</time>
      </trkpt>
      <trkpt lat="47.88692" lon="-4.11818">
        <ele>15</ele>
        <time>2022-12-28T10:35:46.385Z</time>
      </trkpt>
      <trkpt lat="47.8869" lon="-4.1182">
        <ele>15</ele>
        <time>2022-12-28T10:35:52.342Z</time>
      </trkpt>
      <trkpt lat="47.88681" lon="-4.11867">
        <ele>15</ele>
        <time>2022-12-28T10:35:58.304Z</time>
      </trkpt>
      <trkpt lat="47.88666" lon="-4.11909">
        <ele>15</ele>
        <time>2022-12-28T10:36:04.272Z</time>
      </trkpt>
      <trkpt lat="47.88645" lon="-4.11954">
        <ele>14</ele>
        <time>2022-12-28T10:36:10.245Z</time>
      </trkpt>
      <trkpt lat="47.88616" lon="-4.12006">
        <ele>14</ele>
        <time>2022-12-28T10:36:16.226Z</time>
      </trkpt>
      <trkpt lat="47.88616" lon="-4.12006">
        <ele>14</ele>
        <time>2022-12-28T10:36:22.207Z</time>
      </trkpt>
      <trkpt lat="47.88614" lon="-4.12009">
        <ele>14</ele>
        <time>2022-12-28T10:36:28.188Z</time>
      </trkpt>
      <trkpt lat="47.8845" lon="-4.12249">
        <ele>14</ele>
        <time>2022-12-28T10:36:34.206Z</time>
      </trkpt>
      <trkpt lat="47.8845" lon="-4.1225">
        <ele>14</ele>
        <time>2022-12-28T10:36:40.224Z</time>
      </trkpt>
      <trkpt lat="47.88449" lon="-4.12251">
        <ele>14</ele>
        <time>2022-12-28T10:36:46.242Z</time>
      </trkpt>
      <trkpt lat="47.88449" lon="-4.12251">
        <ele>14</ele>
        <time>2022-12-28T10:36:52.260Z</time>
      </trkpt>
      <trkpt lat="47.88448" lon="-4.12252">
        <ele>14</ele>
        <time>2022-12-28T10:36:58.278Z</time>
      </trkpt>
      <trkpt lat="47.88448" lon="-4.12252">
        <ele>14</ele>
        <time>2022-12-28T10:37:04.296Z</time>
      </trkpt>
      <trkpt lat="47.88441" lon="-4.12263">
        <ele>15</ele>
        <time>2022-12-28T10:37:10.316Z</time>
      </trkpt>
      <trkpt lat="47.88422" lon="-4.1229">
        <ele>15</ele>
        <time>2022-12-28T10:37:16.340Z</time>
      </trkpt>
      <trkpt lat="47.88374" lon="-4.12364">
        <ele>16</ele>
        <time>2022-12-28T10:37:22.375Z</time>
      </trkpt>
      <trkpt lat="47.88339" lon="-4.12418">
        <ele>17</ele>
        <time>2022-12-28T10:37:28.418Z</time>
      </trkpt>
      <trkpt lat="47.88289" lon="-4.12488">
        <ele>17</ele>
        <time>2022-12-28T10:37:34.472Z</time>
      </trkpt>
      <trkpt lat="47.88279" lon="-4.12502">
        <ele>17</ele>
        <time>2022-12-28T10:37:40.529Z</time>
      </trkpt>
      <trkpt lat="47.88286" lon="-4.12502">
        <ele>18</ele>
        <time>2022-12-28T10:37:46.587Z</time>
      </trkpt>
      <trkpt lat="47.88306" lon="-4.12494">
        <ele>18</ele>
        <time>2022-12-28T10:37:52.648Z</time>
      </trkpt>
      <trkpt lat="47.88311" lon="-4.12491">
        <ele>18</ele>
        <time>2022-12-28T10:37:58.710Z</time>
      </trkpt>
      <trkpt lat="47.88311" lon="-4.12491">
        <ele>19</ele>
        <time>2022-12-28T10:38:04.772Z</time>
      </trkpt>
      <trkpt lat="47.88318" lon="-4.12486">
        <ele>19</ele>
        <time>2022-12-28T10:38:10.835Z</time>
      </trkpt>
      <trkpt lat="47.88318" lon="-4.12486">
        <ele>19</ele>
        <time>2022-12-28T10:38:16.898Z</time>
      </trkpt>
      <trkpt lat="47.88332" lon="-4.12468">
        <ele>20</ele>
        <time>2022-12-28T10:38:22.964Z</time>
      </trkpt>
      <trkpt lat="47.88348" lon="-4.12441">
        <ele>20</ele>
        <time>2022-12-28T10:38:29.034Z</time>
      </trkpt>
      <trkpt lat="47.88377" lon="-4.12483">
        <ele>20</ele>
        <time>2022-12-28T10:38:35.111Z</time>
      </trkpt>
      <trkpt lat="47.88377" lon="-4.12483">
        <ele>21</ele>
        <time>2022-12-28T10:38:41.188Z</time>
      </trkpt>
      <trkpt lat="47.88384" lon="-4.12495">
        <ele>21</ele>
        <time>2022-12-28T10:38:47.266Z</time>
      </trkpt>
      <trkpt lat="47.88384" lon="-4.12496">
        <ele>21</ele>
        <time>2022-12-28T10:38:53.344Z</time>
      </trkpt>
      <trkpt lat="47.88385" lon="-4.12497">
        <ele>22</ele>
        <time>2022-12-28T10:38:59.423Z</time>
      </trkpt>
      <trkpt lat="47.88385" lon="-4.12497">
        <ele>22</ele>
        <time>2022-12-28T10:39:05.502Z</time>
      </trkpt>
      <trkpt lat="47.88385" lon="-4.12497">
        <ele>22</ele>
        <time>2022-12-28T10:39:11.581Z</time>
      </trkpt>
      <trkpt lat="47.88385" lon="-4.12497">
        <ele>23</ele>
        <time>2022-12-28T10:39:17.660Z</time>
      </trkpt>
      <trkpt lat="47.88385" lon="-4.12498">
        <ele>23</ele>
        <time>2022-12-28T10:39:23.739Z</time>
      </trkpt>
      <trkpt lat="47.88385" lon="-4.12497">
        <ele>23</ele>
        <time>2022-12-28T10:39:29.818Z</time>
      </trkpt>
      <trkpt lat="47.88385" lon="-4.12498">
        <ele>23</ele>
        <time>2022-12-28T10:39:35.897Z</time>
      </trkpt>
      <trkpt lat="47.88386" lon="-4.12498">
        <ele>23</ele>
        <time>2022-12-28T10:39:41.976Z</time>
      </trkpt>
      <trkpt lat="47.88392" lon="-4.1251">
        <ele>23</ele>
        <time>2022-12-28T10:39:48.057Z</time>
      </trkpt>
      <trkpt lat="47.88392" lon="-4.1251">
        <ele>23</ele>
        <time>2022-12-28T10:39:54.138Z</time>
      </trkpt>
      <trkpt lat="47.88393" lon="-4.12512">
        <ele>23</ele>
        <time>2022-12-28T10:40:00.219Z</time>
      </trkpt>
      <trkpt lat="47.88439" lon="-4.12573">
        <ele>23</ele>
        <time>2022-12-28T10:40:06.310Z</time>
      </trkpt>
      <trkpt lat="47.88464" lon="-4.1261">
        <ele>23</ele>
        <time>2022-12-28T10:40:12.407Z</time>
      </trkpt>
      <trkpt lat="47.88521" lon="-4.12698">
        <ele>22</ele>
        <time>2022-12-28T10:40:18.517Z</time>
      </trkpt>
      <trkpt lat="47.88554" lon="-4.12758">
        <ele>22</ele>
        <time>2022-12-28T10:40:24.635Z</time>
      </trkpt>
      <trkpt lat="47.88579" lon="-4.12808">
        <ele>22</ele>
        <time>2022-12-28T10:40:30.760Z</time>
      </trkpt>
      <trkpt lat="47.88598" lon="-4.12848">
        <ele>21</ele>
        <time>2022-12-28T10:40:36.890Z</time>
      </trkpt>
      <trkpt lat="47.88647" lon="-4.12901">
        <ele>21</ele>
        <time>2022-12-28T10:40:43.030Z</time>
      </trkpt>
      <trkpt lat="47.88685" lon="-4.12958">
        <ele>21</ele>
        <time>2022-12-28T10:40:49.178Z</time>
      </trkpt>
      <trkpt lat="47.88687" lon="-4.12961">
        <ele>21</ele>
        <time>2022-12-28T10:40:55.327Z</time>
      </trkpt>
      <trkpt lat="47.88698" lon="-4.12982">
        <ele>20</ele>
        <time>2022-12-28T10:41:01.479Z</time>
      </trkpt>
      <trkpt lat="47.88698" lon="-4.12982">
        <ele>20</ele>
        <time>2022-12-28T10:41:07.631Z</time>
      </trkpt>
      <trkpt lat="47.88699" lon="-4.12984">
        <ele>19</ele>
        <time>2022-12-28T10:41:13.783Z</time>
      </trkpt>
      <trkpt lat="47.88696" lon="-4.1306">
        <ele>19</ele>
        <time>2022-12-28T10:41:19.943Z</time>
      </trkpt>
      <trkpt lat="47.88696" lon="-4.13061">
        <ele>19</ele>
        <time>2022-12-28T10:41:26.103Z</time>
      </trkpt>
      <trkpt lat="47.88696" lon="-4.13061">
        <ele>18</ele>
        <time>2022-12-28T10:41:32.263Z</time>
      </trkpt>
      <trkpt lat="47.88696" lon="-4.13061">
        <ele>18</ele>
        <time>2022-12-28T10:41:38.423Z</time>
      </trkpt>
      <trkpt lat="47.88696" lon="-4.13062">
        <ele>18</ele>
        <time>2022-12-28T10:41:44.583Z</time>
      </trkpt>
      <trkpt lat="47.88696" lon="-4.13063">
        <ele>17</ele>
        <time>2022-12-28T10:41:50.744Z</time>
      </trkpt>
      <trkpt lat="47.88696" lon="-4.13063">
        <ele>17</ele>
        <time>2022-12-28T10:41:56.905Z</time>
      </trkpt>
      <trkpt lat="47.88699" lon="-4.13078">
        <ele>16</ele>
        <time>2022-12-28T10:42:03.067Z</time>
      </trkpt>
      <trkpt lat="47.88699" lon="-4.13078">
        <ele>16</ele>
        <time>2022-12-28T10:42:09.229Z</time>
      </trkpt>
      <trkpt lat="47.88701" lon="-4.13095">
        <ele>16</ele>
        <time>2022-12-28T10:42:15.393Z</time>
      </trkpt>
      <trkpt lat="47.88706" lon="-4.13122">
        <ele>15</ele>
        <time>2022-12-28T10:42:21.560Z</time>
      </trkpt>
      <trkpt lat="47.88694" lon="-4.13143">
        <ele>15</ele>
        <time>2022-12-28T10:42:27.730Z</time>
      </trkpt>
      <trkpt lat="47.88689" lon="-4.13157">
        <ele>15</ele>
        <time>2022-12-28T10:42:33.902Z</time>
      </trkpt>
      <trkpt lat="47.88693" lon="-4.1317">
        <ele>14</ele>
        <time>2022-12-28T10:42:40.075Z</time>
      </trkpt>
      <trkpt lat="47.88697" lon="-4.13181">
        <ele>14</ele>
        <time>2022-12-28T10:42:46.250Z</time>
      </trkpt>
      <trkpt lat="47.88699" lon="-4.13186">
        <ele>14</ele>
        <time>2022-12-28T10:42:52.425Z</time>
      </trkpt>
      <trkpt lat="47.88702" lon="-4.13186">
        <ele>14</ele>
        <time>2022-12-28T10:42:58.601Z</time>
      </trkpt>
      <trkpt lat="47.88702" lon="-4.13186">
        <ele>13</ele>
        <time>2022-12-28T10:43:04.777Z</time>
      </trkpt>
      <trkpt lat="47.88732" lon="-4.13191">
        <ele>13</ele>
        <time>2022-12-28T10:43:10.958Z</time>
      </trkpt>
      <trkpt lat="47.88755" lon="-4.13196">
        <ele>13</ele>
        <time>2022-12-28T10:43:17.142Z</time>
      </trkpt>
      <trkpt lat="47.88774" lon="-4.1321">
        <ele>13</ele>
        <time>2022-12-28T10:43:23.330Z</time>
      </trkpt>
      <trkpt lat="47.88798" lon="-4.1322">
        <ele>13</ele>
        <time>2022-12-28T10:43:29.522Z</time>
      </trkpt>
      <trkpt lat="47.88809" lon="-4.13202">
        <ele>12</ele>
        <time>2022-12-28T10:43:35.716Z</time>
      </trkpt>
      <trkpt lat="47.88821" lon="-4.13154">
        <ele>12</ele>
        <time>2022-12-28T10:43:41.916Z</time>
      </trkpt>
      <trkpt lat="47.88833" lon="-4.13128">
        <ele>12</ele>
        <time>2022-12-28T10:43:48.119Z</time>
      </trkpt>
      <trkpt lat="47.8884" lon="-4.131">
        <ele>12</ele>
        <time>2022-12-28T10:43:54.325Z</time>
      </trkpt>
      <trkpt lat="47.88863" lon="-4.13063">
        <ele>12</ele>
        <time>2022-12-28T10:44:00.537Z</time>
      </trkpt>
      <trkpt lat="47.88872" lon="-4.1305">
        <ele>12</ele>
        <time>2022-12-28T10:44:06.751Z</time>
      </trkpt>
      <trkpt lat="47.88892" lon="-4.13028">
        <ele>12</ele>
        <time>2022-12-28T10:44:12.969Z</time>
      </trkpt>
      <trkpt lat="47.88912" lon="-4.13027">
        <ele>12</ele>
        <time>2022-12-28T10:44:19.190Z</time>
      </trkpt>
      <trkpt lat="47.88942" lon="-4.13034">
        <ele>12</ele>
        <time>2022-12-28T10:44:25.416Z</time>
      </trkpt>
      <trkpt lat="47.88977" lon="-4.13086">
        <ele>12</ele>
        <time>2022-12-28T10:44:31.650Z</time>
      </trkpt>
      <trkpt lat="47.88984" lon="-4.13131">
        <ele>12</ele>
        <time>2022-12-28T10:44:37.889Z</time>
      </trkpt>
      <trkpt lat="47.88984" lon="-4.13131">
        <ele>12</ele>
        <time>2022-12-28T10:44:44.128Z</time>
      </trkpt>
      <trkpt lat="47.88984" lon="-4.13133">
        <ele>13</ele>
        <time>2022-12-28T10:44:50.367Z</time>
      </trkpt>
      <trkpt lat="47.89008" lon="-4.13185">
        <ele>13</ele>
        <time>2022-12-28T10:44:56.613Z</time>
      </trkpt>
      <trkpt lat="47.89023" lon="-4.13212">
        <ele>13</ele>
        <time>2022-12-28T10:45:02.862Z</time>
      </trkpt>
      <trkpt lat="47.89023" lon="-4.13213">
        <ele>13</ele>
        <time>2022-12-28T10:45:09.111Z</time>
      </trkpt>
      <trkpt lat="47.89024" lon="-4.13214">
        <ele>13</ele>
        <time>2022-12-28T10:45:15.361Z</time>
      </trkpt>
      <trkpt lat="47.89024" lon="-4.13214">
        <ele>13</ele>
        <time>2022-12-28T10:45:21.611Z</time>
      </trkpt>
      <trkpt lat="47.89024" lon="-4.13215">
        <ele>14</ele>
        <time>2022-12-28T10:45:27.861Z</time>
      </trkpt>
      <trkpt lat="47.89024" lon="-4.13215">
        <ele>14</ele>
        <time>2022-12-28T10:45:34.111Z</time>
      </trkpt>
      <trkpt lat="47.89026" lon="-4.13219">
        <ele>14</ele>
        <time>2022-12-28T10:45:40.361Z</time>
      </trkpt>
      <trkpt lat="47.89026" lon="-4.1323">
        <ele>14</ele>
        <time>2022-12-28T10:45:46.612Z</time>
      </trkpt>
      <trkpt lat="47.89026" lon="-4.1323">
        <ele>14</ele>
        <time>2022-12-28T10:45:52.863Z</time>
      </trkpt>
      <trkpt lat="47.89026" lon="-4.13245">
        <ele>15</ele>
        <time>2022-12-28T10:45:59.116Z</time>
      </trkpt>
      <trkpt lat="47.89037" lon="-4.13273">
        <ele>15</ele>
        <time>2022-12-28T10:46:05.373Z</time>
      </trkpt>
      <trkpt lat="47.89047" lon="-4.13309">
        <ele>15</ele>
        <time>2022-12-28T10:46:11.634Z</time>
      </trkpt>
      <trkpt lat="47.89047" lon="-4.13309">
        <ele>15</ele>
        <time>2022-12-28T10:46:17.895Z</time>
      </trkpt>
      <trkpt lat="47.89046" lon="-4.13352">
        <ele>15</ele>
        <time>2022-12-28T10:46:24.160Z</time>
      </trkpt>
      <trkpt lat="47.89041" lon="-4.13398">
        <ele>16</ele>
        <time>2022-12-28T10:46:30.430Z</time>
      </trkpt>
      <trkpt lat="47.89042" lon="-4.13423">
        <ele>16</ele>
        <time>2022-12-28T10:46:36.703Z</time>
      </trkpt>
      <trkpt lat="47.89043" lon="-4.13426">
        <ele>16</ele>
        <time>2022-12-28T10:46:42.976Z</time>
      </trkpt>
      <trkpt lat="47.89043" lon="-4.13427">
        <ele>16</ele>
        <time>2022-12-28T10:46:49.250Z</time>
      </trkpt>
      <trkpt lat="47.89044" lon="-4.13427">
        <ele>16</ele>
        <time>2022-12-28T10:46:55.524Z</time>
      </trkpt>
      <trkpt lat="47.89044" lon="-4.13428">
        <ele>16</ele>
        <time>2022-12-28T10:47:01.798Z</time>
      </trkpt>
      <trkpt lat="47.89044" lon="-4.13429">
        <ele>16</ele>
        <time>2022-12-28T10:47:08.072Z</time>
      </trkpt>
      <trkpt lat="47.89044" lon="-4.13429">
        <ele>16</ele>
        <time>2022-12-28T10:47:14.346Z</time>
      </trkpt>
      <trkpt lat="47.89048" lon="-4.13441">
        <ele>16</ele>
        <time>2022-12-28T10:47:20.621Z</time>
      </trkpt>
      <trkpt lat="47.89048" lon="-4.13444">
        <ele>16</ele>
        <time>2022-12-28T10:47:26.896Z</time>
      </trkpt>
      <trkpt lat="47.89048" lon="-4.13444">
        <ele>16</ele>
        <time>2022-12-28T10:47:33.172Z</time>
      </trkpt>
      <trkpt lat="47.8905" lon="-4.13453">
        <ele>15</ele>
        <time>2022-12-28T10:47:39.449Z</time>
      </trkpt>
      <trkpt lat="47.89054" lon="-4.13459">
        <ele>15</ele>
        <time>2022-12-28T10:47:45.727Z</time>
      </trkpt>
      <trkpt lat="47.89064" lon="-4.13455">
        <ele>15</ele>
        <time>2022-12-28T10:47:52.006Z</time>
      </trkpt>
      <trkpt lat="47.89064" lon="-4.13455">
        <ele>15</ele>
        <time>2022-12-28T10:47:58.285Z</time>
      </trkpt>
      <trkpt lat="47.89072" lon="-4.13423">
        <ele>15</ele>
        <time>2022-12-28T10:48:04.568Z</time>
      </trkpt>
      <trkpt lat="47.89087" lon="-4.13382">
        <ele>14</ele>
        <time>2022-12-28T10:48:10.856Z</time>
      </trkpt>
      <trkpt lat="47.891" lon="-4.13369">
        <ele>14</ele>
        <time>2022-12-28T10:48:17.146Z</time>
      </trkpt>
      <trkpt lat="47.891" lon="-4.13369">
        <ele>14</ele>
        <time>2022-12-28T10:48:23.436Z</time>
      </trkpt>
      <trkpt lat="47.89123" lon="-4.13377">
        <ele>14</ele>
        <time>2022-12-28T10:48:29.730Z</time>
      </trkpt>
      <trkpt lat="47.89141" lon="-4.13395">
        <ele>14</ele>
        <time>2022-12-28T10:48:36.028Z</time>
      </trkpt>
      <trkpt lat="47.89158" lon="-4.13423">
        <ele>13</ele>
        <time>2022-12-28T10:48:42.330Z</time>
      </trkpt>
      <trkpt lat="47.89161" lon="-4.13434">
        <ele>13</ele>
        <time>2022-12-28T10:48:48.633Z</time>
      </trkpt>
      <trkpt lat="47.89168" lon="-4.13461">
        <ele>13</ele>
        <time>2022-12-28T10:48:54.939Z</time>
      </trkpt>
      <trkpt lat="47.89197" lon="-4.13559">
        <ele>13</ele>
        <time>2022-12-28T10:49:01.257Z</time>
      </trkpt>
      <trkpt lat="47.89208" lon="-4.13612">
        <ele>12</ele>
        <time>2022-12-28T10:49:07.580Z</time>
      </trkpt>
      <trkpt lat="47.89228" lon="-4.13654">
        <ele>12</ele>
        <time>2022-12-28T10:49:13.909Z</time>
      </trkpt>
      <trkpt lat="47.89233" lon="-4.13654">
        <ele>12</ele>
        <time>2022-12-28T10:49:20.239Z</time>
      </trkpt>
      <trkpt lat="47.89233" lon="-4.13654">
        <ele>12</ele>
        <time>2022-12-28T10:49:26.569Z</time>
      </trkpt>
      <trkpt lat="47.8924" lon="-4.13654">
        <ele>12</ele>
        <time>2022-12-28T10:49:32.900Z</time>
      </trkpt>
      <trkpt lat="47.89272" lon="-4.13667">
        <ele>12</ele>
        <time>2022-12-28T10:49:39.236Z</time>
      </trkpt>
      <trkpt lat="47.89273" lon="-4.13667">
        <ele>11</ele>
        <time>2022-12-28T10:49:45.572Z</time>
      </trkpt>
      <trkpt lat="47.89273" lon="-4.13668">
        <ele>11</ele>
        <time>2022-12-28T10:49:51.909Z</time>
      </trkpt>
      <trkpt lat="47.89273" lon="-4.13668">
        <ele>11</ele>
        <time>2022-12-28T10:49:58.246Z</time>
      </trkpt>
      <trkpt lat="47.89274" lon="-4.13668">
        <ele>11</ele>
        <time>2022-12-28T10:50:04.583Z</time>
      </trkpt>
      <trkpt lat="47.89274" lon="-4.13668">
        <ele>11</ele>
        <time>2022-12-28T10:50:10.920Z</time>
      </trkpt>
      <trkpt lat="47.89283" lon="-4.13672">
        <ele>11</ele>
        <time>2022-12-28T10:50:17.258Z</time>
      </trkpt>
      <trkpt lat="47.89285" lon="-4.13673">
        <ele>11</ele>
        <time>2022-12-28T10:50:23.596Z</time>
      </trkpt>
      <trkpt lat="47.89285" lon="-4.13673">
        <ele>11</ele>
        <time>2022-12-28T10:50:29.934Z</time>
      </trkpt>
      <trkpt lat="47.89306" lon="-4.13684">
        <ele>11</ele>
        <time>2022-12-28T10:50:36.276Z</time>
      </trkpt>
      <trkpt lat="47.89331" lon="-4.13699">
        <ele>11</ele>
        <time>2022-12-28T10:50:42.622Z</time>
      </trkpt>
      <trkpt lat="47.89359" lon="-4.13742">
        <ele>11</ele>
        <time>2022-12-28T10:50:48.975Z</time>
      </trkpt>
      <trkpt lat="47.89377" lon="-4.13778">
        <ele>11</ele>
        <time>2022-12-28T10:50:55.333Z</time>
      </trkpt>
      <trkpt lat="47.89404" lon="-4.13819">
        <ele>11</ele>
        <time>2022-12-28T10:51:01.697Z</time>
      </trkpt>
      <trkpt lat="47.8943" lon="-4.13842">
        <ele>12</ele>
        <time>2022-12-28T10:51:08.066Z</time>
      </trkpt>
      <trkpt lat="47.89457" lon="-4.13863">
        <ele>12</ele>
        <time>2022-12-28T10:51:14.439Z</time>
      </trkpt>
      <trkpt lat="47.89458" lon="-4.13865">
        <ele>12</ele>
        <time>2022-12-28T10:51:20.813Z</time>
      </trkpt>
      <trkpt lat="47.89487" lon="-4.13899">
        <ele>12</ele>
        <time>2022-12-28T10:51:27.193Z</time>
      </trkpt>
      <trkpt lat="47.89501" lon="-4.1394">
        <ele>12</ele>
        <time>2022-12-28T10:51:33.578Z</time>
      </trkpt>
      <trkpt lat="47.89511" lon="-4.13975">
        <ele>12</ele>
        <time>2022-12-28T10:51:39.967Z</time>
      </trkpt>
      <trkpt lat="47.89547" lon="-4.14066">
        <ele>12</ele>
        <time>2022-12-28T10:51:46.367Z</time>
      </trkpt>
      <trkpt lat="47.89548" lon="-4.14071">
        <ele>13</ele>
        <time>2022-12-28T10:51:52.768Z</time>
      </trkpt>
      <trkpt lat="47.89548" lon="-4.14071">
        <ele>13</ele>
        <time>2022-12-28T10:51:59.169Z</time>
      </trkpt>
      <trkpt lat="47.89548" lon="-4.14071">
        <ele>13</ele>
        <time>2022-12-28T10:52:05.570Z</time>
      </trkpt>
      <trkpt lat="47.89551" lon="-4.14085">
        <ele>13</ele>
        <time>2022-12-28T10:52:11.972Z</time>
      </trkpt>
      <trkpt lat="47.89547" lon="-4.14146">
        <ele>13</ele>
        <time>2022-12-28T10:52:18.381Z</time>
      </trkpt>
      <trkpt lat="47.89541" lon="-4.14165">
        <ele>13</ele>
        <time>2022-12-28T10:52:24.792Z</time>
      </trkpt>
      <trkpt lat="47.89537" lon="-4.14191">
        <ele>13</ele>
        <time>2022-12-28T10:52:31.206Z</time>
      </trkpt>
      <trkpt lat="47.8952" lon="-4.14199">
        <ele>13</ele>
        <time>2022-12-28T10:52:37.623Z</time>
      </trkpt>
      <trkpt lat="47.89496" lon="-4.14193">
        <ele>14</ele>
        <time>2022-12-28T10:52:44.044Z</time>
      </trkpt>
      <trkpt lat="47.89464" lon="-4.14174">
        <ele>14</ele>
        <time>2022-12-28T10:52:50.470Z</time>
      </trkpt>
      <trkpt lat="47.89456" lon="-4.1417">
        <ele>14</ele>
        <time>2022-12-28T10:52:56.898Z</time>
      </trkpt>
      <trkpt lat="47.89456" lon="-4.1417">
        <ele>14</ele>
        <time>2022-12-28T10:53:03.326Z</time>
      </trkpt>
      <trkpt lat="47.89456" lon="-4.1417">
        <ele>14</ele>
        <time>2022-12-28T10:53:09.754Z</time>
      </trkpt>
      <trkpt lat="47.89456" lon="-4.1417">
        <ele>15</ele>
        <time>2022-12-28T10:53:16.182Z</time>
      </trkpt>
      <trkpt lat="47.89455" lon="-4.1417">
        <ele>15</ele>
        <time>2022-12-28T10:53:22.610Z</time>
      </trkpt>
      <trkpt lat="47.89455" lon="-4.1417">
        <ele>15</ele>
        <time>2022-12-28T10:53:29.038Z</time>
      </trkpt>
      <trkpt lat="47.89454" lon="-4.14169">
        <ele>15</ele>
        <time>2022-12-28T10:53:35.466Z</time>
      </trkpt>
      <trkpt lat="47.89454" lon="-4.14169">
        <ele>15</ele>
        <time>2022-12-28T10:53:41.894Z</time>
      </trkpt>
      <trkpt lat="47.89444" lon="-4.14165">
        <ele>16</ele>
        <time>2022-12-28T10:53:48.324Z</time>
      </trkpt>
      <trkpt lat="47.8938" lon="-4.14135">
        <ele>16</ele>
        <time>2022-12-28T10:53:54.764Z</time>
      </trkpt>
      <trkpt lat="47.89339" lon="-4.14082">
        <ele>16</ele>
        <time>2022-12-28T10:54:01.213Z</time>
      </trkpt>
      <trkpt lat="47.89317" lon="-4.14072">
        <ele>16</ele>
        <time>2022-12-28T10:54:07.666Z</time>
      </trkpt>
      <trkpt lat="47.89293" lon="-4.14074">
        <ele>16</ele>
        <time>2022-12-28T10:54:14.122Z</time>
      </trkpt>
      <trkpt lat="47.89267" lon="-4.14088">
        <ele>17</ele>
        <time>2022-12-28T10:54:20.583Z</time>
      </trkpt>
      <trkpt lat="47.89239" lon="-4.14115">
        <ele>17</ele>
        <time>2022-12-28T10:54:27.049Z</time>
      </trkpt>
      <trkpt lat="47.89219" lon="-4.14152">
        <ele>17</ele>
        <time>2022-12-28T10:54:33.520Z</time>
      </trkpt>
      <trkpt lat="47.89202" lon="-4.14163">
        <ele>17</ele>
        <time>2022-12-28T10:54:39.994Z</time>
      </trkpt>
      <trkpt lat="47.89182" lon="-4.14176">
        <ele>18</ele>
        <time>2022-12-28T10:54:46.472Z</time>
      </trkpt>
      <trkpt lat="47.89171" lon="-4.1419">
        <ele>18</ele>
        <time>2022-12-28T10:54:52.952Z</time>
      </trkpt>
      <trkpt lat="47.89158" lon="-4.14219">
        <ele>18</ele>
        <time>2022-12-28T10:54:59.436Z</time>
      </trkpt>
      <trkpt lat="47.89143" lon="-4.14235">
        <ele>18</ele>
        <time>2022-12-28T10:55:05.923Z</time>
      </trkpt>
      <trkpt lat="47.89121" lon="-4.1424">
        <ele>18</ele>
        <time>2022-12-28T10:55:12.414Z</time>
      </trkpt>
      <trkpt lat="47.8909" lon="-4.14243">
        <ele>18</ele>
        <time>2022-12-28T10:55:18.910Z</time>
      </trkpt>
      <trkpt lat="47.89081" lon="-4.14258">
        <ele>19</ele>
        <time>2022-12-28T10:55:25.408Z</time>
      </trkpt>
      <trkpt lat="47.89079" lon="-4.14263">
        <ele>19</ele>
        <time>2022-12-28T10:55:31.906Z</time>
      </trkpt>
      <trkpt lat="47.89079" lon="-4.14264">
        <ele>19</ele>
        <time>2022-12-28T10:55:38.404Z</time>
      </trkpt>
      <trkpt lat="47.89078" lon="-4.14265">
        <ele>19</ele>
        <time>2022-12-28T10:55:44.903Z</time>
      </trkpt>
      <trkpt lat="47.89078" lon="-4.14265">
        <ele>19</ele>
        <time>2022-12-28T10:55:51.402Z</time>
      </trkpt>
      <trkpt lat="47.89078" lon="-4.14266">
        <ele>19</ele>
        <time>2022-12-28T10:55:57.901Z</time>
      </trkpt>
      <trkpt lat="47.89078" lon="-4.14266">
        <ele>19</ele>
        <time>2022-12-28T10:56:04.400Z</time>
      </trkpt>
      <trkpt lat="47.89073" lon="-4.1428">
        <ele>20</ele>
        <time>2022-12-28T10:56:10.900Z</time>
      </trkpt>
      <trkpt lat="47.89073" lon="-4.1428">
        <ele>20</ele>
        <time>2022-12-28T10:56:17.400Z</time>
      </trkpt>
      <trkpt lat="47.89071" lon="-4.14287">
        <ele>20</ele>
        <time>2022-12-28T10:56:23.901Z</time>
      </trkpt>
      <trkpt lat="47.89071" lon="-4.14287">
        <ele>20</ele>
        <time>2022-12-28T10:56:30.402Z</time>
      </trkpt>
      <trkpt lat="47.89071" lon="-4.14287">
        <ele>20</ele>
        <time>2022-12-28T10:56:36.903Z</time>
      </trkpt>
      <trkpt lat="47.8907" lon="-4.1429">
        <ele>20</ele>
        <time>2022-12-28T10:56:43.405Z</time>
      </trkpt>
      <trkpt lat="47.89074" lon="-4.14305">
        <ele>20</ele>
        <time>2022-12-28T10:56:49.908Z</time>
      </trkpt>
      <trkpt lat="47.89077" lon="-4.14312">
        <ele>20</ele>
        <time>2022-12-28T10:56:56.412Z</time>
      </trkpt>
      <trkpt lat="47.89093" lon="-4.14323">
        <ele>21</ele>
        <time>2022-12-28T10:57:02.919Z</time>
      </trkpt>
      <trkpt lat="47.89109" lon="-4.14327">
        <ele>21</ele>
        <time>2022-12-28T10:57:09.429Z</time>
      </trkpt>
      <trkpt lat="47.89127" lon="-4.14337">
        <ele>21</ele>
        <time>2022-12-28T10:57:15.942Z</time>
      </trkpt>
      <trkpt lat="47.89135" lon="-4.14356">
        <ele>21</ele>
        <time>2022-12-28T10:57:22.457Z</time>
      </trkpt>
      <trkpt lat="47.89135" lon="-4.14356">
        <ele>21</ele>
        <time>2022-12-28T10:57:28.972Z</time>
      </trkpt>
      <trkpt lat="47.89131" lon="-4.14375">
        <ele>21</ele>
        <time>2022-12-28T10:57:35.489Z</time>
      </trkpt>
      <trkpt lat="47.89124" lon="-4.14398">
        <ele>21</ele>
        <time>2022-12-28T10:57:42.009Z</time>
      </trkpt>
      <trkpt lat="47.89114" lon="-4.14413">
        <ele>21</ele>
        <time>2022-12-28T10:57:48.531Z</time>
      </trkpt>
      <trkpt lat="47.89109" lon="-4.14445">
        <ele>22</ele>
        <time>2022-12-28T10:57:55.057Z</time>
      </trkpt>
      <trkpt lat="47.89019" lon="-4.14429">
        <ele>22</ele>
        <time>2022-12-28T10:58:01.597Z</time>
      </trkpt>
      <trkpt lat="47.89019" lon="-4.14429">
        <ele>22</ele>
        <time>2022-12-28T10:58:08.137Z</time>
      </trkpt>
      <trkpt lat="47.88879" lon="-4.14403">
        <ele>22</ele>
        <time>2022-12-28T10:58:14.700Z</time>
      </trkpt>
      <trkpt lat="47.8886" lon="-4.14409">
        <ele>22</ele>
        <time>2022-12-28T10:58:21.266Z</time>
      </trkpt>
      <trkpt lat="47.88833" lon="-4.14414">
        <ele>22</ele>
        <time>2022-12-28T10:58:27.836Z</time>
      </trkpt>
      <trkpt lat="47.88817" lon="-4.14415">
        <ele>22</ele>
        <time>2022-12-28T10:58:34.409Z</time>
      </trkpt>
      <trkpt lat="47.88804" lon="-4.14414">
        <ele>22</ele>
        <time>2022-12-28T10:58:40.984Z</time>
      </trkpt>
      <trkpt lat="47.88772" lon="-4.14411">
        <ele>23</ele>
        <time>2022-12-28T10:58:47.564Z</time>
      </trkpt>
      <trkpt lat="47.8876" lon="-4.14405">
        <ele>23</ele>
        <time>2022-12-28T10:58:54.146Z</time>
      </trkpt>
      <trkpt lat="47.88727" lon="-4.14396">
        <ele>23</ele>
        <time>2022-12-28T10:59:00.734Z</time>
      </trkpt>
      <trkpt lat="47.88721" lon="-4.14398">
        <ele>23</ele>
        <time>2022-12-28T10:59:07.323Z</time>
      </trkpt>
      <trkpt lat="47.887" lon="-4.14438">
        <ele>23</ele>
        <time>2022-12-28T10:59:13.917Z</time>
      </trkpt>
      <trkpt lat="47.88683" lon="-4.14446">
        <ele>23</ele>
        <time>2022-12-28T10:59:20.514Z</time>
      </trkpt>
      <trkpt lat="47.88659" lon="-4.14458">
        <ele>23</ele>
        <time>2022-12-28T10:59:27.115Z</time>
      </trkpt>
      <trkpt lat="47.88654" lon="-4.14462">
        <ele>24</ele>
        <time>2022-12-28T10:59:33.717Z</time>
      </trkpt>
      <trkpt lat="47.88653" lon="-4.14462">
        <ele>24</ele>
        <time>2022-12-28T10:59:40.319Z</time>
      </trkpt>
      <trkpt lat="47.88656" lon="-4.14472">
        <ele>24</ele>
        <time>2022-12-28T10:59:46.922Z</time>
      </trkpt>
      <trkpt lat="47.88653" lon="-4.14462">
        <ele>24</ele>
        <time>2022-12-28T10:59:53.526Z</time>
      </trkpt>
      <trkpt lat="47.8863" lon="-4.14478">
        <ele>24</ele>
        <time>2022-12-28T11:00:00.134Z</time>
      </trkpt>
      <trkpt lat="47.88626" lon="-4.14482">
        <ele>24</ele>
        <time>2022-12-28T11:00:06.743Z</time>
      </trkpt>
      <trkpt lat="47.88619" lon="-4.14508">
        <ele>25</ele>
        <time>2022-12-28T11:00:13.355Z</time>
      </trkpt>
      <trkpt lat="47.88619" lon="-4.14517">
        <ele>25</ele>
        <time>2022-12-28T11:00:19.968Z</time>
      </trkpt>
      <trkpt lat="47.88624" lon="-4.14525">
        <ele>25</ele>
        <time>2022-12-28T11:00:26.582Z</time>
      </trkpt>
      <trkpt lat="47.88665" lon="-4.14537">
        <ele>25</ele>
        <time>2022-12-28T11:00:33.203Z</time>
      </trkpt>
      <trkpt lat="47.88688" lon="-4.1454">
        <ele>25</ele>
        <time>2022-12-28T11:00:39.828Z</time>
      </trkpt>
      <trkpt lat="47.88695" lon="-4.14545">
        <ele>26</ele>
        <time>2022-12-28T11:00:46.454Z</time>
      </trkpt>
      <trkpt lat="47.88703" lon="-4.14558">
        <ele>26</ele>
        <time>2022-12-28T11:00:53.082Z</time>
      </trkpt>
      <trkpt lat="47.88703" lon="-4.14558">
        <ele>26</ele>
        <time>2022-12-28T11:00:59.710Z</time>
      </trkpt>
      <trkpt lat="47.88725" lon="-4.14603">
        <ele>26</ele>
        <time>2022-12-28T11:01:06.344Z</time>
      </trkpt>
      <trkpt lat="47.88737" lon="-4.14643">
        <ele>27</ele>
        <time>2022-12-28T11:01:12.983Z</time>
      </trkpt>
      <trkpt lat="47.88741" lon="-4.14671">
        <ele>27</ele>
        <time>2022-12-28T11:01:19.625Z</time>
      </trkpt>
      <trkpt lat="47.88753" lon="-4.14792">
        <ele>27</ele>
        <time>2022-12-28T11:01:26.280Z</time>
      </trkpt>
      <trkpt lat="47.88753" lon="-4.14801">
        <ele>28</ele>
        <time>2022-12-28T11:01:32.936Z</time>
      </trkpt>
      <trkpt lat="47.88754" lon="-4.14803">
        <ele>28</ele>
        <time>2022-12-28T11:01:39.592Z</time>
      </trkpt>
      <trkpt lat="47.88753" lon="-4.14803">
        <ele>28</ele>
        <time>2022-12-28T11:01:46.248Z</time>
      </trkpt>
      <trkpt lat="47.88757" lon="-4.14877">
        <ele>29</ele>
        <time>2022-12-28T11:01:52.912Z</time>
      </trkpt>
      <trkpt lat="47.88755" lon="-4.14884">
        <ele>29</ele>
        <time>2022-12-28T11:01:59.577Z</time>
      </trkpt>
      <trkpt lat="47.88752" lon="-4.14891">
        <ele>29</ele>
        <time>2022-12-28T11:02:06.243Z</time>
      </trkpt>
      <trkpt lat="47.88747" lon="-4.14894">
        <ele>30</ele>
        <time>2022-12-28T11:02:12.910Z</time>
      </trkpt>
      <trkpt lat="47.88717" lon="-4.1489">
        <ele>30</ele>
        <time>2022-12-28T11:02:19.582Z</time>
      </trkpt>
      <trkpt lat="47.88699" lon="-4.14892">
        <ele>30</ele>
        <time>2022-12-28T11:02:26.256Z</time>
      </trkpt>
      <trkpt lat="47.88701" lon="-4.14914">
        <ele>30</ele>
        <time>2022-12-28T11:02:32.933Z</time>
      </trkpt>
      <trkpt lat="47.88701" lon="-4.14935">
        <ele>31</ele>
        <time>2022-12-28T11:02:39.612Z</time>
      </trkpt>
      <trkpt lat="47.88697" lon="-4.14957">
        <ele>31</ele>
        <time>2022-12-28T11:02:46.294Z</time>
      </trkpt>
      <trkpt lat="47.88691" lon="-4.14963">
        <ele>31</ele>
        <time>2022-12-28T11:02:52.977Z</time>
      </trkpt>
      <trkpt lat="47.8869" lon="-4.14964">
        <ele>32</ele>
        <time>2022-12-28T11:02:59.660Z</time>
      </trkpt>
      <trkpt lat="47.88683" lon="-4.14966">
        <ele>32</ele>
        <time>2022-12-28T11:03:06.344Z</time>
      </trkpt>
      <trkpt lat="47.88669" lon="-4.1497">
        <ele>32</ele>
        <time>2022-12-28T11:03:13.030Z</time>
      </trkpt>
      <trkpt lat="47.88665" lon="-4.14974">
        <ele>33</ele>
        <time>2022-12-28T11:03:19.717Z</time>
      </trkpt>
      <trkpt lat="47.88662" lon="-4.14981">
        <ele>33</ele>
        <time>2022-12-28T11:03:26.405Z</time>
      </trkpt>
      <trkpt lat="47.88659" lon="-4.14989">
        <ele>33</ele>
        <time>2022-12-28T11:03:33.094Z</time>
      </trkpt>
      <trkpt lat="47.88659" lon="-4.1502">
        <ele>34</ele>
        <time>2022-12-28T11:03:39.786Z</time>
      </trkpt>
      <trkpt lat="47.88658" lon="-4.15028">
        <ele>34</ele>
        <time>2022-12-28T11:03:46.479Z</time>
      </trkpt>
      <trkpt lat="47.88657" lon="-4.1503">
        <ele>35</ele>
        <time>2022-12-28T11:03:53.173Z</time>
      </trkpt>
      <trkpt lat="47.88647" lon="-4.1506">
        <ele>35</ele>
        <time>2022-12-28T11:03:59.870Z</time>
      </trkpt>
      <trkpt lat="47.88636" lon="-4.15087">
        <ele>35</ele>
        <time>2022-12-28T11:04:06.571Z</time>
      </trkpt>
      <trkpt lat="47.88636" lon="-4.15088">
        <ele>35</ele>
        <time>2022-12-28T11:04:13.272Z</time>
      </trkpt>
      <trkpt lat="47.88636" lon="-4.15089">
        <ele>36</ele>
        <time>2022-12-28T11:04:19.973Z</time>
      </trkpt>
      <trkpt lat="47.88636" lon="-4.15089">
        <ele>36</ele>
        <time>2022-12-28T11:04:26.674Z</time>
      </trkpt>
      <trkpt lat="47.88635" lon="-4.1509">
        <ele>36</ele>
        <time>2022-12-28T11:04:33.375Z</time>
      </trkpt>
      <trkpt lat="47.88635" lon="-4.15091">
        <ele>36</ele>
        <time>2022-12-28T11:04:40.076Z</time>
      </trkpt>
      <trkpt lat="47.8863" lon="-4.15104">
        <ele>36</ele>
        <time>2022-12-28T11:04:46.779Z</time>
      </trkpt>
      <trkpt lat="47.8863" lon="-4.15104">
        <ele>36</ele>
        <time>2022-12-28T11:04:53.482Z</time>
      </trkpt>
      <trkpt lat="47.88625" lon="-4.15118">
        <ele>37</ele>
        <time>2022-12-28T11:05:00.186Z</time>
      </trkpt>
      <trkpt lat="47.88628" lon="-4.15129">
        <ele>37</ele>
        <time>2022-12-28T11:05:06.892Z</time>
      </trkpt>
      <trkpt lat="47.8863" lon="-4.1518">
        <ele>37</ele>
        <time>2022-12-28T11:05:13.603Z</time>
      </trkpt>
      <trkpt lat="47.88634" lon="-4.15203">
        <ele>37</ele>
        <time>2022-12-28T11:05:20.317Z</time>
      </trkpt>
      <trkpt lat="47.88644" lon="-4.15248">
        <ele>37</ele>
        <time>2022-12-28T11:05:27.036Z</time>
      </trkpt>
      <trkpt lat="47.88646" lon="-4.1526">
        <ele>37</ele>
        <time>2022-12-28T11:05:33.756Z</time>
      </trkpt>
      <trkpt lat="47.88649" lon="-4.15272">
        <ele>37</ele>
        <time>2022-12-28T11:05:40.478Z</time>
      </trkpt>
      <trkpt lat="47.88658" lon="-4.15314">
        <ele>37</ele>
        <time>2022-12-28T11:05:47.204Z</time>
      </trkpt>
      <trkpt lat="47.88658" lon="-4.15326">
        <ele>37</ele>
        <time>2022-12-28T11:05:53.932Z</time>
      </trkpt>
      <trkpt lat="47.88666" lon="-4.15341">
        <ele>37</ele>
        <time>2022-12-28T11:06:00.662Z</time>
      </trkpt>
      <trkpt lat="47.88671" lon="-4.15363">
        <ele>37</ele>
        <time>2022-12-28T11:06:07.394Z</time>
      </trkpt>
      <trkpt lat="47.88683" lon="-4.1542">
        <ele>37</ele>
        <time>2022-12-28T11:06:14.132Z</time>
      </trkpt>
      <trkpt lat="47.88687" lon="-4.15427">
        <ele>37</ele>
        <time>2022-12-28T11:06:20.872Z</time>
      </trkpt>
      <trkpt lat="47.88692" lon="-4.15435">
        <ele>37</ele>
        <time>2022-12-28T11:06:27.613Z</time>
      </trkpt>
      <trkpt lat="47.88696" lon="-4.15437">
        <ele>37</ele>
        <time>2022-12-28T11:06:34.354Z</time>
      </trkpt>
      <trkpt lat="47.88698" lon="-4.15442">
        <ele>37</ele>
        <time>2022-12-28T11:06:41.096Z</time>
      </trkpt>
      <trkpt lat="47.88706" lon="-4.15439">
        <ele>37</ele>
        <time>2022-12-28T11:06:47.839Z</time>
      </trkpt>
      <trkpt lat="47.88712" lon="-4.15437">
        <ele>37</ele>
        <time>2022-12-28T11:06:54.583Z</time>
      </trkpt>
      <trkpt lat="47.88721" lon="-4.15436">
        <ele>37</ele>
        <time>2022-12-28T11:07:01.329Z</time>
      </trkpt>
      <trkpt lat="47.88729" lon="-4.15435">
        <ele>37</ele>
        <time>2022-12-28T11:07:08.076Z</time>
      </trkpt>
      <trkpt lat="47.88729" lon="-4.15435">
        <ele>37</ele>
        <time>2022-12-28T11:07:14.823Z</time>
      </trkpt>
      <trkpt lat="47.88745" lon="-4.15433">
        <ele>37</ele>
        <time>2022-12-28T11:07:21.573Z</time>
      </trkpt>
      <trkpt lat="47.88763" lon="-4.15431">
        <ele>37</ele>
        <time>2022-12-28T11:07:28.326Z</time>
      </trkpt>
      <trkpt lat="47.88773" lon="-4.15432">
        <ele>37</ele>
        <time>2022-12-28T11:07:35.080Z</time>
      </trkpt>
      <trkpt lat="47.88773" lon="-4.15432">
        <ele>37</ele>
        <time>2022-12-28T11:07:41.834Z</time>
      </trkpt>
      <trkpt lat="47.88774" lon="-4.15432">
        <ele>36</ele>
        <time>2022-12-28T11:07:48.588Z</time>
      </trkpt>
      <trkpt lat="47.88774" lon="-4.15432">
        <ele>36</ele>
        <time>2022-12-28T11:07:55.342Z</time>
      </trkpt>
      <trkpt lat="47.88774" lon="-4.15432">
        <ele>36</ele>
        <time>2022-12-28T11:08:02.096Z</time>
      </trkpt>
      <trkpt lat="47.88774" lon="-4.15432">
        <ele>36</ele>
        <time>2022-12-28T11:08:08.850Z</time>
      </trkpt>
      <trkpt lat="47.88775" lon="-4.15433">
        <ele>36</ele>
        <time>2022-12-28T11:08:15.604Z</time>
      </trkpt>
      <trkpt lat="47.88775" lon="-4.15433">
        <ele>36</ele>
        <time>2022-12-28T11:08:22.358Z</time>
      </trkpt>
      <trkpt lat="47.8878" lon="-4.1544">
        <ele>36</ele>
        <time>2022-12-28T11:08:29.113Z</time>
      </trkpt>
      <trkpt lat="47.8878" lon="-4.1544">
        <ele>36</ele>
        <time>2022-12-28T11:08:35.868Z</time>
      </trkpt>
      <trkpt lat="47.88782" lon="-4.15444">
        <ele>36</ele>
        <time>2022-12-28T11:08:42.624Z</time>
      </trkpt>
      <trkpt lat="47.88782" lon="-4.15444">
        <ele>36</ele>
        <time>2022-12-28T11:08:49.380Z</time>
      </trkpt>
      <trkpt lat="47.88789" lon="-4.15454">
        <ele>36</ele>
        <time>2022-12-28T11:08:56.138Z</time>
      </trkpt>
      <trkpt lat="47.88786" lon="-4.15496">
        <ele>36</ele>
        <time>2022-12-28T11:09:02.900Z</time>
      </trkpt>
      <trkpt lat="47.88786" lon="-4.15496">
        <ele>36</ele>
        <time>2022-12-28T11:09:09.662Z</time>
      </trkpt>
      <trkpt lat="47.88784" lon="-4.15535">
        <ele>36</ele>
        <time>2022-12-28T11:09:16.428Z</time>
      </trkpt>
      <trkpt lat="47.88784" lon="-4.15548">
        <ele>36</ele>
        <time>2022-12-28T11:09:23.196Z</time>
      </trkpt>
      <trkpt lat="47.88783" lon="-4.15575">
        <ele>36</ele>
        <time>2022-12-28T11:09:29.967Z</time>
      </trkpt>
      <trkpt lat="47.88785" lon="-4.15583">
        <ele>36</ele>
        <time>2022-12-28T11:09:36.739Z</time>
      </trkpt>
      <trkpt lat="47.88785" lon="-4.15599">
        <ele>36</ele>
        <time>2022-12-28T11:09:43.512Z</time>
      </trkpt>
      <trkpt lat="47.88787" lon="-4.15605">
        <ele>35</ele>
        <time>2022-12-28T11:09:50.286Z</time>
      </trkpt>
      <trkpt lat="47.88826" lon="-4.15636">
        <ele>35</ele>
        <time>2022-12-28T11:09:57.067Z</time>
      </trkpt>
      <trkpt lat="47.88831" lon="-4.15638">
        <ele>35</ele>
        <time>2022-12-28T11:10:03.849Z</time>
      </trkpt>
      <trkpt lat="47.88831" lon="-4.15638">
        <ele>35</ele>
        <time>2022-12-28T11:10:10.631Z</time>
      </trkpt>
      <trkpt lat="47.88832" lon="-4.15638">
        <ele>35</ele>
        <time>2022-12-28T11:10:17.413Z</time>
      </trkpt>
      <trkpt lat="47.88832" lon="-4.15638">
        <ele>35</ele>
        <time>2022-12-28T11:10:24.195Z</time>
      </trkpt>
      <trkpt lat="47.88833" lon="-4.15638">
        <ele>35</ele>
        <time>2022-12-28T11:10:30.977Z</time>
      </trkpt>
      <trkpt lat="47.88833" lon="-4.15638">
        <ele>35</ele>
        <time>2022-12-28T11:10:37.759Z</time>
      </trkpt>
      <trkpt lat="47.88843" lon="-4.15641">
        <ele>35</ele>
        <time>2022-12-28T11:10:44.543Z</time>
      </trkpt>
      <trkpt lat="47.88843" lon="-4.15641">
        <ele>34</ele>
        <time>2022-12-28T11:10:51.327Z</time>
      </trkpt>
      <trkpt lat="47.88845" lon="-4.15642">
        <ele>34</ele>
        <time>2022-12-28T11:10:58.111Z</time>
      </trkpt>
      <trkpt lat="47.88849" lon="-4.15645">
        <ele>34</ele>
        <time>2022-12-28T11:11:04.896Z</time>
      </trkpt>
      <trkpt lat="47.88849" lon="-4.15646">
        <ele>34</ele>
        <time>2022-12-28T11:11:11.681Z</time>
      </trkpt>
      <trkpt lat="47.88854" lon="-4.15654">
        <ele>34</ele>
        <time>2022-12-28T11:11:18.467Z</time>
      </trkpt>
      <trkpt lat="47.88851" lon="-4.15672">
        <ele>34</ele>
        <time>2022-12-28T11:11:25.255Z</time>
      </trkpt>
      <trkpt lat="47.88853" lon="-4.15738">
        <ele>33</ele>
        <time>2022-12-28T11:11:32.050Z</time>
      </trkpt>
      <trkpt lat="47.8885" lon="-4.15757">
        <ele>33</ele>
        <time>2022-12-28T11:11:38.847Z</time>
      </trkpt>
      <trkpt lat="47.8885" lon="-4.15757">
        <ele>33</ele>
        <time>2022-12-28T11:11:45.644Z</time>
      </trkpt>
      <trkpt lat="47.8885" lon="-4.1576">
        <ele>33</ele>
        <time>2022-12-28T11:11:52.442Z</time>
      </trkpt>
      <trkpt lat="47.8884" lon="-4.15833">
        <ele>32</ele>
        <time>2022-12-28T11:11:59.248Z</time>
      </trkpt>
      <trkpt lat="47.88843" lon="-4.15847">
        <ele>32</ele>
        <time>2022-12-28T11:12:06.055Z</time>
      </trkpt>
      <trkpt lat="47.88842" lon="-4.15862">
        <ele>32</ele>
        <time>2022-12-28T11:12:12.864Z</time>
      </trkpt>
      <trkpt lat="47.88836" lon="-4.15888">
        <ele>32</ele>
        <time>2022-12-28T11:12:19.676Z</time>
      </trkpt>
      <trkpt lat="47.88834" lon="-4.159">
        <ele>32</ele>
        <time>2022-12-28T11:12:26.489Z</time>
      </trkpt>
      <trkpt lat="47.88831" lon="-4.15913">
        <ele>31</ele>
        <time>2022-12-28T11:12:33.304Z</time>
      </trkpt>
      <trkpt lat="47.88809" lon="-4.1593">
        <ele>31</ele>
        <time>2022-12-28T11:12:40.123Z</time>
      </trkpt>
      <trkpt lat="47.88806" lon="-4.15932">
        <ele>31</ele>
        <time>2022-12-28T11:12:46.942Z</time>
      </trkpt>
      <trkpt lat="47.88805" lon="-4.15933">
        <ele>31</ele>
        <time>2022-12-28T11:12:53.761Z</time>
      </trkpt>
      <trkpt lat="47.88805" lon="-4.15933">
        <ele>30</ele>
        <time>2022-12-28T11:13:00.580Z</time>
      </trkpt>
      <trkpt lat="47.88805" lon="-4.15933">
        <ele>30</ele>
        <time>2022-12-28T11:13:07.399Z</time>
      </trkpt>
      <trkpt lat="47.88804" lon="-4.15934">
        <ele>30</ele>
        <time>2022-12-28T11:13:14.219Z</time>
      </trkpt>
      <trkpt lat="47.88804" lon="-4.15934">
        <ele>30</ele>
        <time>2022-12-28T11:13:21.039Z</time>
      </trkpt>
      <trkpt lat="47.88795" lon="-4.15942">
        <ele>29</ele>
        <time>2022-12-28T11:13:27.860Z</time>
      </trkpt>
      <trkpt lat="47.88795" lon="-4.15942">
        <ele>29</ele>
        <time>2022-12-28T11:13:34.681Z</time>
      </trkpt>
      <trkpt lat="47.88791" lon="-4.15945">
        <ele>29</ele>
        <time>2022-12-28T11:13:41.503Z</time>
      </trkpt>
      <trkpt lat="47.8879" lon="-4.15951">
        <ele>29</ele>
        <time>2022-12-28T11:13:48.326Z</time>
      </trkpt>
      <trkpt lat="47.88836" lon="-4.15975">
        <ele>28</ele>
        <time>2022-12-28T11:13:55.156Z</time>
      </trkpt>
      <trkpt lat="47.88838" lon="-4.15977">
        <ele>28</ele>
        <time>2022-12-28T11:14:01.987Z</time>
      </trkpt>
      <trkpt lat="47.88869" lon="-4.15998">
        <ele>27</ele>
        <time>2022-12-28T11:14:08.823Z</time>
      </trkpt>
      <trkpt lat="47.88838" lon="-4.15977">
        <ele>27</ele>
        <time>2022-12-28T11:14:15.664Z</time>
      </trkpt>
      <trkpt lat="47.88869" lon="-4.15998">
        <ele>27</ele>
        <time>2022-12-28T11:14:22.511Z</time>
      </trkpt>
      <trkpt lat="47.88872" lon="-4.15999">
        <ele>26</ele>
        <time>2022-12-28T11:14:29.358Z</time>
      </trkpt>
      <trkpt lat="47.88878" lon="-4.15994">
        <ele>26</ele>
        <time>2022-12-28T11:14:36.206Z</time>
      </trkpt>
      <trkpt lat="47.8888" lon="-4.15994">
        <ele>26</ele>
        <time>2022-12-28T11:14:43.055Z</time>
      </trkpt>
      <trkpt lat="47.8889" lon="-4.16003">
        <ele>25</ele>
        <time>2022-12-28T11:14:49.906Z</time>
      </trkpt>
      <trkpt lat="47.88906" lon="-4.16022">
        <ele>25</ele>
        <time>2022-12-28T11:14:56.760Z</time>
      </trkpt>
      <trkpt lat="47.88912" lon="-4.16027">
        <ele>25</ele>
        <time>2022-12-28T11:15:03.615Z</time>
      </trkpt>
      <trkpt lat="47.88914" lon="-4.16028">
        <ele>25</ele>
        <time>2022-12-28T11:15:10.470Z</time>
      </trkpt>
      <trkpt lat="47.88915" lon="-4.16028">
        <ele>24</ele>
        <time>2022-12-28T11:15:17.326Z</time>
      </trkpt>
      <trkpt lat="47.88916" lon="-4.16028">
        <ele>24</ele>
        <time>2022-12-28T11:15:24.182Z</time>
      </trkpt>
      <trkpt lat="47.88916" lon="-4.16028">
        <ele>24</ele>
        <time>2022-12-28T11:15:31.038Z</time>
      </trkpt>
      <trkpt lat="47.88917" lon="-4.16028">
        <ele>24</ele>
        <time>2022-12-28T11:15:37.894Z</time>
      </trkpt>
      <trkpt lat="47.88917" lon="-4.16028">
        <ele>23</ele>
        <time>2022-12-28T11:15:44.750Z</time>
      </trkpt>
      <trkpt lat="47.88927" lon="-4.16032">
        <ele>23</ele>
        <time>2022-12-28T11:15:51.608Z</time>
      </trkpt>
      <trkpt lat="47.88927" lon="-4.16032">
        <ele>23</ele>
        <time>2022-12-28T11:15:58.466Z</time>
      </trkpt>
      <trkpt lat="47.88951" lon="-4.1604">
        <ele>23</ele>
        <time>2022-12-28T11:16:05.327Z</time>
      </trkpt>
      <trkpt lat="47.88951" lon="-4.1604">
        <ele>23</ele>
        <time>2022-12-28T11:16:12.188Z</time>
      </trkpt>
      <trkpt lat="47.88986" lon="-4.16048">
        <ele>22</ele>
        <time>2022-12-28T11:16:19.055Z</time>
      </trkpt>
      <trkpt lat="47.88991" lon="-4.16077">
        <ele>22</ele>
        <time>2022-12-28T11:16:25.925Z</time>
      </trkpt>
      <trkpt lat="47.88998" lon="-4.16086">
        <ele>22</ele>
        <time>2022-12-28T11:16:32.797Z</time>
      </trkpt>
      <trkpt lat="47.89023" lon="-4.16088">
        <ele>22</ele>
        <time>2022-12-28T11:16:39.673Z</time>
      </trkpt>
      <trkpt lat="47.89022" lon="-4.16092">
        <ele>22</ele>
        <time>2022-12-28T11:16:46.549Z</time>
      </trkpt>
      <trkpt lat="47.89022" lon="-4.16092">
        <ele>21</ele>
        <time>2022-12-28T11:16:53.425Z</time>
      </trkpt>
      <trkpt lat="47.89022" lon="-4.16093">
        <ele>21</ele>
        <time>2022-12-28T11:17:00.301Z</time>
      </trkpt>
      <trkpt lat="47.89022" lon="-4.16093">
        <ele>21</ele>
        <time>2022-12-28T11:17:07.177Z</time>
      </trkpt>
      <trkpt lat="47.89021" lon="-4.16095">
        <ele>21</ele>
        <time>2022-12-28T11:17:14.054Z</time>
      </trkpt>
      <trkpt lat="47.89021" lon="-4.16095">
        <ele>21</ele>
        <time>2022-12-28T11:17:20.931Z</time>
      </trkpt>
      <trkpt lat="47.89018" lon="-4.1611">
        <ele>21</ele>
        <time>2022-12-28T11:17:27.809Z</time>
      </trkpt>
      <trkpt lat="47.89018" lon="-4.1611">
        <ele>20</ele>
        <time>2022-12-28T11:17:34.687Z</time>
      </trkpt>
      <trkpt lat="47.89006" lon="-4.16158">
        <ele>20</ele>
        <time>2022-12-28T11:17:41.571Z</time>
      </trkpt>
      <trkpt lat="47.89001" lon="-4.16218">
        <ele>20</ele>
        <time>2022-12-28T11:17:48.461Z</time>
      </trkpt>
      <trkpt lat="47.89022" lon="-4.1627">
        <ele>20</ele>
        <time>2022-12-28T11:17:55.358Z</time>
      </trkpt>
      <trkpt lat="47.89026" lon="-4.16281">
        <ele>20</ele>
        <time>2022-12-28T11:18:02.256Z</time>
      </trkpt>
      <trkpt lat="47.89038" lon="-4.16307">
        <ele>19</ele>
        <time>2022-12-28T11:18:09.158Z</time>
      </trkpt>
      <trkpt lat="47.89053" lon="-4.16333">
        <ele>19</ele>
        <time>2022-12-28T11:18:16.063Z</time>
      </trkpt>
      <trkpt lat="47.89053" lon="-4.16333">
        <ele>19</ele>
        <time>2022-12-28T11:18:22.968Z</time>
      </trkpt>
      <trkpt lat="47.89083" lon="-4.16356">
        <ele>19</ele>
        <time>2022-12-28T11:18:29.879Z</time>
      </trkpt>
      <trkpt lat="47.8908" lon="-4.16379">
        <ele>19</ele>
        <time>2022-12-28T11:18:36.792Z</time>
      </trkpt>
      <trkpt lat="47.89084" lon="-4.16452">
        <ele>19</ele>
        <time>2022-12-28T11:18:43.713Z</time>
      </trkpt>
      <trkpt lat="47.89084" lon="-4.16457">
        <ele>19</ele>
        <time>2022-12-28T11:18:50.635Z</time>
      </trkpt>
      <trkpt lat="47.89084" lon="-4.16457">
        <ele>19</ele>
        <time>2022-12-28T11:18:57.557Z</time>
      </trkpt>
      <trkpt lat="47.89084" lon="-4.16458">
        <ele>19</ele>
        <time>2022-12-28T11:19:04.479Z</time>
      </trkpt>
      <trkpt lat="47.89084" lon="-4.16458">
        <ele>18</ele>
        <time>2022-12-28T11:19:11.401Z</time>
      </trkpt>
      <trkpt lat="47.89084" lon="-4.1646">
        <ele>18</ele>
        <time>2022-12-28T11:19:18.323Z</time>
      </trkpt>
      <trkpt lat="47.89084" lon="-4.1646">
        <ele>18</ele>
        <time>2022-12-28T11:19:25.245Z</time>
      </trkpt>
      <trkpt lat="47.89083" lon="-4.16476">
        <ele>18</ele>
        <time>2022-12-28T11:19:32.169Z</time>
      </trkpt>
      <trkpt lat="47.89083" lon="-4.16476">
        <ele>18</ele>
        <time>2022-12-28T11:19:39.093Z</time>
      </trkpt>
      <trkpt lat="47.89083" lon="-4.16485">
        <ele>18</ele>
        <time>2022-12-28T11:19:46.018Z</time>
      </trkpt>
      <trkpt lat="47.89095" lon="-4.16521">
        <ele>18</ele>
        <time>2022-12-28T11:19:52.947Z</time>
      </trkpt>
      <trkpt lat="47.89095" lon="-4.16521">
        <ele>18</ele>
        <time>2022-12-28T11:19:59.876Z</time>
      </trkpt>
      <trkpt lat="47.89098" lon="-4.16534">
        <ele>18</ele>
        <time>2022-12-28T11:20:06.806Z</time>
      </trkpt>
      <trkpt lat="47.891" lon="-4.16545">
        <ele>18</ele>
        <time>2022-12-28T11:20:13.738Z</time>
      </trkpt>
      <trkpt lat="47.891" lon="-4.1656">
        <ele>18</ele>
        <time>2022-12-28T11:20:20.671Z</time>
      </trkpt>
      <trkpt lat="47.89221" lon="-4.16642">
        <ele>18</ele>
        <time>2022-12-28T11:20:27.625Z</time>
      </trkpt>
      <trkpt lat="47.89221" lon="-4.16657">
        <ele>18</ele>
        <time>2022-12-28T11:20:34.581Z</time>
      </trkpt>
      <trkpt lat="47.89227" lon="-4.16713">
        <ele>18</ele>
        <time>2022-12-28T11:20:41.543Z</time>
      </trkpt>
      <trkpt lat="47.89231" lon="-4.16732">
        <ele>18</ele>
        <time>2022-12-28T11:20:48.507Z</time>
      </trkpt>
      <trkpt lat="47.89237" lon="-4.16748">
        <ele>18</ele>
        <time>2022-12-28T11:20:55.473Z</time>
      </trkpt>
      <trkpt lat="47.89243" lon="-4.16761">
        <ele>18</ele>
        <time>2022-12-28T11:21:02.441Z</time>
      </trkpt>
      <trkpt lat="47.89249" lon="-4.16767">
        <ele>18</ele>
        <time>2022-12-28T11:21:09.410Z</time>
      </trkpt>
      <trkpt lat="47.89281" lon="-4.16784">
        <ele>18</ele>
        <time>2022-12-28T11:21:16.385Z</time>
      </trkpt>
      <trkpt lat="47.89285" lon="-4.1679">
        <ele>18</ele>
        <time>2022-12-28T11:21:23.361Z</time>
      </trkpt>
      <trkpt lat="47.89288" lon="-4.16794">
        <ele>18</ele>
        <time>2022-12-28T11:21:30.337Z</time>
      </trkpt>
      <trkpt lat="47.89295" lon="-4.16816">
        <ele>18</ele>
        <time>2022-12-28T11:21:37.316Z</time>
      </trkpt>
      <trkpt lat="47.89302" lon="-4.16827">
        <ele>18</ele>
        <time>2022-12-28T11:21:44.296Z</time>
      </trkpt>
      <trkpt lat="47.89306" lon="-4.1683">
        <ele>18</ele>
        <time>2022-12-28T11:21:51.277Z</time>
      </trkpt>
      <trkpt lat="47.89316" lon="-4.16887">
        <ele>18</ele>
        <time>2022-12-28T11:21:58.265Z</time>
      </trkpt>
      <trkpt lat="47.89358" lon="-4.1699">
        <ele>18</ele>
        <time>2022-12-28T11:22:05.266Z</time>
      </trkpt>
      <trkpt lat="47.89338" lon="-4.17026">
        <ele>18</ele>
        <time>2022-12-28T11:22:12.272Z</time>
      </trkpt>
      <trkpt lat="47.89319" lon="-4.17062">
        <ele>18</ele>
        <time>2022-12-28T11:22:19.282Z</time>
      </trkpt>
      <trkpt lat="47.89272" lon="-4.17135">
        <ele>18</ele>
        <time>2022-12-28T11:22:26.303Z</time>
      </trkpt>
      <trkpt lat="47.89244" lon="-4.17179">
        <ele>18</ele>
        <time>2022-12-28T11:22:33.331Z</time>
      </trkpt>
      <trkpt lat="47.89243" lon="-4.17181">
        <ele>18</ele>
        <time>2022-12-28T11:22:40.359Z</time>
      </trkpt>
      <trkpt lat="47.89243" lon="-4.17182">
        <ele>19</ele>
        <time>2022-12-28T11:22:47.387Z</time>
      </trkpt>
      <trkpt lat="47.89243" lon="-4.17183">
        <ele>19</ele>
        <time>2022-12-28T11:22:54.415Z</time>
      </trkpt>
      <trkpt lat="47.89243" lon="-4.17183">
        <ele>19</ele>
        <time>2022-12-28T11:23:01.443Z</time>
      </trkpt>
      <trkpt lat="47.89242" lon="-4.17184">
        <ele>19</ele>
        <time>2022-12-28T11:23:08.472Z</time>
      </trkpt>
      <trkpt lat="47.89242" lon="-4.17184">
        <ele>19</ele>
        <time>2022-12-28T11:23:15.501Z</time>
      </trkpt>
      <trkpt lat="47.89237" lon="-4.17198">
        <ele>19</ele>
        <time>2022-12-28T11:23:22.531Z</time>
      </trkpt>
      <trkpt lat="47.89237" lon="-4.17198">
        <ele>19</ele>
        <time>2022-12-28T11:23:29.561Z</time>
      </trkpt>
      <trkpt lat="47.89225" lon="-4.17227">
        <ele>19</ele>
        <time>2022-12-28T11:23:36.595Z</time>
      </trkpt>
      <trkpt lat="47.89244" lon="-4.17243">
        <ele>19</ele>
        <time>2022-12-28T11:23:43.632Z</time>
      </trkpt>
      <trkpt lat="47.89245" lon="-4.17245">
        <ele>19</ele>
        <time>2022-12-28T11:23:50.670Z</time>
      </trkpt>
      <trkpt lat="47.89252" lon="-4.17254">
        <ele>19</ele>
        <time>2022-12-28T11:23:57.709Z</time>
      </trkpt>
      <trkpt lat="47.89256" lon="-4.17258">
        <ele>19</ele>
        <time>2022-12-28T11:24:04.749Z</time>
      </trkpt>
      <trkpt lat="47.89281" lon="-4.17294">
        <ele>19</ele>
        <time>2022-12-28T11:24:11.794Z</time>
      </trkpt>
      <trkpt lat="47.89337" lon="-4.17365">
        <ele>19</ele>
        <time>2022-12-28T11:24:18.851Z</time>
      </trkpt>
      <trkpt lat="47.89384" lon="-4.17424">
        <ele>19</ele>
        <time>2022-12-28T11:24:25.918Z</time>
      </trkpt>
      <trkpt lat="47.89411" lon="-4.17461">
        <ele>19</ele>
        <time>2022-12-28T11:24:32.991Z</time>
      </trkpt>
      <trkpt lat="47.89448" lon="-4.17502">
        <ele>19</ele>
        <time>2022-12-28T11:24:40.071Z</time>
      </trkpt>
      <trkpt lat="47.89448" lon="-4.17502">
        <ele>20</ele>
        <time>2022-12-28T11:24:47.151Z</time>
      </trkpt>
      <trkpt lat="47.89498" lon="-4.17544">
        <ele>20</ele>
        <time>2022-12-28T11:24:54.241Z</time>
      </trkpt>
      <trkpt lat="47.89503" lon="-4.17548">
        <ele>20</ele>
        <time>2022-12-28T11:25:01.331Z</time>
      </trkpt>
      <trkpt lat="47.89505" lon="-4.1755">
        <ele>20</ele>
        <time>2022-12-28T11:25:08.422Z</time>
      </trkpt>
      <trkpt lat="47.89542" lon="-4.17575">
        <ele>21</ele>
        <time>2022-12-28T11:25:15.519Z</time>
      </trkpt>
      <trkpt lat="47.89542" lon="-4.17575">
        <ele>21</ele>
        <time>2022-12-28T11:25:22.616Z</time>
      </trkpt>
      <trkpt lat="47.89584" lon="-4.176">
        <ele>21</ele>
        <time>2022-12-28T11:25:29.721Z</time>
      </trkpt>
      <trkpt lat="47.89614" lon="-4.1762">
        <ele>22</ele>
        <time>2022-12-28T11:25:36.831Z</time>
      </trkpt>
      <trkpt lat="47.89636" lon="-4.17636">
        <ele>22</ele>
        <time>2022-12-28T11:25:43.945Z</time>
      </trkpt>
      <trkpt lat="47.89623" lon="-4.17728">
        <ele>23</ele>
        <time>2022-12-28T11:25:51.069Z</time>
      </trkpt>
      <trkpt lat="47.89615" lon="-4.17783">
        <ele>24</ele>
        <time>2022-12-28T11:25:58.199Z</time>
      </trkpt>
      <trkpt lat="47.89606" lon="-4.17846">
        <ele>24</ele>
        <time>2022-12-28T11:26:05.336Z</time>
      </trkpt>
      <trkpt lat="47.89606" lon="-4.17847">
        <ele>24</ele>
        <time>2022-12-28T11:26:12.473Z</time>
      </trkpt>
      <trkpt lat="47.89606" lon="-4.17848">
        <ele>25</ele>
        <time>2022-12-28T11:26:19.610Z</time>
      </trkpt>
      <trkpt lat="47.89606" lon="-4.17848">
        <ele>25</ele>
        <time>2022-12-28T11:26:26.747Z</time>
      </trkpt>
      <trkpt lat="47.89606" lon="-4.17849">
        <ele>26</ele>
        <time>2022-12-28T11:26:33.884Z</time>
      </trkpt>
      <trkpt lat="47.89606" lon="-4.17849">
        <ele>26</ele>
        <time>2022-12-28T11:26:41.021Z</time>
      </trkpt>
      <trkpt lat="47.89603" lon="-4.17865">
        <ele>27</ele>
        <time>2022-12-28T11:26:48.160Z</time>
      </trkpt>
      <trkpt lat="47.89603" lon="-4.17865">
        <ele>27</ele>
        <time>2022-12-28T11:26:55.299Z</time>
      </trkpt>
      <trkpt lat="47.8958" lon="-4.1802">
        <ele>28</ele>
        <time>2022-12-28T11:27:02.455Z</time>
      </trkpt>
      <trkpt lat="47.8958" lon="-4.18024">
        <ele>28</ele>
        <time>2022-12-28T11:27:09.612Z</time>
      </trkpt>
      <trkpt lat="47.89585" lon="-4.18025">
        <ele>28</ele>
        <time>2022-12-28T11:27:16.769Z</time>
      </trkpt>
      <trkpt lat="47.89611" lon="-4.1803">
        <ele>29</ele>
        <time>2022-12-28T11:27:23.931Z</time>
      </trkpt>
      <trkpt lat="47.89636" lon="-4.18039">
        <ele>29</ele>
        <time>2022-12-28T11:27:31.097Z</time>
      </trkpt>
      <trkpt lat="47.8964" lon="-4.18042">
        <ele>30</ele>
        <time>2022-12-28T11:27:38.263Z</time>
      </trkpt>
      <trkpt lat="47.89716" lon="-4.18083">
        <ele>31</ele>
        <time>2022-12-28T11:27:45.442Z</time>
      </trkpt>
      <trkpt lat="47.89761" lon="-4.18137">
        <ele>31</ele>
        <time>2022-12-28T11:27:52.631Z</time>
      </trkpt>
      <trkpt lat="47.89761" lon="-4.18138">
        <ele>31</ele>
        <time>2022-12-28T11:27:59.820Z</time>
      </trkpt>
      <trkpt lat="47.89762" lon="-4.18139">
        <ele>32</ele>
        <time>2022-12-28T11:28:07.009Z</time>
      </trkpt>
      <trkpt lat="47.89762" lon="-4.18139">
        <ele>32</ele>
        <time>2022-12-28T11:28:14.198Z</time>
      </trkpt>
      <trkpt lat="47.89763" lon="-4.1814">
        <ele>33</ele>
        <time>2022-12-28T11:28:21.387Z</time>
      </trkpt>
      <trkpt lat="47.89763" lon="-4.1814">
        <ele>33</ele>
        <time>2022-12-28T11:28:28.576Z</time>
      </trkpt>
      <trkpt lat="47.89771" lon="-4.1815">
        <ele>33</ele>
        <time>2022-12-28T11:28:35.767Z</time>
      </trkpt>
      <trkpt lat="47.89771" lon="-4.1815">
        <ele>34</ele>
        <time>2022-12-28T11:28:42.958Z</time>
      </trkpt>
      <trkpt lat="47.8979" lon="-4.18173">
        <ele>34</ele>
        <time>2022-12-28T11:28:50.153Z</time>
      </trkpt>
      <trkpt lat="47.89797" lon="-4.18175">
        <ele>34</ele>
        <time>2022-12-28T11:28:57.349Z</time>
      </trkpt>
      <trkpt lat="47.89815" lon="-4.1818">
        <ele>35</ele>
        <time>2022-12-28T11:29:04.548Z</time>
      </trkpt>
      <trkpt lat="47.89824" lon="-4.18182">
        <ele>35</ele>
        <time>2022-12-28T11:29:11.748Z</time>
      </trkpt>
      <trkpt lat="47.89842" lon="-4.18186">
        <ele>35</ele>
        <time>2022-12-28T11:29:18.951Z</time>
      </trkpt>
      <trkpt lat="47.89849" lon="-4.18185">
        <ele>35</ele>
        <time>2022-12-28T11:29:26.155Z</time>
      </trkpt>
      <trkpt lat="47.89889" lon="-4.18171">
        <ele>36</ele>
        <time>2022-12-28T11:29:33.366Z</time>
      </trkpt>
      <trkpt lat="47.90009" lon="-4.1817">
        <ele>36</ele>
        <time>2022-12-28T11:29:40.596Z</time>
      </trkpt>
      <trkpt lat="47.90012" lon="-4.1817">
        <ele>36</ele>
        <time>2022-12-28T11:29:47.826Z</time>
      </trkpt>
      <trkpt lat="47.90016" lon="-4.18186">
        <ele>37</ele>
        <time>2022-12-28T11:29:55.058Z</time>
      </trkpt>
      <trkpt lat="47.90018" lon="-4.18195">
        <ele>37</ele>
        <time>2022-12-28T11:30:02.291Z</time>
      </trkpt>
      <trkpt lat="47.90022" lon="-4.18201">
        <ele>37</ele>
        <time>2022-12-28T11:30:09.525Z</time>
      </trkpt>
      <trkpt lat="47.90077" lon="-4.18263">
        <ele>37</ele>
        <time>2022-12-28T11:30:16.770Z</time>
      </trkpt>
      <trkpt lat="47.90096" lon="-4.18276">
        <ele>37</ele>
        <time>2022-12-28T11:30:24.019Z</time>
      </trkpt>
      <trkpt lat="47.90112" lon="-4.1828">
        <ele>38</ele>
        <time>2022-12-28T11:30:31.270Z</time>
      </trkpt>
      <trkpt lat="47.90137" lon="-4.18278">
        <ele>38</ele>
        <time>2022-12-28T11:30:38.525Z</time>
      </trkpt>
      <trkpt lat="47.90137" lon="-4.18278">
        <ele>38</ele>
        <time>2022-12-28T11:30:45.780Z</time>
      </trkpt>
      <trkpt lat="47.90138" lon="-4.18278">
        <ele>38</ele>
        <time>2022-12-28T11:30:53.035Z</time>
      </trkpt>
      <trkpt lat="47.90138" lon="-4.18278">
        <ele>38</ele>
        <time>2022-12-28T11:31:00.290Z</time>
      </trkpt>
      <trkpt lat="47.90139" lon="-4.18278">
        <ele>38</ele>
        <time>2022-12-28T11:31:07.546Z</time>
      </trkpt>
      <trkpt lat="47.90139" lon="-4.18278">
        <ele>38</ele>
        <time>2022-12-28T11:31:14.802Z</time>
      </trkpt>
      <trkpt lat="47.9015" lon="-4.18277">
        <ele>38</ele>
        <time>2022-12-28T11:31:22.059Z</time>
      </trkpt>
      <trkpt lat="47.9015" lon="-4.18277">
        <ele>38</ele>
        <time>2022-12-28T11:31:29.316Z</time>
      </trkpt>
      <trkpt lat="47.90181" lon="-4.18275">
        <ele>38</ele>
        <time>2022-12-28T11:31:36.578Z</time>
      </trkpt>
      <trkpt lat="47.90189" lon="-4.18274">
        <ele>38</ele>
        <time>2022-12-28T11:31:43.842Z</time>
      </trkpt>
      <trkpt lat="47.90189" lon="-4.18275">
        <ele>39</ele>
        <time>2022-12-28T11:31:51.106Z</time>
      </trkpt>
      <trkpt lat="47.90176" lon="-4.18358">
        <ele>38</ele>
        <time>2022-12-28T11:31:58.379Z</time>
      </trkpt>
      <trkpt lat="47.90175" lon="-4.18376">
        <ele>38</ele>
        <time>2022-12-28T11:32:05.654Z</time>
      </trkpt>
      <trkpt lat="47.90174" lon="-4.18472">
        <ele>38</ele>
        <time>2022-12-28T11:32:12.939Z</time>
      </trkpt>
      <trkpt lat="47.90171" lon="-4.18565">
        <ele>38</ele>
        <time>2022-12-28T11:32:20.234Z</time>
      </trkpt>
      <trkpt lat="47.90171" lon="-4.1859">
        <ele>38</ele>
        <time>2022-12-28T11:32:27.532Z</time>
      </trkpt>
      <trkpt lat="47.90171" lon="-4.1859">
        <ele>38</ele>
        <time>2022-12-28T11:32:34.830Z</time>
      </trkpt>
      <trkpt lat="47.90171" lon="-4.18591">
        <ele>38</ele>
        <time>2022-12-28T11:32:42.128Z</time>
      </trkpt>
      <trkpt lat="47.90171" lon="-4.18591">
        <ele>38</ele>
        <time>2022-12-28T11:32:49.426Z</time>
      </trkpt>
      <trkpt lat="47.90171" lon="-4.18593">
        <ele>38</ele>
        <time>2022-12-28T11:32:56.724Z</time>
      </trkpt>
      <trkpt lat="47.90171" lon="-4.18593">
        <ele>38</ele>
        <time>2022-12-28T11:33:04.022Z</time>
      </trkpt>
      <trkpt lat="47.90171" lon="-4.18609">
        <ele>38</ele>
        <time>2022-12-28T11:33:11.322Z</time>
      </trkpt>
      <trkpt lat="47.90171" lon="-4.18609">
        <ele>38</ele>
        <time>2022-12-28T11:33:18.622Z</time>
      </trkpt>
      <trkpt lat="47.9017" lon="-4.18664">
        <ele>38</ele>
        <time>2022-12-28T11:33:25.928Z</time>
      </trkpt>
      <trkpt lat="47.90166" lon="-4.18675">
        <ele>37</ele>
        <time>2022-12-28T11:33:33.235Z</time>
      </trkpt>
      <trkpt lat="47.90165" lon="-4.18681">
        <ele>37</ele>
        <time>2022-12-28T11:33:40.543Z</time>
      </trkpt>
      <trkpt lat="47.90156" lon="-4.18771">
        <ele>37</ele>
        <time>2022-12-28T11:33:47.861Z</time>
      </trkpt>
      <trkpt lat="47.90152" lon="-4.18807">
        <ele>37</ele>
        <time>2022-12-28T11:33:55.183Z</time>
      </trkpt>
      <trkpt lat="47.90152" lon="-4.18818">
        <ele>37</ele>
        <time>2022-12-28T11:34:02.506Z</time>
      </trkpt>
      <trkpt lat="47.90201" lon="-4.18854">
        <ele>37</ele>
        <time>2022-12-28T11:34:09.838Z</time>
      </trkpt>
      <trkpt lat="47.9022" lon="-4.18867">
        <ele>37</ele>
        <time>2022-12-28T11:34:17.173Z</time>
      </trkpt>
      <trkpt lat="47.9022" lon="-4.18867">
        <ele>37</ele>
        <time>2022-12-28T11:34:24.508Z</time>
      </trkpt>
      <trkpt lat="47.90237" lon="-4.18878">
        <ele>37</ele>
        <time>2022-12-28T11:34:31.846Z</time>
      </trkpt>
      <trkpt lat="47.90254" lon="-4.18887">
        <ele>36</ele>
        <time>2022-12-28T11:34:39.187Z</time>
      </trkpt>
      <trkpt lat="47.90345" lon="-4.18911">
        <ele>36</ele>
        <time>2022-12-28T11:34:46.543Z</time>
      </trkpt>
      <trkpt lat="47.90365" lon="-4.18916">
        <ele>36</ele>
        <time>2022-12-28T11:34:53.902Z</time>
      </trkpt>
      <trkpt lat="47.90381" lon="-4.1892">
        <ele>36</ele>
        <time>2022-12-28T11:35:01.263Z</time>
      </trkpt>
      <trkpt lat="47.90381" lon="-4.1892">
        <ele>36</ele>
        <time>2022-12-28T11:35:08.624Z</time>
      </trkpt>
      <trkpt lat="47.90382" lon="-4.1892">
        <ele>36</ele>
        <time>2022-12-28T11:35:15.986Z</time>
      </trkpt>
      <trkpt lat="47.90382" lon="-4.1892">
        <ele>36</ele>
        <time>2022-12-28T11:35:23.348Z</time>
      </trkpt>
      <trkpt lat="47.90383" lon="-4.1892">
        <ele>36</ele>
        <time>2022-12-28T11:35:30.710Z</time>
      </trkpt>
      <trkpt lat="47.90383" lon="-4.1892">
        <ele>36</ele>
        <time>2022-12-28T11:35:38.072Z</time>
      </trkpt>
      <trkpt lat="47.90394" lon="-4.18923">
        <ele>36</ele>
        <time>2022-12-28T11:35:45.435Z</time>
      </trkpt>
      <trkpt lat="47.90394" lon="-4.18923">
        <ele>35</ele>
        <time>2022-12-28T11:35:52.798Z</time>
      </trkpt>
      <trkpt lat="47.90426" lon="-4.18931">
        <ele>36</ele>
        <time>2022-12-28T11:36:00.167Z</time>
      </trkpt>
      <trkpt lat="47.90534" lon="-4.18956">
        <ele>35</ele>
        <time>2022-12-28T11:36:07.553Z</time>
      </trkpt>
      <trkpt lat="47.90564" lon="-4.18966">
        <ele>35</ele>
        <time>2022-12-28T11:36:14.944Z</time>
      </trkpt>
      <trkpt lat="47.90572" lon="-4.18968">
        <ele>35</ele>
        <time>2022-12-28T11:36:22.336Z</time>
      </trkpt>
      <trkpt lat="47.90628" lon="-4.18987">
        <ele>35</ele>
        <time>2022-12-28T11:36:29.738Z</time>
      </trkpt>
      <trkpt lat="47.9068" lon="-4.19012">
        <ele>35</ele>
        <time>2022-12-28T11:36:37.148Z</time>
      </trkpt>
      <trkpt lat="47.90688" lon="-4.19017">
        <ele>35</ele>
        <time>2022-12-28T11:36:44.560Z</time>
      </trkpt>
      <trkpt lat="47.90705" lon="-4.19032">
        <ele>36</ele>
        <time>2022-12-28T11:36:51.975Z</time>
      </trkpt>
      <trkpt lat="47.90728" lon="-4.19052">
        <ele>36</ele>
        <time>2022-12-28T11:36:59.394Z</time>
      </trkpt>
      <trkpt lat="47.90768" lon="-4.19093">
        <ele>36</ele>
        <time>2022-12-28T11:37:06.821Z</time>
      </trkpt>
      <trkpt lat="47.90809" lon="-4.19149">
        <ele>36</ele>
        <time>2022-12-28T11:37:14.257Z</time>
      </trkpt>
      <trkpt lat="47.90837" lon="-4.19193">
        <ele>36</ele>
        <time>2022-12-28T11:37:21.699Z</time>
      </trkpt>
      <trkpt lat="47.90837" lon="-4.19193">
        <ele>36</ele>
        <time>2022-12-28T11:37:29.141Z</time>
      </trkpt>
      <trkpt lat="47.90839" lon="-4.19195">
        <ele>36</ele>
        <time>2022-12-28T11:37:36.584Z</time>
      </trkpt>
      <trkpt lat="47.90861" lon="-4.19219">
        <ele>36</ele>
        <time>2022-12-28T11:37:44.031Z</time>
      </trkpt>
      <trkpt lat="47.90866" lon="-4.19225">
        <ele>37</ele>
        <time>2022-12-28T11:37:51.479Z</time>
      </trkpt>
      <trkpt lat="47.90867" lon="-4.19227">
        <ele>37</ele>
        <time>2022-12-28T11:37:58.927Z</time>
      </trkpt>
      <trkpt lat="47.90915" lon="-4.19289">
        <ele>37</ele>
        <time>2022-12-28T11:38:06.386Z</time>
      </trkpt>
      <trkpt lat="47.9092" lon="-4.19288">
        <ele>37</ele>
        <time>2022-12-28T11:38:13.846Z</time>
      </trkpt>
      <trkpt lat="47.90924" lon="-4.1929">
        <ele>37</ele>
        <time>2022-12-28T11:38:21.306Z</time>
      </trkpt>
      <trkpt lat="47.90927" lon="-4.19295">
        <ele>38</ele>
        <time>2022-12-28T11:38:28.767Z</time>
      </trkpt>
      <trkpt lat="47.90927" lon="-4.19307">
        <ele>38</ele>
        <time>2022-12-28T11:38:36.229Z</time>
      </trkpt>
      <trkpt lat="47.90925" lon="-4.19313">
        <ele>38</ele>
        <time>2022-12-28T11:38:43.692Z</time>
      </trkpt>
      <trkpt lat="47.90926" lon="-4.19337">
        <ele>38</ele>
        <time>2022-12-28T11:38:51.158Z</time>
      </trkpt>
      <trkpt lat="47.90978" lon="-4.19553">
        <ele>38</ele>
        <time>2022-12-28T11:38:58.648Z</time>
      </trkpt>
      <trkpt lat="47.90978" lon="-4.19554">
        <ele>39</ele>
        <time>2022-12-28T11:39:06.138Z</time>
      </trkpt>
      <trkpt lat="47.90978" lon="-4.19555">
        <ele>39</ele>
        <time>2022-12-28T11:39:13.628Z</time>
      </trkpt>
      <trkpt lat="47.90978" lon="-4.19555">
        <ele>39</ele>
        <time>2022-12-28T11:39:21.118Z</time>
      </trkpt>
      <trkpt lat="47.90979" lon="-4.19557">
        <ele>39</ele>
        <time>2022-12-28T11:39:28.609Z</time>
      </trkpt>
      <trkpt lat="47.90979" lon="-4.19557">
        <ele>39</ele>
        <time>2022-12-28T11:39:36.100Z</time>
      </trkpt>
      <trkpt lat="47.90982" lon="-4.19571">
        <ele>40</ele>
        <time>2022-12-28T11:39:43.592Z</time>
      </trkpt>
      <trkpt lat="47.90982" lon="-4.19572">
        <ele>40</ele>
        <time>2022-12-28T11:39:51.084Z</time>
      </trkpt>
      <trkpt lat="47.91006" lon="-4.19671">
        <ele>40</ele>
        <time>2022-12-28T11:39:58.588Z</time>
      </trkpt>
      <trkpt lat="47.91013" lon="-4.19692">
        <ele>40</ele>
        <time>2022-12-28T11:40:06.094Z</time>
      </trkpt>
      <trkpt lat="47.91025" lon="-4.19717">
        <ele>40</ele>
        <time>2022-12-28T11:40:13.604Z</time>
      </trkpt>
      <trkpt lat="47.91034" lon="-4.19729">
        <ele>40</ele>
        <time>2022-12-28T11:40:21.115Z</time>
      </trkpt>
      <trkpt lat="47.91078" lon="-4.19772">
        <ele>40</ele>
        <time>2022-12-28T11:40:28.635Z</time>
      </trkpt>
      <trkpt lat="47.91084" lon="-4.19781">
        <ele>41</ele>
        <time>2022-12-28T11:40:36.156Z</time>
      </trkpt>
      <trkpt lat="47.91095" lon="-4.19804">
        <ele>41</ele>
        <time>2022-12-28T11:40:43.680Z</time>
      </trkpt>
      <trkpt lat="47.91124" lon="-4.19788">
        <ele>41</ele>
        <time>2022-12-28T11:40:51.209Z</time>
      </trkpt>
      <trkpt lat="47.91128" lon="-4.1978">
        <ele>41</ele>
        <time>2022-12-28T11:40:58.739Z</time>
      </trkpt>
      <trkpt lat="47.91135" lon="-4.19749">
        <ele>41</ele>
        <time>2022-12-28T11:41:06.273Z</time>
      </trkpt>
      <trkpt lat="47.91151" lon="-4.19715">
        <ele>41</ele>
        <time>2022-12-28T11:41:13.811Z</time>
      </trkpt>
      <trkpt lat="47.91163" lon="-4.1969">
        <ele>41</ele>
        <time>2022-12-28T11:41:21.353Z</time>
      </trkpt>
      <trkpt lat="47.91171" lon="-4.1968">
        <ele>42</ele>
        <time>2022-12-28T11:41:28.896Z</time>
      </trkpt>
      <trkpt lat="47.91177" lon="-4.19683">
        <ele>42</ele>
        <time>2022-12-28T11:41:36.440Z</time>
      </trkpt>
      <trkpt lat="47.91182" lon="-4.19687">
        <ele>42</ele>
        <time>2022-12-28T11:41:43.985Z</time>
      </trkpt>
      <trkpt lat="47.91183" lon="-4.19695">
        <ele>42</ele>
        <time>2022-12-28T11:41:51.531Z</time>
      </trkpt>
      <trkpt lat="47.91183" lon="-4.19696">
        <ele>42</ele>
        <time>2022-12-28T11:41:59.077Z</time>
      </trkpt>
      <trkpt lat="47.91182" lon="-4.19696">
        <ele>42</ele>
        <time>2022-12-28T11:42:06.623Z</time>
      </trkpt>
      <trkpt lat="47.91182" lon="-4.19697">
        <ele>42</ele>
        <time>2022-12-28T11:42:14.169Z</time>
      </trkpt>
      <trkpt lat="47.91182" lon="-4.19697">
        <ele>42</ele>
        <time>2022-12-28T11:42:21.715Z</time>
      </trkpt>
      <trkpt lat="47.91181" lon="-4.19699">
        <ele>41</ele>
        <time>2022-12-28T11:42:29.262Z</time>
      </trkpt>
      <trkpt lat="47.91181" lon="-4.19699">
        <ele>41</ele>
        <time>2022-12-28T11:42:36.809Z</time>
      </trkpt>
      <trkpt lat="47.91176" lon="-4.19713">
        <ele>41</ele>
        <time>2022-12-28T11:42:44.357Z</time>
      </trkpt>
      <trkpt lat="47.91176" lon="-4.19713">
        <ele>41</ele>
        <time>2022-12-28T11:42:51.905Z</time>
      </trkpt>
      <trkpt lat="47.91168" lon="-4.19738">
        <ele>41</ele>
        <time>2022-12-28T11:42:59.456Z</time>
      </trkpt>
      <trkpt lat="47.91157" lon="-4.19783">
        <ele>41</ele>
        <time>2022-12-28T11:43:07.013Z</time>
      </trkpt>
      <trkpt lat="47.91142" lon="-4.19848">
        <ele>39</ele>
        <time>2022-12-28T11:43:14.577Z</time>
      </trkpt>
      <trkpt lat="47.91157" lon="-4.19783">
        <ele>40</ele>
        <time>2022-12-28T11:43:22.148Z</time>
      </trkpt>
      <trkpt lat="47.91142" lon="-4.19848">
        <ele>39</ele>
        <time>2022-12-28T11:43:29.727Z</time>
      </trkpt>
      <trkpt lat="47.91103" lon="-4.19995">
        <ele>38</ele>
        <time>2022-12-28T11:43:37.323Z</time>
      </trkpt>
      <trkpt lat="47.91092" lon="-4.20028">
        <ele>38</ele>
        <time>2022-12-28T11:43:44.923Z</time>
      </trkpt>
      <trkpt lat="47.91089" lon="-4.20032">
        <ele>37</ele>
        <time>2022-12-28T11:43:52.523Z</time>
      </trkpt>
      <trkpt lat="47.91077" lon="-4.2006">
        <ele>36</ele>
        <time>2022-12-28T11:44:00.127Z</time>
      </trkpt>
      <trkpt lat="47.91062" lon="-4.20087">
        <ele>36</ele>
        <time>2022-12-28T11:44:07.735Z</time>
      </trkpt>
      <trkpt lat="47.91034" lon="-4.20127">
        <ele>35</ele>
        <time>2022-12-28T11:44:15.349Z</time>
      </trkpt>
      <trkpt lat="47.91" lon="-4.2016">
        <ele>35</ele>
        <time>2022-12-28T11:44:22.969Z</time>
      </trkpt>
      <trkpt lat="47.90977" lon="-4.20178">
        <ele>34</ele>
        <time>2022-12-28T11:44:30.594Z</time>
      </trkpt>
      <trkpt lat="47.90945" lon="-4.20195">
        <ele>34</ele>
        <time>2022-12-28T11:44:38.224Z</time>
      </trkpt>
      <trkpt lat="47.90911" lon="-4.20207">
        <ele>33</ele>
        <time>2022-12-28T11:44:45.859Z</time>
      </trkpt>
      <trkpt lat="47.90884" lon="-4.20212">
        <ele>33</ele>
        <time>2022-12-28T11:44:53.499Z</time>
      </trkpt>
      <trkpt lat="47.9088" lon="-4.20213">
        <ele>32</ele>
        <time>2022-12-28T11:45:01.139Z</time>
      </trkpt>
      <trkpt lat="47.90875" lon="-4.20213">
        <ele>32</ele>
        <time>2022-12-28T11:45:08.780Z</time>
      </trkpt>
      <trkpt lat="47.90772" lon="-4.20208">
        <ele>31</ele>
        <time>2022-12-28T11:45:16.438Z</time>
      </trkpt>
      <trkpt lat="47.90772" lon="-4.20208">
        <ele>30</ele>
        <time>2022-12-28T11:45:24.096Z</time>
      </trkpt>
      <trkpt lat="47.90712" lon="-4.20203">
        <ele>30</ele>
        <time>2022-12-28T11:45:31.763Z</time>
      </trkpt>
      <trkpt lat="47.90695" lon="-4.20205">
        <ele>29</ele>
        <time>2022-12-28T11:45:39.433Z</time>
      </trkpt>
      <trkpt lat="47.90581" lon="-4.20224">
        <ele>28</ele>
        <time>2022-12-28T11:45:47.122Z</time>
      </trkpt>
      <trkpt lat="47.90503" lon="-4.20276">
        <ele>28</ele>
        <time>2022-12-28T11:45:54.824Z</time>
      </trkpt>
      <trkpt lat="47.90467" lon="-4.20304">
        <ele>27</ele>
        <time>2022-12-28T11:46:02.533Z</time>
      </trkpt>
      <trkpt lat="47.90417" lon="-4.20362">
        <ele>27</ele>
        <time>2022-12-28T11:46:10.252Z</time>
      </trkpt>
      <trkpt lat="47.90326" lon="-4.20492">
        <ele>26</ele>
        <time>2022-12-28T11:46:17.991Z</time>
      </trkpt>
      <trkpt lat="47.90326" lon="-4.20493">
        <ele>25</ele>
        <time>2022-12-28T11:46:25.730Z</time>
      </trkpt>
      <trkpt lat="47.90325" lon="-4.20494">
        <ele>25</ele>
        <time>2022-12-28T11:46:33.469Z</time>
      </trkpt>
      <trkpt lat="47.90325" lon="-4.20494">
        <ele>24</ele>
        <time>2022-12-28T11:46:41.208Z</time>
      </trkpt>
      <trkpt lat="47.90325" lon="-4.20495">
        <ele>24</ele>
        <time>2022-12-28T11:46:48.947Z</time>
      </trkpt>
      <trkpt lat="47.90325" lon="-4.20495">
        <ele>24</ele>
        <time>2022-12-28T11:46:56.686Z</time>
      </trkpt>
      <trkpt lat="47.90317" lon="-4.20506">
        <ele>23</ele>
        <time>2022-12-28T11:47:04.427Z</time>
      </trkpt>
      <trkpt lat="47.90317" lon="-4.20506">
        <ele>23</ele>
        <time>2022-12-28T11:47:12.168Z</time>
      </trkpt>
      <trkpt lat="47.90277" lon="-4.20563">
        <ele>22</ele>
        <time>2022-12-28T11:47:19.918Z</time>
      </trkpt>
      <trkpt lat="47.90202" lon="-4.20661">
        <ele>22</ele>
        <time>2022-12-28T11:47:27.684Z</time>
      </trkpt>
      <trkpt lat="47.9016" lon="-4.2071">
        <ele>21</ele>
        <time>2022-12-28T11:47:35.459Z</time>
      </trkpt>
      <trkpt lat="47.90105" lon="-4.20768">
        <ele>21</ele>
        <time>2022-12-28T11:47:43.244Z</time>
      </trkpt>
      <trkpt lat="47.90062" lon="-4.20805">
        <ele>21</ele>
        <time>2022-12-28T11:47:51.037Z</time>
      </trkpt>
      <trkpt lat="47.90037" lon="-4.20826">
        <ele>21</ele>
        <time>2022-12-28T11:47:58.835Z</time>
      </trkpt>
      <trkpt lat="47.89984" lon="-4.20862">
        <ele>20</ele>
        <time>2022-12-28T11:48:06.642Z</time>
      </trkpt>
      <trkpt lat="47.89936" lon="-4.20891">
        <ele>20</ele>
        <time>2022-12-28T11:48:14.458Z</time>
      </trkpt>
      <trkpt lat="47.89846" lon="-4.20932">
        <ele>20</ele>
        <time>2022-12-28T11:48:22.289Z</time>
      </trkpt>
      <trkpt lat="47.89556" lon="-4.2102">
        <ele>20</ele>
        <time>2022-12-28T11:48:30.167Z</time>
      </trkpt>
      <trkpt lat="47.89345" lon="-4.21079">
        <ele>20</ele>
        <time>2022-12-28T11:48:38.079Z</time>
      </trkpt>
      <trkpt lat="47.89274" lon="-4.21103">
        <ele>20</ele>
        <time>2022-12-28T11:48:46.003Z</time>
      </trkpt>
      <trkpt lat="47.89239" lon="-4.21115">
        <ele>20</ele>
        <time>2022-12-28T11:48:53.933Z</time>
      </trkpt>
      <trkpt lat="47.89199" lon="-4.21141">
        <ele>20</ele>
        <time>2022-12-28T11:49:01.870Z</time>
      </trkpt>
      <trkpt lat="47.89163" lon="-4.21168">
        <ele>20</ele>
        <time>2022-12-28T11:49:09.813Z</time>
      </trkpt>
      <trkpt lat="47.89158" lon="-4.21174">
        <ele>20</ele>
        <time>2022-12-28T11:49:17.757Z</time>
      </trkpt>
      <trkpt lat="47.89127" lon="-4.21208">
        <ele>20</ele>
        <time>2022-12-28T11:49:25.707Z</time>
      </trkpt>
      <trkpt lat="47.89158" lon="-4.21174">
        <ele>20</ele>
        <time>2022-12-28T11:49:33.664Z</time>
      </trkpt>
      <trkpt lat="47.89127" lon="-4.21208">
        <ele>20</ele>
        <time>2022-12-28T11:49:41.627Z</time>
      </trkpt>
      <trkpt lat="47.89106" lon="-4.2124">
        <ele>20</ele>
        <time>2022-12-28T11:49:49.594Z</time>
      </trkpt>
      <trkpt lat="47.89096" lon="-4.21256">
        <ele>20</ele>
        <time>2022-12-28T11:49:57.564Z</time>
      </trkpt>
      <trkpt lat="47.89091" lon="-4.21266">
        <ele>20</ele>
        <time>2022-12-28T11:50:05.535Z</time>
      </trkpt>
      <trkpt lat="47.89081" lon="-4.21282">
        <ele>20</ele>
        <time>2022-12-28T11:50:13.509Z</time>
      </trkpt>
      <trkpt lat="47.8908" lon="-4.21284">
        <ele>20</ele>
        <time>2022-12-28T11:50:21.483Z</time>
      </trkpt>
      <trkpt lat="47.8908" lon="-4.21284">
        <ele>20</ele>
        <time>2022-12-28T11:50:29.457Z</time>
      </trkpt>
      <trkpt lat="47.89032" lon="-4.21383">
        <ele>20</ele>
        <time>2022-12-28T11:50:37.444Z</time>
      </trkpt>
      <trkpt lat="47.89017" lon="-4.21438">
        <ele>20</ele>
        <time>2022-12-28T11:50:45.437Z</time>
      </trkpt>
      <trkpt lat="47.88993" lon="-4.21677">
        <ele>20</ele>
        <time>2022-12-28T11:50:53.456Z</time>
      </trkpt>
      <trkpt lat="47.88992" lon="-4.2169">
        <ele>20</ele>
        <time>2022-12-28T11:51:01.477Z</time>
      </trkpt>
      <trkpt lat="47.8899" lon="-4.2171">
        <ele>20</ele>
        <time>2022-12-28T11:51:09.500Z</time>
      </trkpt>
      <trkpt lat="47.88986" lon="-4.21753">
        <ele>19</ele>
        <time>2022-12-28T11:51:17.528Z</time>
      </trkpt>
      <trkpt lat="47.88966" lon="-4.21865">
        <ele>19</ele>
        <time>2022-12-28T11:51:25.568Z</time>
      </trkpt>
      <trkpt lat="47.88948" lon="-4.21921">
        <ele>19</ele>
        <time>2022-12-28T11:51:33.615Z</time>
      </trkpt>
      <trkpt lat="47.88931" lon="-4.21974">
        <ele>19</ele>
        <time>2022-12-28T11:51:41.668Z</time>
      </trkpt>
      <trkpt lat="47.88928" lon="-4.2198">
        <ele>19</ele>
        <time>2022-12-28T11:51:49.722Z</time>
      </trkpt>
      <trkpt lat="47.88915" lon="-4.22005">
        <ele>19</ele>
        <time>2022-12-28T11:51:57.779Z</time>
      </trkpt>
      <trkpt lat="47.88893" lon="-4.22047">
        <ele>19</ele>
        <time>2022-12-28T11:52:05.842Z</time>
      </trkpt>
      <trkpt lat="47.88906" lon="-4.22022">
        <ele>19</ele>
        <time>2022-12-28T11:52:13.908Z</time>
      </trkpt>
      <trkpt lat="47.88915" lon="-4.22005">
        <ele>19</ele>
        <time>2022-12-28T11:52:21.977Z</time>
      </trkpt>
      <trkpt lat="47.88893" lon="-4.22047">
        <ele>19</ele>
        <time>2022-12-28T11:52:30.051Z</time>
      </trkpt>
      <trkpt lat="47.88888" lon="-4.22057">
        <ele>19</ele>
        <time>2022-12-28T11:52:38.127Z</time>
      </trkpt>
      <trkpt lat="47.88871" lon="-4.22091">
        <ele>18</ele>
        <time>2022-12-28T11:52:46.207Z</time>
      </trkpt>
      <trkpt lat="47.88871" lon="-4.22091">
        <ele>18</ele>
        <time>2022-12-28T11:52:54.287Z</time>
      </trkpt>
      <trkpt lat="47.8887" lon="-4.22092">
        <ele>18</ele>
        <time>2022-12-28T11:53:02.367Z</time>
      </trkpt>
      <trkpt lat="47.8887" lon="-4.22092">
        <ele>18</ele>
        <time>2022-12-28T11:53:10.448Z</time>
      </trkpt>
      <trkpt lat="47.88869" lon="-4.22093">
        <ele>18</ele>
        <time>2022-12-28T11:53:18.529Z</time>
      </trkpt>
      <trkpt lat="47.88869" lon="-4.22093">
        <ele>18</ele>
        <time>2022-12-28T11:53:26.610Z</time>
      </trkpt>
      <trkpt lat="47.88863" lon="-4.22106">
        <ele>18</ele>
        <time>2022-12-28T11:53:34.692Z</time>
      </trkpt>
      <trkpt lat="47.88863" lon="-4.22106">
        <ele>18</ele>
        <time>2022-12-28T11:53:42.774Z</time>
      </trkpt>
      <trkpt lat="47.8885" lon="-4.2213">
        <ele>18</ele>
        <time>2022-12-28T11:53:50.860Z</time>
      </trkpt>
      <trkpt lat="47.88843" lon="-4.22165">
        <ele>18</ele>
        <time>2022-12-28T11:53:58.950Z</time>
      </trkpt>
      <trkpt lat="47.88822" lon="-4.22224">
        <ele>18</ele>
        <time>2022-12-28T11:54:07.047Z</time>
      </trkpt>
      <trkpt lat="47.88819" lon="-4.22306">
        <ele>18</ele>
        <time>2022-12-28T11:54:15.153Z</time>
      </trkpt>
      <trkpt lat="47.8882" lon="-4.22334">
        <ele>18</ele>
        <time>2022-12-28T11:54:23.262Z</time>
      </trkpt>
      <trkpt lat="47.88833" lon="-4.22355">
        <ele>18</ele>
        <time>2022-12-28T11:54:31.374Z</time>
      </trkpt>
      <trkpt lat="47.88866" lon="-4.22386">
        <ele>18</ele>
        <time>2022-12-28T11:54:39.492Z</time>
      </trkpt>
      <trkpt lat="47.88873" lon="-4.22393">
        <ele>19</ele>
        <time>2022-12-28T11:54:47.611Z</time>
      </trkpt>
      <trkpt lat="47.88906" lon="-4.22423">
        <ele>19</ele>
        <time>2022-12-28T11:54:55.737Z</time>
      </trkpt>
      <trkpt lat="47.88931" lon="-4.22437">
        <ele>19</ele>
        <time>2022-12-28T11:55:03.867Z</time>
      </trkpt>
      <trkpt lat="47.88932" lon="-4.22438">
        <ele>19</ele>
        <time>2022-12-28T11:55:11.997Z</time>
      </trkpt>
      <trkpt lat="47.88932" lon="-4.22438">
        <ele>19</ele>
        <time>2022-12-28T11:55:20.127Z</time>
      </trkpt>
      <trkpt lat="47.88932" lon="-4.22438">
        <ele>20</ele>
        <time>2022-12-28T11:55:28.257Z</time>
      </trkpt>
      <trkpt lat="47.88933" lon="-4.22439">
        <ele>20</ele>
        <time>2022-12-28T11:55:36.387Z</time>
      </trkpt>
      <trkpt lat="47.88934" lon="-4.22439">
        <ele>20</ele>
        <time>2022-12-28T11:55:44.517Z</time>
      </trkpt>
      <trkpt lat="47.88944" lon="-4.22444">
        <ele>20</ele>
        <time>2022-12-28T11:55:52.649Z</time>
      </trkpt>
      <trkpt lat="47.88944" lon="-4.22444">
        <ele>21</ele>
        <time>2022-12-28T11:56:00.781Z</time>
      </trkpt>
      <trkpt lat="47.89001" lon="-4.22476">
        <ele>21</ele>
        <time>2022-12-28T11:56:08.923Z</time>
      </trkpt>
      <trkpt lat="47.89021" lon="-4.22483">
        <ele>21</ele>
        <time>2022-12-28T11:56:17.068Z</time>
      </trkpt>
      <trkpt lat="47.89079" lon="-4.22503">
        <ele>22</ele>
        <time>2022-12-28T11:56:25.223Z</time>
      </trkpt>
      <trkpt lat="47.89056" lon="-4.22676">
        <ele>23</ele>
        <time>2022-12-28T11:56:33.397Z</time>
      </trkpt>
      <trkpt lat="47.89056" lon="-4.22677">
        <ele>23</ele>
        <time>2022-12-28T11:56:41.571Z</time>
      </trkpt>
      <trkpt lat="47.89055" lon="-4.22678">
        <ele>23</ele>
        <time>2022-12-28T11:56:49.745Z</time>
      </trkpt>
      <trkpt lat="47.89055" lon="-4.22678">
        <ele>24</ele>
        <time>2022-12-28T11:56:57.919Z</time>
      </trkpt>
      <trkpt lat="47.89055" lon="-4.22679">
        <ele>24</ele>
        <time>2022-12-28T11:57:06.093Z</time>
      </trkpt>
      <trkpt lat="47.89055" lon="-4.2268">
        <ele>24</ele>
        <time>2022-12-28T11:57:14.267Z</time>
      </trkpt>
      <trkpt lat="47.89055" lon="-4.2268">
        <ele>24</ele>
        <time>2022-12-28T11:57:22.441Z</time>
      </trkpt>
      <trkpt lat="47.89046" lon="-4.22751">
        <ele>25</ele>
        <time>2022-12-28T11:57:30.623Z</time>
      </trkpt>
      <trkpt lat="47.89027" lon="-4.22749">
        <ele>25</ele>
        <time>2022-12-28T11:57:38.808Z</time>
      </trkpt>
      <trkpt lat="47.89008" lon="-4.22748">
        <ele>26</ele>
        <time>2022-12-28T11:57:46.996Z</time>
      </trkpt>
      <trkpt lat="47.88998" lon="-4.22752">
        <ele>26</ele>
        <time>2022-12-28T11:57:55.185Z</time>
      </trkpt>
      <trkpt lat="47.88989" lon="-4.22761">
        <ele>26</ele>
        <time>2022-12-28T11:58:03.376Z</time>
      </trkpt>
      <trkpt lat="47.88982" lon="-4.22773">
        <ele>26</ele>
        <time>2022-12-28T11:58:11.569Z</time>
      </trkpt>
      <trkpt lat="47.88972" lon="-4.22803">
        <ele>27</ele>
        <time>2022-12-28T11:58:19.765Z</time>
      </trkpt>
      <trkpt lat="47.88968" lon="-4.22815">
        <ele>27</ele>
        <time>2022-12-28T11:58:27.963Z</time>
      </trkpt>
      <trkpt lat="47.88965" lon="-4.22822">
        <ele>27</ele>
        <time>2022-12-28T11:58:36.162Z</time>
      </trkpt>
      <trkpt lat="47.88927" lon="-4.22931">
        <ele>28</ele>
        <time>2022-12-28T11:58:44.374Z</time>
      </trkpt>
      <trkpt lat="47.88909" lon="-4.2297">
        <ele>28</ele>
        <time>2022-12-28T11:58:52.591Z</time>
      </trkpt>
      <trkpt lat="47.88909" lon="-4.22971">
        <ele>28</ele>
        <time>2022-12-28T11:59:00.808Z</time>
      </trkpt>
      <trkpt lat="47.88909" lon="-4.22971">
        <ele>28</ele>
        <time>2022-12-28T11:59:09.025Z</time>
      </trkpt>
      <trkpt lat="47.88909" lon="-4.22971">
        <ele>28</ele>
        <time>2022-12-28T11:59:17.242Z</time>
      </trkpt>
      <trkpt lat="47.88908" lon="-4.22973">
        <ele>28</ele>
        <time>2022-12-28T11:59:25.459Z</time>
      </trkpt>
      <trkpt lat="47.88908" lon="-4.22973">
        <ele>29</ele>
        <time>2022-12-28T11:59:33.676Z</time>
      </trkpt>
      <trkpt lat="47.88902" lon="-4.22988">
        <ele>29</ele>
        <time>2022-12-28T11:59:41.895Z</time>
      </trkpt>
      <trkpt lat="47.88888" lon="-4.23006">
        <ele>29</ele>
        <time>2022-12-28T11:59:50.117Z</time>
      </trkpt>
      <trkpt lat="47.88871" lon="-4.23014">
        <ele>29</ele>
        <time>2022-12-28T11:59:58.342Z</time>
      </trkpt>
      <trkpt lat="47.88846" lon="-4.23017">
        <ele>29</ele>
        <time>2022-12-28T12:00:06.571Z</time>
      </trkpt>
      <trkpt lat="47.88802" lon="-4.23021">
        <ele>29</ele>
        <time>2022-12-28T12:00:14.807Z</time>
      </trkpt>
      <trkpt lat="47.88793" lon="-4.23021">
        <ele>29</ele>
        <time>2022-12-28T12:00:23.045Z</time>
      </trkpt>
      <trkpt lat="47.88776" lon="-4.23023">
        <ele>29</ele>
        <time>2022-12-28T12:00:31.285Z</time>
      </trkpt>
      <trkpt lat="47.88715" lon="-4.23037">
        <ele>29</ele>
        <time>2022-12-28T12:00:39.535Z</time>
      </trkpt>
      <trkpt lat="47.88706" lon="-4.23039">
        <ele>29</ele>
        <time>2022-12-28T12:00:47.787Z</time>
      </trkpt>
      <trkpt lat="47.887" lon="-4.2304">
        <ele>29</ele>
        <time>2022-12-28T12:00:56.040Z</time>
      </trkpt>
      <trkpt lat="47.88683" lon="-4.232">
        <ele>29</ele>
        <time>2022-12-28T12:01:04.310Z</time>
      </trkpt>
      <trkpt lat="47.88678" lon="-4.23246">
        <ele>29</ele>
        <time>2022-12-28T12:01:12.585Z</time>
      </trkpt>
      <trkpt lat="47.88683" lon="-4.23277">
        <ele>29</ele>
        <time>2022-12-28T12:01:20.864Z</time>
      </trkpt>
      <trkpt lat="47.88689" lon="-4.23294">
        <ele>29</ele>
        <time>2022-12-28T12:01:29.145Z</time>
      </trkpt>
      <trkpt lat="47.88693" lon="-4.23306">
        <ele>28</ele>
        <time>2022-12-28T12:01:37.427Z</time>
      </trkpt>
      <trkpt lat="47.88694" lon="-4.23308">
        <ele>28</ele>
        <time>2022-12-28T12:01:45.709Z</time>
      </trkpt>
      <trkpt lat="47.88697" lon="-4.23314">
        <ele>28</ele>
        <time>2022-12-28T12:01:53.992Z</time>
      </trkpt>
      <trkpt lat="47.88708" lon="-4.23328">
        <ele>28</ele>
        <time>2022-12-28T12:02:02.277Z</time>
      </trkpt>
      <trkpt lat="47.88726" lon="-4.23344">
        <ele>28</ele>
        <time>2022-12-28T12:02:10.566Z</time>
      </trkpt>
      <trkpt lat="47.88724" lon="-4.23358">
        <ele>28</ele>
        <time>2022-12-28T12:02:18.856Z</time>
      </trkpt>
      <trkpt lat="47.88713" lon="-4.23404">
        <ele>27</ele>
        <time>2022-12-28T12:02:27.152Z</time>
      </trkpt>
      <trkpt lat="47.88713" lon="-4.23404">
        <ele>27</ele>
        <time>2022-12-28T12:02:35.448Z</time>
      </trkpt>
      <trkpt lat="47.88713" lon="-4.23405">
        <ele>27</ele>
        <time>2022-12-28T12:02:43.744Z</time>
      </trkpt>
      <trkpt lat="47.88713" lon="-4.23406">
        <ele>27</ele>
        <time>2022-12-28T12:02:52.040Z</time>
      </trkpt>
      <trkpt lat="47.88712" lon="-4.23407">
        <ele>26</ele>
        <time>2022-12-28T12:03:00.336Z</time>
      </trkpt>
      <trkpt lat="47.88712" lon="-4.23408">
        <ele>26</ele>
        <time>2022-12-28T12:03:08.632Z</time>
      </trkpt>
      <trkpt lat="47.88712" lon="-4.23408">
        <ele>26</ele>
        <time>2022-12-28T12:03:16.928Z</time>
      </trkpt>
      <trkpt lat="47.88698" lon="-4.23469">
        <ele>25</ele>
        <time>2022-12-28T12:03:25.231Z</time>
      </trkpt>
      <trkpt lat="47.88663" lon="-4.23529">
        <ele>25</ele>
        <time>2022-12-28T12:03:33.543Z</time>
      </trkpt>
      <trkpt lat="47.88659" lon="-4.23538">
        <ele>25</ele>
        <time>2022-12-28T12:03:41.856Z</time>
      </trkpt>
      <trkpt lat="47.88619" lon="-4.23475">
        <ele>24</ele>
        <time>2022-12-28T12:03:50.178Z</time>
      </trkpt>
      <trkpt lat="47.88616" lon="-4.2347">
        <ele>23</ele>
        <time>2022-12-28T12:03:58.501Z</time>
      </trkpt>
      <trkpt lat="47.88619" lon="-4.23475">
        <ele>23</ele>
        <time>2022-12-28T12:04:06.824Z</time>
      </trkpt>
      <trkpt lat="47.88616" lon="-4.2347">
        <ele>23</ele>
        <time>2022-12-28T12:04:15.148Z</time>
      </trkpt>
      <trkpt lat="47.88614" lon="-4.23467">
        <ele>21</ele>
        <time>2022-12-28T12:04:23.473Z</time>
      </trkpt>
      <trkpt lat="47.88583" lon="-4.23429">
        <ele>21</ele>
        <time>2022-12-28T12:04:31.804Z</time>
      </trkpt>
      <trkpt lat="47.88571" lon="-4.23433">
        <ele>20</ele>
        <time>2022-12-28T12:04:40.137Z</time>
      </trkpt>
      <trkpt lat="47.88564" lon="-4.23438">
        <ele>20</ele>
        <time>2022-12-28T12:04:48.471Z</time>
      </trkpt>
      <trkpt lat="47.88555" lon="-4.23456">
        <ele>19</ele>
        <time>2022-12-28T12:04:56.808Z</time>
      </trkpt>
      <trkpt lat="47.88555" lon="-4.23456">
        <ele>19</ele>
        <time>2022-12-28T12:05:05.145Z</time>
      </trkpt>
      <trkpt lat="47.88554" lon="-4.23457">
        <ele>19</ele>
        <time>2022-12-28T12:05:13.482Z</time>
      </trkpt>
      <trkpt lat="47.88554" lon="-4.23457">
        <ele>18</ele>
        <time>2022-12-28T12:05:21.819Z</time>
      </trkpt>
      <trkpt lat="47.88554" lon="-4.23459">
        <ele>18</ele>
        <time>2022-12-28T12:05:30.156Z</time>
      </trkpt>
      <trkpt lat="47.88553" lon="-4.23459">
        <ele>18</ele>
        <time>2022-12-28T12:05:38.493Z</time>
      </trkpt>
      <trkpt lat="47.88553" lon="-4.23459">
        <ele>17</ele>
        <time>2022-12-28T12:05:46.830Z</time>
      </trkpt>
      <trkpt lat="47.88547" lon="-4.23472">
        <ele>17</ele>
        <time>2022-12-28T12:05:55.169Z</time>
      </trkpt>
      <trkpt lat="47.88547" lon="-4.23472">
        <ele>17</ele>
        <time>2022-12-28T12:06:03.508Z</time>
      </trkpt>
      <trkpt lat="47.88542" lon="-4.23481">
        <ele>16</ele>
        <time>2022-12-28T12:06:11.848Z</time>
      </trkpt>
      <trkpt lat="47.88532" lon="-4.23506">
        <ele>16</ele>
        <time>2022-12-28T12:06:20.191Z</time>
      </trkpt>
      <trkpt lat="47.8853" lon="-4.23512">
        <ele>16</ele>
        <time>2022-12-28T12:06:28.535Z</time>
      </trkpt>
      <trkpt lat="47.88519" lon="-4.23573">
        <ele>14</ele>
        <time>2022-12-28T12:06:36.886Z</time>
      </trkpt>
      <trkpt lat="47.8853" lon="-4.23512">
        <ele>15</ele>
        <time>2022-12-28T12:06:45.244Z</time>
      </trkpt>
      <trkpt lat="47.88519" lon="-4.23573">
        <ele>14</ele>
        <time>2022-12-28T12:06:53.608Z</time>
      </trkpt>
      <trkpt lat="47.88519" lon="-4.23574">
        <ele>14</ele>
        <time>2022-12-28T12:07:01.973Z</time>
      </trkpt>
      <trkpt lat="47.88518" lon="-4.23575">
        <ele>14</ele>
        <time>2022-12-28T12:07:10.338Z</time>
      </trkpt>
      <trkpt lat="47.88518" lon="-4.23575">
        <ele>14</ele>
        <time>2022-12-28T12:07:18.703Z</time>
      </trkpt>
      <trkpt lat="47.88518" lon="-4.23577">
        <ele>14</ele>
        <time>2022-12-28T12:07:27.068Z</time>
      </trkpt>
      <trkpt lat="47.88518" lon="-4.23577">
        <ele>14</ele>
        <time>2022-12-28T12:07:35.433Z</time>
      </trkpt>
      <trkpt lat="47.88515" lon="-4.23593">
        <ele>14</ele>
        <time>2022-12-28T12:07:43.800Z</time>
      </trkpt>
      <trkpt lat="47.88515" lon="-4.23593">
        <ele>13</ele>
        <time>2022-12-28T12:07:52.167Z</time>
      </trkpt>
      <trkpt lat="47.88505" lon="-4.23645">
        <ele>14</ele>
        <time>2022-12-28T12:08:00.540Z</time>
      </trkpt>
      <trkpt lat="47.88541" lon="-4.23647">
        <ele>13</ele>
        <time>2022-12-28T12:08:08.918Z</time>
      </trkpt>
      <trkpt lat="47.88541" lon="-4.23661">
        <ele>14</ele>
        <time>2022-12-28T12:08:17.298Z</time>
      </trkpt>
      <trkpt lat="47.88534" lon="-4.23682">
        <ele>14</ele>
        <time>2022-12-28T12:08:25.680Z</time>
      </trkpt>
      <trkpt lat="47.88536" lon="-4.23693">
        <ele>14</ele>
        <time>2022-12-28T12:08:34.064Z</time>
      </trkpt>
      <trkpt lat="47.88537" lon="-4.23699">
        <ele>14</ele>
        <time>2022-12-28T12:08:42.448Z</time>
      </trkpt>
      <trkpt lat="47.8854" lon="-4.23705">
        <ele>14</ele>
        <time>2022-12-28T12:08:50.833Z</time>
      </trkpt>
      <trkpt lat="47.88545" lon="-4.23716">
        <ele>14</ele>
        <time>2022-12-28T12:08:59.219Z</time>
      </trkpt>
      <trkpt lat="47.88547" lon="-4.23719">
        <ele>14</ele>
        <time>2022-12-28T12:09:07.606Z</time>
      </trkpt>
      <trkpt lat="47.88547" lon="-4.23719">
        <ele>14</ele>
        <time>2022-12-28T12:09:15.993Z</time>
      </trkpt>
      <trkpt lat="47.88553" lon="-4.23727">
        <ele>14</ele>
        <time>2022-12-28T12:09:24.381Z</time>
      </trkpt>
      <trkpt lat="47.88556" lon="-4.23726">
        <ele>14</ele>
        <time>2022-12-28T12:09:32.770Z</time>
      </trkpt>
      <trkpt lat="47.88563" lon="-4.23723">
        <ele>14</ele>
        <time>2022-12-28T12:09:41.160Z</time>
      </trkpt>
      <trkpt lat="47.88576" lon="-4.23755">
        <ele>14</ele>
        <time>2022-12-28T12:09:49.554Z</time>
      </trkpt>
      <trkpt lat="47.88576" lon="-4.23755">
        <ele>14</ele>
        <time>2022-12-28T12:09:57.948Z</time>
      </trkpt>
      <trkpt lat="47.88578" lon="-4.23759">
        <ele>14</ele>
        <time>2022-12-28T12:10:06.343Z</time>
      </trkpt>
      <trkpt lat="47.88578" lon="-4.23761">
        <ele>14</ele>
        <time>2022-12-28T12:10:14.738Z</time>
      </trkpt>
      <trkpt lat="47.88578" lon="-4.23762">
        <ele>14</ele>
        <time>2022-12-28T12:10:23.133Z</time>
      </trkpt>
      <trkpt lat="47.88579" lon="-4.23763">
        <ele>14</ele>
        <time>2022-12-28T12:10:31.528Z</time>
      </trkpt>
      <trkpt lat="47.88579" lon="-4.23763">
        <ele>14</ele>
        <time>2022-12-28T12:10:39.923Z</time>
      </trkpt>
      <trkpt lat="47.8858" lon="-4.2377">
        <ele>14</ele>
        <time>2022-12-28T12:10:48.319Z</time>
      </trkpt>
      <trkpt lat="47.8858" lon="-4.2377">
        <ele>14</ele>
        <time>2022-12-28T12:10:56.715Z</time>
      </trkpt>
      <trkpt lat="47.88582" lon="-4.23778">
        <ele>14</ele>
        <time>2022-12-28T12:11:05.112Z</time>
      </trkpt>
      <trkpt lat="47.88687" lon="-4.23883">
        <ele>14</ele>
        <time>2022-12-28T12:11:13.529Z</time>
      </trkpt>
      <trkpt lat="47.88706" lon="-4.23897">
        <ele>14</ele>
        <time>2022-12-28T12:11:21.949Z</time>
      </trkpt>
      <trkpt lat="47.88706" lon="-4.23924">
        <ele>14</ele>
        <time>2022-12-28T12:11:30.372Z</time>
      </trkpt>
      <trkpt lat="47.88712" lon="-4.23952">
        <ele>14</ele>
        <time>2022-12-28T12:11:38.798Z</time>
      </trkpt>
      <trkpt lat="47.88715" lon="-4.23974">
        <ele>14</ele>
        <time>2022-12-28T12:11:47.227Z</time>
      </trkpt>
      <trkpt lat="47.88711" lon="-4.23996">
        <ele>14</ele>
        <time>2022-12-28T12:11:55.658Z</time>
      </trkpt>
      <trkpt lat="47.88685" lon="-4.24081">
        <ele>14</ele>
        <time>2022-12-28T12:12:04.099Z</time>
      </trkpt>
      <trkpt lat="47.88678" lon="-4.24116">
        <ele>14</ele>
        <time>2022-12-28T12:12:12.544Z</time>
      </trkpt>
      <trkpt lat="47.88675" lon="-4.24135">
        <ele>14</ele>
        <time>2022-12-28T12:12:20.991Z</time>
      </trkpt>
      <trkpt lat="47.88674" lon="-4.24147">
        <ele>14</ele>
        <time>2022-12-28T12:12:29.440Z</time>
      </trkpt>
      <trkpt lat="47.8867" lon="-4.24174">
        <ele>14</ele>
        <time>2022-12-28T12:12:37.892Z</time>
      </trkpt>
      <trkpt lat="47.88671" lon="-4.24194">
        <ele>14</ele>
        <time>2022-12-28T12:12:46.346Z</time>
      </trkpt>
      <trkpt lat="47.88684" lon="-4.24216">
        <ele>14</ele>
        <time>2022-12-28T12:12:54.803Z</time>
      </trkpt>
      <trkpt lat="47.88695" lon="-4.24221">
        <ele>14</ele>
        <time>2022-12-28T12:13:03.262Z</time>
      </trkpt>
      <trkpt lat="47.88733" lon="-4.24195">
        <ele>14</ele>
        <time>2022-12-28T12:13:11.728Z</time>
      </trkpt>
      <trkpt lat="47.88785" lon="-4.24182">
        <ele>14</ele>
        <time>2022-12-28T12:13:20.202Z</time>
      </trkpt>
      <trkpt lat="47.88835" lon="-4.24166">
        <ele>15</ele>
        <time>2022-12-28T12:13:28.684Z</time>
      </trkpt>
      <trkpt lat="47.88835" lon="-4.24166">
        <ele>15</ele>
        <time>2022-12-28T12:13:37.166Z</time>
      </trkpt>
      <trkpt lat="47.88839" lon="-4.24164">
        <ele>15</ele>
        <time>2022-12-28T12:13:45.649Z</time>
      </trkpt>
      <trkpt lat="47.8884" lon="-4.24164">
        <ele>15</ele>
        <time>2022-12-28T12:13:54.132Z</time>
      </trkpt>
      <trkpt lat="47.88841" lon="-4.24164">
        <ele>15</ele>
        <time>2022-12-28T12:14:02.615Z</time>
      </trkpt>
      <trkpt lat="47.88841" lon="-4.24164">
        <ele>15</ele>
        <time>2022-12-28T12:14:11.098Z</time>
      </trkpt>
      <trkpt lat="47.88846" lon="-4.24162">
        <ele>15</ele>
        <time>2022-12-28T12:14:19.582Z</time>
      </trkpt>
      <trkpt lat="47.88846" lon="-4.24162">
        <ele>15</ele>
        <time>2022-12-28T12:14:28.066Z</time>
      </trkpt>
      <trkpt lat="47.88862" lon="-4.24157">
        <ele>15</ele>
        <time>2022-12-28T12:14:36.553Z</time>
      </trkpt>
      <trkpt lat="47.88873" lon="-4.24158">
        <ele>15</ele>
        <time>2022-12-28T12:14:45.041Z</time>
      </trkpt>
      <trkpt lat="47.88885" lon="-4.24166">
        <ele>15</ele>
        <time>2022-12-28T12:14:53.531Z</time>
      </trkpt>
      <trkpt lat="47.88917" lon="-4.24226">
        <ele>15</ele>
        <time>2022-12-28T12:15:02.030Z</time>
      </trkpt>
      <trkpt lat="47.88924" lon="-4.2424">
        <ele>15</ele>
        <time>2022-12-28T12:15:10.531Z</time>
      </trkpt>
      <trkpt lat="47.88951" lon="-4.24255">
        <ele>15</ele>
        <time>2022-12-28T12:15:19.036Z</time>
      </trkpt>
      <trkpt lat="47.88963" lon="-4.24254">
        <ele>15</ele>
        <time>2022-12-28T12:15:27.543Z</time>
      </trkpt>
      <trkpt lat="47.88973" lon="-4.24243">
        <ele>15</ele>
        <time>2022-12-28T12:15:36.052Z</time>
      </trkpt>
      <trkpt lat="47.88976" lon="-4.24232">
        <ele>15</ele>
        <time>2022-12-28T12:15:44.562Z</time>
      </trkpt>
      <trkpt lat="47.88984" lon="-4.24159">
        <ele>15</ele>
        <time>2022-12-28T12:15:53.080Z</time>
      </trkpt>
      <trkpt lat="47.88995" lon="-4.24114">
        <ele>15</ele>
        <time>2022-12-28T12:16:01.603Z</time>
      </trkpt>
      <trkpt lat="47.89003" lon="-4.24095">
        <ele>15</ele>
        <time>2022-12-28T12:16:10.129Z</time>
      </trkpt>
      <trkpt lat="47.89004" lon="-4.24073">
        <ele>15</ele>
        <time>2022-12-28T12:16:18.657Z</time>
      </trkpt>
      <trkpt lat="47.89109" lon="-4.24092">
        <ele>15</ele>
        <time>2022-12-28T12:16:27.202Z</time>
      </trkpt>
      <trkpt lat="47.89113" lon="-4.24093">
        <ele>15</ele>
        <time>2022-12-28T12:16:35.748Z</time>
      </trkpt>
      <trkpt lat="47.89113" lon="-4.24094">
        <ele>15</ele>
        <time>2022-12-28T12:16:44.294Z</time>
      </trkpt>
      <trkpt lat="47.89117" lon="-4.24096">
        <ele>15</ele>
        <time>2022-12-28T12:16:52.840Z</time>
      </trkpt>
      <trkpt lat="47.89118" lon="-4.24096">
        <ele>15</ele>
        <time>2022-12-28T12:17:01.386Z</time>
      </trkpt>
      <trkpt lat="47.89119" lon="-4.24096">
        <ele>15</ele>
        <time>2022-12-28T12:17:09.933Z</time>
      </trkpt>
      <trkpt lat="47.89119" lon="-4.24096">
        <ele>15</ele>
        <time>2022-12-28T12:17:18.480Z</time>
      </trkpt>
      <trkpt lat="47.89124" lon="-4.24099">
        <ele>14</ele>
        <time>2022-12-28T12:17:27.027Z</time>
      </trkpt>
      <trkpt lat="47.89124" lon="-4.24099">
        <ele>14</ele>
        <time>2022-12-28T12:17:35.574Z</time>
      </trkpt>
      <trkpt lat="47.89184" lon="-4.24126">
        <ele>14</ele>
        <time>2022-12-28T12:17:44.132Z</time>
      </trkpt>
      <trkpt lat="47.89191" lon="-4.2413">
        <ele>14</ele>
        <time>2022-12-28T12:17:52.691Z</time>
      </trkpt>
      <trkpt lat="47.89192" lon="-4.2413">
        <ele>14</ele>
        <time>2022-12-28T12:18:01.250Z</time>
      </trkpt>
      <trkpt lat="47.89229" lon="-4.24147">
        <ele>14</ele>
        <time>2022-12-28T12:18:09.815Z</time>
      </trkpt>
      <trkpt lat="47.89241" lon="-4.24167">
        <ele>13</ele>
        <time>2022-12-28T12:18:18.383Z</time>
      </trkpt>
      <trkpt lat="47.89248" lon="-4.24189">
        <ele>13</ele>
        <time>2022-12-28T12:18:26.954Z</time>
      </trkpt>
      <trkpt lat="47.89329" lon="-4.24251">
        <ele>13</ele>
        <time>2022-12-28T12:18:35.539Z</time>
      </trkpt>
      <trkpt lat="47.89346" lon="-4.24249">
        <ele>13</ele>
        <time>2022-12-28T12:18:44.127Z</time>
      </trkpt>
      <trkpt lat="47.89396" lon="-4.24221">
        <ele>13</ele>
        <time>2022-12-28T12:18:52.724Z</time>
      </trkpt>
      <trkpt lat="47.89409" lon="-4.24221">
        <ele>13</ele>
        <time>2022-12-28T12:19:01.323Z</time>
      </trkpt>
      <trkpt lat="47.89431" lon="-4.2424">
        <ele>13</ele>
        <time>2022-12-28T12:19:09.926Z</time>
      </trkpt>
      <trkpt lat="47.89448" lon="-4.24265">
        <ele>12</ele>
        <time>2022-12-28T12:19:18.532Z</time>
      </trkpt>
      <trkpt lat="47.89453" lon="-4.24289">
        <ele>12</ele>
        <time>2022-12-28T12:19:27.141Z</time>
      </trkpt>
      <trkpt lat="47.89452" lon="-4.24319">
        <ele>12</ele>
        <time>2022-12-28T12:19:35.753Z</time>
      </trkpt>
      <trkpt lat="47.89452" lon="-4.24327">
        <ele>12</ele>
        <time>2022-12-28T12:19:44.366Z</time>
      </trkpt>
      <trkpt lat="47.89449" lon="-4.24358">
        <ele>12</ele>
        <time>2022-12-28T12:19:52.983Z</time>
      </trkpt>
      <trkpt lat="47.89446" lon="-4.24367">
        <ele>12</ele>
        <time>2022-12-28T12:20:01.601Z</time>
      </trkpt>
      <trkpt lat="47.89443" lon="-4.24379">
        <ele>12</ele>
        <time>2022-12-28T12:20:10.220Z</time>
      </trkpt>
      <trkpt lat="47.8944" lon="-4.2439">
        <ele>12</ele>
        <time>2022-12-28T12:20:18.840Z</time>
      </trkpt>
      <trkpt lat="47.89434" lon="-4.24451">
        <ele>12</ele>
        <time>2022-12-28T12:20:27.467Z</time>
      </trkpt>
      <trkpt lat="47.89429" lon="-4.24556">
        <ele>12</ele>
        <time>2022-12-28T12:20:36.105Z</time>
      </trkpt>
      <trkpt lat="47.8943" lon="-4.24627">
        <ele>11</ele>
        <time>2022-12-28T12:20:44.751Z</time>
      </trkpt>
      <trkpt lat="47.8944" lon="-4.24695">
        <ele>12</ele>
        <time>2022-12-28T12:20:53.404Z</time>
      </trkpt>
      <trkpt lat="47.89447" lon="-4.24713">
        <ele>12</ele>
        <time>2022-12-28T12:21:02.060Z</time>
      </trkpt>
      <trkpt lat="47.89448" lon="-4.24715">
        <ele>12</ele>
        <time>2022-12-28T12:21:10.716Z</time>
      </trkpt>
      <trkpt lat="47.89448" lon="-4.24715">
        <ele>12</ele>
        <time>2022-12-28T12:21:19.372Z</time>
      </trkpt>
      <trkpt lat="47.8945" lon="-4.24721">
        <ele>12</ele>
        <time>2022-12-28T12:21:28.029Z</time>
      </trkpt>
      <trkpt lat="47.8945" lon="-4.24722">
        <ele>12</ele>
        <time>2022-12-28T12:21:36.686Z</time>
      </trkpt>
      <trkpt lat="47.8945" lon="-4.24723">
        <ele>12</ele>
        <time>2022-12-28T12:21:45.343Z</time>
      </trkpt>
      <trkpt lat="47.89451" lon="-4.24723">
        <ele>12</ele>
        <time>2022-12-28T12:21:54.000Z</time>
      </trkpt>
      <trkpt lat="47.89453" lon="-4.2473">
        <ele>13</ele>
        <time>2022-12-28T12:22:02.658Z</time>
      </trkpt>
      <trkpt lat="47.89453" lon="-4.2473">
        <ele>13</ele>
        <time>2022-12-28T12:22:11.316Z</time>
      </trkpt>
      <trkpt lat="47.89455" lon="-4.24738">
        <ele>13</ele>
        <time>2022-12-28T12:22:19.975Z</time>
      </trkpt>
      <trkpt lat="47.89478" lon="-4.24774">
        <ele>13</ele>
        <time>2022-12-28T12:22:28.639Z</time>
      </trkpt>
      <trkpt lat="47.89504" lon="-4.24799">
        <ele>14</ele>
        <time>2022-12-28T12:22:37.308Z</time>
      </trkpt>
      <trkpt lat="47.89516" lon="-4.24801">
        <ele>14</ele>
        <time>2022-12-28T12:22:45.979Z</time>
      </trkpt>
      <trkpt lat="47.89519" lon="-4.24799">
        <ele>15</ele>
        <time>2022-12-28T12:22:54.650Z</time>
      </trkpt>
      <trkpt lat="47.89522" lon="-4.24798">
        <ele>15</ele>
        <time>2022-12-28T12:23:03.322Z</time>
      </trkpt>
      <trkpt lat="47.89519" lon="-4.24804">
        <ele>15</ele>
        <time>2022-12-28T12:23:11.995Z</time>
      </trkpt>
      <trkpt lat="47.89514" lon="-4.24814">
        <ele>16</ele>
        <time>2022-12-28T12:23:20.669Z</time>
      </trkpt>
      <trkpt lat="47.89509" lon="-4.24868">
        <ele>16</ele>
        <time>2022-12-28T12:23:29.349Z</time>
      </trkpt>
      <trkpt lat="47.89507" lon="-4.24907">
        <ele>17</ele>
        <time>2022-12-28T12:23:38.033Z</time>
      </trkpt>
      <trkpt lat="47.89511" lon="-4.24941">
        <ele>18</ele>
        <time>2022-12-28T12:23:46.721Z</time>
      </trkpt>
      <trkpt lat="47.8952" lon="-4.24978">
        <ele>18</ele>
        <time>2022-12-28T12:23:55.413Z</time>
      </trkpt>
      <trkpt lat="47.89541" lon="-4.25044">
        <ele>19</ele>
        <time>2022-12-28T12:24:04.113Z</time>
      </trkpt>
      <trkpt lat="47.89572" lon="-4.25132">
        <ele>20</ele>
        <time>2022-12-28T12:24:12.824Z</time>
      </trkpt>
      <trkpt lat="47.89637" lon="-4.25265">
        <ele>21</ele>
        <time>2022-12-28T12:24:21.552Z</time>
      </trkpt>
      <trkpt lat="47.8965" lon="-4.25294">
        <ele>21</ele>
        <time>2022-12-28T12:24:30.284Z</time>
      </trkpt>
      <trkpt lat="47.89654" lon="-4.25324">
        <ele>22</ele>
        <time>2022-12-28T12:24:39.019Z</time>
      </trkpt>
      <trkpt lat="47.89656" lon="-4.25397">
        <ele>23</ele>
        <time>2022-12-28T12:24:47.762Z</time>
      </trkpt>
      <trkpt lat="47.89655" lon="-4.25451">
        <ele>24</ele>
        <time>2022-12-28T12:24:56.511Z</time>
      </trkpt>
      <trkpt lat="47.89658" lon="-4.25492">
        <ele>24</ele>
        <time>2022-12-28T12:25:05.264Z</time>
      </trkpt>
      <trkpt lat="47.89666" lon="-4.25516">
        <ele>25</ele>
        <time>2022-12-28T12:25:14.020Z</time>
      </trkpt>
      <trkpt lat="47.89682" lon="-4.2555">
        <ele>26</ele>
        <time>2022-12-28T12:25:22.781Z</time>
      </trkpt>
      <trkpt lat="47.89704" lon="-4.25584">
        <ele>27</ele>
        <time>2022-12-28T12:25:31.547Z</time>
      </trkpt>
      <trkpt lat="47.89742" lon="-4.2563">
        <ele>28</ele>
        <time>2022-12-28T12:25:40.321Z</time>
      </trkpt>
      <trkpt lat="47.89732" lon="-4.25644">
        <ele>29</ele>
        <time>2022-12-28T12:25:49.097Z</time>
      </trkpt>
      <trkpt lat="47.89724" lon="-4.25659">
        <ele>29</ele>
        <time>2022-12-28T12:25:57.875Z</time>
      </trkpt>
      <trkpt lat="47.89707" lon="-4.25703">
        <ele>30</ele>
        <time>2022-12-28T12:26:06.658Z</time>
      </trkpt>
      <trkpt lat="47.8969" lon="-4.25731">
        <ele>31</ele>
        <time>2022-12-28T12:26:15.445Z</time>
      </trkpt>
      <trkpt lat="47.89681" lon="-4.25752">
        <ele>32</ele>
        <time>2022-12-28T12:26:24.235Z</time>
      </trkpt>
      <trkpt lat="47.89679" lon="-4.25766">
        <ele>32</ele>
        <time>2022-12-28T12:26:33.027Z</time>
      </trkpt>
      <trkpt lat="47.89675" lon="-4.25802">
        <ele>33</ele>
        <time>2022-12-28T12:26:41.823Z</time>
      </trkpt>
      <trkpt lat="47.89673" lon="-4.2581">
        <ele>33</ele>
        <time>2022-12-28T12:26:50.620Z</time>
      </trkpt>
      <trkpt lat="47.89611" lon="-4.26027">
        <ele>35</ele>
        <time>2022-12-28T12:26:59.442Z</time>
      </trkpt>
      <trkpt lat="47.89604" lon="-4.26072">
        <ele>35</ele>
        <time>2022-12-28T12:27:08.269Z</time>
      </trkpt>
      <trkpt lat="47.89604" lon="-4.26098">
        <ele>36</ele>
        <time>2022-12-28T12:27:17.099Z</time>
      </trkpt>
      <trkpt lat="47.89609" lon="-4.26123">
        <ele>36</ele>
        <time>2022-12-28T12:27:25.932Z</time>
      </trkpt>
      <trkpt lat="47.89615" lon="-4.2614">
        <ele>37</ele>
        <time>2022-12-28T12:27:34.767Z</time>
      </trkpt>
      <trkpt lat="47.89645" lon="-4.26182">
        <ele>37</ele>
        <time>2022-12-28T12:27:43.608Z</time>
      </trkpt>
      <trkpt lat="47.89657" lon="-4.262">
        <ele>38</ele>
        <time>2022-12-28T12:27:52.452Z</time>
      </trkpt>
      <trkpt lat="47.89668" lon="-4.26223">
        <ele>38</ele>
        <time>2022-12-28T12:28:01.299Z</time>
      </trkpt>
      <trkpt lat="47.8969" lon="-4.2628">
        <ele>39</ele>
        <time>2022-12-28T12:28:10.153Z</time>
      </trkpt>
      <trkpt lat="47.89694" lon="-4.26287">
        <ele>39</ele>
        <time>2022-12-28T12:28:19.008Z</time>
      </trkpt>
      <trkpt lat="47.89694" lon="-4.26287">
        <ele>39</ele>
        <time>2022-12-28T12:28:27.863Z</time>
      </trkpt>
      <trkpt lat="47.89695" lon="-4.26291">
        <ele>40</ele>
        <time>2022-12-28T12:28:36.719Z</time>
      </trkpt>
      <trkpt lat="47.89696" lon="-4.26297">
        <ele>40</ele>
        <time>2022-12-28T12:28:45.575Z</time>
      </trkpt>
      <trkpt lat="47.897" lon="-4.26299">
        <ele>40</ele>
        <time>2022-12-28T12:28:54.432Z</time>
      </trkpt>
      <trkpt lat="47.89696" lon="-4.26297">
        <ele>40</ele>
        <time>2022-12-28T12:29:03.290Z</time>
      </trkpt>
      <trkpt lat="47.89696" lon="-4.26305">
        <ele>40</ele>
        <time>2022-12-28T12:29:12.148Z</time>
      </trkpt>
      <trkpt lat="47.89693" lon="-4.26318">
        <ele>41</ele>
        <time>2022-12-28T12:29:21.008Z</time>
      </trkpt>
      <trkpt lat="47.8966" lon="-4.26385">
        <ele>41</ele>
        <time>2022-12-28T12:29:29.877Z</time>
      </trkpt>
      <trkpt lat="47.89654" lon="-4.26403">
        <ele>41</ele>
        <time>2022-12-28T12:29:38.748Z</time>
      </trkpt>
      <trkpt lat="47.89648" lon="-4.26423">
        <ele>41</ele>
        <time>2022-12-28T12:29:47.621Z</time>
      </trkpt>
      <trkpt lat="47.89645" lon="-4.26436">
        <ele>41</ele>
        <time>2022-12-28T12:29:56.496Z</time>
      </trkpt>
      <trkpt lat="47.89644" lon="-4.26458">
        <ele>41</ele>
        <time>2022-12-28T12:30:05.373Z</time>
      </trkpt>
      <trkpt lat="47.89645" lon="-4.26476">
        <ele>41</ele>
        <time>2022-12-28T12:30:14.252Z</time>
      </trkpt>
      <trkpt lat="47.89648" lon="-4.26596">
        <ele>41</ele>
        <time>2022-12-28T12:30:23.144Z</time>
      </trkpt>
      <trkpt lat="47.89646" lon="-4.26631">
        <ele>41</ele>
        <time>2022-12-28T12:30:32.040Z</time>
      </trkpt>
      <trkpt lat="47.89642" lon="-4.26652">
        <ele>41</ele>
        <time>2022-12-28T12:30:40.938Z</time>
      </trkpt>
      <trkpt lat="47.89637" lon="-4.26669">
        <ele>41</ele>
        <time>2022-12-28T12:30:49.838Z</time>
      </trkpt>
      <trkpt lat="47.89629" lon="-4.26686">
        <ele>41</ele>
        <time>2022-12-28T12:30:58.740Z</time>
      </trkpt>
      <trkpt lat="47.89615" lon="-4.26707">
        <ele>41</ele>
        <time>2022-12-28T12:31:07.646Z</time>
      </trkpt>
      <trkpt lat="47.89564" lon="-4.26782">
        <ele>41</ele>
        <time>2022-12-28T12:31:16.563Z</time>
      </trkpt>
      <trkpt lat="47.89563" lon="-4.26783">
        <ele>41</ele>
        <time>2022-12-28T12:31:25.480Z</time>
      </trkpt>
      <trkpt lat="47.8955" lon="-4.26801">
        <ele>41</ele>
        <time>2022-12-28T12:31:34.400Z</time>
      </trkpt>
      <trkpt lat="47.89619" lon="-4.26887">
        <ele>41</ele>
        <time>2022-12-28T12:31:43.334Z</time>
      </trkpt>
      <trkpt lat="47.89621" lon="-4.2689">
        <ele>41</ele>
        <time>2022-12-28T12:31:52.269Z</time>
      </trkpt>
      <trkpt lat="47.89635" lon="-4.2691">
        <ele>42</ele>
        <time>2022-12-28T12:32:01.207Z</time>
      </trkpt>
      <trkpt lat="47.89642" lon="-4.26918">
        <ele>42</ele>
        <time>2022-12-28T12:32:10.146Z</time>
      </trkpt>
      <trkpt lat="47.89691" lon="-4.26986">
        <ele>42</ele>
        <time>2022-12-28T12:32:19.096Z</time>
      </trkpt>
      <trkpt lat="47.89712" lon="-4.27008">
        <ele>42</ele>
        <time>2022-12-28T12:32:28.050Z</time>
      </trkpt>
      <trkpt lat="47.89725" lon="-4.27016">
        <ele>42</ele>
        <time>2022-12-28T12:32:37.007Z</time>
      </trkpt>
      <trkpt lat="47.89725" lon="-4.27016">
        <ele>43</ele>
        <time>2022-12-28T12:32:45.964Z</time>
      </trkpt>
      <trkpt lat="47.89774" lon="-4.27043">
        <ele>43</ele>
        <time>2022-12-28T12:32:54.929Z</time>
      </trkpt>
      <trkpt lat="47.89807" lon="-4.27065">
        <ele>43</ele>
        <time>2022-12-28T12:33:03.900Z</time>
      </trkpt>
      <trkpt lat="47.89827" lon="-4.2708">
        <ele>43</ele>
        <time>2022-12-28T12:33:12.874Z</time>
      </trkpt>
      <trkpt lat="47.89836" lon="-4.27089">
        <ele>44</ele>
        <time>2022-12-28T12:33:21.850Z</time>
      </trkpt>
      <trkpt lat="47.89843" lon="-4.27097">
        <ele>44</ele>
        <time>2022-12-28T12:33:30.827Z</time>
      </trkpt>
      <trkpt lat="47.89843" lon="-4.27097">
        <ele>44</ele>
        <time>2022-12-28T12:33:39.804Z</time>
      </trkpt>
      <trkpt lat="47.89856" lon="-4.27112">
        <ele>44</ele>
        <time>2022-12-28T12:33:48.784Z</time>
      </trkpt>
      <trkpt lat="47.89895" lon="-4.27159">
        <ele>45</ele>
        <time>2022-12-28T12:33:57.772Z</time>
      </trkpt>
      <trkpt lat="47.8992" lon="-4.2719">
        <ele>45</ele>
        <time>2022-12-28T12:34:06.765Z</time>
      </trkpt>
      <trkpt lat="47.89927" lon="-4.27199">
        <ele>45</ele>
        <time>2022-12-28T12:34:15.760Z</time>
      </trkpt>
      <trkpt lat="47.89934" lon="-4.27207">
        <ele>46</ele>
        <time>2022-12-28T12:34:24.756Z</time>
      </trkpt>
      <trkpt lat="47.89939" lon="-4.27201">
        <ele>46</ele>
        <time>2022-12-28T12:34:33.753Z</time>
      </trkpt>
      <trkpt lat="47.89939" lon="-4.27201">
        <ele>46</ele>
        <time>2022-12-28T12:34:42.750Z</time>
      </trkpt>
      <trkpt lat="47.89951" lon="-4.27215">
        <ele>46</ele>
        <time>2022-12-28T12:34:51.750Z</time>
      </trkpt>
      <trkpt lat="47.89948" lon="-4.27223">
        <ele>46</ele>
        <time>2022-12-28T12:35:00.751Z</time>
      </trkpt>
      <trkpt lat="47.89943" lon="-4.27227">
        <ele>46</ele>
        <time>2022-12-28T12:35:09.753Z</time>
      </trkpt>
      <trkpt lat="47.89937" lon="-4.27223">
        <ele>47</ele>
        <time>2022-12-28T12:35:18.756Z</time>
      </trkpt>
      <trkpt lat="47.89935" lon="-4.2722">
        <ele>47</ele>
        <time>2022-12-28T12:35:27.759Z</time>
      </trkpt>
      <trkpt lat="47.89924" lon="-4.27233">
        <ele>47</ele>
        <time>2022-12-28T12:35:36.764Z</time>
      </trkpt>
      <trkpt lat="47.899" lon="-4.27254">
        <ele>47</ele>
        <time>2022-12-28T12:35:45.774Z</time>
      </trkpt>
      <trkpt lat="47.89877" lon="-4.27277">
        <ele>47</ele>
        <time>2022-12-28T12:35:54.788Z</time>
      </trkpt>
      <trkpt lat="47.89847" lon="-4.27308">
        <ele>47</ele>
        <time>2022-12-28T12:36:03.808Z</time>
      </trkpt>
      <trkpt lat="47.89811" lon="-4.27357">
        <ele>47</ele>
        <time>2022-12-28T12:36:12.836Z</time>
      </trkpt>
      <trkpt lat="47.89807" lon="-4.27362">
        <ele>47</ele>
        <time>2022-12-28T12:36:21.865Z</time>
      </trkpt>
      <trkpt lat="47.89793" lon="-4.27383">
        <ele>47</ele>
        <time>2022-12-28T12:36:30.897Z</time>
      </trkpt>
      <trkpt lat="47.89774" lon="-4.2742">
        <ele>46</ele>
        <time>2022-12-28T12:36:39.934Z</time>
      </trkpt>
      <trkpt lat="47.89767" lon="-4.27437">
        <ele>46</ele>
        <time>2022-12-28T12:36:48.973Z</time>
      </trkpt>
      <trkpt lat="47.89763" lon="-4.27448">
        <ele>46</ele>
        <time>2022-12-28T12:36:58.013Z</time>
      </trkpt>
      <trkpt lat="47.89757" lon="-4.27463">
        <ele>46</ele>
        <time>2022-12-28T12:37:07.055Z</time>
      </trkpt>
      <trkpt lat="47.89757" lon="-4.27463">
        <ele>46</ele>
        <time>2022-12-28T12:37:16.097Z</time>
      </trkpt>
      <trkpt lat="47.89715" lon="-4.27594">
        <ele>45</ele>
        <time>2022-12-28T12:37:25.155Z</time>
      </trkpt>
      <trkpt lat="47.89687" lon="-4.27683">
        <ele>45</ele>
        <time>2022-12-28T12:37:34.224Z</time>
      </trkpt>
      <trkpt lat="47.89687" lon="-4.27683">
        <ele>45</ele>
        <time>2022-12-28T12:37:43.293Z</time>
      </trkpt>
      <trkpt lat="47.89467" lon="-4.2746">
        <ele>44</ele>
        <time>2022-12-28T12:37:52.404Z</time>
      </trkpt>
      <trkpt lat="47.89453" lon="-4.27445">
        <ele>43</ele>
        <time>2022-12-28T12:38:01.518Z</time>
      </trkpt>
      <trkpt lat="47.89439" lon="-4.27427">
        <ele>43</ele>
        <time>2022-12-28T12:38:10.635Z</time>
      </trkpt>
      <trkpt lat="47.89433" lon="-4.27418">
        <ele>42</ele>
        <time>2022-12-28T12:38:19.753Z</time>
      </trkpt>
      <trkpt lat="47.89433" lon="-4.27418">
        <ele>42</ele>
        <time>2022-12-28T12:38:28.871Z</time>
      </trkpt>
      <trkpt lat="47.89414" lon="-4.27393">
        <ele>41</ele>
        <time>2022-12-28T12:38:37.993Z</time>
      </trkpt>
      <trkpt lat="47.89394" lon="-4.27373">
        <ele>41</ele>
        <time>2022-12-28T12:38:47.119Z</time>
      </trkpt>
      <trkpt lat="47.89367" lon="-4.27355">
        <ele>40</ele>
        <time>2022-12-28T12:38:56.250Z</time>
      </trkpt>
      <trkpt lat="47.89356" lon="-4.27351">
        <ele>40</ele>
        <time>2022-12-28T12:39:05.383Z</time>
      </trkpt>
      <trkpt lat="47.89345" lon="-4.27347">
        <ele>39</ele>
        <time>2022-12-28T12:39:14.518Z</time>
      </trkpt>
      <trkpt lat="47.89286" lon="-4.27331">
        <ele>39</ele>
        <time>2022-12-28T12:39:23.662Z</time>
      </trkpt>
      <trkpt lat="47.89212" lon="-4.27308">
        <ele>38</ele>
        <time>2022-12-28T12:39:32.818Z</time>
      </trkpt>
      <trkpt lat="47.89199" lon="-4.27304">
        <ele>37</ele>
        <time>2022-12-28T12:39:41.976Z</time>
      </trkpt>
      <trkpt lat="47.89194" lon="-4.273">
        <ele>37</ele>
        <time>2022-12-28T12:39:51.135Z</time>
      </trkpt>
      <trkpt lat="47.89189" lon="-4.27289">
        <ele>36</ele>
        <time>2022-12-28T12:40:00.296Z</time>
      </trkpt>
      <trkpt lat="47.89187" lon="-4.27268">
        <ele>36</ele>
        <time>2022-12-28T12:40:09.459Z</time>
      </trkpt>
      <trkpt lat="47.89187" lon="-4.27266">
        <ele>35</ele>
        <time>2022-12-28T12:40:18.622Z</time>
      </trkpt>
      <trkpt lat="47.89184" lon="-4.27258">
        <ele>34</ele>
        <time>2022-12-28T12:40:27.786Z</time>
      </trkpt>
      <trkpt lat="47.89153" lon="-4.27217">
        <ele>33</ele>
        <time>2022-12-28T12:40:36.957Z</time>
      </trkpt>
      <trkpt lat="47.89141" lon="-4.27206">
        <ele>33</ele>
        <time>2022-12-28T12:40:46.130Z</time>
      </trkpt>
      <trkpt lat="47.89127" lon="-4.27199">
        <ele>32</ele>
        <time>2022-12-28T12:40:55.305Z</time>
      </trkpt>
      <trkpt lat="47.89098" lon="-4.27194">
        <ele>32</ele>
        <time>2022-12-28T12:41:04.485Z</time>
      </trkpt>
      <trkpt lat="47.89068" lon="-4.27187">
        <ele>31</ele>
        <time>2022-12-28T12:41:13.670Z</time>
      </trkpt>
      <trkpt lat="47.89053" lon="-4.2718">
        <ele>30</ele>
        <time>2022-12-28T12:41:22.857Z</time>
      </trkpt>
      <trkpt lat="47.89021" lon="-4.27161">
        <ele>30</ele>
        <time>2022-12-28T12:41:32.050Z</time>
      </trkpt>
      <trkpt lat="47.89013" lon="-4.27165">
        <ele>29</ele>
        <time>2022-12-28T12:41:41.244Z</time>
      </trkpt>
      <trkpt lat="47.88995" lon="-4.27197">
        <ele>29</ele>
        <time>2022-12-28T12:41:50.443Z</time>
      </trkpt>
      <trkpt lat="47.88943" lon="-4.27303">
        <ele>28</ele>
        <time>2022-12-28T12:41:59.656Z</time>
      </trkpt>
      <trkpt lat="47.88935" lon="-4.2732">
        <ele>28</ele>
        <time>2022-12-28T12:42:08.871Z</time>
      </trkpt>
      <trkpt lat="47.88934" lon="-4.27321">
        <ele>27</ele>
        <time>2022-12-28T12:42:18.086Z</time>
      </trkpt>
      <trkpt lat="47.88932" lon="-4.27326">
        <ele>27</ele>
        <time>2022-12-28T12:42:27.302Z</time>
      </trkpt>
      <trkpt lat="47.88932" lon="-4.27327">
        <ele>26</ele>
        <time>2022-12-28T12:42:36.518Z</time>
      </trkpt>
      <trkpt lat="47.88931" lon="-4.27328">
        <ele>26</ele>
        <time>2022-12-28T12:42:45.734Z</time>
      </trkpt>
      <trkpt lat="47.88931" lon="-4.27328">
        <ele>26</ele>
        <time>2022-12-28T12:42:54.950Z</time>
      </trkpt>
      <trkpt lat="47.8892" lon="-4.27352">
        <ele>25</ele>
        <time>2022-12-28T12:43:04.169Z</time>
      </trkpt>
      <trkpt lat="47.8892" lon="-4.27352">
        <ele>25</ele>
        <time>2022-12-28T12:43:13.388Z</time>
      </trkpt>
      <trkpt lat="47.88909" lon="-4.27373">
        <ele>24</ele>
        <time>2022-12-28T12:43:22.610Z</time>
      </trkpt>
      <trkpt lat="47.88904" lon="-4.27383">
        <ele>24</ele>
        <time>2022-12-28T12:43:31.834Z</time>
      </trkpt>
      <trkpt lat="47.8885" lon="-4.27487">
        <ele>24</ele>
        <time>2022-12-28T12:43:41.072Z</time>
      </trkpt>
      <trkpt lat="47.88834" lon="-4.27514">
        <ele>23</ele>
        <time>2022-12-28T12:43:50.314Z</time>
      </trkpt>
      <trkpt lat="47.88822" lon="-4.27529">
        <ele>23</ele>
        <time>2022-12-28T12:43:59.558Z</time>
      </trkpt>
      <trkpt lat="47.88807" lon="-4.27545">
        <ele>23</ele>
        <time>2022-12-28T12:44:08.805Z</time>
      </trkpt>
      <trkpt lat="47.88798" lon="-4.27552">
        <ele>23</ele>
        <time>2022-12-28T12:44:18.054Z</time>
      </trkpt>
      <trkpt lat="47.88757" lon="-4.27568">
        <ele>23</ele>
        <time>2022-12-28T12:44:27.309Z</time>
      </trkpt>
      <trkpt lat="47.88736" lon="-4.27571">
        <ele>22</ele>
        <time>2022-12-28T12:44:36.568Z</time>
      </trkpt>
      <trkpt lat="47.88727" lon="-4.27568">
        <ele>22</ele>
        <time>2022-12-28T12:44:45.828Z</time>
      </trkpt>
      <trkpt lat="47.88725" lon="-4.27566">
        <ele>22</ele>
        <time>2022-12-28T12:44:55.089Z</time>
      </trkpt>
      <trkpt lat="47.88714" lon="-4.27558">
        <ele>22</ele>
        <time>2022-12-28T12:45:04.352Z</time>
      </trkpt>
      <trkpt lat="47.8867" lon="-4.27509">
        <ele>22</ele>
        <time>2022-12-28T12:45:13.623Z</time>
      </trkpt>
      <trkpt lat="47.88669" lon="-4.27548">
        <ele>22</ele>
        <time>2022-12-28T12:45:22.899Z</time>
      </trkpt>
      <trkpt lat="47.88662" lon="-4.27585">
        <ele>22</ele>
        <time>2022-12-28T12:45:32.179Z</time>
      </trkpt>
      <trkpt lat="47.88652" lon="-4.27602">
        <ele>22</ele>
        <time>2022-12-28T12:45:41.461Z</time>
      </trkpt>
      <trkpt lat="47.88633" lon="-4.27661">
        <ele>23</ele>
        <time>2022-12-28T12:45:50.750Z</time>
      </trkpt>
      <trkpt lat="47.88627" lon="-4.27666">
        <ele>23</ele>
        <time>2022-12-28T12:46:00.040Z</time>
      </trkpt>
      <trkpt lat="47.88623" lon="-4.27668">
        <ele>23</ele>
        <time>2022-12-28T12:46:09.331Z</time>
      </trkpt>
      <trkpt lat="47.88619" lon="-4.27689">
        <ele>23</ele>
        <time>2022-12-28T12:46:18.624Z</time>
      </trkpt>
      <trkpt lat="47.88614" lon="-4.27702">
        <ele>23</ele>
        <time>2022-12-28T12:46:27.919Z</time>
      </trkpt>
      <trkpt lat="47.88581" lon="-4.27778">
        <ele>23</ele>
        <time>2022-12-28T12:46:37.224Z</time>
      </trkpt>
      <trkpt lat="47.88572" lon="-4.27806">
        <ele>24</ele>
        <time>2022-12-28T12:46:46.532Z</time>
      </trkpt>
      <trkpt lat="47.8857" lon="-4.27828">
        <ele>24</ele>
        <time>2022-12-28T12:46:55.843Z</time>
      </trkpt>
      <trkpt lat="47.88571" lon="-4.27863">
        <ele>24</ele>
        <time>2022-12-28T12:47:05.157Z</time>
      </trkpt>
      <trkpt lat="47.88576" lon="-4.27887">
        <ele>24</ele>
        <time>2022-12-28T12:47:14.474Z</time>
      </trkpt>
      <trkpt lat="47.88582" lon="-4.2791">
        <ele>25</ele>
        <time>2022-12-28T12:47:23.794Z</time>
      </trkpt>
      <trkpt lat="47.88583" lon="-4.27912">
        <ele>25</ele>
        <time>2022-12-28T12:47:33.114Z</time>
      </trkpt>
      <trkpt lat="47.8858" lon="-4.27915">
        <ele>25</ele>
        <time>2022-12-28T12:47:42.435Z</time>
      </trkpt>
      <trkpt lat="47.8858" lon="-4.27915">
        <ele>25</ele>
        <time>2022-12-28T12:47:51.756Z</time>
      </trkpt>
      <trkpt lat="47.8858" lon="-4.27915">
        <ele>26</ele>
        <time>2022-12-28T12:48:01.077Z</time>
      </trkpt>
      <trkpt lat="47.88582" lon="-4.27913">
        <ele>26</ele>
        <time>2022-12-28T12:48:10.398Z</time>
      </trkpt>
      <trkpt lat="47.88583" lon="-4.27912">
        <ele>26</ele>
        <time>2022-12-28T12:48:19.719Z</time>
      </trkpt>
      <trkpt lat="47.88583" lon="-4.27912">
        <ele>25</ele>
        <time>2022-12-28T12:48:29.040Z</time>
      </trkpt>
      <trkpt lat="47.88583" lon="-4.27912">
        <ele>27</ele>
        <time>2022-12-28T12:48:38.361Z</time>
      </trkpt>
      <trkpt lat="47.88584" lon="-4.27913">
        <ele>27</ele>
        <time>2022-12-28T12:48:47.682Z</time>
      </trkpt>
      <trkpt lat="47.88584" lon="-4.27914">
        <ele>27</ele>
        <time>2022-12-28T12:48:57.004Z</time>
      </trkpt>
      <trkpt lat="47.88584" lon="-4.27914">
        <ele>28</ele>
        <time>2022-12-28T12:49:06.326Z</time>
      </trkpt>
      <trkpt lat="47.88596" lon="-4.27939">
        <ele>28</ele>
        <time>2022-12-28T12:49:15.651Z</time>
      </trkpt>
      <trkpt lat="47.88792" lon="-4.28239">
        <ele>28</ele>
        <time>2022-12-28T12:49:25.021Z</time>
      </trkpt>
      <trkpt lat="47.88818" lon="-4.28282">
        <ele>29</ele>
        <time>2022-12-28T12:49:34.397Z</time>
      </trkpt>
      <trkpt lat="47.8883" lon="-4.28309">
        <ele>29</ele>
        <time>2022-12-28T12:49:43.777Z</time>
      </trkpt>
      <trkpt lat="47.88834" lon="-4.28322">
        <ele>29</ele>
        <time>2022-12-28T12:49:53.158Z</time>
      </trkpt>
      <trkpt lat="47.88841" lon="-4.28349">
        <ele>30</ele>
        <time>2022-12-28T12:50:02.542Z</time>
      </trkpt>
      <trkpt lat="47.88843" lon="-4.28374">
        <ele>30</ele>
        <time>2022-12-28T12:50:11.929Z</time>
      </trkpt>
      <trkpt lat="47.88842" lon="-4.28386">
        <ele>30</ele>
        <time>2022-12-28T12:50:21.317Z</time>
      </trkpt>
      <trkpt lat="47.88839" lon="-4.28405">
        <ele>30</ele>
        <time>2022-12-28T12:50:30.707Z</time>
      </trkpt>
      <trkpt lat="47.8883" lon="-4.28437">
        <ele>30</ele>
        <time>2022-12-28T12:50:40.101Z</time>
      </trkpt>
      <trkpt lat="47.88801" lon="-4.28501">
        <ele>31</ele>
        <time>2022-12-28T12:50:49.503Z</time>
      </trkpt>
      <trkpt lat="47.88788" lon="-4.28533">
        <ele>31</ele>
        <time>2022-12-28T12:50:58.909Z</time>
      </trkpt>
      <trkpt lat="47.8878" lon="-4.28572">
        <ele>31</ele>
        <time>2022-12-28T12:51:08.320Z</time>
      </trkpt>
      <trkpt lat="47.88772" lon="-4.28638">
        <ele>31</ele>
        <time>2022-12-28T12:51:17.738Z</time>
      </trkpt>
      <trkpt lat="47.88772" lon="-4.28639">
        <ele>31</ele>
        <time>2022-12-28T12:51:27.156Z</time>
      </trkpt>
      <trkpt lat="47.88772" lon="-4.28639">
        <ele>31</ele>
        <time>2022-12-28T12:51:36.574Z</time>
      </trkpt>
      <trkpt lat="47.88772" lon="-4.28645">
        <ele>32</ele>
        <time>2022-12-28T12:51:45.993Z</time>
      </trkpt>
      <trkpt lat="47.88772" lon="-4.28646">
        <ele>32</ele>
        <time>2022-12-28T12:51:55.412Z</time>
      </trkpt>
      <trkpt lat="47.88771" lon="-4.28647">
        <ele>32</ele>
        <time>2022-12-28T12:52:04.831Z</time>
      </trkpt>
      <trkpt lat="47.88771" lon="-4.28647">
        <ele>32</ele>
        <time>2022-12-28T12:52:14.250Z</time>
      </trkpt>
      <trkpt lat="47.88771" lon="-4.28655">
        <ele>32</ele>
        <time>2022-12-28T12:52:23.670Z</time>
      </trkpt>
      <trkpt lat="47.88771" lon="-4.28655">
        <ele>32</ele>
        <time>2022-12-28T12:52:33.090Z</time>
      </trkpt>
      <trkpt lat="47.88763" lon="-4.28722">
        <ele>32</ele>
        <time>2022-12-28T12:52:42.517Z</time>
      </trkpt>
      <trkpt lat="47.88763" lon="-4.28722">
        <ele>32</ele>
        <time>2022-12-28T12:52:51.944Z</time>
      </trkpt>
      <trkpt lat="47.8876" lon="-4.28744">
        <ele>32</ele>
        <time>2022-12-28T12:53:01.374Z</time>
      </trkpt>
      <trkpt lat="47.88745" lon="-4.28795">
        <ele>32</ele>
        <time>2022-12-28T12:53:10.810Z</time>
      </trkpt>
      <trkpt lat="47.88639" lon="-4.29067">
        <ele>32</ele>
        <time>2022-12-28T12:53:20.279Z</time>
      </trkpt>
      <trkpt lat="47.88625" lon="-4.29101">
        <ele>32</ele>
        <time>2022-12-28T12:53:29.753Z</time>
      </trkpt>
      <trkpt lat="47.88613" lon="-4.29125">
        <ele>32</ele>
        <time>2022-12-28T12:53:39.230Z</time>
      </trkpt>
      <trkpt lat="47.88533" lon="-4.29277">
        <ele>32</ele>
        <time>2022-12-28T12:53:48.728Z</time>
      </trkpt>
      <trkpt lat="47.88527" lon="-4.29293">
        <ele>32</ele>
        <time>2022-12-28T12:53:58.228Z</time>
      </trkpt>
      <trkpt lat="47.88527" lon="-4.29307">
        <ele>32</ele>
        <time>2022-12-28T12:54:07.729Z</time>
      </trkpt>
      <trkpt lat="47.88491" lon="-4.29312">
        <ele>31</ele>
        <time>2022-12-28T12:54:17.236Z</time>
      </trkpt>
      <trkpt lat="47.88466" lon="-4.29312">
        <ele>31</ele>
        <time>2022-12-28T12:54:26.747Z</time>
      </trkpt>
      <trkpt lat="47.88456" lon="-4.29311">
        <ele>31</ele>
        <time>2022-12-28T12:54:36.260Z</time>
      </trkpt>
      <trkpt lat="47.88456" lon="-4.29311">
        <ele>31</ele>
        <time>2022-12-28T12:54:45.773Z</time>
      </trkpt>
      <trkpt lat="47.88403" lon="-4.293">
        <ele>31</ele>
        <time>2022-12-28T12:54:55.294Z</time>
      </trkpt>
      <trkpt lat="47.8838" lon="-4.29292">
        <ele>31</ele>
        <time>2022-12-28T12:55:04.819Z</time>
      </trkpt>
      <trkpt lat="47.88364" lon="-4.29285">
        <ele>31</ele>
        <time>2022-12-28T12:55:14.347Z</time>
      </trkpt>
      <trkpt lat="47.88329" lon="-4.29265">
        <ele>30</ele>
        <time>2022-12-28T12:55:23.881Z</time>
      </trkpt>
      <trkpt lat="47.88306" lon="-4.29248">
        <ele>30</ele>
        <time>2022-12-28T12:55:33.419Z</time>
      </trkpt>
      <trkpt lat="47.88279" lon="-4.29223">
        <ele>30</ele>
        <time>2022-12-28T12:55:42.962Z</time>
      </trkpt>
      <trkpt lat="47.88168" lon="-4.29112">
        <ele>30</ele>
        <time>2022-12-28T12:55:52.526Z</time>
      </trkpt>
      <trkpt lat="47.88104" lon="-4.29056">
        <ele>30</ele>
        <time>2022-12-28T12:56:02.102Z</time>
      </trkpt>
      <trkpt lat="47.8806" lon="-4.29024">
        <ele>30</ele>
        <time>2022-12-28T12:56:11.686Z</time>
      </trkpt>
      <trkpt lat="47.88053" lon="-4.29018">
        <ele>30</ele>
        <time>2022-12-28T12:56:21.271Z</time>
      </trkpt>
      <trkpt lat="47.88041" lon="-4.2901">
        <ele>29</ele>
        <time>2022-12-28T12:56:30.858Z</time>
      </trkpt>
      <trkpt lat="47.88011" lon="-4.28993">
        <ele>29</ele>
        <time>2022-12-28T12:56:40.451Z</time>
      </trkpt>
      <trkpt lat="47.87945" lon="-4.28959">
        <ele>29</ele>
        <time>2022-12-28T12:56:50.055Z</time>
      </trkpt>
      <trkpt lat="47.8789" lon="-4.28939">
        <ele>29</ele>
        <time>2022-12-28T12:56:59.668Z</time>
      </trkpt>
      <trkpt lat="47.87732" lon="-4.28879">
        <ele>29</ele>
        <time>2022-12-28T12:57:09.307Z</time>
      </trkpt>
      <trkpt lat="47.87694" lon="-4.28865">
        <ele>29</ele>
        <time>2022-12-28T12:57:18.952Z</time>
      </trkpt>
      <trkpt lat="47.87638" lon="-4.28836">
        <ele>29</ele>
        <time>2022-12-28T12:57:28.607Z</time>
      </trkpt>
      <trkpt lat="47.87636" lon="-4.28835">
        <ele>29</ele>
        <time>2022-12-28T12:57:38.262Z</time>
      </trkpt>
      <trkpt lat="47.87636" lon="-4.28835">
        <ele>29</ele>
        <time>2022-12-28T12:57:47.917Z</time>
      </trkpt>
      <trkpt lat="47.87611" lon="-4.28819">
        <ele>29</ele>
        <time>2022-12-28T12:57:57.576Z</time>
      </trkpt>
      <trkpt lat="47.87578" lon="-4.28793">
        <ele>29</ele>
        <time>2022-12-28T12:58:07.241Z</time>
      </trkpt>
      <trkpt lat="47.87527" lon="-4.28739">
        <ele>29</ele>
        <time>2022-12-28T12:58:16.916Z</time>
      </trkpt>
      <trkpt lat="47.87501" lon="-4.28792">
        <ele>29</ele>
        <time>2022-12-28T12:58:26.598Z</time>
      </trkpt>
      <trkpt lat="47.87501" lon="-4.28792">
        <ele>29</ele>
        <time>2022-12-28T12:58:36.280Z</time>
      </trkpt>
      <trkpt lat="47.87499" lon="-4.28798">
        <ele>29</ele>
        <time>2022-12-28T12:58:45.963Z</time>
      </trkpt>
      <trkpt lat="47.87498" lon="-4.28798">
        <ele>29</ele>
        <time>2022-12-28T12:58:55.646Z</time>
      </trkpt>
      <trkpt lat="47.87498" lon="-4.28799">
        <ele>29</ele>
        <time>2022-12-28T12:59:05.329Z</time>
      </trkpt>
      <trkpt lat="47.87498" lon="-4.288">
        <ele>28</ele>
        <time>2022-12-28T12:59:15.012Z</time>
      </trkpt>
      <trkpt lat="47.87495" lon="-4.28806">
        <ele>28</ele>
        <time>2022-12-28T12:59:24.696Z</time>
      </trkpt>
      <trkpt lat="47.87495" lon="-4.28806">
        <ele>28</ele>
        <time>2022-12-28T12:59:34.380Z</time>
      </trkpt>
      <trkpt lat="47.87472" lon="-4.28852">
        <ele>28</ele>
        <time>2022-12-28T12:59:44.070Z</time>
      </trkpt>
      <trkpt lat="47.87463" lon="-4.2886">
        <ele>28</ele>
        <time>2022-12-28T12:59:53.762Z</time>
      </trkpt>
      <trkpt lat="47.87455" lon="-4.28856">
        <ele>28</ele>
        <time>2022-12-28T13:00:03.455Z</time>
      </trkpt>
      <trkpt lat="47.87431" lon="-4.28833">
        <ele>28</ele>
        <time>2022-12-28T13:00:13.153Z</time>
      </trkpt>
      <trkpt lat="47.87424" lon="-4.28827">
        <ele>28</ele>
        <time>2022-12-28T13:00:22.852Z</time>
      </trkpt>
      <trkpt lat="47.8735" lon="-4.28755">
        <ele>28</ele>
        <time>2022-12-28T13:00:32.565Z</time>
      </trkpt>
      <trkpt lat="47.87347" lon="-4.28753">
        <ele>27</ele>
        <time>2022-12-28T13:00:42.279Z</time>
      </trkpt>
      <trkpt lat="47.87341" lon="-4.28754">
        <ele>27</ele>
        <time>2022-12-28T13:00:51.994Z</time>
      </trkpt>
      <trkpt lat="47.87337" lon="-4.28761">
        <ele>27</ele>
        <time>2022-12-28T13:01:01.710Z</time>
      </trkpt>
      <trkpt lat="47.87312" lon="-4.28824">
        <ele>27</ele>
        <time>2022-12-28T13:01:11.434Z</time>
      </trkpt>
      <trkpt lat="47.87301" lon="-4.28846">
        <ele>27</ele>
        <time>2022-12-28T13:01:21.161Z</time>
      </trkpt>
      <trkpt lat="47.87257" lon="-4.28915">
        <ele>27</ele>
        <time>2022-12-28T13:01:30.898Z</time>
      </trkpt>
      <trkpt lat="47.87252" lon="-4.28921">
        <ele>26</ele>
        <time>2022-12-28T13:01:40.636Z</time>
      </trkpt>
      <trkpt lat="47.8725" lon="-4.28922">
        <ele>26</ele>
        <time>2022-12-28T13:01:50.374Z</time>
      </trkpt>
      <trkpt lat="47.87244" lon="-4.2892">
        <ele>26</ele>
        <time>2022-12-28T13:02:00.113Z</time>
      </trkpt>
      <trkpt lat="47.8719" lon="-4.28857">
        <ele>26</ele>
        <time>2022-12-28T13:02:09.863Z</time>
      </trkpt>
      <trkpt lat="47.87156" lon="-4.28832">
        <ele>26</ele>
        <time>2022-12-28T13:02:19.619Z</time>
      </trkpt>
      <trkpt lat="47.87137" lon="-4.28812">
        <ele>25</ele>
        <time>2022-12-28T13:02:29.379Z</time>
      </trkpt>
      <trkpt lat="47.87119" lon="-4.28787">
        <ele>25</ele>
        <time>2022-12-28T13:02:39.143Z</time>
      </trkpt>
      <trkpt lat="47.87107" lon="-4.28763">
        <ele>25</ele>
        <time>2022-12-28T13:02:48.910Z</time>
      </trkpt>
      <trkpt lat="47.87095" lon="-4.28748">
        <ele>25</ele>
        <time>2022-12-28T13:02:58.680Z</time>
      </trkpt>
      <trkpt lat="47.87075" lon="-4.28734">
        <ele>25</ele>
        <time>2022-12-28T13:03:08.453Z</time>
      </trkpt>
      <trkpt lat="47.87045" lon="-4.28717">
        <ele>24</ele>
        <time>2022-12-28T13:03:18.231Z</time>
      </trkpt>
      <trkpt lat="47.86975" lon="-4.28852">
        <ele>24</ele>
        <time>2022-12-28T13:03:28.028Z</time>
      </trkpt>
      <trkpt lat="47.86878" lon="-4.28989">
        <ele>24</ele>
        <time>2022-12-28T13:03:37.846Z</time>
      </trkpt>
      <trkpt lat="47.86862" lon="-4.29014">
        <ele>24</ele>
        <time>2022-12-28T13:03:47.668Z</time>
      </trkpt>
      <trkpt lat="47.86754" lon="-4.28888">
        <ele>23</ele>
        <time>2022-12-28T13:03:57.512Z</time>
      </trkpt>
      <trkpt lat="47.86739" lon="-4.28866">
        <ele>23</ele>
        <time>2022-12-28T13:04:07.359Z</time>
      </trkpt>
      <trkpt lat="47.86732" lon="-4.28851">
        <ele>23</ele>
        <time>2022-12-28T13:04:17.208Z</time>
      </trkpt>
      <trkpt lat="47.86732" lon="-4.28851">
        <ele>23</ele>
        <time>2022-12-28T13:04:27.057Z</time>
      </trkpt>
      <trkpt lat="47.86725" lon="-4.28827">
        <ele>23</ele>
        <time>2022-12-28T13:04:36.909Z</time>
      </trkpt>
      <trkpt lat="47.86714" lon="-4.28776">
        <ele>23</ele>
        <time>2022-12-28T13:04:46.767Z</time>
      </trkpt>
      <trkpt lat="47.86701" lon="-4.28736">
        <ele>23</ele>
        <time>2022-12-28T13:04:56.630Z</time>
      </trkpt>
      <trkpt lat="47.86693" lon="-4.28719">
        <ele>23</ele>
        <time>2022-12-28T13:05:06.495Z</time>
      </trkpt>
      <trkpt lat="47.86686" lon="-4.28709">
        <ele>23</ele>
        <time>2022-12-28T13:05:16.361Z</time>
      </trkpt>
      <trkpt lat="47.86629" lon="-4.28639">
        <ele>23</ele>
        <time>2022-12-28T13:05:26.239Z</time>
      </trkpt>
      <trkpt lat="47.86591" lon="-4.28593">
        <ele>23</ele>
        <time>2022-12-28T13:05:36.125Z</time>
      </trkpt>
      <trkpt lat="47.86581" lon="-4.28576">
        <ele>23</ele>
        <time>2022-12-28T13:05:46.013Z</time>
      </trkpt>
      <trkpt lat="47.86577" lon="-4.28589">
        <ele>23</ele>
        <time>2022-12-28T13:05:55.903Z</time>
      </trkpt>
      <trkpt lat="47.86532" lon="-4.28762">
        <ele>23</ele>
        <time>2022-12-28T13:06:05.813Z</time>
      </trkpt>
      <trkpt lat="47.86518" lon="-4.28801">
        <ele>23</ele>
        <time>2022-12-28T13:06:15.728Z</time>
      </trkpt>
      <trkpt lat="47.86478" lon="-4.28877">
        <ele>23</ele>
        <time>2022-12-28T13:06:25.653Z</time>
      </trkpt>
      <trkpt lat="47.86428" lon="-4.28962">
        <ele>23</ele>
        <time>2022-12-28T13:06:35.590Z</time>
      </trkpt>
      <trkpt lat="47.86423" lon="-4.28972">
        <ele>23</ele>
        <time>2022-12-28T13:06:45.529Z</time>
      </trkpt>
      <trkpt lat="47.86396" lon="-4.29018">
        <ele>23</ele>
        <time>2022-12-28T13:06:55.474Z</time>
      </trkpt>
      <trkpt lat="47.8638" lon="-4.29049">
        <ele>23</ele>
        <time>2022-12-28T13:07:05.424Z</time>
      </trkpt>
      <trkpt lat="47.86375" lon="-4.29061">
        <ele>24</ele>
        <time>2022-12-28T13:07:15.375Z</time>
      </trkpt>
      <trkpt lat="47.86358" lon="-4.29122">
        <ele>24</ele>
        <time>2022-12-28T13:07:25.333Z</time>
      </trkpt>
      <trkpt lat="47.86297" lon="-4.29356">
        <ele>24</ele>
        <time>2022-12-28T13:07:35.318Z</time>
      </trkpt>
      <trkpt lat="47.86297" lon="-4.29356">
        <ele>24</ele>
        <time>2022-12-28T13:07:45.303Z</time>
      </trkpt>
      <trkpt lat="47.86266" lon="-4.29489">
        <ele>24</ele>
        <time>2022-12-28T13:07:55.303Z</time>
      </trkpt>
      <trkpt lat="47.86242" lon="-4.29604">
        <ele>24</ele>
        <time>2022-12-28T13:08:05.316Z</time>
      </trkpt>
      <trkpt lat="47.86228" lon="-4.29658">
        <ele>25</ele>
        <time>2022-12-28T13:08:15.335Z</time>
      </trkpt>
      <trkpt lat="47.86215" lon="-4.2971">
        <ele>25</ele>
        <time>2022-12-28T13:08:25.360Z</time>
      </trkpt>
      <trkpt lat="47.8621" lon="-4.29732">
        <ele>25</ele>
        <time>2022-12-28T13:08:35.388Z</time>
      </trkpt>
      <trkpt lat="47.86201" lon="-4.29791">
        <ele>25</ele>
        <time>2022-12-28T13:08:45.422Z</time>
      </trkpt>
      <trkpt lat="47.862" lon="-4.29799">
        <ele>25</ele>
        <time>2022-12-28T13:08:55.457Z</time>
      </trkpt>
      <trkpt lat="47.8619" lon="-4.29795">
        <ele>26</ele>
        <time>2022-12-28T13:09:05.494Z</time>
      </trkpt>
      <trkpt lat="47.86136" lon="-4.29736">
        <ele>26</ele>
        <time>2022-12-28T13:09:15.542Z</time>
      </trkpt>
      <trkpt lat="47.86089" lon="-4.29683">
        <ele>26</ele>
        <time>2022-12-28T13:09:25.599Z</time>
      </trkpt>
      <trkpt lat="47.86079" lon="-4.29673">
        <ele>26</ele>
        <time>2022-12-28T13:09:35.658Z</time>
      </trkpt>
      <trkpt lat="47.86074" lon="-4.29663">
        <ele>26</ele>
        <time>2022-12-28T13:09:45.719Z</time>
      </trkpt>
      <trkpt lat="47.86058" lon="-4.29635">
        <ele>26</ele>
        <time>2022-12-28T13:09:55.784Z</time>
      </trkpt>
      <trkpt lat="47.86037" lon="-4.29588">
        <ele>26</ele>
        <time>2022-12-28T13:10:05.855Z</time>
      </trkpt>
      <trkpt lat="47.8603" lon="-4.2957">
        <ele>27</ele>
        <time>2022-12-28T13:10:15.928Z</time>
      </trkpt>
      <trkpt lat="47.86006" lon="-4.29531">
        <ele>27</ele>
        <time>2022-12-28T13:10:26.007Z</time>
      </trkpt>
      <trkpt lat="47.86006" lon="-4.29531">
        <ele>27</ele>
        <time>2022-12-28T13:10:36.086Z</time>
      </trkpt>
      <trkpt lat="47.85986" lon="-4.29504">
        <ele>27</ele>
        <time>2022-12-28T13:10:46.169Z</time>
      </trkpt>
      <trkpt lat="47.85978" lon="-4.29496">
        <ele>27</ele>
        <time>2022-12-28T13:10:56.253Z</time>
      </trkpt>
      <trkpt lat="47.85971" lon="-4.29488">
        <ele>28</ele>
        <time>2022-12-28T13:11:06.339Z</time>
      </trkpt>
      <trkpt lat="47.85971" lon="-4.29488">
        <ele>28</ele>
        <time>2022-12-28T13:11:16.425Z</time>
      </trkpt>
      <trkpt lat="47.85946" lon="-4.2947">
        <ele>28</ele>
        <time>2022-12-28T13:11:26.515Z</time>
      </trkpt>
      <trkpt lat="47.85891" lon="-4.2944">
        <ele>28</ele>
        <time>2022-12-28T13:11:36.615Z</time>
      </trkpt>
      <trkpt lat="47.85773" lon="-4.29372">
        <ele>28</ele>
        <time>2022-12-28T13:11:46.735Z</time>
      </trkpt>
      <trkpt lat="47.85757" lon="-4.29367">
        <ele>28</ele>
        <time>2022-12-28T13:11:56.857Z</time>
      </trkpt>
      <trkpt lat="47.85734" lon="-4.29366">
        <ele>28</ele>
        <time>2022-12-28T13:12:06.983Z</time>
      </trkpt>
      <trkpt lat="47.85718" lon="-4.2937">
        <ele>29</ele>
        <time>2022-12-28T13:12:17.112Z</time>
      </trkpt>
      <trkpt lat="47.85714" lon="-4.29372">
        <ele>29</ele>
        <time>2022-12-28T13:12:27.242Z</time>
      </trkpt>
      <trkpt lat="47.85705" lon="-4.29376">
        <ele>29</ele>
        <time>2022-12-28T13:12:37.373Z</time>
      </trkpt>
      <trkpt lat="47.85705" lon="-4.29376">
        <ele>29</ele>
        <time>2022-12-28T13:12:47.504Z</time>
      </trkpt>
      <trkpt lat="47.85686" lon="-4.29384">
        <ele>29</ele>
        <time>2022-12-28T13:12:57.638Z</time>
      </trkpt>
      <trkpt lat="47.8562" lon="-4.2942">
        <ele>29</ele>
        <time>2022-12-28T13:13:07.783Z</time>
      </trkpt>
      <trkpt lat="47.85598" lon="-4.29442">
        <ele>29</ele>
        <time>2022-12-28T13:13:17.933Z</time>
      </trkpt>
      <trkpt lat="47.85588" lon="-4.29461">
        <ele>29</ele>
        <time>2022-12-28T13:13:28.085Z</time>
      </trkpt>
      <trkpt lat="47.85582" lon="-4.29478">
        <ele>29</ele>
        <time>2022-12-28T13:13:38.239Z</time>
      </trkpt>
      <trkpt lat="47.85552" lon="-4.29629">
        <ele>30</ele>
        <time>2022-12-28T13:13:48.410Z</time>
      </trkpt>
      <trkpt lat="47.85545" lon="-4.29662">
        <ele>30</ele>
        <time>2022-12-28T13:13:58.585Z</time>
      </trkpt>
      <trkpt lat="47.85539" lon="-4.29675">
        <ele>30</ele>
        <time>2022-12-28T13:14:08.762Z</time>
      </trkpt>
      <trkpt lat="47.85536" lon="-4.29683">
        <ele>30</ele>
        <time>2022-12-28T13:14:18.940Z</time>
      </trkpt>
      <trkpt lat="47.85521" lon="-4.29708">
        <ele>30</ele>
        <time>2022-12-28T13:14:29.121Z</time>
      </trkpt>
      <trkpt lat="47.85509" lon="-4.29724">
        <ele>30</ele>
        <time>2022-12-28T13:14:39.305Z</time>
      </trkpt>
      <trkpt lat="47.85501" lon="-4.29733">
        <ele>30</ele>
        <time>2022-12-28T13:14:49.491Z</time>
      </trkpt>
      <trkpt lat="47.85487" lon="-4.2974">
        <ele>30</ele>
        <time>2022-12-28T13:14:59.679Z</time>
      </trkpt>
      <trkpt lat="47.85473" lon="-4.29743">
        <ele>31</ele>
        <time>2022-12-28T13:15:09.869Z</time>
      </trkpt>
      <trkpt lat="47.8546" lon="-4.2974">
        <ele>31</ele>
        <time>2022-12-28T13:15:20.061Z</time>
      </trkpt>
      <trkpt lat="47.85447" lon="-4.29732">
        <ele>31</ele>
        <time>2022-12-28T13:15:30.255Z</time>
      </trkpt>
      <trkpt lat="47.85382" lon="-4.29669">
        <ele>31</ele>
        <time>2022-12-28T13:15:40.462Z</time>
      </trkpt>
      <trkpt lat="47.85381" lon="-4.29667">
        <ele>31</ele>
        <time>2022-12-28T13:15:50.669Z</time>
      </trkpt>
      <trkpt lat="47.85337" lon="-4.29631">
        <ele>31</ele>
        <time>2022-12-28T13:16:00.884Z</time>
      </trkpt>
      <trkpt lat="47.85308" lon="-4.29611">
        <ele>31</ele>
        <time>2022-12-28T13:16:11.104Z</time>
      </trkpt>
      <trkpt lat="47.85295" lon="-4.29666">
        <ele>31</ele>
        <time>2022-12-28T13:16:21.331Z</time>
      </trkpt>
      <trkpt lat="47.85293" lon="-4.29677">
        <ele>32</ele>
        <time>2022-12-28T13:16:31.559Z</time>
      </trkpt>
      <trkpt lat="47.85293" lon="-4.29678">
        <ele>32</ele>
        <time>2022-12-28T13:16:41.787Z</time>
      </trkpt>
      <trkpt lat="47.85293" lon="-4.29678">
        <ele>32</ele>
        <time>2022-12-28T13:16:52.015Z</time>
      </trkpt>
      <trkpt lat="47.85292" lon="-4.29684">
        <ele>32</ele>
        <time>2022-12-28T13:17:02.244Z</time>
      </trkpt>
      <trkpt lat="47.85292" lon="-4.29685">
        <ele>32</ele>
        <time>2022-12-28T13:17:12.473Z</time>
      </trkpt>
      <trkpt lat="47.85292" lon="-4.29686">
        <ele>32</ele>
        <time>2022-12-28T13:17:22.702Z</time>
      </trkpt>
      <trkpt lat="47.85292" lon="-4.29686">
        <ele>32</ele>
        <time>2022-12-28T13:17:32.931Z</time>
      </trkpt>
      <trkpt lat="47.85285" lon="-4.29736">
        <ele>32</ele>
        <time>2022-12-28T13:17:43.165Z</time>
      </trkpt>
      <trkpt lat="47.8528" lon="-4.29797">
        <ele>32</ele>
        <time>2022-12-28T13:17:53.406Z</time>
      </trkpt>
      <trkpt lat="47.85283" lon="-4.29887">
        <ele>32</ele>
        <time>2022-12-28T13:18:03.657Z</time>
      </trkpt>
      <trkpt lat="47.85288" lon="-4.29939">
        <ele>32</ele>
        <time>2022-12-28T13:18:13.913Z</time>
      </trkpt>
      <trkpt lat="47.85288" lon="-4.29976">
        <ele>33</ele>
        <time>2022-12-28T13:18:24.173Z</time>
      </trkpt>
      <trkpt lat="47.85286" lon="-4.29992">
        <ele>33</ele>
        <time>2022-12-28T13:18:34.435Z</time>
      </trkpt>
      <trkpt lat="47.85304" lon="-4.30008">
        <ele>33</ele>
        <time>2022-12-28T13:18:44.701Z</time>
      </trkpt>
      <trkpt lat="47.85306" lon="-4.30008">
        <ele>33</ele>
        <time>2022-12-28T13:18:54.967Z</time>
      </trkpt>
      <trkpt lat="47.85314" lon="-4.30014">
        <ele>33</ele>
        <time>2022-12-28T13:19:05.234Z</time>
      </trkpt>
      <trkpt lat="47.85319" lon="-4.30017">
        <ele>33</ele>
        <time>2022-12-28T13:19:15.502Z</time>
      </trkpt>
      <trkpt lat="47.85392" lon="-4.30047">
        <ele>33</ele>
        <time>2022-12-28T13:19:25.782Z</time>
      </trkpt>
      <trkpt lat="47.85399" lon="-4.30053">
        <ele>33</ele>
        <time>2022-12-28T13:19:36.063Z</time>
      </trkpt>
      <trkpt lat="47.85412" lon="-4.3006">
        <ele>33</ele>
        <time>2022-12-28T13:19:46.347Z</time>
      </trkpt>
      <trkpt lat="47.85421" lon="-4.30063">
        <ele>33</ele>
        <time>2022-12-28T13:19:56.632Z</time>
      </trkpt>
      <trkpt lat="47.85462" lon="-4.30075">
        <ele>33</ele>
        <time>2022-12-28T13:20:06.924Z</time>
      </trkpt>
      <trkpt lat="47.85488" lon="-4.30079">
        <ele>33</ele>
        <time>2022-12-28T13:20:17.220Z</time>
      </trkpt>
      <trkpt lat="47.85494" lon="-4.30085">
        <ele>33</ele>
        <time>2022-12-28T13:20:27.517Z</time>
      </trkpt>
      <trkpt lat="47.85497" lon="-4.30095">
        <ele>33</ele>
        <time>2022-12-28T13:20:37.815Z</time>
      </trkpt>
      <trkpt lat="47.855" lon="-4.30183">
        <ele>33</ele>
        <time>2022-12-28T13:20:48.123Z</time>
      </trkpt>
      <trkpt lat="47.85523" lon="-4.30178">
        <ele>33</ele>
        <time>2022-12-28T13:20:58.435Z</time>
      </trkpt>
      <trkpt lat="47.85535" lon="-4.30262">
        <ele>33</ele>
        <time>2022-12-28T13:21:08.756Z</time>
      </trkpt>
      <trkpt lat="47.85558" lon="-4.30454">
        <ele>33</ele>
        <time>2022-12-28T13:21:19.098Z</time>
      </trkpt>
      <trkpt lat="47.85545" lon="-4.30464">
        <ele>33</ele>
        <time>2022-12-28T13:21:29.442Z</time>
      </trkpt>
      <trkpt lat="47.85538" lon="-4.3047">
        <ele>33</ele>
        <time>2022-12-28T13:21:39.788Z</time>
      </trkpt>
      <trkpt lat="47.85538" lon="-4.30471">
        <ele>33</ele>
        <time>2022-12-28T13:21:50.134Z</time>
      </trkpt>
      <trkpt lat="47.85499" lon="-4.30528">
        <ele>33</ele>
        <time>2022-12-28T13:22:00.488Z</time>
      </trkpt>
      <trkpt lat="47.85462" lon="-4.30575">
        <ele>33</ele>
        <time>2022-12-28T13:22:10.850Z</time>
      </trkpt>
      <trkpt lat="47.8545" lon="-4.3058">
        <ele>33</ele>
        <time>2022-12-28T13:22:21.214Z</time>
      </trkpt>
      <trkpt lat="47.8545" lon="-4.3058">
        <ele>33</ele>
        <time>2022-12-28T13:22:31.578Z</time>
      </trkpt>
      <trkpt lat="47.8545" lon="-4.3058">
        <ele>33</ele>
        <time>2022-12-28T13:22:41.942Z</time>
      </trkpt>
      <trkpt lat="47.85446" lon="-4.30582">
        <ele>33</ele>
        <time>2022-12-28T13:22:52.307Z</time>
      </trkpt>
      <trkpt lat="47.85445" lon="-4.30582">
        <ele>33</ele>
        <time>2022-12-28T13:23:02.672Z</time>
      </trkpt>
      <trkpt lat="47.85444" lon="-4.30582">
        <ele>33</ele>
        <time>2022-12-28T13:23:13.037Z</time>
      </trkpt>
      <trkpt lat="47.85444" lon="-4.30583">
        <ele>33</ele>
        <time>2022-12-28T13:23:23.402Z</time>
      </trkpt>
      <trkpt lat="47.85438" lon="-4.30585">
        <ele>33</ele>
        <time>2022-12-28T13:23:33.768Z</time>
      </trkpt>
      <trkpt lat="47.85287" lon="-4.30648">
        <ele>33</ele>
        <time>2022-12-28T13:23:44.159Z</time>
      </trkpt>
      <trkpt lat="47.85287" lon="-4.30648">
        <ele>33</ele>
        <time>2022-12-28T13:23:54.550Z</time>
      </trkpt>
      <trkpt lat="47.85279" lon="-4.30648">
        <ele>33</ele>
        <time>2022-12-28T13:24:04.943Z</time>
      </trkpt>
      <trkpt lat="47.85243" lon="-4.30638">
        <ele>33</ele>
        <time>2022-12-28T13:24:15.341Z</time>
      </trkpt>
      <trkpt lat="47.85154" lon="-4.30602">
        <ele>33</ele>
        <time>2022-12-28T13:24:25.754Z</time>
      </trkpt>
      <trkpt lat="47.85132" lon="-4.30602">
        <ele>33</ele>
        <time>2022-12-28T13:24:36.171Z</time>
      </trkpt>
      <trkpt lat="47.85115" lon="-4.30598">
        <ele>33</ele>
        <time>2022-12-28T13:24:46.591Z</time>
      </trkpt>
      <trkpt lat="47.85079" lon="-4.30595">
        <ele>33</ele>
        <time>2022-12-28T13:24:57.016Z</time>
      </trkpt>
      <trkpt lat="47.85071" lon="-4.30594">
        <ele>33</ele>
        <time>2022-12-28T13:25:07.443Z</time>
      </trkpt>
      <trkpt lat="47.85042" lon="-4.30592">
        <ele>33</ele>
        <time>2022-12-28T13:25:17.874Z</time>
      </trkpt>
      <trkpt lat="47.84984" lon="-4.30584">
        <ele>33</ele>
        <time>2022-12-28T13:25:28.315Z</time>
      </trkpt>
      <trkpt lat="47.84981" lon="-4.30602">
        <ele>33</ele>
        <time>2022-12-28T13:25:38.758Z</time>
      </trkpt>
      <trkpt lat="47.84981" lon="-4.30603">
        <ele>33</ele>
        <time>2022-12-28T13:25:49.201Z</time>
      </trkpt>
      <trkpt lat="47.8498" lon="-4.30609">
        <ele>33</ele>
        <time>2022-12-28T13:25:59.644Z</time>
      </trkpt>
      <trkpt lat="47.84979" lon="-4.30609">
        <ele>33</ele>
        <time>2022-12-28T13:26:10.087Z</time>
      </trkpt>
      <trkpt lat="47.84979" lon="-4.30611">
        <ele>33</ele>
        <time>2022-12-28T13:26:20.531Z</time>
      </trkpt>
      <trkpt lat="47.84979" lon="-4.30611">
        <ele>33</ele>
        <time>2022-12-28T13:26:30.975Z</time>
      </trkpt>
      <trkpt lat="47.84978" lon="-4.30616">
        <ele>33</ele>
        <time>2022-12-28T13:26:41.419Z</time>
      </trkpt>
      <trkpt lat="47.84968" lon="-4.30763">
        <ele>33</ele>
        <time>2022-12-28T13:26:51.879Z</time>
      </trkpt>
      <trkpt lat="47.8495" lon="-4.30956">
        <ele>33</ele>
        <time>2022-12-28T13:27:02.360Z</time>
      </trkpt>
      <trkpt lat="47.84935" lon="-4.30955">
        <ele>33</ele>
        <time>2022-12-28T13:27:12.844Z</time>
      </trkpt>
      <trkpt lat="47.84919" lon="-4.30962">
        <ele>33</ele>
        <time>2022-12-28T13:27:23.330Z</time>
      </trkpt>
      <trkpt lat="47.84905" lon="-4.30976">
        <ele>33</ele>
        <time>2022-12-28T13:27:33.819Z</time>
      </trkpt>
      <trkpt lat="47.84886" lon="-4.31001">
        <ele>32</ele>
        <time>2022-12-28T13:27:44.312Z</time>
      </trkpt>
      <trkpt lat="47.84874" lon="-4.31011">
        <ele>32</ele>
        <time>2022-12-28T13:27:54.807Z</time>
      </trkpt>
      <trkpt lat="47.84853" lon="-4.3105">
        <ele>32</ele>
        <time>2022-12-28T13:28:05.308Z</time>
      </trkpt>
      <trkpt lat="47.84795" lon="-4.31212">
        <ele>32</ele>
        <time>2022-12-28T13:28:15.828Z</time>
      </trkpt>
      <trkpt lat="47.84784" lon="-4.31238">
        <ele>32</ele>
        <time>2022-12-28T13:28:26.352Z</time>
      </trkpt>
      <trkpt lat="47.84784" lon="-4.31238">
        <ele>32</ele>
        <time>2022-12-28T13:28:36.876Z</time>
      </trkpt>
      <trkpt lat="47.84784" lon="-4.31238">
        <ele>31</ele>
        <time>2022-12-28T13:28:47.400Z</time>
      </trkpt>
      <trkpt lat="47.84782" lon="-4.31244">
        <ele>31</ele>
        <time>2022-12-28T13:28:57.924Z</time>
      </trkpt>
      <trkpt lat="47.84782" lon="-4.31244">
        <ele>31</ele>
        <time>2022-12-28T13:29:08.448Z</time>
      </trkpt>
      <trkpt lat="47.84781" lon="-4.31245">
        <ele>31</ele>
        <time>2022-12-28T13:29:18.973Z</time>
      </trkpt>
      <trkpt lat="47.84781" lon="-4.31246">
        <ele>31</ele>
        <time>2022-12-28T13:29:29.498Z</time>
      </trkpt>
      <trkpt lat="47.84778" lon="-4.31253">
        <ele>31</ele>
        <time>2022-12-28T13:29:40.024Z</time>
      </trkpt>
      <trkpt lat="47.84778" lon="-4.31253">
        <ele>31</ele>
        <time>2022-12-28T13:29:50.550Z</time>
      </trkpt>
      <trkpt lat="47.84766" lon="-4.31282">
        <ele>30</ele>
        <time>2022-12-28T13:30:01.079Z</time>
      </trkpt>
      <trkpt lat="47.84743" lon="-4.31329">
        <ele>30</ele>
        <time>2022-12-28T13:30:11.614Z</time>
      </trkpt>
      <trkpt lat="47.84747" lon="-4.31335">
        <ele>30</ele>
        <time>2022-12-28T13:30:22.150Z</time>
      </trkpt>
      <trkpt lat="47.84737" lon="-4.31441">
        <ele>30</ele>
        <time>2022-12-28T13:30:32.698Z</time>
      </trkpt>
      <trkpt lat="47.84729" lon="-4.31486">
        <ele>30</ele>
        <time>2022-12-28T13:30:43.251Z</time>
      </trkpt>
      <trkpt lat="47.84715" lon="-4.31546">
        <ele>29</ele>
        <time>2022-12-28T13:30:53.811Z</time>
      </trkpt>
      <trkpt lat="47.84696" lon="-4.31605">
        <ele>29</ele>
        <time>2022-12-28T13:31:04.378Z</time>
      </trkpt>
      <trkpt lat="47.84654" lon="-4.31722">
        <ele>29</ele>
        <time>2022-12-28T13:31:14.959Z</time>
      </trkpt>
      <trkpt lat="47.84643" lon="-4.31751">
        <ele>29</ele>
        <time>2022-12-28T13:31:25.544Z</time>
      </trkpt>
      <trkpt lat="47.84643" lon="-4.31751">
        <ele>29</ele>
        <time>2022-12-28T13:31:36.129Z</time>
      </trkpt>
      <trkpt lat="47.84637" lon="-4.31768">
        <ele>28</ele>
        <time>2022-12-28T13:31:46.716Z</time>
      </trkpt>
      <trkpt lat="47.84614" lon="-4.31816">
        <ele>28</ele>
        <time>2022-12-28T13:31:57.309Z</time>
      </trkpt>
      <trkpt lat="47.84602" lon="-4.31848">
        <ele>28</ele>
        <time>2022-12-28T13:32:07.906Z</time>
      </trkpt>
      <trkpt lat="47.84589" lon="-4.31881">
        <ele>28</ele>
        <time>2022-12-28T13:32:18.507Z</time>
      </trkpt>
      <trkpt lat="47.84545" lon="-4.31997">
        <ele>27</ele>
        <time>2022-12-28T13:32:29.122Z</time>
      </trkpt>
      <trkpt lat="47.84522" lon="-4.32075">
        <ele>27</ele>
        <time>2022-12-28T13:32:39.747Z</time>
      </trkpt>
      <trkpt lat="47.84513" lon="-4.32135">
        <ele>26</ele>
        <time>2022-12-28T13:32:50.378Z</time>
      </trkpt>
      <trkpt lat="47.84504" lon="-4.32163">
        <ele>26</ele>
        <time>2022-12-28T13:33:01.013Z</time>
      </trkpt>
      <trkpt lat="47.84498" lon="-4.32192">
        <ele>26</ele>
        <time>2022-12-28T13:33:11.651Z</time>
      </trkpt>
      <trkpt lat="47.84472" lon="-4.32267">
        <ele>26</ele>
        <time>2022-12-28T13:33:22.298Z</time>
      </trkpt>
      <trkpt lat="47.84446" lon="-4.32334">
        <ele>25</ele>
        <time>2022-12-28T13:33:32.953Z</time>
      </trkpt>
      <trkpt lat="47.84434" lon="-4.32375">
        <ele>25</ele>
        <time>2022-12-28T13:33:43.613Z</time>
      </trkpt>
      <trkpt lat="47.84431" lon="-4.32387">
        <ele>25</ele>
        <time>2022-12-28T13:33:54.275Z</time>
      </trkpt>
      <trkpt lat="47.84431" lon="-4.32387">
        <ele>25</ele>
        <time>2022-12-28T13:34:04.937Z</time>
      </trkpt>
      <trkpt lat="47.8442" lon="-4.32421">
        <ele>24</ele>
        <time>2022-12-28T13:34:15.603Z</time>
      </trkpt>
      <trkpt lat="47.84413" lon="-4.32448">
        <ele>24</ele>
        <time>2022-12-28T13:34:26.272Z</time>
      </trkpt>
      <trkpt lat="47.84405" lon="-4.32486">
        <ele>24</ele>
        <time>2022-12-28T13:34:36.945Z</time>
      </trkpt>
      <trkpt lat="47.84376" lon="-4.32661">
        <ele>23</ele>
        <time>2022-12-28T13:34:47.637Z</time>
      </trkpt>
      <trkpt lat="47.84369" lon="-4.32679">
        <ele>23</ele>
        <time>2022-12-28T13:34:58.332Z</time>
      </trkpt>
      <trkpt lat="47.84368" lon="-4.3272">
        <ele>23</ele>
        <time>2022-12-28T13:35:09.031Z</time>
      </trkpt>
      <trkpt lat="47.84366" lon="-4.32757">
        <ele>22</ele>
        <time>2022-12-28T13:35:19.734Z</time>
      </trkpt>
      <trkpt lat="47.84364" lon="-4.3277">
        <ele>22</ele>
        <time>2022-12-28T13:35:30.439Z</time>
      </trkpt>
      <trkpt lat="47.84355" lon="-4.32799">
        <ele>22</ele>
        <time>2022-12-28T13:35:41.147Z</time>
      </trkpt>
      <trkpt lat="47.84346" lon="-4.32822">
        <ele>21</ele>
        <time>2022-12-28T13:35:51.858Z</time>
      </trkpt>
      <trkpt lat="47.84317" lon="-4.3289">
        <ele>21</ele>
        <time>2022-12-28T13:36:02.577Z</time>
      </trkpt>
      <trkpt lat="47.84303" lon="-4.32913">
        <ele>20</ele>
        <time>2022-12-28T13:36:13.300Z</time>
      </trkpt>
      <trkpt lat="47.84262" lon="-4.32971">
        <ele>20</ele>
        <time>2022-12-28T13:36:24.032Z</time>
      </trkpt>
      <trkpt lat="47.84254" lon="-4.32984">
        <ele>20</ele>
        <time>2022-12-28T13:36:34.766Z</time>
      </trkpt>
      <trkpt lat="47.84231" lon="-4.33071">
        <ele>19</ele>
        <time>2022-12-28T13:36:45.510Z</time>
      </trkpt>
      <trkpt lat="47.84217" lon="-4.33112">
        <ele>19</ele>
        <time>2022-12-28T13:36:56.259Z</time>
      </trkpt>
      <trkpt lat="47.84209" lon="-4.33141">
        <ele>19</ele>
        <time>2022-12-28T13:37:07.011Z</time>
      </trkpt>
      <trkpt lat="47.84202" lon="-4.33161">
        <ele>18</ele>
        <time>2022-12-28T13:37:17.766Z</time>
      </trkpt>
      <trkpt lat="47.84202" lon="-4.33161">
        <ele>18</ele>
        <time>2022-12-28T13:37:28.521Z</time>
      </trkpt>
      <trkpt lat="47.84192" lon="-4.33193">
        <ele>18</ele>
        <time>2022-12-28T13:37:39.279Z</time>
      </trkpt>
      <trkpt lat="47.84192" lon="-4.33194">
        <ele>17</ele>
        <time>2022-12-28T13:37:50.038Z</time>
      </trkpt>
      <trkpt lat="47.84192" lon="-4.33194">
        <ele>17</ele>
        <time>2022-12-28T13:38:00.797Z</time>
      </trkpt>
      <trkpt lat="47.84191" lon="-4.332">
        <ele>17</ele>
        <time>2022-12-28T13:38:11.556Z</time>
      </trkpt>
      <trkpt lat="47.8419" lon="-4.33201">
        <ele>16</ele>
        <time>2022-12-28T13:38:22.315Z</time>
      </trkpt>
      <trkpt lat="47.8419" lon="-4.33202">
        <ele>16</ele>
        <time>2022-12-28T13:38:33.074Z</time>
      </trkpt>
      <trkpt lat="47.8419" lon="-4.33202">
        <ele>16</ele>
        <time>2022-12-28T13:38:43.833Z</time>
      </trkpt>
      <trkpt lat="47.8417" lon="-4.33272">
        <ele>15</ele>
        <time>2022-12-28T13:38:54.601Z</time>
      </trkpt>
      <trkpt lat="47.84166" lon="-4.33282">
        <ele>15</ele>
        <time>2022-12-28T13:39:05.370Z</time>
      </trkpt>
      <trkpt lat="47.84171" lon="-4.33284">
        <ele>15</ele>
        <time>2022-12-28T13:39:16.140Z</time>
      </trkpt>
      <trkpt lat="47.8418" lon="-4.33288">
        <ele>14</ele>
        <time>2022-12-28T13:39:26.911Z</time>
      </trkpt>
      <trkpt lat="47.8424" lon="-4.33312">
        <ele>14</ele>
        <time>2022-12-28T13:39:37.692Z</time>
      </trkpt>
      <trkpt lat="47.84268" lon="-4.33317">
        <ele>14</ele>
        <time>2022-12-28T13:39:48.478Z</time>
      </trkpt>
      <trkpt lat="47.84292" lon="-4.33328">
        <ele>13</ele>
        <time>2022-12-28T13:39:59.268Z</time>
      </trkpt>
      <trkpt lat="47.84315" lon="-4.33353">
        <ele>13</ele>
        <time>2022-12-28T13:40:10.062Z</time>
      </trkpt>
      <trkpt lat="47.84414" lon="-4.33482">
        <ele>13</ele>
        <time>2022-12-28T13:40:20.877Z</time>
      </trkpt>
      <trkpt lat="47.8438" lon="-4.33571">
        <ele>12</ele>
        <time>2022-12-28T13:40:31.703Z</time>
      </trkpt>
      <trkpt lat="47.84329" lon="-4.33707">
        <ele>11</ele>
        <time>2022-12-28T13:40:42.546Z</time>
      </trkpt>
      <trkpt lat="47.84313" lon="-4.33749">
        <ele>10</ele>
        <time>2022-12-28T13:40:53.394Z</time>
      </trkpt>
      <trkpt lat="47.84379" lon="-4.33575">
        <ele>10</ele>
        <time>2022-12-28T13:41:04.264Z</time>
      </trkpt>
      <trkpt lat="47.8438" lon="-4.33571">
        <ele>11</ele>
        <time>2022-12-28T13:41:15.134Z</time>
      </trkpt>
      <trkpt lat="47.84313" lon="-4.33749">
        <ele>10</ele>
        <time>2022-12-28T13:41:26.026Z</time>
      </trkpt>
      <trkpt lat="47.84312" lon="-4.33753">
        <ele>9</ele>
        <time>2022-12-28T13:41:36.919Z</time>
      </trkpt>
      <trkpt lat="47.84265" lon="-4.33926">
        <ele>9</ele>
        <time>2022-12-28T13:41:47.832Z</time>
      </trkpt>
      <trkpt lat="47.84265" lon="-4.33927">
        <ele>8</ele>
        <time>2022-12-28T13:41:58.745Z</time>
      </trkpt>
      <trkpt lat="47.84264" lon="-4.33928">
        <ele>8</ele>
        <time>2022-12-28T13:42:09.658Z</time>
      </trkpt>
      <trkpt lat="47.84264" lon="-4.3393">
        <ele>8</ele>
        <time>2022-12-28T13:42:20.571Z</time>
      </trkpt>
      <trkpt lat="47.84242" lon="-4.33985">
        <ele>8</ele>
        <time>2022-12-28T13:42:31.491Z</time>
      </trkpt>
      <trkpt lat="47.84228" lon="-4.34015">
        <ele>7</ele>
        <time>2022-12-28T13:42:42.415Z</time>
      </trkpt>
      <trkpt lat="47.84223" lon="-4.34025">
        <ele>7</ele>
        <time>2022-12-28T13:42:53.341Z</time>
      </trkpt>
      <trkpt lat="47.84223" lon="-4.34025">
        <ele>7</ele>
        <time>2022-12-28T13:43:04.267Z</time>
      </trkpt>
      <trkpt lat="47.84197" lon="-4.34065">
        <ele>7</ele>
        <time>2022-12-28T13:43:15.199Z</time>
      </trkpt>
      <trkpt lat="47.84193" lon="-4.34075">
        <ele>7</ele>
        <time>2022-12-28T13:43:26.132Z</time>
      </trkpt>
      <trkpt lat="47.84126" lon="-4.34209">
        <ele>6</ele>
        <time>2022-12-28T13:43:37.083Z</time>
      </trkpt>
      <trkpt lat="47.84124" lon="-4.34212">
        <ele>6</ele>
        <time>2022-12-28T13:43:48.034Z</time>
      </trkpt>
      <trkpt lat="47.8412" lon="-4.34219">
        <ele>6</ele>
        <time>2022-12-28T13:43:58.986Z</time>
      </trkpt>
      <trkpt lat="47.84105" lon="-4.34244">
        <ele>6</ele>
        <time>2022-12-28T13:44:09.942Z</time>
      </trkpt>
      <trkpt lat="47.84097" lon="-4.34252">
        <ele>6</ele>
        <time>2022-12-28T13:44:20.899Z</time>
      </trkpt>
      <trkpt lat="47.84088" lon="-4.3426">
        <ele>5</ele>
        <time>2022-12-28T13:44:31.858Z</time>
      </trkpt>
      <trkpt lat="47.84076" lon="-4.34279">
        <ele>5</ele>
        <time>2022-12-28T13:44:42.820Z</time>
      </trkpt>
      <trkpt lat="47.84061" lon="-4.34305">
        <ele>5</ele>
        <time>2022-12-28T13:44:53.786Z</time>
      </trkpt>
      <trkpt lat="47.8405" lon="-4.3433">
        <ele>5</ele>
        <time>2022-12-28T13:45:04.755Z</time>
      </trkpt>
      <trkpt lat="47.84045" lon="-4.34349">
        <ele>5</ele>
        <time>2022-12-28T13:45:15.726Z</time>
      </trkpt>
      <trkpt lat="47.8404" lon="-4.34345">
        <ele>5</ele>
        <time>2022-12-28T13:45:26.698Z</time>
      </trkpt>
      <trkpt lat="47.84028" lon="-4.34346">
        <ele>5</ele>
        <time>2022-12-28T13:45:37.672Z</time>
      </trkpt>
      <trkpt lat="47.84025" lon="-4.34346">
        <ele>5</ele>
        <time>2022-12-28T13:45:48.646Z</time>
      </trkpt>
      <trkpt lat="47.8402" lon="-4.34349">
        <ele>5</ele>
        <time>2022-12-28T13:45:59.621Z</time>
      </trkpt>
      <trkpt lat="47.84002" lon="-4.34361">
        <ele>5</ele>
        <time>2022-12-28T13:46:10.599Z</time>
      </trkpt>
      <trkpt lat="47.83974" lon="-4.34372">
        <ele>4</ele>
        <time>2022-12-28T13:46:21.582Z</time>
      </trkpt>
      <trkpt lat="47.83954" lon="-4.34385">
        <ele>4</ele>
        <time>2022-12-28T13:46:32.568Z</time>
      </trkpt>
      <trkpt lat="47.83935" lon="-4.344">
        <ele>4</ele>
        <time>2022-12-28T13:46:43.558Z</time>
      </trkpt>
      <trkpt lat="47.83915" lon="-4.3442">
        <ele>4</ele>
        <time>2022-12-28T13:46:54.552Z</time>
      </trkpt>
      <trkpt lat="47.83894" lon="-4.34455">
        <ele>4</ele>
        <time>2022-12-28T13:47:05.551Z</time>
      </trkpt>
      <trkpt lat="47.83865" lon="-4.3446">
        <ele>4</ele>
        <time>2022-12-28T13:47:16.554Z</time>
      </trkpt>
      <trkpt lat="47.83849" lon="-4.34464">
        <ele>4</ele>
        <time>2022-12-28T13:47:27.560Z</time>
      </trkpt>
      <trkpt lat="47.83822" lon="-4.34476">
        <ele>4</ele>
        <time>2022-12-28T13:47:38.571Z</time>
      </trkpt>
      <trkpt lat="47.83805" lon="-4.34491">
        <ele>4</ele>
        <time>2022-12-28T13:47:49.585Z</time>
      </trkpt>
      <trkpt lat="47.83798" lon="-4.34498">
        <ele>4</ele>
        <time>2022-12-28T13:48:00.600Z</time>
      </trkpt>
      <trkpt lat="47.83798" lon="-4.34498">
        <ele>4</ele>
        <time>2022-12-28T13:48:11.615Z</time>
      </trkpt>
      <trkpt lat="47.83784" lon="-4.34507">
        <ele>4</ele>
        <time>2022-12-28T13:48:22.632Z</time>
      </trkpt>
      <trkpt lat="47.83753" lon="-4.34536">
        <ele>4</ele>
        <time>2022-12-28T13:48:33.655Z</time>
      </trkpt>
      <trkpt lat="47.83753" lon="-4.34537">
        <ele>4</ele>
        <time>2022-12-28T13:48:44.678Z</time>
      </trkpt>
      <trkpt lat="47.83752" lon="-4.34537">
        <ele>4</ele>
        <time>2022-12-28T13:48:55.702Z</time>
      </trkpt>
      <trkpt lat="47.83747" lon="-4.34543">
        <ele>5</ele>
        <time>2022-12-28T13:49:06.727Z</time>
      </trkpt>
      <trkpt lat="47.83735" lon="-4.34548">
        <ele>5</ele>
        <time>2022-12-28T13:49:17.754Z</time>
      </trkpt>
      <trkpt lat="47.83729" lon="-4.34547">
        <ele>5</ele>
        <time>2022-12-28T13:49:28.781Z</time>
      </trkpt>
      <trkpt lat="47.83728" lon="-4.34566">
        <ele>5</ele>
        <time>2022-12-28T13:49:39.811Z</time>
      </trkpt>
      <trkpt lat="47.83726" lon="-4.34605">
        <ele>5</ele>
        <time>2022-12-28T13:49:50.845Z</time>
      </trkpt>
      <trkpt lat="47.83725" lon="-4.34608">
        <ele>5</ele>
        <time>2022-12-28T13:50:01.879Z</time>
      </trkpt>
      <trkpt lat="47.83672" lon="-4.34623">
        <ele>5</ele>
        <time>2022-12-28T13:50:12.922Z</time>
      </trkpt>
      <trkpt lat="47.83628" lon="-4.34635">
        <ele>5</ele>
        <time>2022-12-28T13:50:23.972Z</time>
      </trkpt>
      <trkpt lat="47.83628" lon="-4.34635">
        <ele>5</ele>
        <time>2022-12-28T13:50:35.022Z</time>
      </trkpt>
      <trkpt lat="47.83627" lon="-4.34636">
        <ele>5</ele>
        <time>2022-12-28T13:50:46.072Z</time>
      </trkpt>
      <trkpt lat="47.83571" lon="-4.34652">
        <ele>6</ele>
        <time>2022-12-28T13:50:57.131Z</time>
      </trkpt>
      <trkpt lat="47.83531" lon="-4.34663">
        <ele>6</ele>
        <time>2022-12-28T13:51:08.197Z</time>
      </trkpt>
      <trkpt lat="47.83508" lon="-4.3462">
        <ele>6</ele>
        <time>2022-12-28T13:51:19.269Z</time>
      </trkpt>
      <trkpt lat="47.83503" lon="-4.34611">
        <ele>6</ele>
        <time>2022-12-28T13:51:30.342Z</time>
      </trkpt>
      <trkpt lat="47.83502" lon="-4.34611">
        <ele>6</ele>
        <time>2022-12-28T13:51:41.415Z</time>
      </trkpt>
      <trkpt lat="47.83502" lon="-4.3461">
        <ele>6</ele>
        <time>2022-12-28T13:51:52.488Z</time>
      </trkpt>
      <trkpt lat="47.83384" lon="-4.3444">
        <ele>7</ele>
        <time>2022-12-28T13:52:03.587Z</time>
      </trkpt>
      <trkpt lat="47.83349" lon="-4.34402">
        <ele>7</ele>
        <time>2022-12-28T13:52:14.693Z</time>
      </trkpt>
      <trkpt lat="47.83341" lon="-4.34391">
        <ele>7</ele>
        <time>2022-12-28T13:52:25.801Z</time>
      </trkpt>
      <trkpt lat="47.83333" lon="-4.34387">
        <ele>7</ele>
        <time>2022-12-28T13:52:36.911Z</time>
      </trkpt>
      <trkpt lat="47.83322" lon="-4.34377">
        <ele>7</ele>
        <time>2022-12-28T13:52:48.023Z</time>
      </trkpt>
      <trkpt lat="47.83316" lon="-4.34369">
        <ele>7</ele>
        <time>2022-12-28T13:52:59.136Z</time>
      </trkpt>
      <trkpt lat="47.83315" lon="-4.34369">
        <ele>7</ele>
        <time>2022-12-28T13:53:10.249Z</time>
      </trkpt>
      <trkpt lat="47.83314" lon="-4.34368">
        <ele>8</ele>
        <time>2022-12-28T13:53:21.362Z</time>
      </trkpt>
      <trkpt lat="47.83314" lon="-4.34368">
        <ele>8</ele>
        <time>2022-12-28T13:53:32.475Z</time>
      </trkpt>
      <trkpt lat="47.83314" lon="-4.34368">
        <ele>8</ele>
        <time>2022-12-28T13:53:43.588Z</time>
      </trkpt>
      <trkpt lat="47.83322" lon="-4.34377">
        <ele>7</ele>
        <time>2022-12-28T13:53:54.703Z</time>
      </trkpt>
      <trkpt lat="47.83292" lon="-4.3439">
        <ele>8</ele>
        <time>2022-12-28T13:54:05.823Z</time>
      </trkpt>
      <trkpt lat="47.8323" lon="-4.34415">
        <ele>8</ele>
        <time>2022-12-28T13:54:16.953Z</time>
      </trkpt>
      <trkpt lat="47.83167" lon="-4.34439">
        <ele>8</ele>
        <time>2022-12-28T13:54:28.093Z</time>
      </trkpt>
      <trkpt lat="47.83159" lon="-4.34442">
        <ele>8</ele>
        <time>2022-12-28T13:54:39.235Z</time>
      </trkpt>
      <trkpt lat="47.83149" lon="-4.34446">
        <ele>8</ele>
        <time>2022-12-28T13:54:50.378Z</time>
      </trkpt>
      <trkpt lat="47.83096" lon="-4.34467">
        <ele>8</ele>
        <time>2022-12-28T13:55:01.530Z</time>
      </trkpt>
      <trkpt lat="47.83031" lon="-4.34493">
        <ele>8</ele>
        <time>2022-12-28T13:55:12.693Z</time>
      </trkpt>
      <trkpt lat="47.82907" lon="-4.34544">
        <ele>8</ele>
        <time>2022-12-28T13:55:23.876Z</time>
      </trkpt>
      <trkpt lat="47.82899" lon="-4.34546">
        <ele>8</ele>
        <time>2022-12-28T13:55:35.061Z</time>
      </trkpt>
      <trkpt lat="47.82746" lon="-4.34607">
        <ele>8</ele>
        <time>2022-12-28T13:55:46.271Z</time>
      </trkpt>
      <trkpt lat="47.82746" lon="-4.34607">
        <ele>8</ele>
        <time>2022-12-28T13:55:57.481Z</time>
      </trkpt>
      <trkpt lat="47.82742" lon="-4.34608">
        <ele>8</ele>
        <time>2022-12-28T13:56:08.692Z</time>
      </trkpt>
      <trkpt lat="47.82732" lon="-4.34612">
        <ele>8</ele>
        <time>2022-12-28T13:56:19.904Z</time>
      </trkpt>
      <trkpt lat="47.82721" lon="-4.3468">
        <ele>8</ele>
        <time>2022-12-28T13:56:31.124Z</time>
      </trkpt>
      <trkpt lat="47.82707" lon="-4.34698">
        <ele>8</ele>
        <time>2022-12-28T13:56:42.347Z</time>
      </trkpt>
      <trkpt lat="47.82684" lon="-4.34722">
        <ele>7</ele>
        <time>2022-12-28T13:56:53.574Z</time>
      </trkpt>
      <trkpt lat="47.82659" lon="-4.34758">
        <ele>7</ele>
        <time>2022-12-28T13:57:04.807Z</time>
      </trkpt>
      <trkpt lat="47.82657" lon="-4.3476">
        <ele>7</ele>
        <time>2022-12-28T13:57:16.040Z</time>
      </trkpt>
      <trkpt lat="47.82652" lon="-4.34765">
        <ele>7</ele>
        <time>2022-12-28T13:57:27.274Z</time>
      </trkpt>
      <trkpt lat="47.82646" lon="-4.34771">
        <ele>7</ele>
        <time>2022-12-28T13:57:38.510Z</time>
      </trkpt>
      <trkpt lat="47.82639" lon="-4.34787">
        <ele>7</ele>
        <time>2022-12-28T13:57:49.748Z</time>
      </trkpt>
      <trkpt lat="47.82631" lon="-4.34799">
        <ele>7</ele>
        <time>2022-12-28T13:58:00.987Z</time>
      </trkpt>
      <trkpt lat="47.8263" lon="-4.348">
        <ele>7</ele>
        <time>2022-12-28T13:58:12.227Z</time>
      </trkpt>
      <trkpt lat="47.8263" lon="-4.348">
        <ele>7</ele>
        <time>2022-12-28T13:58:23.467Z</time>
      </trkpt>
      <trkpt lat="47.82619" lon="-4.34815">
        <ele>7</ele>
        <time>2022-12-28T13:58:34.709Z</time>
      </trkpt>
      <trkpt lat="47.82604" lon="-4.3484">
        <ele>7</ele>
        <time>2022-12-28T13:58:45.955Z</time>
      </trkpt>
      <trkpt lat="47.82595" lon="-4.34858">
        <ele>7</ele>
        <time>2022-12-28T13:58:57.203Z</time>
      </trkpt>
      <trkpt lat="47.82586" lon="-4.34892">
        <ele>7</ele>
        <time>2022-12-28T13:59:08.455Z</time>
      </trkpt>
      <trkpt lat="47.82574" lon="-4.34918">
        <ele>6</ele>
        <time>2022-12-28T13:59:19.710Z</time>
      </trkpt>
      <trkpt lat="47.8257" lon="-4.34932">
        <ele>6</ele>
        <time>2022-12-28T13:59:30.967Z</time>
      </trkpt>
      <trkpt lat="47.8257" lon="-4.34954">
        <ele>6</ele>
        <time>2022-12-28T13:59:42.226Z</time>
      </trkpt>
      <trkpt lat="47.82561" lon="-4.35003">
        <ele>6</ele>
        <time>2022-12-28T13:59:53.491Z</time>
      </trkpt>
      <trkpt lat="47.82557" lon="-4.35045">
        <ele>6</ele>
        <time>2022-12-28T14:00:04.760Z</time>
      </trkpt>
      <trkpt lat="47.82547" lon="-4.35105">
        <ele>6</ele>
        <time>2022-12-28T14:00:16.036Z</time>
      </trkpt>
      <trkpt lat="47.82524" lon="-4.35241">
        <ele>6</ele>
        <time>2022-12-28T14:00:27.327Z</time>
      </trkpt>
      <trkpt lat="47.82525" lon="-4.35243">
        <ele>6</ele>
        <time>2022-12-28T14:00:38.618Z</time>
      </trkpt>
      <trkpt lat="47.82525" lon="-4.3525">
        <ele>6</ele>
        <time>2022-12-28T14:00:49.910Z</time>
      </trkpt>
      <trkpt lat="47.82511" lon="-4.35356">
        <ele>6</ele>
        <time>2022-12-28T14:01:01.214Z</time>
      </trkpt>
      <trkpt lat="47.82511" lon="-4.35356">
        <ele>6</ele>
        <time>2022-12-28T14:01:12.518Z</time>
      </trkpt>
      <trkpt lat="47.8249" lon="-4.35504">
        <ele>6</ele>
        <time>2022-12-28T14:01:23.838Z</time>
      </trkpt>
      <trkpt lat="47.82487" lon="-4.35523">
        <ele>5</ele>
        <time>2022-12-28T14:01:35.160Z</time>
      </trkpt>
      <trkpt lat="47.82474" lon="-4.35614">
        <ele>5</ele>
        <time>2022-12-28T14:01:46.492Z</time>
      </trkpt>
      <trkpt lat="47.8249" lon="-4.35504">
        <ele>5</ele>
        <time>2022-12-28T14:01:57.836Z</time>
      </trkpt>
      <trkpt lat="47.82474" lon="-4.35614">
        <ele>5</ele>
        <time>2022-12-28T14:02:09.192Z</time>
      </trkpt>
      <trkpt lat="47.82474" lon="-4.35614">
        <ele>5</ele>
        <time>2022-12-28T14:02:20.548Z</time>
      </trkpt>
      <trkpt lat="47.82474" lon="-4.35615">
        <ele>5</ele>
        <time>2022-12-28T14:02:31.905Z</time>
      </trkpt>
      <trkpt lat="47.82465" lon="-4.35683">
        <ele>5</ele>
        <time>2022-12-28T14:02:43.269Z</time>
      </trkpt>
      <trkpt lat="47.82465" lon="-4.35683">
        <ele>5</ele>
        <time>2022-12-28T14:02:54.633Z</time>
      </trkpt>
      <trkpt lat="47.82458" lon="-4.35729">
        <ele>5</ele>
        <time>2022-12-28T14:03:06.002Z</time>
      </trkpt>
      <trkpt lat="47.82457" lon="-4.35735">
        <ele>5</ele>
        <time>2022-12-28T14:03:17.372Z</time>
      </trkpt>
      <trkpt lat="47.82456" lon="-4.35741">
        <ele>5</ele>
        <time>2022-12-28T14:03:28.742Z</time>
      </trkpt>
      <trkpt lat="47.82448" lon="-4.35784">
        <ele>5</ele>
        <time>2022-12-28T14:03:40.117Z</time>
      </trkpt>
      <trkpt lat="47.82442" lon="-4.35799">
        <ele>5</ele>
        <time>2022-12-28T14:03:51.494Z</time>
      </trkpt>
      <trkpt lat="47.82448" lon="-4.35813">
        <ele>5</ele>
        <time>2022-12-28T14:04:02.873Z</time>
      </trkpt>
      <trkpt lat="47.82454" lon="-4.35836">
        <ele>5</ele>
        <time>2022-12-28T14:04:14.255Z</time>
      </trkpt>
      <trkpt lat="47.82471" lon="-4.35932">
        <ele>5</ele>
        <time>2022-12-28T14:04:25.647Z</time>
      </trkpt>
      <trkpt lat="47.82471" lon="-4.35932">
        <ele>5</ele>
        <time>2022-12-28T14:04:37.039Z</time>
      </trkpt>
      <trkpt lat="47.82476" lon="-4.3596">
        <ele>5</ele>
        <time>2022-12-28T14:04:48.434Z</time>
      </trkpt>
      <trkpt lat="47.82489" lon="-4.36037">
        <ele>5</ele>
        <time>2022-12-28T14:04:59.838Z</time>
      </trkpt>
      <trkpt lat="47.82495" lon="-4.36064">
        <ele>5</ele>
        <time>2022-12-28T14:05:11.245Z</time>
      </trkpt>
      <trkpt lat="47.82502" lon="-4.36115">
        <ele>5</ele>
        <time>2022-12-28T14:05:22.658Z</time>
      </trkpt>
      <trkpt lat="47.82507" lon="-4.36138">
        <ele>5</ele>
        <time>2022-12-28T14:05:34.073Z</time>
      </trkpt>
      <trkpt lat="47.8251" lon="-4.3615">
        <ele>5</ele>
        <time>2022-12-28T14:05:45.490Z</time>
      </trkpt>
      <trkpt lat="47.82519" lon="-4.36187">
        <ele>5</ele>
        <time>2022-12-28T14:05:56.911Z</time>
      </trkpt>
      <trkpt lat="47.82522" lon="-4.36196">
        <ele>5</ele>
        <time>2022-12-28T14:06:08.333Z</time>
      </trkpt>
      <trkpt lat="47.82538" lon="-4.36214">
        <ele>5</ele>
        <time>2022-12-28T14:06:19.758Z</time>
      </trkpt>
      <trkpt lat="47.82554" lon="-4.36231">
        <ele>5</ele>
        <time>2022-12-28T14:06:31.186Z</time>
      </trkpt>
      <trkpt lat="47.82591" lon="-4.36275">
        <ele>5</ele>
        <time>2022-12-28T14:06:42.622Z</time>
      </trkpt>
      <trkpt lat="47.82599" lon="-4.36283">
        <ele>4</ele>
        <time>2022-12-28T14:06:54.059Z</time>
      </trkpt>
      <trkpt lat="47.826" lon="-4.36284">
        <ele>4</ele>
        <time>2022-12-28T14:07:05.497Z</time>
      </trkpt>
      <trkpt lat="47.82608" lon="-4.36296">
        <ele>4</ele>
        <time>2022-12-28T14:07:16.936Z</time>
      </trkpt>
      <trkpt lat="47.82616" lon="-4.36316">
        <ele>4</ele>
        <time>2022-12-28T14:07:28.378Z</time>
      </trkpt>
      <trkpt lat="47.82616" lon="-4.36316">
        <ele>4</ele>
        <time>2022-12-28T14:07:39.820Z</time>
      </trkpt>
      <trkpt lat="47.82621" lon="-4.36349">
        <ele>4</ele>
        <time>2022-12-28T14:07:51.266Z</time>
      </trkpt>
      <trkpt lat="47.82621" lon="-4.36404">
        <ele>4</ele>
        <time>2022-12-28T14:08:02.718Z</time>
      </trkpt>
      <trkpt lat="47.82653" lon="-4.36364">
        <ele>4</ele>
        <time>2022-12-28T14:08:14.176Z</time>
      </trkpt>
      <trkpt lat="47.82674" lon="-4.36344">
        <ele>3</ele>
        <time>2022-12-28T14:08:25.638Z</time>
      </trkpt>
      <trkpt lat="47.82674" lon="-4.36344">
        <ele>3</ele>
        <time>2022-12-28T14:08:37.100Z</time>
      </trkpt>
      <trkpt lat="47.8268" lon="-4.36338">
        <ele>3</ele>
        <time>2022-12-28T14:08:48.563Z</time>
      </trkpt>
      <trkpt lat="47.82709" lon="-4.36324">
        <ele>3</ele>
        <time>2022-12-28T14:09:00.031Z</time>
      </trkpt>
      <trkpt lat="47.82709" lon="-4.36324">
        <ele>3</ele>
        <time>2022-12-28T14:09:11.499Z</time>
      </trkpt>
      <trkpt lat="47.8271" lon="-4.36323">
        <ele>3</ele>
        <time>2022-12-28T14:09:22.967Z</time>
      </trkpt>
      <trkpt lat="47.8271" lon="-4.36323">
        <ele>2</ele>
        <time>2022-12-28T14:09:34.435Z</time>
      </trkpt>
      <trkpt lat="47.82719" lon="-4.36319">
        <ele>2</ele>
        <time>2022-12-28T14:09:45.905Z</time>
      </trkpt>
      <trkpt lat="47.82744" lon="-4.36313">
        <ele>2</ele>
        <time>2022-12-28T14:09:57.379Z</time>
      </trkpt>
      <trkpt lat="47.82765" lon="-4.36304">
        <ele>2</ele>
        <time>2022-12-28T14:10:08.857Z</time>
      </trkpt>
      <trkpt lat="47.82797" lon="-4.36291">
        <ele>2</ele>
        <time>2022-12-28T14:10:20.340Z</time>
      </trkpt>
      <trkpt lat="47.82765" lon="-4.36304">
        <ele>2</ele>
        <time>2022-12-28T14:10:31.828Z</time>
      </trkpt>
      <trkpt lat="47.82797" lon="-4.36291">
        <ele>2</ele>
        <time>2022-12-28T14:10:43.321Z</time>
      </trkpt>
      <trkpt lat="47.82809" lon="-4.36282">
        <ele>2</ele>
        <time>2022-12-28T14:10:54.817Z</time>
      </trkpt>
      <trkpt lat="47.82811" lon="-4.36283">
        <ele>2</ele>
        <time>2022-12-28T14:11:06.313Z</time>
      </trkpt>
      <trkpt lat="47.82815" lon="-4.36286">
        <ele>1</ele>
        <time>2022-12-28T14:11:17.810Z</time>
      </trkpt>
      <trkpt lat="47.82811" lon="-4.36283">
        <ele>2</ele>
        <time>2022-12-28T14:11:29.307Z</time>
      </trkpt>
      <trkpt lat="47.82815" lon="-4.36286">
        <ele>1</ele>
        <time>2022-12-28T14:11:40.805Z</time>
      </trkpt>
      <trkpt lat="47.82819" lon="-4.36294">
        <ele>1</ele>
        <time>2022-12-28T14:11:52.304Z</time>
      </trkpt>
      <trkpt lat="47.82811" lon="-4.36327">
        <ele>1</ele>
        <time>2022-12-28T14:12:03.807Z</time>
      </trkpt>
      <trkpt lat="47.82803" lon="-4.36369">
        <ele>2</ele>
        <time>2022-12-28T14:12:15.315Z</time>
      </trkpt>
      <trkpt lat="47.82811" lon="-4.36327">
        <ele>2</ele>
        <time>2022-12-28T14:12:26.827Z</time>
      </trkpt>
      <trkpt lat="47.82803" lon="-4.36369">
        <ele>2</ele>
        <time>2022-12-28T14:12:38.344Z</time>
      </trkpt>
      <trkpt lat="47.82797" lon="-4.36407">
        <ele>2</ele>
        <time>2022-12-28T14:12:49.865Z</time>
      </trkpt>
      <trkpt lat="47.82796" lon="-4.36436">
        <ele>2</ele>
        <time>2022-12-28T14:13:01.389Z</time>
      </trkpt>
      <trkpt lat="47.82797" lon="-4.36445">
        <ele>3</ele>
        <time>2022-12-28T14:13:12.914Z</time>
      </trkpt>
      <trkpt lat="47.828" lon="-4.3649">
        <ele>3</ele>
        <time>2022-12-28T14:13:24.444Z</time>
      </trkpt>
      <trkpt lat="47.828" lon="-4.36494">
        <ele>3</ele>
        <time>2022-12-28T14:13:35.975Z</time>
      </trkpt>
      <trkpt lat="47.828" lon="-4.36495">
        <ele>3</ele>
        <time>2022-12-28T14:13:47.506Z</time>
      </trkpt>
      <trkpt lat="47.828" lon="-4.36509">
        <ele>3</ele>
        <time>2022-12-28T14:13:59.038Z</time>
      </trkpt>
      <trkpt lat="47.828" lon="-4.36529">
        <ele>3</ele>
        <time>2022-12-28T14:14:10.572Z</time>
      </trkpt>
      <trkpt lat="47.828" lon="-4.36542">
        <ele>4</ele>
        <time>2022-12-28T14:14:22.108Z</time>
      </trkpt>
      <trkpt lat="47.828" lon="-4.36564">
        <ele>4</ele>
        <time>2022-12-28T14:14:33.646Z</time>
      </trkpt>
      <trkpt lat="47.82793" lon="-4.36604">
        <ele>4</ele>
        <time>2022-12-28T14:14:45.189Z</time>
      </trkpt>
      <trkpt lat="47.82781" lon="-4.36624">
        <ele>4</ele>
        <time>2022-12-28T14:14:56.735Z</time>
      </trkpt>
      <trkpt lat="47.8273" lon="-4.36677">
        <ele>5</ele>
        <time>2022-12-28T14:15:08.291Z</time>
      </trkpt>
      <trkpt lat="47.82676" lon="-4.36682">
        <ele>5</ele>
        <time>2022-12-28T14:15:19.855Z</time>
      </trkpt>
      <trkpt lat="47.82612" lon="-4.36694">
        <ele>5</ele>
        <time>2022-12-28T14:15:31.430Z</time>
      </trkpt>
      <trkpt lat="47.82602" lon="-4.3669">
        <ele>5</ele>
        <time>2022-12-28T14:15:43.006Z</time>
      </trkpt>
      <trkpt lat="47.82574" lon="-4.36709">
        <ele>5</ele>
        <time>2022-12-28T14:15:54.587Z</time>
      </trkpt>
      <trkpt lat="47.82548" lon="-4.36741">
        <ele>6</ele>
        <time>2022-12-28T14:16:06.173Z</time>
      </trkpt>
      <trkpt lat="47.82521" lon="-4.36737">
        <ele>6</ele>
        <time>2022-12-28T14:16:17.764Z</time>
      </trkpt>
      <trkpt lat="47.82513" lon="-4.36729">
        <ele>6</ele>
        <time>2022-12-28T14:16:29.356Z</time>
      </trkpt>
      <trkpt lat="47.82503" lon="-4.36737">
        <ele>6</ele>
        <time>2022-12-28T14:16:40.950Z</time>
      </trkpt>
      <trkpt lat="47.82497" lon="-4.36742">
        <ele>7</ele>
        <time>2022-12-28T14:16:52.545Z</time>
      </trkpt>
      <trkpt lat="47.82488" lon="-4.36753">
        <ele>7</ele>
        <time>2022-12-28T14:17:04.142Z</time>
      </trkpt>
      <trkpt lat="47.82472" lon="-4.36783">
        <ele>7</ele>
        <time>2022-12-28T14:17:15.743Z</time>
      </trkpt>
      <trkpt lat="47.82466" lon="-4.36811">
        <ele>7</ele>
        <time>2022-12-28T14:17:27.347Z</time>
      </trkpt>
      <trkpt lat="47.82451" lon="-4.36905">
        <ele>8</ele>
        <time>2022-12-28T14:17:38.962Z</time>
      </trkpt>
      <trkpt lat="47.82438" lon="-4.36968">
        <ele>8</ele>
        <time>2022-12-28T14:17:50.584Z</time>
      </trkpt>
      <trkpt lat="47.82429" lon="-4.37002">
        <ele>8</ele>
        <time>2022-12-28T14:18:02.210Z</time>
      </trkpt>
      <trkpt lat="47.82429" lon="-4.37002">
        <ele>8</ele>
        <time>2022-12-28T14:18:13.836Z</time>
      </trkpt>
      <trkpt lat="47.82411" lon="-4.37069">
        <ele>9</ele>
        <time>2022-12-28T14:18:25.470Z</time>
      </trkpt>
      <trkpt lat="47.82409" lon="-4.37079">
        <ele>9</ele>
        <time>2022-12-28T14:18:37.105Z</time>
      </trkpt>
      <trkpt lat="47.82409" lon="-4.37079">
        <ele>9</ele>
        <time>2022-12-28T14:18:48.740Z</time>
      </trkpt>
      <trkpt lat="47.82401" lon="-4.37112">
        <ele>9</ele>
        <time>2022-12-28T14:19:00.379Z</time>
      </trkpt>
      <trkpt lat="47.82401" lon="-4.37112">
        <ele>9</ele>
        <time>2022-12-28T14:19:12.018Z</time>
      </trkpt>
      <trkpt lat="47.824" lon="-4.37116">
        <ele>9</ele>
        <time>2022-12-28T14:19:23.657Z</time>
      </trkpt>
      <trkpt lat="47.824" lon="-4.37117">
        <ele>9</ele>
        <time>2022-12-28T14:19:35.296Z</time>
      </trkpt>
      <trkpt lat="47.824" lon="-4.37117">
        <ele>9</ele>
        <time>2022-12-28T14:19:46.935Z</time>
      </trkpt>
      <trkpt lat="47.82386" lon="-4.37174">
        <ele>10</ele>
        <time>2022-12-28T14:19:58.581Z</time>
      </trkpt>
      <trkpt lat="47.82386" lon="-4.37174">
        <ele>10</ele>
        <time>2022-12-28T14:20:10.227Z</time>
      </trkpt>
      <trkpt lat="47.82379" lon="-4.37204">
        <ele>10</ele>
        <time>2022-12-28T14:20:21.876Z</time>
      </trkpt>
      <trkpt lat="47.8237" lon="-4.37214">
        <ele>10</ele>
        <time>2022-12-28T14:20:33.527Z</time>
      </trkpt>
      <trkpt lat="47.82336" lon="-4.37242">
        <ele>10</ele>
        <time>2022-12-28T14:20:45.184Z</time>
      </trkpt>
      <trkpt lat="47.82221" lon="-4.37339">
        <ele>10</ele>
        <time>2022-12-28T14:20:56.862Z</time>
      </trkpt>
      <trkpt lat="47.82212" lon="-4.37345">
        <ele>10</ele>
        <time>2022-12-28T14:21:08.542Z</time>
      </trkpt>
      <trkpt lat="47.82172" lon="-4.3736">
        <ele>10</ele>
        <time>2022-12-28T14:21:20.228Z</time>
      </trkpt>
      <trkpt lat="47.82154" lon="-4.37363">
        <ele>10</ele>
        <time>2022-12-28T14:21:31.917Z</time>
      </trkpt>
      <trkpt lat="47.82127" lon="-4.37363">
        <ele>10</ele>
        <time>2022-12-28T14:21:43.611Z</time>
      </trkpt>
      <trkpt lat="47.82104" lon="-4.37357">
        <ele>9</ele>
        <time>2022-12-28T14:21:55.308Z</time>
      </trkpt>
      <trkpt lat="47.82104" lon="-4.37357">
        <ele>9</ele>
        <time>2022-12-28T14:22:07.005Z</time>
      </trkpt>
      <trkpt lat="47.82068" lon="-4.3735">
        <ele>9</ele>
        <time>2022-12-28T14:22:18.708Z</time>
      </trkpt>
      <trkpt lat="47.82065" lon="-4.3735">
        <ele>9</ele>
        <time>2022-12-28T14:22:30.412Z</time>
      </trkpt>
      <trkpt lat="47.82039" lon="-4.37355">
        <ele>9</ele>
        <time>2022-12-28T14:22:42.120Z</time>
      </trkpt>
      <trkpt lat="47.82036" lon="-4.37356">
        <ele>9</ele>
        <time>2022-12-28T14:22:53.828Z</time>
      </trkpt>
      <trkpt lat="47.82021" lon="-4.3736">
        <ele>8</ele>
        <time>2022-12-28T14:23:05.539Z</time>
      </trkpt>
      <trkpt lat="47.8201" lon="-4.37366">
        <ele>8</ele>
        <time>2022-12-28T14:23:17.252Z</time>
      </trkpt>
      <trkpt lat="47.82" lon="-4.3739">
        <ele>8</ele>
        <time>2022-12-28T14:23:28.968Z</time>
      </trkpt>
      <trkpt lat="47.81991" lon="-4.37407">
        <ele>8</ele>
        <time>2022-12-28T14:23:40.686Z</time>
      </trkpt>
      <trkpt lat="47.81983" lon="-4.37398">
        <ele>8</ele>
        <time>2022-12-28T14:23:52.406Z</time>
      </trkpt>
      <trkpt lat="47.8196" lon="-4.37406">
        <ele>7</ele>
        <time>2022-12-28T14:24:04.129Z</time>
      </trkpt>
      <trkpt lat="47.81926" lon="-4.37429">
        <ele>7</ele>
        <time>2022-12-28T14:24:15.858Z</time>
      </trkpt>
      <trkpt lat="47.81926" lon="-4.37429">
        <ele>7</ele>
        <time>2022-12-28T14:24:27.587Z</time>
      </trkpt>
      <trkpt lat="47.81906" lon="-4.37436">
        <ele>7</ele>
        <time>2022-12-28T14:24:39.320Z</time>
      </trkpt>
      <trkpt lat="47.81903" lon="-4.37463">
        <ele>6</ele>
        <time>2022-12-28T14:24:51.056Z</time>
      </trkpt>
      <trkpt lat="47.81893" lon="-4.37501">
        <ele>6</ele>
        <time>2022-12-28T14:25:02.796Z</time>
      </trkpt>
      <trkpt lat="47.81874" lon="-4.37546">
        <ele>6</ele>
        <time>2022-12-28T14:25:14.542Z</time>
      </trkpt>
      <trkpt lat="47.8185" lon="-4.37595">
        <ele>6</ele>
        <time>2022-12-28T14:25:26.294Z</time>
      </trkpt>
      <trkpt lat="47.8182" lon="-4.37637">
        <ele>5</ele>
        <time>2022-12-28T14:25:38.053Z</time>
      </trkpt>
      <trkpt lat="47.81782" lon="-4.37683">
        <ele>5</ele>
        <time>2022-12-28T14:25:49.820Z</time>
      </trkpt>
      <trkpt lat="47.81761" lon="-4.37639">
        <ele>5</ele>
        <time>2022-12-28T14:26:01.593Z</time>
      </trkpt>
      <trkpt lat="47.81752" lon="-4.37622">
        <ele>5</ele>
        <time>2022-12-28T14:26:13.368Z</time>
      </trkpt>
      <trkpt lat="47.81733" lon="-4.37583">
        <ele>5</ele>
        <time>2022-12-28T14:26:25.148Z</time>
      </trkpt>
      <trkpt lat="47.81727" lon="-4.37576">
        <ele>4</ele>
        <time>2022-12-28T14:26:36.929Z</time>
      </trkpt>
      <trkpt lat="47.81673" lon="-4.37506">
        <ele>4</ele>
        <time>2022-12-28T14:26:48.722Z</time>
      </trkpt>
      <trkpt lat="47.81668" lon="-4.37498">
        <ele>4</ele>
        <time>2022-12-28T14:27:00.516Z</time>
      </trkpt>
      <trkpt lat="47.81628" lon="-4.37447">
        <ele>4</ele>
        <time>2022-12-28T14:27:12.319Z</time>
      </trkpt>
      <trkpt lat="47.81628" lon="-4.37447">
        <ele>4</ele>
        <time>2022-12-28T14:27:24.122Z</time>
      </trkpt>
      <trkpt lat="47.81612" lon="-4.37426">
        <ele>3</ele>
        <time>2022-12-28T14:27:35.928Z</time>
      </trkpt>
      <trkpt lat="47.8161" lon="-4.37424">
        <ele>3</ele>
        <time>2022-12-28T14:27:47.734Z</time>
      </trkpt>
      <trkpt lat="47.81604" lon="-4.37415">
        <ele>3</ele>
        <time>2022-12-28T14:27:59.542Z</time>
      </trkpt>
      <trkpt lat="47.81583" lon="-4.3738">
        <ele>3</ele>
        <time>2022-12-28T14:28:11.355Z</time>
      </trkpt>
      <trkpt lat="47.81559" lon="-4.37355">
        <ele>3</ele>
        <time>2022-12-28T14:28:23.172Z</time>
      </trkpt>
      <trkpt lat="47.81559" lon="-4.37355">
        <ele>3</ele>
        <time>2022-12-28T14:28:34.989Z</time>
      </trkpt>
      <trkpt lat="47.81537" lon="-4.37331">
        <ele>3</ele>
        <time>2022-12-28T14:28:46.811Z</time>
      </trkpt>
      <trkpt lat="47.81503" lon="-4.37302">
        <ele>2</ele>
        <time>2022-12-28T14:28:58.639Z</time>
      </trkpt>
      <trkpt lat="47.8149" lon="-4.37293">
        <ele>2</ele>
        <time>2022-12-28T14:29:10.469Z</time>
      </trkpt>
      <trkpt lat="47.81462" lon="-4.37285">
        <ele>2</ele>
        <time>2022-12-28T14:29:22.304Z</time>
      </trkpt>
      <trkpt lat="47.81429" lon="-4.37148">
        <ele>2</ele>
        <time>2022-12-28T14:29:34.155Z</time>
      </trkpt>
      <trkpt lat="47.81406" lon="-4.37119">
        <ele>2</ele>
        <time>2022-12-28T14:29:46.011Z</time>
      </trkpt>
      <trkpt lat="47.81371" lon="-4.37078">
        <ele>2</ele>
        <time>2022-12-28T14:29:57.874Z</time>
      </trkpt>
      <trkpt lat="47.81365" lon="-4.3707">
        <ele>2</ele>
        <time>2022-12-28T14:30:09.738Z</time>
      </trkpt>
      <trkpt lat="47.81244" lon="-4.36924">
        <ele>2</ele>
        <time>2022-12-28T14:30:21.627Z</time>
      </trkpt>
      <trkpt lat="47.81244" lon="-4.36924">
        <ele>1</ele>
        <time>2022-12-28T14:30:33.516Z</time>
      </trkpt>
      <trkpt lat="47.81163" lon="-4.36828">
        <ele>1</ele>
        <time>2022-12-28T14:30:45.421Z</time>
      </trkpt>
      <trkpt lat="47.81137" lon="-4.36797">
        <ele>1</ele>
        <time>2022-12-28T14:30:57.332Z</time>
      </trkpt>
      <trkpt lat="47.81136" lon="-4.36796">
        <ele>1</ele>
        <time>2022-12-28T14:31:09.243Z</time>
      </trkpt>
      <trkpt lat="47.80903" lon="-4.36517">
        <ele>1</ele>
        <time>2022-12-28T14:31:21.202Z</time>
      </trkpt>
      <trkpt lat="47.80892" lon="-4.36504">
        <ele>1</ele>
        <time>2022-12-28T14:31:33.163Z</time>
      </trkpt>
      <trkpt lat="47.80885" lon="-4.36496">
        <ele>1</ele>
        <time>2022-12-28T14:31:45.126Z</time>
      </trkpt>
      <trkpt lat="47.80861" lon="-4.36466">
        <ele>1</ele>
        <time>2022-12-28T14:31:57.094Z</time>
      </trkpt>
      <trkpt lat="47.80861" lon="-4.36466">
        <ele>1</ele>
        <time>2022-12-28T14:32:09.062Z</time>
      </trkpt>
      <trkpt lat="47.80834" lon="-4.36434">
        <ele>2</ele>
        <time>2022-12-28T14:32:21.035Z</time>
      </trkpt>
      <trkpt lat="47.80834" lon="-4.36434">
        <ele>2</ele>
        <time>2022-12-28T14:32:33.008Z</time>
      </trkpt>
      <trkpt lat="47.80759" lon="-4.36344">
        <ele>2</ele>
        <time>2022-12-28T14:32:44.997Z</time>
      </trkpt>
      <trkpt lat="47.80675" lon="-4.36246">
        <ele>2</ele>
        <time>2022-12-28T14:32:57.003Z</time>
      </trkpt>
      <trkpt lat="47.80617" lon="-4.36173">
        <ele>2</ele>
        <time>2022-12-28T14:33:09.021Z</time>
      </trkpt>
      <trkpt lat="47.80609" lon="-4.36164">
        <ele>2</ele>
        <time>2022-12-28T14:33:21.040Z</time>
      </trkpt>
      <trkpt lat="47.80573" lon="-4.36123">
        <ele>2</ele>
        <time>2022-12-28T14:33:33.067Z</time>
      </trkpt>
      <trkpt lat="47.80573" lon="-4.36123">
        <ele>2</ele>
        <time>2022-12-28T14:33:45.094Z</time>
      </trkpt>
      <trkpt lat="47.80571" lon="-4.36121">
        <ele>2</ele>
        <time>2022-12-28T14:33:57.121Z</time>
      </trkpt>
      <trkpt lat="47.80429" lon="-4.35949">
        <ele>2</ele>
        <time>2022-12-28T14:34:09.177Z</time>
      </trkpt>
      <trkpt lat="47.80425" lon="-4.35944">
        <ele>2</ele>
        <time>2022-12-28T14:34:21.234Z</time>
      </trkpt>
      <trkpt lat="47.80418" lon="-4.35936">
        <ele>2</ele>
        <time>2022-12-28T14:34:33.293Z</time>
      </trkpt>
      <trkpt lat="47.8041" lon="-4.35927">
        <ele>2</ele>
        <time>2022-12-28T14:34:45.353Z</time>
      </trkpt>
      <trkpt lat="47.80391" lon="-4.35903">
        <ele>3</ele>
        <time>2022-12-28T14:34:57.417Z</time>
      </trkpt>
      <trkpt lat="47.80385" lon="-4.35896">
        <ele>3</ele>
        <time>2022-12-28T14:35:09.483Z</time>
      </trkpt>
      <trkpt lat="47.80384" lon="-4.35895">
        <ele>3</ele>
        <time>2022-12-28T14:35:21.549Z</time>
      </trkpt>
      <trkpt lat="47.80381" lon="-4.35891">
        <ele>3</ele>
        <time>2022-12-28T14:35:33.615Z</time>
      </trkpt>
      <trkpt lat="47.80369" lon="-4.35872">
        <ele>3</ele>
        <time>2022-12-28T14:35:45.684Z</time>
      </trkpt>
      <trkpt lat="47.80358" lon="-4.35846">
        <ele>3</ele>
        <time>2022-12-28T14:35:57.756Z</time>
      </trkpt>
      <trkpt lat="47.80345" lon="-4.35803">
        <ele>3</ele>
        <time>2022-12-28T14:36:09.834Z</time>
      </trkpt>
      <trkpt lat="47.80342" lon="-4.35769">
        <ele>3</ele>
        <time>2022-12-28T14:36:21.915Z</time>
      </trkpt>
      <trkpt lat="47.80339" lon="-4.35729">
        <ele>3</ele>
        <time>2022-12-28T14:36:34.001Z</time>
      </trkpt>
      <trkpt lat="47.80342" lon="-4.35696">
        <ele>3</ele>
        <time>2022-12-28T14:36:46.090Z</time>
      </trkpt>
      <trkpt lat="47.80348" lon="-4.35674">
        <ele>3</ele>
        <time>2022-12-28T14:36:58.182Z</time>
      </trkpt>
      <trkpt lat="47.80357" lon="-4.35649">
        <ele>4</ele>
        <time>2022-12-28T14:37:10.277Z</time>
      </trkpt>
      <trkpt lat="47.80366" lon="-4.35622">
        <ele>4</ele>
        <time>2022-12-28T14:37:22.375Z</time>
      </trkpt>
      <trkpt lat="47.80381" lon="-4.35584">
        <ele>4</ele>
        <time>2022-12-28T14:37:34.478Z</time>
      </trkpt>
      <trkpt lat="47.80408" lon="-4.35518">
        <ele>4</ele>
        <time>2022-12-28T14:37:46.589Z</time>
      </trkpt>
      <trkpt lat="47.80429" lon="-4.35462">
        <ele>4</ele>
        <time>2022-12-28T14:37:58.707Z</time>
      </trkpt>
      <trkpt lat="47.80433" lon="-4.35451">
        <ele>4</ele>
        <time>2022-12-28T14:38:10.826Z</time>
      </trkpt>
      <trkpt lat="47.80466" lon="-4.35365">
        <ele>4</ele>
        <time>2022-12-28T14:38:22.956Z</time>
      </trkpt>
      <trkpt lat="47.80489" lon="-4.35303">
        <ele>4</ele>
        <time>2022-12-28T14:38:35.094Z</time>
      </trkpt>
      <trkpt lat="47.80541" lon="-4.35164">
        <ele>4</ele>
        <time>2022-12-28T14:38:47.249Z</time>
      </trkpt>
      <trkpt lat="47.80546" lon="-4.35153">
        <ele>4</ele>
        <time>2022-12-28T14:38:59.405Z</time>
      </trkpt>
      <trkpt lat="47.80546" lon="-4.35151">
        <ele>4</ele>
        <time>2022-12-28T14:39:11.561Z</time>
      </trkpt>
      <trkpt lat="47.80562" lon="-4.35107">
        <ele>4</ele>
        <time>2022-12-28T14:39:23.723Z</time>
      </trkpt>
      <trkpt lat="47.80563" lon="-4.35107">
        <ele>4</ele>
        <time>2022-12-28T14:39:35.885Z</time>
      </trkpt>
      <trkpt lat="47.80617" lon="-4.34962">
        <ele>4</ele>
        <time>2022-12-28T14:39:48.065Z</time>
      </trkpt>
      <trkpt lat="47.80621" lon="-4.3495">
        <ele>4</ele>
        <time>2022-12-28T14:40:00.246Z</time>
      </trkpt>
      <trkpt lat="47.80631" lon="-4.34925">
        <ele>4</ele>
        <time>2022-12-28T14:40:12.430Z</time>
      </trkpt>
      <trkpt lat="47.80658" lon="-4.34852">
        <ele>4</ele>
        <time>2022-12-28T14:40:24.623Z</time>
      </trkpt>
      <trkpt lat="47.80662" lon="-4.34842">
        <ele>5</ele>
        <time>2022-12-28T14:40:36.818Z</time>
      </trkpt>
      <trkpt lat="47.80662" lon="-4.34841">
        <ele>5</ele>
        <time>2022-12-28T14:40:49.013Z</time>
      </trkpt>
      <trkpt lat="47.80691" lon="-4.34763">
        <ele>5</ele>
        <time>2022-12-28T14:41:01.217Z</time>
      </trkpt>
      <trkpt lat="47.8073" lon="-4.34658">
        <ele>5</ele>
        <time>2022-12-28T14:41:13.434Z</time>
      </trkpt>
      <trkpt lat="47.80746" lon="-4.34615">
        <ele>5</ele>
        <time>2022-12-28T14:41:25.657Z</time>
      </trkpt>
      <trkpt lat="47.80746" lon="-4.34614">
        <ele>5</ele>
        <time>2022-12-28T14:41:37.880Z</time>
      </trkpt>
      <trkpt lat="47.80842" lon="-4.3436">
        <ele>5</ele>
        <time>2022-12-28T14:41:50.134Z</time>
      </trkpt>
      <trkpt lat="47.80858" lon="-4.34317">
        <ele>5</ele>
        <time>2022-12-28T14:42:02.393Z</time>
      </trkpt>
      <trkpt lat="47.80859" lon="-4.34316">
        <ele>5</ele>
        <time>2022-12-28T14:42:14.652Z</time>
      </trkpt>
      <trkpt lat="47.80916" lon="-4.34157">
        <ele>5</ele>
        <time>2022-12-28T14:42:26.931Z</time>
      </trkpt>
      <trkpt lat="47.80927" lon="-4.34125">
        <ele>5</ele>
        <time>2022-12-28T14:42:39.214Z</time>
      </trkpt>
      <trkpt lat="47.80943" lon="-4.34033">
        <ele>5</ele>
        <time>2022-12-28T14:42:51.507Z</time>
      </trkpt>
      <trkpt lat="47.80933" lon="-4.33945">
        <ele>5</ele>
        <time>2022-12-28T14:43:03.810Z</time>
      </trkpt>
      <trkpt lat="47.80617" lon="-4.31984">
        <ele>5</ele>
        <time>2022-12-28T14:43:16.330Z</time>
      </trkpt>
      <trkpt lat="47.80551" lon="-4.31573">
        <ele>5</ele>
        <time>2022-12-28T14:43:28.896Z</time>
      </trkpt>
      <trkpt lat="47.80475" lon="-4.31101">
        <ele>5</ele>
        <time>2022-12-28T14:43:41.514Z</time>
      </trkpt>
      <trkpt lat="47.80473" lon="-4.31086">
        <ele>5</ele>
        <time>2022-12-28T14:43:54.134Z</time>
      </trkpt>
      <trkpt lat="47.80463" lon="-4.3102">
        <ele>5</ele>
        <time>2022-12-28T14:44:06.761Z</time>
      </trkpt>
      <trkpt lat="47.80443" lon="-4.31009">
        <ele>5</ele>
        <time>2022-12-28T14:44:19.391Z</time>
      </trkpt>
      <trkpt lat="47.80435" lon="-4.31004">
        <ele>5</ele>
        <time>2022-12-28T14:44:32.023Z</time>
      </trkpt>
      <trkpt lat="47.80419" lon="-4.30996">
        <ele>5</ele>
        <time>2022-12-28T14:44:44.658Z</time>
      </trkpt>
      <trkpt lat="47.80395" lon="-4.30989">
        <ele>5</ele>
        <time>2022-12-28T14:44:57.296Z</time>
      </trkpt>
      <trkpt lat="47.80388" lon="-4.30987">
        <ele>5</ele>
        <time>2022-12-28T14:45:09.936Z</time>
      </trkpt>
      <trkpt lat="47.80363" lon="-4.30977">
        <ele>5</ele>
        <time>2022-12-28T14:45:22.580Z</time>
      </trkpt>
      <trkpt lat="47.80388" lon="-4.30987">
        <ele>5</ele>
        <time>2022-12-28T14:45:35.228Z</time>
      </trkpt>
      <trkpt lat="47.80363" lon="-4.30977">
        <ele>5</ele>
        <time>2022-12-28T14:45:47.880Z</time>
      </trkpt>
      <trkpt lat="47.80339" lon="-4.30982">
        <ele>5</ele>
        <time>2022-12-28T14:46:00.536Z</time>
      </trkpt>
      <trkpt lat="47.80326" lon="-4.30989">
        <ele>5</ele>
        <time>2022-12-28T14:46:13.194Z</time>
      </trkpt>
      <trkpt lat="47.80305" lon="-4.30983">
        <ele>5</ele>
        <time>2022-12-28T14:46:25.855Z</time>
      </trkpt>
      <trkpt lat="47.80294" lon="-4.30973">
        <ele>5</ele>
        <time>2022-12-28T14:46:38.518Z</time>
      </trkpt>
      <trkpt lat="47.80272" lon="-4.30954">
        <ele>5</ele>
        <time>2022-12-28T14:46:51.186Z</time>
      </trkpt>
      <trkpt lat="47.80262" lon="-4.30946">
        <ele>5</ele>
        <time>2022-12-28T14:47:03.855Z</time>
      </trkpt>
      <trkpt lat="47.80262" lon="-4.30945">
        <ele>5</ele>
        <time>2022-12-28T14:47:16.524Z</time>
      </trkpt>
      <trkpt lat="47.8021" lon="-4.30945">
        <ele>5</ele>
        <time>2022-12-28T14:47:29.202Z</time>
      </trkpt>
      <trkpt lat="47.802" lon="-4.30945">
        <ele>5</ele>
        <time>2022-12-28T14:47:41.881Z</time>
      </trkpt>
      <trkpt lat="47.80176" lon="-4.30951">
        <ele>5</ele>
        <time>2022-12-28T14:47:54.564Z</time>
      </trkpt>
      <trkpt lat="47.80163" lon="-4.30956">
        <ele>5</ele>
        <time>2022-12-28T14:48:07.249Z</time>
      </trkpt>
      <trkpt lat="47.80166" lon="-4.30936">
        <ele>5</ele>
        <time>2022-12-28T14:48:19.937Z</time>
      </trkpt>
      <trkpt lat="47.80166" lon="-4.30919">
        <ele>5</ele>
        <time>2022-12-28T14:48:32.626Z</time>
      </trkpt>
      <trkpt lat="47.80164" lon="-4.30899">
        <ele>5</ele>
        <time>2022-12-28T14:48:45.318Z</time>
      </trkpt>
      <trkpt lat="47.80163" lon="-4.30892">
        <ele>5</ele>
        <time>2022-12-28T14:48:58.010Z</time>
      </trkpt>
      <trkpt lat="47.80156" lon="-4.3086">
        <ele>5</ele>
        <time>2022-12-28T14:49:10.706Z</time>
      </trkpt>
      <trkpt lat="47.8014" lon="-4.30814">
        <ele>5</ele>
        <time>2022-12-28T14:49:23.408Z</time>
      </trkpt>
      <trkpt lat="47.80139" lon="-4.30794">
        <ele>5</ele>
        <time>2022-12-28T14:49:36.112Z</time>
      </trkpt>
      <trkpt lat="47.8013" lon="-4.30762">
        <ele>4</ele>
        <time>2022-12-28T14:49:48.820Z</time>
      </trkpt>
      <trkpt lat="47.80129" lon="-4.30749">
        <ele>4</ele>
        <time>2022-12-28T14:50:01.529Z</time>
      </trkpt>
      <trkpt lat="47.80129" lon="-4.30734">
        <ele>4</ele>
        <time>2022-12-28T14:50:14.240Z</time>
      </trkpt>
      <trkpt lat="47.80135" lon="-4.30656">
        <ele>4</ele>
        <time>2022-12-28T14:50:26.959Z</time>
      </trkpt>
      <trkpt lat="47.80136" lon="-4.30584">
        <ele>4</ele>
        <time>2022-12-28T14:50:39.686Z</time>
      </trkpt>
      <trkpt lat="47.80141" lon="-4.3054">
        <ele>4</ele>
        <time>2022-12-28T14:50:52.418Z</time>
      </trkpt>
      <trkpt lat="47.80139" lon="-4.30514">
        <ele>4</ele>
        <time>2022-12-28T14:51:05.152Z</time>
      </trkpt>
      <trkpt lat="47.80139" lon="-4.30511">
        <ele>4</ele>
        <time>2022-12-28T14:51:17.887Z</time>
      </trkpt>
      <trkpt lat="47.80138" lon="-4.30499">
        <ele>4</ele>
        <time>2022-12-28T14:51:30.623Z</time>
      </trkpt>
      <trkpt lat="47.80138" lon="-4.30499">
        <ele>4</ele>
        <time>2022-12-28T14:51:43.359Z</time>
      </trkpt>
      <trkpt lat="47.80114" lon="-4.30222">
        <ele>4</ele>
        <time>2022-12-28T14:51:56.125Z</time>
      </trkpt>
      <trkpt lat="47.80112" lon="-4.30207">
        <ele>4</ele>
        <time>2022-12-28T14:52:08.893Z</time>
      </trkpt>
      <trkpt lat="47.80096" lon="-4.30093">
        <ele>4</ele>
        <time>2022-12-28T14:52:21.673Z</time>
      </trkpt>
      <trkpt lat="47.80093" lon="-4.30078">
        <ele>3</ele>
        <time>2022-12-28T14:52:34.455Z</time>
      </trkpt>
      <trkpt lat="47.80063" lon="-4.29966">
        <ele>4</ele>
        <time>2022-12-28T14:52:47.250Z</time>
      </trkpt>
      <trkpt lat="47.80059" lon="-4.29952">
        <ele>3</ele>
        <time>2022-12-28T14:53:00.047Z</time>
      </trkpt>
      <trkpt lat="47.8006" lon="-4.29951">
        <ele>3</ele>
        <time>2022-12-28T14:53:12.844Z</time>
      </trkpt>
      <trkpt lat="47.80058" lon="-4.29945">
        <ele>3</ele>
        <time>2022-12-28T14:53:25.642Z</time>
      </trkpt>
      <trkpt lat="47.80061" lon="-4.29942">
        <ele>3</ele>
        <time>2022-12-28T14:53:38.440Z</time>
      </trkpt>
      <trkpt lat="47.80078" lon="-4.29929">
        <ele>3</ele>
        <time>2022-12-28T14:53:51.241Z</time>
      </trkpt>
      <trkpt lat="47.80078" lon="-4.29929">
        <ele>3</ele>
        <time>2022-12-28T14:54:04.042Z</time>
      </trkpt>
      <trkpt lat="47.80114" lon="-4.29906">
        <ele>3</ele>
        <time>2022-12-28T14:54:16.850Z</time>
      </trkpt>
      <trkpt lat="47.8012" lon="-4.29896">
        <ele>3</ele>
        <time>2022-12-28T14:54:29.659Z</time>
      </trkpt>
      <trkpt lat="47.80132" lon="-4.29871">
        <ele>3</ele>
        <time>2022-12-28T14:54:42.471Z</time>
      </trkpt>
      <trkpt lat="47.8015" lon="-4.2982">
        <ele>3</ele>
        <time>2022-12-28T14:54:55.290Z</time>
      </trkpt>
      <trkpt lat="47.80149" lon="-4.29817">
        <ele>3</ele>
        <time>2022-12-28T14:55:08.109Z</time>
      </trkpt>
      <trkpt lat="47.80159" lon="-4.29771">
        <ele>3</ele>
        <time>2022-12-28T14:55:20.933Z</time>
      </trkpt>
      <trkpt lat="47.80166" lon="-4.29738">
        <ele>3</ele>
        <time>2022-12-28T14:55:33.761Z</time>
      </trkpt>
      <trkpt lat="47.80168" lon="-4.2973">
        <ele>3</ele>
        <time>2022-12-28T14:55:46.590Z</time>
      </trkpt>
      <trkpt lat="47.80162" lon="-4.29719">
        <ele>3</ele>
        <time>2022-12-28T14:55:59.420Z</time>
      </trkpt>
      <trkpt lat="47.80163" lon="-4.29705">
        <ele>3</ele>
        <time>2022-12-28T14:56:12.252Z</time>
      </trkpt>
      <trkpt lat="47.80166" lon="-4.297">
        <ele>3</ele>
        <time>2022-12-28T14:56:25.084Z</time>
      </trkpt>
      <trkpt lat="47.80163" lon="-4.29693">
        <ele>4</ele>
        <time>2022-12-28T14:56:37.917Z</time>
      </trkpt>
      <trkpt lat="47.80154" lon="-4.29669">
        <ele>4</ele>
        <time>2022-12-28T14:56:50.753Z</time>
      </trkpt>
      <trkpt lat="47.80151" lon="-4.29661">
        <ele>4</ele>
        <time>2022-12-28T14:57:03.590Z</time>
      </trkpt>
      <trkpt lat="47.80145" lon="-4.29646">
        <ele>4</ele>
        <time>2022-12-28T14:57:16.429Z</time>
      </trkpt>
      <trkpt lat="47.80145" lon="-4.29646">
        <ele>4</ele>
        <time>2022-12-28T14:57:29.268Z</time>
      </trkpt>
      <trkpt lat="47.80096" lon="-4.29514">
        <ele>4</ele>
        <time>2022-12-28T14:57:42.123Z</time>
      </trkpt>
      <trkpt lat="47.80096" lon="-4.29514">
        <ele>4</ele>
        <time>2022-12-28T14:57:54.978Z</time>
      </trkpt>
      <trkpt lat="47.80065" lon="-4.2943">
        <ele>4</ele>
        <time>2022-12-28T14:58:07.844Z</time>
      </trkpt>
      <trkpt lat="47.80055" lon="-4.29402">
        <ele>4</ele>
        <time>2022-12-28T14:58:20.713Z</time>
      </trkpt>
      <trkpt lat="47.80054" lon="-4.294">
        <ele>4</ele>
        <time>2022-12-28T14:58:33.582Z</time>
      </trkpt>
      <trkpt lat="47.80057" lon="-4.29397">
        <ele>4</ele>
        <time>2022-12-28T14:58:46.452Z</time>
      </trkpt>
      <trkpt lat="47.80057" lon="-4.29392">
        <ele>4</ele>
        <time>2022-12-28T14:58:59.323Z</time>
      </trkpt>
      <trkpt lat="47.8006" lon="-4.29388">
        <ele>4</ele>
        <time>2022-12-28T14:59:12.194Z</time>
      </trkpt>
      <trkpt lat="47.80056" lon="-4.29383">
        <ele>4</ele>
        <time>2022-12-28T14:59:25.066Z</time>
      </trkpt>
      <trkpt lat="47.80041" lon="-4.29337">
        <ele>4</ele>
        <time>2022-12-28T14:59:37.944Z</time>
      </trkpt>
      <trkpt lat="47.80022" lon="-4.29279">
        <ele>5</ele>
        <time>2022-12-28T14:59:50.829Z</time>
      </trkpt>
      <trkpt lat="47.80022" lon="-4.29279">
        <ele>5</ele>
        <time>2022-12-28T15:00:03.714Z</time>
      </trkpt>
      <trkpt lat="47.80008" lon="-4.2924">
        <ele>5</ele>
        <time>2022-12-28T15:00:16.603Z</time>
      </trkpt>
      <trkpt lat="47.80008" lon="-4.2924">
        <ele>5</ele>
        <time>2022-12-28T15:00:29.492Z</time>
      </trkpt>
      <trkpt lat="47.79987" lon="-4.29185">
        <ele>5</ele>
        <time>2022-12-28T15:00:42.388Z</time>
      </trkpt>
      <trkpt lat="47.79966" lon="-4.2913">
        <ele>5</ele>
        <time>2022-12-28T15:00:55.291Z</time>
      </trkpt>
      <trkpt lat="47.79941" lon="-4.29055">
        <ele>5</ele>
        <time>2022-12-28T15:01:08.203Z</time>
      </trkpt>
      <trkpt lat="47.79938" lon="-4.29057">
        <ele>5</ele>
        <time>2022-12-28T15:01:21.116Z</time>
      </trkpt>
      <trkpt lat="47.79934" lon="-4.29056">
        <ele>5</ele>
        <time>2022-12-28T15:01:34.029Z</time>
      </trkpt>
      <trkpt lat="47.7993" lon="-4.29054">
        <ele>5</ele>
        <time>2022-12-28T15:01:46.943Z</time>
      </trkpt>
      <trkpt lat="47.79929" lon="-4.29048">
        <ele>6</ele>
        <time>2022-12-28T15:01:59.858Z</time>
      </trkpt>
      <trkpt lat="47.79929" lon="-4.29041">
        <ele>6</ele>
        <time>2022-12-28T15:02:12.773Z</time>
      </trkpt>
      <trkpt lat="47.79933" lon="-4.29034">
        <ele>6</ele>
        <time>2022-12-28T15:02:25.689Z</time>
      </trkpt>
      <trkpt lat="47.7993" lon="-4.29025">
        <ele>6</ele>
        <time>2022-12-28T15:02:38.606Z</time>
      </trkpt>
      <trkpt lat="47.79921" lon="-4.28989">
        <ele>6</ele>
        <time>2022-12-28T15:02:51.527Z</time>
      </trkpt>
      <trkpt lat="47.79903" lon="-4.28917">
        <ele>6</ele>
        <time>2022-12-28T15:03:04.457Z</time>
      </trkpt>
      <trkpt lat="47.79881" lon="-4.28838">
        <ele>6</ele>
        <time>2022-12-28T15:03:17.396Z</time>
      </trkpt>
      <trkpt lat="47.7988" lon="-4.28833">
        <ele>6</ele>
        <time>2022-12-28T15:03:30.336Z</time>
      </trkpt>
      <trkpt lat="47.79876" lon="-4.28823">
        <ele>6</ele>
        <time>2022-12-28T15:03:43.277Z</time>
      </trkpt>
      <trkpt lat="47.79849" lon="-4.2876">
        <ele>7</ele>
        <time>2022-12-28T15:03:56.226Z</time>
      </trkpt>
      <trkpt lat="47.79846" lon="-4.28744">
        <ele>7</ele>
        <time>2022-12-28T15:04:09.177Z</time>
      </trkpt>
      <trkpt lat="47.79846" lon="-4.28734">
        <ele>7</ele>
        <time>2022-12-28T15:04:22.129Z</time>
      </trkpt>
      <trkpt lat="47.79839" lon="-4.28731">
        <ele>7</ele>
        <time>2022-12-28T15:04:35.082Z</time>
      </trkpt>
      <trkpt lat="47.79836" lon="-4.28724">
        <ele>7</ele>
        <time>2022-12-28T15:04:48.036Z</time>
      </trkpt>
      <trkpt lat="47.79817" lon="-4.28672">
        <ele>7</ele>
        <time>2022-12-28T15:05:00.996Z</time>
      </trkpt>
      <trkpt lat="47.79801" lon="-4.28625">
        <ele>7</ele>
        <time>2022-12-28T15:05:13.962Z</time>
      </trkpt>
      <trkpt lat="47.79801" lon="-4.28625">
        <ele>7</ele>
        <time>2022-12-28T15:05:26.928Z</time>
      </trkpt>
      <trkpt lat="47.79768" lon="-4.28512">
        <ele>7</ele>
        <time>2022-12-28T15:05:39.907Z</time>
      </trkpt>
      <trkpt lat="47.79768" lon="-4.28512">
        <ele>7</ele>
        <time>2022-12-28T15:05:52.886Z</time>
      </trkpt>
      <trkpt lat="47.79764" lon="-4.28497">
        <ele>7</ele>
        <time>2022-12-28T15:06:05.867Z</time>
      </trkpt>
      <trkpt lat="47.79759" lon="-4.28479">
        <ele>7</ele>
        <time>2022-12-28T15:06:18.850Z</time>
      </trkpt>
      <trkpt lat="47.79749" lon="-4.28472">
        <ele>7</ele>
        <time>2022-12-28T15:06:31.835Z</time>
      </trkpt>
      <trkpt lat="47.79749" lon="-4.28472">
        <ele>7</ele>
        <time>2022-12-28T15:06:44.820Z</time>
      </trkpt>
      <trkpt lat="47.79729" lon="-4.28461">
        <ele>7</ele>
        <time>2022-12-28T15:06:57.808Z</time>
      </trkpt>
      <trkpt lat="47.79721" lon="-4.28456">
        <ele>8</ele>
        <time>2022-12-28T15:07:10.797Z</time>
      </trkpt>
      <trkpt lat="47.79698" lon="-4.28444">
        <ele>8</ele>
        <time>2022-12-28T15:07:23.790Z</time>
      </trkpt>
      <trkpt lat="47.79698" lon="-4.28444">
        <ele>8</ele>
        <time>2022-12-28T15:07:36.783Z</time>
      </trkpt>
      <trkpt lat="47.79689" lon="-4.2844">
        <ele>8</ele>
        <time>2022-12-28T15:07:49.778Z</time>
      </trkpt>
      <trkpt lat="47.79682" lon="-4.28436">
        <ele>8</ele>
        <time>2022-12-28T15:08:02.774Z</time>
      </trkpt>
      <trkpt lat="47.79659" lon="-4.28424">
        <ele>8</ele>
        <time>2022-12-28T15:08:15.774Z</time>
      </trkpt>
      <trkpt lat="47.79647" lon="-4.28454">
        <ele>8</ele>
        <time>2022-12-28T15:08:28.778Z</time>
      </trkpt>
      <trkpt lat="47.79641" lon="-4.28466">
        <ele>8</ele>
        <time>2022-12-28T15:08:41.783Z</time>
      </trkpt>
      <trkpt lat="47.79627" lon="-4.28492">
        <ele>8</ele>
        <time>2022-12-28T15:08:54.792Z</time>
      </trkpt>
      <trkpt lat="47.7961" lon="-4.28524">
        <ele>8</ele>
        <time>2022-12-28T15:09:07.805Z</time>
      </trkpt>
      <trkpt lat="47.79571" lon="-4.28504">
        <ele>8</ele>
        <time>2022-12-28T15:09:20.825Z</time>
      </trkpt>
      <trkpt lat="47.79566" lon="-4.28501">
        <ele>8</ele>
        <time>2022-12-28T15:09:33.846Z</time>
      </trkpt>
      <trkpt lat="47.7956" lon="-4.28498">
        <ele>7</ele>
        <time>2022-12-28T15:09:46.868Z</time>
      </trkpt>
      <trkpt lat="47.79546" lon="-4.2849">
        <ele>7</ele>
        <time>2022-12-28T15:09:59.892Z</time>
      </trkpt>
      <trkpt lat="47.79539" lon="-4.28486">
        <ele>7</ele>
        <time>2022-12-28T15:10:12.917Z</time>
      </trkpt>
      <trkpt lat="47.79532" lon="-4.28483">
        <ele>7</ele>
        <time>2022-12-28T15:10:25.943Z</time>
      </trkpt>
      <trkpt lat="47.79529" lon="-4.28481">
        <ele>7</ele>
        <time>2022-12-28T15:10:38.970Z</time>
      </trkpt>
      <trkpt lat="47.79508" lon="-4.2847">
        <ele>7</ele>
        <time>2022-12-28T15:10:52.001Z</time>
      </trkpt>
      <trkpt lat="47.79477" lon="-4.28454">
        <ele>7</ele>
        <time>2022-12-28T15:11:05.037Z</time>
      </trkpt>
      <trkpt lat="47.79477" lon="-4.28454">
        <ele>7</ele>
        <time>2022-12-28T15:11:18.073Z</time>
      </trkpt>
      <trkpt lat="47.79463" lon="-4.28447">
        <ele>7</ele>
        <time>2022-12-28T15:11:31.111Z</time>
      </trkpt>
      <trkpt lat="47.79453" lon="-4.28442">
        <ele>7</ele>
        <time>2022-12-28T15:11:44.151Z</time>
      </trkpt>
      <trkpt lat="47.79405" lon="-4.28415">
        <ele>7</ele>
        <time>2022-12-28T15:11:57.199Z</time>
      </trkpt>
      <trkpt lat="47.79396" lon="-4.28416">
        <ele>7</ele>
        <time>2022-12-28T15:12:10.249Z</time>
      </trkpt>
      <trkpt lat="47.7939" lon="-4.28423">
        <ele>6</ele>
        <time>2022-12-28T15:12:23.300Z</time>
      </trkpt>
      <trkpt lat="47.79384" lon="-4.28417">
        <ele>6</ele>
        <time>2022-12-28T15:12:36.352Z</time>
      </trkpt>
      <trkpt lat="47.79379" lon="-4.28413">
        <ele>6</ele>
        <time>2022-12-28T15:12:49.405Z</time>
      </trkpt>
      <trkpt lat="47.79371" lon="-4.28405">
        <ele>6</ele>
        <time>2022-12-28T15:13:02.459Z</time>
      </trkpt>
      <trkpt lat="47.79366" lon="-4.28393">
        <ele>6</ele>
        <time>2022-12-28T15:13:15.515Z</time>
      </trkpt>
      <trkpt lat="47.79366" lon="-4.28382">
        <ele>6</ele>
        <time>2022-12-28T15:13:28.572Z</time>
      </trkpt>
      <trkpt lat="47.79374" lon="-4.28368">
        <ele>5</ele>
        <time>2022-12-28T15:13:41.631Z</time>
      </trkpt>
      <trkpt lat="47.79399" lon="-4.28311">
        <ele>5</ele>
        <time>2022-12-28T15:13:54.697Z</time>
      </trkpt>
      <trkpt lat="47.79416" lon="-4.28279">
        <ele>5</ele>
        <time>2022-12-28T15:14:07.768Z</time>
      </trkpt>
      <trkpt lat="47.79421" lon="-4.28268">
        <ele>5</ele>
        <time>2022-12-28T15:14:20.840Z</time>
      </trkpt>
      <trkpt lat="47.79426" lon="-4.28248">
        <ele>5</ele>
        <time>2022-12-28T15:14:33.914Z</time>
      </trkpt>
      <trkpt lat="47.79428" lon="-4.28244">
        <ele>5</ele>
        <time>2022-12-28T15:14:46.989Z</time>
      </trkpt>
      <trkpt lat="47.7945" lon="-4.28198">
        <ele>4</ele>
        <time>2022-12-28T15:15:00.070Z</time>
      </trkpt>
      <trkpt lat="47.79447" lon="-4.28195">
        <ele>4</ele>
        <time>2022-12-28T15:15:13.152Z</time>
      </trkpt>
      <trkpt lat="47.79442" lon="-4.282">
        <ele>4</ele>
        <time>2022-12-28T15:15:26.235Z</time>
      </trkpt>
      <trkpt lat="47.79437" lon="-4.28199">
        <ele>4</ele>
        <time>2022-12-28T15:15:39.318Z</time>
      </trkpt>
      <trkpt lat="47.79436" lon="-4.28199">
        <ele>4</ele>
        <time>2022-12-28T15:15:52.402Z</time>
      </trkpt>
      <trkpt lat="47.79428" lon="-4.28187">
        <ele>3</ele>
        <time>2022-12-28T15:16:05.487Z</time>
      </trkpt>
      <trkpt lat="47.79408" lon="-4.28158">
        <ele>3</ele>
        <time>2022-12-28T15:16:18.577Z</time>
      </trkpt>
      <trkpt lat="47.79414" lon="-4.28148">
        <ele>3</ele>
        <time>2022-12-28T15:16:31.668Z</time>
      </trkpt>
      <trkpt lat="47.79426" lon="-4.28131">
        <ele>3</ele>
        <time>2022-12-28T15:16:44.762Z</time>
      </trkpt>
      <trkpt lat="47.79427" lon="-4.28129">
        <ele>3</ele>
        <time>2022-12-28T15:16:57.856Z</time>
      </trkpt>
      <trkpt lat="47.79427" lon="-4.28129">
        <ele>3</ele>
        <time>2022-12-28T15:17:10.950Z</time>
      </trkpt>
      <trkpt lat="47.79465" lon="-4.28073">
        <ele>2</ele>
        <time>2022-12-28T15:17:24.053Z</time>
      </trkpt>
      <trkpt lat="47.79466" lon="-4.28072">
        <ele>2</ele>
        <time>2022-12-28T15:17:37.156Z</time>
      </trkpt>
      <trkpt lat="47.79533" lon="-4.2791">
        <ele>2</ele>
        <time>2022-12-28T15:17:50.279Z</time>
      </trkpt>
      <trkpt lat="47.79537" lon="-4.279">
        <ele>2</ele>
        <time>2022-12-28T15:18:03.404Z</time>
      </trkpt>
      <trkpt lat="47.79538" lon="-4.27895">
        <ele>1</ele>
        <time>2022-12-28T15:18:16.529Z</time>
      </trkpt>
      <trkpt lat="47.79538" lon="-4.27895">
        <ele>1</ele>
        <time>2022-12-28T15:18:29.654Z</time>
      </trkpt>
      <trkpt lat="47.79559" lon="-4.27827">
        <ele>1</ele>
        <time>2022-12-28T15:18:42.787Z</time>
      </trkpt>
      <trkpt lat="47.7956" lon="-4.27826">
        <ele>1</ele>
        <time>2022-12-28T15:18:55.920Z</time>
      </trkpt>
      <trkpt lat="47.79565" lon="-4.2781">
        <ele>1</ele>
        <time>2022-12-28T15:19:09.055Z</time>
      </trkpt>
      <trkpt lat="47.79565" lon="-4.2781">
        <ele>1</ele>
        <time>2022-12-28T15:19:22.190Z</time>
      </trkpt>
      <trkpt lat="47.79565" lon="-4.27808">
        <ele>1</ele>
        <time>2022-12-28T15:19:35.326Z</time>
      </trkpt>
      <trkpt lat="47.79567" lon="-4.27804">
        <ele>1</ele>
        <time>2022-12-28T15:19:48.462Z</time>
      </trkpt>
      <trkpt lat="47.79573" lon="-4.27807">
        <ele>1</ele>
        <time>2022-12-28T15:20:01.599Z</time>
      </trkpt>
      <trkpt lat="47.79579" lon="-4.27813">
        <ele>1</ele>
        <time>2022-12-28T15:20:14.737Z</time>
      </trkpt>
      <trkpt lat="47.79583" lon="-4.27793">
        <ele>1</ele>
        <time>2022-12-28T15:20:27.878Z</time>
      </trkpt>
      <trkpt lat="47.79584" lon="-4.27791">
        <ele>1</ele>
        <time>2022-12-28T15:20:41.019Z</time>
      </trkpt>
      <trkpt lat="47.79584" lon="-4.27791">
        <ele>1</ele>
        <time>2022-12-28T15:20:54.160Z</time>
      </trkpt>
      <trkpt lat="47.79589" lon="-4.27775">
        <ele>1</ele>
        <time>2022-12-28T15:21:07.303Z</time>
      </trkpt>
      <trkpt lat="47.79594" lon="-4.2776">
        <ele>1</ele>
        <time>2022-12-28T15:21:20.448Z</time>
      </trkpt>
      <trkpt lat="47.7961" lon="-4.27721">
        <ele>1</ele>
        <time>2022-12-28T15:21:33.598Z</time>
      </trkpt>
      <trkpt lat="47.79617" lon="-4.27705">
        <ele>1</ele>
        <time>2022-12-28T15:21:46.750Z</time>
      </trkpt>
      <trkpt lat="47.79631" lon="-4.27681">
        <ele>1</ele>
        <time>2022-12-28T15:21:59.905Z</time>
      </trkpt>
      <trkpt lat="47.79631" lon="-4.27681">
        <ele>1</ele>
        <time>2022-12-28T15:22:13.060Z</time>
      </trkpt>
      <trkpt lat="47.79632" lon="-4.27679">
        <ele>1</ele>
        <time>2022-12-28T15:22:26.215Z</time>
      </trkpt>
      <trkpt lat="47.79633" lon="-4.27679">
        <ele>1</ele>
        <time>2022-12-28T15:22:39.370Z</time>
      </trkpt>
      <trkpt lat="47.79642" lon="-4.27667">
        <ele>1</ele>
        <time>2022-12-28T15:22:52.527Z</time>
      </trkpt>
      <trkpt lat="47.7965" lon="-4.27655">
        <ele>1</ele>
        <time>2022-12-28T15:23:05.686Z</time>
      </trkpt>
      <trkpt lat="47.79689" lon="-4.27609">
        <ele>2</ele>
        <time>2022-12-28T15:23:18.853Z</time>
      </trkpt>
      <trkpt lat="47.79692" lon="-4.27599">
        <ele>2</ele>
        <time>2022-12-28T15:23:32.021Z</time>
      </trkpt>
      <trkpt lat="47.79692" lon="-4.27599">
        <ele>2</ele>
        <time>2022-12-28T15:23:45.189Z</time>
      </trkpt>
      <trkpt lat="47.79695" lon="-4.27597">
        <ele>2</ele>
        <time>2022-12-28T15:23:58.358Z</time>
      </trkpt>
      <trkpt lat="47.79702" lon="-4.27559">
        <ele>2</ele>
        <time>2022-12-28T15:24:11.531Z</time>
      </trkpt>
      <trkpt lat="47.79702" lon="-4.2755">
        <ele>2</ele>
        <time>2022-12-28T15:24:24.705Z</time>
      </trkpt>
      <trkpt lat="47.79702" lon="-4.27548">
        <ele>2</ele>
        <time>2022-12-28T15:24:37.879Z</time>
      </trkpt>
      <trkpt lat="47.79702" lon="-4.27548">
        <ele>2</ele>
        <time>2022-12-28T15:24:51.053Z</time>
      </trkpt>
      <trkpt lat="47.79701" lon="-4.27507">
        <ele>2</ele>
        <time>2022-12-28T15:25:04.232Z</time>
      </trkpt>
      <trkpt lat="47.79696" lon="-4.27482">
        <ele>3</ele>
        <time>2022-12-28T15:25:17.413Z</time>
      </trkpt>
      <trkpt lat="47.79691" lon="-4.27456">
        <ele>3</ele>
        <time>2022-12-28T15:25:30.597Z</time>
      </trkpt>
      <trkpt lat="47.79683" lon="-4.2743">
        <ele>3</ele>
        <time>2022-12-28T15:25:43.785Z</time>
      </trkpt>
      <trkpt lat="47.79675" lon="-4.27417">
        <ele>3</ele>
        <time>2022-12-28T15:25:56.974Z</time>
      </trkpt>
      <trkpt lat="47.79671" lon="-4.27408">
        <ele>3</ele>
        <time>2022-12-28T15:26:10.165Z</time>
      </trkpt>
      <trkpt lat="47.79659" lon="-4.27385">
        <ele>3</ele>
        <time>2022-12-28T15:26:23.359Z</time>
      </trkpt>
      <trkpt lat="47.79653" lon="-4.27379">
        <ele>3</ele>
        <time>2022-12-28T15:26:36.554Z</time>
      </trkpt>
      <trkpt lat="47.79652" lon="-4.27378">
        <ele>4</ele>
        <time>2022-12-28T15:26:49.749Z</time>
      </trkpt>
      <trkpt lat="47.79641" lon="-4.27365">
        <ele>4</ele>
        <time>2022-12-28T15:27:02.946Z</time>
      </trkpt>
      <trkpt lat="47.79627" lon="-4.27351">
        <ele>4</ele>
        <time>2022-12-28T15:27:16.146Z</time>
      </trkpt>
      <trkpt lat="47.79605" lon="-4.27335">
        <ele>4</ele>
        <time>2022-12-28T15:27:29.350Z</time>
      </trkpt>
      <trkpt lat="47.79601" lon="-4.2733">
        <ele>4</ele>
        <time>2022-12-28T15:27:42.555Z</time>
      </trkpt>
      <trkpt lat="47.79598" lon="-4.27333">
        <ele>4</ele>
        <time>2022-12-28T15:27:55.760Z</time>
      </trkpt>
      <trkpt lat="47.79588" lon="-4.27342">
        <ele>4</ele>
        <time>2022-12-28T15:28:08.967Z</time>
      </trkpt>
      <trkpt lat="47.79583" lon="-4.27347">
        <ele>5</ele>
        <time>2022-12-28T15:28:22.175Z</time>
      </trkpt>
      <trkpt lat="47.79571" lon="-4.27362">
        <ele>5</ele>
        <time>2022-12-28T15:28:35.386Z</time>
      </trkpt>
      <trkpt lat="47.79558" lon="-4.27385">
        <ele>5</ele>
        <time>2022-12-28T15:28:48.600Z</time>
      </trkpt>
      <trkpt lat="47.79557" lon="-4.27386">
        <ele>5</ele>
        <time>2022-12-28T15:29:01.814Z</time>
      </trkpt>
      <trkpt lat="47.79557" lon="-4.27386">
        <ele>5</ele>
        <time>2022-12-28T15:29:15.028Z</time>
      </trkpt>
      <trkpt lat="47.79555" lon="-4.2739">
        <ele>5</ele>
        <time>2022-12-28T15:29:28.243Z</time>
      </trkpt>
      <trkpt lat="47.7954" lon="-4.27427">
        <ele>5</ele>
        <time>2022-12-28T15:29:41.462Z</time>
      </trkpt>
      <trkpt lat="47.7953" lon="-4.27427">
        <ele>5</ele>
        <time>2022-12-28T15:29:54.683Z</time>
      </trkpt>
      <trkpt lat="47.79528" lon="-4.27426">
        <ele>5</ele>
        <time>2022-12-28T15:30:07.904Z</time>
      </trkpt>
      <trkpt lat="47.79522" lon="-4.27423">
        <ele>5</ele>
        <time>2022-12-28T15:30:21.126Z</time>
      </trkpt>
      <trkpt lat="47.79521" lon="-4.27422">
        <ele>6</ele>
        <time>2022-12-28T15:30:34.349Z</time>
      </trkpt>
      <trkpt lat="47.79518" lon="-4.27419">
        <ele>6</ele>
        <time>2022-12-28T15:30:47.572Z</time>
      </trkpt>
      <trkpt lat="47.795" lon="-4.27399">
        <ele>6</ele>
        <time>2022-12-28T15:31:00.799Z</time>
      </trkpt>
      <trkpt lat="47.79492" lon="-4.27386">
        <ele>6</ele>
        <time>2022-12-28T15:31:14.028Z</time>
      </trkpt>
      <trkpt lat="47.79492" lon="-4.27386">
        <ele>6</ele>
        <time>2022-12-28T15:31:27.257Z</time>
      </trkpt>
      <trkpt lat="47.79484" lon="-4.27373">
        <ele>6</ele>
        <time>2022-12-28T15:31:40.488Z</time>
      </trkpt>
      <trkpt lat="47.79464" lon="-4.27359">
        <ele>6</ele>
        <time>2022-12-28T15:31:53.722Z</time>
      </trkpt>
      <trkpt lat="47.79458" lon="-4.27354">
        <ele>6</ele>
        <time>2022-12-28T15:32:06.957Z</time>
      </trkpt>
      <trkpt lat="47.79442" lon="-4.27339">
        <ele>6</ele>
        <time>2022-12-28T15:32:20.195Z</time>
      </trkpt>
      <trkpt lat="47.79434" lon="-4.27332">
        <ele>6</ele>
        <time>2022-12-28T15:32:33.435Z</time>
      </trkpt>
      <trkpt lat="47.79432" lon="-4.27329">
        <ele>6</ele>
        <time>2022-12-28T15:32:46.675Z</time>
      </trkpt>
      <trkpt lat="47.7943" lon="-4.27327">
        <ele>5</ele>
        <time>2022-12-28T15:32:59.916Z</time>
      </trkpt>
      <trkpt lat="47.79415" lon="-4.27308">
        <ele>5</ele>
        <time>2022-12-28T15:33:13.160Z</time>
      </trkpt>
      <trkpt lat="47.79406" lon="-4.27291">
        <ele>5</ele>
        <time>2022-12-28T15:33:26.406Z</time>
      </trkpt>
      <trkpt lat="47.79405" lon="-4.27291">
        <ele>5</ele>
        <time>2022-12-28T15:33:39.652Z</time>
      </trkpt>
      <trkpt lat="47.79399" lon="-4.2728">
        <ele>5</ele>
        <time>2022-12-28T15:33:52.900Z</time>
      </trkpt>
      <trkpt lat="47.79398" lon="-4.27279">
        <ele>5</ele>
        <time>2022-12-28T15:34:06.148Z</time>
      </trkpt>
      <trkpt lat="47.79398" lon="-4.27279">
        <ele>5</ele>
        <time>2022-12-28T15:34:19.396Z</time>
      </trkpt>
      <trkpt lat="47.79398" lon="-4.27279">
        <ele>5</ele>
        <time>2022-12-28T15:34:32.644Z</time>
      </trkpt>
      <trkpt lat="47.79388" lon="-4.2726">
        <ele>5</ele>
        <time>2022-12-28T15:34:45.894Z</time>
      </trkpt>
      <trkpt lat="47.79385" lon="-4.27256">
        <ele>5</ele>
        <time>2022-12-28T15:34:59.145Z</time>
      </trkpt>
      <trkpt lat="47.79385" lon="-4.2725">
        <ele>5</ele>
        <time>2022-12-28T15:35:12.397Z</time>
      </trkpt>
      <trkpt lat="47.79365" lon="-4.27245">
        <ele>4</ele>
        <time>2022-12-28T15:35:25.652Z</time>
      </trkpt>
      <trkpt lat="47.79364" lon="-4.27245">
        <ele>4</ele>
        <time>2022-12-28T15:35:38.907Z</time>
      </trkpt>
      <trkpt lat="47.79357" lon="-4.27244">
        <ele>4</ele>
        <time>2022-12-28T15:35:52.163Z</time>
      </trkpt>
      <trkpt lat="47.7933" lon="-4.2724">
        <ele>4</ele>
        <time>2022-12-28T15:36:05.424Z</time>
      </trkpt>
      <trkpt lat="47.79329" lon="-4.2724">
        <ele>4</ele>
        <time>2022-12-28T15:36:18.685Z</time>
      </trkpt>
      <trkpt lat="47.79326" lon="-4.27239">
        <ele>4</ele>
        <time>2022-12-28T15:36:31.946Z</time>
      </trkpt>
      <trkpt lat="47.79302" lon="-4.27235">
        <ele>4</ele>
        <time>2022-12-28T15:36:45.211Z</time>
      </trkpt>
      <trkpt lat="47.79301" lon="-4.27235">
        <ele>3</ele>
        <time>2022-12-28T15:36:58.476Z</time>
      </trkpt>
      <trkpt lat="47.79267" lon="-4.27229">
        <ele>3</ele>
        <time>2022-12-28T15:37:11.747Z</time>
      </trkpt>
      <trkpt lat="47.79266" lon="-4.27229">
        <ele>3</ele>
        <time>2022-12-28T15:37:25.018Z</time>
      </trkpt>
      <trkpt lat="47.79256" lon="-4.27227">
        <ele>3</ele>
        <time>2022-12-28T15:37:38.290Z</time>
      </trkpt>
      <trkpt lat="47.79254" lon="-4.27227">
        <ele>3</ele>
        <time>2022-12-28T15:37:51.563Z</time>
      </trkpt>
      <trkpt lat="47.79251" lon="-4.27227">
        <ele>3</ele>
        <time>2022-12-28T15:38:04.836Z</time>
      </trkpt>
      <trkpt lat="47.79242" lon="-4.27228">
        <ele>2</ele>
        <time>2022-12-28T15:38:18.111Z</time>
      </trkpt>
      <trkpt lat="47.79228" lon="-4.27208">
        <ele>2</ele>
        <time>2022-12-28T15:38:31.389Z</time>
      </trkpt>
      <trkpt lat="47.79217" lon="-4.2721">
        <ele>2</ele>
        <time>2022-12-28T15:38:44.669Z</time>
      </trkpt>
      <trkpt lat="47.79216" lon="-4.27211">
        <ele>2</ele>
        <time>2022-12-28T15:38:57.949Z</time>
      </trkpt>
      <trkpt lat="47.79215" lon="-4.2721">
        <ele>2</ele>
        <time>2022-12-28T15:39:11.229Z</time>
      </trkpt>
      <trkpt lat="47.79215" lon="-4.2721">
        <ele>2</ele>
        <time>2022-12-28T15:39:24.509Z</time>
      </trkpt>
      <trkpt lat="47.79212" lon="-4.27207">
        <ele>2</ele>
        <time>2022-12-28T15:39:37.790Z</time>
      </trkpt>
      <trkpt lat="47.79208" lon="-4.27198">
        <ele>2</ele>
        <time>2022-12-28T15:39:51.072Z</time>
      </trkpt>
      <trkpt lat="47.79208" lon="-4.27198">
        <ele>2</ele>
        <time>2022-12-28T15:40:04.354Z</time>
      </trkpt>
      <trkpt lat="47.79207" lon="-4.27197">
        <ele>2</ele>
        <time>2022-12-28T15:40:17.636Z</time>
      </trkpt>
      <trkpt lat="47.792" lon="-4.2716">
        <ele>2</ele>
        <time>2022-12-28T15:40:30.922Z</time>
      </trkpt>
      <trkpt lat="47.79197" lon="-4.27151">
        <ele>2</ele>
        <time>2022-12-28T15:40:44.209Z</time>
      </trkpt>
      <trkpt lat="47.79188" lon="-4.27118">
        <ele>2</ele>
        <time>2022-12-28T15:40:57.500Z</time>
      </trkpt>
      <trkpt lat="47.79172" lon="-4.27058">
        <ele>1</ele>
        <time>2022-12-28T15:41:10.798Z</time>
      </trkpt>
      <trkpt lat="47.79188" lon="-4.27118">
        <ele>1</ele>
        <time>2022-12-28T15:41:24.103Z</time>
      </trkpt>
      <trkpt lat="47.79172" lon="-4.27058">
        <ele>1</ele>
        <time>2022-12-28T15:41:37.415Z</time>
      </trkpt>
      <trkpt lat="47.79173" lon="-4.27043">
        <ele>1</ele>
        <time>2022-12-28T15:41:50.728Z</time>
      </trkpt>
      <trkpt lat="47.7916" lon="-4.26996">
        <ele>1</ele>
        <time>2022-12-28T15:42:04.047Z</time>
      </trkpt>
      <trkpt lat="47.79147" lon="-4.26949">
        <ele>1</ele>
        <time>2022-12-28T15:42:17.371Z</time>
      </trkpt>
      <trkpt lat="47.79147" lon="-4.26948">
        <ele>1</ele>
        <time>2022-12-28T15:42:30.695Z</time>
      </trkpt>
      <trkpt lat="47.79146" lon="-4.26947">
        <ele>1</ele>
        <time>2022-12-28T15:42:44.020Z</time>
      </trkpt>
      <trkpt lat="47.79134" lon="-4.26904">
        <ele>1</ele>
        <time>2022-12-28T15:42:57.350Z</time>
      </trkpt>
      <trkpt lat="47.79126" lon="-4.26887">
        <ele>1</ele>
        <time>2022-12-28T15:43:10.682Z</time>
      </trkpt>
      <trkpt lat="47.79121" lon="-4.26877">
        <ele>1</ele>
        <time>2022-12-28T15:43:24.015Z</time>
      </trkpt>
      <trkpt lat="47.7912" lon="-4.26872">
        <ele>1</ele>
        <time>2022-12-28T15:43:37.349Z</time>
      </trkpt>
      <trkpt lat="47.79118" lon="-4.26865">
        <ele>1</ele>
        <time>2022-12-28T15:43:50.684Z</time>
      </trkpt>
      <trkpt lat="47.79118" lon="-4.26865">
        <ele>1</ele>
        <time>2022-12-28T15:44:04.019Z</time>
      </trkpt>
      <trkpt lat="47.79113" lon="-4.26841">
        <ele>1</ele>
        <time>2022-12-28T15:44:17.356Z</time>
      </trkpt>
      <trkpt lat="47.79111" lon="-4.26817">
        <ele>1</ele>
        <time>2022-12-28T15:44:30.696Z</time>
      </trkpt>
      <trkpt lat="47.79102" lon="-4.26787">
        <ele>1</ele>
        <time>2022-12-28T15:44:44.040Z</time>
      </trkpt>
      <trkpt lat="47.79102" lon="-4.26786">
        <ele>1</ele>
        <time>2022-12-28T15:44:57.384Z</time>
      </trkpt>
      <trkpt lat="47.79102" lon="-4.26785">
        <ele>1</ele>
        <time>2022-12-28T15:45:10.728Z</time>
      </trkpt>
      <trkpt lat="47.79098" lon="-4.26768">
        <ele>1</ele>
        <time>2022-12-28T15:45:24.074Z</time>
      </trkpt>
      <trkpt lat="47.79098" lon="-4.26768">
        <ele>1</ele>
        <time>2022-12-28T15:45:37.420Z</time>
      </trkpt>
      <trkpt lat="47.79097" lon="-4.26763">
        <ele>1</ele>
        <time>2022-12-28T15:45:50.766Z</time>
      </trkpt>
      <trkpt lat="47.79094" lon="-4.26719">
        <ele>1</ele>
        <time>2022-12-28T15:46:04.117Z</time>
      </trkpt>
      <trkpt lat="47.79094" lon="-4.26716">
        <ele>1</ele>
        <time>2022-12-28T15:46:17.468Z</time>
      </trkpt>
      <trkpt lat="47.79094" lon="-4.26712">
        <ele>1</ele>
        <time>2022-12-28T15:46:30.820Z</time>
      </trkpt>
      <trkpt lat="47.79094" lon="-4.26685">
        <ele>2</ele>
        <time>2022-12-28T15:46:44.175Z</time>
      </trkpt>
      <trkpt lat="47.79094" lon="-4.26661">
        <ele>2</ele>
        <time>2022-12-28T15:46:57.532Z</time>
      </trkpt>
      <trkpt lat="47.79094" lon="-4.2666">
        <ele>2</ele>
        <time>2022-12-28T15:47:10.889Z</time>
      </trkpt>
      <trkpt lat="47.79095" lon="-4.26647">
        <ele>2</ele>
        <time>2022-12-28T15:47:24.248Z</time>
      </trkpt>
      <trkpt lat="47.791" lon="-4.26618">
        <ele>2</ele>
        <time>2022-12-28T15:47:37.610Z</time>
      </trkpt>
      <trkpt lat="47.79112" lon="-4.26564">
        <ele>2</ele>
        <time>2022-12-28T15:47:50.978Z</time>
      </trkpt>
      <trkpt lat="47.79123" lon="-4.26526">
        <ele>2</ele>
        <time>2022-12-28T15:48:04.351Z</time>
      </trkpt>
      <trkpt lat="47.79133" lon="-4.26494">
        <ele>2</ele>
        <time>2022-12-28T15:48:17.727Z</time>
      </trkpt>
      <trkpt lat="47.79133" lon="-4.26492">
        <ele>2</ele>
        <time>2022-12-28T15:48:31.104Z</time>
      </trkpt>
      <trkpt lat="47.79138" lon="-4.26476">
        <ele>2</ele>
        <time>2022-12-28T15:48:44.482Z</time>
      </trkpt>
      <trkpt lat="47.79138" lon="-4.26476">
        <ele>2</ele>
        <time>2022-12-28T15:48:57.860Z</time>
      </trkpt>
      <trkpt lat="47.7914" lon="-4.2647">
        <ele>2</ele>
        <time>2022-12-28T15:49:11.239Z</time>
      </trkpt>
      <trkpt lat="47.79142" lon="-4.26462">
        <ele>2</ele>
        <time>2022-12-28T15:49:24.619Z</time>
      </trkpt>
      <trkpt lat="47.79144" lon="-4.26454">
        <ele>2</ele>
        <time>2022-12-28T15:49:38.000Z</time>
      </trkpt>
      <trkpt lat="47.79145" lon="-4.26444">
        <ele>2</ele>
        <time>2022-12-28T15:49:51.382Z</time>
      </trkpt>
      <trkpt lat="47.79146" lon="-4.2644">
        <ele>2</ele>
        <time>2022-12-28T15:50:04.765Z</time>
      </trkpt>
      <trkpt lat="47.79146" lon="-4.2643">
        <ele>2</ele>
        <time>2022-12-28T15:50:18.149Z</time>
      </trkpt>
      <trkpt lat="47.79146" lon="-4.26429">
        <ele>3</ele>
        <time>2022-12-28T15:50:31.533Z</time>
      </trkpt>
      <trkpt lat="47.79148" lon="-4.26423">
        <ele>3</ele>
        <time>2022-12-28T15:50:44.918Z</time>
      </trkpt>
      <trkpt lat="47.79163" lon="-4.26377">
        <ele>3</ele>
        <time>2022-12-28T15:50:58.308Z</time>
      </trkpt>
      <trkpt lat="47.79163" lon="-4.26376">
        <ele>3</ele>
        <time>2022-12-28T15:51:11.698Z</time>
      </trkpt>
      <trkpt lat="47.79163" lon="-4.26375">
        <ele>3</ele>
        <time>2022-12-28T15:51:25.088Z</time>
      </trkpt>
      <trkpt lat="47.79172" lon="-4.26369">
        <ele>3</ele>
        <time>2022-12-28T15:51:38.480Z</time>
      </trkpt>
      <trkpt lat="47.79191" lon="-4.26274">
        <ele>3</ele>
        <time>2022-12-28T15:51:51.883Z</time>
      </trkpt>
      <trkpt lat="47.79191" lon="-4.26256">
        <ele>3</ele>
        <time>2022-12-28T15:52:05.288Z</time>
      </trkpt>
      <trkpt lat="47.79203" lon="-4.26218">
        <ele>3</ele>
        <time>2022-12-28T15:52:18.697Z</time>
      </trkpt>
      <trkpt lat="47.79203" lon="-4.26217">
        <ele>3</ele>
        <time>2022-12-28T15:52:32.106Z</time>
      </trkpt>
      <trkpt lat="47.79204" lon="-4.26215">
        <ele>3</ele>
        <time>2022-12-28T15:52:45.515Z</time>
      </trkpt>
      <trkpt lat="47.79207" lon="-4.26198">
        <ele>3</ele>
        <time>2022-12-28T15:52:58.926Z</time>
      </trkpt>
      <trkpt lat="47.79207" lon="-4.26198">
        <ele>3</ele>
        <time>2022-12-28T15:53:12.337Z</time>
      </trkpt>
      <trkpt lat="47.79216" lon="-4.26151">
        <ele>3</ele>
        <time>2022-12-28T15:53:25.754Z</time>
      </trkpt>
      <trkpt lat="47.79222" lon="-4.26121">
        <ele>3</ele>
        <time>2022-12-28T15:53:39.174Z</time>
      </trkpt>
      <trkpt lat="47.79227" lon="-4.26096">
        <ele>3</ele>
        <time>2022-12-28T15:53:52.597Z</time>
      </trkpt>
      <trkpt lat="47.79227" lon="-4.2607">
        <ele>3</ele>
        <time>2022-12-28T15:54:06.022Z</time>
      </trkpt>
      <trkpt lat="47.79227" lon="-4.2607">
        <ele>3</ele>
        <time>2022-12-28T15:54:19.447Z</time>
      </trkpt>
      <trkpt lat="47.79232" lon="-4.26014">
        <ele>3</ele>
        <time>2022-12-28T15:54:32.879Z</time>
      </trkpt>
      <trkpt lat="47.79234" lon="-4.25998">
        <ele>3</ele>
        <time>2022-12-28T15:54:46.312Z</time>
      </trkpt>
      <trkpt lat="47.79234" lon="-4.25992">
        <ele>3</ele>
        <time>2022-12-28T15:54:59.746Z</time>
      </trkpt>
      <trkpt lat="47.79234" lon="-4.25992">
        <ele>3</ele>
        <time>2022-12-28T15:55:13.180Z</time>
      </trkpt>
      <trkpt lat="47.79231" lon="-4.25984">
        <ele>3</ele>
        <time>2022-12-28T15:55:26.615Z</time>
      </trkpt>
      <trkpt lat="47.79231" lon="-4.25976">
        <ele>3</ele>
        <time>2022-12-28T15:55:40.051Z</time>
      </trkpt>
      <trkpt lat="47.79232" lon="-4.25965">
        <ele>3</ele>
        <time>2022-12-28T15:55:53.488Z</time>
      </trkpt>
      <trkpt lat="47.79232" lon="-4.25964">
        <ele>3</ele>
        <time>2022-12-28T15:56:06.925Z</time>
      </trkpt>
      <trkpt lat="47.79233" lon="-4.25953">
        <ele>3</ele>
        <time>2022-12-28T15:56:20.363Z</time>
      </trkpt>
      <trkpt lat="47.79235" lon="-4.25944">
        <ele>3</ele>
        <time>2022-12-28T15:56:33.802Z</time>
      </trkpt>
      <trkpt lat="47.79243" lon="-4.25931">
        <ele>3</ele>
        <time>2022-12-28T15:56:47.243Z</time>
      </trkpt>
      <trkpt lat="47.79245" lon="-4.25916">
        <ele>3</ele>
        <time>2022-12-28T15:57:00.686Z</time>
      </trkpt>
      <trkpt lat="47.79247" lon="-4.25877">
        <ele>3</ele>
        <time>2022-12-28T15:57:14.133Z</time>
      </trkpt>
      <trkpt lat="47.79249" lon="-4.25875">
        <ele>3</ele>
        <time>2022-12-28T15:57:27.581Z</time>
      </trkpt>
      <trkpt lat="47.79249" lon="-4.25875">
        <ele>3</ele>
        <time>2022-12-28T15:57:41.029Z</time>
      </trkpt>
      <trkpt lat="47.79248" lon="-4.25858">
        <ele>3</ele>
        <time>2022-12-28T15:57:54.478Z</time>
      </trkpt>
      <trkpt lat="47.79259" lon="-4.25803">
        <ele>3</ele>
        <time>2022-12-28T15:58:07.934Z</time>
      </trkpt>
      <trkpt lat="47.79259" lon="-4.25797">
        <ele>3</ele>
        <time>2022-12-28T15:58:21.390Z</time>
      </trkpt>
      <trkpt lat="47.79259" lon="-4.25795">
        <ele>3</ele>
        <time>2022-12-28T15:58:34.846Z</time>
      </trkpt>
      <trkpt lat="47.79261" lon="-4.25778">
        <ele>3</ele>
        <time>2022-12-28T15:58:48.304Z</time>
      </trkpt>
      <trkpt lat="47.79261" lon="-4.25778">
        <ele>3</ele>
        <time>2022-12-28T15:59:01.762Z</time>
      </trkpt>
      <trkpt lat="47.79265" lon="-4.25734">
        <ele>3</ele>
        <time>2022-12-28T15:59:15.225Z</time>
      </trkpt>
      <trkpt lat="47.79266" lon="-4.25729">
        <ele>3</ele>
        <time>2022-12-28T15:59:28.689Z</time>
      </trkpt>
      <trkpt lat="47.79278" lon="-4.25672">
        <ele>3</ele>
        <time>2022-12-28T15:59:42.159Z</time>
      </trkpt>
      <trkpt lat="47.79278" lon="-4.25672">
        <ele>3</ele>
        <time>2022-12-28T15:59:55.629Z</time>
      </trkpt>
      <trkpt lat="47.79279" lon="-4.2565">
        <ele>3</ele>
        <time>2022-12-28T16:00:09.101Z</time>
      </trkpt>
      <trkpt lat="47.79279" lon="-4.2562">
        <ele>3</ele>
        <time>2022-12-28T16:00:22.577Z</time>
      </trkpt>
      <trkpt lat="47.79279" lon="-4.25581">
        <ele>3</ele>
        <time>2022-12-28T16:00:36.057Z</time>
      </trkpt>
      <trkpt lat="47.79278" lon="-4.2556">
        <ele>3</ele>
        <time>2022-12-28T16:00:49.539Z</time>
      </trkpt>
      <trkpt lat="47.79278" lon="-4.25543">
        <ele>3</ele>
        <time>2022-12-28T16:01:03.023Z</time>
      </trkpt>
      <trkpt lat="47.79278" lon="-4.25542">
        <ele>3</ele>
        <time>2022-12-28T16:01:16.507Z</time>
      </trkpt>
      <trkpt lat="47.79277" lon="-4.2553">
        <ele>3</ele>
        <time>2022-12-28T16:01:29.992Z</time>
      </trkpt>
      <trkpt lat="47.79276" lon="-4.25529">
        <ele>3</ele>
        <time>2022-12-28T16:01:43.477Z</time>
      </trkpt>
      <trkpt lat="47.79271" lon="-4.2548">
        <ele>3</ele>
        <time>2022-12-28T16:01:56.968Z</time>
      </trkpt>
      <trkpt lat="47.79272" lon="-4.25466">
        <ele>3</ele>
        <time>2022-12-28T16:02:10.460Z</time>
      </trkpt>
      <trkpt lat="47.79278" lon="-4.25375">
        <ele>3</ele>
        <time>2022-12-28T16:02:23.962Z</time>
      </trkpt>
      <trkpt lat="47.79281" lon="-4.25355">
        <ele>2</ele>
        <time>2022-12-28T16:02:37.466Z</time>
      </trkpt>
      <trkpt lat="47.79281" lon="-4.25353">
        <ele>2</ele>
        <time>2022-12-28T16:02:50.971Z</time>
      </trkpt>
      <trkpt lat="47.79283" lon="-4.25336">
        <ele>2</ele>
        <time>2022-12-28T16:03:04.478Z</time>
      </trkpt>
      <trkpt lat="47.79283" lon="-4.25336">
        <ele>2</ele>
        <time>2022-12-28T16:03:17.985Z</time>
      </trkpt>
      <trkpt lat="47.79288" lon="-4.25303">
        <ele>2</ele>
        <time>2022-12-28T16:03:31.495Z</time>
      </trkpt>
      <trkpt lat="47.79289" lon="-4.25288">
        <ele>2</ele>
        <time>2022-12-28T16:03:45.007Z</time>
      </trkpt>
      <trkpt lat="47.79293" lon="-4.25237">
        <ele>2</ele>
        <time>2022-12-28T16:03:58.524Z</time>
      </trkpt>
      <trkpt lat="47.79293" lon="-4.25217">
        <ele>2</ele>
        <time>2022-12-28T16:04:12.044Z</time>
      </trkpt>
      <trkpt lat="47.7929" lon="-4.25164">
        <ele>2</ele>
        <time>2022-12-28T16:04:25.569Z</time>
      </trkpt>
      <trkpt lat="47.7929" lon="-4.25157">
        <ele>2</ele>
        <time>2022-12-28T16:04:39.095Z</time>
      </trkpt>
      <trkpt lat="47.7929" lon="-4.25137">
        <ele>2</ele>
        <time>2022-12-28T16:04:52.623Z</time>
      </trkpt>
      <trkpt lat="47.79288" lon="-4.25125">
        <ele>1</ele>
        <time>2022-12-28T16:05:06.152Z</time>
      </trkpt>
      <trkpt lat="47.79285" lon="-4.25108">
        <ele>1</ele>
        <time>2022-12-28T16:05:19.683Z</time>
      </trkpt>
      <trkpt lat="47.79281" lon="-4.25088">
        <ele>1</ele>
        <time>2022-12-28T16:05:33.217Z</time>
      </trkpt>
      <trkpt lat="47.79276" lon="-4.2506">
        <ele>1</ele>
        <time>2022-12-28T16:05:46.754Z</time>
      </trkpt>
      <trkpt lat="47.79274" lon="-4.25038">
        <ele>1</ele>
        <time>2022-12-28T16:06:00.293Z</time>
      </trkpt>
      <trkpt lat="47.79273" lon="-4.25037">
        <ele>1</ele>
        <time>2022-12-28T16:06:13.832Z</time>
      </trkpt>
      <trkpt lat="47.79268" lon="-4.24992">
        <ele>1</ele>
        <time>2022-12-28T16:06:27.376Z</time>
      </trkpt>
      <trkpt lat="47.79256" lon="-4.24936">
        <ele>1</ele>
        <time>2022-12-28T16:06:40.927Z</time>
      </trkpt>
      <trkpt lat="47.79254" lon="-4.2492">
        <ele>1</ele>
        <time>2022-12-28T16:06:54.479Z</time>
      </trkpt>
      <trkpt lat="47.79255" lon="-4.24865">
        <ele>1</ele>
        <time>2022-12-28T16:07:08.037Z</time>
      </trkpt>
      <trkpt lat="47.79255" lon="-4.24864">
        <ele>1</ele>
        <time>2022-12-28T16:07:21.595Z</time>
      </trkpt>
      <trkpt lat="47.79256" lon="-4.24846">
        <ele>1</ele>
        <time>2022-12-28T16:07:35.155Z</time>
      </trkpt>
      <trkpt lat="47.79256" lon="-4.24846">
        <ele>1</ele>
        <time>2022-12-28T16:07:48.715Z</time>
      </trkpt>
      <trkpt lat="47.79257" lon="-4.24799">
        <ele>1</ele>
        <time>2022-12-28T16:08:02.280Z</time>
      </trkpt>
      <trkpt lat="47.79257" lon="-4.24797">
        <ele>1</ele>
        <time>2022-12-28T16:08:15.846Z</time>
      </trkpt>
      <trkpt lat="47.79263" lon="-4.24745">
        <ele>1</ele>
        <time>2022-12-28T16:08:29.417Z</time>
      </trkpt>
      <trkpt lat="47.79263" lon="-4.24745">
        <ele>1</ele>
        <time>2022-12-28T16:08:42.988Z</time>
      </trkpt>
      <trkpt lat="47.79267" lon="-4.2469">
        <ele>1</ele>
        <time>2022-12-28T16:08:56.565Z</time>
      </trkpt>
      <trkpt lat="47.79267" lon="-4.24689">
        <ele>1</ele>
        <time>2022-12-28T16:09:10.142Z</time>
      </trkpt>
      <trkpt lat="47.79282" lon="-4.24654">
        <ele>1</ele>
        <time>2022-12-28T16:09:23.724Z</time>
      </trkpt>
      <trkpt lat="47.79282" lon="-4.24653">
        <ele>1</ele>
        <time>2022-12-28T16:09:37.306Z</time>
      </trkpt>
      <trkpt lat="47.79289" lon="-4.24638">
        <ele>1</ele>
        <time>2022-12-28T16:09:50.890Z</time>
      </trkpt>
      <trkpt lat="47.79289" lon="-4.24638">
        <ele>1</ele>
        <time>2022-12-28T16:10:04.474Z</time>
      </trkpt>
      <trkpt lat="47.79293" lon="-4.24607">
        <ele>1</ele>
        <time>2022-12-28T16:10:18.061Z</time>
      </trkpt>
      <trkpt lat="47.79293" lon="-4.24606">
        <ele>1</ele>
        <time>2022-12-28T16:10:31.648Z</time>
      </trkpt>
      <trkpt lat="47.79296" lon="-4.24584">
        <ele>1</ele>
        <time>2022-12-28T16:10:45.238Z</time>
      </trkpt>
      <trkpt lat="47.79304" lon="-4.24558">
        <ele>1</ele>
        <time>2022-12-28T16:10:58.831Z</time>
      </trkpt>
      <trkpt lat="47.79308" lon="-4.24537">
        <ele>1</ele>
        <time>2022-12-28T16:11:12.426Z</time>
      </trkpt>
      <trkpt lat="47.79324" lon="-4.24506">
        <ele>1</ele>
        <time>2022-12-28T16:11:26.025Z</time>
      </trkpt>
      <trkpt lat="47.79326" lon="-4.24501">
        <ele>1</ele>
        <time>2022-12-28T16:11:39.625Z</time>
      </trkpt>
      <trkpt lat="47.7935" lon="-4.24463">
        <ele>1</ele>
        <time>2022-12-28T16:11:53.231Z</time>
      </trkpt>
      <trkpt lat="47.79352" lon="-4.24458">
        <ele>1</ele>
        <time>2022-12-28T16:12:06.837Z</time>
      </trkpt>
      <trkpt lat="47.79353" lon="-4.24456">
        <ele>1</ele>
        <time>2022-12-28T16:12:20.444Z</time>
      </trkpt>
      <trkpt lat="47.7936" lon="-4.24442">
        <ele>1</ele>
        <time>2022-12-28T16:12:34.052Z</time>
      </trkpt>
      <trkpt lat="47.7936" lon="-4.24442">
        <ele>1</ele>
        <time>2022-12-28T16:12:47.660Z</time>
      </trkpt>
      <trkpt lat="47.79368" lon="-4.24425">
        <ele>1</ele>
        <time>2022-12-28T16:13:01.271Z</time>
      </trkpt>
      <trkpt lat="47.79375" lon="-4.24399">
        <ele>1</ele>
        <time>2022-12-28T16:13:14.885Z</time>
      </trkpt>
      <trkpt lat="47.79376" lon="-4.24396">
        <ele>1</ele>
        <time>2022-12-28T16:13:28.499Z</time>
      </trkpt>
      <trkpt lat="47.79382" lon="-4.24286">
        <ele>1</ele>
        <time>2022-12-28T16:13:42.125Z</time>
      </trkpt>
      <trkpt lat="47.79382" lon="-4.24286">
        <ele>1</ele>
        <time>2022-12-28T16:13:55.751Z</time>
      </trkpt>
      <trkpt lat="47.79381" lon="-4.24261">
        <ele>1</ele>
        <time>2022-12-28T16:14:09.380Z</time>
      </trkpt>
      <trkpt lat="47.79383" lon="-4.24258">
        <ele>1</ele>
        <time>2022-12-28T16:14:23.009Z</time>
      </trkpt>
      <trkpt lat="47.79384" lon="-4.24255">
        <ele>1</ele>
        <time>2022-12-28T16:14:36.639Z</time>
      </trkpt>
      <trkpt lat="47.79397" lon="-4.24248">
        <ele>1</ele>
        <time>2022-12-28T16:14:50.271Z</time>
      </trkpt>
      <trkpt lat="47.79404" lon="-4.24233">
        <ele>1</ele>
        <time>2022-12-28T16:15:03.905Z</time>
      </trkpt>
      <trkpt lat="47.79403" lon="-4.24224">
        <ele>1</ele>
        <time>2022-12-28T16:15:17.540Z</time>
      </trkpt>
      <trkpt lat="47.79403" lon="-4.24223">
        <ele>1</ele>
        <time>2022-12-28T16:15:31.175Z</time>
      </trkpt>
      <trkpt lat="47.79403" lon="-4.24222">
        <ele>1</ele>
        <time>2022-12-28T16:15:44.810Z</time>
      </trkpt>
      <trkpt lat="47.79401" lon="-4.24204">
        <ele>1</ele>
        <time>2022-12-28T16:15:58.447Z</time>
      </trkpt>
      <trkpt lat="47.79399" lon="-4.24188">
        <ele>1</ele>
        <time>2022-12-28T16:16:12.086Z</time>
      </trkpt>
      <trkpt lat="47.79401" lon="-4.24166">
        <ele>1</ele>
        <time>2022-12-28T16:16:25.727Z</time>
      </trkpt>
      <trkpt lat="47.79398" lon="-4.24152">
        <ele>1</ele>
        <time>2022-12-28T16:16:39.370Z</time>
      </trkpt>
      <trkpt lat="47.794" lon="-4.2414">
        <ele>2</ele>
        <time>2022-12-28T16:16:53.014Z</time>
      </trkpt>
      <trkpt lat="47.79402" lon="-4.2413">
        <ele>2</ele>
        <time>2022-12-28T16:17:06.659Z</time>
      </trkpt>
      <trkpt lat="47.79409" lon="-4.24095">
        <ele>2</ele>
        <time>2022-12-28T16:17:20.308Z</time>
      </trkpt>
      <trkpt lat="47.79415" lon="-4.24052">
        <ele>2</ele>
        <time>2022-12-28T16:17:33.962Z</time>
      </trkpt>
      <trkpt lat="47.79415" lon="-4.2405">
        <ele>2</ele>
        <time>2022-12-28T16:17:47.616Z</time>
      </trkpt>
      <trkpt lat="47.79416" lon="-4.24041">
        <ele>2</ele>
        <time>2022-12-28T16:18:01.271Z</time>
      </trkpt>
      <trkpt lat="47.79419" lon="-4.24033">
        <ele>2</ele>
        <time>2022-12-28T16:18:14.927Z</time>
      </trkpt>
      <trkpt lat="47.79419" lon="-4.24033">
        <ele>2</ele>
        <time>2022-12-28T16:18:28.583Z</time>
      </trkpt>
      <trkpt lat="47.79427" lon="-4.24003">
        <ele>2</ele>
        <time>2022-12-28T16:18:42.242Z</time>
      </trkpt>
      <trkpt lat="47.79426" lon="-4.23995">
        <ele>2</ele>
        <time>2022-12-28T16:18:55.902Z</time>
      </trkpt>
      <trkpt lat="47.79424" lon="-4.23988">
        <ele>2</ele>
        <time>2022-12-28T16:19:09.563Z</time>
      </trkpt>
      <trkpt lat="47.79416" lon="-4.23967">
        <ele>2</ele>
        <time>2022-12-28T16:19:23.227Z</time>
      </trkpt>
      <trkpt lat="47.79443" lon="-4.23837">
        <ele>3</ele>
        <time>2022-12-28T16:19:36.905Z</time>
      </trkpt>
      <trkpt lat="47.79447" lon="-4.23831">
        <ele>3</ele>
        <time>2022-12-28T16:19:50.584Z</time>
      </trkpt>
      <trkpt lat="47.79456" lon="-4.23823">
        <ele>3</ele>
        <time>2022-12-28T16:20:04.265Z</time>
      </trkpt>
      <trkpt lat="47.79457" lon="-4.23816">
        <ele>3</ele>
        <time>2022-12-28T16:20:17.947Z</time>
      </trkpt>
      <trkpt lat="47.79459" lon="-4.23785">
        <ele>3</ele>
        <time>2022-12-28T16:20:31.632Z</time>
      </trkpt>
      <trkpt lat="47.79456" lon="-4.23769">
        <ele>3</ele>
        <time>2022-12-28T16:20:45.319Z</time>
      </trkpt>
      <trkpt lat="47.79456" lon="-4.23768">
        <ele>3</ele>
        <time>2022-12-28T16:20:59.006Z</time>
      </trkpt>
      <trkpt lat="47.79456" lon="-4.23766">
        <ele>4</ele>
        <time>2022-12-28T16:21:12.693Z</time>
      </trkpt>
      <trkpt lat="47.79456" lon="-4.23765">
        <ele>4</ele>
        <time>2022-12-28T16:21:26.380Z</time>
      </trkpt>
      <trkpt lat="47.79455" lon="-4.23751">
        <ele>4</ele>
        <time>2022-12-28T16:21:40.069Z</time>
      </trkpt>
      <trkpt lat="47.79452" lon="-4.23719">
        <ele>4</ele>
        <time>2022-12-28T16:21:53.761Z</time>
      </trkpt>
      <trkpt lat="47.79445" lon="-4.23644">
        <ele>4</ele>
        <time>2022-12-28T16:22:07.461Z</time>
      </trkpt>
      <trkpt lat="47.7944" lon="-4.23639">
        <ele>4</ele>
        <time>2022-12-28T16:22:21.162Z</time>
      </trkpt>
      <trkpt lat="47.79438" lon="-4.23627">
        <ele>4</ele>
        <time>2022-12-28T16:22:34.865Z</time>
      </trkpt>
      <trkpt lat="47.79438" lon="-4.23623">
        <ele>4</ele>
        <time>2022-12-28T16:22:48.568Z</time>
      </trkpt>
      <trkpt lat="47.7944" lon="-4.23608">
        <ele>5</ele>
        <time>2022-12-28T16:23:02.273Z</time>
      </trkpt>
      <trkpt lat="47.7944" lon="-4.23595">
        <ele>5</ele>
        <time>2022-12-28T16:23:15.979Z</time>
      </trkpt>
      <trkpt lat="47.7944" lon="-4.23593">
        <ele>5</ele>
        <time>2022-12-28T16:23:29.685Z</time>
      </trkpt>
      <trkpt lat="47.79441" lon="-4.23576">
        <ele>5</ele>
        <time>2022-12-28T16:23:43.393Z</time>
      </trkpt>
      <trkpt lat="47.79441" lon="-4.23576">
        <ele>5</ele>
        <time>2022-12-28T16:23:57.101Z</time>
      </trkpt>
      <trkpt lat="47.79441" lon="-4.2357">
        <ele>5</ele>
        <time>2022-12-28T16:24:10.810Z</time>
      </trkpt>
      <trkpt lat="47.79441" lon="-4.23559">
        <ele>5</ele>
        <time>2022-12-28T16:24:24.520Z</time>
      </trkpt>
      <trkpt lat="47.79444" lon="-4.23553">
        <ele>5</ele>
        <time>2022-12-28T16:24:38.231Z</time>
      </trkpt>
      <trkpt lat="47.79447" lon="-4.23544">
        <ele>5</ele>
        <time>2022-12-28T16:24:51.943Z</time>
      </trkpt>
      <trkpt lat="47.79447" lon="-4.23544">
        <ele>5</ele>
        <time>2022-12-28T16:25:05.655Z</time>
      </trkpt>
      <trkpt lat="47.79448" lon="-4.23531">
        <ele>5</ele>
        <time>2022-12-28T16:25:19.368Z</time>
      </trkpt>
      <trkpt lat="47.79447" lon="-4.23529">
        <ele>5</ele>
        <time>2022-12-28T16:25:33.082Z</time>
      </trkpt>
      <trkpt lat="47.79445" lon="-4.23507">
        <ele>5</ele>
        <time>2022-12-28T16:25:46.798Z</time>
      </trkpt>
      <trkpt lat="47.79438" lon="-4.23478">
        <ele>5</ele>
        <time>2022-12-28T16:26:00.517Z</time>
      </trkpt>
      <trkpt lat="47.79437" lon="-4.23464">
        <ele>5</ele>
        <time>2022-12-28T16:26:14.238Z</time>
      </trkpt>
      <trkpt lat="47.79441" lon="-4.23402">
        <ele>5</ele>
        <time>2022-12-28T16:26:27.966Z</time>
      </trkpt>
      <trkpt lat="47.79441" lon="-4.23393">
        <ele>5</ele>
        <time>2022-12-28T16:26:41.695Z</time>
      </trkpt>
      <trkpt lat="47.7944" lon="-4.23372">
        <ele>5</ele>
        <time>2022-12-28T16:26:55.426Z</time>
      </trkpt>
      <trkpt lat="47.79443" lon="-4.23338">
        <ele>5</ele>
        <time>2022-12-28T16:27:09.161Z</time>
      </trkpt>
      <trkpt lat="47.79445" lon="-4.23308">
        <ele>5</ele>
        <time>2022-12-28T16:27:22.899Z</time>
      </trkpt>
      <trkpt lat="47.79444" lon="-4.23292">
        <ele>5</ele>
        <time>2022-12-28T16:27:36.638Z</time>
      </trkpt>
      <trkpt lat="47.79445" lon="-4.23287">
        <ele>5</ele>
        <time>2022-12-28T16:27:50.378Z</time>
      </trkpt>
      <trkpt lat="47.79445" lon="-4.23287">
        <ele>5</ele>
        <time>2022-12-28T16:28:04.118Z</time>
      </trkpt>
      <trkpt lat="47.79448" lon="-4.23237">
        <ele>5</ele>
        <time>2022-12-28T16:28:17.864Z</time>
      </trkpt>
      <trkpt lat="47.79453" lon="-4.23209">
        <ele>5</ele>
        <time>2022-12-28T16:28:31.613Z</time>
      </trkpt>
      <trkpt lat="47.79459" lon="-4.23186">
        <ele>5</ele>
        <time>2022-12-28T16:28:45.364Z</time>
      </trkpt>
      <trkpt lat="47.79459" lon="-4.23186">
        <ele>5</ele>
        <time>2022-12-28T16:28:59.115Z</time>
      </trkpt>
      <trkpt lat="47.79471" lon="-4.23166">
        <ele>5</ele>
        <time>2022-12-28T16:29:12.869Z</time>
      </trkpt>
      <trkpt lat="47.79474" lon="-4.23164">
        <ele>5</ele>
        <time>2022-12-28T16:29:26.624Z</time>
      </trkpt>
      <trkpt lat="47.79484" lon="-4.23156">
        <ele>5</ele>
        <time>2022-12-28T16:29:40.381Z</time>
      </trkpt>
      <trkpt lat="47.79488" lon="-4.23153">
        <ele>5</ele>
        <time>2022-12-28T16:29:54.138Z</time>
      </trkpt>
      <trkpt lat="47.79497" lon="-4.23142">
        <ele>5</ele>
        <time>2022-12-28T16:30:07.897Z</time>
      </trkpt>
      <trkpt lat="47.79497" lon="-4.23142">
        <ele>5</ele>
        <time>2022-12-28T16:30:21.656Z</time>
      </trkpt>
      <trkpt lat="47.795" lon="-4.23139">
        <ele>5</ele>
        <time>2022-12-28T16:30:35.416Z</time>
      </trkpt>
      <trkpt lat="47.79504" lon="-4.23091">
        <ele>5</ele>
        <time>2022-12-28T16:30:49.181Z</time>
      </trkpt>
      <trkpt lat="47.79508" lon="-4.23077">
        <ele>5</ele>
        <time>2022-12-28T16:31:02.947Z</time>
      </trkpt>
      <trkpt lat="47.79512" lon="-4.2306">
        <ele>5</ele>
        <time>2022-12-28T16:31:16.716Z</time>
      </trkpt>
      <trkpt lat="47.79536" lon="-4.22913">
        <ele>5</ele>
        <time>2022-12-28T16:31:30.501Z</time>
      </trkpt>
      <trkpt lat="47.79536" lon="-4.22898">
        <ele>5</ele>
        <time>2022-12-28T16:31:44.287Z</time>
      </trkpt>
      <trkpt lat="47.79536" lon="-4.22897">
        <ele>5</ele>
        <time>2022-12-28T16:31:58.073Z</time>
      </trkpt>
      <trkpt lat="47.7954" lon="-4.22876">
        <ele>5</ele>
        <time>2022-12-28T16:32:11.862Z</time>
      </trkpt>
      <trkpt lat="47.79539" lon="-4.22862">
        <ele>5</ele>
        <time>2022-12-28T16:32:25.652Z</time>
      </trkpt>
      <trkpt lat="47.79538" lon="-4.22848">
        <ele>5</ele>
        <time>2022-12-28T16:32:39.444Z</time>
      </trkpt>
      <trkpt lat="47.79538" lon="-4.22847">
        <ele>5</ele>
        <time>2022-12-28T16:32:53.236Z</time>
      </trkpt>
      <trkpt lat="47.79537" lon="-4.22846">
        <ele>5</ele>
        <time>2022-12-28T16:33:07.028Z</time>
      </trkpt>
      <trkpt lat="47.79537" lon="-4.22846">
        <ele>5</ele>
        <time>2022-12-28T16:33:20.820Z</time>
      </trkpt>
      <trkpt lat="47.7953" lon="-4.22812">
        <ele>5</ele>
        <time>2022-12-28T16:33:34.616Z</time>
      </trkpt>
      <trkpt lat="47.7953" lon="-4.22793">
        <ele>5</ele>
        <time>2022-12-28T16:33:48.414Z</time>
      </trkpt>
      <trkpt lat="47.79562" lon="-4.22716">
        <ele>5</ele>
        <time>2022-12-28T16:34:02.222Z</time>
      </trkpt>
      <trkpt lat="47.79566" lon="-4.2271">
        <ele>5</ele>
        <time>2022-12-28T16:34:16.031Z</time>
      </trkpt>
      <trkpt lat="47.79566" lon="-4.2271">
        <ele>5</ele>
        <time>2022-12-28T16:34:29.840Z</time>
      </trkpt>
      <trkpt lat="47.79548" lon="-4.22682">
        <ele>5</ele>
        <time>2022-12-28T16:34:43.653Z</time>
      </trkpt>
      <trkpt lat="47.79545" lon="-4.22678">
        <ele>5</ele>
        <time>2022-12-28T16:34:57.466Z</time>
      </trkpt>
      <trkpt lat="47.79543" lon="-4.22672">
        <ele>5</ele>
        <time>2022-12-28T16:35:11.280Z</time>
      </trkpt>
      <trkpt lat="47.79542" lon="-4.22671">
        <ele>5</ele>
        <time>2022-12-28T16:35:25.094Z</time>
      </trkpt>
      <trkpt lat="47.79541" lon="-4.22668">
        <ele>5</ele>
        <time>2022-12-28T16:35:38.909Z</time>
      </trkpt>
      <trkpt lat="47.79536" lon="-4.22657">
        <ele>5</ele>
        <time>2022-12-28T16:35:52.725Z</time>
      </trkpt>
      <trkpt lat="47.79529" lon="-4.22636">
        <ele>6</ele>
        <time>2022-12-28T16:36:06.544Z</time>
      </trkpt>
      <trkpt lat="47.79512" lon="-4.22562">
        <ele>6</ele>
        <time>2022-12-28T16:36:20.371Z</time>
      </trkpt>
      <trkpt lat="47.79499" lon="-4.22503">
        <ele>6</ele>
        <time>2022-12-28T16:36:34.205Z</time>
      </trkpt>
      <trkpt lat="47.79499" lon="-4.22503">
        <ele>6</ele>
        <time>2022-12-28T16:36:48.039Z</time>
      </trkpt>
      <trkpt lat="47.79491" lon="-4.22464">
        <ele>6</ele>
        <time>2022-12-28T16:37:01.877Z</time>
      </trkpt>
      <trkpt lat="47.79488" lon="-4.22454">
        <ele>6</ele>
        <time>2022-12-28T16:37:15.716Z</time>
      </trkpt>
      <trkpt lat="47.79487" lon="-4.22447">
        <ele>6</ele>
        <time>2022-12-28T16:37:29.556Z</time>
      </trkpt>
      <trkpt lat="47.7948" lon="-4.22415">
        <ele>6</ele>
        <time>2022-12-28T16:37:43.400Z</time>
      </trkpt>
      <trkpt lat="47.79479" lon="-4.22393">
        <ele>6</ele>
        <time>2022-12-28T16:37:57.246Z</time>
      </trkpt>
      <trkpt lat="47.79472" lon="-4.22396">
        <ele>6</ele>
        <time>2022-12-28T16:38:11.093Z</time>
      </trkpt>
      <trkpt lat="47.79471" lon="-4.2233">
        <ele>6</ele>
        <time>2022-12-28T16:38:24.947Z</time>
      </trkpt>
      <trkpt lat="47.79469" lon="-4.22279">
        <ele>6</ele>
        <time>2022-12-28T16:38:38.807Z</time>
      </trkpt>
      <trkpt lat="47.79469" lon="-4.22278">
        <ele>6</ele>
        <time>2022-12-28T16:38:52.667Z</time>
      </trkpt>
      <trkpt lat="47.79469" lon="-4.22266">
        <ele>6</ele>
        <time>2022-12-28T16:39:06.528Z</time>
      </trkpt>
      <trkpt lat="47.79472" lon="-4.22258">
        <ele>6</ele>
        <time>2022-12-28T16:39:20.390Z</time>
      </trkpt>
      <trkpt lat="47.79471" lon="-4.22225">
        <ele>6</ele>
        <time>2022-12-28T16:39:34.256Z</time>
      </trkpt>
      <trkpt lat="47.7947" lon="-4.22139">
        <ele>6</ele>
        <time>2022-12-28T16:39:48.131Z</time>
      </trkpt>
      <trkpt lat="47.79472" lon="-4.22103">
        <ele>6</ele>
        <time>2022-12-28T16:40:02.010Z</time>
      </trkpt>
      <trkpt lat="47.7947" lon="-4.22062">
        <ele>6</ele>
        <time>2022-12-28T16:40:15.893Z</time>
      </trkpt>
      <trkpt lat="47.79472" lon="-4.2204">
        <ele>6</ele>
        <time>2022-12-28T16:40:29.779Z</time>
      </trkpt>
      <trkpt lat="47.79478" lon="-4.22027">
        <ele>6</ele>
        <time>2022-12-28T16:40:43.666Z</time>
      </trkpt>
      <trkpt lat="47.79483" lon="-4.22011">
        <ele>6</ele>
        <time>2022-12-28T16:40:57.555Z</time>
      </trkpt>
      <trkpt lat="47.79487" lon="-4.21992">
        <ele>6</ele>
        <time>2022-12-28T16:41:11.447Z</time>
      </trkpt>
      <trkpt lat="47.7949" lon="-4.21968">
        <ele>6</ele>
        <time>2022-12-28T16:41:25.341Z</time>
      </trkpt>
      <trkpt lat="47.795" lon="-4.21889">
        <ele>5</ele>
        <time>2022-12-28T16:41:39.244Z</time>
      </trkpt>
      <trkpt lat="47.79506" lon="-4.218">
        <ele>5</ele>
        <time>2022-12-28T16:41:53.156Z</time>
      </trkpt>
      <trkpt lat="47.79507" lon="-4.21798">
        <ele>5</ele>
        <time>2022-12-28T16:42:07.069Z</time>
      </trkpt>
      <trkpt lat="47.79507" lon="-4.21798">
        <ele>5</ele>
        <time>2022-12-28T16:42:20.982Z</time>
      </trkpt>
      <trkpt lat="47.7951" lon="-4.21757">
        <ele>5</ele>
        <time>2022-12-28T16:42:34.899Z</time>
      </trkpt>
      <trkpt lat="47.7951" lon="-4.2175">
        <ele>5</ele>
        <time>2022-12-28T16:42:48.817Z</time>
      </trkpt>
      <trkpt lat="47.7951" lon="-4.21749">
        <ele>5</ele>
        <time>2022-12-28T16:43:02.735Z</time>
      </trkpt>
      <trkpt lat="47.79512" lon="-4.21728">
        <ele>5</ele>
        <time>2022-12-28T16:43:16.655Z</time>
      </trkpt>
      <trkpt lat="47.79512" lon="-4.21728">
        <ele>4</ele>
        <time>2022-12-28T16:43:30.575Z</time>
      </trkpt>
      <trkpt lat="47.79514" lon="-4.21706">
        <ele>4</ele>
        <time>2022-12-28T16:43:44.498Z</time>
      </trkpt>
      <trkpt lat="47.79521" lon="-4.21691">
        <ele>4</ele>
        <time>2022-12-28T16:43:58.423Z</time>
      </trkpt>
      <trkpt lat="47.79514" lon="-4.21679">
        <ele>4</ele>
        <time>2022-12-28T16:44:12.349Z</time>
      </trkpt>
      <trkpt lat="47.79517" lon="-4.21654">
        <ele>4</ele>
        <time>2022-12-28T16:44:26.278Z</time>
      </trkpt>
      <trkpt lat="47.79526" lon="-4.21652">
        <ele>4</ele>
        <time>2022-12-28T16:44:40.208Z</time>
      </trkpt>
      <trkpt lat="47.79546" lon="-4.21654">
        <ele>4</ele>
        <time>2022-12-28T16:44:54.142Z</time>
      </trkpt>
      <trkpt lat="47.79559" lon="-4.21645">
        <ele>4</ele>
        <time>2022-12-28T16:45:08.078Z</time>
      </trkpt>
      <trkpt lat="47.79568" lon="-4.21636">
        <ele>4</ele>
        <time>2022-12-28T16:45:22.016Z</time>
      </trkpt>
      <trkpt lat="47.79574" lon="-4.21629">
        <ele>3</ele>
        <time>2022-12-28T16:45:35.955Z</time>
      </trkpt>
      <trkpt lat="47.79593" lon="-4.216">
        <ele>3</ele>
        <time>2022-12-28T16:45:49.898Z</time>
      </trkpt>
      <trkpt lat="47.79593" lon="-4.21599">
        <ele>3</ele>
        <time>2022-12-28T16:46:03.841Z</time>
      </trkpt>
      <trkpt lat="47.79607" lon="-4.21576">
        <ele>3</ele>
        <time>2022-12-28T16:46:17.788Z</time>
      </trkpt>
      <trkpt lat="47.79617" lon="-4.21563">
        <ele>3</ele>
        <time>2022-12-28T16:46:31.737Z</time>
      </trkpt>
      <trkpt lat="47.79627" lon="-4.21552">
        <ele>3</ele>
        <time>2022-12-28T16:46:45.688Z</time>
      </trkpt>
      <trkpt lat="47.79633" lon="-4.21544">
        <ele>3</ele>
        <time>2022-12-28T16:46:59.640Z</time>
      </trkpt>
      <trkpt lat="47.79663" lon="-4.21541">
        <ele>3</ele>
        <time>2022-12-28T16:47:13.597Z</time>
      </trkpt>
      <trkpt lat="47.79672" lon="-4.21552">
        <ele>3</ele>
        <time>2022-12-28T16:47:27.556Z</time>
      </trkpt>
      <trkpt lat="47.79693" lon="-4.2155">
        <ele>3</ele>
        <time>2022-12-28T16:47:41.518Z</time>
      </trkpt>
      <trkpt lat="47.79698" lon="-4.2155">
        <ele>3</ele>
        <time>2022-12-28T16:47:55.481Z</time>
      </trkpt>
      <trkpt lat="47.79709" lon="-4.21546">
        <ele>3</ele>
        <time>2022-12-28T16:48:09.446Z</time>
      </trkpt>
      <trkpt lat="47.79709" lon="-4.21546">
        <ele>3</ele>
        <time>2022-12-28T16:48:23.411Z</time>
      </trkpt>
      <trkpt lat="47.79736" lon="-4.21534">
        <ele>3</ele>
        <time>2022-12-28T16:48:37.380Z</time>
      </trkpt>
      <trkpt lat="47.79751" lon="-4.21519">
        <ele>3</ele>
        <time>2022-12-28T16:48:51.352Z</time>
      </trkpt>
      <trkpt lat="47.79751" lon="-4.21519">
        <ele>4</ele>
        <time>2022-12-28T16:49:05.324Z</time>
      </trkpt>
      <trkpt lat="47.79767" lon="-4.21482">
        <ele>4</ele>
        <time>2022-12-28T16:49:19.301Z</time>
      </trkpt>
      <trkpt lat="47.7978" lon="-4.21442">
        <ele>4</ele>
        <time>2022-12-28T16:49:33.283Z</time>
      </trkpt>
      <trkpt lat="47.79786" lon="-4.21394">
        <ele>4</ele>
        <time>2022-12-28T16:49:47.270Z</time>
      </trkpt>
      <trkpt lat="47.79806" lon="-4.21402">
        <ele>4</ele>
        <time>2022-12-28T16:50:01.260Z</time>
      </trkpt>
      <trkpt lat="47.7981" lon="-4.21406">
        <ele>4</ele>
        <time>2022-12-28T16:50:15.251Z</time>
      </trkpt>
      <trkpt lat="47.79821" lon="-4.21412">
        <ele>4</ele>
        <time>2022-12-28T16:50:29.244Z</time>
      </trkpt>
      <trkpt lat="47.79834" lon="-4.21406">
        <ele>4</ele>
        <time>2022-12-28T16:50:43.239Z</time>
      </trkpt>
      <trkpt lat="47.79848" lon="-4.21415">
        <ele>4</ele>
        <time>2022-12-28T16:50:57.237Z</time>
      </trkpt>
      <trkpt lat="47.79851" lon="-4.21422">
        <ele>5</ele>
        <time>2022-12-28T16:51:11.236Z</time>
      </trkpt>
      <trkpt lat="47.79864" lon="-4.21437">
        <ele>5</ele>
        <time>2022-12-28T16:51:25.237Z</time>
      </trkpt>
      <trkpt lat="47.79867" lon="-4.21442">
        <ele>5</ele>
        <time>2022-12-28T16:51:39.239Z</time>
      </trkpt>
      <trkpt lat="47.79875" lon="-4.21446">
        <ele>5</ele>
        <time>2022-12-28T16:51:53.242Z</time>
      </trkpt>
      <trkpt lat="47.79875" lon="-4.21446">
        <ele>5</ele>
        <time>2022-12-28T16:52:07.245Z</time>
      </trkpt>
      <trkpt lat="47.79878" lon="-4.21448">
        <ele>5</ele>
        <time>2022-12-28T16:52:21.249Z</time>
      </trkpt>
      <trkpt lat="47.7989" lon="-4.21453">
        <ele>5</ele>
        <time>2022-12-28T16:52:35.255Z</time>
      </trkpt>
      <trkpt lat="47.79912" lon="-4.21464">
        <ele>5</ele>
        <time>2022-12-28T16:52:49.264Z</time>
      </trkpt>
      <trkpt lat="47.79948" lon="-4.21488">
        <ele>5</ele>
        <time>2022-12-28T16:53:03.280Z</time>
      </trkpt>
      <trkpt lat="47.79958" lon="-4.21493">
        <ele>5</ele>
        <time>2022-12-28T16:53:17.297Z</time>
      </trkpt>
      <trkpt lat="47.79981" lon="-4.215">
        <ele>5</ele>
        <time>2022-12-28T16:53:31.318Z</time>
      </trkpt>
      <trkpt lat="47.7999" lon="-4.21502">
        <ele>5</ele>
        <time>2022-12-28T16:53:45.341Z</time>
      </trkpt>
      <trkpt lat="47.80011" lon="-4.21506">
        <ele>5</ele>
        <time>2022-12-28T16:53:59.367Z</time>
      </trkpt>
      <trkpt lat="47.80023" lon="-4.21509">
        <ele>5</ele>
        <time>2022-12-28T16:54:13.395Z</time>
      </trkpt>
      <trkpt lat="47.80031" lon="-4.21468">
        <ele>5</ele>
        <time>2022-12-28T16:54:27.428Z</time>
      </trkpt>
      <trkpt lat="47.80075" lon="-4.21488">
        <ele>6</ele>
        <time>2022-12-28T16:54:41.468Z</time>
      </trkpt>
      <trkpt lat="47.80127" lon="-4.21512">
        <ele>6</ele>
        <time>2022-12-28T16:54:55.517Z</time>
      </trkpt>
      <trkpt lat="47.80151" lon="-4.21523">
        <ele>6</ele>
        <time>2022-12-28T16:55:09.570Z</time>
      </trkpt>
      <trkpt lat="47.80158" lon="-4.21529">
        <ele>6</ele>
        <time>2022-12-28T16:55:23.624Z</time>
      </trkpt>
      <trkpt lat="47.80159" lon="-4.2153">
        <ele>6</ele>
        <time>2022-12-28T16:55:37.678Z</time>
      </trkpt>
      <trkpt lat="47.80159" lon="-4.21531">
        <ele>6</ele>
        <time>2022-12-28T16:55:51.732Z</time>
      </trkpt>
      <trkpt lat="47.80163" lon="-4.21539">
        <ele>5</ele>
        <time>2022-12-28T16:56:05.787Z</time>
      </trkpt>
      <trkpt lat="47.80163" lon="-4.21539">
        <ele>5</ele>
        <time>2022-12-28T16:56:19.842Z</time>
      </trkpt>
      <trkpt lat="47.80206" lon="-4.21622">
        <ele>5</ele>
        <time>2022-12-28T16:56:33.909Z</time>
      </trkpt>
      <trkpt lat="47.80223" lon="-4.21579">
        <ele>5</ele>
        <time>2022-12-28T16:56:47.981Z</time>
      </trkpt>
      <trkpt lat="47.80227" lon="-4.21567">
        <ele>5</ele>
        <time>2022-12-28T16:57:02.054Z</time>
      </trkpt>
      <trkpt lat="47.80228" lon="-4.21565">
        <ele>5</ele>
        <time>2022-12-28T16:57:16.128Z</time>
      </trkpt>
      <trkpt lat="47.80229" lon="-4.21564">
        <ele>5</ele>
        <time>2022-12-28T16:57:30.202Z</time>
      </trkpt>
      <trkpt lat="47.80234" lon="-4.2155">
        <ele>5</ele>
        <time>2022-12-28T16:57:44.277Z</time>
      </trkpt>
      <trkpt lat="47.80234" lon="-4.2155">
        <ele>5</ele>
        <time>2022-12-28T16:57:58.352Z</time>
      </trkpt>
      <trkpt lat="47.80234" lon="-4.2155">
        <ele>5</ele>
        <time>2022-12-28T16:58:12.427Z</time>
      </trkpt>
      <trkpt lat="47.80234" lon="-4.2155">
        <ele>5</ele>
        <time>2022-12-28T16:58:26.502Z</time>
      </trkpt>
      <trkpt lat="47.80245" lon="-4.21522">
        <ele>4</ele>
        <time>2022-12-28T16:58:40.581Z</time>
      </trkpt>
      <trkpt lat="47.80249" lon="-4.21508">
        <ele>4</ele>
        <time>2022-12-28T16:58:54.662Z</time>
      </trkpt>
      <trkpt lat="47.80258" lon="-4.21476">
        <ele>4</ele>
        <time>2022-12-28T16:59:08.746Z</time>
      </trkpt>
      <trkpt lat="47.80258" lon="-4.21476">
        <ele>4</ele>
        <time>2022-12-28T16:59:22.830Z</time>
      </trkpt>
      <trkpt lat="47.80286" lon="-4.21326">
        <ele>3</ele>
        <time>2022-12-28T16:59:36.931Z</time>
      </trkpt>
      <trkpt lat="47.80289" lon="-4.21306">
        <ele>3</ele>
        <time>2022-12-28T16:59:51.034Z</time>
      </trkpt>
      <trkpt lat="47.80291" lon="-4.21297">
        <ele>3</ele>
        <time>2022-12-28T17:00:05.138Z</time>
      </trkpt>
      <trkpt lat="47.80299" lon="-4.21257">
        <ele>3</ele>
        <time>2022-12-28T17:00:19.247Z</time>
      </trkpt>
      <trkpt lat="47.80299" lon="-4.21256">
        <ele>3</ele>
        <time>2022-12-28T17:00:33.356Z</time>
      </trkpt>
      <trkpt lat="47.80326" lon="-4.2111">
        <ele>3</ele>
        <time>2022-12-28T17:00:47.481Z</time>
      </trkpt>
      <trkpt lat="47.80331" lon="-4.21084">
        <ele>3</ele>
        <time>2022-12-28T17:01:01.609Z</time>
      </trkpt>
      <trkpt lat="47.80331" lon="-4.21083">
        <ele>2</ele>
        <time>2022-12-28T17:01:15.737Z</time>
      </trkpt>
      <trkpt lat="47.80331" lon="-4.21083">
        <ele>2</ele>
        <time>2022-12-28T17:01:29.865Z</time>
      </trkpt>
      <trkpt lat="47.80337" lon="-4.21051">
        <ele>2</ele>
        <time>2022-12-28T17:01:43.997Z</time>
      </trkpt>
      <trkpt lat="47.80351" lon="-4.21058">
        <ele>2</ele>
        <time>2022-12-28T17:01:58.131Z</time>
      </trkpt>
      <trkpt lat="47.80358" lon="-4.21059">
        <ele>2</ele>
        <time>2022-12-28T17:02:12.266Z</time>
      </trkpt>
      <trkpt lat="47.80359" lon="-4.2106">
        <ele>2</ele>
        <time>2022-12-28T17:02:26.402Z</time>
      </trkpt>
      <trkpt lat="47.80364" lon="-4.21061">
        <ele>2</ele>
        <time>2022-12-28T17:02:40.538Z</time>
      </trkpt>
      <trkpt lat="47.80371" lon="-4.21063">
        <ele>1</ele>
        <time>2022-12-28T17:02:54.676Z</time>
      </trkpt>
      <trkpt lat="47.80364" lon="-4.21061">
        <ele>2</ele>
        <time>2022-12-28T17:03:08.815Z</time>
      </trkpt>
      <trkpt lat="47.80371" lon="-4.21063">
        <ele>1</ele>
        <time>2022-12-28T17:03:22.955Z</time>
      </trkpt>
      <trkpt lat="47.80392" lon="-4.21068">
        <ele>1</ele>
        <time>2022-12-28T17:03:37.098Z</time>
      </trkpt>
      <trkpt lat="47.80413" lon="-4.21081">
        <ele>1</ele>
        <time>2022-12-28T17:03:51.245Z</time>
      </trkpt>
      <trkpt lat="47.80425" lon="-4.21083">
        <ele>1</ele>
        <time>2022-12-28T17:04:05.394Z</time>
      </trkpt>
      <trkpt lat="47.80463" lon="-4.21078">
        <ele>1</ele>
        <time>2022-12-28T17:04:19.549Z</time>
      </trkpt>
      <trkpt lat="47.80507" lon="-4.21076">
        <ele>1</ele>
        <time>2022-12-28T17:04:33.711Z</time>
      </trkpt>
      <trkpt lat="47.80525" lon="-4.21073">
        <ele>1</ele>
        <time>2022-12-28T17:04:47.876Z</time>
      </trkpt>
      <trkpt lat="47.80546" lon="-4.21075">
        <ele>1</ele>
        <time>2022-12-28T17:05:02.044Z</time>
      </trkpt>
      <trkpt lat="47.80576" lon="-4.21088">
        <ele>1</ele>
        <time>2022-12-28T17:05:16.217Z</time>
      </trkpt>
      <trkpt lat="47.80579" lon="-4.21091">
        <ele>1</ele>
        <time>2022-12-28T17:05:30.391Z</time>
      </trkpt>
      <trkpt lat="47.80592" lon="-4.21111">
        <ele>1</ele>
        <time>2022-12-28T17:05:44.568Z</time>
      </trkpt>
      <trkpt lat="47.80599" lon="-4.2113">
        <ele>1</ele>
        <time>2022-12-28T17:05:58.747Z</time>
      </trkpt>
      <trkpt lat="47.80598" lon="-4.21131">
        <ele>1</ele>
        <time>2022-12-28T17:06:12.926Z</time>
      </trkpt>
      <trkpt lat="47.80598" lon="-4.21132">
        <ele>2</ele>
        <time>2022-12-28T17:06:27.105Z</time>
      </trkpt>
      <trkpt lat="47.80595" lon="-4.21136">
        <ele>2</ele>
        <time>2022-12-28T17:06:41.285Z</time>
      </trkpt>
      <trkpt lat="47.8059" lon="-4.21144">
        <ele>2</ele>
        <time>2022-12-28T17:06:55.466Z</time>
      </trkpt>
      <trkpt lat="47.80588" lon="-4.21153">
        <ele>2</ele>
        <time>2022-12-28T17:07:09.648Z</time>
      </trkpt>
      <trkpt lat="47.80593" lon="-4.21181">
        <ele>2</ele>
        <time>2022-12-28T17:07:23.833Z</time>
      </trkpt>
      <trkpt lat="47.806" lon="-4.2119">
        <ele>2</ele>
        <time>2022-12-28T17:07:38.020Z</time>
      </trkpt>
      <trkpt lat="47.80629" lon="-4.21233">
        <ele>2</ele>
        <time>2022-12-28T17:07:52.213Z</time>
      </trkpt>
      <trkpt lat="47.80635" lon="-4.21241">
        <ele>2</ele>
        <time>2022-12-28T17:08:06.408Z</time>
      </trkpt>
      <trkpt lat="47.80644" lon="-4.21248">
        <ele>2</ele>
        <time>2022-12-28T17:08:20.604Z</time>
      </trkpt>
      <trkpt lat="47.80657" lon="-4.21257">
        <ele>2</ele>
        <time>2022-12-28T17:08:34.803Z</time>
      </trkpt>
      <trkpt lat="47.80658" lon="-4.21258">
        <ele>2</ele>
        <time>2022-12-28T17:08:49.002Z</time>
      </trkpt>
      <trkpt lat="47.80659" lon="-4.21258">
        <ele>2</ele>
        <time>2022-12-28T17:09:03.201Z</time>
      </trkpt>
      <trkpt lat="47.80681" lon="-4.2126">
        <ele>2</ele>
        <time>2022-12-28T17:09:17.404Z</time>
      </trkpt>
      <trkpt lat="47.80694" lon="-4.21257">
        <ele>2</ele>
        <time>2022-12-28T17:09:31.609Z</time>
      </trkpt>
      <trkpt lat="47.80701" lon="-4.21252">
        <ele>2</ele>
        <time>2022-12-28T17:09:45.815Z</time>
      </trkpt>
      <trkpt lat="47.8071" lon="-4.21245">
        <ele>3</ele>
        <time>2022-12-28T17:10:00.022Z</time>
      </trkpt>
      <trkpt lat="47.80716" lon="-4.21193">
        <ele>3</ele>
        <time>2022-12-28T17:10:14.235Z</time>
      </trkpt>
      <trkpt lat="47.8072" lon="-4.21105">
        <ele>3</ele>
        <time>2022-12-28T17:10:28.458Z</time>
      </trkpt>
      <trkpt lat="47.80773" lon="-4.21077">
        <ele>3</ele>
        <time>2022-12-28T17:10:42.690Z</time>
      </trkpt>
      <trkpt lat="47.80789" lon="-4.21061">
        <ele>3</ele>
        <time>2022-12-28T17:10:56.925Z</time>
      </trkpt>
      <trkpt lat="47.80795" lon="-4.2104">
        <ele>3</ele>
        <time>2022-12-28T17:11:11.162Z</time>
      </trkpt>
      <trkpt lat="47.80795" lon="-4.21037">
        <ele>3</ele>
        <time>2022-12-28T17:11:25.400Z</time>
      </trkpt>
      <trkpt lat="47.80797" lon="-4.2101">
        <ele>3</ele>
        <time>2022-12-28T17:11:39.640Z</time>
      </trkpt>
      <trkpt lat="47.80802" lon="-4.20987">
        <ele>3</ele>
        <time>2022-12-28T17:11:53.883Z</time>
      </trkpt>
      <trkpt lat="47.80802" lon="-4.20986">
        <ele>3</ele>
        <time>2022-12-28T17:12:08.126Z</time>
      </trkpt>
      <trkpt lat="47.80803" lon="-4.20983">
        <ele>3</ele>
        <time>2022-12-28T17:12:22.369Z</time>
      </trkpt>
      <trkpt lat="47.80806" lon="-4.20991">
        <ele>3</ele>
        <time>2022-12-28T17:12:36.613Z</time>
      </trkpt>
      <trkpt lat="47.8081" lon="-4.20995">
        <ele>3</ele>
        <time>2022-12-28T17:12:50.858Z</time>
      </trkpt>
      <trkpt lat="47.80898" lon="-4.21035">
        <ele>3</ele>
        <time>2022-12-28T17:13:05.118Z</time>
      </trkpt>
      <trkpt lat="47.80913" lon="-4.21037">
        <ele>3</ele>
        <time>2022-12-28T17:13:19.380Z</time>
      </trkpt>
      <trkpt lat="47.80914" lon="-4.21037">
        <ele>3</ele>
        <time>2022-12-28T17:13:33.643Z</time>
      </trkpt>
      <trkpt lat="47.80937" lon="-4.21041">
        <ele>3</ele>
        <time>2022-12-28T17:13:47.909Z</time>
      </trkpt>
      <trkpt lat="47.80939" lon="-4.21041">
        <ele>3</ele>
        <time>2022-12-28T17:14:02.176Z</time>
      </trkpt>
      <trkpt lat="47.80956" lon="-4.21034">
        <ele>3</ele>
        <time>2022-12-28T17:14:16.445Z</time>
      </trkpt>
      <trkpt lat="47.80957" lon="-4.21034">
        <ele>3</ele>
        <time>2022-12-28T17:14:30.715Z</time>
      </trkpt>
      <trkpt lat="47.80969" lon="-4.21034">
        <ele>3</ele>
        <time>2022-12-28T17:14:44.986Z</time>
      </trkpt>
      <trkpt lat="47.80982" lon="-4.21045">
        <ele>3</ele>
        <time>2022-12-28T17:14:59.260Z</time>
      </trkpt>
      <trkpt lat="47.81002" lon="-4.21068">
        <ele>3</ele>
        <time>2022-12-28T17:15:13.538Z</time>
      </trkpt>
      <trkpt lat="47.81033" lon="-4.21084">
        <ele>3</ele>
        <time>2022-12-28T17:15:27.821Z</time>
      </trkpt>
      <trkpt lat="47.81052" lon="-4.21182">
        <ele>3</ele>
        <time>2022-12-28T17:15:42.115Z</time>
      </trkpt>
      <trkpt lat="47.81053" lon="-4.21191">
        <ele>2</ele>
        <time>2022-12-28T17:15:56.410Z</time>
      </trkpt>
      <trkpt lat="47.81052" lon="-4.21196">
        <ele>2</ele>
        <time>2022-12-28T17:16:10.706Z</time>
      </trkpt>
      <trkpt lat="47.81044" lon="-4.21208">
        <ele>2</ele>
        <time>2022-12-28T17:16:25.004Z</time>
      </trkpt>
      <trkpt lat="47.81039" lon="-4.21217">
        <ele>2</ele>
        <time>2022-12-28T17:16:39.303Z</time>
      </trkpt>
      <trkpt lat="47.81037" lon="-4.21222">
        <ele>2</ele>
        <time>2022-12-28T17:16:53.602Z</time>
      </trkpt>
      <trkpt lat="47.81035" lon="-4.21226">
        <ele>2</ele>
        <time>2022-12-28T17:17:07.902Z</time>
      </trkpt>
      <trkpt lat="47.81035" lon="-4.21235">
        <ele>2</ele>
        <time>2022-12-28T17:17:22.203Z</time>
      </trkpt>
      <trkpt lat="47.81043" lon="-4.21276">
        <ele>2</ele>
        <time>2022-12-28T17:17:36.508Z</time>
      </trkpt>
      <trkpt lat="47.81042" lon="-4.21295">
        <ele>2</ele>
        <time>2022-12-28T17:17:50.815Z</time>
      </trkpt>
      <trkpt lat="47.81038" lon="-4.213">
        <ele>2</ele>
        <time>2022-12-28T17:18:05.123Z</time>
      </trkpt>
      <trkpt lat="47.81035" lon="-4.21301">
        <ele>2</ele>
        <time>2022-12-28T17:18:19.432Z</time>
      </trkpt>
      <trkpt lat="47.81028" lon="-4.21304">
        <ele>2</ele>
        <time>2022-12-28T17:18:33.742Z</time>
      </trkpt>
      <trkpt lat="47.81024" lon="-4.21307">
        <ele>2</ele>
        <time>2022-12-28T17:18:48.053Z</time>
      </trkpt>
      <trkpt lat="47.81002" lon="-4.21335">
        <ele>2</ele>
        <time>2022-12-28T17:19:02.368Z</time>
      </trkpt>
      <trkpt lat="47.81" lon="-4.2135">
        <ele>2</ele>
        <time>2022-12-28T17:19:16.685Z</time>
      </trkpt>
      <trkpt lat="47.80988" lon="-4.21382">
        <ele>2</ele>
        <time>2022-12-28T17:19:31.006Z</time>
      </trkpt>
      <trkpt lat="47.80984" lon="-4.21388">
        <ele>2</ele>
        <time>2022-12-28T17:19:45.328Z</time>
      </trkpt>
      <trkpt lat="47.80984" lon="-4.21393">
        <ele>2</ele>
        <time>2022-12-28T17:19:59.650Z</time>
      </trkpt>
      <trkpt lat="47.80978" lon="-4.214">
        <ele>2</ele>
        <time>2022-12-28T17:20:13.974Z</time>
      </trkpt>
      <trkpt lat="47.80976" lon="-4.21405">
        <ele>2</ele>
        <time>2022-12-28T17:20:28.298Z</time>
      </trkpt>
      <trkpt lat="47.80974" lon="-4.21413">
        <ele>2</ele>
        <time>2022-12-28T17:20:42.623Z</time>
      </trkpt>
      <trkpt lat="47.80976" lon="-4.2143">
        <ele>2</ele>
        <time>2022-12-28T17:20:56.950Z</time>
      </trkpt>
      <trkpt lat="47.80976" lon="-4.2143">
        <ele>2</ele>
        <time>2022-12-28T17:21:11.277Z</time>
      </trkpt>
      <trkpt lat="47.80986" lon="-4.21431">
        <ele>2</ele>
        <time>2022-12-28T17:21:25.606Z</time>
      </trkpt>
      <trkpt lat="47.80989" lon="-4.21434">
        <ele>2</ele>
        <time>2022-12-28T17:21:39.935Z</time>
      </trkpt>
      <trkpt lat="47.80988" lon="-4.21445">
        <ele>2</ele>
        <time>2022-12-28T17:21:54.265Z</time>
      </trkpt>
      <trkpt lat="47.8099" lon="-4.21462">
        <ele>2</ele>
        <time>2022-12-28T17:22:08.597Z</time>
      </trkpt>
      <trkpt lat="47.80998" lon="-4.21481">
        <ele>2</ele>
        <time>2022-12-28T17:22:22.932Z</time>
      </trkpt>
      <trkpt lat="47.81004" lon="-4.2149">
        <ele>2</ele>
        <time>2022-12-28T17:22:37.268Z</time>
      </trkpt>
      <trkpt lat="47.81037" lon="-4.21517">
        <ele>2</ele>
        <time>2022-12-28T17:22:51.610Z</time>
      </trkpt>
      <trkpt lat="47.81058" lon="-4.21523">
        <ele>2</ele>
        <time>2022-12-28T17:23:05.955Z</time>
      </trkpt>
      <trkpt lat="47.8109" lon="-4.21521">
        <ele>2</ele>
        <time>2022-12-28T17:23:20.306Z</time>
      </trkpt>
      <trkpt lat="47.81107" lon="-4.21518">
        <ele>2</ele>
        <time>2022-12-28T17:23:34.659Z</time>
      </trkpt>
      <trkpt lat="47.81134" lon="-4.21519">
        <ele>2</ele>
        <time>2022-12-28T17:23:49.017Z</time>
      </trkpt>
      <trkpt lat="47.81193" lon="-4.21542">
        <ele>2</ele>
        <time>2022-12-28T17:24:03.384Z</time>
      </trkpt>
      <trkpt lat="47.81226" lon="-4.2155">
        <ele>2</ele>
        <time>2022-12-28T17:24:17.757Z</time>
      </trkpt>
      <trkpt lat="47.81226" lon="-4.2155">
        <ele>2</ele>
        <time>2022-12-28T17:24:32.130Z</time>
      </trkpt>
      <trkpt lat="47.81239" lon="-4.21556">
        <ele>2</ele>
        <time>2022-12-28T17:24:46.505Z</time>
      </trkpt>
      <trkpt lat="47.81251" lon="-4.21561">
        <ele>2</ele>
        <time>2022-12-28T17:25:00.882Z</time>
      </trkpt>
      <trkpt lat="47.81256" lon="-4.21564">
        <ele>2</ele>
        <time>2022-12-28T17:25:15.260Z</time>
      </trkpt>
      <trkpt lat="47.81263" lon="-4.21565">
        <ele>2</ele>
        <time>2022-12-28T17:25:29.639Z</time>
      </trkpt>
      <trkpt lat="47.81268" lon="-4.21566">
        <ele>2</ele>
        <time>2022-12-28T17:25:44.019Z</time>
      </trkpt>
      <trkpt lat="47.81284" lon="-4.21575">
        <ele>2</ele>
        <time>2022-12-28T17:25:58.401Z</time>
      </trkpt>
      <trkpt lat="47.81299" lon="-4.21586">
        <ele>2</ele>
        <time>2022-12-28T17:26:12.786Z</time>
      </trkpt>
      <trkpt lat="47.81325" lon="-4.21603">
        <ele>2</ele>
        <time>2022-12-28T17:26:27.176Z</time>
      </trkpt>
      <trkpt lat="47.81347" lon="-4.21628">
        <ele>2</ele>
        <time>2022-12-28T17:26:41.570Z</time>
      </trkpt>
      <trkpt lat="47.81351" lon="-4.21645">
        <ele>2</ele>
        <time>2022-12-28T17:26:55.966Z</time>
      </trkpt>
      <trkpt lat="47.81352" lon="-4.21655">
        <ele>2</ele>
        <time>2022-12-28T17:27:10.363Z</time>
      </trkpt>
      <trkpt lat="47.81354" lon="-4.21673">
        <ele>2</ele>
        <time>2022-12-28T17:27:24.762Z</time>
      </trkpt>
      <trkpt lat="47.8137" lon="-4.21696">
        <ele>2</ele>
        <time>2022-12-28T17:27:39.165Z</time>
      </trkpt>
      <trkpt lat="47.8137" lon="-4.21697">
        <ele>2</ele>
        <time>2022-12-28T17:27:53.568Z</time>
      </trkpt>
      <trkpt lat="47.81388" lon="-4.21724">
        <ele>2</ele>
        <time>2022-12-28T17:28:07.975Z</time>
      </trkpt>
      <trkpt lat="47.81402" lon="-4.21738">
        <ele>2</ele>
        <time>2022-12-28T17:28:22.385Z</time>
      </trkpt>
      <trkpt lat="47.81429" lon="-4.21742">
        <ele>2</ele>
        <time>2022-12-28T17:28:36.799Z</time>
      </trkpt>
      <trkpt lat="47.81438" lon="-4.21747">
        <ele>2</ele>
        <time>2022-12-28T17:28:51.214Z</time>
      </trkpt>
      <trkpt lat="47.81451" lon="-4.21751">
        <ele>2</ele>
        <time>2022-12-28T17:29:05.631Z</time>
      </trkpt>
      <trkpt lat="47.81477" lon="-4.21765">
        <ele>2</ele>
        <time>2022-12-28T17:29:20.053Z</time>
      </trkpt>
      <trkpt lat="47.81478" lon="-4.21765">
        <ele>2</ele>
        <time>2022-12-28T17:29:34.475Z</time>
      </trkpt>
      <trkpt lat="47.81503" lon="-4.21778">
        <ele>2</ele>
        <time>2022-12-28T17:29:48.901Z</time>
      </trkpt>
      <trkpt lat="47.81502" lon="-4.21788">
        <ele>2</ele>
        <time>2022-12-28T17:30:03.328Z</time>
      </trkpt>
      <trkpt lat="47.81498" lon="-4.21803">
        <ele>2</ele>
        <time>2022-12-28T17:30:17.757Z</time>
      </trkpt>
      <trkpt lat="47.81486" lon="-4.21851">
        <ele>2</ele>
        <time>2022-12-28T17:30:32.192Z</time>
      </trkpt>
      <trkpt lat="47.81468" lon="-4.21851">
        <ele>2</ele>
        <time>2022-12-28T17:30:46.630Z</time>
      </trkpt>
      <trkpt lat="47.81451" lon="-4.21846">
        <ele>2</ele>
        <time>2022-12-28T17:31:01.070Z</time>
      </trkpt>
      <trkpt lat="47.81443" lon="-4.21842">
        <ele>3</ele>
        <time>2022-12-28T17:31:15.512Z</time>
      </trkpt>
      <trkpt lat="47.81428" lon="-4.2184">
        <ele>3</ele>
        <time>2022-12-28T17:31:29.956Z</time>
      </trkpt>
      <trkpt lat="47.8142" lon="-4.21846">
        <ele>3</ele>
        <time>2022-12-28T17:31:44.402Z</time>
      </trkpt>
      <trkpt lat="47.81419" lon="-4.21848">
        <ele>3</ele>
        <time>2022-12-28T17:31:58.848Z</time>
      </trkpt>
      <trkpt lat="47.81415" lon="-4.2186">
        <ele>3</ele>
        <time>2022-12-28T17:32:13.295Z</time>
      </trkpt>
      <trkpt lat="47.81414" lon="-4.21875">
        <ele>3</ele>
        <time>2022-12-28T17:32:27.744Z</time>
      </trkpt>
      <trkpt lat="47.81422" lon="-4.21927">
        <ele>3</ele>
        <time>2022-12-28T17:32:42.199Z</time>
      </trkpt>
      <trkpt lat="47.81438" lon="-4.22">
        <ele>4</ele>
        <time>2022-12-28T17:32:56.662Z</time>
      </trkpt>
      <trkpt lat="47.81453" lon="-4.22047">
        <ele>4</ele>
        <time>2022-12-28T17:33:11.131Z</time>
      </trkpt>
      <trkpt lat="47.81469" lon="-4.22079">
        <ele>4</ele>
        <time>2022-12-28T17:33:25.604Z</time>
      </trkpt>
      <trkpt lat="47.81483" lon="-4.22098">
        <ele>4</ele>
        <time>2022-12-28T17:33:40.080Z</time>
      </trkpt>
      <trkpt lat="47.81486" lon="-4.22102">
        <ele>4</ele>
        <time>2022-12-28T17:33:54.557Z</time>
      </trkpt>
      <trkpt lat="47.81494" lon="-4.22109">
        <ele>5</ele>
        <time>2022-12-28T17:34:09.035Z</time>
      </trkpt>
      <trkpt lat="47.81501" lon="-4.22113">
        <ele>5</ele>
        <time>2022-12-28T17:34:23.514Z</time>
      </trkpt>
      <trkpt lat="47.81517" lon="-4.22125">
        <ele>5</ele>
        <time>2022-12-28T17:34:37.996Z</time>
      </trkpt>
      <trkpt lat="47.81517" lon="-4.22126">
        <ele>5</ele>
        <time>2022-12-28T17:34:52.478Z</time>
      </trkpt>
      <trkpt lat="47.81528" lon="-4.22134">
        <ele>5</ele>
        <time>2022-12-28T17:35:06.962Z</time>
      </trkpt>
      <trkpt lat="47.81536" lon="-4.22141">
        <ele>6</ele>
        <time>2022-12-28T17:35:21.448Z</time>
      </trkpt>
      <trkpt lat="47.81546" lon="-4.22151">
        <ele>6</ele>
        <time>2022-12-28T17:35:35.936Z</time>
      </trkpt>
      <trkpt lat="47.81573" lon="-4.22179">
        <ele>6</ele>
        <time>2022-12-28T17:35:50.429Z</time>
      </trkpt>
      <trkpt lat="47.81564" lon="-4.22225">
        <ele>7</ele>
        <time>2022-12-28T17:36:04.927Z</time>
      </trkpt>
      <trkpt lat="47.81562" lon="-4.22256">
        <ele>7</ele>
        <time>2022-12-28T17:36:19.428Z</time>
      </trkpt>
      <trkpt lat="47.81562" lon="-4.22258">
        <ele>7</ele>
        <time>2022-12-28T17:36:33.930Z</time>
      </trkpt>
      <trkpt lat="47.81562" lon="-4.22258">
        <ele>7</ele>
        <time>2022-12-28T17:36:48.432Z</time>
      </trkpt>
      <trkpt lat="47.81562" lon="-4.22258">
        <ele>8</ele>
        <time>2022-12-28T17:37:02.934Z</time>
      </trkpt>
      <trkpt lat="47.81558" lon="-4.2227">
        <ele>8</ele>
        <time>2022-12-28T17:37:17.437Z</time>
      </trkpt>
      <trkpt lat="47.81549" lon="-4.22282">
        <ele>8</ele>
        <time>2022-12-28T17:37:31.942Z</time>
      </trkpt>
      <trkpt lat="47.81563" lon="-4.22309">
        <ele>9</ele>
        <time>2022-12-28T17:37:46.451Z</time>
      </trkpt>
      <trkpt lat="47.81563" lon="-4.2231">
        <ele>9</ele>
        <time>2022-12-28T17:38:00.960Z</time>
      </trkpt>
      <trkpt lat="47.81588" lon="-4.22371">
        <ele>9</ele>
        <time>2022-12-28T17:38:15.476Z</time>
      </trkpt>
      <trkpt lat="47.81605" lon="-4.22401">
        <ele>9</ele>
        <time>2022-12-28T17:38:29.997Z</time>
      </trkpt>
      <trkpt lat="47.81619" lon="-4.22421">
        <ele>10</ele>
        <time>2022-12-28T17:38:44.521Z</time>
      </trkpt>
      <trkpt lat="47.81673" lon="-4.22462">
        <ele>10</ele>
        <time>2022-12-28T17:38:59.054Z</time>
      </trkpt>
      <trkpt lat="47.81696" lon="-4.22487">
        <ele>10</ele>
        <time>2022-12-28T17:39:13.592Z</time>
      </trkpt>
      <trkpt lat="47.81704" lon="-4.22501">
        <ele>10</ele>
        <time>2022-12-28T17:39:28.132Z</time>
      </trkpt>
      <trkpt lat="47.81718" lon="-4.22552">
        <ele>11</ele>
        <time>2022-12-28T17:39:42.678Z</time>
      </trkpt>
      <trkpt lat="47.81736" lon="-4.22548">
        <ele>11</ele>
        <time>2022-12-28T17:39:57.227Z</time>
      </trkpt>
      <trkpt lat="47.8175" lon="-4.22551">
        <ele>11</ele>
        <time>2022-12-28T17:40:11.778Z</time>
      </trkpt>
      <trkpt lat="47.81811" lon="-4.22584">
        <ele>11</ele>
        <time>2022-12-28T17:40:26.340Z</time>
      </trkpt>
      <trkpt lat="47.81833" lon="-4.22594">
        <ele>12</ele>
        <time>2022-12-28T17:40:40.905Z</time>
      </trkpt>
      <trkpt lat="47.81865" lon="-4.22573">
        <ele>12</ele>
        <time>2022-12-28T17:40:55.476Z</time>
      </trkpt>
      <trkpt lat="47.8195" lon="-4.22528">
        <ele>12</ele>
        <time>2022-12-28T17:41:10.061Z</time>
      </trkpt>
      <trkpt lat="47.8195" lon="-4.22528">
        <ele>12</ele>
        <time>2022-12-28T17:41:24.646Z</time>
      </trkpt>
      <trkpt lat="47.8195" lon="-4.22528">
        <ele>12</ele>
        <time>2022-12-28T17:41:39.231Z</time>
      </trkpt>
      <trkpt lat="47.81982" lon="-4.2251">
        <ele>12</ele>
        <time>2022-12-28T17:41:53.822Z</time>
      </trkpt>
      <trkpt lat="47.81983" lon="-4.2251">
        <ele>13</ele>
        <time>2022-12-28T17:42:08.413Z</time>
      </trkpt>
      <trkpt lat="47.82035" lon="-4.22481">
        <ele>13</ele>
        <time>2022-12-28T17:42:23.013Z</time>
      </trkpt>
      <trkpt lat="47.82058" lon="-4.22474">
        <ele>13</ele>
        <time>2022-12-28T17:42:37.617Z</time>
      </trkpt>
      <trkpt lat="47.82078" lon="-4.22471">
        <ele>13</ele>
        <time>2022-12-28T17:42:52.224Z</time>
      </trkpt>
      <trkpt lat="47.82078" lon="-4.22463">
        <ele>13</ele>
        <time>2022-12-28T17:43:06.832Z</time>
      </trkpt>
      <trkpt lat="47.82085" lon="-4.22452">
        <ele>13</ele>
        <time>2022-12-28T17:43:21.441Z</time>
      </trkpt>
      <trkpt lat="47.82086" lon="-4.22444">
        <ele>13</ele>
        <time>2022-12-28T17:43:36.051Z</time>
      </trkpt>
      <trkpt lat="47.82086" lon="-4.22444">
        <ele>13</ele>
        <time>2022-12-28T17:43:50.661Z</time>
      </trkpt>
      <trkpt lat="47.82088" lon="-4.22437">
        <ele>13</ele>
        <time>2022-12-28T17:44:05.272Z</time>
      </trkpt>
      <trkpt lat="47.82088" lon="-4.22408">
        <ele>13</ele>
        <time>2022-12-28T17:44:19.886Z</time>
      </trkpt>
      <trkpt lat="47.82085" lon="-4.22386">
        <ele>13</ele>
        <time>2022-12-28T17:44:34.502Z</time>
      </trkpt>
      <trkpt lat="47.82084" lon="-4.22379">
        <ele>13</ele>
        <time>2022-12-28T17:44:49.119Z</time>
      </trkpt>
      <trkpt lat="47.82082" lon="-4.22358">
        <ele>13</ele>
        <time>2022-12-28T17:45:03.739Z</time>
      </trkpt>
      <trkpt lat="47.82072" lon="-4.22328">
        <ele>13</ele>
        <time>2022-12-28T17:45:18.362Z</time>
      </trkpt>
      <trkpt lat="47.82074" lon="-4.22319">
        <ele>13</ele>
        <time>2022-12-28T17:45:32.986Z</time>
      </trkpt>
      <trkpt lat="47.8208" lon="-4.22329">
        <ele>13</ele>
        <time>2022-12-28T17:45:47.612Z</time>
      </trkpt>
      <trkpt lat="47.82086" lon="-4.22324">
        <ele>13</ele>
        <time>2022-12-28T17:46:02.239Z</time>
      </trkpt>
      <trkpt lat="47.82089" lon="-4.22325">
        <ele>13</ele>
        <time>2022-12-28T17:46:16.866Z</time>
      </trkpt>
      <trkpt lat="47.82101" lon="-4.22251">
        <ele>13</ele>
        <time>2022-12-28T17:46:31.501Z</time>
      </trkpt>
      <trkpt lat="47.82109" lon="-4.22197">
        <ele>13</ele>
        <time>2022-12-28T17:46:46.142Z</time>
      </trkpt>
      <trkpt lat="47.82116" lon="-4.22168">
        <ele>13</ele>
        <time>2022-12-28T17:47:00.787Z</time>
      </trkpt>
      <trkpt lat="47.82124" lon="-4.22142">
        <ele>13</ele>
        <time>2022-12-28T17:47:15.435Z</time>
      </trkpt>
      <trkpt lat="47.82178" lon="-4.22">
        <ele>13</ele>
        <time>2022-12-28T17:47:30.100Z</time>
      </trkpt>
      <trkpt lat="47.82195" lon="-4.21936">
        <ele>13</ele>
        <time>2022-12-28T17:47:44.773Z</time>
      </trkpt>
      <trkpt lat="47.82205" lon="-4.21887">
        <ele>13</ele>
        <time>2022-12-28T17:47:59.451Z</time>
      </trkpt>
      <trkpt lat="47.82245" lon="-4.21574">
        <ele>13</ele>
        <time>2022-12-28T17:48:14.164Z</time>
      </trkpt>
      <trkpt lat="47.82253" lon="-4.21526">
        <ele>13</ele>
        <time>2022-12-28T17:48:28.882Z</time>
      </trkpt>
      <trkpt lat="47.82263" lon="-4.2149">
        <ele>13</ele>
        <time>2022-12-28T17:48:43.604Z</time>
      </trkpt>
      <trkpt lat="47.82271" lon="-4.21463">
        <ele>12</ele>
        <time>2022-12-28T17:48:58.329Z</time>
      </trkpt>
      <trkpt lat="47.82278" lon="-4.21448">
        <ele>12</ele>
        <time>2022-12-28T17:49:13.056Z</time>
      </trkpt>
      <trkpt lat="47.82284" lon="-4.21433">
        <ele>12</ele>
        <time>2022-12-28T17:49:27.785Z</time>
      </trkpt>
      <trkpt lat="47.82286" lon="-4.21429">
        <ele>12</ele>
        <time>2022-12-28T17:49:42.515Z</time>
      </trkpt>
      <trkpt lat="47.82301" lon="-4.21391">
        <ele>12</ele>
        <time>2022-12-28T17:49:57.249Z</time>
      </trkpt>
      <trkpt lat="47.82352" lon="-4.21292">
        <ele>12</ele>
        <time>2022-12-28T17:50:11.997Z</time>
      </trkpt>
      <trkpt lat="47.82364" lon="-4.21258">
        <ele>12</ele>
        <time>2022-12-28T17:50:26.749Z</time>
      </trkpt>
      <trkpt lat="47.82379" lon="-4.21208">
        <ele>12</ele>
        <time>2022-12-28T17:50:41.507Z</time>
      </trkpt>
      <trkpt lat="47.82416" lon="-4.21075">
        <ele>12</ele>
        <time>2022-12-28T17:50:56.280Z</time>
      </trkpt>
      <trkpt lat="47.8243" lon="-4.21017">
        <ele>12</ele>
        <time>2022-12-28T17:51:11.060Z</time>
      </trkpt>
      <trkpt lat="47.82435" lon="-4.20991">
        <ele>12</ele>
        <time>2022-12-28T17:51:25.843Z</time>
      </trkpt>
      <trkpt lat="47.82438" lon="-4.20955">
        <ele>12</ele>
        <time>2022-12-28T17:51:40.630Z</time>
      </trkpt>
      <trkpt lat="47.82456" lon="-4.20714">
        <ele>12</ele>
        <time>2022-12-28T17:51:55.443Z</time>
      </trkpt>
      <trkpt lat="47.82467" lon="-4.20593">
        <ele>12</ele>
        <time>2022-12-28T17:52:10.269Z</time>
      </trkpt>
      <trkpt lat="47.82468" lon="-4.20587">
        <ele>12</ele>
        <time>2022-12-28T17:52:25.096Z</time>
      </trkpt>
      <trkpt lat="47.82476" lon="-4.20537">
        <ele>12</ele>
        <time>2022-12-28T17:52:39.928Z</time>
      </trkpt>
      <trkpt lat="47.82476" lon="-4.20536">
        <ele>12</ele>
        <time>2022-12-28T17:52:54.760Z</time>
      </trkpt>
      <trkpt lat="47.82476" lon="-4.20532">
        <ele>11</ele>
        <time>2022-12-28T17:53:09.593Z</time>
      </trkpt>
      <trkpt lat="47.82476" lon="-4.20532">
        <ele>11</ele>
        <time>2022-12-28T17:53:24.426Z</time>
      </trkpt>
      <trkpt lat="47.82482" lon="-4.20506">
        <ele>11</ele>
        <time>2022-12-28T17:53:39.262Z</time>
      </trkpt>
      <trkpt lat="47.82493" lon="-4.20467">
        <ele>11</ele>
        <time>2022-12-28T17:53:54.102Z</time>
      </trkpt>
      <trkpt lat="47.82498" lon="-4.20451">
        <ele>11</ele>
        <time>2022-12-28T17:54:08.944Z</time>
      </trkpt>
      <trkpt lat="47.82503" lon="-4.20432">
        <ele>11</ele>
        <time>2022-12-28T17:54:23.789Z</time>
      </trkpt>
      <trkpt lat="47.82527" lon="-4.20376">
        <ele>11</ele>
        <time>2022-12-28T17:54:38.641Z</time>
      </trkpt>
      <trkpt lat="47.82532" lon="-4.20363">
        <ele>11</ele>
        <time>2022-12-28T17:54:53.494Z</time>
      </trkpt>
      <trkpt lat="47.82552" lon="-4.20321">
        <ele>11</ele>
        <time>2022-12-28T17:55:08.353Z</time>
      </trkpt>
      <trkpt lat="47.82552" lon="-4.2032">
        <ele>11</ele>
        <time>2022-12-28T17:55:23.212Z</time>
      </trkpt>
      <trkpt lat="47.82558" lon="-4.20308">
        <ele>11</ele>
        <time>2022-12-28T17:55:38.073Z</time>
      </trkpt>
      <trkpt lat="47.8262" lon="-4.20383">
        <ele>11</ele>
        <time>2022-12-28T17:55:52.946Z</time>
      </trkpt>
      <trkpt lat="47.82632" lon="-4.20398">
        <ele>11</ele>
        <time>2022-12-28T17:56:07.822Z</time>
      </trkpt>
      <trkpt lat="47.82695" lon="-4.20494">
        <ele>11</ele>
        <time>2022-12-28T17:56:22.712Z</time>
      </trkpt>
      <trkpt lat="47.8273" lon="-4.20537">
        <ele>11</ele>
        <time>2022-12-28T17:56:37.610Z</time>
      </trkpt>
      <trkpt lat="47.82756" lon="-4.20569">
        <ele>11</ele>
        <time>2022-12-28T17:56:52.513Z</time>
      </trkpt>
      <trkpt lat="47.82781" lon="-4.20592">
        <ele>11</ele>
        <time>2022-12-28T17:57:07.421Z</time>
      </trkpt>
      <trkpt lat="47.82887" lon="-4.20671">
        <ele>11</ele>
        <time>2022-12-28T17:57:22.348Z</time>
      </trkpt>
      <trkpt lat="47.82923" lon="-4.20693">
        <ele>11</ele>
        <time>2022-12-28T17:57:37.281Z</time>
      </trkpt>
      <trkpt lat="47.82956" lon="-4.2071">
        <ele>11</ele>
        <time>2022-12-28T17:57:52.220Z</time>
      </trkpt>
      <trkpt lat="47.82965" lon="-4.20712">
        <ele>11</ele>
        <time>2022-12-28T17:58:07.160Z</time>
      </trkpt>
      <trkpt lat="47.8299" lon="-4.20718">
        <ele>11</ele>
        <time>2022-12-28T17:58:22.104Z</time>
      </trkpt>
      <trkpt lat="47.82999" lon="-4.20719">
        <ele>11</ele>
        <time>2022-12-28T17:58:37.050Z</time>
      </trkpt>
      <trkpt lat="47.83" lon="-4.20719">
        <ele>11</ele>
        <time>2022-12-28T17:58:51.996Z</time>
      </trkpt>
      <trkpt lat="47.83046" lon="-4.20722">
        <ele>11</ele>
        <time>2022-12-28T17:59:06.949Z</time>
      </trkpt>
      <trkpt lat="47.83046" lon="-4.20722">
        <ele>11</ele>
        <time>2022-12-28T17:59:21.902Z</time>
      </trkpt>
      <trkpt lat="47.83102" lon="-4.20727">
        <ele>12</ele>
        <time>2022-12-28T17:59:36.864Z</time>
      </trkpt>
      <trkpt lat="47.83119" lon="-4.20728">
        <ele>12</ele>
        <time>2022-12-28T17:59:51.829Z</time>
      </trkpt>
      <trkpt lat="47.83149" lon="-4.20729">
        <ele>12</ele>
        <time>2022-12-28T18:00:06.799Z</time>
      </trkpt>
      <trkpt lat="47.83161" lon="-4.20729">
        <ele>12</ele>
        <time>2022-12-28T18:00:21.770Z</time>
      </trkpt>
      <trkpt lat="47.83161" lon="-4.20729">
        <ele>12</ele>
        <time>2022-12-28T18:00:36.742Z</time>
      </trkpt>
      <trkpt lat="47.83164" lon="-4.20729">
        <ele>12</ele>
        <time>2022-12-28T18:00:51.714Z</time>
      </trkpt>
      <trkpt lat="47.83174" lon="-4.20727">
        <ele>12</ele>
        <time>2022-12-28T18:01:06.688Z</time>
      </trkpt>
      <trkpt lat="47.83223" lon="-4.20716">
        <ele>12</ele>
        <time>2022-12-28T18:01:21.670Z</time>
      </trkpt>
      <trkpt lat="47.83296" lon="-4.20706">
        <ele>12</ele>
        <time>2022-12-28T18:01:36.663Z</time>
      </trkpt>
      <trkpt lat="47.83311" lon="-4.20708">
        <ele>12</ele>
        <time>2022-12-28T18:01:51.659Z</time>
      </trkpt>
      <trkpt lat="47.83358" lon="-4.20732">
        <ele>12</ele>
        <time>2022-12-28T18:02:06.663Z</time>
      </trkpt>
      <trkpt lat="47.83367" lon="-4.2074">
        <ele>12</ele>
        <time>2022-12-28T18:02:21.668Z</time>
      </trkpt>
      <trkpt lat="47.83367" lon="-4.2074">
        <ele>12</ele>
        <time>2022-12-28T18:02:36.673Z</time>
      </trkpt>
      <trkpt lat="47.83427" lon="-4.20769">
        <ele>12</ele>
        <time>2022-12-28T18:02:51.689Z</time>
      </trkpt>
      <trkpt lat="47.83482" lon="-4.20796">
        <ele>12</ele>
        <time>2022-12-28T18:03:06.714Z</time>
      </trkpt>
      <trkpt lat="47.83489" lon="-4.20771">
        <ele>12</ele>
        <time>2022-12-28T18:03:21.742Z</time>
      </trkpt>
      <trkpt lat="47.83497" lon="-4.20717">
        <ele>12</ele>
        <time>2022-12-28T18:03:36.775Z</time>
      </trkpt>
      <trkpt lat="47.83483" lon="-4.20663">
        <ele>12</ele>
        <time>2022-12-28T18:03:51.815Z</time>
      </trkpt>
      <trkpt lat="47.83493" lon="-4.20573">
        <ele>12</ele>
        <time>2022-12-28T18:04:06.865Z</time>
      </trkpt>
      <trkpt lat="47.83498" lon="-4.20456">
        <ele>13</ele>
        <time>2022-12-28T18:04:21.927Z</time>
      </trkpt>
      <trkpt lat="47.83518" lon="-4.20408">
        <ele>13</ele>
        <time>2022-12-28T18:04:36.995Z</time>
      </trkpt>
      <trkpt lat="47.83524" lon="-4.20407">
        <ele>13</ele>
        <time>2022-12-28T18:04:52.064Z</time>
      </trkpt>
      <trkpt lat="47.83539" lon="-4.20403">
        <ele>13</ele>
        <time>2022-12-28T18:05:07.136Z</time>
      </trkpt>
      <trkpt lat="47.83558" lon="-4.20397">
        <ele>13</ele>
        <time>2022-12-28T18:05:22.211Z</time>
      </trkpt>
      <trkpt lat="47.83558" lon="-4.20397">
        <ele>13</ele>
        <time>2022-12-28T18:05:37.286Z</time>
      </trkpt>
      <trkpt lat="47.83592" lon="-4.20388">
        <ele>13</ele>
        <time>2022-12-28T18:05:52.366Z</time>
      </trkpt>
      <trkpt lat="47.83594" lon="-4.20352">
        <ele>13</ele>
        <time>2022-12-28T18:06:07.450Z</time>
      </trkpt>
      <trkpt lat="47.83594" lon="-4.20352">
        <ele>13</ele>
        <time>2022-12-28T18:06:22.534Z</time>
      </trkpt>
      <trkpt lat="47.83591" lon="-4.20335">
        <ele>13</ele>
        <time>2022-12-28T18:06:37.620Z</time>
      </trkpt>
      <trkpt lat="47.8358" lon="-4.20264">
        <ele>13</ele>
        <time>2022-12-28T18:06:52.714Z</time>
      </trkpt>
      <trkpt lat="47.83579" lon="-4.20263">
        <ele>13</ele>
        <time>2022-12-28T18:07:07.808Z</time>
      </trkpt>
      <trkpt lat="47.83567" lon="-4.202">
        <ele>13</ele>
        <time>2022-12-28T18:07:22.909Z</time>
      </trkpt>
      <trkpt lat="47.83548" lon="-4.20108">
        <ele>13</ele>
        <time>2022-12-28T18:07:38.021Z</time>
      </trkpt>
      <trkpt lat="47.83563" lon="-4.20114">
        <ele>13</ele>
        <time>2022-12-28T18:07:53.135Z</time>
      </trkpt>
      <trkpt lat="47.83629" lon="-4.20118">
        <ele>13</ele>
        <time>2022-12-28T18:08:08.260Z</time>
      </trkpt>
      <trkpt lat="47.83639" lon="-4.20114">
        <ele>13</ele>
        <time>2022-12-28T18:08:23.386Z</time>
      </trkpt>
      <trkpt lat="47.8365" lon="-4.2011">
        <ele>13</ele>
        <time>2022-12-28T18:08:38.514Z</time>
      </trkpt>
      <trkpt lat="47.83705" lon="-4.20092">
        <ele>13</ele>
        <time>2022-12-28T18:08:53.651Z</time>
      </trkpt>
      <trkpt lat="47.83756" lon="-4.20092">
        <ele>13</ele>
        <time>2022-12-28T18:09:08.796Z</time>
      </trkpt>
      <trkpt lat="47.83771" lon="-4.20092">
        <ele>13</ele>
        <time>2022-12-28T18:09:23.944Z</time>
      </trkpt>
      <trkpt lat="47.83799" lon="-4.20084">
        <ele>13</ele>
        <time>2022-12-28T18:09:39.096Z</time>
      </trkpt>
      <trkpt lat="47.83837" lon="-4.20068">
        <ele>13</ele>
        <time>2022-12-28T18:09:54.255Z</time>
      </trkpt>
      <trkpt lat="47.83863" lon="-4.20063">
        <ele>13</ele>
        <time>2022-12-28T18:10:09.418Z</time>
      </trkpt>
      <trkpt lat="47.83879" lon="-4.20052">
        <ele>13</ele>
        <time>2022-12-28T18:10:24.584Z</time>
      </trkpt>
      <trkpt lat="47.83891" lon="-4.20039">
        <ele>13</ele>
        <time>2022-12-28T18:10:39.752Z</time>
      </trkpt>
      <trkpt lat="47.83913" lon="-4.20014">
        <ele>13</ele>
        <time>2022-12-28T18:10:54.924Z</time>
      </trkpt>
      <trkpt lat="47.83935" lon="-4.19972">
        <ele>12</ele>
        <time>2022-12-28T18:11:10.102Z</time>
      </trkpt>
      <trkpt lat="47.83949" lon="-4.19959">
        <ele>12</ele>
        <time>2022-12-28T18:11:25.283Z</time>
      </trkpt>
      <trkpt lat="47.83956" lon="-4.19965">
        <ele>12</ele>
        <time>2022-12-28T18:11:40.465Z</time>
      </trkpt>
      <trkpt lat="47.83957" lon="-4.19968">
        <ele>12</ele>
        <time>2022-12-28T18:11:55.647Z</time>
      </trkpt>
      <trkpt lat="47.83962" lon="-4.1998">
        <ele>12</ele>
        <time>2022-12-28T18:12:10.831Z</time>
      </trkpt>
      <trkpt lat="47.83963" lon="-4.19984">
        <ele>12</ele>
        <time>2022-12-28T18:12:26.015Z</time>
      </trkpt>
      <trkpt lat="47.83971" lon="-4.20003">
        <ele>12</ele>
        <time>2022-12-28T18:12:41.202Z</time>
      </trkpt>
      <trkpt lat="47.83976" lon="-4.20026">
        <ele>12</ele>
        <time>2022-12-28T18:12:56.391Z</time>
      </trkpt>
      <trkpt lat="47.83976" lon="-4.20027">
        <ele>13</ele>
        <time>2022-12-28T18:13:11.581Z</time>
      </trkpt>
      <trkpt lat="47.83987" lon="-4.20078">
        <ele>13</ele>
        <time>2022-12-28T18:13:26.776Z</time>
      </trkpt>
      <trkpt lat="47.83996" lon="-4.20109">
        <ele>13</ele>
        <time>2022-12-28T18:13:41.975Z</time>
      </trkpt>
      <trkpt lat="47.84008" lon="-4.20139">
        <ele>13</ele>
        <time>2022-12-28T18:13:57.178Z</time>
      </trkpt>
      <trkpt lat="47.84032" lon="-4.20167">
        <ele>13</ele>
        <time>2022-12-28T18:14:12.385Z</time>
      </trkpt>
      <trkpt lat="47.84038" lon="-4.20174">
        <ele>13</ele>
        <time>2022-12-28T18:14:27.594Z</time>
      </trkpt>
      <trkpt lat="47.84044" lon="-4.20181">
        <ele>13</ele>
        <time>2022-12-28T18:14:42.804Z</time>
      </trkpt>
      <trkpt lat="47.84064" lon="-4.20214">
        <ele>13</ele>
        <time>2022-12-28T18:14:58.019Z</time>
      </trkpt>
      <trkpt lat="47.8407" lon="-4.20218">
        <ele>13</ele>
        <time>2022-12-28T18:15:13.235Z</time>
      </trkpt>
      <trkpt lat="47.84081" lon="-4.20226">
        <ele>13</ele>
        <time>2022-12-28T18:15:28.453Z</time>
      </trkpt>
      <trkpt lat="47.84123" lon="-4.20244">
        <ele>13</ele>
        <time>2022-12-28T18:15:43.678Z</time>
      </trkpt>
      <trkpt lat="47.8413" lon="-4.20246">
        <ele>13</ele>
        <time>2022-12-28T18:15:58.904Z</time>
      </trkpt>
      <trkpt lat="47.84153" lon="-4.20254">
        <ele>13</ele>
        <time>2022-12-28T18:16:14.134Z</time>
      </trkpt>
      <trkpt lat="47.84163" lon="-4.20254">
        <ele>14</ele>
        <time>2022-12-28T18:16:29.365Z</time>
      </trkpt>
      <trkpt lat="47.84163" lon="-4.20254">
        <ele>14</ele>
        <time>2022-12-28T18:16:44.596Z</time>
      </trkpt>
      <trkpt lat="47.84164" lon="-4.20254">
        <ele>14</ele>
        <time>2022-12-28T18:16:59.828Z</time>
      </trkpt>
      <trkpt lat="47.84225" lon="-4.20255">
        <ele>14</ele>
        <time>2022-12-28T18:17:15.069Z</time>
      </trkpt>
      <trkpt lat="47.84242" lon="-4.20263">
        <ele>14</ele>
        <time>2022-12-28T18:17:30.313Z</time>
      </trkpt>
      <trkpt lat="47.84257" lon="-4.20278">
        <ele>14</ele>
        <time>2022-12-28T18:17:45.560Z</time>
      </trkpt>
      <trkpt lat="47.84278" lon="-4.20293">
        <ele>14</ele>
        <time>2022-12-28T18:18:00.811Z</time>
      </trkpt>
      <trkpt lat="47.84278" lon="-4.20293">
        <ele>14</ele>
        <time>2022-12-28T18:18:16.062Z</time>
      </trkpt>
      <trkpt lat="47.84278" lon="-4.20293">
        <ele>14</ele>
        <time>2022-12-28T18:18:31.313Z</time>
      </trkpt>
      <trkpt lat="47.84317" lon="-4.20324">
        <ele>14</ele>
        <time>2022-12-28T18:18:46.571Z</time>
      </trkpt>
      <trkpt lat="47.84322" lon="-4.20327">
        <ele>14</ele>
        <time>2022-12-28T18:19:01.830Z</time>
      </trkpt>
      <trkpt lat="47.84364" lon="-4.20373">
        <ele>14</ele>
        <time>2022-12-28T18:19:17.097Z</time>
      </trkpt>
      <trkpt lat="47.84403" lon="-4.20417">
        <ele>15</ele>
        <time>2022-12-28T18:19:32.372Z</time>
      </trkpt>
      <trkpt lat="47.8444" lon="-4.20437">
        <ele>15</ele>
        <time>2022-12-28T18:19:47.653Z</time>
      </trkpt>
      <trkpt lat="47.84445" lon="-4.20441">
        <ele>15</ele>
        <time>2022-12-28T18:20:02.935Z</time>
      </trkpt>
      <trkpt lat="47.84477" lon="-4.20461">
        <ele>15</ele>
        <time>2022-12-28T18:20:18.223Z</time>
      </trkpt>
      <trkpt lat="47.84477" lon="-4.20461">
        <ele>15</ele>
        <time>2022-12-28T18:20:33.511Z</time>
      </trkpt>
      <trkpt lat="47.8451" lon="-4.20482">
        <ele>15</ele>
        <time>2022-12-28T18:20:48.804Z</time>
      </trkpt>
      <trkpt lat="47.84526" lon="-4.20492">
        <ele>15</ele>
        <time>2022-12-28T18:21:04.100Z</time>
      </trkpt>
      <trkpt lat="47.84572" lon="-4.20525">
        <ele>15</ele>
        <time>2022-12-28T18:21:19.404Z</time>
      </trkpt>
      <trkpt lat="47.84585" lon="-4.20538">
        <ele>15</ele>
        <time>2022-12-28T18:21:34.711Z</time>
      </trkpt>
      <trkpt lat="47.84589" lon="-4.20541">
        <ele>15</ele>
        <time>2022-12-28T18:21:50.019Z</time>
      </trkpt>
      <trkpt lat="47.84625" lon="-4.20568">
        <ele>15</ele>
        <time>2022-12-28T18:22:05.333Z</time>
      </trkpt>
      <trkpt lat="47.84649" lon="-4.20585">
        <ele>15</ele>
        <time>2022-12-28T18:22:20.651Z</time>
      </trkpt>
      <trkpt lat="47.84654" lon="-4.20588">
        <ele>15</ele>
        <time>2022-12-28T18:22:35.970Z</time>
      </trkpt>
      <trkpt lat="47.84659" lon="-4.20592">
        <ele>16</ele>
        <time>2022-12-28T18:22:51.290Z</time>
      </trkpt>
      <trkpt lat="47.8467" lon="-4.206">
        <ele>16</ele>
        <time>2022-12-28T18:23:06.612Z</time>
      </trkpt>
      <trkpt lat="47.847" lon="-4.20606">
        <ele>16</ele>
        <time>2022-12-28T18:23:21.939Z</time>
      </trkpt>
      <trkpt lat="47.84725" lon="-4.20622">
        <ele>16</ele>
        <time>2022-12-28T18:23:37.270Z</time>
      </trkpt>
      <trkpt lat="47.84754" lon="-4.20647">
        <ele>16</ele>
        <time>2022-12-28T18:23:52.607Z</time>
      </trkpt>
      <trkpt lat="47.8477" lon="-4.20661">
        <ele>16</ele>
        <time>2022-12-28T18:24:07.947Z</time>
      </trkpt>
      <trkpt lat="47.84774" lon="-4.20682">
        <ele>16</ele>
        <time>2022-12-28T18:24:23.289Z</time>
      </trkpt>
      <trkpt lat="47.84774" lon="-4.20686">
        <ele>16</ele>
        <time>2022-12-28T18:24:38.631Z</time>
      </trkpt>
      <trkpt lat="47.84772" lon="-4.207">
        <ele>16</ele>
        <time>2022-12-28T18:24:53.975Z</time>
      </trkpt>
      <trkpt lat="47.84771" lon="-4.20706">
        <ele>16</ele>
        <time>2022-12-28T18:25:09.320Z</time>
      </trkpt>
      <trkpt lat="47.84756" lon="-4.20745">
        <ele>16</ele>
        <time>2022-12-28T18:25:24.669Z</time>
      </trkpt>
      <trkpt lat="47.84755" lon="-4.20769">
        <ele>16</ele>
        <time>2022-12-28T18:25:40.021Z</time>
      </trkpt>
      <trkpt lat="47.84758" lon="-4.20776">
        <ele>16</ele>
        <time>2022-12-28T18:25:55.374Z</time>
      </trkpt>
      <trkpt lat="47.84821" lon="-4.2083">
        <ele>17</ele>
        <time>2022-12-28T18:26:10.739Z</time>
      </trkpt>
      <trkpt lat="47.84826" lon="-4.20836">
        <ele>17</ele>
        <time>2022-12-28T18:26:26.105Z</time>
      </trkpt>
      <trkpt lat="47.84842" lon="-4.20845">
        <ele>17</ele>
        <time>2022-12-28T18:26:41.473Z</time>
      </trkpt>
      <trkpt lat="47.84851" lon="-4.20858">
        <ele>17</ele>
        <time>2022-12-28T18:26:56.843Z</time>
      </trkpt>
      <trkpt lat="47.84863" lon="-4.20867">
        <ele>17</ele>
        <time>2022-12-28T18:27:12.215Z</time>
      </trkpt>
      <trkpt lat="47.84876" lon="-4.20878">
        <ele>17</ele>
        <time>2022-12-28T18:27:27.590Z</time>
      </trkpt>
      <trkpt lat="47.8489" lon="-4.20892">
        <ele>17</ele>
        <time>2022-12-28T18:27:42.968Z</time>
      </trkpt>
      <trkpt lat="47.84897" lon="-4.20899">
        <ele>17</ele>
        <time>2022-12-28T18:27:58.347Z</time>
      </trkpt>
      <trkpt lat="47.84901" lon="-4.209">
        <ele>17</ele>
        <time>2022-12-28T18:28:13.727Z</time>
      </trkpt>
      <trkpt lat="47.84906" lon="-4.20901">
        <ele>17</ele>
        <time>2022-12-28T18:28:29.107Z</time>
      </trkpt>
      <trkpt lat="47.84928" lon="-4.20919">
        <ele>17</ele>
        <time>2022-12-28T18:28:44.491Z</time>
      </trkpt>
      <trkpt lat="47.84954" lon="-4.20936">
        <ele>17</ele>
        <time>2022-12-28T18:28:59.880Z</time>
      </trkpt>
      <trkpt lat="47.8497" lon="-4.20945">
        <ele>17</ele>
        <time>2022-12-28T18:29:15.272Z</time>
      </trkpt>
      <trkpt lat="47.8498" lon="-4.20955">
        <ele>17</ele>
        <time>2022-12-28T18:29:30.666Z</time>
      </trkpt>
      <trkpt lat="47.85001" lon="-4.20986">
        <ele>17</ele>
        <time>2022-12-28T18:29:46.064Z</time>
      </trkpt>
      <trkpt lat="47.85029" lon="-4.21008">
        <ele>17</ele>
        <time>2022-12-28T18:30:01.467Z</time>
      </trkpt>
      <trkpt lat="47.85033" lon="-4.21009">
        <ele>17</ele>
        <time>2022-12-28T18:30:16.871Z</time>
      </trkpt>
      <trkpt lat="47.85041" lon="-4.2101">
        <ele>17</ele>
        <time>2022-12-28T18:30:32.276Z</time>
      </trkpt>
      <trkpt lat="47.85045" lon="-4.2101">
        <ele>17</ele>
        <time>2022-12-28T18:30:47.682Z</time>
      </trkpt>
      <trkpt lat="47.85059" lon="-4.2101">
        <ele>17</ele>
        <time>2022-12-28T18:31:03.090Z</time>
      </trkpt>
      <trkpt lat="47.85093" lon="-4.21005">
        <ele>17</ele>
        <time>2022-12-28T18:31:18.504Z</time>
      </trkpt>
      <trkpt lat="47.85104" lon="-4.21007">
        <ele>17</ele>
        <time>2022-12-28T18:31:33.920Z</time>
      </trkpt>
      <trkpt lat="47.85118" lon="-4.21006">
        <ele>17</ele>
        <time>2022-12-28T18:31:49.338Z</time>
      </trkpt>
      <trkpt lat="47.85139" lon="-4.21004">
        <ele>18</ele>
        <time>2022-12-28T18:32:04.759Z</time>
      </trkpt>
      <trkpt lat="47.85144" lon="-4.21001">
        <ele>18</ele>
        <time>2022-12-28T18:32:20.181Z</time>
      </trkpt>
      <trkpt lat="47.85144" lon="-4.21001">
        <ele>18</ele>
        <time>2022-12-28T18:32:35.603Z</time>
      </trkpt>
      <trkpt lat="47.85151" lon="-4.20995">
        <ele>18</ele>
        <time>2022-12-28T18:32:51.026Z</time>
      </trkpt>
      <trkpt lat="47.85151" lon="-4.20995">
        <ele>18</ele>
        <time>2022-12-28T18:33:06.449Z</time>
      </trkpt>
      <trkpt lat="47.85151" lon="-4.20994">
        <ele>18</ele>
        <time>2022-12-28T18:33:21.872Z</time>
      </trkpt>
      <trkpt lat="47.85156" lon="-4.20981">
        <ele>17</ele>
        <time>2022-12-28T18:33:37.297Z</time>
      </trkpt>
      <trkpt lat="47.85178" lon="-4.20951">
        <ele>17</ele>
        <time>2022-12-28T18:33:52.727Z</time>
      </trkpt>
      <trkpt lat="47.85187" lon="-4.20939">
        <ele>17</ele>
        <time>2022-12-28T18:34:08.159Z</time>
      </trkpt>
      <trkpt lat="47.85196" lon="-4.20927">
        <ele>17</ele>
        <time>2022-12-28T18:34:23.593Z</time>
      </trkpt>
      <trkpt lat="47.85208" lon="-4.20906">
        <ele>17</ele>
        <time>2022-12-28T18:34:39.030Z</time>
      </trkpt>
      <trkpt lat="47.85224" lon="-4.20866">
        <ele>17</ele>
        <time>2022-12-28T18:34:54.472Z</time>
      </trkpt>
      <trkpt lat="47.85227" lon="-4.20858">
        <ele>17</ele>
        <time>2022-12-28T18:35:09.915Z</time>
      </trkpt>
      <trkpt lat="47.85241" lon="-4.20821">
        <ele>17</ele>
        <time>2022-12-28T18:35:25.362Z</time>
      </trkpt>
      <trkpt lat="47.85241" lon="-4.20821">
        <ele>17</ele>
        <time>2022-12-28T18:35:40.809Z</time>
      </trkpt>
      <trkpt lat="47.85241" lon="-4.2082">
        <ele>17</ele>
        <time>2022-12-28T18:35:56.256Z</time>
      </trkpt>
      <trkpt lat="47.85241" lon="-4.2082">
        <ele>17</ele>
        <time>2022-12-28T18:36:11.703Z</time>
      </trkpt>
      <trkpt lat="47.85253" lon="-4.2079">
        <ele>17</ele>
        <time>2022-12-28T18:36:27.154Z</time>
      </trkpt>
      <trkpt lat="47.85271" lon="-4.20765">
        <ele>17</ele>
        <time>2022-12-28T18:36:42.609Z</time>
      </trkpt>
      <trkpt lat="47.85286" lon="-4.20743">
        <ele>17</ele>
        <time>2022-12-28T18:36:58.067Z</time>
      </trkpt>
      <trkpt lat="47.85303" lon="-4.20709">
        <ele>17</ele>
        <time>2022-12-28T18:37:13.530Z</time>
      </trkpt>
      <trkpt lat="47.85318" lon="-4.20668">
        <ele>17</ele>
        <time>2022-12-28T18:37:28.998Z</time>
      </trkpt>
      <trkpt lat="47.85342" lon="-4.20602">
        <ele>17</ele>
        <time>2022-12-28T18:37:44.474Z</time>
      </trkpt>
      <trkpt lat="47.85344" lon="-4.20596">
        <ele>16</ele>
        <time>2022-12-28T18:37:59.951Z</time>
      </trkpt>
      <trkpt lat="47.85354" lon="-4.20576">
        <ele>16</ele>
        <time>2022-12-28T18:38:15.431Z</time>
      </trkpt>
      <trkpt lat="47.8536" lon="-4.20565">
        <ele>16</ele>
        <time>2022-12-28T18:38:30.912Z</time>
      </trkpt>
      <trkpt lat="47.85363" lon="-4.20555">
        <ele>16</ele>
        <time>2022-12-28T18:38:46.394Z</time>
      </trkpt>
      <trkpt lat="47.85368" lon="-4.20549">
        <ele>16</ele>
        <time>2022-12-28T18:39:01.877Z</time>
      </trkpt>
      <trkpt lat="47.85372" lon="-4.20541">
        <ele>16</ele>
        <time>2022-12-28T18:39:17.361Z</time>
      </trkpt>
      <trkpt lat="47.85466" lon="-4.20715">
        <ele>16</ele>
        <time>2022-12-28T18:39:32.869Z</time>
      </trkpt>
      <trkpt lat="47.85501" lon="-4.20774">
        <ele>16</ele>
        <time>2022-12-28T18:39:48.386Z</time>
      </trkpt>
      <trkpt lat="47.85501" lon="-4.20774">
        <ele>16</ele>
        <time>2022-12-28T18:40:03.903Z</time>
      </trkpt>
      <trkpt lat="47.85506" lon="-4.20784">
        <ele>16</ele>
        <time>2022-12-28T18:40:19.421Z</time>
      </trkpt>
      <trkpt lat="47.85518" lon="-4.20803">
        <ele>16</ele>
        <time>2022-12-28T18:40:34.942Z</time>
      </trkpt>
      <trkpt lat="47.85533" lon="-4.20828">
        <ele>16</ele>
        <time>2022-12-28T18:40:50.467Z</time>
      </trkpt>
      <trkpt lat="47.85544" lon="-4.20846">
        <ele>16</ele>
        <time>2022-12-28T18:41:05.994Z</time>
      </trkpt>
      <trkpt lat="47.85575" lon="-4.20882">
        <ele>15</ele>
        <time>2022-12-28T18:41:21.527Z</time>
      </trkpt>
      <trkpt lat="47.85593" lon="-4.20906">
        <ele>15</ele>
        <time>2022-12-28T18:41:37.064Z</time>
      </trkpt>
      <trkpt lat="47.85593" lon="-4.20906">
        <ele>15</ele>
        <time>2022-12-28T18:41:52.601Z</time>
      </trkpt>
      <trkpt lat="47.85608" lon="-4.20927">
        <ele>15</ele>
        <time>2022-12-28T18:42:08.142Z</time>
      </trkpt>
      <trkpt lat="47.85627" lon="-4.20964">
        <ele>15</ele>
        <time>2022-12-28T18:42:23.688Z</time>
      </trkpt>
      <trkpt lat="47.85627" lon="-4.20964">
        <ele>15</ele>
        <time>2022-12-28T18:42:39.234Z</time>
      </trkpt>
      <trkpt lat="47.85639" lon="-4.2099">
        <ele>15</ele>
        <time>2022-12-28T18:42:54.783Z</time>
      </trkpt>
      <trkpt lat="47.85648" lon="-4.21018">
        <ele>15</ele>
        <time>2022-12-28T18:43:10.335Z</time>
      </trkpt>
      <trkpt lat="47.85659" lon="-4.21034">
        <ele>15</ele>
        <time>2022-12-28T18:43:25.890Z</time>
      </trkpt>
      <trkpt lat="47.8571" lon="-4.21121">
        <ele>15</ele>
        <time>2022-12-28T18:43:41.457Z</time>
      </trkpt>
      <trkpt lat="47.85723" lon="-4.21146">
        <ele>15</ele>
        <time>2022-12-28T18:43:57.028Z</time>
      </trkpt>
      <trkpt lat="47.85737" lon="-4.21171">
        <ele>15</ele>
        <time>2022-12-28T18:44:12.602Z</time>
      </trkpt>
      <trkpt lat="47.85752" lon="-4.21202">
        <ele>15</ele>
        <time>2022-12-28T18:44:28.180Z</time>
      </trkpt>
      <trkpt lat="47.8578" lon="-4.2127">
        <ele>15</ele>
        <time>2022-12-28T18:44:43.767Z</time>
      </trkpt>
      <trkpt lat="47.85796" lon="-4.2131">
        <ele>15</ele>
        <time>2022-12-28T18:44:59.359Z</time>
      </trkpt>
      <trkpt lat="47.85819" lon="-4.21374">
        <ele>14</ele>
        <time>2022-12-28T18:45:14.959Z</time>
      </trkpt>
      <trkpt lat="47.85826" lon="-4.21391">
        <ele>14</ele>
        <time>2022-12-28T18:45:30.561Z</time>
      </trkpt>
      <trkpt lat="47.85837" lon="-4.21417">
        <ele>14</ele>
        <time>2022-12-28T18:45:46.166Z</time>
      </trkpt>
      <trkpt lat="47.8587" lon="-4.2149">
        <ele>14</ele>
        <time>2022-12-28T18:46:01.781Z</time>
      </trkpt>
      <trkpt lat="47.85872" lon="-4.2149">
        <ele>14</ele>
        <time>2022-12-28T18:46:17.396Z</time>
      </trkpt>
      <trkpt lat="47.85909" lon="-4.21489">
        <ele>14</ele>
        <time>2022-12-28T18:46:33.017Z</time>
      </trkpt>
      <trkpt lat="47.85934" lon="-4.21493">
        <ele>14</ele>
        <time>2022-12-28T18:46:48.642Z</time>
      </trkpt>
      <trkpt lat="47.85954" lon="-4.215">
        <ele>14</ele>
        <time>2022-12-28T18:47:04.270Z</time>
      </trkpt>
      <trkpt lat="47.8599" lon="-4.21524">
        <ele>14</ele>
        <time>2022-12-28T18:47:19.905Z</time>
      </trkpt>
      <trkpt lat="47.85992" lon="-4.21519">
        <ele>14</ele>
        <time>2022-12-28T18:47:35.540Z</time>
      </trkpt>
      <trkpt lat="47.86014" lon="-4.21468">
        <ele>14</ele>
        <time>2022-12-28T18:47:51.182Z</time>
      </trkpt>
      <trkpt lat="47.86023" lon="-4.2145">
        <ele>14</ele>
        <time>2022-12-28T18:48:06.826Z</time>
      </trkpt>
      <trkpt lat="47.86023" lon="-4.2145">
        <ele>14</ele>
        <time>2022-12-28T18:48:22.470Z</time>
      </trkpt>
      <trkpt lat="47.86039" lon="-4.21422">
        <ele>14</ele>
        <time>2022-12-28T18:48:38.118Z</time>
      </trkpt>
      <trkpt lat="47.86041" lon="-4.21417">
        <ele>14</ele>
        <time>2022-12-28T18:48:53.767Z</time>
      </trkpt>
      <trkpt lat="47.86052" lon="-4.21391">
        <ele>14</ele>
        <time>2022-12-28T18:49:09.419Z</time>
      </trkpt>
      <trkpt lat="47.86093" lon="-4.21419">
        <ele>14</ele>
        <time>2022-12-28T18:49:25.078Z</time>
      </trkpt>
      <trkpt lat="47.86112" lon="-4.21422">
        <ele>14</ele>
        <time>2022-12-28T18:49:40.740Z</time>
      </trkpt>
      <trkpt lat="47.86108" lon="-4.21401">
        <ele>14</ele>
        <time>2022-12-28T18:49:56.405Z</time>
      </trkpt>
      <trkpt lat="47.86117" lon="-4.21382">
        <ele>14</ele>
        <time>2022-12-28T18:50:12.072Z</time>
      </trkpt>
      <trkpt lat="47.86149" lon="-4.21343">
        <ele>14</ele>
        <time>2022-12-28T18:50:27.746Z</time>
      </trkpt>
      <trkpt lat="47.86151" lon="-4.21338">
        <ele>14</ele>
        <time>2022-12-28T18:50:43.421Z</time>
      </trkpt>
      <trkpt lat="47.86152" lon="-4.21337">
        <ele>14</ele>
        <time>2022-12-28T18:50:59.096Z</time>
      </trkpt>
      <trkpt lat="47.86166" lon="-4.21327">
        <ele>14</ele>
        <time>2022-12-28T18:51:14.773Z</time>
      </trkpt>
      <trkpt lat="47.86176" lon="-4.21325">
        <ele>14</ele>
        <time>2022-12-28T18:51:30.452Z</time>
      </trkpt>
      <trkpt lat="47.86192" lon="-4.21331">
        <ele>13</ele>
        <time>2022-12-28T18:51:46.133Z</time>
      </trkpt>
      <trkpt lat="47.86215" lon="-4.2134">
        <ele>13</ele>
        <time>2022-12-28T18:52:01.818Z</time>
      </trkpt>
      <trkpt lat="47.86227" lon="-4.21318">
        <ele>13</ele>
        <time>2022-12-28T18:52:17.506Z</time>
      </trkpt>
      <trkpt lat="47.86231" lon="-4.21313">
        <ele>13</ele>
        <time>2022-12-28T18:52:33.195Z</time>
      </trkpt>
      <trkpt lat="47.86249" lon="-4.21304">
        <ele>13</ele>
        <time>2022-12-28T18:52:48.887Z</time>
      </trkpt>
      <trkpt lat="47.86249" lon="-4.21304">
        <ele>13</ele>
        <time>2022-12-28T18:53:04.579Z</time>
      </trkpt>
      <trkpt lat="47.86252" lon="-4.21343">
        <ele>13</ele>
        <time>2022-12-28T18:53:20.275Z</time>
      </trkpt>
      <trkpt lat="47.86254" lon="-4.2135">
        <ele>13</ele>
        <time>2022-12-28T18:53:35.972Z</time>
      </trkpt>
      <trkpt lat="47.86259" lon="-4.21355">
        <ele>13</ele>
        <time>2022-12-28T18:53:51.670Z</time>
      </trkpt>
      <trkpt lat="47.86265" lon="-4.2136">
        <ele>12</ele>
        <time>2022-12-28T18:54:07.369Z</time>
      </trkpt>
      <trkpt lat="47.86268" lon="-4.21362">
        <ele>12</ele>
        <time>2022-12-28T18:54:23.069Z</time>
      </trkpt>
      <trkpt lat="47.86284" lon="-4.21371">
        <ele>12</ele>
        <time>2022-12-28T18:54:38.771Z</time>
      </trkpt>
      <trkpt lat="47.86313" lon="-4.21384">
        <ele>12</ele>
        <time>2022-12-28T18:54:54.478Z</time>
      </trkpt>
      <trkpt lat="47.86338" lon="-4.21392">
        <ele>11</ele>
        <time>2022-12-28T18:55:10.189Z</time>
      </trkpt>
      <trkpt lat="47.86364" lon="-4.21408">
        <ele>11</ele>
        <time>2022-12-28T18:55:25.905Z</time>
      </trkpt>
      <trkpt lat="47.86414" lon="-4.21437">
        <ele>11</ele>
        <time>2022-12-28T18:55:41.630Z</time>
      </trkpt>
      <trkpt lat="47.86414" lon="-4.21437">
        <ele>11</ele>
        <time>2022-12-28T18:55:57.355Z</time>
      </trkpt>
      <trkpt lat="47.86464" lon="-4.21465">
        <ele>10</ele>
        <time>2022-12-28T18:56:13.088Z</time>
      </trkpt>
      <trkpt lat="47.86481" lon="-4.21473">
        <ele>10</ele>
        <time>2022-12-28T18:56:28.824Z</time>
      </trkpt>
      <trkpt lat="47.86525" lon="-4.21492">
        <ele>10</ele>
        <time>2022-12-28T18:56:44.567Z</time>
      </trkpt>
      <trkpt lat="47.86563" lon="-4.21503">
        <ele>9</ele>
        <time>2022-12-28T18:57:00.316Z</time>
      </trkpt>
      <trkpt lat="47.8658" lon="-4.21497">
        <ele>9</ele>
        <time>2022-12-28T18:57:16.068Z</time>
      </trkpt>
      <trkpt lat="47.86584" lon="-4.21492">
        <ele>9</ele>
        <time>2022-12-28T18:57:31.821Z</time>
      </trkpt>
      <trkpt lat="47.8659" lon="-4.21481">
        <ele>8</ele>
        <time>2022-12-28T18:57:47.576Z</time>
      </trkpt>
      <trkpt lat="47.86602" lon="-4.21479">
        <ele>8</ele>
        <time>2022-12-28T18:58:03.333Z</time>
      </trkpt>
      <trkpt lat="47.86602" lon="-4.21506">
        <ele>8</ele>
        <time>2022-12-28T18:58:19.092Z</time>
      </trkpt>
      <trkpt lat="47.86602" lon="-4.21506">
        <ele>8</ele>
        <time>2022-12-28T18:58:34.851Z</time>
      </trkpt>
      <trkpt lat="47.86602" lon="-4.21524">
        <ele>8</ele>
        <time>2022-12-28T18:58:50.612Z</time>
      </trkpt>
      <trkpt lat="47.86603" lon="-4.21599">
        <ele>7</ele>
        <time>2022-12-28T18:59:06.381Z</time>
      </trkpt>
      <trkpt lat="47.86603" lon="-4.216">
        <ele>7</ele>
        <time>2022-12-28T18:59:22.151Z</time>
      </trkpt>
      <trkpt lat="47.86604" lon="-4.21623">
        <ele>7</ele>
        <time>2022-12-28T18:59:37.923Z</time>
      </trkpt>
      <trkpt lat="47.86615" lon="-4.21645">
        <ele>7</ele>
        <time>2022-12-28T18:59:53.698Z</time>
      </trkpt>
      <trkpt lat="47.86615" lon="-4.21646">
        <ele>7</ele>
        <time>2022-12-28T19:00:09.473Z</time>
      </trkpt>
      <trkpt lat="47.86616" lon="-4.21647">
        <ele>6</ele>
        <time>2022-12-28T19:00:25.248Z</time>
      </trkpt>
      <trkpt lat="47.86647" lon="-4.21708">
        <ele>6</ele>
        <time>2022-12-28T19:00:41.031Z</time>
      </trkpt>
      <trkpt lat="47.86654" lon="-4.21722">
        <ele>6</ele>
        <time>2022-12-28T19:00:56.816Z</time>
      </trkpt>
      <trkpt lat="47.86662" lon="-4.21736">
        <ele>6</ele>
        <time>2022-12-28T19:01:12.603Z</time>
      </trkpt>
      <trkpt lat="47.86689" lon="-4.21787">
        <ele>6</ele>
        <time>2022-12-28T19:01:28.397Z</time>
      </trkpt>
      <trkpt lat="47.86689" lon="-4.21787">
        <ele>5</ele>
        <time>2022-12-28T19:01:44.191Z</time>
      </trkpt>
      <trkpt lat="47.86716" lon="-4.21839">
        <ele>5</ele>
        <time>2022-12-28T19:01:59.992Z</time>
      </trkpt>
      <trkpt lat="47.8672" lon="-4.21846">
        <ele>5</ele>
        <time>2022-12-28T19:02:15.794Z</time>
      </trkpt>
      <trkpt lat="47.8672" lon="-4.21846">
        <ele>5</ele>
        <time>2022-12-28T19:02:31.596Z</time>
      </trkpt>
      <trkpt lat="47.86728" lon="-4.21862">
        <ele>5</ele>
        <time>2022-12-28T19:02:47.401Z</time>
      </trkpt>
      <trkpt lat="47.86731" lon="-4.21875">
        <ele>5</ele>
        <time>2022-12-28T19:03:03.207Z</time>
      </trkpt>
      <trkpt lat="47.86735" lon="-4.21892">
        <ele>5</ele>
        <time>2022-12-28T19:03:19.015Z</time>
      </trkpt>
      <trkpt lat="47.86735" lon="-4.2191">
        <ele>5</ele>
        <time>2022-12-28T19:03:34.825Z</time>
      </trkpt>
      <trkpt lat="47.86735" lon="-4.21915">
        <ele>5</ele>
        <time>2022-12-28T19:03:50.635Z</time>
      </trkpt>
      <trkpt lat="47.86735" lon="-4.21928">
        <ele>4</ele>
        <time>2022-12-28T19:04:06.447Z</time>
      </trkpt>
      <trkpt lat="47.86735" lon="-4.21948">
        <ele>4</ele>
        <time>2022-12-28T19:04:22.261Z</time>
      </trkpt>
      <trkpt lat="47.86736" lon="-4.21974">
        <ele>4</ele>
        <time>2022-12-28T19:04:38.078Z</time>
      </trkpt>
      <trkpt lat="47.86736" lon="-4.21999">
        <ele>4</ele>
        <time>2022-12-28T19:04:53.897Z</time>
      </trkpt>
      <trkpt lat="47.86736" lon="-4.22">
        <ele>4</ele>
        <time>2022-12-28T19:05:09.717Z</time>
      </trkpt>
      <trkpt lat="47.86736" lon="-4.22005">
        <ele>4</ele>
        <time>2022-12-28T19:05:25.537Z</time>
      </trkpt>
      <trkpt lat="47.86735" lon="-4.22039">
        <ele>4</ele>
        <time>2022-12-28T19:05:41.361Z</time>
      </trkpt>
      <trkpt lat="47.86726" lon="-4.22119">
        <ele>4</ele>
        <time>2022-12-28T19:05:57.194Z</time>
      </trkpt>
      <trkpt lat="47.86726" lon="-4.22119">
        <ele>4</ele>
        <time>2022-12-28T19:06:13.027Z</time>
      </trkpt>
      <trkpt lat="47.86726" lon="-4.22121">
        <ele>4</ele>
        <time>2022-12-28T19:06:28.860Z</time>
      </trkpt>
      <trkpt lat="47.86724" lon="-4.22139">
        <ele>4</ele>
        <time>2022-12-28T19:06:44.695Z</time>
      </trkpt>
      <trkpt lat="47.86724" lon="-4.22139">
        <ele>4</ele>
        <time>2022-12-28T19:07:00.530Z</time>
      </trkpt>
      <trkpt lat="47.86723" lon="-4.22153">
        <ele>4</ele>
        <time>2022-12-28T19:07:16.366Z</time>
      </trkpt>
      <trkpt lat="47.8672" lon="-4.22197">
        <ele>4</ele>
        <time>2022-12-28T19:07:32.207Z</time>
      </trkpt>
      <trkpt lat="47.86719" lon="-4.22212">
        <ele>4</ele>
        <time>2022-12-28T19:07:48.050Z</time>
      </trkpt>
      <trkpt lat="47.86739" lon="-4.22216">
        <ele>4</ele>
        <time>2022-12-28T19:08:03.896Z</time>
      </trkpt>
      <trkpt lat="47.86743" lon="-4.22217">
        <ele>4</ele>
        <time>2022-12-28T19:08:19.743Z</time>
      </trkpt>
      <trkpt lat="47.86755" lon="-4.22219">
        <ele>4</ele>
        <time>2022-12-28T19:08:35.592Z</time>
      </trkpt>
      <trkpt lat="47.86786" lon="-4.22225">
        <ele>4</ele>
        <time>2022-12-28T19:08:51.446Z</time>
      </trkpt>
      <trkpt lat="47.8679" lon="-4.22201">
        <ele>4</ele>
        <time>2022-12-28T19:09:07.302Z</time>
      </trkpt>
      <trkpt lat="47.86793" lon="-4.22174">
        <ele>4</ele>
        <time>2022-12-28T19:09:23.161Z</time>
      </trkpt>
      <trkpt lat="47.86794" lon="-4.22164">
        <ele>4</ele>
        <time>2022-12-28T19:09:39.021Z</time>
      </trkpt>
      <trkpt lat="47.86786" lon="-4.22125">
        <ele>4</ele>
        <time>2022-12-28T19:09:54.886Z</time>
      </trkpt>
      <trkpt lat="47.86785" lon="-4.22124">
        <ele>4</ele>
        <time>2022-12-28T19:10:10.751Z</time>
      </trkpt>
      <trkpt lat="47.86785" lon="-4.22122">
        <ele>4</ele>
        <time>2022-12-28T19:10:26.616Z</time>
      </trkpt>
      <trkpt lat="47.86784" lon="-4.22064">
        <ele>5</ele>
        <time>2022-12-28T19:10:42.487Z</time>
      </trkpt>
      <trkpt lat="47.86787" lon="-4.22004">
        <ele>5</ele>
        <time>2022-12-28T19:10:58.365Z</time>
      </trkpt>
      <trkpt lat="47.8679" lon="-4.22005">
        <ele>5</ele>
        <time>2022-12-28T19:11:14.243Z</time>
      </trkpt>
      <trkpt lat="47.86792" lon="-4.21958">
        <ele>5</ele>
        <time>2022-12-28T19:11:30.126Z</time>
      </trkpt>
      <trkpt lat="47.86793" lon="-4.2194">
        <ele>5</ele>
        <time>2022-12-28T19:11:46.011Z</time>
      </trkpt>
      <trkpt lat="47.86795" lon="-4.21894">
        <ele>5</ele>
        <time>2022-12-28T19:12:01.901Z</time>
      </trkpt>
      <trkpt lat="47.86798" lon="-4.21895">
        <ele>5</ele>
        <time>2022-12-28T19:12:17.792Z</time>
      </trkpt>
      <trkpt lat="47.86799" lon="-4.21895">
        <ele>5</ele>
        <time>2022-12-28T19:12:33.683Z</time>
      </trkpt>
      <trkpt lat="47.86801" lon="-4.21896">
        <ele>5</ele>
        <time>2022-12-28T19:12:49.574Z</time>
      </trkpt>
      <trkpt lat="47.86867" lon="-4.21913">
        <ele>5</ele>
        <time>2022-12-28T19:13:05.476Z</time>
      </trkpt>
      <trkpt lat="47.86875" lon="-4.21907">
        <ele>6</ele>
        <time>2022-12-28T19:13:21.379Z</time>
      </trkpt>
      <trkpt lat="47.86876" lon="-4.21899">
        <ele>6</ele>
        <time>2022-12-28T19:13:37.283Z</time>
      </trkpt>
      <trkpt lat="47.86877" lon="-4.21871">
        <ele>6</ele>
        <time>2022-12-28T19:13:53.190Z</time>
      </trkpt>
      <trkpt lat="47.8688" lon="-4.21848">
        <ele>6</ele>
        <time>2022-12-28T19:14:09.100Z</time>
      </trkpt>
      <trkpt lat="47.86884" lon="-4.21824">
        <ele>6</ele>
        <time>2022-12-28T19:14:25.012Z</time>
      </trkpt>
      <trkpt lat="47.86888" lon="-4.21799">
        <ele>6</ele>
        <time>2022-12-28T19:14:40.927Z</time>
      </trkpt>
      <trkpt lat="47.86888" lon="-4.21798">
        <ele>6</ele>
        <time>2022-12-28T19:14:56.842Z</time>
      </trkpt>
      <trkpt lat="47.8689" lon="-4.21787">
        <ele>6</ele>
        <time>2022-12-28T19:15:12.758Z</time>
      </trkpt>
      <trkpt lat="47.86892" lon="-4.21782">
        <ele>6</ele>
        <time>2022-12-28T19:15:28.675Z</time>
      </trkpt>
      <trkpt lat="47.86899" lon="-4.21767">
        <ele>6</ele>
        <time>2022-12-28T19:15:44.594Z</time>
      </trkpt>
      <trkpt lat="47.86907" lon="-4.21759">
        <ele>6</ele>
        <time>2022-12-28T19:16:00.515Z</time>
      </trkpt>
      <trkpt lat="47.86918" lon="-4.21753">
        <ele>6</ele>
        <time>2022-12-28T19:16:16.437Z</time>
      </trkpt>
      <trkpt lat="47.86931" lon="-4.21752">
        <ele>6</ele>
        <time>2022-12-28T19:16:32.361Z</time>
      </trkpt>
      <trkpt lat="47.86931" lon="-4.21752">
        <ele>6</ele>
        <time>2022-12-28T19:16:48.285Z</time>
      </trkpt>
      <trkpt lat="47.86957" lon="-4.21754">
        <ele>6</ele>
        <time>2022-12-28T19:17:04.214Z</time>
      </trkpt>
      <trkpt lat="47.86957" lon="-4.21754">
        <ele>6</ele>
        <time>2022-12-28T19:17:20.143Z</time>
      </trkpt>
      <trkpt lat="47.86964" lon="-4.21755">
        <ele>6</ele>
        <time>2022-12-28T19:17:36.073Z</time>
      </trkpt>
      <trkpt lat="47.86996" lon="-4.21763">
        <ele>6</ele>
        <time>2022-12-28T19:17:52.008Z</time>
      </trkpt>
      <trkpt lat="47.87033" lon="-4.21766">
        <ele>6</ele>
        <time>2022-12-28T19:18:07.949Z</time>
      </trkpt>
      <trkpt lat="47.87034" lon="-4.2176">
        <ele>6</ele>
        <time>2022-12-28T19:18:23.891Z</time>
      </trkpt>
      <trkpt lat="47.87042" lon="-4.21717">
        <ele>6</ele>
        <time>2022-12-28T19:18:39.837Z</time>
      </trkpt>
      <trkpt lat="47.87051" lon="-4.21668">
        <ele>6</ele>
        <time>2022-12-28T19:18:55.789Z</time>
      </trkpt>
      <trkpt lat="47.87051" lon="-4.21667">
        <ele>6</ele>
        <time>2022-12-28T19:19:11.741Z</time>
      </trkpt>
      <trkpt lat="47.87058" lon="-4.21629">
        <ele>6</ele>
        <time>2022-12-28T19:19:27.697Z</time>
      </trkpt>
      <trkpt lat="47.87066" lon="-4.21598">
        <ele>5</ele>
        <time>2022-12-28T19:19:43.657Z</time>
      </trkpt>
      <trkpt lat="47.87087" lon="-4.21557">
        <ele>5</ele>
        <time>2022-12-28T19:19:59.622Z</time>
      </trkpt>
      <trkpt lat="47.87087" lon="-4.21556">
        <ele>5</ele>
        <time>2022-12-28T19:20:15.587Z</time>
      </trkpt>
      <trkpt lat="47.87087" lon="-4.21557">
        <ele>5</ele>
        <time>2022-12-28T19:20:31.553Z</time>
      </trkpt>
      <trkpt lat="47.87116" lon="-4.21502">
        <ele>5</ele>
        <time>2022-12-28T19:20:47.526Z</time>
      </trkpt>
      <trkpt lat="47.87113" lon="-4.21496">
        <ele>5</ele>
        <time>2022-12-28T19:21:03.500Z</time>
      </trkpt>
      <trkpt lat="47.87113" lon="-4.2149">
        <ele>5</ele>
        <time>2022-12-28T19:21:19.474Z</time>
      </trkpt>
      <trkpt lat="47.87118" lon="-4.21481">
        <ele>5</ele>
        <time>2022-12-28T19:21:35.450Z</time>
      </trkpt>
      <trkpt lat="47.87122" lon="-4.21479">
        <ele>5</ele>
        <time>2022-12-28T19:21:51.426Z</time>
      </trkpt>
      <trkpt lat="47.87122" lon="-4.2146">
        <ele>4</ele>
        <time>2022-12-28T19:22:07.404Z</time>
      </trkpt>
      <trkpt lat="47.87122" lon="-4.21456">
        <ele>4</ele>
        <time>2022-12-28T19:22:23.383Z</time>
      </trkpt>
      <trkpt lat="47.8714" lon="-4.21333">
        <ele>4</ele>
        <time>2022-12-28T19:22:39.375Z</time>
      </trkpt>
      <trkpt lat="47.87142" lon="-4.21319">
        <ele>4</ele>
        <time>2022-12-28T19:22:55.369Z</time>
      </trkpt>
      <trkpt lat="47.87145" lon="-4.21301">
        <ele>4</ele>
        <time>2022-12-28T19:23:11.365Z</time>
      </trkpt>
      <trkpt lat="47.87161" lon="-4.21187">
        <ele>4</ele>
        <time>2022-12-28T19:23:27.373Z</time>
      </trkpt>
      <trkpt lat="47.87167" lon="-4.21161">
        <ele>4</ele>
        <time>2022-12-28T19:23:43.384Z</time>
      </trkpt>
      <trkpt lat="47.87164" lon="-4.21143">
        <ele>4</ele>
        <time>2022-12-28T19:23:59.397Z</time>
      </trkpt>
      <trkpt lat="47.87164" lon="-4.21143">
        <ele>4</ele>
        <time>2022-12-28T19:24:15.410Z</time>
      </trkpt>
      <trkpt lat="47.87157" lon="-4.21035">
        <ele>4</ele>
        <time>2022-12-28T19:24:31.435Z</time>
      </trkpt>
      <trkpt lat="47.8715" lon="-4.20905">
        <ele>4</ele>
        <time>2022-12-28T19:24:47.474Z</time>
      </trkpt>
      <trkpt lat="47.87151" lon="-4.20845">
        <ele>4</ele>
        <time>2022-12-28T19:25:03.520Z</time>
      </trkpt>
      <trkpt lat="47.87151" lon="-4.20803">
        <ele>5</ele>
        <time>2022-12-28T19:25:19.570Z</time>
      </trkpt>
      <trkpt lat="47.87156" lon="-4.20673">
        <ele>5</ele>
        <time>2022-12-28T19:25:35.634Z</time>
      </trkpt>
      <trkpt lat="47.87157" lon="-4.20633">
        <ele>5</ele>
        <time>2022-12-28T19:25:51.703Z</time>
      </trkpt>
      <trkpt lat="47.87176" lon="-4.20605">
        <ele>5</ele>
        <time>2022-12-28T19:26:07.776Z</time>
      </trkpt>
      <trkpt lat="47.87196" lon="-4.20561">
        <ele>5</ele>
        <time>2022-12-28T19:26:23.854Z</time>
      </trkpt>
      <trkpt lat="47.87219" lon="-4.20493">
        <ele>5</ele>
        <time>2022-12-28T19:26:39.941Z</time>
      </trkpt>
      <trkpt lat="47.87236" lon="-4.20434">
        <ele>5</ele>
        <time>2022-12-28T19:26:56.035Z</time>
      </trkpt>
      <trkpt lat="47.87245" lon="-4.20403">
        <ele>6</ele>
        <time>2022-12-28T19:27:12.132Z</time>
      </trkpt>
      <trkpt lat="47.87251" lon="-4.20388">
        <ele>6</ele>
        <time>2022-12-28T19:27:28.231Z</time>
      </trkpt>
      <trkpt lat="47.87252" lon="-4.20387">
        <ele>6</ele>
        <time>2022-12-28T19:27:44.330Z</time>
      </trkpt>
      <trkpt lat="47.87295" lon="-4.20278">
        <ele>6</ele>
        <time>2022-12-28T19:28:00.443Z</time>
      </trkpt>
      <trkpt lat="47.87295" lon="-4.20278">
        <ele>7</ele>
        <time>2022-12-28T19:28:16.556Z</time>
      </trkpt>
      <trkpt lat="47.87302" lon="-4.20261">
        <ele>7</ele>
        <time>2022-12-28T19:28:32.671Z</time>
      </trkpt>
      <trkpt lat="47.87353" lon="-4.20299">
        <ele>8</ele>
        <time>2022-12-28T19:28:48.795Z</time>
      </trkpt>
      <trkpt lat="47.87362" lon="-4.20305">
        <ele>8</ele>
        <time>2022-12-28T19:29:04.921Z</time>
      </trkpt>
      <trkpt lat="47.87364" lon="-4.20307">
        <ele>9</ele>
        <time>2022-12-28T19:29:21.047Z</time>
      </trkpt>
      <trkpt lat="47.87434" lon="-4.20359">
        <ele>9</ele>
        <time>2022-12-28T19:29:37.186Z</time>
      </trkpt>
      <trkpt lat="47.87447" lon="-4.20348">
        <ele>10</ele>
        <time>2022-12-28T19:29:53.327Z</time>
      </trkpt>
      <trkpt lat="47.87514" lon="-4.20213">
        <ele>10</ele>
        <time>2022-12-28T19:30:09.486Z</time>
      </trkpt>
      <trkpt lat="47.87541" lon="-4.20157">
        <ele>11</ele>
        <time>2022-12-28T19:30:25.652Z</time>
      </trkpt>
      <trkpt lat="47.87696" lon="-4.20229">
        <ele>12</ele>
        <time>2022-12-28T19:30:41.844Z</time>
      </trkpt>
      <trkpt lat="47.87745" lon="-4.20236">
        <ele>13</ele>
        <time>2022-12-28T19:30:58.044Z</time>
      </trkpt>
      <trkpt lat="47.87751" lon="-4.20339">
        <ele>14</ele>
        <time>2022-12-28T19:31:14.255Z</time>
      </trkpt>
      <trkpt lat="47.87753" lon="-4.20353">
        <ele>15</ele>
        <time>2022-12-28T19:31:30.468Z</time>
      </trkpt>
      <trkpt lat="47.87761" lon="-4.20374">
        <ele>15</ele>
        <time>2022-12-28T19:31:46.684Z</time>
      </trkpt>
      <trkpt lat="47.87767" lon="-4.20383">
        <ele>16</ele>
        <time>2022-12-28T19:32:02.901Z</time>
      </trkpt>
      <trkpt lat="47.87774" lon="-4.2039">
        <ele>17</ele>
        <time>2022-12-28T19:32:19.119Z</time>
      </trkpt>
      <trkpt lat="47.87779" lon="-4.20392">
        <ele>18</ele>
        <time>2022-12-28T19:32:35.338Z</time>
      </trkpt>
      <trkpt lat="47.87807" lon="-4.20405">
        <ele>19</ele>
        <time>2022-12-28T19:32:51.562Z</time>
      </trkpt>
      <trkpt lat="47.87823" lon="-4.20412">
        <ele>20</ele>
        <time>2022-12-28T19:33:07.788Z</time>
      </trkpt>
      <trkpt lat="47.87825" lon="-4.20386">
        <ele>21</ele>
        <time>2022-12-28T19:33:24.017Z</time>
      </trkpt>
      <trkpt lat="47.87825" lon="-4.20385">
        <ele>22</ele>
        <time>2022-12-28T19:33:40.246Z</time>
      </trkpt>
      <trkpt lat="47.87827" lon="-4.20362">
        <ele>22</ele>
        <time>2022-12-28T19:33:56.478Z</time>
      </trkpt>
      <trkpt lat="47.87837" lon="-4.20259">
        <ele>23</ele>
        <time>2022-12-28T19:34:12.721Z</time>
      </trkpt>
      <trkpt lat="47.87837" lon="-4.20259">
        <ele>24</ele>
        <time>2022-12-28T19:34:28.964Z</time>
      </trkpt>
      <trkpt lat="47.87837" lon="-4.20257">
        <ele>24</ele>
        <time>2022-12-28T19:34:45.207Z</time>
      </trkpt>
      <trkpt lat="47.87839" lon="-4.20239">
        <ele>25</ele>
        <time>2022-12-28T19:35:01.452Z</time>
      </trkpt>
      <trkpt lat="47.87839" lon="-4.20239">
        <ele>26</ele>
        <time>2022-12-28T19:35:17.697Z</time>
      </trkpt>
      <trkpt lat="47.87844" lon="-4.20185">
        <ele>26</ele>
        <time>2022-12-28T19:35:33.948Z</time>
      </trkpt>
      <trkpt lat="47.87859" lon="-4.20184">
        <ele>27</ele>
        <time>2022-12-28T19:35:50.202Z</time>
      </trkpt>
      <trkpt lat="47.87868" lon="-4.20186">
        <ele>28</ele>
        <time>2022-12-28T19:36:06.457Z</time>
      </trkpt>
      <trkpt lat="47.87873" lon="-4.20188">
        <ele>28</ele>
        <time>2022-12-28T19:36:22.713Z</time>
      </trkpt>
      <trkpt lat="47.8795" lon="-4.20214">
        <ele>29</ele>
        <time>2022-12-28T19:36:38.981Z</time>
      </trkpt>
      <trkpt lat="47.87958" lon="-4.20217">
        <ele>29</ele>
        <time>2022-12-28T19:36:55.251Z</time>
      </trkpt>
      <trkpt lat="47.8797" lon="-4.2022">
        <ele>30</ele>
        <time>2022-12-28T19:37:11.523Z</time>
      </trkpt>
      <trkpt lat="47.88008" lon="-4.20231">
        <ele>30</ele>
        <time>2022-12-28T19:37:27.801Z</time>
      </trkpt>
      <trkpt lat="47.88104" lon="-4.20263">
        <ele>30</ele>
        <time>2022-12-28T19:37:44.095Z</time>
      </trkpt>
      <trkpt lat="47.88124" lon="-4.20268">
        <ele>31</ele>
        <time>2022-12-28T19:38:00.392Z</time>
      </trkpt>
      <trkpt lat="47.88133" lon="-4.20272">
        <ele>31</ele>
        <time>2022-12-28T19:38:16.690Z</time>
      </trkpt>
      <trkpt lat="47.88134" lon="-4.20264">
        <ele>31</ele>
        <time>2022-12-28T19:38:32.989Z</time>
      </trkpt>
      <trkpt lat="47.88134" lon="-4.20253">
        <ele>31</ele>
        <time>2022-12-28T19:38:49.289Z</time>
      </trkpt>
      <trkpt lat="47.88123" lon="-4.20179">
        <ele>31</ele>
        <time>2022-12-28T19:39:05.598Z</time>
      </trkpt>
      <trkpt lat="47.88121" lon="-4.20143">
        <ele>31</ele>
        <time>2022-12-28T19:39:21.910Z</time>
      </trkpt>
      <trkpt lat="47.8812" lon="-4.2012">
        <ele>31</ele>
        <time>2022-12-28T19:39:38.225Z</time>
      </trkpt>
      <trkpt lat="47.88123" lon="-4.20047">
        <ele>31</ele>
        <time>2022-12-28T19:39:54.548Z</time>
      </trkpt>
      <trkpt lat="47.88128" lon="-4.19995">
        <ele>31</ele>
        <time>2022-12-28T19:40:10.876Z</time>
      </trkpt>
      <trkpt lat="47.8813" lon="-4.19982">
        <ele>31</ele>
        <time>2022-12-28T19:40:27.206Z</time>
      </trkpt>
      <trkpt lat="47.88132" lon="-4.19964">
        <ele>31</ele>
        <time>2022-12-28T19:40:43.538Z</time>
      </trkpt>
      <trkpt lat="47.88136" lon="-4.19935">
        <ele>31</ele>
        <time>2022-12-28T19:40:59.873Z</time>
      </trkpt>
      <trkpt lat="47.8814" lon="-4.199">
        <ele>30</ele>
        <time>2022-12-28T19:41:16.212Z</time>
      </trkpt>
      <trkpt lat="47.88144" lon="-4.19662">
        <ele>29</ele>
        <time>2022-12-28T19:41:32.577Z</time>
      </trkpt>
      <trkpt lat="47.88165" lon="-4.19696">
        <ele>29</ele>
        <time>2022-12-28T19:41:48.946Z</time>
      </trkpt>
      <trkpt lat="47.88188" lon="-4.19734">
        <ele>29</ele>
        <time>2022-12-28T19:42:05.321Z</time>
      </trkpt>
      <trkpt lat="47.88188" lon="-4.19734">
        <ele>28</ele>
        <time>2022-12-28T19:42:21.696Z</time>
      </trkpt>
      <trkpt lat="47.88206" lon="-4.19764">
        <ele>28</ele>
        <time>2022-12-28T19:42:38.075Z</time>
      </trkpt>
      <trkpt lat="47.88223" lon="-4.19775">
        <ele>27</ele>
        <time>2022-12-28T19:42:54.457Z</time>
      </trkpt>
      <trkpt lat="47.88263" lon="-4.19775">
        <ele>26</ele>
        <time>2022-12-28T19:43:10.846Z</time>
      </trkpt>
      <trkpt lat="47.88264" lon="-4.19775">
        <ele>26</ele>
        <time>2022-12-28T19:43:27.235Z</time>
      </trkpt>
      <trkpt lat="47.88277" lon="-4.19775">
        <ele>25</ele>
        <time>2022-12-28T19:43:43.626Z</time>
      </trkpt>
      <trkpt lat="47.88292" lon="-4.19774">
        <ele>25</ele>
        <time>2022-12-28T19:44:00.019Z</time>
      </trkpt>
      <trkpt lat="47.88314" lon="-4.19783">
        <ele>24</ele>
        <time>2022-12-28T19:44:16.416Z</time>
      </trkpt>
      <trkpt lat="47.88327" lon="-4.19801">
        <ele>23</ele>
        <time>2022-12-28T19:44:32.816Z</time>
      </trkpt>
      <trkpt lat="47.88332" lon="-4.19814">
        <ele>23</ele>
        <time>2022-12-28T19:44:49.217Z</time>
      </trkpt>
      <trkpt lat="47.88335" lon="-4.19823">
        <ele>22</ele>
        <time>2022-12-28T19:45:05.620Z</time>
      </trkpt>
      <trkpt lat="47.88343" lon="-4.1983">
        <ele>21</ele>
        <time>2022-12-28T19:45:22.024Z</time>
      </trkpt>
      <trkpt lat="47.8836" lon="-4.19824">
        <ele>21</ele>
        <time>2022-12-28T19:45:38.431Z</time>
      </trkpt>
      <trkpt lat="47.88359" lon="-4.19796">
        <ele>20</ele>
        <time>2022-12-28T19:45:54.841Z</time>
      </trkpt>
      <trkpt lat="47.88359" lon="-4.19714">
        <ele>19</ele>
        <time>2022-12-28T19:46:11.260Z</time>
      </trkpt>
      <trkpt lat="47.88361" lon="-4.19674">
        <ele>19</ele>
        <time>2022-12-28T19:46:27.683Z</time>
      </trkpt>
      <trkpt lat="47.88363" lon="-4.19622">
        <ele>18</ele>
        <time>2022-12-28T19:46:44.112Z</time>
      </trkpt>
      <trkpt lat="47.88364" lon="-4.19613">
        <ele>17</ele>
        <time>2022-12-28T19:47:00.542Z</time>
      </trkpt>
      <trkpt lat="47.88371" lon="-4.19563">
        <ele>16</ele>
        <time>2022-12-28T19:47:16.977Z</time>
      </trkpt>
      <trkpt lat="47.88371" lon="-4.19562">
        <ele>16</ele>
        <time>2022-12-28T19:47:33.412Z</time>
      </trkpt>
      <trkpt lat="47.88382" lon="-4.19465">
        <ele>16</ele>
        <time>2022-12-28T19:47:49.858Z</time>
      </trkpt>
      <trkpt lat="47.88385" lon="-4.19447">
        <ele>15</ele>
        <time>2022-12-28T19:48:06.306Z</time>
      </trkpt>
      <trkpt lat="47.88386" lon="-4.19437">
        <ele>15</ele>
        <time>2022-12-28T19:48:22.755Z</time>
      </trkpt>
      <trkpt lat="47.88387" lon="-4.19437">
        <ele>15</ele>
        <time>2022-12-28T19:48:39.204Z</time>
      </trkpt>
      <trkpt lat="47.884" lon="-4.19323">
        <ele>14</ele>
        <time>2022-12-28T19:48:55.665Z</time>
      </trkpt>
      <trkpt lat="47.884" lon="-4.19322">
        <ele>14</ele>
        <time>2022-12-28T19:49:12.127Z</time>
      </trkpt>
      <trkpt lat="47.88495" lon="-4.18665">
        <ele>13</ele>
        <time>2022-12-28T19:49:28.661Z</time>
      </trkpt>
      <trkpt lat="47.88497" lon="-4.18647">
        <ele>13</ele>
        <time>2022-12-28T19:49:45.197Z</time>
      </trkpt>
      <trkpt lat="47.88498" lon="-4.18639">
        <ele>13</ele>
        <time>2022-12-28T19:50:01.734Z</time>
      </trkpt>
      <trkpt lat="47.88507" lon="-4.18573">
        <ele>13</ele>
        <time>2022-12-28T19:50:18.278Z</time>
      </trkpt>
      <trkpt lat="47.88503" lon="-4.18561">
        <ele>13</ele>
        <time>2022-12-28T19:50:34.824Z</time>
      </trkpt>
      <trkpt lat="47.885" lon="-4.18549">
        <ele>12</ele>
        <time>2022-12-28T19:50:51.371Z</time>
      </trkpt>
      <trkpt lat="47.885" lon="-4.18537">
        <ele>12</ele>
        <time>2022-12-28T19:51:07.919Z</time>
      </trkpt>
      <trkpt lat="47.88496" lon="-4.18532">
        <ele>12</ele>
        <time>2022-12-28T19:51:24.468Z</time>
      </trkpt>
      <trkpt lat="47.88492" lon="-4.18528">
        <ele>12</ele>
        <time>2022-12-28T19:51:41.018Z</time>
      </trkpt>
      <trkpt lat="47.88484" lon="-4.18529">
        <ele>12</ele>
        <time>2022-12-28T19:51:57.569Z</time>
      </trkpt>
      <trkpt lat="47.88484" lon="-4.18529">
        <ele>11</ele>
        <time>2022-12-28T19:52:14.120Z</time>
      </trkpt>
      <trkpt lat="47.88479" lon="-4.1853">
        <ele>11</ele>
        <time>2022-12-28T19:52:30.672Z</time>
      </trkpt>
      <trkpt lat="47.88457" lon="-4.18515">
        <ele>11</ele>
        <time>2022-12-28T19:52:47.228Z</time>
      </trkpt>
      <trkpt lat="47.88445" lon="-4.1851">
        <ele>11</ele>
        <time>2022-12-28T19:53:03.786Z</time>
      </trkpt>
      <trkpt lat="47.88433" lon="-4.18508">
        <ele>11</ele>
        <time>2022-12-28T19:53:20.346Z</time>
      </trkpt>
      <trkpt lat="47.88432" lon="-4.18508">
        <ele>10</ele>
        <time>2022-12-28T19:53:36.906Z</time>
      </trkpt>
      <trkpt lat="47.88412" lon="-4.18495">
        <ele>10</ele>
        <time>2022-12-28T19:53:53.469Z</time>
      </trkpt>
      <trkpt lat="47.88432" lon="-4.18508">
        <ele>10</ele>
        <time>2022-12-28T19:54:10.036Z</time>
      </trkpt>
      <trkpt lat="47.88412" lon="-4.18495">
        <ele>10</ele>
        <time>2022-12-28T19:54:26.606Z</time>
      </trkpt>
      <trkpt lat="47.88403" lon="-4.18489">
        <ele>9</ele>
        <time>2022-12-28T19:54:43.178Z</time>
      </trkpt>
      <trkpt lat="47.88384" lon="-4.18474">
        <ele>9</ele>
        <time>2022-12-28T19:54:59.753Z</time>
      </trkpt>
      <trkpt lat="47.88358" lon="-4.18436">
        <ele>9</ele>
        <time>2022-12-28T19:55:16.334Z</time>
      </trkpt>
      <trkpt lat="47.88344" lon="-4.18413">
        <ele>9</ele>
        <time>2022-12-28T19:55:32.918Z</time>
      </trkpt>
      <trkpt lat="47.88336" lon="-4.184">
        <ele>8</ele>
        <time>2022-12-28T19:55:49.504Z</time>
      </trkpt>
      <trkpt lat="47.88317" lon="-4.18396">
        <ele>8</ele>
        <time>2022-12-28T19:56:06.093Z</time>
      </trkpt>
      <trkpt lat="47.88279" lon="-4.18424">
        <ele>8</ele>
        <time>2022-12-28T19:56:22.689Z</time>
      </trkpt>
      <trkpt lat="47.88266" lon="-4.18427">
        <ele>8</ele>
        <time>2022-12-28T19:56:39.287Z</time>
      </trkpt>
      <trkpt lat="47.88251" lon="-4.18425">
        <ele>8</ele>
        <time>2022-12-28T19:56:55.888Z</time>
      </trkpt>
      <trkpt lat="47.88228" lon="-4.18427">
        <ele>8</ele>
        <time>2022-12-28T19:57:12.492Z</time>
      </trkpt>
      <trkpt lat="47.88227" lon="-4.18426">
        <ele>7</ele>
        <time>2022-12-28T19:57:29.097Z</time>
      </trkpt>
      <trkpt lat="47.88202" lon="-4.18418">
        <ele>7</ele>
        <time>2022-12-28T19:57:45.706Z</time>
      </trkpt>
      <trkpt lat="47.88169" lon="-4.18425">
        <ele>7</ele>
        <time>2022-12-28T19:58:02.320Z</time>
      </trkpt>
      <trkpt lat="47.88152" lon="-4.18426">
        <ele>7</ele>
        <time>2022-12-28T19:58:18.937Z</time>
      </trkpt>
      <trkpt lat="47.88137" lon="-4.18434">
        <ele>7</ele>
        <time>2022-12-28T19:58:35.556Z</time>
      </trkpt>
      <trkpt lat="47.88124" lon="-4.18432">
        <ele>7</ele>
        <time>2022-12-28T19:58:52.177Z</time>
      </trkpt>
      <trkpt lat="47.881" lon="-4.18427">
        <ele>7</ele>
        <time>2022-12-28T19:59:08.802Z</time>
      </trkpt>
      <trkpt lat="47.88078" lon="-4.1841">
        <ele>6</ele>
        <time>2022-12-28T19:59:25.431Z</time>
      </trkpt>
      <trkpt lat="47.88067" lon="-4.18398">
        <ele>6</ele>
        <time>2022-12-28T19:59:42.062Z</time>
      </trkpt>
      <trkpt lat="47.88038" lon="-4.18351">
        <ele>6</ele>
        <time>2022-12-28T19:59:58.700Z</time>
      </trkpt>
      <trkpt lat="47.88032" lon="-4.18334">
        <ele>6</ele>
        <time>2022-12-28T20:00:15.340Z</time>
      </trkpt>
      <trkpt lat="47.88018" lon="-4.18293">
        <ele>6</ele>
        <time>2022-12-28T20:00:31.985Z</time>
      </trkpt>
      <trkpt lat="47.88015" lon="-4.18289">
        <ele>6</ele>
        <time>2022-12-28T20:00:48.631Z</time>
      </trkpt>
      <trkpt lat="47.88015" lon="-4.18289">
        <ele>6</ele>
        <time>2022-12-28T20:01:05.277Z</time>
      </trkpt>
      <trkpt lat="47.88" lon="-4.18269">
        <ele>6</ele>
        <time>2022-12-28T20:01:21.926Z</time>
      </trkpt>
      <trkpt lat="47.87991" lon="-4.18263">
        <ele>6</ele>
        <time>2022-12-28T20:01:38.577Z</time>
      </trkpt>
      <trkpt lat="47.87964" lon="-4.18249">
        <ele>6</ele>
        <time>2022-12-28T20:01:55.232Z</time>
      </trkpt>
      <trkpt lat="47.87954" lon="-4.18237">
        <ele>6</ele>
        <time>2022-12-28T20:02:11.889Z</time>
      </trkpt>
      <trkpt lat="47.87951" lon="-4.1823">
        <ele>6</ele>
        <time>2022-12-28T20:02:28.547Z</time>
      </trkpt>
      <trkpt lat="47.8795" lon="-4.18215">
        <ele>7</ele>
        <time>2022-12-28T20:02:45.207Z</time>
      </trkpt>
      <trkpt lat="47.87952" lon="-4.18206">
        <ele>7</ele>
        <time>2022-12-28T20:03:01.868Z</time>
      </trkpt>
      <trkpt lat="47.87956" lon="-4.182">
        <ele>7</ele>
        <time>2022-12-28T20:03:18.530Z</time>
      </trkpt>
      <trkpt lat="47.87979" lon="-4.18188">
        <ele>7</ele>
        <time>2022-12-28T20:03:35.196Z</time>
      </trkpt>
      <trkpt lat="47.87981" lon="-4.18181">
        <ele>7</ele>
        <time>2022-12-28T20:03:51.862Z</time>
      </trkpt>
      <trkpt lat="47.87989" lon="-4.18179">
        <ele>7</ele>
        <time>2022-12-28T20:04:08.530Z</time>
      </trkpt>
      <trkpt lat="47.88017" lon="-4.18188">
        <ele>8</ele>
        <time>2022-12-28T20:04:25.202Z</time>
      </trkpt>
      <trkpt lat="47.88032" lon="-4.18193">
        <ele>8</ele>
        <time>2022-12-28T20:04:41.877Z</time>
      </trkpt>
      <trkpt lat="47.88061" lon="-4.1819">
        <ele>8</ele>
        <time>2022-12-28T20:04:58.556Z</time>
      </trkpt>
      <trkpt lat="47.88061" lon="-4.1819">
        <ele>8</ele>
        <time>2022-12-28T20:05:15.235Z</time>
      </trkpt>
      <trkpt lat="47.88082" lon="-4.18188">
        <ele>9</ele>
        <time>2022-12-28T20:05:31.918Z</time>
      </trkpt>
      <trkpt lat="47.88125" lon="-4.18194">
        <ele>9</ele>
        <time>2022-12-28T20:05:48.608Z</time>
      </trkpt>
      <trkpt lat="47.88136" lon="-4.18192">
        <ele>9</ele>
        <time>2022-12-28T20:06:05.299Z</time>
      </trkpt>
      <trkpt lat="47.88152" lon="-4.18184">
        <ele>9</ele>
        <time>2022-12-28T20:06:21.993Z</time>
      </trkpt>
      <trkpt lat="47.88163" lon="-4.18174">
        <ele>9</ele>
        <time>2022-12-28T20:06:38.689Z</time>
      </trkpt>
      <trkpt lat="47.88171" lon="-4.18168">
        <ele>10</ele>
        <time>2022-12-28T20:06:55.387Z</time>
      </trkpt>
      <trkpt lat="47.88198" lon="-4.18158">
        <ele>10</ele>
        <time>2022-12-28T20:07:12.089Z</time>
      </trkpt>
      <trkpt lat="47.88187" lon="-4.18119">
        <ele>10</ele>
        <time>2022-12-28T20:07:28.796Z</time>
      </trkpt>
      <trkpt lat="47.88181" lon="-4.18087">
        <ele>10</ele>
        <time>2022-12-28T20:07:45.506Z</time>
      </trkpt>
      <trkpt lat="47.88174" lon="-4.18007">
        <ele>10</ele>
        <time>2022-12-28T20:08:02.225Z</time>
      </trkpt>
      <trkpt lat="47.88173" lon="-4.17989">
        <ele>10</ele>
        <time>2022-12-28T20:08:18.946Z</time>
      </trkpt>
      <trkpt lat="47.88167" lon="-4.17918">
        <ele>11</ele>
        <time>2022-12-28T20:08:35.675Z</time>
      </trkpt>
      <trkpt lat="47.88155" lon="-4.17867">
        <ele>11</ele>
        <time>2022-12-28T20:08:52.409Z</time>
      </trkpt>
      <trkpt lat="47.88145" lon="-4.17841">
        <ele>11</ele>
        <time>2022-12-28T20:09:09.147Z</time>
      </trkpt>
      <trkpt lat="47.88136" lon="-4.17818">
        <ele>11</ele>
        <time>2022-12-28T20:09:25.887Z</time>
      </trkpt>
      <trkpt lat="47.88108" lon="-4.17764">
        <ele>11</ele>
        <time>2022-12-28T20:09:42.635Z</time>
      </trkpt>
      <trkpt lat="47.8809" lon="-4.17736">
        <ele>11</ele>
        <time>2022-12-28T20:09:59.387Z</time>
      </trkpt>
      <trkpt lat="47.87989" lon="-4.17586">
        <ele>12</ele>
        <time>2022-12-28T20:10:16.162Z</time>
      </trkpt>
      <trkpt lat="47.87989" lon="-4.17586">
        <ele>12</ele>
        <time>2022-12-28T20:10:32.937Z</time>
      </trkpt>
      <trkpt lat="47.87958" lon="-4.17538">
        <ele>12</ele>
        <time>2022-12-28T20:10:49.719Z</time>
      </trkpt>
      <trkpt lat="47.87916" lon="-4.17477">
        <ele>12</ele>
        <time>2022-12-28T20:11:06.510Z</time>
      </trkpt>
      <trkpt lat="47.87908" lon="-4.17462">
        <ele>13</ele>
        <time>2022-12-28T20:11:23.303Z</time>
      </trkpt>
      <trkpt lat="47.87898" lon="-4.17423">
        <ele>13</ele>
        <time>2022-12-28T20:11:40.101Z</time>
      </trkpt>
      <trkpt lat="47.87879" lon="-4.17331">
        <ele>13</ele>
        <time>2022-12-28T20:11:56.909Z</time>
      </trkpt>
      <trkpt lat="47.87879" lon="-4.17331">
        <ele>13</ele>
        <time>2022-12-28T20:12:13.717Z</time>
      </trkpt>
      <trkpt lat="47.87866" lon="-4.1727">
        <ele>13</ele>
        <time>2022-12-28T20:12:30.532Z</time>
      </trkpt>
      <trkpt lat="47.87859" lon="-4.1724">
        <ele>14</ele>
        <time>2022-12-28T20:12:47.351Z</time>
      </trkpt>
      <trkpt lat="47.87848" lon="-4.17192">
        <ele>14</ele>
        <time>2022-12-28T20:13:04.175Z</time>
      </trkpt>
      <trkpt lat="47.87848" lon="-4.17191">
        <ele>14</ele>
        <time>2022-12-28T20:13:20.999Z</time>
      </trkpt>
      <trkpt lat="47.87832" lon="-4.17121">
        <ele>14</ele>
        <time>2022-12-28T20:13:37.831Z</time>
      </trkpt>
      <trkpt lat="47.87832" lon="-4.17121">
        <ele>14</ele>
        <time>2022-12-28T20:13:54.663Z</time>
      </trkpt>
      <trkpt lat="47.87821" lon="-4.17069">
        <ele>14</ele>
        <time>2022-12-28T20:14:11.501Z</time>
      </trkpt>
      <trkpt lat="47.87821" lon="-4.17069">
        <ele>14</ele>
        <time>2022-12-28T20:14:28.339Z</time>
      </trkpt>
      <trkpt lat="47.87821" lon="-4.17067">
        <ele>14</ele>
        <time>2022-12-28T20:14:45.177Z</time>
      </trkpt>
      <trkpt lat="47.87817" lon="-4.17049">
        <ele>14</ele>
        <time>2022-12-28T20:15:02.017Z</time>
      </trkpt>
      <trkpt lat="47.87817" lon="-4.17049">
        <ele>14</ele>
        <time>2022-12-28T20:15:18.857Z</time>
      </trkpt>
      <trkpt lat="47.87798" lon="-4.16958">
        <ele>14</ele>
        <time>2022-12-28T20:15:35.708Z</time>
      </trkpt>
      <trkpt lat="47.87796" lon="-4.16947">
        <ele>14</ele>
        <time>2022-12-28T20:15:52.560Z</time>
      </trkpt>
      <trkpt lat="47.87792" lon="-4.16926">
        <ele>14</ele>
        <time>2022-12-28T20:16:09.414Z</time>
      </trkpt>
      <trkpt lat="47.87786" lon="-4.16723">
        <ele>14</ele>
        <time>2022-12-28T20:16:26.290Z</time>
      </trkpt>
      <trkpt lat="47.87759" lon="-4.16688">
        <ele>14</ele>
        <time>2022-12-28T20:16:43.172Z</time>
      </trkpt>
      <trkpt lat="47.87739" lon="-4.16668">
        <ele>14</ele>
        <time>2022-12-28T20:17:00.058Z</time>
      </trkpt>
      <trkpt lat="47.87731" lon="-4.16651">
        <ele>14</ele>
        <time>2022-12-28T20:17:16.946Z</time>
      </trkpt>
      <trkpt lat="47.87728" lon="-4.16634">
        <ele>14</ele>
        <time>2022-12-28T20:17:33.836Z</time>
      </trkpt>
      <trkpt lat="47.87727" lon="-4.16611">
        <ele>14</ele>
        <time>2022-12-28T20:17:50.728Z</time>
      </trkpt>
      <trkpt lat="47.87727" lon="-4.16608">
        <ele>14</ele>
        <time>2022-12-28T20:18:07.621Z</time>
      </trkpt>
      <trkpt lat="47.87668" lon="-4.1659">
        <ele>14</ele>
        <time>2022-12-28T20:18:24.523Z</time>
      </trkpt>
      <trkpt lat="47.87652" lon="-4.16585">
        <ele>13</ele>
        <time>2022-12-28T20:18:41.428Z</time>
      </trkpt>
      <trkpt lat="47.875" lon="-4.16536">
        <ele>13</ele>
        <time>2022-12-28T20:18:58.358Z</time>
      </trkpt>
      <trkpt lat="47.87489" lon="-4.16532">
        <ele>13</ele>
        <time>2022-12-28T20:19:15.290Z</time>
      </trkpt>
      <trkpt lat="47.87388" lon="-4.165">
        <ele>13</ele>
        <time>2022-12-28T20:19:32.238Z</time>
      </trkpt>
      <trkpt lat="47.87388" lon="-4.16507">
        <ele>13</ele>
        <time>2022-12-28T20:19:49.187Z</time>
      </trkpt>
      <trkpt lat="47.87374" lon="-4.16503">
        <ele>12</ele>
        <time>2022-12-28T20:20:06.138Z</time>
      </trkpt>
      <trkpt lat="47.8736" lon="-4.16525">
        <ele>12</ele>
        <time>2022-12-28T20:20:23.092Z</time>
      </trkpt>
      <trkpt lat="47.87338" lon="-4.1654">
        <ele>12</ele>
        <time>2022-12-28T20:20:40.050Z</time>
      </trkpt>
      <trkpt lat="47.87337" lon="-4.1654">
        <ele>12</ele>
        <time>2022-12-28T20:20:57.008Z</time>
      </trkpt>
      <trkpt lat="47.87313" lon="-4.16547">
        <ele>11</ele>
        <time>2022-12-28T20:21:13.970Z</time>
      </trkpt>
      <trkpt lat="47.87261" lon="-4.16543">
        <ele>11</ele>
        <time>2022-12-28T20:21:30.941Z</time>
      </trkpt>
      <trkpt lat="47.87162" lon="-4.16554">
        <ele>11</ele>
        <time>2022-12-28T20:21:47.928Z</time>
      </trkpt>
      <trkpt lat="47.86991" lon="-4.16584">
        <ele>11</ele>
        <time>2022-12-28T20:22:04.942Z</time>
      </trkpt>
      <trkpt lat="47.86896" lon="-4.16583">
        <ele>10</ele>
        <time>2022-12-28T20:22:21.971Z</time>
      </trkpt>
      <trkpt lat="47.86882" lon="-4.16583">
        <ele>10</ele>
        <time>2022-12-28T20:22:39.003Z</time>
      </trkpt>
      <trkpt lat="47.86862" lon="-4.16578">
        <ele>10</ele>
        <time>2022-12-28T20:22:56.038Z</time>
      </trkpt>
      <trkpt lat="47.86861" lon="-4.16578">
        <ele>9</ele>
        <time>2022-12-28T20:23:13.073Z</time>
      </trkpt>
      <trkpt lat="47.86835" lon="-4.16572">
        <ele>9</ele>
        <time>2022-12-28T20:23:30.112Z</time>
      </trkpt>
      <trkpt lat="47.86826" lon="-4.16569">
        <ele>9</ele>
        <time>2022-12-28T20:23:47.153Z</time>
      </trkpt>
      <trkpt lat="47.86809" lon="-4.16559">
        <ele>9</ele>
        <time>2022-12-28T20:24:04.197Z</time>
      </trkpt>
      <trkpt lat="47.86809" lon="-4.16559">
        <ele>8</ele>
        <time>2022-12-28T20:24:21.241Z</time>
      </trkpt>
      <trkpt lat="47.8678" lon="-4.16537">
        <ele>8</ele>
        <time>2022-12-28T20:24:38.290Z</time>
      </trkpt>
      <trkpt lat="47.86779" lon="-4.16536">
        <ele>8</ele>
        <time>2022-12-28T20:24:55.339Z</time>
      </trkpt>
      <trkpt lat="47.86775" lon="-4.16533">
        <ele>8</ele>
        <time>2022-12-28T20:25:12.389Z</time>
      </trkpt>
      <trkpt lat="47.86769" lon="-4.16526">
        <ele>7</ele>
        <time>2022-12-28T20:25:29.440Z</time>
      </trkpt>
      <trkpt lat="47.86769" lon="-4.16526">
        <ele>7</ele>
        <time>2022-12-28T20:25:46.491Z</time>
      </trkpt>
      <trkpt lat="47.86716" lon="-4.16471">
        <ele>7</ele>
        <time>2022-12-28T20:26:03.552Z</time>
      </trkpt>
      <trkpt lat="47.86683" lon="-4.16438">
        <ele>6</ele>
        <time>2022-12-28T20:26:20.620Z</time>
      </trkpt>
      <trkpt lat="47.86657" lon="-4.1641">
        <ele>6</ele>
        <time>2022-12-28T20:26:37.693Z</time>
      </trkpt>
      <trkpt lat="47.86647" lon="-4.164">
        <ele>6</ele>
        <time>2022-12-28T20:26:54.768Z</time>
      </trkpt>
      <trkpt lat="47.86624" lon="-4.16375">
        <ele>6</ele>
        <time>2022-12-28T20:27:11.847Z</time>
      </trkpt>
      <trkpt lat="47.86593" lon="-4.16531">
        <ele>5</ele>
        <time>2022-12-28T20:27:28.944Z</time>
      </trkpt>
      <trkpt lat="47.86579" lon="-4.16572">
        <ele>5</ele>
        <time>2022-12-28T20:27:46.046Z</time>
      </trkpt>
      <trkpt lat="47.86552" lon="-4.16596">
        <ele>5</ele>
        <time>2022-12-28T20:28:03.153Z</time>
      </trkpt>
      <trkpt lat="47.86516" lon="-4.16608">
        <ele>5</ele>
        <time>2022-12-28T20:28:20.266Z</time>
      </trkpt>
      <trkpt lat="47.86489" lon="-4.16602">
        <ele>4</ele>
        <time>2022-12-28T20:28:37.383Z</time>
      </trkpt>
      <trkpt lat="47.86469" lon="-4.16596">
        <ele>4</ele>
        <time>2022-12-28T20:28:54.503Z</time>
      </trkpt>
      <trkpt lat="47.86426" lon="-4.16594">
        <ele>4</ele>
        <time>2022-12-28T20:29:11.630Z</time>
      </trkpt>
      <trkpt lat="47.8631" lon="-4.1663">
        <ele>3</ele>
        <time>2022-12-28T20:29:28.776Z</time>
      </trkpt>
      <trkpt lat="47.86274" lon="-4.16631">
        <ele>3</ele>
        <time>2022-12-28T20:29:45.928Z</time>
      </trkpt>
      <trkpt lat="47.86218" lon="-4.16622">
        <ele>3</ele>
        <time>2022-12-28T20:30:03.089Z</time>
      </trkpt>
      <trkpt lat="47.86186" lon="-4.16629">
        <ele>3</ele>
        <time>2022-12-28T20:30:20.255Z</time>
      </trkpt>
      <trkpt lat="47.86155" lon="-4.1665">
        <ele>2</ele>
        <time>2022-12-28T20:30:37.427Z</time>
      </trkpt>
      <trkpt lat="47.86151" lon="-4.16657">
        <ele>2</ele>
        <time>2022-12-28T20:30:54.599Z</time>
      </trkpt>
      <trkpt lat="47.86148" lon="-4.16663">
        <ele>2</ele>
        <time>2022-12-28T20:31:11.772Z</time>
      </trkpt>
      <trkpt lat="47.86127" lon="-4.16633">
        <ele>2</ele>
        <time>2022-12-28T20:31:28.950Z</time>
      </trkpt>
      <trkpt lat="47.86127" lon="-4.16632">
        <ele>2</ele>
        <time>2022-12-28T20:31:46.128Z</time>
      </trkpt>
      <trkpt lat="47.86123" lon="-4.16627">
        <ele>2</ele>
        <time>2022-12-28T20:32:03.307Z</time>
      </trkpt>
      <trkpt lat="47.86087" lon="-4.16559">
        <ele>1</ele>
        <time>2022-12-28T20:32:20.495Z</time>
      </trkpt>
      <trkpt lat="47.86074" lon="-4.16531">
        <ele>1</ele>
        <time>2022-12-28T20:32:37.687Z</time>
      </trkpt>
      <trkpt lat="47.86073" lon="-4.16529">
        <ele>1</ele>
        <time>2022-12-28T20:32:54.879Z</time>
      </trkpt>
      <trkpt lat="47.86066" lon="-4.16514">
        <ele>1</ele>
        <time>2022-12-28T20:33:12.073Z</time>
      </trkpt>
      <trkpt lat="47.86066" lon="-4.16514">
        <ele>1</ele>
        <time>2022-12-28T20:33:29.267Z</time>
      </trkpt>
      <trkpt lat="47.86031" lon="-4.16434">
        <ele>1</ele>
        <time>2022-12-28T20:33:46.471Z</time>
      </trkpt>
      <trkpt lat="47.86031" lon="-4.16434">
        <ele>2.9</ele>
        <time>2022-12-28T20:34:03.675Z</time>
      </trkpt>
      <trkpt lat="47.86019" lon="-4.16413">
        <ele>2.9</ele>
        <time>2022-12-28T20:34:20.882Z</time>
      </trkpt>
      <trkpt lat="47.86009" lon="-4.16409">
        <ele>2.9</ele>
        <time>2022-12-28T20:34:38.091Z</time>
      </trkpt>
      <trkpt lat="47.85999" lon="-4.16407">
        <ele>3</ele>
        <time>2022-12-28T20:34:55.302Z</time>
      </trkpt>
      <trkpt lat="47.85994" lon="-4.16412">
        <ele>3</ele>
        <time>2022-12-28T20:35:12.514Z</time>
      </trkpt>
      <trkpt lat="47.85988" lon="-4.1644">
        <ele>3.4</ele>
        <time>2022-12-28T20:35:29.729Z</time>
      </trkpt>
      <trkpt lat="47.8598" lon="-4.1646">
        <ele>3.3</ele>
        <time>2022-12-28T20:35:46.946Z</time>
      </trkpt>
      <trkpt lat="47.85971" lon="-4.16472">
        <ele>3.1</ele>
        <time>2022-12-28T20:36:04.165Z</time>
      </trkpt>
      <trkpt lat="47.85957" lon="-4.16483">
        <ele>3.3</ele>
        <time>2022-12-28T20:36:21.387Z</time>
      </trkpt>
      <trkpt lat="47.85904" lon="-4.16513">
        <ele>3</ele>
        <time>2022-12-28T20:36:38.618Z</time>
      </trkpt>
      <trkpt lat="47.85901" lon="-4.16513">
        <ele>3</ele>
        <time>2022-12-28T20:36:55.849Z</time>
      </trkpt>
      <trkpt lat="47.85889" lon="-4.16516">
        <ele>3</ele>
        <time>2022-12-28T20:37:13.082Z</time>
      </trkpt>
      <trkpt lat="47.85787" lon="-4.16536">
        <ele>3.3</ele>
        <time>2022-12-28T20:37:30.332Z</time>
      </trkpt>
      <trkpt lat="47.85733" lon="-4.16541">
        <ele>2.6</ele>
        <time>2022-12-28T20:37:47.591Z</time>
      </trkpt>
      <trkpt lat="47.85725" lon="-4.16545">
        <ele>2.9</ele>
        <time>2022-12-28T20:38:04.851Z</time>
      </trkpt>
      <trkpt lat="47.8571" lon="-4.16561">
        <ele>3.3</ele>
        <time>2022-12-28T20:38:22.114Z</time>
      </trkpt>
      <trkpt lat="47.8569" lon="-4.16593">
        <ele>3.6</ele>
        <time>2022-12-28T20:38:39.382Z</time>
      </trkpt>
      <trkpt lat="47.85674" lon="-4.16636">
        <ele>1.9</ele>
        <time>2022-12-28T20:38:56.655Z</time>
      </trkpt>
      <trkpt lat="47.85666" lon="-4.1663">
        <ele>1.7</ele>
        <time>2022-12-28T20:39:13.929Z</time>
      </trkpt>
      <trkpt lat="47.85644" lon="-4.16619">
        <ele>3.3</ele>
        <time>2022-12-28T20:39:31.207Z</time>
      </trkpt>
      <trkpt lat="47.85586" lon="-4.16605">
        <ele>1.9</ele>
        <time>2022-12-28T20:39:48.494Z</time>
      </trkpt>
      <trkpt lat="47.85317" lon="-4.16539">
        <ele>1.2</ele>
        <time>2022-12-28T20:40:05.825Z</time>
      </trkpt>
      <trkpt lat="47.85392" lon="-4.16558">
        <ele>2.9</ele>
        <time>2022-12-28T20:40:23.168Z</time>
      </trkpt>
      <trkpt lat="47.85586" lon="-4.16605">
        <ele>1.9</ele>
        <time>2022-12-28T20:40:40.543Z</time>
      </trkpt>
      <trkpt lat="47.85317" lon="-4.16539">
        <ele>1.2</ele>
        <time>2022-12-28T20:40:57.961Z</time>
      </trkpt>
      <trkpt lat="47.85283" lon="-4.16531">
        <ele>1.7</ele>
        <time>2022-12-28T20:41:15.385Z</time>
      </trkpt>
      <trkpt lat="47.85282" lon="-4.16531">
        <ele>1.8</ele>
        <time>2022-12-28T20:41:32.809Z</time>
      </trkpt>
      <trkpt lat="47.85226" lon="-4.16517">
        <ele>2.9</ele>
        <time>2022-12-28T20:41:50.242Z</time>
      </trkpt>
      <trkpt lat="47.85226" lon="-4.16517">
        <ele>2.9</ele>
        <time>2022-12-28T20:42:07.675Z</time>
      </trkpt>
      <trkpt lat="47.85203" lon="-4.1651">
        <ele>1</ele>
        <time>2022-12-28T20:42:25.112Z</time>
      </trkpt>
      <trkpt lat="47.85197" lon="-4.16507">
        <ele>1</ele>
        <time>2022-12-28T20:42:42.550Z</time>
      </trkpt>
      <trkpt lat="47.85196" lon="-4.16506">
        <ele>1</ele>
        <time>2022-12-28T20:42:59.988Z</time>
      </trkpt>
      <trkpt lat="47.85193" lon="-4.16504">
        <ele>1</ele>
        <time>2022-12-28T20:43:17.427Z</time>
      </trkpt>
      <trkpt lat="47.85185" lon="-4.16498">
        <ele>1</ele>
        <time>2022-12-28T20:43:34.867Z</time>
      </trkpt>
      <trkpt lat="47.85184" lon="-4.16498">
        <ele>1</ele>
        <time>2022-12-28T20:43:52.307Z</time>
      </trkpt>
      <trkpt lat="47.8515" lon="-4.16472">
        <ele>2</ele>
        <time>2022-12-28T20:44:09.753Z</time>
      </trkpt>
      <trkpt lat="47.85127" lon="-4.16454">
        <ele>2</ele>
        <time>2022-12-28T20:44:27.203Z</time>
      </trkpt>
      <trkpt lat="47.85123" lon="-4.16451">
        <ele>2</ele>
        <time>2022-12-28T20:44:44.654Z</time>
      </trkpt>
      <trkpt lat="47.85097" lon="-4.16429">
        <ele>2</ele>
        <time>2022-12-28T20:45:02.110Z</time>
      </trkpt>
      <trkpt lat="47.85097" lon="-4.16429">
        <ele>2</ele>
        <time>2022-12-28T20:45:19.566Z</time>
      </trkpt>
      <trkpt lat="47.85094" lon="-4.16425">
        <ele>2</ele>
        <time>2022-12-28T20:45:37.023Z</time>
      </trkpt>
      <trkpt lat="47.85154" lon="-4.16358">
        <ele>3</ele>
        <time>2022-12-28T20:45:54.491Z</time>
      </trkpt>
      <trkpt lat="47.85159" lon="-4.16352">
        <ele>3</ele>
        <time>2022-12-28T20:46:11.960Z</time>
      </trkpt>
      <trkpt lat="47.8521" lon="-4.16291">
        <ele>3</ele>
        <time>2022-12-28T20:46:29.440Z</time>
      </trkpt>
      <trkpt lat="47.8515" lon="-4.16173">
        <ele>3</ele>
        <time>2022-12-28T20:46:46.936Z</time>
      </trkpt>
      <trkpt lat="47.8513" lon="-4.16132">
        <ele>4</ele>
        <time>2022-12-28T20:47:04.437Z</time>
      </trkpt>
      <trkpt lat="47.85127" lon="-4.16127">
        <ele>4</ele>
        <time>2022-12-28T20:47:21.939Z</time>
      </trkpt>
      <trkpt lat="47.85123" lon="-4.16118">
        <ele>4</ele>
        <time>2022-12-28T20:47:39.442Z</time>
      </trkpt>
      <trkpt lat="47.85106" lon="-4.16087">
        <ele>4</ele>
        <time>2022-12-28T20:47:56.950Z</time>
      </trkpt>
      <trkpt lat="47.85112" lon="-4.1607">
        <ele>4</ele>
        <time>2022-12-28T20:48:14.460Z</time>
      </trkpt>
      <trkpt lat="47.85125" lon="-4.16007">
        <ele>4</ele>
        <time>2022-12-28T20:48:31.977Z</time>
      </trkpt>
      <trkpt lat="47.85132" lon="-4.15972">
        <ele>4</ele>
        <time>2022-12-28T20:48:49.498Z</time>
      </trkpt>
      <trkpt lat="47.85135" lon="-4.15942">
        <ele>4</ele>
        <time>2022-12-28T20:49:07.022Z</time>
      </trkpt>
      <trkpt lat="47.85136" lon="-4.15929">
        <ele>4</ele>
        <time>2022-12-28T20:49:24.547Z</time>
      </trkpt>
      <trkpt lat="47.85134" lon="-4.15812">
        <ele>4</ele>
        <time>2022-12-28T20:49:42.085Z</time>
      </trkpt>
      <trkpt lat="47.85126" lon="-4.15798">
        <ele>4</ele>
        <time>2022-12-28T20:49:59.625Z</time>
      </trkpt>
      <trkpt lat="47.85124" lon="-4.15775">
        <ele>4</ele>
        <time>2022-12-28T20:50:17.167Z</time>
      </trkpt>
      <trkpt lat="47.85126" lon="-4.15757">
        <ele>4</ele>
        <time>2022-12-28T20:50:34.711Z</time>
      </trkpt>
      <trkpt lat="47.85131" lon="-4.15741">
        <ele>4</ele>
        <time>2022-12-28T20:50:52.257Z</time>
      </trkpt>
      <trkpt lat="47.85139" lon="-4.15724">
        <ele>4</ele>
        <time>2022-12-28T20:51:09.806Z</time>
      </trkpt>
      <trkpt lat="47.85153" lon="-4.15703">
        <ele>4</ele>
        <time>2022-12-28T20:51:27.358Z</time>
      </trkpt>
      <trkpt lat="47.85147" lon="-4.15694">
        <ele>4</ele>
        <time>2022-12-28T20:51:44.911Z</time>
      </trkpt>
      <trkpt lat="47.85155" lon="-4.15671">
        <ele>4</ele>
        <time>2022-12-28T20:52:02.467Z</time>
      </trkpt>
      <trkpt lat="47.85189" lon="-4.15632">
        <ele>4</ele>
        <time>2022-12-28T20:52:20.030Z</time>
      </trkpt>
      <trkpt lat="47.85203" lon="-4.15616">
        <ele>4</ele>
        <time>2022-12-28T20:52:37.596Z</time>
      </trkpt>
      <trkpt lat="47.85215" lon="-4.15599">
        <ele>4</ele>
        <time>2022-12-28T20:52:55.164Z</time>
      </trkpt>
      <trkpt lat="47.85221" lon="-4.15591">
        <ele>4</ele>
        <time>2022-12-28T20:53:12.734Z</time>
      </trkpt>
      <trkpt lat="47.85215" lon="-4.15599">
        <ele>4</ele>
        <time>2022-12-28T20:53:30.305Z</time>
      </trkpt>
      <trkpt lat="47.85221" lon="-4.15591">
        <ele>4</ele>
        <time>2022-12-28T20:53:47.877Z</time>
      </trkpt>
      <trkpt lat="47.85221" lon="-4.15591">
        <ele>4</ele>
        <time>2022-12-28T20:54:05.449Z</time>
      </trkpt>
      <trkpt lat="47.85235" lon="-4.15573">
        <ele>4</ele>
        <time>2022-12-28T20:54:23.024Z</time>
      </trkpt>
      <trkpt lat="47.85281" lon="-4.15501">
        <ele>4</ele>
        <time>2022-12-28T20:54:40.610Z</time>
      </trkpt>
      <trkpt lat="47.85281" lon="-4.15501">
        <ele>4</ele>
        <time>2022-12-28T20:54:58.196Z</time>
      </trkpt>
      <trkpt lat="47.85336" lon="-4.15412">
        <ele>4</ele>
        <time>2022-12-28T20:55:15.795Z</time>
      </trkpt>
      <trkpt lat="47.85355" lon="-4.15377">
        <ele>4</ele>
        <time>2022-12-28T20:55:33.398Z</time>
      </trkpt>
      <trkpt lat="47.85363" lon="-4.15361">
        <ele>4</ele>
        <time>2022-12-28T20:55:51.004Z</time>
      </trkpt>
      <trkpt lat="47.85376" lon="-4.15338">
        <ele>4</ele>
        <time>2022-12-28T20:56:08.613Z</time>
      </trkpt>
      <trkpt lat="47.85377" lon="-4.15337">
        <ele>4</ele>
        <time>2022-12-28T20:56:26.222Z</time>
      </trkpt>
      <trkpt lat="47.85377" lon="-4.15336">
        <ele>4</ele>
        <time>2022-12-28T20:56:43.831Z</time>
      </trkpt>
      <trkpt lat="47.85405" lon="-4.15284">
        <ele>4</ele>
        <time>2022-12-28T20:57:01.447Z</time>
      </trkpt>
      <trkpt lat="47.85418" lon="-4.15258">
        <ele>4</ele>
        <time>2022-12-28T20:57:19.067Z</time>
      </trkpt>
      <trkpt lat="47.8543" lon="-4.15236">
        <ele>4</ele>
        <time>2022-12-28T20:57:36.690Z</time>
      </trkpt>
      <trkpt lat="47.8543" lon="-4.15234">
        <ele>4</ele>
        <time>2022-12-28T20:57:54.313Z</time>
      </trkpt>
      <trkpt lat="47.85438" lon="-4.15219">
        <ele>4</ele>
        <time>2022-12-28T20:58:11.938Z</time>
      </trkpt>
      <trkpt lat="47.85438" lon="-4.15219">
        <ele>4</ele>
        <time>2022-12-28T20:58:29.563Z</time>
      </trkpt>
      <trkpt lat="47.85447" lon="-4.15201">
        <ele>4</ele>
        <time>2022-12-28T20:58:47.191Z</time>
      </trkpt>
      <trkpt lat="47.85447" lon="-4.152">
        <ele>4</ele>
        <time>2022-12-28T20:59:04.819Z</time>
      </trkpt>
      <trkpt lat="47.85454" lon="-4.15186">
        <ele>4</ele>
        <time>2022-12-28T20:59:22.449Z</time>
      </trkpt>
      <trkpt lat="47.85471" lon="-4.15152">
        <ele>3</ele>
        <time>2022-12-28T20:59:40.083Z</time>
      </trkpt>
      <trkpt lat="47.85477" lon="-4.15143">
        <ele>3</ele>
        <time>2022-12-28T20:59:57.718Z</time>
      </trkpt>
      <trkpt lat="47.85479" lon="-4.15141">
        <ele>3</ele>
        <time>2022-12-28T21:00:15.354Z</time>
      </trkpt>
      <trkpt lat="47.85485" lon="-4.15142">
        <ele>3</ele>
        <time>2022-12-28T21:00:32.991Z</time>
      </trkpt>
      <trkpt lat="47.85499" lon="-4.15146">
        <ele>3</ele>
        <time>2022-12-28T21:00:50.630Z</time>
      </trkpt>
      <trkpt lat="47.85506" lon="-4.15144">
        <ele>3</ele>
        <time>2022-12-28T21:01:08.270Z</time>
      </trkpt>
      <trkpt lat="47.85512" lon="-4.15138">
        <ele>3</ele>
        <time>2022-12-28T21:01:25.911Z</time>
      </trkpt>
      <trkpt lat="47.85518" lon="-4.15142">
        <ele>3</ele>
        <time>2022-12-28T21:01:43.553Z</time>
      </trkpt>
      <trkpt lat="47.85528" lon="-4.15138">
        <ele>3</ele>
        <time>2022-12-28T21:02:01.197Z</time>
      </trkpt>
      <trkpt lat="47.85546" lon="-4.15122">
        <ele>3</ele>
        <time>2022-12-28T21:02:18.844Z</time>
      </trkpt>
      <trkpt lat="47.85545" lon="-4.15107">
        <ele>3</ele>
        <time>2022-12-28T21:02:36.493Z</time>
      </trkpt>
      <trkpt lat="47.85557" lon="-4.151">
        <ele>3</ele>
        <time>2022-12-28T21:02:54.144Z</time>
      </trkpt>
      <trkpt lat="47.85578" lon="-4.15078">
        <ele>3</ele>
        <time>2022-12-28T21:03:11.799Z</time>
      </trkpt>
      <trkpt lat="47.85588" lon="-4.15056">
        <ele>3</ele>
        <time>2022-12-28T21:03:29.457Z</time>
      </trkpt>
      <trkpt lat="47.85593" lon="-4.15047">
        <ele>3</ele>
        <time>2022-12-28T21:03:47.116Z</time>
      </trkpt>
      <trkpt lat="47.85596" lon="-4.15">
        <ele>2</ele>
        <time>2022-12-28T21:04:04.780Z</time>
      </trkpt>
      <trkpt lat="47.85596" lon="-4.14975">
        <ele>2</ele>
        <time>2022-12-28T21:04:22.447Z</time>
      </trkpt>
      <trkpt lat="47.85598" lon="-4.14958">
        <ele>2</ele>
        <time>2022-12-28T21:04:40.116Z</time>
      </trkpt>
      <trkpt lat="47.85621" lon="-4.14903">
        <ele>2</ele>
        <time>2022-12-28T21:04:57.792Z</time>
      </trkpt>
      <trkpt lat="47.85631" lon="-4.14879">
        <ele>2</ele>
        <time>2022-12-28T21:05:15.471Z</time>
      </trkpt>
      <trkpt lat="47.85666" lon="-4.14769">
        <ele>2</ele>
        <time>2022-12-28T21:05:33.163Z</time>
      </trkpt>
      <trkpt lat="47.85668" lon="-4.14767">
        <ele>2</ele>
        <time>2022-12-28T21:05:50.855Z</time>
      </trkpt>
      <trkpt lat="47.85677" lon="-4.14729">
        <ele>2</ele>
        <time>2022-12-28T21:06:08.552Z</time>
      </trkpt>
      <trkpt lat="47.85703" lon="-4.14663">
        <ele>2</ele>
        <time>2022-12-28T21:06:26.257Z</time>
      </trkpt>
      <trkpt lat="47.85765" lon="-4.14529">
        <ele>2</ele>
        <time>2022-12-28T21:06:43.980Z</time>
      </trkpt>
      <trkpt lat="47.85779" lon="-4.14508">
        <ele>2</ele>
        <time>2022-12-28T21:07:01.706Z</time>
      </trkpt>
      <trkpt lat="47.85785" lon="-4.14496">
        <ele>2</ele>
        <time>2022-12-28T21:07:19.433Z</time>
      </trkpt>
      <trkpt lat="47.85805" lon="-4.14455">
        <ele>1</ele>
        <time>2022-12-28T21:07:37.166Z</time>
      </trkpt>
      <trkpt lat="47.85806" lon="-4.14455">
        <ele>1</ele>
        <time>2022-12-28T21:07:54.899Z</time>
      </trkpt>
      <trkpt lat="47.85827" lon="-4.14413">
        <ele>1</ele>
        <time>2022-12-28T21:08:12.638Z</time>
      </trkpt>
      <trkpt lat="47.85847" lon="-4.1438">
        <ele>1</ele>
        <time>2022-12-28T21:08:30.381Z</time>
      </trkpt>
      <trkpt lat="47.85861" lon="-4.14356">
        <ele>1</ele>
        <time>2022-12-28T21:08:48.128Z</time>
      </trkpt>
      <trkpt lat="47.85862" lon="-4.14355">
        <ele>1</ele>
        <time>2022-12-28T21:09:05.875Z</time>
      </trkpt>
      <trkpt lat="47.85865" lon="-4.14351">
        <ele>1</ele>
        <time>2022-12-28T21:09:23.623Z</time>
      </trkpt>
      <trkpt lat="47.8587" lon="-4.1434">
        <ele>1</ele>
        <time>2022-12-28T21:09:41.372Z</time>
      </trkpt>
      <trkpt lat="47.8587" lon="-4.1434">
        <ele>1</ele>
        <time>2022-12-28T21:09:59.121Z</time>
      </trkpt>
      <trkpt lat="47.8591" lon="-4.14265">
        <ele>1</ele>
        <time>2022-12-28T21:10:16.880Z</time>
      </trkpt>
      <trkpt lat="47.85934" lon="-4.14218">
        <ele>1</ele>
        <time>2022-12-28T21:10:34.646Z</time>
      </trkpt>
      <trkpt lat="47.85955" lon="-4.14152">
        <ele>1</ele>
        <time>2022-12-28T21:10:52.420Z</time>
      </trkpt>
      <trkpt lat="47.85971" lon="-4.14107">
        <ele>1</ele>
        <time>2022-12-28T21:11:10.199Z</time>
      </trkpt>
      <trkpt lat="47.85977" lon="-4.14091">
        <ele>1</ele>
        <time>2022-12-28T21:11:27.980Z</time>
      </trkpt>
      <trkpt lat="47.85998" lon="-4.14034">
        <ele>3.7</ele>
        <time>2022-12-28T21:11:45.768Z</time>
      </trkpt>
      <trkpt lat="47.86035" lon="-4.13953">
        <ele>5.5</ele>
        <time>2022-12-28T21:12:03.567Z</time>
      </trkpt>
      <trkpt lat="47.86067" lon="-4.13883">
        <ele>5.9</ele>
        <time>2022-12-28T21:12:21.375Z</time>
      </trkpt>
      <trkpt lat="47.86098" lon="-4.13809">
        <ele>4.4</ele>
        <time>2022-12-28T21:12:39.192Z</time>
      </trkpt>
      <trkpt lat="47.86104" lon="-4.13813">
        <ele>3.9</ele>
        <time>2022-12-28T21:12:57.010Z</time>
      </trkpt>
      <trkpt lat="47.86109" lon="-4.13816">
        <ele>3.5</ele>
        <time>2022-12-28T21:13:14.829Z</time>
      </trkpt>
      <trkpt lat="47.86126" lon="-4.13816">
        <ele>3.4</ele>
        <time>2022-12-28T21:13:32.651Z</time>
      </trkpt>
      <trkpt lat="47.86126" lon="-4.13816">
        <ele>3.4</ele>
        <time>2022-12-28T21:13:50.473Z</time>
      </trkpt>
      <trkpt lat="47.86207" lon="-4.13835">
        <ele>3</ele>
        <time>2022-12-28T21:14:08.308Z</time>
      </trkpt>
      <trkpt lat="47.86214" lon="-4.13834">
        <ele>1</ele>
        <time>2022-12-28T21:14:26.144Z</time>
      </trkpt>
      <trkpt lat="47.86266" lon="-4.13841">
        <ele>1</ele>
        <time>2022-12-28T21:14:43.988Z</time>
      </trkpt>
      <trkpt lat="47.86478" lon="-4.13891">
        <ele>1</ele>
        <time>2022-12-28T21:15:01.867Z</time>
      </trkpt>
      <trkpt lat="47.86512" lon="-4.13899">
        <ele>1</ele>
        <time>2022-12-28T21:15:19.751Z</time>
      </trkpt>
      <trkpt lat="47.86513" lon="-4.139">
        <ele>1</ele>
        <time>2022-12-28T21:15:37.635Z</time>
      </trkpt>
      <trkpt lat="47.86598" lon="-4.1392">
        <ele>1</ele>
        <time>2022-12-28T21:15:55.533Z</time>
      </trkpt>
      <trkpt lat="47.86598" lon="-4.1392">
        <ele>1</ele>
        <time>2022-12-28T21:16:13.431Z</time>
      </trkpt>
      <trkpt lat="47.86625" lon="-4.13926">
        <ele>1</ele>
        <time>2022-12-28T21:16:31.334Z</time>
      </trkpt>
      <trkpt lat="47.86637" lon="-4.13929">
        <ele>1</ele>
        <time>2022-12-28T21:16:49.239Z</time>
      </trkpt>
      <trkpt lat="47.86676" lon="-4.13938">
        <ele>2</ele>
        <time>2022-12-28T21:17:07.150Z</time>
      </trkpt>
      <trkpt lat="47.86708" lon="-4.13946">
        <ele>2</ele>
        <time>2022-12-28T21:17:25.066Z</time>
      </trkpt>
      <trkpt lat="47.86965" lon="-4.14006">
        <ele>2</ele>
        <time>2022-12-28T21:17:43.024Z</time>
      </trkpt>
      <trkpt lat="47.86977" lon="-4.14009">
        <ele>2</ele>
        <time>2022-12-28T21:18:00.984Z</time>
      </trkpt>
      <trkpt lat="47.87099" lon="-4.14038">
        <ele>3</ele>
        <time>2022-12-28T21:18:18.963Z</time>
      </trkpt>
      <trkpt lat="47.87103" lon="-4.14097">
        <ele>3</ele>
        <time>2022-12-28T21:18:36.949Z</time>
      </trkpt>
      <trkpt lat="47.87113" lon="-4.14089">
        <ele>3</ele>
        <time>2022-12-28T21:18:54.937Z</time>
      </trkpt>
      <trkpt lat="47.87127" lon="-4.14106">
        <ele>4</ele>
        <time>2022-12-28T21:19:12.928Z</time>
      </trkpt>
      <trkpt lat="47.87144" lon="-4.14121">
        <ele>4</ele>
        <time>2022-12-28T21:19:30.922Z</time>
      </trkpt>
      <trkpt lat="47.8717" lon="-4.1414">
        <ele>4</ele>
        <time>2022-12-28T21:19:48.920Z</time>
      </trkpt>
      <trkpt lat="47.87187" lon="-4.14156">
        <ele>4</ele>
        <time>2022-12-28T21:20:06.922Z</time>
      </trkpt>
      <trkpt lat="47.87191" lon="-4.14157">
        <ele>5</ele>
        <time>2022-12-28T21:20:24.924Z</time>
      </trkpt>
      <trkpt lat="47.87196" lon="-4.1416">
        <ele>5</ele>
        <time>2022-12-28T21:20:42.927Z</time>
      </trkpt>
      <trkpt lat="47.8722" lon="-4.14184">
        <ele>5</ele>
        <time>2022-12-28T21:21:00.935Z</time>
      </trkpt>
      <trkpt lat="47.87221" lon="-4.14185">
        <ele>6</ele>
        <time>2022-12-28T21:21:18.943Z</time>
      </trkpt>
      <trkpt lat="47.87227" lon="-4.14191">
        <ele>6</ele>
        <time>2022-12-28T21:21:36.952Z</time>
      </trkpt>
      <trkpt lat="47.87237" lon="-4.14196">
        <ele>6</ele>
        <time>2022-12-28T21:21:54.963Z</time>
      </trkpt>
      <trkpt lat="47.87244" lon="-4.14206">
        <ele>7</ele>
        <time>2022-12-28T21:22:12.975Z</time>
      </trkpt>
      <trkpt lat="47.87261" lon="-4.14217">
        <ele>7</ele>
        <time>2022-12-28T21:22:30.990Z</time>
      </trkpt>
      <trkpt lat="47.87269" lon="-4.14225">
        <ele>7</ele>
        <time>2022-12-28T21:22:49.007Z</time>
      </trkpt>
      <trkpt lat="47.87286" lon="-4.14236">
        <ele>8</ele>
        <time>2022-12-28T21:23:07.027Z</time>
      </trkpt>
      <trkpt lat="47.87296" lon="-4.14244">
        <ele>8</ele>
        <time>2022-12-28T21:23:25.049Z</time>
      </trkpt>
      <trkpt lat="47.87303" lon="-4.1425">
        <ele>8</ele>
        <time>2022-12-28T21:23:43.072Z</time>
      </trkpt>
      <trkpt lat="47.8732" lon="-4.14262">
        <ele>8</ele>
        <time>2022-12-28T21:24:01.098Z</time>
      </trkpt>
      <trkpt lat="47.8733" lon="-4.14265">
        <ele>9</ele>
        <time>2022-12-28T21:24:19.126Z</time>
      </trkpt>
      <trkpt lat="47.8734" lon="-4.14272">
        <ele>9</ele>
        <time>2022-12-28T21:24:37.155Z</time>
      </trkpt>
      <trkpt lat="47.8736" lon="-4.14276">
        <ele>9</ele>
        <time>2022-12-28T21:24:55.188Z</time>
      </trkpt>
      <trkpt lat="47.87368" lon="-4.14284">
        <ele>10</ele>
        <time>2022-12-28T21:25:13.222Z</time>
      </trkpt>
      <trkpt lat="47.87369" lon="-4.14284">
        <ele>10</ele>
        <time>2022-12-28T21:25:31.256Z</time>
      </trkpt>
      <trkpt lat="47.87378" lon="-4.14281">
        <ele>10</ele>
        <time>2022-12-28T21:25:49.292Z</time>
      </trkpt>
      <trkpt lat="47.87398" lon="-4.143">
        <ele>10</ele>
        <time>2022-12-28T21:26:07.332Z</time>
      </trkpt>
      <trkpt lat="47.87404" lon="-4.14315">
        <ele>11</ele>
        <time>2022-12-28T21:26:25.373Z</time>
      </trkpt>
      <trkpt lat="47.87407" lon="-4.14324">
        <ele>11</ele>
        <time>2022-12-28T21:26:43.416Z</time>
      </trkpt>
      <trkpt lat="47.87415" lon="-4.14334">
        <ele>11</ele>
        <time>2022-12-28T21:27:01.460Z</time>
      </trkpt>
      <trkpt lat="47.8742" lon="-4.14346">
        <ele>12</ele>
        <time>2022-12-28T21:27:19.506Z</time>
      </trkpt>
      <trkpt lat="47.87429" lon="-4.14352">
        <ele>12</ele>
        <time>2022-12-28T21:27:37.553Z</time>
      </trkpt>
      <trkpt lat="47.87437" lon="-4.14356">
        <ele>12</ele>
        <time>2022-12-28T21:27:55.602Z</time>
      </trkpt>
      <trkpt lat="47.87447" lon="-4.14353">
        <ele>12</ele>
        <time>2022-12-28T21:28:13.652Z</time>
      </trkpt>
      <trkpt lat="47.87457" lon="-4.14354">
        <ele>13</ele>
        <time>2022-12-28T21:28:31.704Z</time>
      </trkpt>
      <trkpt lat="47.87476" lon="-4.14353">
        <ele>13</ele>
        <time>2022-12-28T21:28:49.759Z</time>
      </trkpt>
      <trkpt lat="47.87486" lon="-4.14356">
        <ele>13</ele>
        <time>2022-12-28T21:29:07.815Z</time>
      </trkpt>
      <trkpt lat="47.8749" lon="-4.14363">
        <ele>13</ele>
        <time>2022-12-28T21:29:25.872Z</time>
      </trkpt>
      <trkpt lat="47.875" lon="-4.14377">
        <ele>14</ele>
        <time>2022-12-28T21:29:43.932Z</time>
      </trkpt>
      <trkpt lat="47.87505" lon="-4.14381">
        <ele>14</ele>
        <time>2022-12-28T21:30:01.993Z</time>
      </trkpt>
      <trkpt lat="47.87508" lon="-4.14403">
        <ele>14</ele>
        <time>2022-12-28T21:30:20.056Z</time>
      </trkpt>
      <trkpt lat="47.87508" lon="-4.14404">
        <ele>15</ele>
        <time>2022-12-28T21:30:38.119Z</time>
      </trkpt>
      <trkpt lat="47.8751" lon="-4.14416">
        <ele>15</ele>
        <time>2022-12-28T21:30:56.183Z</time>
      </trkpt>
      <trkpt lat="47.87512" lon="-4.14488">
        <ele>15</ele>
        <time>2022-12-28T21:31:14.255Z</time>
      </trkpt>
      <trkpt lat="47.87514" lon="-4.14517">
        <ele>16</ele>
        <time>2022-12-28T21:31:32.330Z</time>
      </trkpt>
      <trkpt lat="47.87515" lon="-4.14531">
        <ele>16</ele>
        <time>2022-12-28T21:31:50.407Z</time>
      </trkpt>
      <trkpt lat="47.87515" lon="-4.14531">
        <ele>16</ele>
        <time>2022-12-28T21:32:08.484Z</time>
      </trkpt>
      <trkpt lat="47.87515" lon="-4.14534">
        <ele>17</ele>
        <time>2022-12-28T21:32:26.561Z</time>
      </trkpt>
      <trkpt lat="47.87516" lon="-4.14548">
        <ele>17</ele>
        <time>2022-12-28T21:32:44.640Z</time>
      </trkpt>
      <trkpt lat="47.8755" lon="-4.14531">
        <ele>18</ele>
        <time>2022-12-28T21:33:02.725Z</time>
      </trkpt>
      <trkpt lat="47.87573" lon="-4.14501">
        <ele>18</ele>
        <time>2022-12-28T21:33:20.814Z</time>
      </trkpt>
      <trkpt lat="47.87594" lon="-4.14474">
        <ele>19</ele>
        <time>2022-12-28T21:33:38.908Z</time>
      </trkpt>
      <trkpt lat="47.87604" lon="-4.14466">
        <ele>19</ele>
        <time>2022-12-28T21:33:57.004Z</time>
      </trkpt>
      <trkpt lat="47.8763" lon="-4.14457">
        <ele>20</ele>
        <time>2022-12-28T21:34:15.104Z</time>
      </trkpt>
      <trkpt lat="47.87696" lon="-4.14453">
        <ele>20</ele>
        <time>2022-12-28T21:34:33.215Z</time>
      </trkpt>
      <trkpt lat="47.87696" lon="-4.14453">
        <ele>21</ele>
        <time>2022-12-28T21:34:51.326Z</time>
      </trkpt>
      <trkpt lat="47.87721" lon="-4.14449">
        <ele>21</ele>
        <time>2022-12-28T21:35:09.441Z</time>
      </trkpt>
      <trkpt lat="47.87737" lon="-4.14441">
        <ele>22</ele>
        <time>2022-12-28T21:35:27.558Z</time>
      </trkpt>
      <trkpt lat="47.87746" lon="-4.14434">
        <ele>22</ele>
        <time>2022-12-28T21:35:45.677Z</time>
      </trkpt>
      <trkpt lat="47.87754" lon="-4.14425">
        <ele>23</ele>
        <time>2022-12-28T21:36:03.797Z</time>
      </trkpt>
      <trkpt lat="47.87761" lon="-4.14411">
        <ele>24</ele>
        <time>2022-12-28T21:36:21.919Z</time>
      </trkpt>
      <trkpt lat="47.8777" lon="-4.1438">
        <ele>24</ele>
        <time>2022-12-28T21:36:40.045Z</time>
      </trkpt>
      <trkpt lat="47.87774" lon="-4.14379">
        <ele>25</ele>
        <time>2022-12-28T21:36:58.172Z</time>
      </trkpt>
      <trkpt lat="47.87787" lon="-4.14375">
        <ele>26</ele>
        <time>2022-12-28T21:37:16.301Z</time>
      </trkpt>
      <trkpt lat="47.87799" lon="-4.14368">
        <ele>26</ele>
        <time>2022-12-28T21:37:34.432Z</time>
      </trkpt>
      <trkpt lat="47.87803" lon="-4.14351">
        <ele>27</ele>
        <time>2022-12-28T21:37:52.565Z</time>
      </trkpt>
      <trkpt lat="47.87804" lon="-4.14339">
        <ele>27</ele>
        <time>2022-12-28T21:38:10.699Z</time>
      </trkpt>
      <trkpt lat="47.87812" lon="-4.14331">
        <ele>28</ele>
        <time>2022-12-28T21:38:28.835Z</time>
      </trkpt>
      <trkpt lat="47.8783" lon="-4.14273">
        <ele>29</ele>
        <time>2022-12-28T21:38:46.978Z</time>
      </trkpt>
      <trkpt lat="47.87836" lon="-4.14255">
        <ele>29</ele>
        <time>2022-12-28T21:39:05.123Z</time>
      </trkpt>
      <trkpt lat="47.87835" lon="-4.14235">
        <ele>30</ele>
        <time>2022-12-28T21:39:23.270Z</time>
      </trkpt>
      <trkpt lat="47.87839" lon="-4.14224">
        <ele>30</ele>
        <time>2022-12-28T21:39:41.418Z</time>
      </trkpt>
      <trkpt lat="47.87843" lon="-4.14216">
        <ele>31</ele>
        <time>2022-12-28T21:39:59.567Z</time>
      </trkpt>
      <trkpt lat="47.87853" lon="-4.14204">
        <ele>31</ele>
        <time>2022-12-28T21:40:17.718Z</time>
      </trkpt>
      <trkpt lat="47.8786" lon="-4.14184">
        <ele>32</ele>
        <time>2022-12-28T21:40:35.872Z</time>
      </trkpt>
      <trkpt lat="47.87863" lon="-4.14167">
        <ele>32</ele>
        <time>2022-12-28T21:40:54.028Z</time>
      </trkpt>
      <trkpt lat="47.87893" lon="-4.14173">
        <ele>33</ele>
        <time>2022-12-28T21:41:12.188Z</time>
      </trkpt>
      <trkpt lat="47.87895" lon="-4.14098">
        <ele>33</ele>
        <time>2022-12-28T21:41:30.356Z</time>
      </trkpt>
      <trkpt lat="47.87893" lon="-4.14037">
        <ele>33</ele>
        <time>2022-12-28T21:41:48.531Z</time>
      </trkpt>
      <trkpt lat="47.87891" lon="-4.13986">
        <ele>34</ele>
        <time>2022-12-28T21:42:06.712Z</time>
      </trkpt>
      <trkpt lat="47.87891" lon="-4.13985">
        <ele>34</ele>
        <time>2022-12-28T21:42:24.893Z</time>
      </trkpt>
      <trkpt lat="47.8789" lon="-4.13961">
        <ele>34</ele>
        <time>2022-12-28T21:42:43.076Z</time>
      </trkpt>
      <trkpt lat="47.8788" lon="-4.13886">
        <ele>34</ele>
        <time>2022-12-28T21:43:01.267Z</time>
      </trkpt>
      <trkpt lat="47.87875" lon="-4.1386">
        <ele>34</ele>
        <time>2022-12-28T21:43:19.461Z</time>
      </trkpt>
      <trkpt lat="47.87875" lon="-4.1386">
        <ele>34</ele>
        <time>2022-12-28T21:43:37.655Z</time>
      </trkpt>
      <trkpt lat="47.87875" lon="-4.13858">
        <ele>34</ele>
        <time>2022-12-28T21:43:55.850Z</time>
      </trkpt>
      <trkpt lat="47.87872" lon="-4.1384">
        <ele>34</ele>
        <time>2022-12-28T21:44:14.047Z</time>
      </trkpt>
      <trkpt lat="47.87865" lon="-4.13804">
        <ele>34</ele>
        <time>2022-12-28T21:44:32.248Z</time>
      </trkpt>
      <trkpt lat="47.87862" lon="-4.13787">
        <ele>34</ele>
        <time>2022-12-28T21:44:50.451Z</time>
      </trkpt>
      <trkpt lat="47.87861" lon="-4.13784">
        <ele>34</ele>
        <time>2022-12-28T21:45:08.654Z</time>
      </trkpt>
      <trkpt lat="47.87861" lon="-4.13784">
        <ele>34</ele>
        <time>2022-12-28T21:45:26.857Z</time>
      </trkpt>
      <trkpt lat="47.87853" lon="-4.13748">
        <ele>33</ele>
        <time>2022-12-28T21:45:45.064Z</time>
      </trkpt>
      <trkpt lat="47.87853" lon="-4.13744">
        <ele>33</ele>
        <time>2022-12-28T21:46:03.271Z</time>
      </trkpt>
      <trkpt lat="47.87825" lon="-4.13628">
        <ele>33</ele>
        <time>2022-12-28T21:46:21.492Z</time>
      </trkpt>
      <trkpt lat="47.87824" lon="-4.1362">
        <ele>32</ele>
        <time>2022-12-28T21:46:39.714Z</time>
      </trkpt>
      <trkpt lat="47.87806" lon="-4.13567">
        <ele>32</ele>
        <time>2022-12-28T21:46:57.942Z</time>
      </trkpt>
      <trkpt lat="47.87795" lon="-4.13517">
        <ele>32</ele>
        <time>2022-12-28T21:47:16.176Z</time>
      </trkpt>
      <trkpt lat="47.87783" lon="-4.13485">
        <ele>31</ele>
        <time>2022-12-28T21:47:34.414Z</time>
      </trkpt>
      <trkpt lat="47.87774" lon="-4.13459">
        <ele>31</ele>
        <time>2022-12-28T21:47:52.655Z</time>
      </trkpt>
      <trkpt lat="47.87782" lon="-4.13446">
        <ele>30</ele>
        <time>2022-12-28T21:48:10.897Z</time>
      </trkpt>
      <trkpt lat="47.87783" lon="-4.13437">
        <ele>30</ele>
        <time>2022-12-28T21:48:29.140Z</time>
      </trkpt>
      <trkpt lat="47.87786" lon="-4.13433">
        <ele>30</ele>
        <time>2022-12-28T21:48:47.384Z</time>
      </trkpt>
      <trkpt lat="47.87789" lon="-4.13416">
        <ele>29</ele>
        <time>2022-12-28T21:49:05.630Z</time>
      </trkpt>
      <trkpt lat="47.87791" lon="-4.13418">
        <ele>29</ele>
        <time>2022-12-28T21:49:23.876Z</time>
      </trkpt>
      <trkpt lat="47.87798" lon="-4.1341">
        <ele>28</ele>
        <time>2022-12-28T21:49:42.124Z</time>
      </trkpt>
      <trkpt lat="47.87804" lon="-4.13386">
        <ele>28</ele>
        <time>2022-12-28T21:50:00.374Z</time>
      </trkpt>
      <trkpt lat="47.87815" lon="-4.13326">
        <ele>27</ele>
        <time>2022-12-28T21:50:18.631Z</time>
      </trkpt>
      <trkpt lat="47.87827" lon="-4.13299">
        <ele>27</ele>
        <time>2022-12-28T21:50:36.892Z</time>
      </trkpt>
      <trkpt lat="47.87842" lon="-4.1322">
        <ele>26</ele>
        <time>2022-12-28T21:50:55.161Z</time>
      </trkpt>
      <trkpt lat="47.87867" lon="-4.13136">
        <ele>26</ele>
        <time>2022-12-28T21:51:13.440Z</time>
      </trkpt>
      <trkpt lat="47.8788" lon="-4.13107">
        <ele>25</ele>
        <time>2022-12-28T21:51:31.723Z</time>
      </trkpt>
      <trkpt lat="47.87901" lon="-4.1306">
        <ele>24</ele>
        <time>2022-12-28T21:51:50.012Z</time>
      </trkpt>
      <trkpt lat="47.87948" lon="-4.12984">
        <ele>24</ele>
        <time>2022-12-28T21:52:08.312Z</time>
      </trkpt>
      <trkpt lat="47.87966" lon="-4.12954">
        <ele>24</ele>
        <time>2022-12-28T21:52:26.617Z</time>
      </trkpt>
      <trkpt lat="47.87966" lon="-4.12954">
        <ele>23</ele>
        <time>2022-12-28T21:52:44.922Z</time>
      </trkpt>
      <trkpt lat="47.87971" lon="-4.12947">
        <ele>23</ele>
        <time>2022-12-28T21:53:03.228Z</time>
      </trkpt>
      <trkpt lat="47.87972" lon="-4.12946">
        <ele>22</ele>
        <time>2022-12-28T21:53:21.534Z</time>
      </trkpt>
      <trkpt lat="47.88033" lon="-4.12856">
        <ele>22</ele>
        <time>2022-12-28T21:53:39.854Z</time>
      </trkpt>
      <trkpt lat="47.88035" lon="-4.12855">
        <ele>22</ele>
        <time>2022-12-28T21:53:58.174Z</time>
      </trkpt>
      <trkpt lat="47.88044" lon="-4.12842">
        <ele>21</ele>
        <time>2022-12-28T21:54:16.496Z</time>
      </trkpt>
      <trkpt lat="47.88044" lon="-4.12842">
        <ele>21</ele>
        <time>2022-12-28T21:54:34.818Z</time>
      </trkpt>
      <trkpt lat="47.88085" lon="-4.12782">
        <ele>21</ele>
        <time>2022-12-28T21:54:53.149Z</time>
      </trkpt>
      <trkpt lat="47.8809" lon="-4.12775">
        <ele>20</ele>
        <time>2022-12-28T21:55:11.481Z</time>
      </trkpt>
      <trkpt lat="47.88108" lon="-4.12748">
        <ele>20</ele>
        <time>2022-12-28T21:55:29.817Z</time>
      </trkpt>
      <trkpt lat="47.88125" lon="-4.12692">
        <ele>19</ele>
        <time>2022-12-28T21:55:48.160Z</time>
      </trkpt>
      <trkpt lat="47.88171" lon="-4.12625">
        <ele>19</ele>
        <time>2022-12-28T21:56:06.513Z</time>
      </trkpt>
      <trkpt lat="47.88171" lon="-4.12625">
        <ele>19</ele>
        <time>2022-12-28T21:56:24.866Z</time>
      </trkpt>
      <trkpt lat="47.88179" lon="-4.12618">
        <ele>19</ele>
        <time>2022-12-28T21:56:43.221Z</time>
      </trkpt>
      <trkpt lat="47.88203" lon="-4.12586">
        <ele>19</ele>
        <time>2022-12-28T21:57:01.581Z</time>
      </trkpt>
      <trkpt lat="47.88223" lon="-4.12555">
        <ele>18</ele>
        <time>2022-12-28T21:57:19.946Z</time>
      </trkpt>
      <trkpt lat="47.88236" lon="-4.12546">
        <ele>18</ele>
        <time>2022-12-28T21:57:38.313Z</time>
      </trkpt>
      <trkpt lat="47.8825" lon="-4.12537">
        <ele>18</ele>
        <time>2022-12-28T21:57:56.682Z</time>
      </trkpt>
      <trkpt lat="47.88236" lon="-4.12546">
        <ele>18</ele>
        <time>2022-12-28T21:58:15.054Z</time>
      </trkpt>
      <trkpt lat="47.8825" lon="-4.12537">
        <ele>18</ele>
        <time>2022-12-28T21:58:33.428Z</time>
      </trkpt>
      <trkpt lat="47.88258" lon="-4.12533">
        <ele>18</ele>
        <time>2022-12-28T21:58:51.803Z</time>
      </trkpt>
      <trkpt lat="47.88279" lon="-4.12502">
        <ele>17</ele>
        <time>2022-12-28T21:59:10.183Z</time>
      </trkpt>
      <trkpt lat="47.88289" lon="-4.12489">
        <ele>17</ele>
        <time>2022-12-28T21:59:28.565Z</time>
      </trkpt>
      <trkpt lat="47.88289" lon="-4.12488">
        <ele>17</ele>
        <time>2022-12-28T21:59:46.947Z</time>
      </trkpt>
      <trkpt lat="47.88297" lon="-4.12477">
        <ele>17</ele>
        <time>2022-12-28T22:00:05.331Z</time>
      </trkpt>
      <trkpt lat="47.88339" lon="-4.12418">
        <ele>17</ele>
        <time>2022-12-28T22:00:23.724Z</time>
      </trkpt>
      <trkpt lat="47.88422" lon="-4.1229">
        <ele>15</ele>
        <time>2022-12-28T22:00:42.136Z</time>
      </trkpt>
      <trkpt lat="47.88566" lon="-4.1208">
        <ele>16</ele>
        <time>2022-12-28T22:01:00.581Z</time>
      </trkpt>
      <trkpt lat="47.88574" lon="-4.12068">
        <ele>16</ele>
        <time>2022-12-28T22:01:19.028Z</time>
      </trkpt>
      <trkpt lat="47.88614" lon="-4.12009">
        <ele>14</ele>
        <time>2022-12-28T22:01:37.484Z</time>
      </trkpt>
      <trkpt lat="47.88645" lon="-4.11954">
        <ele>14</ele>
        <time>2022-12-28T22:01:55.947Z</time>
      </trkpt>
      <trkpt lat="47.88666" lon="-4.11909">
        <ele>15</ele>
        <time>2022-12-28T22:02:14.416Z</time>
      </trkpt>
      <trkpt lat="47.88681" lon="-4.11867">
        <ele>15</ele>
        <time>2022-12-28T22:02:32.890Z</time>
      </trkpt>
      <trkpt lat="47.8869" lon="-4.1182">
        <ele>15</ele>
        <time>2022-12-28T22:02:51.370Z</time>
      </trkpt>
      <trkpt lat="47.88692" lon="-4.11818">
        <ele>15</ele>
        <time>2022-12-28T22:03:09.850Z</time>
      </trkpt>
      <trkpt lat="47.88693" lon="-4.118">
        <ele>17</ele>
        <time>2022-12-28T22:03:28.332Z</time>
      </trkpt>
      <trkpt lat="47.88695" lon="-4.11785">
        <ele>16</ele>
        <time>2022-12-28T22:03:46.816Z</time>
      </trkpt>
      <trkpt lat="47.88698" lon="-4.11749">
        <ele>17</ele>
        <time>2022-12-28T22:04:05.303Z</time>
      </trkpt>
      <trkpt lat="47.88698" lon="-4.11748">
        <ele>17</ele>
        <time>2022-12-28T22:04:23.790Z</time>
      </trkpt>
      <trkpt lat="47.88699" lon="-4.11731">
        <ele>16</ele>
        <time>2022-12-28T22:04:42.279Z</time>
      </trkpt>
      <trkpt lat="47.88699" lon="-4.117">
        <ele>17</ele>
        <time>2022-12-28T22:05:00.772Z</time>
      </trkpt>
      <trkpt lat="47.88699" lon="-4.11682">
        <ele>17</ele>
        <time>2022-12-28T22:05:19.267Z</time>
      </trkpt>
      <trkpt lat="47.88699" lon="-4.11681">
        <ele>17</ele>
        <time>2022-12-28T22:05:37.762Z</time>
      </trkpt>
      <trkpt lat="47.88693" lon="-4.11703">
        <ele>16</ele>
        <time>2022-12-28T22:05:56.259Z</time>
      </trkpt>
      <trkpt lat="47.88688" lon="-4.11719">
        <ele>16</ele>
        <time>2022-12-28T22:06:14.758Z</time>
      </trkpt>
      <trkpt lat="47.88685" lon="-4.11737">
        <ele>16</ele>
        <time>2022-12-28T22:06:33.259Z</time>
      </trkpt>
      <trkpt lat="47.88685" lon="-4.11739">
        <ele>16</ele>
        <time>2022-12-28T22:06:51.761Z</time>
      </trkpt>
      <trkpt lat="47.88682" lon="-4.11758">
        <ele>15</ele>
        <time>2022-12-28T22:07:10.265Z</time>
      </trkpt>
      <trkpt lat="47.88682" lon="-4.11758">
        <ele>15</ele>
        <time>2022-12-28T22:07:28.769Z</time>
      </trkpt>
      <trkpt lat="47.88675" lon="-4.11801">
        <ele>15</ele>
        <time>2022-12-28T22:07:47.277Z</time>
      </trkpt>
      <trkpt lat="47.88674" lon="-4.11808">
        <ele>15</ele>
        <time>2022-12-28T22:08:05.786Z</time>
      </trkpt>
      <trkpt lat="47.88675" lon="-4.11832">
        <ele>14</ele>
        <time>2022-12-28T22:08:24.298Z</time>
      </trkpt>
      <trkpt lat="47.88663" lon="-4.11841">
        <ele>14</ele>
        <time>2022-12-28T22:08:42.812Z</time>
      </trkpt>
      <trkpt lat="47.88629" lon="-4.11867">
        <ele>14</ele>
        <time>2022-12-28T22:09:01.332Z</time>
      </trkpt>
      <trkpt lat="47.88593" lon="-4.11877">
        <ele>13</ele>
        <time>2022-12-28T22:09:19.858Z</time>
      </trkpt>
      <trkpt lat="47.88593" lon="-4.11877">
        <ele>13</ele>
        <time>2022-12-28T22:09:38.384Z</time>
      </trkpt>
      <trkpt lat="47.88584" lon="-4.11871">
        <ele>12</ele>
        <time>2022-12-28T22:09:56.911Z</time>
      </trkpt>
      <trkpt lat="47.88577" lon="-4.11853">
        <ele>12</ele>
        <time>2022-12-28T22:10:15.441Z</time>
      </trkpt>
      <trkpt lat="47.88565" lon="-4.11843">
        <ele>12</ele>
        <time>2022-12-28T22:10:33.973Z</time>
      </trkpt>
      <trkpt lat="47.88562" lon="-4.1184">
        <ele>12</ele>
        <time>2022-12-28T22:10:52.506Z</time>
      </trkpt>
      <trkpt lat="47.88548" lon="-4.1182">
        <ele>11</ele>
        <time>2022-12-28T22:11:11.042Z</time>
      </trkpt>
      <trkpt lat="47.88532" lon="-4.11788">
        <ele>10</ele>
        <time>2022-12-28T22:11:29.582Z</time>
      </trkpt>
      <trkpt lat="47.88518" lon="-4.11753">
        <ele>10</ele>
        <time>2022-12-28T22:11:48.126Z</time>
      </trkpt>
      <trkpt lat="47.88502" lon="-4.11714">
        <ele>8</ele>
        <time>2022-12-28T22:12:06.675Z</time>
      </trkpt>
      <trkpt lat="47.88499" lon="-4.1171">
        <ele>10</ele>
        <time>2022-12-28T22:12:25.225Z</time>
      </trkpt>
      <trkpt lat="47.88499" lon="-4.11709">
        <ele>9</ele>
        <time>2022-12-28T22:12:43.775Z</time>
      </trkpt>
      <trkpt lat="47.88475" lon="-4.11664">
        <ele>7</ele>
        <time>2022-12-28T22:13:02.331Z</time>
      </trkpt>
      <trkpt lat="47.88473" lon="-4.11652">
        <ele>7</ele>
        <time>2022-12-28T22:13:20.889Z</time>
      </trkpt>
      <trkpt lat="47.88466" lon="-4.11633">
        <ele>7</ele>
        <time>2022-12-28T22:13:39.449Z</time>
      </trkpt>
      <trkpt lat="47.88472" lon="-4.11618">
        <ele>7</ele>
        <time>2022-12-28T22:13:58.011Z</time>
      </trkpt>
      <trkpt lat="47.88468" lon="-4.11599">
        <ele>8</ele>
        <time>2022-12-28T22:14:16.575Z</time>
      </trkpt>
      <trkpt lat="47.88468" lon="-4.11597">
        <ele>8</ele>
        <time>2022-12-28T22:14:35.139Z</time>
      </trkpt>
      <trkpt lat="47.88467" lon="-4.11593">
        <ele>7</ele>
        <time>2022-12-28T22:14:53.703Z</time>
      </trkpt>
      <trkpt lat="47.88468" lon="-4.11583">
        <ele>7</ele>
        <time>2022-12-28T22:15:12.268Z</time>
      </trkpt>
      <trkpt lat="47.8847" lon="-4.11579">
        <ele>7</ele>
        <time>2022-12-28T22:15:30.834Z</time>
      </trkpt>
      <trkpt lat="47.8847" lon="-4.11579">
        <ele>7</ele>
        <time>2022-12-28T22:15:49.400Z</time>
      </trkpt>
      <trkpt lat="47.8849" lon="-4.11534">
        <ele>6</ele>
        <time>2022-12-28T22:16:07.972Z</time>
      </trkpt>
      <trkpt lat="47.88503" lon="-4.11527">
        <ele>6</ele>
        <time>2022-12-28T22:16:26.546Z</time>
      </trkpt>
      <trkpt lat="47.88516" lon="-4.11517">
        <ele>7</ele>
        <time>2022-12-28T22:16:45.122Z</time>
      </trkpt>
      <trkpt lat="47.88517" lon="-4.11516">
        <ele>6</ele>
        <time>2022-12-28T22:17:03.699Z</time>
      </trkpt>
      <trkpt lat="47.88526" lon="-4.11499">
        <ele>6</ele>
        <time>2022-12-28T22:17:22.278Z</time>
      </trkpt>
      <trkpt lat="47.88525" lon="-4.11482">
        <ele>7</ele>
        <time>2022-12-28T22:17:40.859Z</time>
      </trkpt>
      <trkpt lat="47.88524" lon="-4.11457">
        <ele>6</ele>
        <time>2022-12-28T22:17:59.442Z</time>
      </trkpt>
      <trkpt lat="47.88534" lon="-4.11428">
        <ele>6</ele>
        <time>2022-12-28T22:18:18.029Z</time>
      </trkpt>
      <trkpt lat="47.88535" lon="-4.11422">
        <ele>6</ele>
        <time>2022-12-28T22:18:36.617Z</time>
      </trkpt>
      <trkpt lat="47.88534" lon="-4.11411">
        <ele>6</ele>
        <time>2022-12-28T22:18:55.206Z</time>
      </trkpt>
      <trkpt lat="47.88527" lon="-4.11397">
        <ele>6</ele>
        <time>2022-12-28T22:19:13.797Z</time>
      </trkpt>
      <trkpt lat="47.88525" lon="-4.11383">
        <ele>6</ele>
        <time>2022-12-28T22:19:32.389Z</time>
      </trkpt>
      <trkpt lat="47.88526" lon="-4.11382">
        <ele>6</ele>
        <time>2022-12-28T22:19:50.981Z</time>
      </trkpt>
      <trkpt lat="47.88538" lon="-4.11364">
        <ele>6</ele>
        <time>2022-12-28T22:20:09.576Z</time>
      </trkpt>
      <trkpt lat="47.88538" lon="-4.11354">
        <ele>6</ele>
        <time>2022-12-28T22:20:28.172Z</time>
      </trkpt>
      <trkpt lat="47.88533" lon="-4.11346">
        <ele>6</ele>
        <time>2022-12-28T22:20:46.769Z</time>
      </trkpt>
      <trkpt lat="47.88533" lon="-4.11346">
        <ele>6</ele>
        <time>2022-12-28T22:21:05.366Z</time>
      </trkpt>
      <trkpt lat="47.8853" lon="-4.11344">
        <ele>6</ele>
        <time>2022-12-28T22:21:23.964Z</time>
      </trkpt>
      <trkpt lat="47.88529" lon="-4.11343">
        <ele>6</ele>
        <time>2022-12-28T22:21:42.562Z</time>
      </trkpt>
      <trkpt lat="47.88522" lon="-4.11338">
        <ele>5</ele>
        <time>2022-12-28T22:22:01.161Z</time>
      </trkpt>
      <trkpt lat="47.88505" lon="-4.1132">
        <ele>5</ele>
        <time>2022-12-28T22:22:19.764Z</time>
      </trkpt>
      <trkpt lat="47.8846" lon="-4.1127">
        <ele>5</ele>
        <time>2022-12-28T22:22:38.376Z</time>
      </trkpt>
      <trkpt lat="47.8846" lon="-4.11268">
        <ele>5</ele>
        <time>2022-12-28T22:22:56.988Z</time>
      </trkpt>
      <trkpt lat="47.8846" lon="-4.11266">
        <ele>5</ele>
        <time>2022-12-28T22:23:15.600Z</time>
      </trkpt>
      <trkpt lat="47.8846" lon="-4.11266">
        <ele>5</ele>
        <time>2022-12-28T22:23:34.212Z</time>
      </trkpt>
      <trkpt lat="47.88459" lon="-4.11245">
        <ele>5</ele>
        <time>2022-12-28T22:23:52.826Z</time>
      </trkpt>
      <trkpt lat="47.88462" lon="-4.11231">
        <ele>5</ele>
        <time>2022-12-28T22:24:11.442Z</time>
      </trkpt>
      <trkpt lat="47.88472" lon="-4.112">
        <ele>5</ele>
        <time>2022-12-28T22:24:30.062Z</time>
      </trkpt>
      <trkpt lat="47.88477" lon="-4.1119">
        <ele>5</ele>
        <time>2022-12-28T22:24:48.683Z</time>
      </trkpt>
      <trkpt lat="47.88483" lon="-4.11186">
        <ele>5</ele>
        <time>2022-12-28T22:25:07.305Z</time>
      </trkpt>
      <trkpt lat="47.88474" lon="-4.1117">
        <ele>4</ele>
        <time>2022-12-28T22:25:25.929Z</time>
      </trkpt>
      <trkpt lat="47.88444" lon="-4.11119">
        <ele>4</ele>
        <time>2022-12-28T22:25:44.561Z</time>
      </trkpt>
      <trkpt lat="47.88432" lon="-4.11107">
        <ele>4</ele>
        <time>2022-12-28T22:26:03.195Z</time>
      </trkpt>
      <trkpt lat="47.88404" lon="-4.11091">
        <ele>4</ele>
        <time>2022-12-28T22:26:21.834Z</time>
      </trkpt>
      <trkpt lat="47.88363" lon="-4.11081">
        <ele>4</ele>
        <time>2022-12-28T22:26:40.479Z</time>
      </trkpt>
      <trkpt lat="47.88346" lon="-4.11071">
        <ele>4</ele>
        <time>2022-12-28T22:26:59.127Z</time>
      </trkpt>
      <trkpt lat="47.8834" lon="-4.11053">
        <ele>4</ele>
        <time>2022-12-28T22:27:17.778Z</time>
      </trkpt>
      <trkpt lat="47.88335" lon="-4.11014">
        <ele>4</ele>
        <time>2022-12-28T22:27:36.433Z</time>
      </trkpt>
      <trkpt lat="47.88339" lon="-4.10999">
        <ele>4</ele>
        <time>2022-12-28T22:27:55.089Z</time>
      </trkpt>
      <trkpt lat="47.88348" lon="-4.10986">
        <ele>3</ele>
        <time>2022-12-28T22:28:13.748Z</time>
      </trkpt>
      <trkpt lat="47.8835" lon="-4.10983">
        <ele>2</ele>
        <time>2022-12-28T22:28:32.407Z</time>
      </trkpt>
      <trkpt lat="47.88351" lon="-4.10981">
        <ele>3</ele>
        <time>2022-12-28T22:28:51.066Z</time>
      </trkpt>
      <trkpt lat="47.88355" lon="-4.10968">
        <ele>2</ele>
        <time>2022-12-28T22:29:09.727Z</time>
      </trkpt>
      <trkpt lat="47.8836" lon="-4.10952">
        <ele>3</ele>
        <time>2022-12-28T22:29:28.390Z</time>
      </trkpt>
      <trkpt lat="47.88325" lon="-4.10886">
        <ele>2</ele>
        <time>2022-12-28T22:29:47.062Z</time>
      </trkpt>
      <trkpt lat="47.88306" lon="-4.10867">
        <ele>2</ele>
        <time>2022-12-28T22:30:05.737Z</time>
      </trkpt>
      <trkpt lat="47.883" lon="-4.10866">
        <ele>2</ele>
        <time>2022-12-28T22:30:24.413Z</time>
      </trkpt>
      <trkpt lat="47.88296" lon="-4.10857">
        <ele>2</ele>
        <time>2022-12-28T22:30:43.091Z</time>
      </trkpt>
      <trkpt lat="47.88291" lon="-4.10832">
        <ele>2</ele>
        <time>2022-12-28T22:31:01.771Z</time>
      </trkpt>
      <trkpt lat="47.88287" lon="-4.10818">
        <ele>2</ele>
        <time>2022-12-28T22:31:20.453Z</time>
      </trkpt>
      <trkpt lat="47.88263" lon="-4.10773">
        <ele>2</ele>
        <time>2022-12-28T22:31:39.141Z</time>
      </trkpt>
      <trkpt lat="47.88243" lon="-4.10748">
        <ele>1</ele>
        <time>2022-12-28T22:31:57.834Z</time>
      </trkpt>
      <trkpt lat="47.88239" lon="-4.10743">
        <ele>2</ele>
        <time>2022-12-28T22:32:16.527Z</time>
      </trkpt>
      <trkpt lat="47.88238" lon="-4.10742">
        <ele>1</ele>
        <time>2022-12-28T22:32:35.220Z</time>
      </trkpt>
      <trkpt lat="47.88231" lon="-4.10728">
        <ele>2</ele>
        <time>2022-12-28T22:32:53.915Z</time>
      </trkpt>
      <trkpt lat="47.88184" lon="-4.10645">
        <ele>2</ele>
        <time>2022-12-28T22:33:12.622Z</time>
      </trkpt>
      <trkpt lat="47.88178" lon="-4.1064">
        <ele>3</ele>
        <time>2022-12-28T22:33:31.330Z</time>
      </trkpt>
      <trkpt lat="47.88151" lon="-4.10601">
        <ele>4</ele>
        <time>2022-12-28T22:33:50.044Z</time>
      </trkpt>
      <trkpt lat="47.88126" lon="-4.10572">
        <ele>5</ele>
        <time>2022-12-28T22:34:08.763Z</time>
      </trkpt>
      <trkpt lat="47.88116" lon="-4.10564">
        <ele>2</ele>
        <time>2022-12-28T22:34:27.484Z</time>
      </trkpt>
      <trkpt lat="47.88108" lon="-4.10558">
        <ele>5</ele>
        <time>2022-12-28T22:34:46.207Z</time>
      </trkpt>
      <trkpt lat="47.88116" lon="-4.10564">
        <ele>3</ele>
        <time>2022-12-28T22:35:04.931Z</time>
      </trkpt>
      <trkpt lat="47.88108" lon="-4.10558">
        <ele>5</ele>
        <time>2022-12-28T22:35:23.656Z</time>
      </trkpt>
      <trkpt lat="47.8809" lon="-4.10548">
        <ele>5</ele>
        <time>2022-12-28T22:35:42.385Z</time>
      </trkpt>
      <trkpt lat="47.8809" lon="-4.10548">
        <ele>5</ele>
        <time>2022-12-28T22:36:01.114Z</time>
      </trkpt>
      <trkpt lat="47.88086" lon="-4.10545">
        <ele>6</ele>
        <time>2022-12-28T22:36:19.843Z</time>
      </trkpt>
      <trkpt lat="47.88083" lon="-4.10552">
        <ele>6</ele>
        <time>2022-12-28T22:36:38.573Z</time>
      </trkpt>
      <trkpt lat="47.88079" lon="-4.1056">
        <ele>6</ele>
        <time>2022-12-28T22:36:57.304Z</time>
      </trkpt>
      <trkpt lat="47.88078" lon="-4.10598">
        <ele>7</ele>
        <time>2022-12-28T22:37:16.039Z</time>
      </trkpt>
      <trkpt lat="47.88066" lon="-4.10592">
        <ele>7</ele>
        <time>2022-12-28T22:37:34.776Z</time>
      </trkpt>
      <trkpt lat="47.88059" lon="-4.10589">
        <ele>8</ele>
        <time>2022-12-28T22:37:53.514Z</time>
      </trkpt>
      <trkpt lat="47.88059" lon="-4.10589">
        <ele>8</ele>
        <time>2022-12-28T22:38:12.252Z</time>
      </trkpt>
      <trkpt lat="47.88044" lon="-4.10574">
        <ele>9</ele>
        <time>2022-12-28T22:38:30.993Z</time>
      </trkpt>
      <trkpt lat="47.8803" lon="-4.10584">
        <ele>8</ele>
        <time>2022-12-28T22:38:49.737Z</time>
      </trkpt>
      <trkpt lat="47.88023" lon="-4.10588">
        <ele>9</ele>
        <time>2022-12-28T22:39:08.482Z</time>
      </trkpt>
      <trkpt lat="47.8802" lon="-4.10593">
        <ele>9</ele>
        <time>2022-12-28T22:39:27.228Z</time>
      </trkpt>
      <trkpt lat="47.8801" lon="-4.10607">
        <ele>9</ele>
        <time>2022-12-28T22:39:45.976Z</time>
      </trkpt>
      <trkpt lat="47.87997" lon="-4.10624">
        <ele>9</ele>
        <time>2022-12-28T22:40:04.727Z</time>
      </trkpt>
      <trkpt lat="47.87978" lon="-4.10638">
        <ele>10</ele>
        <time>2022-12-28T22:40:23.481Z</time>
      </trkpt>
      <trkpt lat="47.87972" lon="-4.10638">
        <ele>11</ele>
        <time>2022-12-28T22:40:42.236Z</time>
      </trkpt>
      <trkpt lat="47.87968" lon="-4.10632">
        <ele>11</ele>
        <time>2022-12-28T22:41:00.992Z</time>
      </trkpt>
      <trkpt lat="47.8796" lon="-4.10641">
        <ele>12</ele>
        <time>2022-12-28T22:41:19.749Z</time>
      </trkpt>
      <trkpt lat="47.87958" lon="-4.10654">
        <ele>13</ele>
        <time>2022-12-28T22:41:38.508Z</time>
      </trkpt>
      <trkpt lat="47.87951" lon="-4.10662">
        <ele>13</ele>
        <time>2022-12-28T22:41:57.268Z</time>
      </trkpt>
      <trkpt lat="47.87944" lon="-4.10666">
        <ele>14</ele>
        <time>2022-12-28T22:42:16.029Z</time>
      </trkpt>
      <trkpt lat="47.87943" lon="-4.10665">
        <ele>14</ele>
        <time>2022-12-28T22:42:34.791Z</time>
      </trkpt>
      <trkpt lat="47.87936" lon="-4.10663">
        <ele>15</ele>
        <time>2022-12-28T22:42:53.554Z</time>
      </trkpt>
      <trkpt lat="47.87929" lon="-4.10655">
        <ele>15</ele>
        <time>2022-12-28T22:43:12.318Z</time>
      </trkpt>
      <trkpt lat="47.87912" lon="-4.10661">
        <ele>16</ele>
        <time>2022-12-28T22:43:31.085Z</time>
      </trkpt>
      <trkpt lat="47.87911" lon="-4.10661">
        <ele>17</ele>
        <time>2022-12-28T22:43:49.852Z</time>
      </trkpt>
      <trkpt lat="47.8789" lon="-4.10669">
        <ele>17</ele>
        <time>2022-12-28T22:44:08.623Z</time>
      </trkpt>
      <trkpt lat="47.87877" lon="-4.1067">
        <ele>18</ele>
        <time>2022-12-28T22:44:27.396Z</time>
      </trkpt>
      <trkpt lat="47.87868" lon="-4.1067">
        <ele>18</ele>
        <time>2022-12-28T22:44:46.170Z</time>
      </trkpt>
      <trkpt lat="47.87826" lon="-4.10683">
        <ele>18</ele>
        <time>2022-12-28T22:45:04.951Z</time>
      </trkpt>
      <trkpt lat="47.87826" lon="-4.10683">
        <ele>19</ele>
        <time>2022-12-28T22:45:23.732Z</time>
      </trkpt>
      <trkpt lat="47.87825" lon="-4.10683">
        <ele>19</ele>
        <time>2022-12-28T22:45:42.513Z</time>
      </trkpt>
      <trkpt lat="47.87782" lon="-4.10685">
        <ele>19</ele>
        <time>2022-12-28T22:46:01.301Z</time>
      </trkpt>
      <trkpt lat="47.87767" lon="-4.1069">
        <ele>20</ele>
        <time>2022-12-28T22:46:20.092Z</time>
      </trkpt>
      <trkpt lat="47.87759" lon="-4.10691">
        <ele>20</ele>
        <time>2022-12-28T22:46:38.884Z</time>
      </trkpt>
      <trkpt lat="47.87749" lon="-4.10687">
        <ele>20</ele>
        <time>2022-12-28T22:46:57.678Z</time>
      </trkpt>
      <trkpt lat="47.87747" lon="-4.10687">
        <ele>20</ele>
        <time>2022-12-28T22:47:16.472Z</time>
      </trkpt>
      <trkpt lat="47.87741" lon="-4.1068">
        <ele>20</ele>
        <time>2022-12-28T22:47:35.267Z</time>
      </trkpt>
      <trkpt lat="47.87735" lon="-4.10677">
        <ele>20</ele>
        <time>2022-12-28T22:47:54.063Z</time>
      </trkpt>
      <trkpt lat="47.87733" lon="-4.10676">
        <ele>21</ele>
        <time>2022-12-28T22:48:12.859Z</time>
      </trkpt>
      <trkpt lat="47.87716" lon="-4.10669">
        <ele>20</ele>
        <time>2022-12-28T22:48:31.658Z</time>
      </trkpt>
      <trkpt lat="47.87702" lon="-4.10661">
        <ele>20</ele>
        <time>2022-12-28T22:48:50.460Z</time>
      </trkpt>
      <trkpt lat="47.87702" lon="-4.1066">
        <ele>20</ele>
        <time>2022-12-28T22:49:09.262Z</time>
      </trkpt>
      <trkpt lat="47.87694" lon="-4.10656">
        <ele>20</ele>
        <time>2022-12-28T22:49:28.065Z</time>
      </trkpt>
      <trkpt lat="47.87665" lon="-4.10643">
        <ele>20</ele>
        <time>2022-12-28T22:49:46.873Z</time>
      </trkpt>
      <trkpt lat="47.87619" lon="-4.10623">
        <ele>20</ele>
        <time>2022-12-28T22:50:05.688Z</time>
      </trkpt>
      <trkpt lat="47.87618" lon="-4.10623">
        <ele>19</ele>
        <time>2022-12-28T22:50:24.504Z</time>
      </trkpt>
      <trkpt lat="47.87618" lon="-4.10623">
        <ele>19</ele>
        <time>2022-12-28T22:50:43.320Z</time>
      </trkpt>
      <trkpt lat="47.87582" lon="-4.10607">
        <ele>19</ele>
        <time>2022-12-28T22:51:02.142Z</time>
      </trkpt>
      <trkpt lat="47.87571" lon="-4.10602">
        <ele>18</ele>
        <time>2022-12-28T22:51:20.966Z</time>
      </trkpt>
      <trkpt lat="47.87571" lon="-4.10602">
        <ele>18</ele>
        <time>2022-12-28T22:51:39.790Z</time>
      </trkpt>
      <trkpt lat="47.87561" lon="-4.10598">
        <ele>18</ele>
        <time>2022-12-28T22:51:58.615Z</time>
      </trkpt>
      <trkpt lat="47.87561" lon="-4.10598">
        <ele>17</ele>
        <time>2022-12-28T22:52:17.440Z</time>
      </trkpt>
      <trkpt lat="47.87558" lon="-4.10604">
        <ele>17</ele>
        <time>2022-12-28T22:52:36.266Z</time>
      </trkpt>
      <trkpt lat="47.87554" lon="-4.10607">
        <ele>17</ele>
        <time>2022-12-28T22:52:55.093Z</time>
      </trkpt>
      <trkpt lat="47.87549" lon="-4.10605">
        <ele>16</ele>
        <time>2022-12-28T22:53:13.920Z</time>
      </trkpt>
      <trkpt lat="47.87544" lon="-4.10597">
        <ele>16</ele>
        <time>2022-12-28T22:53:32.749Z</time>
      </trkpt>
      <trkpt lat="47.87543" lon="-4.10588">
        <ele>15</ele>
        <time>2022-12-28T22:53:51.579Z</time>
      </trkpt>
      <trkpt lat="47.87534" lon="-4.10582">
        <ele>15</ele>
        <time>2022-12-28T22:54:10.410Z</time>
      </trkpt>
      <trkpt lat="47.87495" lon="-4.10566">
        <ele>14</ele>
        <time>2022-12-28T22:54:29.248Z</time>
      </trkpt>
      <trkpt lat="47.87412" lon="-4.10528">
        <ele>14</ele>
        <time>2022-12-28T22:54:48.100Z</time>
      </trkpt>
      <trkpt lat="47.87411" lon="-4.10527">
        <ele>13</ele>
        <time>2022-12-28T22:55:06.952Z</time>
      </trkpt>
      <trkpt lat="47.87411" lon="-4.10527">
        <ele>12</ele>
        <time>2022-12-28T22:55:25.804Z</time>
      </trkpt>
      <trkpt lat="47.87396" lon="-4.10522">
        <ele>12</ele>
        <time>2022-12-28T22:55:44.658Z</time>
      </trkpt>
      <trkpt lat="47.87389" lon="-4.10519">
        <ele>11</ele>
        <time>2022-12-28T22:56:03.513Z</time>
      </trkpt>
      <trkpt lat="47.87377" lon="-4.10513">
        <ele>11</ele>
        <time>2022-12-28T22:56:22.370Z</time>
      </trkpt>
      <trkpt lat="47.87328" lon="-4.1049">
        <ele>10</ele>
        <time>2022-12-28T22:56:41.236Z</time>
      </trkpt>
      <trkpt lat="47.87327" lon="-4.1049">
        <ele>10</ele>
        <time>2022-12-28T22:57:00.102Z</time>
      </trkpt>
      <trkpt lat="47.87251" lon="-4.10454">
        <ele>9</ele>
        <time>2022-12-28T22:57:18.981Z</time>
      </trkpt>
      <trkpt lat="47.87201" lon="-4.10431">
        <ele>8</ele>
        <time>2022-12-28T22:57:37.868Z</time>
      </trkpt>
      <trkpt lat="47.87201" lon="-4.10431">
        <ele>8</ele>
        <time>2022-12-28T22:57:56.755Z</time>
      </trkpt>
      <trkpt lat="47.87178" lon="-4.10419">
        <ele>7</ele>
        <time>2022-12-28T22:58:15.646Z</time>
      </trkpt>
      <trkpt lat="47.87168" lon="-4.10417">
        <ele>7</ele>
        <time>2022-12-28T22:58:34.538Z</time>
      </trkpt>
      <trkpt lat="47.87164" lon="-4.10425">
        <ele>7</ele>
        <time>2022-12-28T22:58:53.432Z</time>
      </trkpt>
      <trkpt lat="47.87161" lon="-4.10427">
        <ele>6</ele>
        <time>2022-12-28T22:59:12.326Z</time>
      </trkpt>
      <trkpt lat="47.87154" lon="-4.10426">
        <ele>6</ele>
        <time>2022-12-28T22:59:31.221Z</time>
      </trkpt>
      <trkpt lat="47.8715" lon="-4.10421">
        <ele>5</ele>
        <time>2022-12-28T22:59:50.117Z</time>
      </trkpt>
      <trkpt lat="47.87149" lon="-4.10415">
        <ele>5</ele>
        <time>2022-12-28T23:00:09.014Z</time>
      </trkpt>
      <trkpt lat="47.87151" lon="-4.10404">
        <ele>5</ele>
        <time>2022-12-28T23:00:27.912Z</time>
      </trkpt>
      <trkpt lat="47.87156" lon="-4.10399">
        <ele>4</ele>
        <time>2022-12-28T23:00:46.811Z</time>
      </trkpt>
      <trkpt lat="47.87152" lon="-4.10381">
        <ele>4</ele>
        <time>2022-12-28T23:01:05.712Z</time>
      </trkpt>
      <trkpt lat="47.87148" lon="-4.10358">
        <ele>4</ele>
        <time>2022-12-28T23:01:24.616Z</time>
      </trkpt>
      <trkpt lat="47.87135" lon="-4.10308">
        <ele>4</ele>
        <time>2022-12-28T23:01:43.525Z</time>
      </trkpt>
      <trkpt lat="47.87131" lon="-4.10297">
        <ele>3</ele>
        <time>2022-12-28T23:02:02.436Z</time>
      </trkpt>
      <trkpt lat="47.87125" lon="-4.10281">
        <ele>3</ele>
        <time>2022-12-28T23:02:21.349Z</time>
      </trkpt>
      <trkpt lat="47.87125" lon="-4.10281">
        <ele>3</ele>
        <time>2022-12-28T23:02:40.262Z</time>
      </trkpt>
      <trkpt lat="47.87125" lon="-4.10281">
        <ele>3</ele>
        <time>2022-12-28T23:02:59.175Z</time>
      </trkpt>
      <trkpt lat="47.87117" lon="-4.10258">
        <ele>3</ele>
        <time>2022-12-28T23:03:18.091Z</time>
      </trkpt>
      <trkpt lat="47.87105" lon="-4.10232">
        <ele>2</ele>
        <time>2022-12-28T23:03:37.010Z</time>
      </trkpt>
      <trkpt lat="47.87091" lon="-4.10209">
        <ele>2</ele>
        <time>2022-12-28T23:03:55.932Z</time>
      </trkpt>
      <trkpt lat="47.87066" lon="-4.10171">
        <ele>2</ele>
        <time>2022-12-28T23:04:14.860Z</time>
      </trkpt>
      <trkpt lat="47.87061" lon="-4.10163">
        <ele>2</ele>
        <time>2022-12-28T23:04:33.789Z</time>
      </trkpt>
      <trkpt lat="47.87053" lon="-4.1017">
        <ele>2</ele>
        <time>2022-12-28T23:04:52.720Z</time>
      </trkpt>
      <trkpt lat="47.87044" lon="-4.10167">
        <ele>2</ele>
        <time>2022-12-28T23:05:11.652Z</time>
      </trkpt>
      <trkpt lat="47.87029" lon="-4.10153">
        <ele>2</ele>
        <time>2022-12-28T23:05:30.587Z</time>
      </trkpt>
      <trkpt lat="47.86906" lon="-4.10062">
        <ele>2</ele>
        <time>2022-12-28T23:05:49.544Z</time>
      </trkpt>
      <trkpt lat="47.86883" lon="-4.10053">
        <ele>2</ele>
        <time>2022-12-28T23:06:08.505Z</time>
      </trkpt>
      <trkpt lat="47.86862" lon="-4.10056">
        <ele>2</ele>
        <time>2022-12-28T23:06:27.469Z</time>
      </trkpt>
      <trkpt lat="47.8684" lon="-4.10077">
        <ele>2</ele>
        <time>2022-12-28T23:06:46.437Z</time>
      </trkpt>
      <trkpt lat="47.86838" lon="-4.10071">
        <ele>3</ele>
        <time>2022-12-28T23:07:05.406Z</time>
      </trkpt>
      <trkpt lat="47.86835" lon="-4.10067">
        <ele>3</ele>
        <time>2022-12-28T23:07:24.376Z</time>
      </trkpt>
      <trkpt lat="47.86841" lon="-4.10051">
        <ele>3</ele>
        <time>2022-12-28T23:07:43.347Z</time>
      </trkpt>
      <trkpt lat="47.86839" lon="-4.10043">
        <ele>3</ele>
        <time>2022-12-28T23:08:02.319Z</time>
      </trkpt>
      <trkpt lat="47.86832" lon="-4.10027">
        <ele>4</ele>
        <time>2022-12-28T23:08:21.293Z</time>
      </trkpt>
      <trkpt lat="47.86827" lon="-4.10001">
        <ele>4</ele>
        <time>2022-12-28T23:08:40.270Z</time>
      </trkpt>
      <trkpt lat="47.86826" lon="-4.09995">
        <ele>4</ele>
        <time>2022-12-28T23:08:59.248Z</time>
      </trkpt>
      <trkpt lat="47.86813" lon="-4.09917">
        <ele>5</ele>
        <time>2022-12-28T23:09:18.235Z</time>
      </trkpt>
      <trkpt lat="47.86803" lon="-4.0987">
        <ele>5</ele>
        <time>2022-12-28T23:09:37.227Z</time>
      </trkpt>
      <trkpt lat="47.86798" lon="-4.09844">
        <ele>6</ele>
        <time>2022-12-28T23:09:56.222Z</time>
      </trkpt>
      <trkpt lat="47.86786" lon="-4.09768">
        <ele>6</ele>
        <time>2022-12-28T23:10:15.225Z</time>
      </trkpt>
      <trkpt lat="47.8678" lon="-4.09746">
        <ele>6</ele>
        <time>2022-12-28T23:10:34.231Z</time>
      </trkpt>
      <trkpt lat="47.86763" lon="-4.09691">
        <ele>7</ele>
        <time>2022-12-28T23:10:53.243Z</time>
      </trkpt>
      <trkpt lat="47.86762" lon="-4.09688">
        <ele>7</ele>
        <time>2022-12-28T23:11:12.256Z</time>
      </trkpt>
      <trkpt lat="47.8676" lon="-4.09672">
        <ele>8</ele>
        <time>2022-12-28T23:11:31.271Z</time>
      </trkpt>
      <trkpt lat="47.86757" lon="-4.09654">
        <ele>8</ele>
        <time>2022-12-28T23:11:50.287Z</time>
      </trkpt>
      <trkpt lat="47.86757" lon="-4.09654">
        <ele>9</ele>
        <time>2022-12-28T23:12:09.303Z</time>
      </trkpt>
      <trkpt lat="47.86756" lon="-4.09645">
        <ele>9</ele>
        <time>2022-12-28T23:12:28.320Z</time>
      </trkpt>
      <trkpt lat="47.86748" lon="-4.09588">
        <ele>9</ele>
        <time>2022-12-28T23:12:47.344Z</time>
      </trkpt>
      <trkpt lat="47.86744" lon="-4.0956">
        <ele>10</ele>
        <time>2022-12-28T23:13:06.371Z</time>
      </trkpt>
      <trkpt lat="47.86742" lon="-4.0954">
        <ele>10</ele>
        <time>2022-12-28T23:13:25.400Z</time>
      </trkpt>
      <trkpt lat="47.86743" lon="-4.09489">
        <ele>11</ele>
        <time>2022-12-28T23:13:44.434Z</time>
      </trkpt>
      <trkpt lat="47.86744" lon="-4.09455">
        <ele>11</ele>
        <time>2022-12-28T23:14:03.472Z</time>
      </trkpt>
      <trkpt lat="47.86744" lon="-4.09455">
        <ele>12</ele>
        <time>2022-12-28T23:14:22.510Z</time>
      </trkpt>
      <trkpt lat="47.86746" lon="-4.09401">
        <ele>12</ele>
        <time>2022-12-28T23:14:41.554Z</time>
      </trkpt>
      <trkpt lat="47.86748" lon="-4.09389">
        <ele>12</ele>
        <time>2022-12-28T23:15:00.599Z</time>
      </trkpt>
      <trkpt lat="47.86755" lon="-4.09336">
        <ele>12</ele>
        <time>2022-12-28T23:15:19.650Z</time>
      </trkpt>
      <trkpt lat="47.86755" lon="-4.09313">
        <ele>13</ele>
        <time>2022-12-28T23:15:38.704Z</time>
      </trkpt>
      <trkpt lat="47.86753" lon="-4.09292">
        <ele>13</ele>
        <time>2022-12-28T23:15:57.760Z</time>
      </trkpt>
      <trkpt lat="47.86751" lon="-4.09279">
        <ele>13</ele>
        <time>2022-12-28T23:16:16.817Z</time>
      </trkpt>
      <trkpt lat="47.86746" lon="-4.09268">
        <ele>13</ele>
        <time>2022-12-28T23:16:35.876Z</time>
      </trkpt>
      <trkpt lat="47.86729" lon="-4.09243">
        <ele>13</ele>
        <time>2022-12-28T23:16:54.939Z</time>
      </trkpt>
      <trkpt lat="47.86714" lon="-4.09231">
        <ele>13</ele>
        <time>2022-12-28T23:17:14.004Z</time>
      </trkpt>
      <trkpt lat="47.86709" lon="-4.09225">
        <ele>14</ele>
        <time>2022-12-28T23:17:33.070Z</time>
      </trkpt>
      <trkpt lat="47.86707" lon="-4.09219">
        <ele>14</ele>
        <time>2022-12-28T23:17:52.137Z</time>
      </trkpt>
      <trkpt lat="47.86704" lon="-4.09208">
        <ele>14</ele>
        <time>2022-12-28T23:18:11.205Z</time>
      </trkpt>
      <trkpt lat="47.86704" lon="-4.09204">
        <ele>14</ele>
        <time>2022-12-28T23:18:30.274Z</time>
      </trkpt>
      <trkpt lat="47.86705" lon="-4.09192">
        <ele>14</ele>
        <time>2022-12-28T23:18:49.344Z</time>
      </trkpt>
      <trkpt lat="47.86721" lon="-4.09085">
        <ele>14</ele>
        <time>2022-12-28T23:19:08.426Z</time>
      </trkpt>
      <trkpt lat="47.86728" lon="-4.0902">
        <ele>14</ele>
        <time>2022-12-28T23:19:27.515Z</time>
      </trkpt>
      <trkpt lat="47.8674" lon="-4.08903">
        <ele>14</ele>
        <time>2022-12-28T23:19:46.617Z</time>
      </trkpt>
      <trkpt lat="47.86746" lon="-4.0886">
        <ele>14</ele>
        <time>2022-12-28T23:20:05.724Z</time>
      </trkpt>
      <trkpt lat="47.86752" lon="-4.08841">
        <ele>15</ele>
        <time>2022-12-28T23:20:24.833Z</time>
      </trkpt>
      <trkpt lat="47.86759" lon="-4.08827">
        <ele>15</ele>
        <time>2022-12-28T23:20:43.944Z</time>
      </trkpt>
      <trkpt lat="47.86784" lon="-4.0877">
        <ele>15</ele>
        <time>2022-12-28T23:21:03.062Z</time>
      </trkpt>
      <trkpt lat="47.86813" lon="-4.08693">
        <ele>15</ele>
        <time>2022-12-28T23:21:22.190Z</time>
      </trkpt>
      <trkpt lat="47.86833" lon="-4.08639">
        <ele>15</ele>
        <time>2022-12-28T23:21:41.324Z</time>
      </trkpt>
      <trkpt lat="47.86835" lon="-4.08622">
        <ele>15</ele>
        <time>2022-12-28T23:22:00.460Z</time>
      </trkpt>
      <trkpt lat="47.86863" lon="-4.08622">
        <ele>15</ele>
        <time>2022-12-28T23:22:19.601Z</time>
      </trkpt>
      <trkpt lat="47.86953" lon="-4.08629">
        <ele>15</ele>
        <time>2022-12-28T23:22:38.756Z</time>
      </trkpt>
      <trkpt lat="47.86953" lon="-4.08629">
        <ele>15</ele>
        <time>2022-12-28T23:22:57.911Z</time>
      </trkpt>
      <trkpt lat="47.86965" lon="-4.08632">
        <ele>15</ele>
        <time>2022-12-28T23:23:17.068Z</time>
      </trkpt>
      <trkpt lat="47.8697" lon="-4.08632">
        <ele>15</ele>
        <time>2022-12-28T23:23:36.226Z</time>
      </trkpt>
      <trkpt lat="47.8703" lon="-4.08661">
        <ele>16</ele>
        <time>2022-12-28T23:23:55.394Z</time>
      </trkpt>
      <trkpt lat="47.87035" lon="-4.08664">
        <ele>16</ele>
        <time>2022-12-28T23:24:14.563Z</time>
      </trkpt>
      <trkpt lat="47.8706" lon="-4.08672">
        <ele>16</ele>
        <time>2022-12-28T23:24:33.736Z</time>
      </trkpt>
      <trkpt lat="47.8706" lon="-4.08672">
        <ele>16</ele>
        <time>2022-12-28T23:24:52.909Z</time>
      </trkpt>
      <trkpt lat="47.87079" lon="-4.08674">
        <ele>16</ele>
        <time>2022-12-28T23:25:12.085Z</time>
      </trkpt>
      <trkpt lat="47.87081" lon="-4.08674">
        <ele>16</ele>
        <time>2022-12-28T23:25:31.261Z</time>
      </trkpt>
      <trkpt lat="47.87091" lon="-4.08674">
        <ele>16</ele>
        <time>2022-12-28T23:25:50.439Z</time>
      </trkpt>
      <trkpt lat="47.87132" lon="-4.08674">
        <ele>16</ele>
        <time>2022-12-28T23:26:09.623Z</time>
      </trkpt>
      <trkpt lat="47.87147" lon="-4.08677">
        <ele>16</ele>
        <time>2022-12-28T23:26:28.810Z</time>
      </trkpt>
      <trkpt lat="47.87159" lon="-4.08679">
        <ele>16</ele>
        <time>2022-12-28T23:26:47.999Z</time>
      </trkpt>
      <trkpt lat="47.87214" lon="-4.08689">
        <ele>16</ele>
        <time>2022-12-28T23:27:07.196Z</time>
      </trkpt>
      <trkpt lat="47.87226" lon="-4.08691">
        <ele>15</ele>
        <time>2022-12-28T23:27:26.395Z</time>
      </trkpt>
      <trkpt lat="47.87266" lon="-4.08698">
        <ele>15</ele>
        <time>2022-12-28T23:27:45.601Z</time>
      </trkpt>
      <trkpt lat="47.87282" lon="-4.08701">
        <ele>15</ele>
        <time>2022-12-28T23:28:04.809Z</time>
      </trkpt>
      <trkpt lat="47.87293" lon="-4.08704">
        <ele>15</ele>
        <time>2022-12-28T23:28:24.019Z</time>
      </trkpt>
      <trkpt lat="47.87387" lon="-4.08723">
        <ele>15</ele>
        <time>2022-12-28T23:28:43.244Z</time>
      </trkpt>
      <trkpt lat="47.87427" lon="-4.08733">
        <ele>15</ele>
        <time>2022-12-28T23:29:02.476Z</time>
      </trkpt>
      <trkpt lat="47.87439" lon="-4.08736">
        <ele>14</ele>
        <time>2022-12-28T23:29:21.710Z</time>
      </trkpt>
      <trkpt lat="47.87443" lon="-4.08738">
        <ele>14</ele>
        <time>2022-12-28T23:29:40.944Z</time>
      </trkpt>
      <trkpt lat="47.87489" lon="-4.08754">
        <ele>14</ele>
        <time>2022-12-28T23:30:00.186Z</time>
      </trkpt>
      <trkpt lat="47.87491" lon="-4.08748">
        <ele>14</ele>
        <time>2022-12-28T23:30:19.429Z</time>
      </trkpt>
      <trkpt lat="47.87493" lon="-4.08745">
        <ele>14</ele>
        <time>2022-12-28T23:30:38.672Z</time>
      </trkpt>
      <trkpt lat="47.87497" lon="-4.08745">
        <ele>13</ele>
        <time>2022-12-28T23:30:57.916Z</time>
      </trkpt>
      <trkpt lat="47.87504" lon="-4.0867">
        <ele>13</ele>
        <time>2022-12-28T23:31:17.168Z</time>
      </trkpt>
      <trkpt lat="47.87507" lon="-4.08646">
        <ele>13</ele>
        <time>2022-12-28T23:31:36.423Z</time>
      </trkpt>
      <trkpt lat="47.87509" lon="-4.08629">
        <ele>13</ele>
        <time>2022-12-28T23:31:55.680Z</time>
      </trkpt>
      <trkpt lat="47.87512" lon="-4.08596">
        <ele>12</ele>
        <time>2022-12-28T23:32:14.940Z</time>
      </trkpt>
      <trkpt lat="47.87512" lon="-4.08595">
        <ele>12</ele>
        <time>2022-12-28T23:32:34.200Z</time>
      </trkpt>
      <trkpt lat="47.87512" lon="-4.08587">
        <ele>12</ele>
        <time>2022-12-28T23:32:53.461Z</time>
      </trkpt>
      <trkpt lat="47.87514" lon="-4.08521">
        <ele>11</ele>
        <time>2022-12-28T23:33:12.729Z</time>
      </trkpt>
      <trkpt lat="47.87516" lon="-4.085">
        <ele>11</ele>
        <time>2022-12-28T23:33:31.999Z</time>
      </trkpt>
      <trkpt lat="47.87519" lon="-4.08467">
        <ele>11</ele>
        <time>2022-12-28T23:33:51.273Z</time>
      </trkpt>
      <trkpt lat="47.87519" lon="-4.08465">
        <ele>10</ele>
        <time>2022-12-28T23:34:10.547Z</time>
      </trkpt>
      <trkpt lat="47.8752" lon="-4.08455">
        <ele>10</ele>
        <time>2022-12-28T23:34:29.822Z</time>
      </trkpt>
      <trkpt lat="47.87521" lon="-4.08446">
        <ele>10</ele>
        <time>2022-12-28T23:34:49.098Z</time>
      </trkpt>
      <trkpt lat="47.87531" lon="-4.08407">
        <ele>9</ele>
        <time>2022-12-28T23:35:08.379Z</time>
      </trkpt>
      <trkpt lat="47.87531" lon="-4.08406">
        <ele>9</ele>
        <time>2022-12-28T23:35:27.660Z</time>
      </trkpt>
      <trkpt lat="47.87543" lon="-4.08359">
        <ele>9</ele>
        <time>2022-12-28T23:35:46.946Z</time>
      </trkpt>
      <trkpt lat="47.87543" lon="-4.08356">
        <ele>9</ele>
        <time>2022-12-28T23:36:06.233Z</time>
      </trkpt>
      <trkpt lat="47.87548" lon="-4.08336">
        <ele>8</ele>
        <time>2022-12-28T23:36:25.522Z</time>
      </trkpt>
      <trkpt lat="47.87554" lon="-4.08311">
        <ele>8</ele>
        <time>2022-12-28T23:36:44.814Z</time>
      </trkpt>
      <trkpt lat="47.87555" lon="-4.0831">
        <ele>7</ele>
        <time>2022-12-28T23:37:04.106Z</time>
      </trkpt>
      <trkpt lat="47.87561" lon="-4.08285">
        <ele>7</ele>
        <time>2022-12-28T23:37:23.401Z</time>
      </trkpt>
      <trkpt lat="47.87561" lon="-4.08283">
        <ele>7</ele>
        <time>2022-12-28T23:37:42.696Z</time>
      </trkpt>
      <trkpt lat="47.87566" lon="-4.08266">
        <ele>7</ele>
        <time>2022-12-28T23:38:01.993Z</time>
      </trkpt>
      <trkpt lat="47.87565" lon="-4.08265">
        <ele>7</ele>
        <time>2022-12-28T23:38:21.290Z</time>
      </trkpt>
      <trkpt lat="47.87535" lon="-4.0824">
        <ele>6</ele>
        <time>2022-12-28T23:38:40.593Z</time>
      </trkpt>
      <trkpt lat="47.87535" lon="-4.08239">
        <ele>6</ele>
        <time>2022-12-28T23:38:59.896Z</time>
      </trkpt>
      <trkpt lat="47.87518" lon="-4.08226">
        <ele>6</ele>
        <time>2022-12-28T23:39:19.202Z</time>
      </trkpt>
      <trkpt lat="47.87517" lon="-4.08225">
        <ele>6</ele>
        <time>2022-12-28T23:39:38.508Z</time>
      </trkpt>
      <trkpt lat="47.8751" lon="-4.08218">
        <ele>6</ele>
        <time>2022-12-28T23:39:57.815Z</time>
      </trkpt>
      <trkpt lat="47.87506" lon="-4.08215">
        <ele>6</ele>
        <time>2022-12-28T23:40:17.123Z</time>
      </trkpt>
      <trkpt lat="47.87506" lon="-4.08215">
        <ele>6</ele>
        <time>2022-12-28T23:40:36.431Z</time>
      </trkpt>
      <trkpt lat="47.87487" lon="-4.08173">
        <ele>5</ele>
        <time>2022-12-28T23:40:55.745Z</time>
      </trkpt>
      <trkpt lat="47.87486" lon="-4.08172">
        <ele>5</ele>
        <time>2022-12-28T23:41:15.059Z</time>
      </trkpt>
      <trkpt lat="47.87476" lon="-4.0815">
        <ele>5</ele>
        <time>2022-12-28T23:41:34.376Z</time>
      </trkpt>
      <trkpt lat="47.87475" lon="-4.08148">
        <ele>5</ele>
        <time>2022-12-28T23:41:53.693Z</time>
      </trkpt>
      <trkpt lat="47.8747" lon="-4.08136">
        <ele>5</ele>
        <time>2022-12-28T23:42:13.011Z</time>
      </trkpt>
      <trkpt lat="47.87468" lon="-4.08132">
        <ele>5</ele>
        <time>2022-12-28T23:42:32.330Z</time>
      </trkpt>
      <trkpt lat="47.87416" lon="-4.08111">
        <ele>5</ele>
        <time>2022-12-28T23:42:51.657Z</time>
      </trkpt>
      <trkpt lat="47.87415" lon="-4.08111">
        <ele>5</ele>
        <time>2022-12-28T23:43:10.985Z</time>
      </trkpt>
      <trkpt lat="47.87406" lon="-4.08107">
        <ele>5</ele>
        <time>2022-12-28T23:43:30.314Z</time>
      </trkpt>
      <trkpt lat="47.87402" lon="-4.08106">
        <ele>5</ele>
        <time>2022-12-28T23:43:49.644Z</time>
      </trkpt>
      <trkpt lat="47.87404" lon="-4.08105">
        <ele>6</ele>
        <time>2022-12-28T23:44:08.974Z</time>
      </trkpt>
      <trkpt lat="47.87403" lon="-4.08098">
        <ele>6</ele>
        <time>2022-12-28T23:44:28.305Z</time>
      </trkpt>
      <trkpt lat="47.87402" lon="-4.08091">
        <ele>6</ele>
        <time>2022-12-28T23:44:47.637Z</time>
      </trkpt>
      <trkpt lat="47.87401" lon="-4.0808">
        <ele>6</ele>
        <time>2022-12-28T23:45:06.970Z</time>
      </trkpt>
      <trkpt lat="47.87397" lon="-4.0804">
        <ele>6</ele>
        <time>2022-12-28T23:45:26.307Z</time>
      </trkpt>
      <trkpt lat="47.87397" lon="-4.0804">
        <ele>6</ele>
        <time>2022-12-28T23:45:45.644Z</time>
      </trkpt>
      <trkpt lat="47.87396" lon="-4.08037">
        <ele>6</ele>
        <time>2022-12-28T23:46:04.981Z</time>
      </trkpt>
      <trkpt lat="47.87394" lon="-4.0802">
        <ele>7</ele>
        <time>2022-12-28T23:46:24.320Z</time>
      </trkpt>
      <trkpt lat="47.87396" lon="-4.08037">
        <ele>7</ele>
        <time>2022-12-28T23:46:43.661Z</time>
      </trkpt>
      <trkpt lat="47.87394" lon="-4.0802">
        <ele>7</ele>
        <time>2022-12-28T23:47:03.004Z</time>
      </trkpt>
      <trkpt lat="47.87393" lon="-4.08014">
        <ele>7</ele>
        <time>2022-12-28T23:47:22.348Z</time>
      </trkpt>
      <trkpt lat="47.8739" lon="-4.08002">
        <ele>8</ele>
        <time>2022-12-28T23:47:41.693Z</time>
      </trkpt>
      <trkpt lat="47.87385" lon="-4.07988">
        <ele>8</ele>
        <time>2022-12-28T23:48:01.040Z</time>
      </trkpt>
      <trkpt lat="47.87381" lon="-4.07977">
        <ele>8</ele>
        <time>2022-12-28T23:48:20.388Z</time>
      </trkpt>
      <trkpt lat="47.87359" lon="-4.07926">
        <ele>8</ele>
        <time>2022-12-28T23:48:39.743Z</time>
      </trkpt>
      <trkpt lat="47.87358" lon="-4.07924">
        <ele>8</ele>
        <time>2022-12-28T23:48:59.098Z</time>
      </trkpt>
      <trkpt lat="47.8735" lon="-4.07906">
        <ele>9</ele>
        <time>2022-12-28T23:49:18.455Z</time>
      </trkpt>
      <trkpt lat="47.874" lon="-4.07849">
        <ele>9</ele>
        <time>2022-12-28T23:49:37.822Z</time>
      </trkpt>
      <trkpt lat="47.87407" lon="-4.07841">
        <ele>9</ele>
        <time>2022-12-28T23:49:57.191Z</time>
      </trkpt>
      <trkpt lat="47.87444" lon="-4.07828">
        <ele>10</ele>
        <time>2022-12-28T23:50:16.566Z</time>
      </trkpt>
      <trkpt lat="47.87444" lon="-4.07828">
        <ele>10</ele>
        <time>2022-12-28T23:50:35.941Z</time>
      </trkpt>
      <trkpt lat="47.87445" lon="-4.07814">
        <ele>10</ele>
        <time>2022-12-28T23:50:55.317Z</time>
      </trkpt>
      <trkpt lat="47.87476" lon="-4.07815">
        <ele>11</ele>
        <time>2022-12-28T23:51:14.698Z</time>
      </trkpt>
      <trkpt lat="47.87481" lon="-4.07816">
        <ele>11</ele>
        <time>2022-12-28T23:51:34.080Z</time>
      </trkpt>
      <trkpt lat="47.87488" lon="-4.07817">
        <ele>12</ele>
        <time>2022-12-28T23:51:53.463Z</time>
      </trkpt>
      <trkpt lat="47.87505" lon="-4.07821">
        <ele>12</ele>
        <time>2022-12-28T23:52:12.849Z</time>
      </trkpt>
      <trkpt lat="47.87545" lon="-4.07839">
        <ele>13</ele>
        <time>2022-12-28T23:52:32.242Z</time>
      </trkpt>
      <trkpt lat="47.87534" lon="-4.07762">
        <ele>13</ele>
        <time>2022-12-28T23:52:51.643Z</time>
      </trkpt>
      <trkpt lat="47.87526" lon="-4.07699">
        <ele>14</ele>
        <time>2022-12-28T23:53:11.051Z</time>
      </trkpt>
      <trkpt lat="47.87527" lon="-4.07666">
        <ele>14</ele>
        <time>2022-12-28T23:53:30.462Z</time>
      </trkpt>
      <trkpt lat="47.87533" lon="-4.07648">
        <ele>15</ele>
        <time>2022-12-28T23:53:49.876Z</time>
      </trkpt>
      <trkpt lat="47.87543" lon="-4.07629">
        <ele>15</ele>
        <time>2022-12-28T23:54:09.292Z</time>
      </trkpt>
      <trkpt lat="47.87564" lon="-4.0759">
        <ele>15</ele>
        <time>2022-12-28T23:54:28.714Z</time>
      </trkpt>
      <trkpt lat="47.87571" lon="-4.07577">
        <ele>16</ele>
        <time>2022-12-28T23:54:48.137Z</time>
      </trkpt>
      <trkpt lat="47.87595" lon="-4.07526">
        <ele>17</ele>
        <time>2022-12-28T23:55:07.567Z</time>
      </trkpt>
      <trkpt lat="47.87607" lon="-4.07492">
        <ele>17</ele>
        <time>2022-12-28T23:55:27.001Z</time>
      </trkpt>
      <trkpt lat="47.87609" lon="-4.07486">
        <ele>17</ele>
        <time>2022-12-28T23:55:46.436Z</time>
      </trkpt>
      <trkpt lat="47.87621" lon="-4.07445">
        <ele>17</ele>
        <time>2022-12-28T23:56:05.876Z</time>
      </trkpt>
      <trkpt lat="47.87621" lon="-4.07444">
        <ele>18</ele>
        <time>2022-12-28T23:56:25.316Z</time>
      </trkpt>
      <trkpt lat="47.8763" lon="-4.0741">
        <ele>18</ele>
        <time>2022-12-28T23:56:44.760Z</time>
      </trkpt>
      <trkpt lat="47.87633" lon="-4.07398">
        <ele>18</ele>
        <time>2022-12-28T23:57:04.205Z</time>
      </trkpt>
      <trkpt lat="47.87633" lon="-4.07366">
        <ele>18</ele>
        <time>2022-12-28T23:57:23.654Z</time>
      </trkpt>
      <trkpt lat="47.8763" lon="-4.07335">
        <ele>19</ele>
        <time>2022-12-28T23:57:43.106Z</time>
      </trkpt>
      <trkpt lat="47.87629" lon="-4.07319">
        <ele>19</ele>
        <time>2022-12-28T23:58:02.560Z</time>
      </trkpt>
      <trkpt lat="47.87629" lon="-4.07318">
        <ele>19</ele>
        <time>2022-12-28T23:58:22.014Z</time>
      </trkpt>
      <trkpt lat="47.87629" lon="-4.07317">
        <ele>19</ele>
        <time>2022-12-28T23:58:41.468Z</time>
      </trkpt>
      <trkpt lat="47.87628" lon="-4.07313">
        <ele>19</ele>
        <time>2022-12-28T23:59:00.922Z</time>
      </trkpt>
      <trkpt lat="47.87626" lon="-4.07309">
        <ele>19</ele>
        <time>2022-12-28T23:59:20.377Z</time>
      </trkpt>
      <trkpt lat="47.87622" lon="-4.07303">
        <ele>19</ele>
        <time>2022-12-28T23:59:39.833Z</time>
      </trkpt>
      <trkpt lat="47.8762" lon="-4.07301">
        <ele>19</ele>
        <time>2022-12-28T23:59:59.289Z</time>
      </trkpt>
      <trkpt lat="47.8762" lon="-4.07301">
        <ele>19</ele>
        <time>2022-12-29T00:00:18.745Z</time>
      </trkpt>
      <trkpt lat="47.87584" lon="-4.07252">
        <ele>19</ele>
        <time>2022-12-29T00:00:38.209Z</time>
      </trkpt>
      <trkpt lat="47.87583" lon="-4.07249">
        <ele>19</ele>
        <time>2022-12-29T00:00:57.673Z</time>
      </trkpt>
      <trkpt lat="47.87581" lon="-4.07242">
        <ele>19</ele>
        <time>2022-12-29T00:01:17.138Z</time>
      </trkpt>
      <trkpt lat="47.87575" lon="-4.0724">
        <ele>19</ele>
        <time>2022-12-29T00:01:36.604Z</time>
      </trkpt>
      <trkpt lat="47.87573" lon="-4.07239">
        <ele>19</ele>
        <time>2022-12-29T00:01:56.071Z</time>
      </trkpt>
      <trkpt lat="47.87556" lon="-4.07217">
        <ele>19</ele>
        <time>2022-12-29T00:02:15.541Z</time>
      </trkpt>
      <trkpt lat="47.874" lon="-4.07113">
        <ele>18</ele>
        <time>2022-12-29T00:02:35.039Z</time>
      </trkpt>
      <trkpt lat="47.87302" lon="-4.07052">
        <ele>18</ele>
        <time>2022-12-29T00:02:54.554Z</time>
      </trkpt>
      <trkpt lat="47.87289" lon="-4.07041">
        <ele>18</ele>
        <time>2022-12-29T00:03:14.071Z</time>
      </trkpt>
      <trkpt lat="47.87284" lon="-4.07036">
        <ele>17</ele>
        <time>2022-12-29T00:03:33.589Z</time>
      </trkpt>
      <trkpt lat="47.87267" lon="-4.07021">
        <ele>17</ele>
        <time>2022-12-29T00:03:53.110Z</time>
      </trkpt>
      <trkpt lat="47.87261" lon="-4.07016">
        <ele>17</ele>
        <time>2022-12-29T00:04:12.632Z</time>
      </trkpt>
      <trkpt lat="47.87249" lon="-4.07001">
        <ele>17</ele>
        <time>2022-12-29T00:04:32.157Z</time>
      </trkpt>
      <trkpt lat="47.87226" lon="-4.06964">
        <ele>16</ele>
        <time>2022-12-29T00:04:51.687Z</time>
      </trkpt>
      <trkpt lat="47.87187" lon="-4.06879">
        <ele>16</ele>
        <time>2022-12-29T00:05:11.228Z</time>
      </trkpt>
      <trkpt lat="47.87171" lon="-4.06836">
        <ele>16</ele>
        <time>2022-12-29T00:05:30.774Z</time>
      </trkpt>
      <trkpt lat="47.8717" lon="-4.06832">
        <ele>15</ele>
        <time>2022-12-29T00:05:50.321Z</time>
      </trkpt>
      <trkpt lat="47.87165" lon="-4.06816">
        <ele>15</ele>
        <time>2022-12-29T00:06:09.870Z</time>
      </trkpt>
      <trkpt lat="47.87157" lon="-4.06794">
        <ele>15</ele>
        <time>2022-12-29T00:06:29.422Z</time>
      </trkpt>
      <trkpt lat="47.87152" lon="-4.06776">
        <ele>14</ele>
        <time>2022-12-29T00:06:48.976Z</time>
      </trkpt>
      <trkpt lat="47.87139" lon="-4.06729">
        <ele>14</ele>
        <time>2022-12-29T00:07:08.535Z</time>
      </trkpt>
      <trkpt lat="47.87139" lon="-4.06728">
        <ele>14</ele>
        <time>2022-12-29T00:07:28.094Z</time>
      </trkpt>
      <trkpt lat="47.87135" lon="-4.06715">
        <ele>13</ele>
        <time>2022-12-29T00:07:47.655Z</time>
      </trkpt>
      <trkpt lat="47.87135" lon="-4.06715">
        <ele>13</ele>
        <time>2022-12-29T00:08:07.216Z</time>
      </trkpt>
      <trkpt lat="47.87133" lon="-4.06708">
        <ele>13</ele>
        <time>2022-12-29T00:08:26.778Z</time>
      </trkpt>
      <trkpt lat="47.87119" lon="-4.06656">
        <ele>13</ele>
        <time>2022-12-29T00:08:46.346Z</time>
      </trkpt>
      <trkpt lat="47.87103" lon="-4.06612">
        <ele>12</ele>
        <time>2022-12-29T00:09:05.919Z</time>
      </trkpt>
      <trkpt lat="47.87102" lon="-4.0661">
        <ele>12</ele>
        <time>2022-12-29T00:09:25.492Z</time>
      </trkpt>
      <trkpt lat="47.87095" lon="-4.06592">
        <ele>12</ele>
        <time>2022-12-29T00:09:45.067Z</time>
      </trkpt>
      <trkpt lat="47.87095" lon="-4.06592">
        <ele>11</ele>
        <time>2022-12-29T00:10:04.642Z</time>
      </trkpt>
      <trkpt lat="47.87082" lon="-4.06556">
        <ele>11</ele>
        <time>2022-12-29T00:10:24.222Z</time>
      </trkpt>
      <trkpt lat="47.87064" lon="-4.0651">
        <ele>11</ele>
        <time>2022-12-29T00:10:43.808Z</time>
      </trkpt>
      <trkpt lat="47.87061" lon="-4.06503">
        <ele>11</ele>
        <time>2022-12-29T00:11:03.394Z</time>
      </trkpt>
      <trkpt lat="47.87055" lon="-4.06488">
        <ele>10</ele>
        <time>2022-12-29T00:11:22.982Z</time>
      </trkpt>
      <trkpt lat="47.87055" lon="-4.06488">
        <ele>10</ele>
        <time>2022-12-29T00:11:42.570Z</time>
      </trkpt>
      <trkpt lat="47.87049" lon="-4.06474">
        <ele>10</ele>
        <time>2022-12-29T00:12:02.160Z</time>
      </trkpt>
      <trkpt lat="47.87047" lon="-4.06472">
        <ele>10</ele>
        <time>2022-12-29T00:12:21.751Z</time>
      </trkpt>
      <trkpt lat="47.87051" lon="-4.06457">
        <ele>9</ele>
        <time>2022-12-29T00:12:41.343Z</time>
      </trkpt>
      <trkpt lat="47.87056" lon="-4.06422">
        <ele>9</ele>
        <time>2022-12-29T00:13:00.939Z</time>
      </trkpt>
      <trkpt lat="47.87074" lon="-4.06289">
        <ele>9</ele>
        <time>2022-12-29T00:13:20.550Z</time>
      </trkpt>
      <trkpt lat="47.87081" lon="-4.0627">
        <ele>9</ele>
        <time>2022-12-29T00:13:40.163Z</time>
      </trkpt>
      <trkpt lat="47.87083" lon="-4.06264">
        <ele>8</ele>
        <time>2022-12-29T00:13:59.777Z</time>
      </trkpt>
      <trkpt lat="47.8708" lon="-4.0626">
        <ele>8</ele>
        <time>2022-12-29T00:14:19.392Z</time>
      </trkpt>
      <trkpt lat="47.87074" lon="-4.06268">
        <ele>8</ele>
        <time>2022-12-29T00:14:39.008Z</time>
      </trkpt>
      <trkpt lat="47.86993" lon="-4.063">
        <ele>8</ele>
        <time>2022-12-29T00:14:58.637Z</time>
      </trkpt>
      <trkpt lat="47.86988" lon="-4.06302">
        <ele>7</ele>
        <time>2022-12-29T00:15:18.267Z</time>
      </trkpt>
      <trkpt lat="47.86982" lon="-4.06306">
        <ele>7</ele>
        <time>2022-12-29T00:15:37.898Z</time>
      </trkpt>
      <trkpt lat="47.86952" lon="-4.06327">
        <ele>7</ele>
        <time>2022-12-29T00:15:57.534Z</time>
      </trkpt>
      <trkpt lat="47.86935" lon="-4.06336">
        <ele>7</ele>
        <time>2022-12-29T00:16:17.173Z</time>
      </trkpt>
      <trkpt lat="47.86892" lon="-4.06347">
        <ele>7</ele>
        <time>2022-12-29T00:16:36.819Z</time>
      </trkpt>
      <trkpt lat="47.86892" lon="-4.06347">
        <ele>7</ele>
        <time>2022-12-29T00:16:56.465Z</time>
      </trkpt>
      <trkpt lat="47.8689" lon="-4.06347">
        <ele>7</ele>
        <time>2022-12-29T00:17:16.112Z</time>
      </trkpt>
      <trkpt lat="47.86877" lon="-4.06347">
        <ele>7</ele>
        <time>2022-12-29T00:17:35.761Z</time>
      </trkpt>
      <trkpt lat="47.86859" lon="-4.06366">
        <ele>7</ele>
        <time>2022-12-29T00:17:55.413Z</time>
      </trkpt>
      <trkpt lat="47.86859" lon="-4.06366">
        <ele>6</ele>
        <time>2022-12-29T00:18:15.065Z</time>
      </trkpt>
      <trkpt lat="47.86843" lon="-4.06383">
        <ele>6</ele>
        <time>2022-12-29T00:18:34.720Z</time>
      </trkpt>
      <trkpt lat="47.86818" lon="-4.06394">
        <ele>6</ele>
        <time>2022-12-29T00:18:54.379Z</time>
      </trkpt>
      <trkpt lat="47.86799" lon="-4.064">
        <ele>6</ele>
        <time>2022-12-29T00:19:14.042Z</time>
      </trkpt>
      <trkpt lat="47.86781" lon="-4.06401">
        <ele>6</ele>
        <time>2022-12-29T00:19:33.708Z</time>
      </trkpt>
      <trkpt lat="47.86778" lon="-4.06399">
        <ele>6</ele>
        <time>2022-12-29T00:19:53.374Z</time>
      </trkpt>
      <trkpt lat="47.86777" lon="-4.06398">
        <ele>6</ele>
        <time>2022-12-29T00:20:13.040Z</time>
      </trkpt>
      <trkpt lat="47.86764" lon="-4.06389">
        <ele>6</ele>
        <time>2022-12-29T00:20:32.709Z</time>
      </trkpt>
      <trkpt lat="47.86738" lon="-4.06313">
        <ele>6</ele>
        <time>2022-12-29T00:20:52.387Z</time>
      </trkpt>
      <trkpt lat="47.86738" lon="-4.06313">
        <ele>6</ele>
        <time>2022-12-29T00:21:12.065Z</time>
      </trkpt>
      <trkpt lat="47.86736" lon="-4.06305">
        <ele>6</ele>
        <time>2022-12-29T00:21:31.744Z</time>
      </trkpt>
      <trkpt lat="47.8673" lon="-4.06277">
        <ele>7</ele>
        <time>2022-12-29T00:21:51.426Z</time>
      </trkpt>
      <trkpt lat="47.86729" lon="-4.06272">
        <ele>7</ele>
        <time>2022-12-29T00:22:11.108Z</time>
      </trkpt>
      <trkpt lat="47.86728" lon="-4.0626">
        <ele>7</ele>
        <time>2022-12-29T00:22:30.792Z</time>
      </trkpt>
      <trkpt lat="47.86727" lon="-4.06237">
        <ele>7</ele>
        <time>2022-12-29T00:22:50.478Z</time>
      </trkpt>
      <trkpt lat="47.86724" lon="-4.06195">
        <ele>7</ele>
        <time>2022-12-29T00:23:10.169Z</time>
      </trkpt>
      <trkpt lat="47.86718" lon="-4.06196">
        <ele>7</ele>
        <time>2022-12-29T00:23:29.861Z</time>
      </trkpt>
      <trkpt lat="47.86718" lon="-4.06197">
        <ele>7</ele>
        <time>2022-12-29T00:23:49.553Z</time>
      </trkpt>
      <trkpt lat="47.86662" lon="-4.06212">
        <ele>7</ele>
        <time>2022-12-29T00:24:09.254Z</time>
      </trkpt>
      <trkpt lat="47.86652" lon="-4.06213">
        <ele>7</ele>
        <time>2022-12-29T00:24:28.956Z</time>
      </trkpt>
      <trkpt lat="47.86638" lon="-4.06211">
        <ele>7</ele>
        <time>2022-12-29T00:24:48.661Z</time>
      </trkpt>
      <trkpt lat="47.86633" lon="-4.06209">
        <ele>8</ele>
        <time>2022-12-29T00:25:08.367Z</time>
      </trkpt>
      <trkpt lat="47.86631" lon="-4.06209">
        <ele>8</ele>
        <time>2022-12-29T00:25:28.073Z</time>
      </trkpt>
      <trkpt lat="47.86617" lon="-4.06204">
        <ele>8</ele>
        <time>2022-12-29T00:25:47.781Z</time>
      </trkpt>
      <trkpt lat="47.86617" lon="-4.06204">
        <ele>8</ele>
        <time>2022-12-29T00:26:07.489Z</time>
      </trkpt>
      <trkpt lat="47.86605" lon="-4.06199">
        <ele>8</ele>
        <time>2022-12-29T00:26:27.199Z</time>
      </trkpt>
      <trkpt lat="47.86604" lon="-4.06194">
        <ele>8</ele>
        <time>2022-12-29T00:26:46.910Z</time>
      </trkpt>
      <trkpt lat="47.86594" lon="-4.06186">
        <ele>8</ele>
        <time>2022-12-29T00:27:06.623Z</time>
      </trkpt>
      <trkpt lat="47.86601" lon="-4.06174">
        <ele>8</ele>
        <time>2022-12-29T00:27:26.337Z</time>
      </trkpt>
      <trkpt lat="47.86622" lon="-4.06154">
        <ele>8</ele>
        <time>2022-12-29T00:27:46.055Z</time>
      </trkpt>
      <trkpt lat="47.86622" lon="-4.06154">
        <ele>9</ele>
        <time>2022-12-29T00:28:05.773Z</time>
      </trkpt>
      <trkpt lat="47.86597" lon="-4.06077">
        <ele>9</ele>
        <time>2022-12-29T00:28:25.500Z</time>
      </trkpt>
      <trkpt lat="47.86596" lon="-4.06063">
        <ele>9</ele>
        <time>2022-12-29T00:28:45.229Z</time>
      </trkpt>
      <trkpt lat="47.86593" lon="-4.06043">
        <ele>9</ele>
        <time>2022-12-29T00:29:04.960Z</time>
      </trkpt>
      <trkpt lat="47.86597" lon="-4.06032">
        <ele>9</ele>
        <time>2022-12-29T00:29:24.693Z</time>
      </trkpt>
      <trkpt lat="47.86606" lon="-4.0602">
        <ele>9</ele>
        <time>2022-12-29T00:29:44.427Z</time>
      </trkpt>
      <trkpt lat="47.86606" lon="-4.06019">
        <ele>9</ele>
        <time>2022-12-29T00:30:04.162Z</time>
      </trkpt>
      <trkpt lat="47.86612" lon="-4.06011">
        <ele>9</ele>
        <time>2022-12-29T00:30:23.898Z</time>
      </trkpt>
      <trkpt lat="47.86627" lon="-4.05991">
        <ele>9</ele>
        <time>2022-12-29T00:30:43.637Z</time>
      </trkpt>
      <trkpt lat="47.86635" lon="-4.05975">
        <ele>9</ele>
        <time>2022-12-29T00:31:03.378Z</time>
      </trkpt>
      <trkpt lat="47.86635" lon="-4.05908">
        <ele>10</ele>
        <time>2022-12-29T00:31:23.126Z</time>
      </trkpt>
      <trkpt lat="47.86635" lon="-4.05906">
        <ele>10</ele>
        <time>2022-12-29T00:31:42.875Z</time>
      </trkpt>
      <trkpt lat="47.86635" lon="-4.05885">
        <ele>10</ele>
        <time>2022-12-29T00:32:02.626Z</time>
      </trkpt>
      <trkpt lat="47.86635" lon="-4.05885">
        <ele>10</ele>
        <time>2022-12-29T00:32:22.377Z</time>
      </trkpt>
      <trkpt lat="47.86635" lon="-4.05837">
        <ele>10</ele>
        <time>2022-12-29T00:32:42.133Z</time>
      </trkpt>
      <trkpt lat="47.86631" lon="-4.05827">
        <ele>10</ele>
        <time>2022-12-29T00:33:01.890Z</time>
      </trkpt>
      <trkpt lat="47.86625" lon="-4.05831">
        <ele>10</ele>
        <time>2022-12-29T00:33:21.648Z</time>
      </trkpt>
      <trkpt lat="47.8662" lon="-4.05832">
        <ele>10</ele>
        <time>2022-12-29T00:33:41.407Z</time>
      </trkpt>
      <trkpt lat="47.86609" lon="-4.0583">
        <ele>10</ele>
        <time>2022-12-29T00:34:01.168Z</time>
      </trkpt>
      <trkpt lat="47.86583" lon="-4.05824">
        <ele>10</ele>
        <time>2022-12-29T00:34:20.933Z</time>
      </trkpt>
      <trkpt lat="47.86539" lon="-4.0582">
        <ele>9</ele>
        <time>2022-12-29T00:34:40.705Z</time>
      </trkpt>
      <trkpt lat="47.86503" lon="-4.05813">
        <ele>9</ele>
        <time>2022-12-29T00:35:00.483Z</time>
      </trkpt>
      <trkpt lat="47.86501" lon="-4.05813">
        <ele>9</ele>
        <time>2022-12-29T00:35:20.261Z</time>
      </trkpt>
      <trkpt lat="47.86494" lon="-4.05813">
        <ele>9</ele>
        <time>2022-12-29T00:35:40.040Z</time>
      </trkpt>
      <trkpt lat="47.86491" lon="-4.05814">
        <ele>9</ele>
        <time>2022-12-29T00:35:59.820Z</time>
      </trkpt>
      <trkpt lat="47.8649" lon="-4.05815">
        <ele>9</ele>
        <time>2022-12-29T00:36:19.600Z</time>
      </trkpt>
      <trkpt lat="47.86483" lon="-4.05823">
        <ele>9</ele>
        <time>2022-12-29T00:36:39.382Z</time>
      </trkpt>
      <trkpt lat="47.86483" lon="-4.05824">
        <ele>9</ele>
        <time>2022-12-29T00:36:59.164Z</time>
      </trkpt>
      <trkpt lat="47.8646" lon="-4.05861">
        <ele>9</ele>
        <time>2022-12-29T00:37:18.951Z</time>
      </trkpt>
      <trkpt lat="47.8646" lon="-4.05862">
        <ele>9</ele>
        <time>2022-12-29T00:37:38.738Z</time>
      </trkpt>
      <trkpt lat="47.86446" lon="-4.05885">
        <ele>9</ele>
        <time>2022-12-29T00:37:58.528Z</time>
      </trkpt>
      <trkpt lat="47.86425" lon="-4.05916">
        <ele>9</ele>
        <time>2022-12-29T00:38:18.323Z</time>
      </trkpt>
      <trkpt lat="47.86408" lon="-4.0587">
        <ele>9</ele>
        <time>2022-12-29T00:38:38.124Z</time>
      </trkpt>
      <trkpt lat="47.86408" lon="-4.05869">
        <ele>9</ele>
        <time>2022-12-29T00:38:57.925Z</time>
      </trkpt>
      <trkpt lat="47.86408" lon="-4.05867">
        <ele>9</ele>
        <time>2022-12-29T00:39:17.726Z</time>
      </trkpt>
      <trkpt lat="47.86403" lon="-4.05847">
        <ele>9</ele>
        <time>2022-12-29T00:39:37.529Z</time>
      </trkpt>
      <trkpt lat="47.86403" lon="-4.05847">
        <ele>8</ele>
        <time>2022-12-29T00:39:57.332Z</time>
      </trkpt>
      <trkpt lat="47.86397" lon="-4.05825">
        <ele>8</ele>
        <time>2022-12-29T00:40:17.138Z</time>
      </trkpt>
      <trkpt lat="47.86388" lon="-4.05768">
        <ele>8</ele>
        <time>2022-12-29T00:40:36.950Z</time>
      </trkpt>
      <trkpt lat="47.86381" lon="-4.05771">
        <ele>8</ele>
        <time>2022-12-29T00:40:56.763Z</time>
      </trkpt>
      <trkpt lat="47.86305" lon="-4.0581">
        <ele>8</ele>
        <time>2022-12-29T00:41:16.589Z</time>
      </trkpt>
      <trkpt lat="47.86294" lon="-4.05776">
        <ele>8</ele>
        <time>2022-12-29T00:41:36.419Z</time>
      </trkpt>
      <trkpt lat="47.86228" lon="-4.05673">
        <ele>8</ele>
        <time>2022-12-29T00:41:56.265Z</time>
      </trkpt>
      <trkpt lat="47.86211" lon="-4.05656">
        <ele>8</ele>
        <time>2022-12-29T00:42:16.114Z</time>
      </trkpt>
      <trkpt lat="47.86209" lon="-4.05649">
        <ele>8</ele>
        <time>2022-12-29T00:42:35.964Z</time>
      </trkpt>
      <trkpt lat="47.86204" lon="-4.05631">
        <ele>7</ele>
        <time>2022-12-29T00:42:55.816Z</time>
      </trkpt>
      <trkpt lat="47.86204" lon="-4.05618">
        <ele>7</ele>
        <time>2022-12-29T00:43:15.669Z</time>
      </trkpt>
      <trkpt lat="47.86212" lon="-4.05585">
        <ele>7</ele>
        <time>2022-12-29T00:43:35.526Z</time>
      </trkpt>
      <trkpt lat="47.86216" lon="-4.05576">
        <ele>7</ele>
        <time>2022-12-29T00:43:55.384Z</time>
      </trkpt>
      <trkpt lat="47.86224" lon="-4.05564">
        <ele>7</ele>
        <time>2022-12-29T00:44:15.244Z</time>
      </trkpt>
      <trkpt lat="47.86225" lon="-4.0556">
        <ele>7</ele>
        <time>2022-12-29T00:44:35.105Z</time>
      </trkpt>
      <trkpt lat="47.86219" lon="-4.05537">
        <ele>7</ele>
        <time>2022-12-29T00:44:54.968Z</time>
      </trkpt>
      <trkpt lat="47.86213" lon="-4.05452">
        <ele>7</ele>
        <time>2022-12-29T00:45:14.840Z</time>
      </trkpt>
      <trkpt lat="47.86208" lon="-4.05406">
        <ele>7</ele>
        <time>2022-12-29T00:45:34.717Z</time>
      </trkpt>
      <trkpt lat="47.86208" lon="-4.05404">
        <ele>7</ele>
        <time>2022-12-29T00:45:54.595Z</time>
      </trkpt>
      <trkpt lat="47.86218" lon="-4.05376">
        <ele>7</ele>
        <time>2022-12-29T00:46:14.476Z</time>
      </trkpt>
      <trkpt lat="47.86206" lon="-4.05367">
        <ele>7</ele>
        <time>2022-12-29T00:46:34.359Z</time>
      </trkpt>
      <trkpt lat="47.86205" lon="-4.05367">
        <ele>7</ele>
        <time>2022-12-29T00:46:54.242Z</time>
      </trkpt>
      <trkpt lat="47.86194" lon="-4.05358">
        <ele>7</ele>
        <time>2022-12-29T00:47:14.127Z</time>
      </trkpt>
      <trkpt lat="47.86134" lon="-4.05295">
        <ele>7</ele>
        <time>2022-12-29T00:47:34.024Z</time>
      </trkpt>
      <trkpt lat="47.86132" lon="-4.05294">
        <ele>7</ele>
        <time>2022-12-29T00:47:53.921Z</time>
      </trkpt>
      <trkpt lat="47.86121" lon="-4.05281">
        <ele>7</ele>
        <time>2022-12-29T00:48:13.821Z</time>
      </trkpt>
      <trkpt lat="47.86121" lon="-4.05281">
        <ele>7</ele>
        <time>2022-12-29T00:48:33.721Z</time>
      </trkpt>
      <trkpt lat="47.86115" lon="-4.05276">
        <ele>7</ele>
        <time>2022-12-29T00:48:53.622Z</time>
      </trkpt>
      <trkpt lat="47.86105" lon="-4.05266">
        <ele>7</ele>
        <time>2022-12-29T00:49:13.525Z</time>
      </trkpt>
      <trkpt lat="47.86074" lon="-4.05232">
        <ele>7</ele>
        <time>2022-12-29T00:49:33.434Z</time>
      </trkpt>
      <trkpt lat="47.86068" lon="-4.05232">
        <ele>6</ele>
        <time>2022-12-29T00:49:53.344Z</time>
      </trkpt>
      <trkpt lat="47.86063" lon="-4.05232">
        <ele>6</ele>
        <time>2022-12-29T00:50:13.255Z</time>
      </trkpt>
      <trkpt lat="47.86052" lon="-4.05227">
        <ele>6</ele>
        <time>2022-12-29T00:50:33.167Z</time>
      </trkpt>
      <trkpt lat="47.8601" lon="-4.05188">
        <ele>6</ele>
        <time>2022-12-29T00:50:53.087Z</time>
      </trkpt>
      <trkpt lat="47.85973" lon="-4.05147">
        <ele>6</ele>
        <time>2022-12-29T00:51:13.015Z</time>
      </trkpt>
      <trkpt lat="47.85906" lon="-4.05138">
        <ele>6</ele>
        <time>2022-12-29T00:51:32.953Z</time>
      </trkpt>
      <trkpt lat="47.85884" lon="-4.05135">
        <ele>6</ele>
        <time>2022-12-29T00:51:52.895Z</time>
      </trkpt>
      <trkpt lat="47.85842" lon="-4.05131">
        <ele>6</ele>
        <time>2022-12-29T00:52:12.844Z</time>
      </trkpt>
      <trkpt lat="47.85824" lon="-4.05117">
        <ele>6</ele>
        <time>2022-12-29T00:52:32.796Z</time>
      </trkpt>
      <trkpt lat="47.85817" lon="-4.05112">
        <ele>6</ele>
        <time>2022-12-29T00:52:52.749Z</time>
      </trkpt>
      <trkpt lat="47.85785" lon="-4.05088">
        <ele>5</ele>
        <time>2022-12-29T00:53:12.708Z</time>
      </trkpt>
      <trkpt lat="47.85753" lon="-4.05063">
        <ele>5</ele>
        <time>2022-12-29T00:53:32.673Z</time>
      </trkpt>
      <trkpt lat="47.85729" lon="-4.0504">
        <ele>5</ele>
        <time>2022-12-29T00:53:52.642Z</time>
      </trkpt>
      <trkpt lat="47.85705" lon="-4.0503">
        <ele>5</ele>
        <time>2022-12-29T00:54:12.615Z</time>
      </trkpt>
      <trkpt lat="47.85693" lon="-4.05028">
        <ele>5</ele>
        <time>2022-12-29T00:54:32.590Z</time>
      </trkpt>
      <trkpt lat="47.8568" lon="-4.05031">
        <ele>5</ele>
        <time>2022-12-29T00:54:52.567Z</time>
      </trkpt>
      <trkpt lat="47.85666" lon="-4.05044">
        <ele>5</ele>
        <time>2022-12-29T00:55:12.547Z</time>
      </trkpt>
      <trkpt lat="47.85597" lon="-4.05117">
        <ele>5</ele>
        <time>2022-12-29T00:55:32.541Z</time>
      </trkpt>
      <trkpt lat="47.85586" lon="-4.05127">
        <ele>4</ele>
        <time>2022-12-29T00:55:52.537Z</time>
      </trkpt>
      <trkpt lat="47.85568" lon="-4.05136">
        <ele>4</ele>
        <time>2022-12-29T00:56:12.536Z</time>
      </trkpt>
      <trkpt lat="47.85558" lon="-4.05137">
        <ele>4</ele>
        <time>2022-12-29T00:56:32.536Z</time>
      </trkpt>
      <trkpt lat="47.85523" lon="-4.05141">
        <ele>4</ele>
        <time>2022-12-29T00:56:52.542Z</time>
      </trkpt>
      <trkpt lat="47.85523" lon="-4.05141">
        <ele>4</ele>
        <time>2022-12-29T00:57:12.548Z</time>
      </trkpt>
      <trkpt lat="47.85516" lon="-4.05141">
        <ele>4</ele>
        <time>2022-12-29T00:57:32.555Z</time>
      </trkpt>
      <trkpt lat="47.85516" lon="-4.05141">
        <ele>4</ele>
        <time>2022-12-29T00:57:52.562Z</time>
      </trkpt>
      <trkpt lat="47.85473" lon="-4.05149">
        <ele>4</ele>
        <time>2022-12-29T00:58:12.576Z</time>
      </trkpt>
      <trkpt lat="47.85459" lon="-4.05157">
        <ele>4</ele>
        <time>2022-12-29T00:58:32.592Z</time>
      </trkpt>
      <trkpt lat="47.85454" lon="-4.05167">
        <ele>4</ele>
        <time>2022-12-29T00:58:52.610Z</time>
      </trkpt>
      <trkpt lat="47.85447" lon="-4.05183">
        <ele>4</ele>
        <time>2022-12-29T00:59:12.630Z</time>
      </trkpt>
      <trkpt lat="47.85446" lon="-4.05185">
        <ele>4</ele>
        <time>2022-12-29T00:59:32.650Z</time>
      </trkpt>
      <trkpt lat="47.85439" lon="-4.05203">
        <ele>4</ele>
        <time>2022-12-29T00:59:52.672Z</time>
      </trkpt>
      <trkpt lat="47.85439" lon="-4.05203">
        <ele>4</ele>
        <time>2022-12-29T01:00:12.694Z</time>
      </trkpt>
      <trkpt lat="47.85439" lon="-4.05204">
        <ele>3</ele>
        <time>2022-12-29T01:00:32.716Z</time>
      </trkpt>
      <trkpt lat="47.85434" lon="-4.05217">
        <ele>3</ele>
        <time>2022-12-29T01:00:52.740Z</time>
      </trkpt>
      <trkpt lat="47.8541" lon="-4.05166">
        <ele>3</ele>
        <time>2022-12-29T01:01:12.771Z</time>
      </trkpt>
      <trkpt lat="47.85405" lon="-4.05154">
        <ele>3</ele>
        <time>2022-12-29T01:01:32.803Z</time>
      </trkpt>
      <trkpt lat="47.8541" lon="-4.05166">
        <ele>3</ele>
        <time>2022-12-29T01:01:52.837Z</time>
      </trkpt>
      <trkpt lat="47.85405" lon="-4.05154">
        <ele>3</ele>
        <time>2022-12-29T01:02:12.872Z</time>
      </trkpt>
      <trkpt lat="47.85367" lon="-4.05073">
        <ele>3</ele>
        <time>2022-12-29T01:02:32.918Z</time>
      </trkpt>
      <trkpt lat="47.85367" lon="-4.05073">
        <ele>3</ele>
        <time>2022-12-29T01:02:52.964Z</time>
      </trkpt>
      <trkpt lat="47.85357" lon="-4.05052">
        <ele>3</ele>
        <time>2022-12-29T01:03:13.013Z</time>
      </trkpt>
      <trkpt lat="47.85286" lon="-4.04943">
        <ele>3</ele>
        <time>2022-12-29T01:03:33.078Z</time>
      </trkpt>
      <trkpt lat="47.85165" lon="-4.04754">
        <ele>3</ele>
        <time>2022-12-29T01:03:53.171Z</time>
      </trkpt>
      <trkpt lat="47.85123" lon="-4.04697">
        <ele>3</ele>
        <time>2022-12-29T01:04:13.273Z</time>
      </trkpt>
      <trkpt lat="47.85121" lon="-4.0469">
        <ele>3</ele>
        <time>2022-12-29T01:04:33.376Z</time>
      </trkpt>
      <trkpt lat="47.85118" lon="-4.04663">
        <ele>3</ele>
        <time>2022-12-29T01:04:53.482Z</time>
      </trkpt>
      <trkpt lat="47.85098" lon="-4.04655">
        <ele>3</ele>
        <time>2022-12-29T01:05:13.591Z</time>
      </trkpt>
      <trkpt lat="47.8508" lon="-4.04632">
        <ele>3</ele>
        <time>2022-12-29T01:05:33.704Z</time>
      </trkpt>
      <trkpt lat="47.85056" lon="-4.04601">
        <ele>3</ele>
        <time>2022-12-29T01:05:53.822Z</time>
      </trkpt>
      <trkpt lat="47.85047" lon="-4.04589">
        <ele>3</ele>
        <time>2022-12-29T01:06:13.942Z</time>
      </trkpt>
      <trkpt lat="47.85038" lon="-4.04579">
        <ele>3</ele>
        <time>2022-12-29T01:06:34.064Z</time>
      </trkpt>
      <trkpt lat="47.85028" lon="-4.04564">
        <ele>3</ele>
        <time>2022-12-29T01:06:54.188Z</time>
      </trkpt>
      <trkpt lat="47.84967" lon="-4.04498">
        <ele>3</ele>
        <time>2022-12-29T01:07:14.325Z</time>
      </trkpt>
      <trkpt lat="47.84959" lon="-4.04498">
        <ele>3</ele>
        <time>2022-12-29T01:07:34.463Z</time>
      </trkpt>
      <trkpt lat="47.84953" lon="-4.04495">
        <ele>3</ele>
        <time>2022-12-29T01:07:54.602Z</time>
      </trkpt>
      <trkpt lat="47.8494" lon="-4.045">
        <ele>3</ele>
        <time>2022-12-29T01:08:14.743Z</time>
      </trkpt>
      <trkpt lat="47.84923" lon="-4.04496">
        <ele>3</ele>
        <time>2022-12-29T01:08:34.887Z</time>
      </trkpt>
      <trkpt lat="47.84831" lon="-4.04395">
        <ele>3</ele>
        <time>2022-12-29T01:08:55.049Z</time>
      </trkpt>
      <trkpt lat="47.84793" lon="-4.04345">
        <ele>3</ele>
        <time>2022-12-29T01:09:15.219Z</time>
      </trkpt>
      <trkpt lat="47.84677" lon="-4.0417">
        <ele>2</ele>
        <time>2022-12-29T01:09:35.416Z</time>
      </trkpt>
      <trkpt lat="47.84677" lon="-4.0417">
        <ele>2</ele>
        <time>2022-12-29T01:09:55.613Z</time>
      </trkpt>
      <trkpt lat="47.8466" lon="-4.04144">
        <ele>2</ele>
        <time>2022-12-29T01:10:15.814Z</time>
      </trkpt>
      <trkpt lat="47.84646" lon="-4.04123">
        <ele>2</ele>
        <time>2022-12-29T01:10:36.018Z</time>
      </trkpt>
      <trkpt lat="47.84596" lon="-4.04134">
        <ele>2</ele>
        <time>2022-12-29T01:10:56.230Z</time>
      </trkpt>
      <trkpt lat="47.84593" lon="-4.0414">
        <ele>2</ele>
        <time>2022-12-29T01:11:16.443Z</time>
      </trkpt>
      <trkpt lat="47.84559" lon="-4.04142">
        <ele>2</ele>
        <time>2022-12-29T01:11:36.661Z</time>
      </trkpt>
      <trkpt lat="47.84543" lon="-4.04142">
        <ele>2</ele>
        <time>2022-12-29T01:11:56.882Z</time>
      </trkpt>
      <trkpt lat="47.84535" lon="-4.04139">
        <ele>2</ele>
        <time>2022-12-29T01:12:17.104Z</time>
      </trkpt>
      <trkpt lat="47.84525" lon="-4.04135">
        <ele>2</ele>
        <time>2022-12-29T01:12:37.328Z</time>
      </trkpt>
      <trkpt lat="47.84524" lon="-4.04135">
        <ele>2</ele>
        <time>2022-12-29T01:12:57.552Z</time>
      </trkpt>
      <trkpt lat="47.84512" lon="-4.0413">
        <ele>1</ele>
        <time>2022-12-29T01:13:17.778Z</time>
      </trkpt>
      <trkpt lat="47.8446" lon="-4.04058">
        <ele>1</ele>
        <time>2022-12-29T01:13:38.015Z</time>
      </trkpt>
      <trkpt lat="47.84459" lon="-4.04054">
        <ele>1</ele>
        <time>2022-12-29T01:13:58.253Z</time>
      </trkpt>
      <trkpt lat="47.84459" lon="-4.04052">
        <ele>1</ele>
        <time>2022-12-29T01:14:18.491Z</time>
      </trkpt>
      <trkpt lat="47.84458" lon="-4.04049">
        <ele>1</ele>
        <time>2022-12-29T01:14:38.729Z</time>
      </trkpt>
      <trkpt lat="47.84456" lon="-4.04038">
        <ele>1</ele>
        <time>2022-12-29T01:14:58.968Z</time>
      </trkpt>
      <trkpt lat="47.8446" lon="-4.04042">
        <ele>1</ele>
        <time>2022-12-29T01:15:19.208Z</time>
      </trkpt>
      <trkpt lat="47.8446" lon="-4.04031">
        <ele>1</ele>
        <time>2022-12-29T01:15:39.449Z</time>
      </trkpt>
      <trkpt lat="47.8446" lon="-4.04028">
        <ele>1</ele>
        <time>2022-12-29T01:15:59.691Z</time>
      </trkpt>
      <trkpt lat="47.8446" lon="-4.04028">
        <ele>1</ele>
        <time>2022-12-29T01:16:19.933Z</time>
      </trkpt>
      <trkpt lat="47.84474" lon="-4.03993">
        <ele>1</ele>
        <time>2022-12-29T01:16:40.179Z</time>
      </trkpt>
      <trkpt lat="47.84493" lon="-4.03967">
        <ele>1</ele>
        <time>2022-12-29T01:17:00.429Z</time>
      </trkpt>
      <trkpt lat="47.84501" lon="-4.03956">
        <ele>1</ele>
        <time>2022-12-29T01:17:20.681Z</time>
      </trkpt>
      <trkpt lat="47.84575" lon="-4.03862">
        <ele>1</ele>
        <time>2022-12-29T01:17:40.948Z</time>
      </trkpt>
      <trkpt lat="47.84578" lon="-4.03852">
        <ele>1</ele>
        <time>2022-12-29T01:18:01.217Z</time>
      </trkpt>
      <trkpt lat="47.84631" lon="-4.03786">
        <ele>1</ele>
        <time>2022-12-29T01:18:21.497Z</time>
      </trkpt>
      <trkpt lat="47.84641" lon="-4.03775">
        <ele>1</ele>
        <time>2022-12-29T01:18:41.779Z</time>
      </trkpt>
      <trkpt lat="47.8477" lon="-4.03616">
        <ele>2</ele>
        <time>2022-12-29T01:19:02.088Z</time>
      </trkpt>
      <trkpt lat="47.84781" lon="-4.036">
        <ele>2</ele>
        <time>2022-12-29T01:19:22.399Z</time>
      </trkpt>
      <trkpt lat="47.84789" lon="-4.03601">
        <ele>2</ele>
        <time>2022-12-29T01:19:42.711Z</time>
      </trkpt>
      <trkpt lat="47.84794" lon="-4.03605">
        <ele>2</ele>
        <time>2022-12-29T01:20:03.024Z</time>
      </trkpt>
      <trkpt lat="47.84796" lon="-4.03612">
        <ele>2</ele>
        <time>2022-12-29T01:20:23.338Z</time>
      </trkpt>
      <trkpt lat="47.8482" lon="-4.03634">
        <ele>2</ele>
        <time>2022-12-29T01:20:43.656Z</time>
      </trkpt>
      <trkpt lat="47.8482" lon="-4.03634">
        <ele>2</ele>
        <time>2022-12-29T01:21:03.974Z</time>
      </trkpt>
      <trkpt lat="47.84891" lon="-4.03694">
        <ele>2</ele>
        <time>2022-12-29T01:21:24.306Z</time>
      </trkpt>
      <trkpt lat="47.84896" lon="-4.03696">
        <ele>2</ele>
        <time>2022-12-29T01:21:44.638Z</time>
      </trkpt>
      <trkpt lat="47.84924" lon="-4.03711">
        <ele>2</ele>
        <time>2022-12-29T01:22:04.975Z</time>
      </trkpt>
      <trkpt lat="47.84959" lon="-4.03721">
        <ele>2</ele>
        <time>2022-12-29T01:22:25.318Z</time>
      </trkpt>
      <trkpt lat="47.85047" lon="-4.03727">
        <ele>3</ele>
        <time>2022-12-29T01:22:45.675Z</time>
      </trkpt>
      <trkpt lat="47.85077" lon="-4.03727">
        <ele>3</ele>
        <time>2022-12-29T01:23:06.037Z</time>
      </trkpt>
      <trkpt lat="47.85098" lon="-4.03724">
        <ele>3</ele>
        <time>2022-12-29T01:23:26.402Z</time>
      </trkpt>
      <trkpt lat="47.85102" lon="-4.03719">
        <ele>3</ele>
        <time>2022-12-29T01:23:46.768Z</time>
      </trkpt>
      <trkpt lat="47.85103" lon="-4.03713">
        <ele>3</ele>
        <time>2022-12-29T01:24:07.135Z</time>
      </trkpt>
      <trkpt lat="47.85103" lon="-4.03713">
        <ele>3</ele>
        <time>2022-12-29T01:24:27.502Z</time>
      </trkpt>
      <trkpt lat="47.85103" lon="-4.03706">
        <ele>3</ele>
        <time>2022-12-29T01:24:47.869Z</time>
      </trkpt>
      <trkpt lat="47.85089" lon="-4.0362">
        <ele>3</ele>
        <time>2022-12-29T01:25:08.246Z</time>
      </trkpt>
      <trkpt lat="47.85088" lon="-4.03615">
        <ele>3</ele>
        <time>2022-12-29T01:25:28.624Z</time>
      </trkpt>
      <trkpt lat="47.85089" lon="-4.0362">
        <ele>3</ele>
        <time>2022-12-29T01:25:49.002Z</time>
      </trkpt>
      <trkpt lat="47.85088" lon="-4.03615">
        <ele>3</ele>
        <time>2022-12-29T01:26:09.381Z</time>
      </trkpt>
      <trkpt lat="47.85086" lon="-4.03598">
        <ele>4</ele>
        <time>2022-12-29T01:26:29.762Z</time>
      </trkpt>
      <trkpt lat="47.85082" lon="-4.03563">
        <ele>4</ele>
        <time>2022-12-29T01:26:50.146Z</time>
      </trkpt>
      <trkpt lat="47.85082" lon="-4.03548">
        <ele>4</ele>
        <time>2022-12-29T01:27:10.532Z</time>
      </trkpt>
      <trkpt lat="47.85082" lon="-4.03547">
        <ele>4</ele>
        <time>2022-12-29T01:27:30.918Z</time>
      </trkpt>
      <trkpt lat="47.85081" lon="-4.03507">
        <ele>4</ele>
        <time>2022-12-29T01:27:51.308Z</time>
      </trkpt>
      <trkpt lat="47.85085" lon="-4.03489">
        <ele>4</ele>
        <time>2022-12-29T01:28:11.700Z</time>
      </trkpt>
      <trkpt lat="47.85094" lon="-4.03443">
        <ele>4</ele>
        <time>2022-12-29T01:28:32.098Z</time>
      </trkpt>
      <trkpt lat="47.85098" lon="-4.03426">
        <ele>4</ele>
        <time>2022-12-29T01:28:52.498Z</time>
      </trkpt>
      <trkpt lat="47.85099" lon="-4.03424">
        <ele>4</ele>
        <time>2022-12-29T01:29:12.898Z</time>
      </trkpt>
      <trkpt lat="47.85104" lon="-4.03403">
        <ele>4</ele>
        <time>2022-12-29T01:29:33.300Z</time>
      </trkpt>
      <trkpt lat="47.85104" lon="-4.03403">
        <ele>4</ele>
        <time>2022-12-29T01:29:53.702Z</time>
      </trkpt>
      <trkpt lat="47.85106" lon="-4.03395">
        <ele>4</ele>
        <time>2022-12-29T01:30:14.105Z</time>
      </trkpt>
      <trkpt lat="47.85124" lon="-4.03351">
        <ele>4</ele>
        <time>2022-12-29T01:30:34.514Z</time>
      </trkpt>
      <trkpt lat="47.85135" lon="-4.03347">
        <ele>4</ele>
        <time>2022-12-29T01:30:54.924Z</time>
      </trkpt>
      <trkpt lat="47.85135" lon="-4.03347">
        <ele>4</ele>
        <time>2022-12-29T01:31:15.334Z</time>
      </trkpt>
      <trkpt lat="47.85147" lon="-4.03346">
        <ele>4</ele>
        <time>2022-12-29T01:31:35.746Z</time>
      </trkpt>
      <trkpt lat="47.85164" lon="-4.03343">
        <ele>4</ele>
        <time>2022-12-29T01:31:56.161Z</time>
      </trkpt>
      <trkpt lat="47.85219" lon="-4.03346">
        <ele>4</ele>
        <time>2022-12-29T01:32:16.585Z</time>
      </trkpt>
      <trkpt lat="47.85219" lon="-4.03346">
        <ele>4</ele>
        <time>2022-12-29T01:32:37.009Z</time>
      </trkpt>
      <trkpt lat="47.85243" lon="-4.03346">
        <ele>4</ele>
        <time>2022-12-29T01:32:57.437Z</time>
      </trkpt>
      <trkpt lat="47.85299" lon="-4.03316">
        <ele>4</ele>
        <time>2022-12-29T01:33:17.874Z</time>
      </trkpt>
      <trkpt lat="47.8533" lon="-4.03169">
        <ele>3</ele>
        <time>2022-12-29T01:33:38.328Z</time>
      </trkpt>
      <trkpt lat="47.85379" lon="-4.02953">
        <ele>4</ele>
        <time>2022-12-29T01:33:58.807Z</time>
      </trkpt>
      <trkpt lat="47.85283" lon="-4.02929">
        <ele>3</ele>
        <time>2022-12-29T01:34:19.301Z</time>
      </trkpt>
      <trkpt lat="47.85276" lon="-4.02881">
        <ele>3</ele>
        <time>2022-12-29T01:34:39.800Z</time>
      </trkpt>
      <trkpt lat="47.85273" lon="-4.02863">
        <ele>3</ele>
        <time>2022-12-29T01:35:00.301Z</time>
      </trkpt>
      <trkpt lat="47.85263" lon="-4.02796">
        <ele>3</ele>
        <time>2022-12-29T01:35:20.810Z</time>
      </trkpt>
      <trkpt lat="47.85263" lon="-4.02796">
        <ele>3</ele>
        <time>2022-12-29T01:35:41.319Z</time>
      </trkpt>
      <trkpt lat="47.85258" lon="-4.02649">
        <ele>3</ele>
        <time>2022-12-29T01:36:01.844Z</time>
      </trkpt>
      <trkpt lat="47.8526" lon="-4.02643">
        <ele>3</ele>
        <time>2022-12-29T01:36:22.369Z</time>
      </trkpt>
      <trkpt lat="47.85262" lon="-4.02603">
        <ele>3</ele>
        <time>2022-12-29T01:36:42.899Z</time>
      </trkpt>
      <trkpt lat="47.8527" lon="-4.02567">
        <ele>3</ele>
        <time>2022-12-29T01:37:03.433Z</time>
      </trkpt>
      <trkpt lat="47.85263" lon="-4.02541">
        <ele>3</ele>
        <time>2022-12-29T01:37:23.970Z</time>
      </trkpt>
      <trkpt lat="47.8526" lon="-4.02534">
        <ele>3</ele>
        <time>2022-12-29T01:37:44.508Z</time>
      </trkpt>
      <trkpt lat="47.85251" lon="-4.02418">
        <ele>3</ele>
        <time>2022-12-29T01:38:05.058Z</time>
      </trkpt>
      <trkpt lat="47.85265" lon="-4.02369">
        <ele>3</ele>
        <time>2022-12-29T01:38:25.614Z</time>
      </trkpt>
      <trkpt lat="47.85315" lon="-4.02183">
        <ele>3</ele>
        <time>2022-12-29T01:38:46.192Z</time>
      </trkpt>
      <trkpt lat="47.85331" lon="-4.02085">
        <ele>3</ele>
        <time>2022-12-29T01:39:06.780Z</time>
      </trkpt>
      <trkpt lat="47.85339" lon="-4.02037">
        <ele>3</ele>
        <time>2022-12-29T01:39:27.374Z</time>
      </trkpt>
      <trkpt lat="47.85355" lon="-4.01994">
        <ele>3</ele>
        <time>2022-12-29T01:39:47.973Z</time>
      </trkpt>
      <trkpt lat="47.85363" lon="-4.01969">
        <ele>3</ele>
        <time>2022-12-29T01:40:08.575Z</time>
      </trkpt>
      <trkpt lat="47.85369" lon="-4.01948">
        <ele>3</ele>
        <time>2022-12-29T01:40:29.180Z</time>
      </trkpt>
      <trkpt lat="47.85369" lon="-4.01947">
        <ele>2</ele>
        <time>2022-12-29T01:40:49.785Z</time>
      </trkpt>
      <trkpt lat="47.85387" lon="-4.0188">
        <ele>2</ele>
        <time>2022-12-29T01:41:10.397Z</time>
      </trkpt>
      <trkpt lat="47.85414" lon="-4.01844">
        <ele>2</ele>
        <time>2022-12-29T01:41:31.015Z</time>
      </trkpt>
      <trkpt lat="47.85415" lon="-4.01843">
        <ele>2</ele>
        <time>2022-12-29T01:41:51.633Z</time>
      </trkpt>
      <trkpt lat="47.85426" lon="-4.01829">
        <ele>2</ele>
        <time>2022-12-29T01:42:12.254Z</time>
      </trkpt>
      <trkpt lat="47.85426" lon="-4.01829">
        <ele>2</ele>
        <time>2022-12-29T01:42:32.875Z</time>
      </trkpt>
      <trkpt lat="47.8544" lon="-4.0181">
        <ele>2</ele>
        <time>2022-12-29T01:42:53.499Z</time>
      </trkpt>
      <trkpt lat="47.8544" lon="-4.0181">
        <ele>2</ele>
        <time>2022-12-29T01:43:14.123Z</time>
      </trkpt>
      <trkpt lat="47.85474" lon="-4.01764">
        <ele>2</ele>
        <time>2022-12-29T01:43:34.754Z</time>
      </trkpt>
      <trkpt lat="47.85504" lon="-4.01723">
        <ele>2</ele>
        <time>2022-12-29T01:43:55.392Z</time>
      </trkpt>
      <trkpt lat="47.85568" lon="-4.01678">
        <ele>2</ele>
        <time>2022-12-29T01:44:16.041Z</time>
      </trkpt>
      <trkpt lat="47.85638" lon="-4.01687">
        <ele>2</ele>
        <time>2022-12-29T01:44:36.701Z</time>
      </trkpt>
      <trkpt lat="47.85638" lon="-4.01687">
        <ele>2</ele>
        <time>2022-12-29T01:44:57.361Z</time>
      </trkpt>
      <trkpt lat="47.85684" lon="-4.01592">
        <ele>2</ele>
        <time>2022-12-29T01:45:18.034Z</time>
      </trkpt>
      <trkpt lat="47.85674" lon="-4.01577">
        <ele>2</ele>
        <time>2022-12-29T01:45:38.709Z</time>
      </trkpt>
      <trkpt lat="47.85608" lon="-4.01513">
        <ele>2</ele>
        <time>2022-12-29T01:45:59.397Z</time>
      </trkpt>
      <trkpt lat="47.85608" lon="-4.01513">
        <ele>2</ele>
        <time>2022-12-29T01:46:20.085Z</time>
      </trkpt>
      <trkpt lat="47.85598" lon="-4.01502">
        <ele>2</ele>
        <time>2022-12-29T01:46:40.775Z</time>
      </trkpt>
      <trkpt lat="47.85512" lon="-4.01399">
        <ele>2</ele>
        <time>2022-12-29T01:47:01.482Z</time>
      </trkpt>
      <trkpt lat="47.85492" lon="-4.01385">
        <ele>2</ele>
        <time>2022-12-29T01:47:22.193Z</time>
      </trkpt>
      <trkpt lat="47.85488" lon="-4.01382">
        <ele>2</ele>
        <time>2022-12-29T01:47:42.905Z</time>
      </trkpt>
      <trkpt lat="47.85454" lon="-4.01323">
        <ele>2</ele>
        <time>2022-12-29T01:48:03.625Z</time>
      </trkpt>
      <trkpt lat="47.85435" lon="-4.01263">
        <ele>2</ele>
        <time>2022-12-29T01:48:24.352Z</time>
      </trkpt>
      <trkpt lat="47.85431" lon="-4.01249">
        <ele>2</ele>
        <time>2022-12-29T01:48:45.081Z</time>
      </trkpt>
      <trkpt lat="47.85381" lon="-4.01075">
        <ele>2</ele>
        <time>2022-12-29T01:49:05.830Z</time>
      </trkpt>
      <trkpt lat="47.85369" lon="-4.01051">
        <ele>2</ele>
        <time>2022-12-29T01:49:26.582Z</time>
      </trkpt>
      <trkpt lat="47.85362" lon="-4.01025">
        <ele>2</ele>
        <time>2022-12-29T01:49:47.337Z</time>
      </trkpt>
      <trkpt lat="47.85357" lon="-4.01009">
        <ele>2</ele>
        <time>2022-12-29T01:50:08.094Z</time>
      </trkpt>
      <trkpt lat="47.8535" lon="-4.00978">
        <ele>2</ele>
        <time>2022-12-29T01:50:28.855Z</time>
      </trkpt>
      <trkpt lat="47.85331" lon="-4.00838">
        <ele>2</ele>
        <time>2022-12-29T01:50:49.631Z</time>
      </trkpt>
      <trkpt lat="47.85332" lon="-4.00707">
        <ele>2</ele>
        <time>2022-12-29T01:51:10.421Z</time>
      </trkpt>
      <trkpt lat="47.85331" lon="-4.00635">
        <ele>2</ele>
        <time>2022-12-29T01:51:31.219Z</time>
      </trkpt>
      <trkpt lat="47.85329" lon="-4.00592">
        <ele>2</ele>
        <time>2022-12-29T01:51:52.022Z</time>
      </trkpt>
      <trkpt lat="47.85328" lon="-4.00582">
        <ele>2</ele>
        <time>2022-12-29T01:52:12.826Z</time>
      </trkpt>
      <trkpt lat="47.85321" lon="-4.00532">
        <ele>2</ele>
        <time>2022-12-29T01:52:33.635Z</time>
      </trkpt>
      <trkpt lat="47.85326" lon="-4.00509">
        <ele>2</ele>
        <time>2022-12-29T01:52:54.447Z</time>
      </trkpt>
      <trkpt lat="47.85338" lon="-4.00469">
        <ele>2</ele>
        <time>2022-12-29T01:53:15.264Z</time>
      </trkpt>
      <trkpt lat="47.85343" lon="-4.00443">
        <ele>2</ele>
        <time>2022-12-29T01:53:36.084Z</time>
      </trkpt>
      <trkpt lat="47.85342" lon="-4.0038">
        <ele>2</ele>
        <time>2022-12-29T01:53:56.910Z</time>
      </trkpt>
      <trkpt lat="47.85335" lon="-4.00332">
        <ele>2</ele>
        <time>2022-12-29T01:54:17.742Z</time>
      </trkpt>
      <trkpt lat="47.85331" lon="-4.00282">
        <ele>2</ele>
        <time>2022-12-29T01:54:38.579Z</time>
      </trkpt>
      <trkpt lat="47.85342" lon="-4.00232">
        <ele>2</ele>
        <time>2022-12-29T01:54:59.422Z</time>
      </trkpt>
      <trkpt lat="47.85355" lon="-4.00151">
        <ele>2</ele>
        <time>2022-12-29T01:55:20.274Z</time>
      </trkpt>
      <trkpt lat="47.85359" lon="-4.00121">
        <ele>2</ele>
        <time>2022-12-29T01:55:41.129Z</time>
      </trkpt>
      <trkpt lat="47.85366" lon="-4.00071">
        <ele>2</ele>
        <time>2022-12-29T01:56:01.990Z</time>
      </trkpt>
      <trkpt lat="47.85367" lon="-4.0007">
        <ele>2</ele>
        <time>2022-12-29T01:56:22.851Z</time>
      </trkpt>
      <trkpt lat="47.8537" lon="-4.00043">
        <ele>2</ele>
        <time>2022-12-29T01:56:43.715Z</time>
      </trkpt>
      <trkpt lat="47.85377" lon="-3.99994">
        <ele>2</ele>
        <time>2022-12-29T01:57:04.584Z</time>
      </trkpt>
      <trkpt lat="47.8539" lon="-3.99955">
        <ele>2</ele>
        <time>2022-12-29T01:57:25.458Z</time>
      </trkpt>
      <trkpt lat="47.85392" lon="-3.99953">
        <ele>2</ele>
        <time>2022-12-29T01:57:46.332Z</time>
      </trkpt>
      <trkpt lat="47.85394" lon="-3.99952">
        <ele>2</ele>
        <time>2022-12-29T01:58:07.206Z</time>
      </trkpt>
      <trkpt lat="47.85406" lon="-3.9994">
        <ele>2</ele>
        <time>2022-12-29T01:58:28.083Z</time>
      </trkpt>
      <trkpt lat="47.85406" lon="-3.9994">
        <ele>2</ele>
        <time>2022-12-29T01:58:48.960Z</time>
      </trkpt>
      <trkpt lat="47.85413" lon="-3.99932">
        <ele>2</ele>
        <time>2022-12-29T01:59:09.838Z</time>
      </trkpt>
      <trkpt lat="47.85469" lon="-3.99936">
        <ele>2</ele>
        <time>2022-12-29T01:59:30.725Z</time>
      </trkpt>
      <trkpt lat="47.8547" lon="-3.99936">
        <ele>2</ele>
        <time>2022-12-29T01:59:51.612Z</time>
      </trkpt>
      <trkpt lat="47.85476" lon="-3.99897">
        <ele>2</ele>
        <time>2022-12-29T02:00:12.504Z</time>
      </trkpt>
      <trkpt lat="47.85475" lon="-3.99857">
        <ele>2</ele>
        <time>2022-12-29T02:00:33.400Z</time>
      </trkpt>
      <trkpt lat="47.85475" lon="-3.99853">
        <ele>2</ele>
        <time>2022-12-29T02:00:54.296Z</time>
      </trkpt>
      <trkpt lat="47.85473" lon="-3.9984">
        <ele>2</ele>
        <time>2022-12-29T02:01:15.194Z</time>
      </trkpt>
      <trkpt lat="47.85463" lon="-3.99792">
        <ele>3</ele>
        <time>2022-12-29T02:01:36.097Z</time>
      </trkpt>
      <trkpt lat="47.85457" lon="-3.99737">
        <ele>3</ele>
        <time>2022-12-29T02:01:57.006Z</time>
      </trkpt>
      <trkpt lat="47.85464" lon="-3.99708">
        <ele>3</ele>
        <time>2022-12-29T02:02:17.918Z</time>
      </trkpt>
      <trkpt lat="47.85475" lon="-3.99666">
        <ele>3</ele>
        <time>2022-12-29T02:02:38.835Z</time>
      </trkpt>
      <trkpt lat="47.8551" lon="-3.99585">
        <ele>3</ele>
        <time>2022-12-29T02:02:59.763Z</time>
      </trkpt>
      <trkpt lat="47.8551" lon="-3.99585">
        <ele>3</ele>
        <time>2022-12-29T02:03:20.691Z</time>
      </trkpt>
      <trkpt lat="47.85531" lon="-3.99517">
        <ele>3</ele>
        <time>2022-12-29T02:03:41.627Z</time>
      </trkpt>
      <trkpt lat="47.85534" lon="-3.99498">
        <ele>3</ele>
        <time>2022-12-29T02:04:02.565Z</time>
      </trkpt>
      <trkpt lat="47.85606" lon="-3.99491">
        <ele>3</ele>
        <time>2022-12-29T02:04:23.514Z</time>
      </trkpt>
      <trkpt lat="47.85626" lon="-3.99489">
        <ele>3</ele>
        <time>2022-12-29T02:04:44.467Z</time>
      </trkpt>
      <trkpt lat="47.8566" lon="-3.99465">
        <ele>4</ele>
        <time>2022-12-29T02:05:05.426Z</time>
      </trkpt>
      <trkpt lat="47.85677" lon="-3.99444">
        <ele>4</ele>
        <time>2022-12-29T02:05:26.388Z</time>
      </trkpt>
      <trkpt lat="47.85708" lon="-3.99414">
        <ele>4</ele>
        <time>2022-12-29T02:05:47.356Z</time>
      </trkpt>
      <trkpt lat="47.85722" lon="-3.994">
        <ele>4</ele>
        <time>2022-12-29T02:06:08.327Z</time>
      </trkpt>
      <trkpt lat="47.85726" lon="-3.99396">
        <ele>4</ele>
        <time>2022-12-29T02:06:29.299Z</time>
      </trkpt>
      <trkpt lat="47.85733" lon="-3.99392">
        <ele>4</ele>
        <time>2022-12-29T02:06:50.272Z</time>
      </trkpt>
      <trkpt lat="47.8574" lon="-3.99388">
        <ele>4</ele>
        <time>2022-12-29T02:07:11.246Z</time>
      </trkpt>
      <trkpt lat="47.85783" lon="-3.9934">
        <ele>5</ele>
        <time>2022-12-29T02:07:32.229Z</time>
      </trkpt>
      <trkpt lat="47.85786" lon="-3.99336">
        <ele>5</ele>
        <time>2022-12-29T02:07:53.212Z</time>
      </trkpt>
      <trkpt lat="47.85788" lon="-3.99292">
        <ele>5</ele>
        <time>2022-12-29T02:08:14.200Z</time>
      </trkpt>
      <trkpt lat="47.8581" lon="-3.99231">
        <ele>6</ele>
        <time>2022-12-29T02:08:35.196Z</time>
      </trkpt>
      <trkpt lat="47.85811" lon="-3.9923">
        <ele>6</ele>
        <time>2022-12-29T02:08:56.192Z</time>
      </trkpt>
      <trkpt lat="47.85811" lon="-3.9923">
        <ele>6</ele>
        <time>2022-12-29T02:09:17.188Z</time>
      </trkpt>
      <trkpt lat="47.85824" lon="-3.99184">
        <ele>6</ele>
        <time>2022-12-29T02:09:38.189Z</time>
      </trkpt>
      <trkpt lat="47.85824" lon="-3.99183">
        <ele>6</ele>
        <time>2022-12-29T02:09:59.190Z</time>
      </trkpt>
      <trkpt lat="47.85832" lon="-3.99152">
        <ele>7</ele>
        <time>2022-12-29T02:10:20.195Z</time>
      </trkpt>
      <trkpt lat="47.85836" lon="-3.99104">
        <ele>7</ele>
        <time>2022-12-29T02:10:41.205Z</time>
      </trkpt>
      <trkpt lat="47.85828" lon="-3.99062">
        <ele>7</ele>
        <time>2022-12-29T02:11:02.220Z</time>
      </trkpt>
      <trkpt lat="47.85828" lon="-3.9906">
        <ele>7</ele>
        <time>2022-12-29T02:11:23.235Z</time>
      </trkpt>
      <trkpt lat="47.85825" lon="-3.99039">
        <ele>8</ele>
        <time>2022-12-29T02:11:44.252Z</time>
      </trkpt>
      <trkpt lat="47.85825" lon="-3.99039">
        <ele>8</ele>
        <time>2022-12-29T02:12:05.269Z</time>
      </trkpt>
      <trkpt lat="47.85822" lon="-3.99022">
        <ele>8</ele>
        <time>2022-12-29T02:12:26.288Z</time>
      </trkpt>
      <trkpt lat="47.85874" lon="-3.99031">
        <ele>8</ele>
        <time>2022-12-29T02:12:47.315Z</time>
      </trkpt>
      <trkpt lat="47.85893" lon="-3.99035">
        <ele>9</ele>
        <time>2022-12-29T02:13:08.346Z</time>
      </trkpt>
      <trkpt lat="47.85893" lon="-3.99035">
        <ele>9</ele>
        <time>2022-12-29T02:13:29.377Z</time>
      </trkpt>
      <trkpt lat="47.85905" lon="-3.99037">
        <ele>9</ele>
        <time>2022-12-29T02:13:50.410Z</time>
      </trkpt>
      <trkpt lat="47.85927" lon="-3.99041">
        <ele>10</ele>
        <time>2022-12-29T02:14:11.446Z</time>
      </trkpt>
      <trkpt lat="47.85947" lon="-3.99057">
        <ele>10</ele>
        <time>2022-12-29T02:14:32.486Z</time>
      </trkpt>
      <trkpt lat="47.86023" lon="-3.99095">
        <ele>10</ele>
        <time>2022-12-29T02:14:53.539Z</time>
      </trkpt>
      <trkpt lat="47.86023" lon="-3.99095">
        <ele>10</ele>
        <time>2022-12-29T02:15:14.592Z</time>
      </trkpt>
      <trkpt lat="47.86039" lon="-3.99159">
        <ele>11</ele>
        <time>2022-12-29T02:15:35.652Z</time>
      </trkpt>
      <trkpt lat="47.86097" lon="-3.99208">
        <ele>11</ele>
        <time>2022-12-29T02:15:56.723Z</time>
      </trkpt>
      <trkpt lat="47.86113" lon="-3.99222">
        <ele>11</ele>
        <time>2022-12-29T02:16:17.797Z</time>
      </trkpt>
      <trkpt lat="47.86123" lon="-3.9924">
        <ele>11</ele>
        <time>2022-12-29T02:16:38.873Z</time>
      </trkpt>
      <trkpt lat="47.86123" lon="-3.99241">
        <ele>12</ele>
        <time>2022-12-29T02:16:59.949Z</time>
      </trkpt>
      <trkpt lat="47.86135" lon="-3.99265">
        <ele>12</ele>
        <time>2022-12-29T02:17:21.028Z</time>
      </trkpt>
      <trkpt lat="47.86136" lon="-3.99266">
        <ele>12</ele>
        <time>2022-12-29T02:17:42.108Z</time>
      </trkpt>
      <trkpt lat="47.86139" lon="-3.99282">
        <ele>13</ele>
        <time>2022-12-29T02:18:03.189Z</time>
      </trkpt>
      <trkpt lat="47.86141" lon="-3.99292">
        <ele>13</ele>
        <time>2022-12-29T02:18:24.272Z</time>
      </trkpt>
      <trkpt lat="47.86186" lon="-3.99289">
        <ele>13</ele>
        <time>2022-12-29T02:18:45.362Z</time>
      </trkpt>
      <trkpt lat="47.86187" lon="-3.99289">
        <ele>13</ele>
        <time>2022-12-29T02:19:06.452Z</time>
      </trkpt>
      <trkpt lat="47.86202" lon="-3.99288">
        <ele>14</ele>
        <time>2022-12-29T02:19:27.544Z</time>
      </trkpt>
      <trkpt lat="47.86202" lon="-3.99288">
        <ele>14</ele>
        <time>2022-12-29T02:19:48.636Z</time>
      </trkpt>
      <trkpt lat="47.86218" lon="-3.99287">
        <ele>14</ele>
        <time>2022-12-29T02:20:09.731Z</time>
      </trkpt>
      <trkpt lat="47.86266" lon="-3.99287">
        <ele>15</ele>
        <time>2022-12-29T02:20:30.834Z</time>
      </trkpt>
      <trkpt lat="47.86305" lon="-3.99287">
        <ele>15</ele>
        <time>2022-12-29T02:20:51.943Z</time>
      </trkpt>
      <trkpt lat="47.8636" lon="-3.99272">
        <ele>15</ele>
        <time>2022-12-29T02:21:13.061Z</time>
      </trkpt>
      <trkpt lat="47.86388" lon="-3.99335">
        <ele>16</ele>
        <time>2022-12-29T02:21:34.187Z</time>
      </trkpt>
      <trkpt lat="47.864" lon="-3.99359">
        <ele>16</ele>
        <time>2022-12-29T02:21:55.316Z</time>
      </trkpt>
      <trkpt lat="47.86405" lon="-3.99368">
        <ele>17</ele>
        <time>2022-12-29T02:22:16.446Z</time>
      </trkpt>
      <trkpt lat="47.86414" lon="-3.99386">
        <ele>17</ele>
        <time>2022-12-29T02:22:37.579Z</time>
      </trkpt>
      <trkpt lat="47.86426" lon="-3.99393">
        <ele>17</ele>
        <time>2022-12-29T02:22:58.714Z</time>
      </trkpt>
      <trkpt lat="47.86431" lon="-3.99389">
        <ele>18</ele>
        <time>2022-12-29T02:23:19.850Z</time>
      </trkpt>
      <trkpt lat="47.86432" lon="-3.99388">
        <ele>18</ele>
        <time>2022-12-29T02:23:40.986Z</time>
      </trkpt>
      <trkpt lat="47.86435" lon="-3.99386">
        <ele>18</ele>
        <time>2022-12-29T02:24:02.123Z</time>
      </trkpt>
      <trkpt lat="47.8647" lon="-3.99375">
        <ele>19</ele>
        <time>2022-12-29T02:24:23.265Z</time>
      </trkpt>
      <trkpt lat="47.86515" lon="-3.99383">
        <ele>19</ele>
        <time>2022-12-29T02:24:44.414Z</time>
      </trkpt>
      <trkpt lat="47.86516" lon="-3.99383">
        <ele>19</ele>
        <time>2022-12-29T02:25:05.564Z</time>
      </trkpt>
      <trkpt lat="47.86516" lon="-3.99383">
        <ele>20</ele>
        <time>2022-12-29T02:25:26.714Z</time>
      </trkpt>
      <trkpt lat="47.86521" lon="-3.99384">
        <ele>20</ele>
        <time>2022-12-29T02:25:47.864Z</time>
      </trkpt>
      <trkpt lat="47.86528" lon="-3.99386">
        <ele>20</ele>
        <time>2022-12-29T02:26:09.015Z</time>
      </trkpt>
      <trkpt lat="47.86531" lon="-3.99387">
        <ele>21</ele>
        <time>2022-12-29T02:26:30.167Z</time>
      </trkpt>
      <trkpt lat="47.86531" lon="-3.99387">
        <ele>21</ele>
        <time>2022-12-29T02:26:51.319Z</time>
      </trkpt>
      <trkpt lat="47.86542" lon="-3.9939">
        <ele>21</ele>
        <time>2022-12-29T02:27:12.473Z</time>
      </trkpt>
      <trkpt lat="47.86573" lon="-3.99399">
        <ele>22</ele>
        <time>2022-12-29T02:27:33.632Z</time>
      </trkpt>
      <trkpt lat="47.86594" lon="-3.99403">
        <ele>22</ele>
        <time>2022-12-29T02:27:54.794Z</time>
      </trkpt>
      <trkpt lat="47.86699" lon="-3.99419">
        <ele>22</ele>
        <time>2022-12-29T02:28:15.973Z</time>
      </trkpt>
      <trkpt lat="47.86712" lon="-3.99421">
        <ele>23</ele>
        <time>2022-12-29T02:28:37.154Z</time>
      </trkpt>
      <trkpt lat="47.86733" lon="-3.99423">
        <ele>23</ele>
        <time>2022-12-29T02:28:58.339Z</time>
      </trkpt>
      <trkpt lat="47.86733" lon="-3.99423">
        <ele>23</ele>
        <time>2022-12-29T02:29:19.524Z</time>
      </trkpt>
      <trkpt lat="47.86801" lon="-3.99429">
        <ele>23</ele>
        <time>2022-12-29T02:29:40.720Z</time>
      </trkpt>
      <trkpt lat="47.8681" lon="-3.99436">
        <ele>24</ele>
        <time>2022-12-29T02:30:01.917Z</time>
      </trkpt>
      <trkpt lat="47.86811" lon="-3.99433">
        <ele>24</ele>
        <time>2022-12-29T02:30:23.115Z</time>
      </trkpt>
      <trkpt lat="47.86813" lon="-3.99427">
        <ele>24</ele>
        <time>2022-12-29T02:30:44.313Z</time>
      </trkpt>
      <trkpt lat="47.86814" lon="-3.99425">
        <ele>24</ele>
        <time>2022-12-29T02:31:05.511Z</time>
      </trkpt>
      <trkpt lat="47.86817" lon="-3.99417">
        <ele>25</ele>
        <time>2022-12-29T02:31:26.710Z</time>
      </trkpt>
      <trkpt lat="47.86822" lon="-3.99407">
        <ele>25</ele>
        <time>2022-12-29T02:31:47.911Z</time>
      </trkpt>
      <trkpt lat="47.86822" lon="-3.99407">
        <ele>25</ele>
        <time>2022-12-29T02:32:09.112Z</time>
      </trkpt>
      <trkpt lat="47.8683" lon="-3.99387">
        <ele>25</ele>
        <time>2022-12-29T02:32:30.315Z</time>
      </trkpt>
      <trkpt lat="47.86876" lon="-3.9941">
        <ele>25</ele>
        <time>2022-12-29T02:32:51.526Z</time>
      </trkpt>
      <trkpt lat="47.86877" lon="-3.9941">
        <ele>25</ele>
        <time>2022-12-29T02:33:12.737Z</time>
      </trkpt>
      <trkpt lat="47.86894" lon="-3.99416">
        <ele>25</ele>
        <time>2022-12-29T02:33:33.951Z</time>
      </trkpt>
      <trkpt lat="47.86947" lon="-3.99426">
        <ele>26</ele>
        <time>2022-12-29T02:33:55.173Z</time>
      </trkpt>
      <trkpt lat="47.86963" lon="-3.99429">
        <ele>26</ele>
        <time>2022-12-29T02:34:16.398Z</time>
      </trkpt>
      <trkpt lat="47.86947" lon="-3.99426">
        <ele>26</ele>
        <time>2022-12-29T02:34:37.626Z</time>
      </trkpt>
      <trkpt lat="47.86963" lon="-3.99429">
        <ele>26</ele>
        <time>2022-12-29T02:34:58.856Z</time>
      </trkpt>
      <trkpt lat="47.86973" lon="-3.9944">
        <ele>26</ele>
        <time>2022-12-29T02:35:20.088Z</time>
      </trkpt>
      <trkpt lat="47.86972" lon="-3.99426">
        <ele>26</ele>
        <time>2022-12-29T02:35:41.322Z</time>
      </trkpt>
      <trkpt lat="47.86971" lon="-3.99422">
        <ele>25</ele>
        <time>2022-12-29T02:36:02.556Z</time>
      </trkpt>
      <trkpt lat="47.86954" lon="-3.99255">
        <ele>25</ele>
        <time>2022-12-29T02:36:23.808Z</time>
      </trkpt>
      <trkpt lat="47.86952" lon="-3.99236">
        <ele>25</ele>
        <time>2022-12-29T02:36:45.063Z</time>
      </trkpt>
      <trkpt lat="47.86952" lon="-3.99235">
        <ele>25</ele>
        <time>2022-12-29T02:37:06.318Z</time>
      </trkpt>
      <trkpt lat="47.86985" lon="-3.99247">
        <ele>25</ele>
        <time>2022-12-29T02:37:27.578Z</time>
      </trkpt>
      <trkpt lat="47.86985" lon="-3.99247">
        <ele>24</ele>
        <time>2022-12-29T02:37:48.838Z</time>
      </trkpt>
      <trkpt lat="47.87067" lon="-3.99277">
        <ele>24</ele>
        <time>2022-12-29T02:38:10.112Z</time>
      </trkpt>
      <trkpt lat="47.87069" lon="-3.99278">
        <ele>24</ele>
        <time>2022-12-29T02:38:31.386Z</time>
      </trkpt>
      <trkpt lat="47.87083" lon="-3.99283">
        <ele>24</ele>
        <time>2022-12-29T02:38:52.662Z</time>
      </trkpt>
      <trkpt lat="47.87083" lon="-3.99283">
        <ele>24</ele>
        <time>2022-12-29T02:39:13.938Z</time>
      </trkpt>
      <trkpt lat="47.87125" lon="-3.99298">
        <ele>23</ele>
        <time>2022-12-29T02:39:35.221Z</time>
      </trkpt>
      <trkpt lat="47.87125" lon="-3.99298">
        <ele>23</ele>
        <time>2022-12-29T02:39:56.504Z</time>
      </trkpt>
      <trkpt lat="47.87123" lon="-3.9927">
        <ele>23</ele>
        <time>2022-12-29T02:40:17.790Z</time>
      </trkpt>
      <trkpt lat="47.87123" lon="-3.99267">
        <ele>22</ele>
        <time>2022-12-29T02:40:39.077Z</time>
      </trkpt>
      <trkpt lat="47.87125" lon="-3.99204">
        <ele>22</ele>
        <time>2022-12-29T02:41:00.370Z</time>
      </trkpt>
      <trkpt lat="47.87123" lon="-3.99159">
        <ele>22</ele>
        <time>2022-12-29T02:41:21.668Z</time>
      </trkpt>
      <trkpt lat="47.87123" lon="-3.99154">
        <ele>21</ele>
        <time>2022-12-29T02:41:42.967Z</time>
      </trkpt>
      <trkpt lat="47.87121" lon="-3.99136">
        <ele>21</ele>
        <time>2022-12-29T02:42:04.268Z</time>
      </trkpt>
      <trkpt lat="47.8712" lon="-3.99119">
        <ele>21</ele>
        <time>2022-12-29T02:42:25.571Z</time>
      </trkpt>
      <trkpt lat="47.87117" lon="-3.99074">
        <ele>20</ele>
        <time>2022-12-29T02:42:46.878Z</time>
      </trkpt>
      <trkpt lat="47.87117" lon="-3.99069">
        <ele>20</ele>
        <time>2022-12-29T02:43:08.186Z</time>
      </trkpt>
      <trkpt lat="47.87117" lon="-3.99068">
        <ele>20</ele>
        <time>2022-12-29T02:43:29.494Z</time>
      </trkpt>
      <trkpt lat="47.87117" lon="-3.99018">
        <ele>20</ele>
        <time>2022-12-29T02:43:50.807Z</time>
      </trkpt>
      <trkpt lat="47.87128" lon="-3.98944">
        <ele>19</ele>
        <time>2022-12-29T02:44:12.129Z</time>
      </trkpt>
      <trkpt lat="47.87128" lon="-3.98942">
        <ele>19</ele>
        <time>2022-12-29T02:44:33.451Z</time>
      </trkpt>
      <trkpt lat="47.87132" lon="-3.98921">
        <ele>19</ele>
        <time>2022-12-29T02:44:54.775Z</time>
      </trkpt>
      <trkpt lat="47.87132" lon="-3.98921">
        <ele>19</ele>
        <time>2022-12-29T02:45:16.099Z</time>
      </trkpt>
      <trkpt lat="47.87137" lon="-3.98886">
        <ele>18</ele>
        <time>2022-12-29T02:45:37.427Z</time>
      </trkpt>
      <trkpt lat="47.87138" lon="-3.98868">
        <ele>18</ele>
        <time>2022-12-29T02:45:58.757Z</time>
      </trkpt>
      <trkpt lat="47.87141" lon="-3.98831">
        <ele>18</ele>
        <time>2022-12-29T02:46:20.091Z</time>
      </trkpt>
      <trkpt lat="47.87138" lon="-3.98868">
        <ele>18</ele>
        <time>2022-12-29T02:46:41.429Z</time>
      </trkpt>
      <trkpt lat="47.87141" lon="-3.98831">
        <ele>18</ele>
        <time>2022-12-29T02:47:02.771Z</time>
      </trkpt>
      <trkpt lat="47.87143" lon="-3.98834">
        <ele>18</ele>
        <time>2022-12-29T02:47:24.114Z</time>
      </trkpt>
      <trkpt lat="47.87172" lon="-3.98902">
        <ele>18</ele>
        <time>2022-12-29T02:47:45.465Z</time>
      </trkpt>
      <trkpt lat="47.87176" lon="-3.98908">
        <ele>19</ele>
        <time>2022-12-29T02:48:06.817Z</time>
      </trkpt>
      <trkpt lat="47.87186" lon="-3.98908">
        <ele>19</ele>
        <time>2022-12-29T02:48:28.171Z</time>
      </trkpt>
      <trkpt lat="47.87206" lon="-3.98903">
        <ele>19</ele>
        <time>2022-12-29T02:48:49.528Z</time>
      </trkpt>
      <trkpt lat="47.87219" lon="-3.989">
        <ele>20</ele>
        <time>2022-12-29T02:49:10.887Z</time>
      </trkpt>
      <trkpt lat="47.87227" lon="-3.98899">
        <ele>20</ele>
        <time>2022-12-29T02:49:32.248Z</time>
      </trkpt>
      <trkpt lat="47.87238" lon="-3.98905">
        <ele>20</ele>
        <time>2022-12-29T02:49:53.610Z</time>
      </trkpt>
      <trkpt lat="47.87285" lon="-3.9894">
        <ele>21</ele>
        <time>2022-12-29T02:50:14.981Z</time>
      </trkpt>
      <trkpt lat="47.87334" lon="-3.98953">
        <ele>21</ele>
        <time>2022-12-29T02:50:36.360Z</time>
      </trkpt>
      <trkpt lat="47.87427" lon="-3.98944">
        <ele>22</ele>
        <time>2022-12-29T02:50:57.754Z</time>
      </trkpt>
      <trkpt lat="47.87451" lon="-3.98969">
        <ele>22</ele>
        <time>2022-12-29T02:51:19.152Z</time>
      </trkpt>
      <trkpt lat="47.87484" lon="-3.98987">
        <ele>23</ele>
        <time>2022-12-29T02:51:40.556Z</time>
      </trkpt>
      <trkpt lat="47.87495" lon="-3.99006">
        <ele>23</ele>
        <time>2022-12-29T02:52:01.963Z</time>
      </trkpt>
      <trkpt lat="47.87501" lon="-3.99015">
        <ele>24</ele>
        <time>2022-12-29T02:52:23.371Z</time>
      </trkpt>
      <trkpt lat="47.87505" lon="-3.99022">
        <ele>24</ele>
        <time>2022-12-29T02:52:44.780Z</time>
      </trkpt>
      <trkpt lat="47.87509" lon="-3.99014">
        <ele>25</ele>
        <time>2022-12-29T02:53:06.190Z</time>
      </trkpt>
      <trkpt lat="47.87517" lon="-3.98998">
        <ele>25</ele>
        <time>2022-12-29T02:53:27.602Z</time>
      </trkpt>
      <trkpt lat="47.87517" lon="-3.98997">
        <ele>26</ele>
        <time>2022-12-29T02:53:49.014Z</time>
      </trkpt>
      <trkpt lat="47.87525" lon="-3.98981">
        <ele>26</ele>
        <time>2022-12-29T02:54:10.428Z</time>
      </trkpt>
      <trkpt lat="47.87538" lon="-3.98977">
        <ele>27</ele>
        <time>2022-12-29T02:54:31.845Z</time>
      </trkpt>
      <trkpt lat="47.87568" lon="-3.98969">
        <ele>28</ele>
        <time>2022-12-29T02:54:53.266Z</time>
      </trkpt>
      <trkpt lat="47.87568" lon="-3.98969">
        <ele>28</ele>
        <time>2022-12-29T02:55:14.687Z</time>
      </trkpt>
      <trkpt lat="47.87582" lon="-3.98965">
        <ele>29</ele>
        <time>2022-12-29T02:55:36.111Z</time>
      </trkpt>
      <trkpt lat="47.87595" lon="-3.98965">
        <ele>29</ele>
        <time>2022-12-29T02:55:57.537Z</time>
      </trkpt>
      <trkpt lat="47.87596" lon="-3.98965">
        <ele>30</ele>
        <time>2022-12-29T02:56:18.963Z</time>
      </trkpt>
      <trkpt lat="47.87611" lon="-3.98966">
        <ele>30</ele>
        <time>2022-12-29T02:56:40.391Z</time>
      </trkpt>
      <trkpt lat="47.87611" lon="-3.98966">
        <ele>30</ele>
        <time>2022-12-29T02:57:01.819Z</time>
      </trkpt>
      <trkpt lat="47.87675" lon="-3.98967">
        <ele>31</ele>
        <time>2022-12-29T02:57:23.258Z</time>
      </trkpt>
      <trkpt lat="47.87733" lon="-3.98969">
        <ele>31</ele>
        <time>2022-12-29T02:57:44.706Z</time>
      </trkpt>
      <trkpt lat="47.87773" lon="-3.9898">
        <ele>31</ele>
        <time>2022-12-29T02:58:06.160Z</time>
      </trkpt>
      <trkpt lat="47.87846" lon="-3.99034">
        <ele>31</ele>
        <time>2022-12-29T02:58:27.627Z</time>
      </trkpt>
      <trkpt lat="47.87856" lon="-3.99058">
        <ele>31</ele>
        <time>2022-12-29T02:58:49.097Z</time>
      </trkpt>
      <trkpt lat="47.87865" lon="-3.99089">
        <ele>32</ele>
        <time>2022-12-29T02:59:10.571Z</time>
      </trkpt>
      <trkpt lat="47.87872" lon="-3.99098">
        <ele>32</ele>
        <time>2022-12-29T02:59:32.047Z</time>
      </trkpt>
      <trkpt lat="47.87886" lon="-3.99108">
        <ele>32</ele>
        <time>2022-12-29T02:59:53.525Z</time>
      </trkpt>
      <trkpt lat="47.87909" lon="-3.99113">
        <ele>32</ele>
        <time>2022-12-29T03:00:15.007Z</time>
      </trkpt>
      <trkpt lat="47.8793" lon="-3.99122">
        <ele>32</ele>
        <time>2022-12-29T03:00:36.492Z</time>
      </trkpt>
      <trkpt lat="47.87946" lon="-3.99131">
        <ele>31</ele>
        <time>2022-12-29T03:00:57.980Z</time>
      </trkpt>
      <trkpt lat="47.87959" lon="-3.99142">
        <ele>31</ele>
        <time>2022-12-29T03:01:19.470Z</time>
      </trkpt>
      <trkpt lat="47.87968" lon="-3.99152">
        <ele>31</ele>
        <time>2022-12-29T03:01:40.962Z</time>
      </trkpt>
      <trkpt lat="47.87976" lon="-3.99166">
        <ele>31</ele>
        <time>2022-12-29T03:02:02.456Z</time>
      </trkpt>
      <trkpt lat="47.87986" lon="-3.99192">
        <ele>31</ele>
        <time>2022-12-29T03:02:23.953Z</time>
      </trkpt>
      <trkpt lat="47.88005" lon="-3.99216">
        <ele>31</ele>
        <time>2022-12-29T03:02:45.454Z</time>
      </trkpt>
      <trkpt lat="47.8801" lon="-3.99225">
        <ele>30</ele>
        <time>2022-12-29T03:03:06.957Z</time>
      </trkpt>
      <trkpt lat="47.88018" lon="-3.99247">
        <ele>30</ele>
        <time>2022-12-29T03:03:28.462Z</time>
      </trkpt>
      <trkpt lat="47.88023" lon="-3.99267">
        <ele>30</ele>
        <time>2022-12-29T03:03:49.970Z</time>
      </trkpt>
      <trkpt lat="47.88025" lon="-3.99274">
        <ele>29</ele>
        <time>2022-12-29T03:04:11.478Z</time>
      </trkpt>
      <trkpt lat="47.88034" lon="-3.99289">
        <ele>29</ele>
        <time>2022-12-29T03:04:32.989Z</time>
      </trkpt>
      <trkpt lat="47.88046" lon="-3.99304">
        <ele>29</ele>
        <time>2022-12-29T03:04:54.502Z</time>
      </trkpt>
      <trkpt lat="47.88047" lon="-3.99305">
        <ele>28</ele>
        <time>2022-12-29T03:05:16.015Z</time>
      </trkpt>
      <trkpt lat="47.88062" lon="-3.99323">
        <ele>28</ele>
        <time>2022-12-29T03:05:37.531Z</time>
      </trkpt>
      <trkpt lat="47.88101" lon="-3.99379">
        <ele>27</ele>
        <time>2022-12-29T03:05:59.056Z</time>
      </trkpt>
      <trkpt lat="47.88107" lon="-3.99366">
        <ele>27</ele>
        <time>2022-12-29T03:06:20.583Z</time>
      </trkpt>
      <trkpt lat="47.88108" lon="-3.99365">
        <ele>26</ele>
        <time>2022-12-29T03:06:42.110Z</time>
      </trkpt>
      <trkpt lat="47.88117" lon="-3.99347">
        <ele>25</ele>
        <time>2022-12-29T03:07:03.639Z</time>
      </trkpt>
      <trkpt lat="47.88117" lon="-3.99347">
        <ele>25</ele>
        <time>2022-12-29T03:07:25.168Z</time>
      </trkpt>
      <trkpt lat="47.88122" lon="-3.99336">
        <ele>24</ele>
        <time>2022-12-29T03:07:46.699Z</time>
      </trkpt>
      <trkpt lat="47.88128" lon="-3.99323">
        <ele>24</ele>
        <time>2022-12-29T03:08:08.232Z</time>
      </trkpt>
      <trkpt lat="47.88129" lon="-3.99321">
        <ele>23</ele>
        <time>2022-12-29T03:08:29.765Z</time>
      </trkpt>
      <trkpt lat="47.88137" lon="-3.99301">
        <ele>22</ele>
        <time>2022-12-29T03:08:51.300Z</time>
      </trkpt>
      <trkpt lat="47.88149" lon="-3.99264">
        <ele>22</ele>
        <time>2022-12-29T03:09:12.840Z</time>
      </trkpt>
      <trkpt lat="47.88162" lon="-3.99224">
        <ele>21</ele>
        <time>2022-12-29T03:09:34.384Z</time>
      </trkpt>
      <trkpt lat="47.88179" lon="-3.99178">
        <ele>20</ele>
        <time>2022-12-29T03:09:55.934Z</time>
      </trkpt>
      <trkpt lat="47.88179" lon="-3.99178">
        <ele>19</ele>
        <time>2022-12-29T03:10:17.484Z</time>
      </trkpt>
      <trkpt lat="47.88181" lon="-3.99172">
        <ele>19</ele>
        <time>2022-12-29T03:10:39.035Z</time>
      </trkpt>
      <trkpt lat="47.88193" lon="-3.99143">
        <ele>17</ele>
        <time>2022-12-29T03:11:00.590Z</time>
      </trkpt>
      <trkpt lat="47.88199" lon="-3.99128">
        <ele>16</ele>
        <time>2022-12-29T03:11:22.146Z</time>
      </trkpt>
      <trkpt lat="47.88233" lon="-3.9906">
        <ele>16</ele>
        <time>2022-12-29T03:11:43.712Z</time>
      </trkpt>
      <trkpt lat="47.88244" lon="-3.99043">
        <ele>15</ele>
        <time>2022-12-29T03:12:05.280Z</time>
      </trkpt>
      <trkpt lat="47.88254" lon="-3.99034">
        <ele>14</ele>
        <time>2022-12-29T03:12:26.850Z</time>
      </trkpt>
      <trkpt lat="47.88267" lon="-3.99028">
        <ele>14</ele>
        <time>2022-12-29T03:12:48.422Z</time>
      </trkpt>
      <trkpt lat="47.88273" lon="-3.99027">
        <ele>13</ele>
        <time>2022-12-29T03:13:09.995Z</time>
      </trkpt>
      <trkpt lat="47.88302" lon="-3.9902">
        <ele>12</ele>
        <time>2022-12-29T03:13:31.573Z</time>
      </trkpt>
      <trkpt lat="47.88339" lon="-3.99012">
        <ele>11</ele>
        <time>2022-12-29T03:13:53.157Z</time>
      </trkpt>
      <trkpt lat="47.88354" lon="-3.99004">
        <ele>10</ele>
        <time>2022-12-29T03:14:14.743Z</time>
      </trkpt>
      <trkpt lat="47.88373" lon="-3.98989">
        <ele>10</ele>
        <time>2022-12-29T03:14:36.333Z</time>
      </trkpt>
      <trkpt lat="47.88376" lon="-3.98986">
        <ele>9</ele>
        <time>2022-12-29T03:14:57.923Z</time>
      </trkpt>
      <trkpt lat="47.88385" lon="-3.98976">
        <ele>8</ele>
        <time>2022-12-29T03:15:19.515Z</time>
      </trkpt>
      <trkpt lat="47.88419" lon="-3.98938">
        <ele>8</ele>
        <time>2022-12-29T03:15:41.114Z</time>
      </trkpt>
      <trkpt lat="47.88462" lon="-3.98882">
        <ele>7</ele>
        <time>2022-12-29T03:16:02.722Z</time>
      </trkpt>
      <trkpt lat="47.88479" lon="-3.9886">
        <ele>7</ele>
        <time>2022-12-29T03:16:24.334Z</time>
      </trkpt>
      <trkpt lat="47.8855" lon="-3.98769">
        <ele>6</ele>
        <time>2022-12-29T03:16:45.961Z</time>
      </trkpt>
      <trkpt lat="47.88556" lon="-3.98763">
        <ele>6</ele>
        <time>2022-12-29T03:17:07.589Z</time>
      </trkpt>
      <trkpt lat="47.88566" lon="-3.9876">
        <ele>6</ele>
        <time>2022-12-29T03:17:29.219Z</time>
      </trkpt>
      <trkpt lat="47.88571" lon="-3.98755">
        <ele>5</ele>
        <time>2022-12-29T03:17:50.849Z</time>
      </trkpt>
      <trkpt lat="47.88571" lon="-3.98754">
        <ele>5</ele>
        <time>2022-12-29T03:18:12.480Z</time>
      </trkpt>
      <trkpt lat="47.88576" lon="-3.98746">
        <ele>4</ele>
        <time>2022-12-29T03:18:34.112Z</time>
      </trkpt>
      <trkpt lat="47.88594" lon="-3.98717">
        <ele>4</ele>
        <time>2022-12-29T03:18:55.748Z</time>
      </trkpt>
      <trkpt lat="47.88595" lon="-3.98716">
        <ele>4</ele>
        <time>2022-12-29T03:19:17.384Z</time>
      </trkpt>
      <trkpt lat="47.88614" lon="-3.98685">
        <ele>3</ele>
        <time>2022-12-29T03:19:39.025Z</time>
      </trkpt>
      <trkpt lat="47.88652" lon="-3.98625">
        <ele>3</ele>
        <time>2022-12-29T03:20:00.675Z</time>
      </trkpt>
      <trkpt lat="47.88653" lon="-3.98623">
        <ele>3</ele>
        <time>2022-12-29T03:20:22.325Z</time>
      </trkpt>
      <trkpt lat="47.88663" lon="-3.98607">
        <ele>3</ele>
        <time>2022-12-29T03:20:43.977Z</time>
      </trkpt>
      <trkpt lat="47.88663" lon="-3.98607">
        <ele>3</ele>
        <time>2022-12-29T03:21:05.629Z</time>
      </trkpt>
      <trkpt lat="47.88697" lon="-3.98553">
        <ele>3</ele>
        <time>2022-12-29T03:21:27.289Z</time>
      </trkpt>
      <trkpt lat="47.88699" lon="-3.98549">
        <ele>3</ele>
        <time>2022-12-29T03:21:48.950Z</time>
      </trkpt>
      <trkpt lat="47.88704" lon="-3.98537">
        <ele>2</ele>
        <time>2022-12-29T03:22:10.612Z</time>
      </trkpt>
      <trkpt lat="47.88705" lon="-3.98535">
        <ele>2</ele>
        <time>2022-12-29T03:22:32.274Z</time>
      </trkpt>
      <trkpt lat="47.88712" lon="-3.98523">
        <ele>2</ele>
        <time>2022-12-29T03:22:53.938Z</time>
      </trkpt>
      <trkpt lat="47.88727" lon="-3.98468">
        <ele>2</ele>
        <time>2022-12-29T03:23:15.609Z</time>
      </trkpt>
      <trkpt lat="47.88727" lon="-3.98468">
        <ele>2</ele>
        <time>2022-12-29T03:23:37.280Z</time>
      </trkpt>
      <trkpt lat="47.88738" lon="-3.98428">
        <ele>2</ele>
        <time>2022-12-29T03:23:58.955Z</time>
      </trkpt>
      <trkpt lat="47.88769" lon="-3.98347">
        <ele>3</ele>
        <time>2022-12-29T03:24:20.640Z</time>
      </trkpt>
      <trkpt lat="47.88772" lon="-3.9833">
        <ele>3</ele>
        <time>2022-12-29T03:24:42.327Z</time>
      </trkpt>
      <trkpt lat="47.88783" lon="-3.98309">
        <ele>3</ele>
        <time>2022-12-29T03:25:04.017Z</time>
      </trkpt>
      <trkpt lat="47.88804" lon="-3.98269">
        <ele>3</ele>
        <time>2022-12-29T03:25:25.712Z</time>
      </trkpt>
      <trkpt lat="47.88804" lon="-3.98268">
        <ele>3</ele>
        <time>2022-12-29T03:25:47.408Z</time>
      </trkpt>
      <trkpt lat="47.8885" lon="-3.98178">
        <ele>3</ele>
        <time>2022-12-29T03:26:09.116Z</time>
      </trkpt>
      <trkpt lat="47.88858" lon="-3.9818">
        <ele>3</ele>
        <time>2022-12-29T03:26:30.825Z</time>
      </trkpt>
      <trkpt lat="47.88859" lon="-3.9818">
        <ele>3</ele>
        <time>2022-12-29T03:26:52.534Z</time>
      </trkpt>
      <trkpt lat="47.8886" lon="-3.9818">
        <ele>3</ele>
        <time>2022-12-29T03:27:14.243Z</time>
      </trkpt>
      <trkpt lat="47.88866" lon="-3.98175">
        <ele>3</ele>
        <time>2022-12-29T03:27:35.953Z</time>
      </trkpt>
      <trkpt lat="47.88873" lon="-3.9818">
        <ele>3</ele>
        <time>2022-12-29T03:27:57.665Z</time>
      </trkpt>
      <trkpt lat="47.88873" lon="-3.9818">
        <ele>3</ele>
        <time>2022-12-29T03:28:19.377Z</time>
      </trkpt>
      <trkpt lat="47.88908" lon="-3.98207">
        <ele>3</ele>
        <time>2022-12-29T03:28:41.095Z</time>
      </trkpt>
      <trkpt lat="47.88922" lon="-3.98237">
        <ele>3</ele>
        <time>2022-12-29T03:29:02.817Z</time>
      </trkpt>
      <trkpt lat="47.88932" lon="-3.98258">
        <ele>3</ele>
        <time>2022-12-29T03:29:24.542Z</time>
      </trkpt>
      <trkpt lat="47.88938" lon="-3.98273">
        <ele>3</ele>
        <time>2022-12-29T03:29:46.269Z</time>
      </trkpt>
      <trkpt lat="47.88978" lon="-3.98359">
        <ele>4</ele>
        <time>2022-12-29T03:30:08.007Z</time>
      </trkpt>
      <trkpt lat="47.88987" lon="-3.9839">
        <ele>4</ele>
        <time>2022-12-29T03:30:29.748Z</time>
      </trkpt>
      <trkpt lat="47.88992" lon="-3.98449">
        <ele>4</ele>
        <time>2022-12-29T03:30:51.496Z</time>
      </trkpt>
      <trkpt lat="47.89005" lon="-3.98538">
        <ele>4</ele>
        <time>2022-12-29T03:31:13.254Z</time>
      </trkpt>
      <trkpt lat="47.89011" lon="-3.98561">
        <ele>4</ele>
        <time>2022-12-29T03:31:35.014Z</time>
      </trkpt>
      <trkpt lat="47.89008" lon="-3.98567">
        <ele>4</ele>
        <time>2022-12-29T03:31:56.775Z</time>
      </trkpt>
      <trkpt lat="47.89009" lon="-3.98572">
        <ele>4</ele>
        <time>2022-12-29T03:32:18.537Z</time>
      </trkpt>
      <trkpt lat="47.89019" lon="-3.98591">
        <ele>4</ele>
        <time>2022-12-29T03:32:40.301Z</time>
      </trkpt>
      <trkpt lat="47.89046" lon="-3.98661">
        <ele>4</ele>
        <time>2022-12-29T03:33:02.074Z</time>
      </trkpt>
      <trkpt lat="47.89049" lon="-3.98684">
        <ele>4</ele>
        <time>2022-12-29T03:33:23.849Z</time>
      </trkpt>
      <trkpt lat="47.89046" lon="-3.98698">
        <ele>4</ele>
        <time>2022-12-29T03:33:45.626Z</time>
      </trkpt>
      <trkpt lat="47.89049" lon="-3.98699">
        <ele>4</ele>
        <time>2022-12-29T03:34:07.404Z</time>
      </trkpt>
      <trkpt lat="47.89062" lon="-3.9871">
        <ele>4</ele>
        <time>2022-12-29T03:34:29.184Z</time>
      </trkpt>
      <trkpt lat="47.89068" lon="-3.98716">
        <ele>4</ele>
        <time>2022-12-29T03:34:50.965Z</time>
      </trkpt>
      <trkpt lat="47.89062" lon="-3.9871">
        <ele>4</ele>
        <time>2022-12-29T03:35:12.747Z</time>
      </trkpt>
      <trkpt lat="47.89068" lon="-3.98716">
        <ele>4</ele>
        <time>2022-12-29T03:35:34.530Z</time>
      </trkpt>
      <trkpt lat="47.8909" lon="-3.9875">
        <ele>4</ele>
        <time>2022-12-29T03:35:56.318Z</time>
      </trkpt>
      <trkpt lat="47.89097" lon="-3.98755">
        <ele>4</ele>
        <time>2022-12-29T03:36:18.108Z</time>
      </trkpt>
      <trkpt lat="47.89109" lon="-3.98762">
        <ele>4</ele>
        <time>2022-12-29T03:36:39.900Z</time>
      </trkpt>
      <trkpt lat="47.89153" lon="-3.98776">
        <ele>3</ele>
        <time>2022-12-29T03:37:01.699Z</time>
      </trkpt>
      <trkpt lat="47.89181" lon="-3.98789">
        <ele>3</ele>
        <time>2022-12-29T03:37:23.503Z</time>
      </trkpt>
      <trkpt lat="47.89197" lon="-3.98801">
        <ele>3</ele>
        <time>2022-12-29T03:37:45.310Z</time>
      </trkpt>
      <trkpt lat="47.89208" lon="-3.98809">
        <ele>3</ele>
        <time>2022-12-29T03:38:07.119Z</time>
      </trkpt>
      <trkpt lat="47.89213" lon="-3.98813">
        <ele>3</ele>
        <time>2022-12-29T03:38:28.928Z</time>
      </trkpt>
      <trkpt lat="47.89257" lon="-3.98849">
        <ele>3</ele>
        <time>2022-12-29T03:38:50.745Z</time>
      </trkpt>
      <trkpt lat="47.89302" lon="-3.98875">
        <ele>3</ele>
        <time>2022-12-29T03:39:12.570Z</time>
      </trkpt>
      <trkpt lat="47.89309" lon="-3.9888">
        <ele>3</ele>
        <time>2022-12-29T03:39:34.397Z</time>
      </trkpt>
      <trkpt lat="47.89336" lon="-3.98896">
        <ele>3</ele>
        <time>2022-12-29T03:39:56.228Z</time>
      </trkpt>
      <trkpt lat="47.8934" lon="-3.98899">
        <ele>3</ele>
        <time>2022-12-29T03:40:18.060Z</time>
      </trkpt>
      <trkpt lat="47.89339" lon="-3.98901">
        <ele>2</ele>
        <time>2022-12-29T03:40:39.892Z</time>
      </trkpt>
      <trkpt lat="47.89339" lon="-3.98902">
        <ele>2</ele>
        <time>2022-12-29T03:41:01.724Z</time>
      </trkpt>
      <trkpt lat="47.89337" lon="-3.98919">
        <ele>2</ele>
        <time>2022-12-29T03:41:23.558Z</time>
      </trkpt>
      <trkpt lat="47.89335" lon="-3.98932">
        <ele>2</ele>
        <time>2022-12-29T03:41:45.393Z</time>
      </trkpt>
      <trkpt lat="47.89334" lon="-3.98937">
        <ele>2</ele>
        <time>2022-12-29T03:42:07.229Z</time>
      </trkpt>
      <trkpt lat="47.89327" lon="-3.98945">
        <ele>2</ele>
        <time>2022-12-29T03:42:29.066Z</time>
      </trkpt>
      <trkpt lat="47.89327" lon="-3.98945">
        <ele>2</ele>
        <time>2022-12-29T03:42:50.903Z</time>
      </trkpt>
      <trkpt lat="47.89316" lon="-3.98956">
        <ele>2</ele>
        <time>2022-12-29T03:43:12.743Z</time>
      </trkpt>
      <trkpt lat="47.89316" lon="-3.98966">
        <ele>3</ele>
        <time>2022-12-29T03:43:34.584Z</time>
      </trkpt>
      <trkpt lat="47.8932" lon="-3.98974">
        <ele>3</ele>
        <time>2022-12-29T03:43:56.426Z</time>
      </trkpt>
      <trkpt lat="47.89327" lon="-3.98996">
        <ele>3</ele>
        <time>2022-12-29T03:44:18.270Z</time>
      </trkpt>
      <trkpt lat="47.89345" lon="-3.99037">
        <ele>3</ele>
        <time>2022-12-29T03:44:40.119Z</time>
      </trkpt>
      <trkpt lat="47.89358" lon="-3.99058">
        <ele>3</ele>
        <time>2022-12-29T03:45:01.972Z</time>
      </trkpt>
      <trkpt lat="47.89371" lon="-3.99071">
        <ele>3</ele>
        <time>2022-12-29T03:45:23.827Z</time>
      </trkpt>
      <trkpt lat="47.8939" lon="-3.99083">
        <ele>3</ele>
        <time>2022-12-29T03:45:45.685Z</time>
      </trkpt>
      <trkpt lat="47.89423" lon="-3.99118">
        <ele>3</ele>
        <time>2022-12-29T03:46:07.550Z</time>
      </trkpt>
      <trkpt lat="47.89447" lon="-3.99151">
        <ele>3</ele>
        <time>2022-12-29T03:46:29.420Z</time>
      </trkpt>
      <trkpt lat="47.89467" lon="-3.99163">
        <ele>3</ele>
        <time>2022-12-29T03:46:51.294Z</time>
      </trkpt>
      <trkpt lat="47.89479" lon="-3.99166">
        <ele>3</ele>
        <time>2022-12-29T03:47:13.170Z</time>
      </trkpt>
      <trkpt lat="47.89521" lon="-3.9916">
        <ele>3</ele>
        <time>2022-12-29T03:47:35.052Z</time>
      </trkpt>
      <trkpt lat="47.89531" lon="-3.99166">
        <ele>3</ele>
        <time>2022-12-29T03:47:56.936Z</time>
      </trkpt>
      <trkpt lat="47.89548" lon="-3.99183">
        <ele>3</ele>
        <time>2022-12-29T03:48:18.823Z</time>
      </trkpt>
      <trkpt lat="47.89555" lon="-3.9919">
        <ele>4</ele>
        <time>2022-12-29T03:48:40.712Z</time>
      </trkpt>
      <trkpt lat="47.89598" lon="-3.99216">
        <ele>4</ele>
        <time>2022-12-29T03:49:02.608Z</time>
      </trkpt>
      <trkpt lat="47.89607" lon="-3.9922">
        <ele>4</ele>
        <time>2022-12-29T03:49:24.506Z</time>
      </trkpt>
      <trkpt lat="47.89643" lon="-3.9922">
        <ele>4</ele>
        <time>2022-12-29T03:49:46.409Z</time>
      </trkpt>
      <trkpt lat="47.89651" lon="-3.99217">
        <ele>4</ele>
        <time>2022-12-29T03:50:08.314Z</time>
      </trkpt>
      <trkpt lat="47.89657" lon="-3.99204">
        <ele>4</ele>
        <time>2022-12-29T03:50:30.220Z</time>
      </trkpt>
      <trkpt lat="47.89664" lon="-3.992">
        <ele>4</ele>
        <time>2022-12-29T03:50:52.128Z</time>
      </trkpt>
      <trkpt lat="47.89671" lon="-3.99198">
        <ele>4</ele>
        <time>2022-12-29T03:51:14.037Z</time>
      </trkpt>
      <trkpt lat="47.89681" lon="-3.992">
        <ele>5</ele>
        <time>2022-12-29T03:51:35.947Z</time>
      </trkpt>
      <trkpt lat="47.89699" lon="-3.99191">
        <ele>5</ele>
        <time>2022-12-29T03:51:57.860Z</time>
      </trkpt>
      <trkpt lat="47.897" lon="-3.99179">
        <ele>5</ele>
        <time>2022-12-29T03:52:19.775Z</time>
      </trkpt>
      <trkpt lat="47.89714" lon="-3.99029">
        <ele>5</ele>
        <time>2022-12-29T03:52:41.706Z</time>
      </trkpt>
      <trkpt lat="47.897" lon="-3.99179">
        <ele>5</ele>
        <time>2022-12-29T03:53:03.653Z</time>
      </trkpt>
      <trkpt lat="47.89714" lon="-3.99029">
        <ele>5</ele>
        <time>2022-12-29T03:53:25.617Z</time>
      </trkpt>
      <trkpt lat="47.89719" lon="-3.99017">
        <ele>6</ele>
        <time>2022-12-29T03:53:47.582Z</time>
      </trkpt>
      <trkpt lat="47.89727" lon="-3.99013">
        <ele>6</ele>
        <time>2022-12-29T03:54:09.548Z</time>
      </trkpt>
      <trkpt lat="47.89738" lon="-3.99013">
        <ele>6</ele>
        <time>2022-12-29T03:54:31.516Z</time>
      </trkpt>
      <trkpt lat="47.89749" lon="-3.99017">
        <ele>6</ele>
        <time>2022-12-29T03:54:53.486Z</time>
      </trkpt>
      <trkpt lat="47.8976" lon="-3.99026">
        <ele>6</ele>
        <time>2022-12-29T03:55:15.458Z</time>
      </trkpt>
      <trkpt lat="47.89788" lon="-3.99062">
        <ele>6</ele>
        <time>2022-12-29T03:55:37.436Z</time>
      </trkpt>
      <trkpt lat="47.89797" lon="-3.9907">
        <ele>6</ele>
        <time>2022-12-29T03:55:59.416Z</time>
      </trkpt>
      <trkpt lat="47.89804" lon="-3.99073">
        <ele>6</ele>
        <time>2022-12-29T03:56:21.397Z</time>
      </trkpt>
      <trkpt lat="47.8981" lon="-3.99071">
        <ele>6</ele>
        <time>2022-12-29T03:56:43.379Z</time>
      </trkpt>
      <trkpt lat="47.89837" lon="-3.99057">
        <ele>7</ele>
        <time>2022-12-29T03:57:05.365Z</time>
      </trkpt>
      <trkpt lat="47.89876" lon="-3.99017">
        <ele>7</ele>
        <time>2022-12-29T03:57:27.359Z</time>
      </trkpt>
      <trkpt lat="47.89906" lon="-3.99001">
        <ele>7</ele>
        <time>2022-12-29T03:57:49.358Z</time>
      </trkpt>
      <trkpt lat="47.8992" lon="-3.98999">
        <ele>7</ele>
        <time>2022-12-29T03:58:11.359Z</time>
      </trkpt>
      <trkpt lat="47.89931" lon="-3.98994">
        <ele>7</ele>
        <time>2022-12-29T03:58:33.362Z</time>
      </trkpt>
      <trkpt lat="47.89951" lon="-3.98971">
        <ele>7</ele>
        <time>2022-12-29T03:58:55.369Z</time>
      </trkpt>
      <trkpt lat="47.89961" lon="-3.9895">
        <ele>7</ele>
        <time>2022-12-29T03:59:17.379Z</time>
      </trkpt>
      <trkpt lat="47.8997" lon="-3.98942">
        <ele>8</ele>
        <time>2022-12-29T03:59:39.391Z</time>
      </trkpt>
      <trkpt lat="47.89975" lon="-3.98936">
        <ele>8</ele>
        <time>2022-12-29T04:00:01.404Z</time>
      </trkpt>
      <trkpt lat="47.89977" lon="-3.98923">
        <ele>8</ele>
        <time>2022-12-29T04:00:23.418Z</time>
      </trkpt>
      <trkpt lat="47.89981" lon="-3.98917">
        <ele>8</ele>
        <time>2022-12-29T04:00:45.433Z</time>
      </trkpt>
      <trkpt lat="47.89988" lon="-3.98911">
        <ele>8</ele>
        <time>2022-12-29T04:01:07.449Z</time>
      </trkpt>
      <trkpt lat="47.89991" lon="-3.98909">
        <ele>8</ele>
        <time>2022-12-29T04:01:29.466Z</time>
      </trkpt>
      <trkpt lat="47.89996" lon="-3.98909">
        <ele>9</ele>
        <time>2022-12-29T04:01:51.484Z</time>
      </trkpt>
      <trkpt lat="47.9" lon="-3.9891">
        <ele>9</ele>
        <time>2022-12-29T04:02:13.502Z</time>
      </trkpt>
      <trkpt lat="47.90031" lon="-3.98923">
        <ele>9</ele>
        <time>2022-12-29T04:02:35.525Z</time>
      </trkpt>
      <trkpt lat="47.90042" lon="-3.98923">
        <ele>9</ele>
        <time>2022-12-29T04:02:57.550Z</time>
      </trkpt>
      <trkpt lat="47.90077" lon="-3.98934">
        <ele>9</ele>
        <time>2022-12-29T04:03:19.581Z</time>
      </trkpt>
      <trkpt lat="47.90114" lon="-3.98936">
        <ele>9</ele>
        <time>2022-12-29T04:03:41.618Z</time>
      </trkpt>
      <trkpt lat="47.90146" lon="-3.98938">
        <ele>10</ele>
        <time>2022-12-29T04:04:03.660Z</time>
      </trkpt>
      <trkpt lat="47.90187" lon="-3.98945">
        <ele>10</ele>
        <time>2022-12-29T04:04:25.709Z</time>
      </trkpt>
      <trkpt lat="47.90201" lon="-3.98953">
        <ele>10</ele>
        <time>2022-12-29T04:04:47.760Z</time>
      </trkpt>
      <trkpt lat="47.90241" lon="-3.98997">
        <ele>11</ele>
        <time>2022-12-29T04:05:09.819Z</time>
      </trkpt>
      <trkpt lat="47.9026" lon="-3.99007">
        <ele>11</ele>
        <time>2022-12-29T04:05:31.881Z</time>
      </trkpt>
      <trkpt lat="47.9027" lon="-3.99008">
        <ele>11</ele>
        <time>2022-12-29T04:05:53.945Z</time>
      </trkpt>
      <trkpt lat="47.90287" lon="-3.99017">
        <ele>12</ele>
        <time>2022-12-29T04:06:16.012Z</time>
      </trkpt>
      <trkpt lat="47.90294" lon="-3.99026">
        <ele>12</ele>
        <time>2022-12-29T04:06:38.080Z</time>
      </trkpt>
      <trkpt lat="47.903" lon="-3.9903">
        <ele>13</ele>
        <time>2022-12-29T04:07:00.149Z</time>
      </trkpt>
      <trkpt lat="47.90305" lon="-3.9903">
        <ele>13</ele>
        <time>2022-12-29T04:07:22.219Z</time>
      </trkpt>
      <trkpt lat="47.90309" lon="-3.99029">
        <ele>13</ele>
        <time>2022-12-29T04:07:44.290Z</time>
      </trkpt>
      <trkpt lat="47.90326" lon="-3.99016">
        <ele>14</ele>
        <time>2022-12-29T04:08:06.364Z</time>
      </trkpt>
      <trkpt lat="47.90332" lon="-3.99007">
        <ele>14</ele>
        <time>2022-12-29T04:08:28.439Z</time>
      </trkpt>
      <trkpt lat="47.90344" lon="-3.98981">
        <ele>15</ele>
        <time>2022-12-29T04:08:50.517Z</time>
      </trkpt>
      <trkpt lat="47.9035" lon="-3.98968">
        <ele>15</ele>
        <time>2022-12-29T04:09:12.597Z</time>
      </trkpt>
      <trkpt lat="47.90351" lon="-3.98966">
        <ele>16</ele>
        <time>2022-12-29T04:09:34.677Z</time>
      </trkpt>
      <trkpt lat="47.90359" lon="-3.98946">
        <ele>16</ele>
        <time>2022-12-29T04:09:56.760Z</time>
      </trkpt>
      <trkpt lat="47.90366" lon="-3.98915">
        <ele>17</ele>
        <time>2022-12-29T04:10:18.846Z</time>
      </trkpt>
      <trkpt lat="47.90372" lon="-3.98906">
        <ele>17</ele>
        <time>2022-12-29T04:10:40.934Z</time>
      </trkpt>
      <trkpt lat="47.90376" lon="-3.98899">
        <ele>18</ele>
        <time>2022-12-29T04:11:03.023Z</time>
      </trkpt>
      <trkpt lat="47.9038" lon="-3.98894">
        <ele>18</ele>
        <time>2022-12-29T04:11:25.113Z</time>
      </trkpt>
      <trkpt lat="47.90416" lon="-3.9886">
        <ele>19</ele>
        <time>2022-12-29T04:11:47.209Z</time>
      </trkpt>
      <trkpt lat="47.90421" lon="-3.98845">
        <ele>19</ele>
        <time>2022-12-29T04:12:09.307Z</time>
      </trkpt>
      <trkpt lat="47.9042" lon="-3.98809">
        <ele>20</ele>
        <time>2022-12-29T04:12:31.409Z</time>
      </trkpt>
      <trkpt lat="47.90422" lon="-3.98798">
        <ele>20</ele>
        <time>2022-12-29T04:12:53.512Z</time>
      </trkpt>
      <trkpt lat="47.90474" lon="-3.98707">
        <ele>20</ele>
        <time>2022-12-29T04:13:15.628Z</time>
      </trkpt>
      <trkpt lat="47.90474" lon="-3.98707">
        <ele>21</ele>
        <time>2022-12-29T04:13:37.744Z</time>
      </trkpt>
      <trkpt lat="47.90489" lon="-3.98685">
        <ele>21</ele>
        <time>2022-12-29T04:13:59.863Z</time>
      </trkpt>
      <trkpt lat="47.90497" lon="-3.98671">
        <ele>21</ele>
        <time>2022-12-29T04:14:21.985Z</time>
      </trkpt>
      <trkpt lat="47.90511" lon="-3.98641">
        <ele>21</ele>
        <time>2022-12-29T04:14:44.110Z</time>
      </trkpt>
      <trkpt lat="47.90519" lon="-3.98624">
        <ele>21</ele>
        <time>2022-12-29T04:15:06.238Z</time>
      </trkpt>
      <trkpt lat="47.90526" lon="-3.98598">
        <ele>22</ele>
        <time>2022-12-29T04:15:28.369Z</time>
      </trkpt>
      <trkpt lat="47.90534" lon="-3.98539">
        <ele>22</ele>
        <time>2022-12-29T04:15:50.506Z</time>
      </trkpt>
      <trkpt lat="47.90536" lon="-3.98495">
        <ele>22</ele>
        <time>2022-12-29T04:16:12.648Z</time>
      </trkpt>
      <trkpt lat="47.90541" lon="-3.98451">
        <ele>21</ele>
        <time>2022-12-29T04:16:34.795Z</time>
      </trkpt>
      <trkpt lat="47.90557" lon="-3.98421">
        <ele>21</ele>
        <time>2022-12-29T04:16:56.946Z</time>
      </trkpt>
      <trkpt lat="47.90559" lon="-3.98413">
        <ele>21</ele>
        <time>2022-12-29T04:17:19.098Z</time>
      </trkpt>
      <trkpt lat="47.90559" lon="-3.98372">
        <ele>21</ele>
        <time>2022-12-29T04:17:41.254Z</time>
      </trkpt>
      <trkpt lat="47.90564" lon="-3.98346">
        <ele>21</ele>
        <time>2022-12-29T04:18:03.413Z</time>
      </trkpt>
      <trkpt lat="47.90563" lon="-3.98339">
        <ele>20</ele>
        <time>2022-12-29T04:18:25.573Z</time>
      </trkpt>
      <trkpt lat="47.90567" lon="-3.98334">
        <ele>20</ele>
        <time>2022-12-29T04:18:47.734Z</time>
      </trkpt>
      <trkpt lat="47.9058" lon="-3.98306">
        <ele>20</ele>
        <time>2022-12-29T04:19:09.898Z</time>
      </trkpt>
      <trkpt lat="47.90605" lon="-3.98262">
        <ele>19</ele>
        <time>2022-12-29T04:19:32.068Z</time>
      </trkpt>
      <trkpt lat="47.90615" lon="-3.98247">
        <ele>19</ele>
        <time>2022-12-29T04:19:54.241Z</time>
      </trkpt>
      <trkpt lat="47.90617" lon="-3.98235">
        <ele>19</ele>
        <time>2022-12-29T04:20:16.415Z</time>
      </trkpt>
      <trkpt lat="47.9063" lon="-3.98209">
        <ele>18</ele>
        <time>2022-12-29T04:20:38.593Z</time>
      </trkpt>
      <trkpt lat="47.90638" lon="-3.9819">
        <ele>18</ele>
        <time>2022-12-29T04:21:00.773Z</time>
      </trkpt>
      <trkpt lat="47.90643" lon="-3.98159">
        <ele>17</ele>
        <time>2022-12-29T04:21:22.956Z</time>
      </trkpt>
      <trkpt lat="47.9065" lon="-3.98088">
        <ele>17</ele>
        <time>2022-12-29T04:21:45.147Z</time>
      </trkpt>
      <trkpt lat="47.90651" lon="-3.98084">
        <ele>16</ele>
        <time>2022-12-29T04:22:07.339Z</time>
      </trkpt>
      <trkpt lat="47.90651" lon="-3.98084">
        <ele>16</ele>
        <time>2022-12-29T04:22:29.531Z</time>
      </trkpt>
      <trkpt lat="47.90654" lon="-3.98076">
        <ele>15</ele>
        <time>2022-12-29T04:22:51.724Z</time>
      </trkpt>
      <trkpt lat="47.9066" lon="-3.98056">
        <ele>15</ele>
        <time>2022-12-29T04:23:13.919Z</time>
      </trkpt>
      <trkpt lat="47.90665" lon="-3.98025">
        <ele>15</ele>
        <time>2022-12-29T04:23:36.117Z</time>
      </trkpt>
      <trkpt lat="47.90676" lon="-3.97993">
        <ele>14</ele>
        <time>2022-12-29T04:23:58.319Z</time>
      </trkpt>
      <trkpt lat="47.90685" lon="-3.97982">
        <ele>14</ele>
        <time>2022-12-29T04:24:20.523Z</time>
      </trkpt>
      <trkpt lat="47.90696" lon="-3.97977">
        <ele>13</ele>
        <time>2022-12-29T04:24:42.729Z</time>
      </trkpt>
      <trkpt lat="47.90689" lon="-3.97962">
        <ele>13</ele>
        <time>2022-12-29T04:25:04.937Z</time>
      </trkpt>
      <trkpt lat="47.90677" lon="-3.97943">
        <ele>13</ele>
        <time>2022-12-29T04:25:27.148Z</time>
      </trkpt>
      <trkpt lat="47.90667" lon="-3.97934">
        <ele>12</ele>
        <time>2022-12-29T04:25:49.361Z</time>
      </trkpt>
      <trkpt lat="47.90655" lon="-3.97929">
        <ele>12</ele>
        <time>2022-12-29T04:26:11.576Z</time>
      </trkpt>
      <trkpt lat="47.90657" lon="-3.9791">
        <ele>12</ele>
        <time>2022-12-29T04:26:33.793Z</time>
      </trkpt>
      <trkpt lat="47.90677" lon="-3.979">
        <ele>12</ele>
        <time>2022-12-29T04:26:56.013Z</time>
      </trkpt>
      <trkpt lat="47.90724" lon="-3.97882">
        <ele>12</ele>
        <time>2022-12-29T04:27:18.241Z</time>
      </trkpt>
      <trkpt lat="47.90736" lon="-3.97877">
        <ele>11</ele>
        <time>2022-12-29T04:27:40.471Z</time>
      </trkpt>
      <trkpt lat="47.90753" lon="-3.9787">
        <ele>11</ele>
        <time>2022-12-29T04:28:02.704Z</time>
      </trkpt>
      <trkpt lat="47.90782" lon="-3.9785">
        <ele>11</ele>
        <time>2022-12-29T04:28:24.942Z</time>
      </trkpt>
      <trkpt lat="47.90828" lon="-3.97842">
        <ele>11</ele>
        <time>2022-12-29T04:28:47.187Z</time>
      </trkpt>
      <trkpt lat="47.90879" lon="-3.97845">
        <ele>11</ele>
        <time>2022-12-29T04:29:09.440Z</time>
      </trkpt>
      <trkpt lat="47.90891" lon="-3.97838">
        <ele>11</ele>
        <time>2022-12-29T04:29:31.695Z</time>
      </trkpt>
      <trkpt lat="47.90917" lon="-3.97789">
        <ele>11</ele>
        <time>2022-12-29T04:29:53.957Z</time>
      </trkpt>
      <trkpt lat="47.90932" lon="-3.97727">
        <ele>12</ele>
        <time>2022-12-29T04:30:16.226Z</time>
      </trkpt>
      <trkpt lat="47.90931" lon="-3.97707">
        <ele>12</ele>
        <time>2022-12-29T04:30:38.497Z</time>
      </trkpt>
      <trkpt lat="47.90938" lon="-3.97698">
        <ele>12</ele>
        <time>2022-12-29T04:31:00.770Z</time>
      </trkpt>
      <trkpt lat="47.9095" lon="-3.97701">
        <ele>12</ele>
        <time>2022-12-29T04:31:23.045Z</time>
      </trkpt>
      <trkpt lat="47.90975" lon="-3.97712">
        <ele>12</ele>
        <time>2022-12-29T04:31:45.324Z</time>
      </trkpt>
      <trkpt lat="47.90975" lon="-3.97712">
        <ele>12</ele>
        <time>2022-12-29T04:32:07.603Z</time>
      </trkpt>
      <trkpt lat="47.90975" lon="-3.97703">
        <ele>12</ele>
        <time>2022-12-29T04:32:29.883Z</time>
      </trkpt>
      <trkpt lat="47.90976" lon="-3.97685">
        <ele>13</ele>
        <time>2022-12-29T04:32:52.165Z</time>
      </trkpt>
      <trkpt lat="47.90977" lon="-3.97678">
        <ele>13</ele>
        <time>2022-12-29T04:33:14.448Z</time>
      </trkpt>
      <trkpt lat="47.9097" lon="-3.97602">
        <ele>13</ele>
        <time>2022-12-29T04:33:36.739Z</time>
      </trkpt>
      <trkpt lat="47.9096" lon="-3.97556">
        <ele>13</ele>
        <time>2022-12-29T04:33:59.035Z</time>
      </trkpt>
      <trkpt lat="47.90959" lon="-3.97551">
        <ele>14</ele>
        <time>2022-12-29T04:34:21.332Z</time>
      </trkpt>
      <trkpt lat="47.90954" lon="-3.97551">
        <ele>14</ele>
        <time>2022-12-29T04:34:43.629Z</time>
      </trkpt>
      <trkpt lat="47.90951" lon="-3.97547">
        <ele>14</ele>
        <time>2022-12-29T04:35:05.927Z</time>
      </trkpt>
      <trkpt lat="47.90949" lon="-3.97538">
        <ele>14</ele>
        <time>2022-12-29T04:35:28.226Z</time>
      </trkpt>
      <trkpt lat="47.90934" lon="-3.97521">
        <ele>14</ele>
        <time>2022-12-29T04:35:50.528Z</time>
      </trkpt>
      <trkpt lat="47.90831" lon="-3.97411">
        <ele>13</ele>
        <time>2022-12-29T04:36:12.850Z</time>
      </trkpt>
      <trkpt lat="47.90831" lon="-3.97411">
        <ele>13</ele>
        <time>2022-12-29T04:36:35.172Z</time>
      </trkpt>
      <trkpt lat="47.90716" lon="-3.97286">
        <ele>13</ele>
        <time>2022-12-29T04:36:57.517Z</time>
      </trkpt>
      <trkpt lat="47.90716" lon="-3.97286">
        <ele>13</ele>
        <time>2022-12-29T04:37:19.862Z</time>
      </trkpt>
      <trkpt lat="47.90665" lon="-3.97234">
        <ele>13</ele>
        <time>2022-12-29T04:37:42.217Z</time>
      </trkpt>
      <trkpt lat="47.90633" lon="-3.97202">
        <ele>13</ele>
        <time>2022-12-29T04:38:04.578Z</time>
      </trkpt>
      <trkpt lat="47.90584" lon="-3.97152">
        <ele>13</ele>
        <time>2022-12-29T04:38:26.949Z</time>
      </trkpt>
      <trkpt lat="47.90528" lon="-3.97101">
        <ele>12</ele>
        <time>2022-12-29T04:38:49.330Z</time>
      </trkpt>
      <trkpt lat="47.90522" lon="-3.97111">
        <ele>12</ele>
        <time>2022-12-29T04:39:11.713Z</time>
      </trkpt>
      <trkpt lat="47.90515" lon="-3.97115">
        <ele>12</ele>
        <time>2022-12-29T04:39:34.097Z</time>
      </trkpt>
      <trkpt lat="47.90459" lon="-3.97108">
        <ele>11</ele>
        <time>2022-12-29T04:39:56.490Z</time>
      </trkpt>
      <trkpt lat="47.90431" lon="-3.97102">
        <ele>11</ele>
        <time>2022-12-29T04:40:18.887Z</time>
      </trkpt>
      <trkpt lat="47.90411" lon="-3.97095">
        <ele>11</ele>
        <time>2022-12-29T04:40:41.288Z</time>
      </trkpt>
      <trkpt lat="47.90392" lon="-3.97083">
        <ele>10</ele>
        <time>2022-12-29T04:41:03.692Z</time>
      </trkpt>
      <trkpt lat="47.90362" lon="-3.97058">
        <ele>10</ele>
        <time>2022-12-29T04:41:26.102Z</time>
      </trkpt>
      <trkpt lat="47.90316" lon="-3.97013">
        <ele>10</ele>
        <time>2022-12-29T04:41:48.520Z</time>
      </trkpt>
      <trkpt lat="47.90287" lon="-3.9699">
        <ele>9</ele>
        <time>2022-12-29T04:42:10.944Z</time>
      </trkpt>
      <trkpt lat="47.90281" lon="-3.97007">
        <ele>9</ele>
        <time>2022-12-29T04:42:33.370Z</time>
      </trkpt>
      <trkpt lat="47.90262" lon="-3.97086">
        <ele>9</ele>
        <time>2022-12-29T04:42:55.805Z</time>
      </trkpt>
      <trkpt lat="47.90254" lon="-3.97142">
        <ele>8</ele>
        <time>2022-12-29T04:43:18.246Z</time>
      </trkpt>
      <trkpt lat="47.9024" lon="-3.97259">
        <ele>8</ele>
        <time>2022-12-29T04:43:40.700Z</time>
      </trkpt>
      <trkpt lat="47.90229" lon="-3.97367">
        <ele>8</ele>
        <time>2022-12-29T04:44:03.166Z</time>
      </trkpt>
      <trkpt lat="47.90227" lon="-3.97382">
        <ele>7</ele>
        <time>2022-12-29T04:44:25.633Z</time>
      </trkpt>
      <trkpt lat="47.90222" lon="-3.97389">
        <ele>7</ele>
        <time>2022-12-29T04:44:48.101Z</time>
      </trkpt>
      <trkpt lat="47.90222" lon="-3.97389">
        <ele>7</ele>
        <time>2022-12-29T04:45:10.569Z</time>
      </trkpt>
      <trkpt lat="47.90188" lon="-3.9738">
        <ele>6</ele>
        <time>2022-12-29T04:45:33.043Z</time>
      </trkpt>
      <trkpt lat="47.90184" lon="-3.97378">
        <ele>6</ele>
        <time>2022-12-29T04:45:55.517Z</time>
      </trkpt>
      <trkpt lat="47.90184" lon="-3.9737">
        <ele>6</ele>
        <time>2022-12-29T04:46:17.992Z</time>
      </trkpt>
      <trkpt lat="47.90181" lon="-3.97362">
        <ele>5</ele>
        <time>2022-12-29T04:46:40.468Z</time>
      </trkpt>
      <trkpt lat="47.90169" lon="-3.97358">
        <ele>5</ele>
        <time>2022-12-29T04:47:02.946Z</time>
      </trkpt>
      <trkpt lat="47.90169" lon="-3.97358">
        <ele>5</ele>
        <time>2022-12-29T04:47:25.424Z</time>
      </trkpt>
      <trkpt lat="47.90124" lon="-3.97347">
        <ele>4</ele>
        <time>2022-12-29T04:47:47.910Z</time>
      </trkpt>
      <trkpt lat="47.90114" lon="-3.97345">
        <ele>4</ele>
        <time>2022-12-29T04:48:10.397Z</time>
      </trkpt>
      <trkpt lat="47.90108" lon="-3.97344">
        <ele>4</ele>
        <time>2022-12-29T04:48:32.885Z</time>
      </trkpt>
      <trkpt lat="47.90102" lon="-3.97343">
        <ele>3</ele>
        <time>2022-12-29T04:48:55.374Z</time>
      </trkpt>
      <trkpt lat="47.90102" lon="-3.97343">
        <ele>3</ele>
        <time>2022-12-29T04:49:17.863Z</time>
      </trkpt>
      <trkpt lat="47.90085" lon="-3.9734">
        <ele>3</ele>
        <time>2022-12-29T04:49:40.355Z</time>
      </trkpt>
      <trkpt lat="47.90073" lon="-3.97338">
        <ele>3</ele>
        <time>2022-12-29T04:50:02.849Z</time>
      </trkpt>
      <trkpt lat="47.90047" lon="-3.97332">
        <ele>2</ele>
        <time>2022-12-29T04:50:25.347Z</time>
      </trkpt>
      <trkpt lat="47.9002" lon="-3.97326">
        <ele>2</ele>
        <time>2022-12-29T04:50:47.849Z</time>
      </trkpt>
      <trkpt lat="47.90005" lon="-3.97323">
        <ele>2</ele>
        <time>2022-12-29T04:51:10.354Z</time>
      </trkpt>
      <trkpt lat="47.89991" lon="-3.9732">
        <ele>2</ele>
        <time>2022-12-29T04:51:32.861Z</time>
      </trkpt>
      <trkpt lat="47.89971" lon="-3.97315">
        <ele>2</ele>
        <time>2022-12-29T04:51:55.371Z</time>
      </trkpt>
      <trkpt lat="47.8997" lon="-3.97315">
        <ele>2</ele>
        <time>2022-12-29T04:52:17.881Z</time>
      </trkpt>
      <trkpt lat="47.8996" lon="-3.97312">
        <ele>2</ele>
        <time>2022-12-29T04:52:40.393Z</time>
      </trkpt>
      <trkpt lat="47.89949" lon="-3.9731">
        <ele>2</ele>
        <time>2022-12-29T04:53:02.907Z</time>
      </trkpt>
      <trkpt lat="47.89924" lon="-3.97303">
        <ele>2</ele>
        <time>2022-12-29T04:53:25.425Z</time>
      </trkpt>
      <trkpt lat="47.89917" lon="-3.97301">
        <ele>2</ele>
        <time>2022-12-29T04:53:47.944Z</time>
      </trkpt>
      <trkpt lat="47.89909" lon="-3.97295">
        <ele>2</ele>
        <time>2022-12-29T04:54:10.464Z</time>
      </trkpt>
      <trkpt lat="47.89903" lon="-3.97294">
        <ele>2</ele>
        <time>2022-12-29T04:54:32.985Z</time>
      </trkpt>
      <trkpt lat="47.89888" lon="-3.97291">
        <ele>2</ele>
        <time>2022-12-29T04:54:55.509Z</time>
      </trkpt>
      <trkpt lat="47.89886" lon="-3.97291">
        <ele>2</ele>
        <time>2022-12-29T04:55:18.033Z</time>
      </trkpt>
      <trkpt lat="47.89869" lon="-3.97287">
        <ele>2</ele>
        <time>2022-12-29T04:55:40.560Z</time>
      </trkpt>
      <trkpt lat="47.89869" lon="-3.97287">
        <ele>2</ele>
        <time>2022-12-29T04:56:03.087Z</time>
      </trkpt>
      <trkpt lat="47.89855" lon="-3.97283">
        <ele>2</ele>
        <time>2022-12-29T04:56:25.616Z</time>
      </trkpt>
      <trkpt lat="47.89857" lon="-3.97257">
        <ele>2</ele>
        <time>2022-12-29T04:56:48.148Z</time>
      </trkpt>
      <trkpt lat="47.89848" lon="-3.97234">
        <ele>2</ele>
        <time>2022-12-29T04:57:10.683Z</time>
      </trkpt>
      <trkpt lat="47.8985" lon="-3.97217">
        <ele>2</ele>
        <time>2022-12-29T04:57:33.220Z</time>
      </trkpt>
      <trkpt lat="47.89855" lon="-3.97172">
        <ele>2</ele>
        <time>2022-12-29T04:57:55.762Z</time>
      </trkpt>
      <trkpt lat="47.89855" lon="-3.97172">
        <ele>2</ele>
        <time>2022-12-29T04:58:18.304Z</time>
      </trkpt>
      <trkpt lat="47.89856" lon="-3.97156">
        <ele>2</ele>
        <time>2022-12-29T04:58:40.847Z</time>
      </trkpt>
      <trkpt lat="47.8981" lon="-3.97149">
        <ele>2</ele>
        <time>2022-12-29T04:59:03.398Z</time>
      </trkpt>
      <trkpt lat="47.8981" lon="-3.97149">
        <ele>2</ele>
        <time>2022-12-29T04:59:25.949Z</time>
      </trkpt>
      <trkpt lat="47.89788" lon="-3.97141">
        <ele>2</ele>
        <time>2022-12-29T04:59:48.503Z</time>
      </trkpt>
      <trkpt lat="47.8972" lon="-3.97131">
        <ele>3</ele>
        <time>2022-12-29T05:00:11.068Z</time>
      </trkpt>
      <trkpt lat="47.89702" lon="-3.97123">
        <ele>3</ele>
        <time>2022-12-29T05:00:33.636Z</time>
      </trkpt>
      <trkpt lat="47.89655" lon="-3.97086">
        <ele>3</ele>
        <time>2022-12-29T05:00:56.213Z</time>
      </trkpt>
      <trkpt lat="47.89651" lon="-3.9708">
        <ele>3</ele>
        <time>2022-12-29T05:01:18.791Z</time>
      </trkpt>
      <trkpt lat="47.89645" lon="-3.97065">
        <ele>3</ele>
        <time>2022-12-29T05:01:41.371Z</time>
      </trkpt>
      <trkpt lat="47.89645" lon="-3.97052">
        <ele>3</ele>
        <time>2022-12-29T05:02:03.952Z</time>
      </trkpt>
      <trkpt lat="47.8965" lon="-3.97029">
        <ele>3</ele>
        <time>2022-12-29T05:02:26.536Z</time>
      </trkpt>
      <trkpt lat="47.89657" lon="-3.97002">
        <ele>3</ele>
        <time>2022-12-29T05:02:49.123Z</time>
      </trkpt>
      <trkpt lat="47.89658" lon="-3.97001">
        <ele>4</ele>
        <time>2022-12-29T05:03:11.710Z</time>
      </trkpt>
      <trkpt lat="47.89665" lon="-3.96977">
        <ele>4</ele>
        <time>2022-12-29T05:03:34.300Z</time>
      </trkpt>
      <trkpt lat="47.89669" lon="-3.96966">
        <ele>4</ele>
        <time>2022-12-29T05:03:56.891Z</time>
      </trkpt>
      <trkpt lat="47.89672" lon="-3.96955">
        <ele>4</ele>
        <time>2022-12-29T05:04:19.483Z</time>
      </trkpt>
      <trkpt lat="47.89672" lon="-3.96954">
        <ele>4</ele>
        <time>2022-12-29T05:04:42.075Z</time>
      </trkpt>
      <trkpt lat="47.89674" lon="-3.96948">
        <ele>4</ele>
        <time>2022-12-29T05:05:04.668Z</time>
      </trkpt>
      <trkpt lat="47.8969" lon="-3.96909">
        <ele>4</ele>
        <time>2022-12-29T05:05:27.266Z</time>
      </trkpt>
      <trkpt lat="47.89699" lon="-3.96895">
        <ele>4</ele>
        <time>2022-12-29T05:05:49.866Z</time>
      </trkpt>
      <trkpt lat="47.89714" lon="-3.96879">
        <ele>4</ele>
        <time>2022-12-29T05:06:12.469Z</time>
      </trkpt>
      <trkpt lat="47.89728" lon="-3.96864">
        <ele>4</ele>
        <time>2022-12-29T05:06:35.075Z</time>
      </trkpt>
      <trkpt lat="47.8973" lon="-3.96863">
        <ele>4</ele>
        <time>2022-12-29T05:06:57.681Z</time>
      </trkpt>
      <trkpt lat="47.89744" lon="-3.96848">
        <ele>5</ele>
        <time>2022-12-29T05:07:20.290Z</time>
      </trkpt>
      <trkpt lat="47.89744" lon="-3.96848">
        <ele>5</ele>
        <time>2022-12-29T05:07:42.899Z</time>
      </trkpt>
      <trkpt lat="47.89769" lon="-3.96823">
        <ele>5</ele>
        <time>2022-12-29T05:08:05.513Z</time>
      </trkpt>
      <trkpt lat="47.89786" lon="-3.96794">
        <ele>5</ele>
        <time>2022-12-29T05:08:28.131Z</time>
      </trkpt>
      <trkpt lat="47.89789" lon="-3.96787">
        <ele>5</ele>
        <time>2022-12-29T05:08:50.750Z</time>
      </trkpt>
      <trkpt lat="47.89796" lon="-3.96774">
        <ele>5</ele>
        <time>2022-12-29T05:09:13.371Z</time>
      </trkpt>
      <trkpt lat="47.89802" lon="-3.96755">
        <ele>5</ele>
        <time>2022-12-29T05:09:35.994Z</time>
      </trkpt>
      <trkpt lat="47.89812" lon="-3.96696">
        <ele>5</ele>
        <time>2022-12-29T05:09:58.623Z</time>
      </trkpt>
      <trkpt lat="47.89814" lon="-3.96679">
        <ele>6</ele>
        <time>2022-12-29T05:10:21.254Z</time>
      </trkpt>
      <trkpt lat="47.89827" lon="-3.96601">
        <ele>6</ele>
        <time>2022-12-29T05:10:43.894Z</time>
      </trkpt>
      <trkpt lat="47.89832" lon="-3.96576">
        <ele>6</ele>
        <time>2022-12-29T05:11:06.537Z</time>
      </trkpt>
      <trkpt lat="47.89829" lon="-3.96571">
        <ele>6</ele>
        <time>2022-12-29T05:11:29.181Z</time>
      </trkpt>
      <trkpt lat="47.89829" lon="-3.96567">
        <ele>7</ele>
        <time>2022-12-29T05:11:51.825Z</time>
      </trkpt>
      <trkpt lat="47.8983" lon="-3.9656">
        <ele>7</ele>
        <time>2022-12-29T05:12:14.470Z</time>
      </trkpt>
      <trkpt lat="47.89834" lon="-3.96556">
        <ele>7</ele>
        <time>2022-12-29T05:12:37.116Z</time>
      </trkpt>
      <trkpt lat="47.89837" lon="-3.96556">
        <ele>8</ele>
        <time>2022-12-29T05:12:59.762Z</time>
      </trkpt>
      <trkpt lat="47.89838" lon="-3.96529">
        <ele>8</ele>
        <time>2022-12-29T05:13:22.411Z</time>
      </trkpt>
      <trkpt lat="47.89842" lon="-3.965">
        <ele>8</ele>
        <time>2022-12-29T05:13:45.063Z</time>
      </trkpt>
      <trkpt lat="47.89851" lon="-3.96432">
        <ele>8</ele>
        <time>2022-12-29T05:14:07.723Z</time>
      </trkpt>
      <trkpt lat="47.89851" lon="-3.96432">
        <ele>9</ele>
        <time>2022-12-29T05:14:30.383Z</time>
      </trkpt>
      <trkpt lat="47.89865" lon="-3.96347">
        <ele>9</ele>
        <time>2022-12-29T05:14:53.052Z</time>
      </trkpt>
      <trkpt lat="47.89874" lon="-3.9629">
        <ele>10</ele>
        <time>2022-12-29T05:15:15.727Z</time>
      </trkpt>
      <trkpt lat="47.89885" lon="-3.9622">
        <ele>10</ele>
        <time>2022-12-29T05:15:38.410Z</time>
      </trkpt>
      <trkpt lat="47.89888" lon="-3.96202">
        <ele>11</ele>
        <time>2022-12-29T05:16:01.095Z</time>
      </trkpt>
      <trkpt lat="47.89893" lon="-3.96168">
        <ele>11</ele>
        <time>2022-12-29T05:16:23.784Z</time>
      </trkpt>
      <trkpt lat="47.89893" lon="-3.96168">
        <ele>12</ele>
        <time>2022-12-29T05:16:46.473Z</time>
      </trkpt>
      <trkpt lat="47.89896" lon="-3.96144">
        <ele>12</ele>
        <time>2022-12-29T05:17:09.164Z</time>
      </trkpt>
      <trkpt lat="47.89904" lon="-3.95998">
        <ele>13</ele>
        <time>2022-12-29T05:17:31.871Z</time>
      </trkpt>
      <trkpt lat="47.8991" lon="-3.95947">
        <ele>14</ele>
        <time>2022-12-29T05:17:54.584Z</time>
      </trkpt>
      <trkpt lat="47.89915" lon="-3.95923">
        <ele>14</ele>
        <time>2022-12-29T05:18:17.299Z</time>
      </trkpt>
      <trkpt lat="47.89915" lon="-3.95896">
        <ele>15</ele>
        <time>2022-12-29T05:18:40.017Z</time>
      </trkpt>
      <trkpt lat="47.89911" lon="-3.95892">
        <ele>15</ele>
        <time>2022-12-29T05:19:02.736Z</time>
      </trkpt>
      <trkpt lat="47.89909" lon="-3.95884">
        <ele>16</ele>
        <time>2022-12-29T05:19:25.456Z</time>
      </trkpt>
      <trkpt lat="47.89911" lon="-3.95877">
        <ele>16</ele>
        <time>2022-12-29T05:19:48.177Z</time>
      </trkpt>
      <trkpt lat="47.89915" lon="-3.95874">
        <ele>17</ele>
        <time>2022-12-29T05:20:10.898Z</time>
      </trkpt>
      <trkpt lat="47.89906" lon="-3.95851">
        <ele>17</ele>
        <time>2022-12-29T05:20:33.622Z</time>
      </trkpt>
      <trkpt lat="47.89904" lon="-3.95836">
        <ele>18</ele>
        <time>2022-12-29T05:20:56.348Z</time>
      </trkpt>
      <trkpt lat="47.89903" lon="-3.95804">
        <ele>18</ele>
        <time>2022-12-29T05:21:19.077Z</time>
      </trkpt>
      <trkpt lat="47.89904" lon="-3.95775">
        <ele>19</ele>
        <time>2022-12-29T05:21:41.809Z</time>
      </trkpt>
      <trkpt lat="47.89907" lon="-3.95751">
        <ele>20</ele>
        <time>2022-12-29T05:22:04.544Z</time>
      </trkpt>
      <trkpt lat="47.8992" lon="-3.95703">
        <ele>20</ele>
        <time>2022-12-29T05:22:27.285Z</time>
      </trkpt>
      <trkpt lat="47.89929" lon="-3.95672">
        <ele>21</ele>
        <time>2022-12-29T05:22:50.029Z</time>
      </trkpt>
      <trkpt lat="47.89938" lon="-3.95652">
        <ele>21</ele>
        <time>2022-12-29T05:23:12.776Z</time>
      </trkpt>
      <trkpt lat="47.89938" lon="-3.95652">
        <ele>22</ele>
        <time>2022-12-29T05:23:35.523Z</time>
      </trkpt>
      <trkpt lat="47.89952" lon="-3.95631">
        <ele>22</ele>
        <time>2022-12-29T05:23:58.273Z</time>
      </trkpt>
      <trkpt lat="47.89963" lon="-3.95621">
        <ele>23</ele>
        <time>2022-12-29T05:24:21.025Z</time>
      </trkpt>
      <trkpt lat="47.8996" lon="-3.95604">
        <ele>23</ele>
        <time>2022-12-29T05:24:43.779Z</time>
      </trkpt>
      <trkpt lat="47.89961" lon="-3.95588">
        <ele>23</ele>
        <time>2022-12-29T05:25:06.535Z</time>
      </trkpt>
      <trkpt lat="47.89975" lon="-3.95539">
        <ele>24</ele>
        <time>2022-12-29T05:25:29.296Z</time>
      </trkpt>
      <trkpt lat="47.89977" lon="-3.95525">
        <ele>24</ele>
        <time>2022-12-29T05:25:52.059Z</time>
      </trkpt>
      <trkpt lat="47.89983" lon="-3.95494">
        <ele>25</ele>
        <time>2022-12-29T05:26:14.826Z</time>
      </trkpt>
      <trkpt lat="47.90003" lon="-3.95432">
        <ele>26</ele>
        <time>2022-12-29T05:26:37.600Z</time>
      </trkpt>
      <trkpt lat="47.90014" lon="-3.95408">
        <ele>26</ele>
        <time>2022-12-29T05:27:00.377Z</time>
      </trkpt>
      <trkpt lat="47.90017" lon="-3.95401">
        <ele>27</ele>
        <time>2022-12-29T05:27:23.155Z</time>
      </trkpt>
      <trkpt lat="47.90021" lon="-3.95389">
        <ele>27</ele>
        <time>2022-12-29T05:27:45.934Z</time>
      </trkpt>
      <trkpt lat="47.90023" lon="-3.95385">
        <ele>28</ele>
        <time>2022-12-29T05:28:08.714Z</time>
      </trkpt>
      <trkpt lat="47.90034" lon="-3.95362">
        <ele>29</ele>
        <time>2022-12-29T05:28:31.497Z</time>
      </trkpt>
      <trkpt lat="47.90059" lon="-3.95314">
        <ele>29</ele>
        <time>2022-12-29T05:28:54.287Z</time>
      </trkpt>
      <trkpt lat="47.90176" lon="-3.95363">
        <ele>30</ele>
        <time>2022-12-29T05:29:17.096Z</time>
      </trkpt>
      <trkpt lat="47.90176" lon="-3.95363">
        <ele>31</ele>
        <time>2022-12-29T05:29:39.905Z</time>
      </trkpt>
      <trkpt lat="47.90188" lon="-3.95368">
        <ele>32</ele>
        <time>2022-12-29T05:30:02.716Z</time>
      </trkpt>
      <trkpt lat="47.90188" lon="-3.95368">
        <ele>33</ele>
        <time>2022-12-29T05:30:25.527Z</time>
      </trkpt>
      <trkpt lat="47.90213" lon="-3.95377">
        <ele>34</ele>
        <time>2022-12-29T05:30:48.342Z</time>
      </trkpt>
      <trkpt lat="47.90231" lon="-3.9538">
        <ele>36</ele>
        <time>2022-12-29T05:31:11.160Z</time>
      </trkpt>
      <trkpt lat="47.90254" lon="-3.95377">
        <ele>37</ele>
        <time>2022-12-29T05:31:33.982Z</time>
      </trkpt>
      <trkpt lat="47.90262" lon="-3.95373">
        <ele>38</ele>
        <time>2022-12-29T05:31:56.805Z</time>
      </trkpt>
      <trkpt lat="47.90292" lon="-3.95349">
        <ele>39</ele>
        <time>2022-12-29T05:32:19.634Z</time>
      </trkpt>
      <trkpt lat="47.90292" lon="-3.95349">
        <ele>41</ele>
        <time>2022-12-29T05:32:42.463Z</time>
      </trkpt>
      <trkpt lat="47.90303" lon="-3.95342">
        <ele>42</ele>
        <time>2022-12-29T05:33:05.293Z</time>
      </trkpt>
      <trkpt lat="47.90337" lon="-3.95325">
        <ele>43</ele>
        <time>2022-12-29T05:33:28.129Z</time>
      </trkpt>
      <trkpt lat="47.90356" lon="-3.95324">
        <ele>45</ele>
        <time>2022-12-29T05:33:50.968Z</time>
      </trkpt>
      <trkpt lat="47.90375" lon="-3.95329">
        <ele>46</ele>
        <time>2022-12-29T05:34:13.810Z</time>
      </trkpt>
      <trkpt lat="47.90473" lon="-3.9536">
        <ele>48</ele>
        <time>2022-12-29T05:34:36.668Z</time>
      </trkpt>
      <trkpt lat="47.90481" lon="-3.95359">
        <ele>49</ele>
        <time>2022-12-29T05:34:59.528Z</time>
      </trkpt>
      <trkpt lat="47.90489" lon="-3.95356">
        <ele>50</ele>
        <time>2022-12-29T05:35:22.389Z</time>
      </trkpt>
      <trkpt lat="47.90499" lon="-3.95348">
        <ele>51</ele>
        <time>2022-12-29T05:35:45.252Z</time>
      </trkpt>
      <trkpt lat="47.90546" lon="-3.95303">
        <ele>52</ele>
        <time>2022-12-29T05:36:08.124Z</time>
      </trkpt>
      <trkpt lat="47.90561" lon="-3.95295">
        <ele>53</ele>
        <time>2022-12-29T05:36:30.998Z</time>
      </trkpt>
      <trkpt lat="47.90717" lon="-3.95275">
        <ele>54</ele>
        <time>2022-12-29T05:36:53.897Z</time>
      </trkpt>
      <trkpt lat="47.90768" lon="-3.95283">
        <ele>54</ele>
        <time>2022-12-29T05:37:16.804Z</time>
      </trkpt>
      <trkpt lat="47.90768" lon="-3.95283">
        <ele>55</ele>
        <time>2022-12-29T05:37:39.711Z</time>
      </trkpt>
      <trkpt lat="47.90789" lon="-3.95287">
        <ele>55</ele>
        <time>2022-12-29T05:38:02.622Z</time>
      </trkpt>
      <trkpt lat="47.90848" lon="-3.95363">
        <ele>55</ele>
        <time>2022-12-29T05:38:25.545Z</time>
      </trkpt>
      <trkpt lat="47.90884" lon="-3.95338">
        <ele>55</ele>
        <time>2022-12-29T05:38:48.475Z</time>
      </trkpt>
      <trkpt lat="47.90885" lon="-3.95337">
        <ele>55</ele>
        <time>2022-12-29T05:39:11.405Z</time>
      </trkpt>
      <trkpt lat="47.90892" lon="-3.95336">
        <ele>55</ele>
        <time>2022-12-29T05:39:34.336Z</time>
      </trkpt>
      <trkpt lat="47.90897" lon="-3.95329">
        <ele>54</ele>
        <time>2022-12-29T05:39:57.268Z</time>
      </trkpt>
      <trkpt lat="47.90897" lon="-3.95266">
        <ele>54</ele>
        <time>2022-12-29T05:40:20.207Z</time>
      </trkpt>
      <trkpt lat="47.90899" lon="-3.95258">
        <ele>53</ele>
        <time>2022-12-29T05:40:43.147Z</time>
      </trkpt>
      <trkpt lat="47.90901" lon="-3.9525">
        <ele>52</ele>
        <time>2022-12-29T05:41:06.088Z</time>
      </trkpt>
      <trkpt lat="47.90897" lon="-3.95217">
        <ele>51</ele>
        <time>2022-12-29T05:41:29.032Z</time>
      </trkpt>
      <trkpt lat="47.90876" lon="-3.95138">
        <ele>50</ele>
        <time>2022-12-29T05:41:51.986Z</time>
      </trkpt>
      <trkpt lat="47.90873" lon="-3.95116">
        <ele>49</ele>
        <time>2022-12-29T05:42:14.942Z</time>
      </trkpt>
      <trkpt lat="47.90875" lon="-3.95088">
        <ele>48</ele>
        <time>2022-12-29T05:42:37.901Z</time>
      </trkpt>
      <trkpt lat="47.90886" lon="-3.9506">
        <ele>47</ele>
        <time>2022-12-29T05:43:00.863Z</time>
      </trkpt>
      <trkpt lat="47.90907" lon="-3.95012">
        <ele>45</ele>
        <time>2022-12-29T05:43:23.832Z</time>
      </trkpt>
      <trkpt lat="47.90911" lon="-3.94997">
        <ele>44</ele>
        <time>2022-12-29T05:43:46.802Z</time>
      </trkpt>
      <trkpt lat="47.90914" lon="-3.94968">
        <ele>43</ele>
        <time>2022-12-29T05:44:09.776Z</time>
      </trkpt>
      <trkpt lat="47.90911" lon="-3.94952">
        <ele>41</ele>
        <time>2022-12-29T05:44:32.751Z</time>
      </trkpt>
      <trkpt lat="47.90906" lon="-3.94934">
        <ele>40</ele>
        <time>2022-12-29T05:44:55.728Z</time>
      </trkpt>
      <trkpt lat="47.90894" lon="-3.94909">
        <ele>39</ele>
        <time>2022-12-29T05:45:18.709Z</time>
      </trkpt>
      <trkpt lat="47.90879" lon="-3.9489">
        <ele>38</ele>
        <time>2022-12-29T05:45:41.693Z</time>
      </trkpt>
      <trkpt lat="47.90761" lon="-3.94784">
        <ele>37</ele>
        <time>2022-12-29T05:46:04.699Z</time>
      </trkpt>
      <trkpt lat="47.90761" lon="-3.94784">
        <ele>36</ele>
        <time>2022-12-29T05:46:27.705Z</time>
      </trkpt>
      <trkpt lat="47.90717" lon="-3.94749">
        <ele>35</ele>
        <time>2022-12-29T05:46:50.719Z</time>
      </trkpt>
      <trkpt lat="47.90695" lon="-3.94732">
        <ele>34</ele>
        <time>2022-12-29T05:47:13.737Z</time>
      </trkpt>
      <trkpt lat="47.90637" lon="-3.94685">
        <ele>33</ele>
        <time>2022-12-29T05:47:36.766Z</time>
      </trkpt>
      <trkpt lat="47.90527" lon="-3.94576">
        <ele>33</ele>
        <time>2022-12-29T05:47:59.816Z</time>
      </trkpt>
      <trkpt lat="47.90518" lon="-3.94567">
        <ele>32</ele>
        <time>2022-12-29T05:48:22.867Z</time>
      </trkpt>
      <trkpt lat="47.90479" lon="-3.94536">
        <ele>32</ele>
        <time>2022-12-29T05:48:45.926Z</time>
      </trkpt>
      <trkpt lat="47.90467" lon="-3.94528">
        <ele>31</ele>
        <time>2022-12-29T05:49:08.987Z</time>
      </trkpt>
      <trkpt lat="47.90455" lon="-3.94523">
        <ele>31</ele>
        <time>2022-12-29T05:49:32.050Z</time>
      </trkpt>
      <trkpt lat="47.90396" lon="-3.9451">
        <ele>31</ele>
        <time>2022-12-29T05:49:55.122Z</time>
      </trkpt>
      <trkpt lat="47.9038" lon="-3.94505">
        <ele>30</ele>
        <time>2022-12-29T05:50:18.197Z</time>
      </trkpt>
      <trkpt lat="47.90345" lon="-3.94485">
        <ele>30</ele>
        <time>2022-12-29T05:50:41.278Z</time>
      </trkpt>
      <trkpt lat="47.90229" lon="-3.94423">
        <ele>29</ele>
        <time>2022-12-29T05:51:04.379Z</time>
      </trkpt>
      <trkpt lat="47.90229" lon="-3.94423">
        <ele>29</ele>
        <time>2022-12-29T05:51:27.480Z</time>
      </trkpt>
      <trkpt lat="47.90177" lon="-3.94396">
        <ele>29</ele>
        <time>2022-12-29T05:51:50.589Z</time>
      </trkpt>
      <trkpt lat="47.90166" lon="-3.94389">
        <ele>28</ele>
        <time>2022-12-29T05:52:13.700Z</time>
      </trkpt>
      <trkpt lat="47.90166" lon="-3.94389">
        <ele>28</ele>
        <time>2022-12-29T05:52:36.811Z</time>
      </trkpt>
      <trkpt lat="47.90135" lon="-3.94372">
        <ele>27</ele>
        <time>2022-12-29T05:52:59.928Z</time>
      </trkpt>
      <trkpt lat="47.90135" lon="-3.94372">
        <ele>27</ele>
        <time>2022-12-29T05:53:23.045Z</time>
      </trkpt>
      <trkpt lat="47.90041" lon="-3.94363">
        <ele>26</ele>
        <time>2022-12-29T05:53:46.177Z</time>
      </trkpt>
      <trkpt lat="47.89948" lon="-3.94351">
        <ele>25</ele>
        <time>2022-12-29T05:54:09.324Z</time>
      </trkpt>
      <trkpt lat="47.89755" lon="-3.94326">
        <ele>24</ele>
        <time>2022-12-29T05:54:32.502Z</time>
      </trkpt>
      <trkpt lat="47.89724" lon="-3.94319">
        <ele>23</ele>
        <time>2022-12-29T05:54:55.685Z</time>
      </trkpt>
      <trkpt lat="47.89717" lon="-3.94318">
        <ele>23</ele>
        <time>2022-12-29T05:55:18.869Z</time>
      </trkpt>
      <trkpt lat="47.89697" lon="-3.94314">
        <ele>22</ele>
        <time>2022-12-29T05:55:42.056Z</time>
      </trkpt>
      <trkpt lat="47.89697" lon="-3.94314">
        <ele>21</ele>
        <time>2022-12-29T05:56:05.243Z</time>
      </trkpt>
      <trkpt lat="47.89673" lon="-3.94308">
        <ele>20</ele>
        <time>2022-12-29T05:56:28.434Z</time>
      </trkpt>
      <trkpt lat="47.89671" lon="-3.94307">
        <ele>19</ele>
        <time>2022-12-29T05:56:51.625Z</time>
      </trkpt>
      <trkpt lat="47.89614" lon="-3.94282">
        <ele>18</ele>
        <time>2022-12-29T05:57:14.826Z</time>
      </trkpt>
      <trkpt lat="47.89581" lon="-3.94258">
        <ele>18</ele>
        <time>2022-12-29T05:57:38.033Z</time>
      </trkpt>
      <trkpt lat="47.89568" lon="-3.94246">
        <ele>17</ele>
        <time>2022-12-29T05:58:01.242Z</time>
      </trkpt>
      <trkpt lat="47.89547" lon="-3.94225">
        <ele>17</ele>
        <time>2022-12-29T05:58:24.455Z</time>
      </trkpt>
      <trkpt lat="47.8954" lon="-3.94216">
        <ele>16</ele>
        <time>2022-12-29T05:58:47.670Z</time>
      </trkpt>
      <trkpt lat="47.8954" lon="-3.94216">
        <ele>16</ele>
        <time>2022-12-29T05:59:10.885Z</time>
      </trkpt>
      <trkpt lat="47.89487" lon="-3.94149">
        <ele>16</ele>
        <time>2022-12-29T05:59:34.111Z</time>
      </trkpt>
      <trkpt lat="47.89487" lon="-3.9416">
        <ele>16</ele>
        <time>2022-12-29T05:59:57.338Z</time>
      </trkpt>
      <trkpt lat="47.89482" lon="-3.94154">
        <ele>16</ele>
        <time>2022-12-29T06:00:20.566Z</time>
      </trkpt>
      <trkpt lat="47.8948" lon="-3.94153">
        <ele>17</ele>
        <time>2022-12-29T06:00:43.794Z</time>
      </trkpt>
      <trkpt lat="47.89467" lon="-3.94136">
        <ele>17</ele>
        <time>2022-12-29T06:01:07.025Z</time>
      </trkpt>
      <trkpt lat="47.89467" lon="-3.94136">
        <ele>18</ele>
        <time>2022-12-29T06:01:30.256Z</time>
      </trkpt>
      <trkpt lat="47.89487" lon="-3.9416">
        <ele>19</ele>
        <time>2022-12-29T06:01:53.491Z</time>
      </trkpt>
      <trkpt lat="47.89487" lon="-3.94149">
        <ele>20</ele>
        <time>2022-12-29T06:02:16.728Z</time>
      </trkpt>
      <trkpt lat="47.89465" lon="-3.94121">
        <ele>21</ele>
        <time>2022-12-29T06:02:39.969Z</time>
      </trkpt>
      <trkpt lat="47.89465" lon="-3.94121">
        <ele>22</ele>
        <time>2022-12-29T06:03:03.210Z</time>
      </trkpt>
      <trkpt lat="47.89344" lon="-3.93972">
        <ele>24</ele>
        <time>2022-12-29T06:03:26.476Z</time>
      </trkpt>
      <trkpt lat="47.89342" lon="-3.93968">
        <ele>26</ele>
        <time>2022-12-29T06:03:49.743Z</time>
      </trkpt>
      <trkpt lat="47.89317" lon="-3.93938">
        <ele>28</ele>
        <time>2022-12-29T06:04:13.015Z</time>
      </trkpt>
      <trkpt lat="47.89307" lon="-3.93925">
        <ele>29</ele>
        <time>2022-12-29T06:04:36.289Z</time>
      </trkpt>
      <trkpt lat="47.89301" lon="-3.93918">
        <ele>30</ele>
        <time>2022-12-29T06:04:59.564Z</time>
      </trkpt>
      <trkpt lat="47.89259" lon="-3.9386">
        <ele>31</ele>
        <time>2022-12-29T06:05:22.848Z</time>
      </trkpt>
      <trkpt lat="47.89182" lon="-3.93776">
        <ele>32</ele>
        <time>2022-12-29T06:05:46.148Z</time>
      </trkpt>
      <trkpt lat="47.89089" lon="-3.93681">
        <ele>33</ele>
        <time>2022-12-29T06:06:09.466Z</time>
      </trkpt>
      <trkpt lat="47.88986" lon="-3.93576">
        <ele>34</ele>
        <time>2022-12-29T06:06:32.804Z</time>
      </trkpt>
      <trkpt lat="47.88975" lon="-3.93565">
        <ele>35</ele>
        <time>2022-12-29T06:06:56.144Z</time>
      </trkpt>
      <trkpt lat="47.88962" lon="-3.93552">
        <ele>36</ele>
        <time>2022-12-29T06:07:19.486Z</time>
      </trkpt>
      <trkpt lat="47.88931" lon="-3.93531">
        <ele>37</ele>
        <time>2022-12-29T06:07:42.834Z</time>
      </trkpt>
      <trkpt lat="47.88914" lon="-3.93521">
        <ele>38</ele>
        <time>2022-12-29T06:08:06.185Z</time>
      </trkpt>
      <trkpt lat="47.88899" lon="-3.93516">
        <ele>39</ele>
        <time>2022-12-29T06:08:29.538Z</time>
      </trkpt>
      <trkpt lat="47.88878" lon="-3.9351">
        <ele>40</ele>
        <time>2022-12-29T06:08:52.895Z</time>
      </trkpt>
      <trkpt lat="47.8884" lon="-3.93505">
        <ele>41</ele>
        <time>2022-12-29T06:09:16.258Z</time>
      </trkpt>
      <trkpt lat="47.88813" lon="-3.93506">
        <ele>42</ele>
        <time>2022-12-29T06:09:39.625Z</time>
      </trkpt>
      <trkpt lat="47.88785" lon="-3.93512">
        <ele>43</ele>
        <time>2022-12-29T06:10:02.997Z</time>
      </trkpt>
      <trkpt lat="47.88778" lon="-3.93513">
        <ele>43</ele>
        <time>2022-12-29T06:10:26.370Z</time>
      </trkpt>
      <trkpt lat="47.88778" lon="-3.93513">
        <ele>44</ele>
        <time>2022-12-29T06:10:49.743Z</time>
      </trkpt>
      <trkpt lat="47.88751" lon="-3.93521">
        <ele>44</ele>
        <time>2022-12-29T06:11:13.120Z</time>
      </trkpt>
      <trkpt lat="47.8875" lon="-3.93521">
        <ele>45</ele>
        <time>2022-12-29T06:11:36.497Z</time>
      </trkpt>
      <trkpt lat="47.88721" lon="-3.93529">
        <ele>45</ele>
        <time>2022-12-29T06:11:59.879Z</time>
      </trkpt>
      <trkpt lat="47.88709" lon="-3.93532">
        <ele>45</ele>
        <time>2022-12-29T06:12:23.263Z</time>
      </trkpt>
      <trkpt lat="47.88706" lon="-3.93533">
        <ele>46</ele>
        <time>2022-12-29T06:12:46.648Z</time>
      </trkpt>
      <trkpt lat="47.8867" lon="-3.93539">
        <ele>46</ele>
        <time>2022-12-29T06:13:10.038Z</time>
      </trkpt>
      <trkpt lat="47.88643" lon="-3.93542">
        <ele>46</ele>
        <time>2022-12-29T06:13:33.433Z</time>
      </trkpt>
      <trkpt lat="47.88641" lon="-3.93542">
        <ele>47</ele>
        <time>2022-12-29T06:13:56.828Z</time>
      </trkpt>
    </trkseg>
  </trk>
</gpx>